<?xml version="1.0" encoding="UTF-8"?>
<gpx version="1.1" creator="https://www.youtrack.es" xsi:schemaLocation="http://www.topografix.com/GPX/1/1 http://www.topografix.com/GPX/1/1/gpx.xsd http://www.garmin.com/xmlschemas/GpxExtensions/v3 http://www.garmin.com/xmlschemas/GpxExtensionsv3.xsd http://www.garmin.com/xmlschemas/TrackPointExtension/v1 http://www.garmin.com/xmlschemas/TrackPointExtensionv1.xsd" xmlns:gpxtpx="http://www.garmin.com/xmlschemas/TrackPointExtension/v1" xmlns:gpxx="http://www.garmin.com/xmlschemas/GpxExtensions/v3" xmlns:xsi="http://www.w3.org/2001/XMLSchema-instance">
  <metadata>
    <link href="https://www.youtrack.es">
      <text>YouTrack.es</text>
    </link>
    <time>2026-05-08T17:01:24Z</time>
  </metadata>
  <trk>
    <src>https://www.youtrack.es</src>
    <link href="https://www.youtrack.es/ruta/28580-sabadell-ciclismo-de-montana">
      <text>YouTrack.es</text>
    </link>
    <trkseg>
      <trkpt lat="41.54494003392755985260009765625" lon="2.1171708405017852783203125">
        <ele>190.8000030517578125</ele>
        <time>2022-01-07T08:04:37.000Z</time>
      </trkpt>
      <trkpt lat="41.54493995010852813720703125" lon="2.1171696670353412628173828125">
        <ele>189.8000030517578125</ele>
        <time>2022-01-07T08:04:38.000Z</time>
      </trkpt>
      <trkpt lat="41.54497121460735797882080078125" lon="2.1171964891254901885986328125">
        <ele>189.399993896484375</ele>
        <time>2022-01-07T08:04:44.000Z</time>
      </trkpt>
      <trkpt lat="41.5449843741953372955322265625" lon="2.117219455540180206298828125">
        <ele>189.399993896484375</ele>
        <time>2022-01-07T08:04:45.000Z</time>
      </trkpt>
      <trkpt lat="41.54499468393623828887939453125" lon="2.1172434277832508087158203125">
        <ele>189.600006103515625</ele>
        <time>2022-01-07T08:04:46.000Z</time>
      </trkpt>
      <trkpt lat="41.54499828815460205078125" lon="2.11726396344602108001708984375">
        <ele>189.600006103515625</ele>
        <time>2022-01-07T08:04:47.000Z</time>
      </trkpt>
      <trkpt lat="41.544999293982982635498046875" lon="2.11728910915553569793701171875">
        <ele>189.600006103515625</ele>
        <time>2022-01-07T08:04:48.000Z</time>
      </trkpt>
      <trkpt lat="41.54500122182071208953857421875" lon="2.11732037365436553955078125">
        <ele>189.8000030517578125</ele>
        <time>2022-01-07T08:04:49.000Z</time>
      </trkpt>
      <trkpt lat="41.5450091846287250518798828125" lon="2.1173379756510257720947265625">
        <ele>189.600006103515625</ele>
        <time>2022-01-07T08:04:50.000Z</time>
      </trkpt>
      <trkpt lat="41.54501907527446746826171875" lon="2.11736236698925495147705078125">
        <ele>189.600006103515625</ele>
        <time>2022-01-07T08:04:51.000Z</time>
      </trkpt>
      <trkpt lat="41.5450299717485904693603515625" lon="2.1173839084804058074951171875">
        <ele>189.600006103515625</ele>
        <time>2022-01-07T08:04:52.000Z</time>
      </trkpt>
      <trkpt lat="41.54503994621336460113525390625" lon="2.11740192957222461700439453125">
        <ele>189.600006103515625</ele>
        <time>2022-01-07T08:04:53.000Z</time>
      </trkpt>
      <trkpt lat="41.5450474061071872711181640625" lon="2.11742221377789974212646484375">
        <ele>189.399993896484375</ele>
        <time>2022-01-07T08:04:54.000Z</time>
      </trkpt>
      <trkpt lat="41.54504782520234584808349609375" lon="2.1174445934593677520751953125">
        <ele>189.1999969482421875</ele>
        <time>2022-01-07T08:04:55.000Z</time>
      </trkpt>
      <trkpt lat="41.545042209327220916748046875" lon="2.117469571530818939208984375">
        <ele>189.399993896484375</ele>
        <time>2022-01-07T08:04:56.000Z</time>
      </trkpt>
      <trkpt lat="41.54502368532121181488037109375" lon="2.11748423986136913299560546875">
        <ele>189.399993896484375</ele>
        <time>2022-01-07T08:04:57.000Z</time>
      </trkpt>
      <trkpt lat="41.5449951030313968658447265625" lon="2.117500416934490203857421875">
        <ele>189.399993896484375</ele>
        <time>2022-01-07T08:04:58.000Z</time>
      </trkpt>
      <trkpt lat="41.5449699573218822479248046875" lon="2.1175146661698818206787109375">
        <ele>189.399993896484375</ele>
        <time>2022-01-07T08:04:59.000Z</time>
      </trkpt>
      <trkpt lat="41.54495042748749256134033203125" lon="2.1175337769091129302978515625">
        <ele>189.399993896484375</ele>
        <time>2022-01-07T08:05:00.000Z</time>
      </trkpt>
      <trkpt lat="41.54492461122572422027587890625" lon="2.11754475720226764678955078125">
        <ele>189.399993896484375</ele>
        <time>2022-01-07T08:05:01.000Z</time>
      </trkpt>
      <trkpt lat="41.54490449465811252593994140625" lon="2.11754861287772655487060546875">
        <ele>189.399993896484375</ele>
        <time>2022-01-07T08:05:02.000Z</time>
      </trkpt>
      <trkpt lat="41.54487968422472476959228515625" lon="2.11755548603832721710205078125">
        <ele>189.399993896484375</ele>
        <time>2022-01-07T08:05:03.000Z</time>
      </trkpt>
      <trkpt lat="41.54485185630619525909423828125" lon="2.1175629459321498870849609375">
        <ele>189.1999969482421875</ele>
        <time>2022-01-07T08:05:04.000Z</time>
      </trkpt>
      <trkpt lat="41.544820256531238555908203125" lon="2.11757258512079715728759765625">
        <ele>189.1999969482421875</ele>
        <time>2022-01-07T08:05:05.000Z</time>
      </trkpt>
      <trkpt lat="41.54478429816663265228271484375" lon="2.1175823919475078582763671875">
        <ele>189.1999969482421875</ele>
        <time>2022-01-07T08:05:06.000Z</time>
      </trkpt>
      <trkpt lat="41.54475093819200992584228515625" lon="2.11759303696453571319580078125">
        <ele>189.1999969482421875</ele>
        <time>2022-01-07T08:05:07.000Z</time>
      </trkpt>
      <trkpt lat="41.5447211824357509613037109375" lon="2.11760745383799076080322265625">
        <ele>189.1999969482421875</ele>
        <time>2022-01-07T08:05:08.000Z</time>
      </trkpt>
      <trkpt lat="41.54469997622072696685791015625" lon="2.11763662286102771759033203125">
        <ele>189</ele>
        <time>2022-01-07T08:05:09.000Z</time>
      </trkpt>
      <trkpt lat="41.54468136839568614959716796875" lon="2.1176843158900737762451171875">
        <ele>189</ele>
        <time>2022-01-07T08:05:10.000Z</time>
      </trkpt>
      <trkpt lat="41.5446836315095424652099609375" lon="2.11773703806102275848388671875">
        <ele>188.8000030517578125</ele>
        <time>2022-01-07T08:05:11.000Z</time>
      </trkpt>
      <trkpt lat="41.54469075612723827362060546875" lon="2.1177788637578487396240234375">
        <ele>188.8000030517578125</ele>
        <time>2022-01-07T08:05:12.000Z</time>
      </trkpt>
      <trkpt lat="41.544698886573314666748046875" lon="2.11782731115818023681640625">
        <ele>188.8000030517578125</ele>
        <time>2022-01-07T08:05:13.000Z</time>
      </trkpt>
      <trkpt lat="41.544704250991344451904296875" lon="2.11787601001560688018798828125">
        <ele>188.600006103515625</ele>
        <time>2022-01-07T08:05:14.000Z</time>
      </trkpt>
      <trkpt lat="41.54470751993358135223388671875" lon="2.11790970526635646820068359375">
        <ele>188.600006103515625</ele>
        <time>2022-01-07T08:05:15.000Z</time>
      </trkpt>
      <trkpt lat="41.54471053741872310638427734375" lon="2.1179411374032497406005859375">
        <ele>188.600006103515625</ele>
        <time>2022-01-07T08:05:16.000Z</time>
      </trkpt>
      <trkpt lat="41.54471137560904026031494140625" lon="2.11796754039824008941650390625">
        <ele>188.600006103515625</ele>
        <time>2022-01-07T08:05:17.000Z</time>
      </trkpt>
      <trkpt lat="41.5447097830474376678466796875" lon="2.118003666400909423828125">
        <ele>188.600006103515625</ele>
        <time>2022-01-07T08:05:18.000Z</time>
      </trkpt>
      <trkpt lat="41.54470098204910755157470703125" lon="2.11803191341459751129150390625">
        <ele>188.399993896484375</ele>
        <time>2022-01-07T08:05:19.000Z</time>
      </trkpt>
      <trkpt lat="41.54468555934727191925048828125" lon="2.118055634200572967529296875">
        <ele>188.399993896484375</ele>
        <time>2022-01-07T08:05:20.000Z</time>
      </trkpt>
      <trkpt lat="41.5446702204644680023193359375" lon="2.118071056902408599853515625">
        <ele>188.399993896484375</ele>
        <time>2022-01-07T08:05:21.000Z</time>
      </trkpt>
      <trkpt lat="41.54464784078299999237060546875" lon="2.1180879883468151092529296875">
        <ele>188.399993896484375</ele>
        <time>2022-01-07T08:05:22.000Z</time>
      </trkpt>
      <trkpt lat="41.54461766593158245086669921875" lon="2.118108272552490234375">
        <ele>188.399993896484375</ele>
        <time>2022-01-07T08:05:23.000Z</time>
      </trkpt>
      <trkpt lat="41.544593609869480133056640625" lon="2.11812579073011875152587890625">
        <ele>188.399993896484375</ele>
        <time>2022-01-07T08:05:24.000Z</time>
      </trkpt>
      <trkpt lat="41.54455966316163539886474609375" lon="2.11814909242093563079833984375">
        <ele>188.399993896484375</ele>
        <time>2022-01-07T08:05:25.000Z</time>
      </trkpt>
      <trkpt lat="41.544517837464809417724609375" lon="2.11817055009305477142333984375">
        <ele>188.399993896484375</ele>
        <time>2022-01-07T08:05:26.000Z</time>
      </trkpt>
      <trkpt lat="41.54447366483509540557861328125" lon="2.11819167248904705047607421875">
        <ele>188.1999969482421875</ele>
        <time>2022-01-07T08:05:27.000Z</time>
      </trkpt>
      <trkpt lat="41.544419936835765838623046875" lon="2.11821782402694225311279296875">
        <ele>188.1999969482421875</ele>
        <time>2022-01-07T08:05:28.000Z</time>
      </trkpt>
      <trkpt lat="41.544378697872161865234375" lon="2.11824062280356884002685546875">
        <ele>188.1999969482421875</ele>
        <time>2022-01-07T08:05:29.000Z</time>
      </trkpt>
      <trkpt lat="41.5443386323750019073486328125" lon="2.11826593615114688873291015625">
        <ele>188.1999969482421875</ele>
        <time>2022-01-07T08:05:30.000Z</time>
      </trkpt>
      <trkpt lat="41.54430636204779148101806640625" lon="2.11828404106199741363525390625">
        <ele>188</ele>
        <time>2022-01-07T08:05:31.000Z</time>
      </trkpt>
      <trkpt lat="41.544256322085857391357421875" lon="2.1183096058666706085205078125">
        <ele>188</ele>
        <time>2022-01-07T08:05:32.000Z</time>
      </trkpt>
      <trkpt lat="41.544213406741619110107421875" lon="2.118332572281360626220703125">
        <ele>187.600006103515625</ele>
        <time>2022-01-07T08:05:33.000Z</time>
      </trkpt>
      <trkpt lat="41.544170491397380828857421875" lon="2.1183592267334461212158203125">
        <ele>187.399993896484375</ele>
        <time>2022-01-07T08:05:34.000Z</time>
      </trkpt>
      <trkpt lat="41.54412631876766681671142578125" lon="2.11838328279554843902587890625">
        <ele>187.1999969482421875</ele>
        <time>2022-01-07T08:05:35.000Z</time>
      </trkpt>
      <trkpt lat="41.54408994130790233612060546875" lon="2.11840205825865268707275390625">
        <ele>186.8000030517578125</ele>
        <time>2022-01-07T08:05:36.000Z</time>
      </trkpt>
      <trkpt lat="41.5440479479730129241943359375" lon="2.11842535994946956634521484375">
        <ele>186.600006103515625</ele>
        <time>2022-01-07T08:05:37.000Z</time>
      </trkpt>
      <trkpt lat="41.5439993329346179962158203125" lon="2.11845092475414276123046875">
        <ele>186.600006103515625</ele>
        <time>2022-01-07T08:05:38.000Z</time>
      </trkpt>
      <trkpt lat="41.54395750723779201507568359375" lon="2.11846794001758098602294921875">
        <ele>186.399993896484375</ele>
        <time>2022-01-07T08:05:39.000Z</time>
      </trkpt>
      <trkpt lat="41.543923057615756988525390625" lon="2.11848847568035125732421875">
        <ele>186.1999969482421875</ele>
        <time>2022-01-07T08:05:40.000Z</time>
      </trkpt>
      <trkpt lat="41.5438980795443058013916015625" lon="2.11850213818252086639404296875">
        <ele>186.1999969482421875</ele>
        <time>2022-01-07T08:05:41.000Z</time>
      </trkpt>
      <trkpt lat="41.54386849142611026763916015625" lon="2.118514962494373321533203125">
        <ele>186</ele>
        <time>2022-01-07T08:05:42.000Z</time>
      </trkpt>
      <trkpt lat="41.543837226927280426025390625" lon="2.1185292117297649383544921875">
        <ele>185.8000030517578125</ele>
        <time>2022-01-07T08:05:43.000Z</time>
      </trkpt>
      <trkpt lat="41.54382222332060337066650390625" lon="2.11854119785130023956298828125">
        <ele>185.600006103515625</ele>
        <time>2022-01-07T08:05:44.000Z</time>
      </trkpt>
      <trkpt lat="41.5438122488558292388916015625" lon="2.11855326779186725616455078125">
        <ele>185.600006103515625</ele>
        <time>2022-01-07T08:05:45.000Z</time>
      </trkpt>
      <trkpt lat="41.5438038669526576995849609375" lon="2.11856424808502197265625">
        <ele>185.399993896484375</ele>
        <time>2022-01-07T08:05:46.000Z</time>
      </trkpt>
      <trkpt lat="41.5437884442508220672607421875" lon="2.11857573129236698150634765625">
        <ele>185.1999969482421875</ele>
        <time>2022-01-07T08:05:47.000Z</time>
      </trkpt>
      <trkpt lat="41.54376556165516376495361328125" lon="2.11858562193810939788818359375">
        <ele>185.1999969482421875</ele>
        <time>2022-01-07T08:05:48.000Z</time>
      </trkpt>
      <trkpt lat="41.54374293051660060882568359375" lon="2.1185925789177417755126953125">
        <ele>185.1999969482421875</ele>
        <time>2022-01-07T08:05:49.000Z</time>
      </trkpt>
      <trkpt lat="41.54371929354965686798095703125" lon="2.11860322393476963043212890625">
        <ele>185.1999969482421875</ele>
        <time>2022-01-07T08:05:50.000Z</time>
      </trkpt>
      <trkpt lat="41.54369967989623546600341796875" lon="2.11861579678952693939208984375">
        <ele>185</ele>
        <time>2022-01-07T08:05:51.000Z</time>
      </trkpt>
      <trkpt lat="41.5436721034348011016845703125" lon="2.11862853728234767913818359375">
        <ele>185</ele>
        <time>2022-01-07T08:05:52.000Z</time>
      </trkpt>
      <trkpt lat="41.54363379813730716705322265625" lon="2.1186445467174053192138671875">
        <ele>185</ele>
        <time>2022-01-07T08:05:53.000Z</time>
      </trkpt>
      <trkpt lat="41.54360764659941196441650390625" lon="2.11865653283894062042236328125">
        <ele>184.8000030517578125</ele>
        <time>2022-01-07T08:05:54.000Z</time>
      </trkpt>
      <trkpt lat="41.5435755439102649688720703125" lon="2.1186706982553005218505859375">
        <ele>184.8000030517578125</ele>
        <time>2022-01-07T08:05:55.000Z</time>
      </trkpt>
      <trkpt lat="41.54354059137403964996337890625" lon="2.11868586950004100799560546875">
        <ele>184.8000030517578125</ele>
        <time>2022-01-07T08:05:56.000Z</time>
      </trkpt>
      <trkpt lat="41.54350773431360721588134765625" lon="2.11870213039219379425048828125">
        <ele>184.8000030517578125</ele>
        <time>2022-01-07T08:05:57.000Z</time>
      </trkpt>
      <trkpt lat="41.54346733354032039642333984375" lon="2.118725515902042388916015625">
        <ele>184.600006103515625</ele>
        <time>2022-01-07T08:05:58.000Z</time>
      </trkpt>
      <trkpt lat="41.54343866743147373199462890625" lon="2.1187399327754974365234375">
        <ele>184.600006103515625</ele>
        <time>2022-01-07T08:05:59.000Z</time>
      </trkpt>
      <trkpt lat="41.54340245760977268218994140625" lon="2.11875661276280879974365234375">
        <ele>184.399993896484375</ele>
        <time>2022-01-07T08:06:00.000Z</time>
      </trkpt>
      <trkpt lat="41.54336708597838878631591796875" lon="2.1187748014926910400390625">
        <ele>184.1999969482421875</ele>
        <time>2022-01-07T08:06:01.000Z</time>
      </trkpt>
      <trkpt lat="41.54333087615668773651123046875" lon="2.11879265494644641876220703125">
        <ele>184</ele>
        <time>2022-01-07T08:06:02.000Z</time>
      </trkpt>
      <trkpt lat="41.5432858653366565704345703125" lon="2.118817381560802459716796875">
        <ele>184</ele>
        <time>2022-01-07T08:06:03.000Z</time>
      </trkpt>
      <trkpt lat="41.54324621893465518951416015625" lon="2.11883716285228729248046875">
        <ele>183.8000030517578125</ele>
        <time>2022-01-07T08:06:04.000Z</time>
      </trkpt>
      <trkpt lat="41.54320481233298778533935546875" lon="2.11885635741055011749267578125">
        <ele>183.8000030517578125</ele>
        <time>2022-01-07T08:06:05.000Z</time>
      </trkpt>
      <trkpt lat="41.543170027434825897216796875" lon="2.1188732050359249114990234375">
        <ele>183.600006103515625</ele>
        <time>2022-01-07T08:06:06.000Z</time>
      </trkpt>
      <trkpt lat="41.54312920756638050079345703125" lon="2.1188966743648052215576171875">
        <ele>183.600006103515625</ele>
        <time>2022-01-07T08:06:07.000Z</time>
      </trkpt>
      <trkpt lat="41.543082855641841888427734375" lon="2.1189265139400959014892578125">
        <ele>183.399993896484375</ele>
        <time>2022-01-07T08:06:08.000Z</time>
      </trkpt>
      <trkpt lat="41.5430551953613758087158203125" lon="2.11896029300987720489501953125">
        <ele>183.399993896484375</ele>
        <time>2022-01-07T08:06:09.000Z</time>
      </trkpt>
      <trkpt lat="41.543049328029155731201171875" lon="2.1190046332776546478271484375">
        <ele>183</ele>
        <time>2022-01-07T08:06:10.000Z</time>
      </trkpt>
      <trkpt lat="41.54305972158908843994140625" lon="2.1190458722412586212158203125">
        <ele>183</ele>
        <time>2022-01-07T08:06:11.000Z</time>
      </trkpt>
      <trkpt lat="41.54307187534868717193603515625" lon="2.1190971694886684417724609375">
        <ele>182.8000030517578125</ele>
        <time>2022-01-07T08:06:12.000Z</time>
      </trkpt>
      <trkpt lat="41.54308344237506389617919921875" lon="2.11915894411504268646240234375">
        <ele>182.600006103515625</ele>
        <time>2022-01-07T08:06:13.000Z</time>
      </trkpt>
      <trkpt lat="41.54309517703950405120849609375" lon="2.11920906789600849151611328125">
        <ele>182.399993896484375</ele>
        <time>2022-01-07T08:06:14.000Z</time>
      </trkpt>
      <trkpt lat="41.54310842044651508331298828125" lon="2.119258604943752288818359375">
        <ele>182.399993896484375</ele>
        <time>2022-01-07T08:06:15.000Z</time>
      </trkpt>
      <trkpt lat="41.54312384314835071563720703125" lon="2.1193077228963375091552734375">
        <ele>182.1999969482421875</ele>
        <time>2022-01-07T08:06:16.000Z</time>
      </trkpt>
      <trkpt lat="41.54313926585018634796142578125" lon="2.11935608647763729095458984375">
        <ele>182.1999969482421875</ele>
        <time>2022-01-07T08:06:17.000Z</time>
      </trkpt>
      <trkpt lat="41.54315494000911712646484375" lon="2.11940310895442962646484375">
        <ele>182.1999969482421875</ele>
        <time>2022-01-07T08:06:18.000Z</time>
      </trkpt>
      <trkpt lat="41.54316809959709644317626953125" lon="2.11944870650768280029296875">
        <ele>182.1999969482421875</ele>
        <time>2022-01-07T08:06:19.000Z</time>
      </trkpt>
      <trkpt lat="41.5431784093379974365234375" lon="2.11948533542454242706298828125">
        <ele>182.1999969482421875</ele>
        <time>2022-01-07T08:06:20.000Z</time>
      </trkpt>
      <trkpt lat="41.54319106601178646087646484375" lon="2.11952984333038330078125">
        <ele>182.1999969482421875</ele>
        <time>2022-01-07T08:06:21.000Z</time>
      </trkpt>
      <trkpt lat="41.54320347122848033905029296875" lon="2.11957569234073162078857421875">
        <ele>182.1999969482421875</ele>
        <time>2022-01-07T08:06:22.000Z</time>
      </trkpt>
      <trkpt lat="41.54321520589292049407958984375" lon="2.11961927823722362518310546875">
        <ele>182.1999969482421875</ele>
        <time>2022-01-07T08:06:23.000Z</time>
      </trkpt>
      <trkpt lat="41.5432275272905826568603515625" lon="2.1196604333817958831787109375">
        <ele>182.1999969482421875</ele>
        <time>2022-01-07T08:06:24.000Z</time>
      </trkpt>
      <trkpt lat="41.54323833994567394256591796875" lon="2.11970083415508270263671875">
        <ele>182.1999969482421875</ele>
        <time>2022-01-07T08:06:25.000Z</time>
      </trkpt>
      <trkpt lat="41.543247140944004058837890625" lon="2.11974240839481353759765625">
        <ele>182.1999969482421875</ele>
        <time>2022-01-07T08:06:26.000Z</time>
      </trkpt>
      <trkpt lat="41.5432583726942539215087890625" lon="2.119794376194477081298828125">
        <ele>182.399993896484375</ele>
        <time>2022-01-07T08:06:27.000Z</time>
      </trkpt>
      <trkpt lat="41.54326817952096462249755859375" lon="2.11983402259647846221923828125">
        <ele>182.399993896484375</ele>
        <time>2022-01-07T08:06:28.000Z</time>
      </trkpt>
      <trkpt lat="41.54327689670026302337646484375" lon="2.1198723278939723968505859375">
        <ele>182.600006103515625</ele>
        <time>2022-01-07T08:06:29.000Z</time>
      </trkpt>
      <trkpt lat="41.543286032974720001220703125" lon="2.1199004910886287689208984375">
        <ele>182.600006103515625</ele>
        <time>2022-01-07T08:06:30.000Z</time>
      </trkpt>
      <trkpt lat="41.543297432363033294677734375" lon="2.119935862720012664794921875">
        <ele>182.600006103515625</ele>
        <time>2022-01-07T08:06:31.000Z</time>
      </trkpt>
      <trkpt lat="41.54330908320844173431396484375" lon="2.11997902952134609222412109375">
        <ele>182.8000030517578125</ele>
        <time>2022-01-07T08:06:32.000Z</time>
      </trkpt>
      <trkpt lat="41.5433180518448352813720703125" lon="2.12000601924955844879150390625">
        <ele>182.8000030517578125</ele>
        <time>2022-01-07T08:06:33.000Z</time>
      </trkpt>
      <trkpt lat="41.54333171434700489044189453125" lon="2.1200449950993061065673828125">
        <ele>182.8000030517578125</ele>
        <time>2022-01-07T08:06:34.000Z</time>
      </trkpt>
      <trkpt lat="41.54334495775401592254638671875" lon="2.12008112110197544097900390625">
        <ele>183</ele>
        <time>2022-01-07T08:06:35.000Z</time>
      </trkpt>
      <trkpt lat="41.54335686005651950836181640625" lon="2.12011925876140594482421875">
        <ele>183</ele>
        <time>2022-01-07T08:06:36.000Z</time>
      </trkpt>
      <trkpt lat="41.54336825944483280181884765625" lon="2.12016024626791477203369140625">
        <ele>183</ele>
        <time>2022-01-07T08:06:37.000Z</time>
      </trkpt>
      <trkpt lat="41.54338032938539981842041015625" lon="2.12020198814570903778076171875">
        <ele>183</ele>
        <time>2022-01-07T08:06:38.000Z</time>
      </trkpt>
      <trkpt lat="41.5433921478688716888427734375" lon="2.12024406529963016510009765625">
        <ele>183</ele>
        <time>2022-01-07T08:06:39.000Z</time>
      </trkpt>
      <trkpt lat="41.5434015356004238128662109375" lon="2.12028346024453639984130859375">
        <ele>183.1999969482421875</ele>
        <time>2022-01-07T08:06:40.000Z</time>
      </trkpt>
      <trkpt lat="41.54341243207454681396484375" lon="2.12032034061849117279052734375">
        <ele>183.1999969482421875</ele>
        <time>2022-01-07T08:06:41.000Z</time>
      </trkpt>
      <trkpt lat="41.543423496186733245849609375" lon="2.1203492581844329833984375">
        <ele>183.1999969482421875</ele>
        <time>2022-01-07T08:06:42.000Z</time>
      </trkpt>
      <trkpt lat="41.5434333868324756622314453125" lon="2.1203702129423618316650390625">
        <ele>183.1999969482421875</ele>
        <time>2022-01-07T08:06:43.000Z</time>
      </trkpt>
      <trkpt lat="41.54344067908823490142822265625" lon="2.12038236670196056365966796875">
        <ele>183.399993896484375</ele>
        <time>2022-01-07T08:06:44.000Z</time>
      </trkpt>
      <trkpt lat="41.5434404276311397552490234375" lon="2.1203889884054660797119140625">
        <ele>183.399993896484375</ele>
        <time>2022-01-07T08:06:45.000Z</time>
      </trkpt>
      <trkpt lat="41.543441601097583770751953125" lon="2.1203893236815929412841796875">
        <ele>183.399993896484375</ele>
        <time>2022-01-07T08:06:46.000Z</time>
      </trkpt>
      <trkpt lat="41.54344604350626468658447265625" lon="2.12039208970963954925537109375">
        <ele>183.399993896484375</ele>
        <time>2022-01-07T08:06:47.000Z</time>
      </trkpt>
      <trkpt lat="41.54348216950893402099609375" lon="2.12042746134102344512939453125">
        <ele>183.399993896484375</ele>
        <time>2022-01-07T08:06:50.000Z</time>
      </trkpt>
      <trkpt lat="41.543495245277881622314453125" lon="2.1204578876495361328125">
        <ele>183.600006103515625</ele>
        <time>2022-01-07T08:06:51.000Z</time>
      </trkpt>
      <trkpt lat="41.54350857250392436981201171875" lon="2.120492421090602874755859375">
        <ele>183.600006103515625</ele>
        <time>2022-01-07T08:06:52.000Z</time>
      </trkpt>
      <trkpt lat="41.54351460747420787811279296875" lon="2.1205328218638896942138671875">
        <ele>183.600006103515625</ele>
        <time>2022-01-07T08:06:53.000Z</time>
      </trkpt>
      <trkpt lat="41.5435218997299671173095703125" lon="2.1205750666558742523193359375">
        <ele>183.600006103515625</ele>
        <time>2022-01-07T08:06:54.000Z</time>
      </trkpt>
      <trkpt lat="41.5435309521853923797607421875" lon="2.120614461600780487060546875">
        <ele>183.600006103515625</ele>
        <time>2022-01-07T08:06:55.000Z</time>
      </trkpt>
      <trkpt lat="41.54353757388889789581298828125" lon="2.12065243162214756011962890625">
        <ele>183.8000030517578125</ele>
        <time>2022-01-07T08:06:56.000Z</time>
      </trkpt>
      <trkpt lat="41.54354562051594257354736328125" lon="2.12068813852965831756591796875">
        <ele>183.8000030517578125</ele>
        <time>2022-01-07T08:06:57.000Z</time>
      </trkpt>
      <trkpt lat="41.54355458915233612060546875" lon="2.12072183378040790557861328125">
        <ele>183.8000030517578125</ele>
        <time>2022-01-07T08:06:58.000Z</time>
      </trkpt>
      <trkpt lat="41.54356263577938079833984375" lon="2.12075334973633289337158203125">
        <ele>183.8000030517578125</ele>
        <time>2022-01-07T08:06:59.000Z</time>
      </trkpt>
      <trkpt lat="41.543573029339313507080078125" lon="2.12078168056905269622802734375">
        <ele>183.8000030517578125</ele>
        <time>2022-01-07T08:07:00.000Z</time>
      </trkpt>
      <trkpt lat="41.543579734861850738525390625" lon="2.12081084959208965301513671875">
        <ele>184</ele>
        <time>2022-01-07T08:07:01.000Z</time>
      </trkpt>
      <trkpt lat="41.54358535073697566986083984375" lon="2.12084085680544376373291015625">
        <ele>184</ele>
        <time>2022-01-07T08:07:02.000Z</time>
      </trkpt>
      <trkpt lat="41.54359272681176662445068359375" lon="2.12087103165686130523681640625">
        <ele>184</ele>
        <time>2022-01-07T08:07:03.000Z</time>
      </trkpt>
      <trkpt lat="41.5435963310301303863525390625" lon="2.12090522982180118560791015625">
        <ele>184</ele>
        <time>2022-01-07T08:07:04.000Z</time>
      </trkpt>
      <trkpt lat="41.5436043776571750640869140625" lon="2.12093867361545562744140625">
        <ele>184</ele>
        <time>2022-01-07T08:07:05.000Z</time>
      </trkpt>
      <trkpt lat="41.5436120890080928802490234375" lon="2.1209700219333171844482421875">
        <ele>184.1999969482421875</ele>
        <time>2022-01-07T08:07:06.000Z</time>
      </trkpt>
      <trkpt lat="41.54361921362578868865966796875" lon="2.121002376079559326171875">
        <ele>184.1999969482421875</ele>
        <time>2022-01-07T08:07:07.000Z</time>
      </trkpt>
      <trkpt lat="41.543625332415103912353515625" lon="2.12103397585451602935791015625">
        <ele>184.1999969482421875</ele>
        <time>2022-01-07T08:07:08.000Z</time>
      </trkpt>
      <trkpt lat="41.54363312758505344390869140625" lon="2.1210645698010921478271484375">
        <ele>184.1999969482421875</ele>
        <time>2022-01-07T08:07:09.000Z</time>
      </trkpt>
      <trkpt lat="41.5436405874788761138916015625" lon="2.121093235909938812255859375">
        <ele>184.1999969482421875</ele>
        <time>2022-01-07T08:07:10.000Z</time>
      </trkpt>
      <trkpt lat="41.54364586807787418365478515625" lon="2.12112718261778354644775390625">
        <ele>184.1999969482421875</ele>
        <time>2022-01-07T08:07:11.000Z</time>
      </trkpt>
      <trkpt lat="41.54365248978137969970703125" lon="2.121163308620452880859375">
        <ele>184.399993896484375</ele>
        <time>2022-01-07T08:07:12.000Z</time>
      </trkpt>
      <trkpt lat="41.54366229660809040069580078125" lon="2.1211983449757099151611328125">
        <ele>184.399993896484375</ele>
        <time>2022-01-07T08:07:13.000Z</time>
      </trkpt>
      <trkpt lat="41.543672941625118255615234375" lon="2.12123237550258636474609375">
        <ele>184.399993896484375</ele>
        <time>2022-01-07T08:07:14.000Z</time>
      </trkpt>
      <trkpt lat="41.5436831675469875335693359375" lon="2.12126933969557285308837890625">
        <ele>184.399993896484375</ele>
        <time>2022-01-07T08:07:15.000Z</time>
      </trkpt>
      <trkpt lat="41.54369263909757137298583984375" lon="2.1213093213737010955810546875">
        <ele>184.399993896484375</ele>
        <time>2022-01-07T08:07:16.000Z</time>
      </trkpt>
      <trkpt lat="41.54370504431426525115966796875" lon="2.1213508956134319305419921875">
        <ele>184.399993896484375</ele>
        <time>2022-01-07T08:07:17.000Z</time>
      </trkpt>
      <trkpt lat="41.5437173657119274139404296875" lon="2.1213884465396404266357421875">
        <ele>184.399993896484375</ele>
        <time>2022-01-07T08:07:18.000Z</time>
      </trkpt>
      <trkpt lat="41.54372759163379669189453125" lon="2.1214236505329608917236328125">
        <ele>184.399993896484375</ele>
        <time>2022-01-07T08:07:19.000Z</time>
      </trkpt>
      <trkpt lat="41.5437348000705242156982421875" lon="2.1214598603546619415283203125">
        <ele>184.1999969482421875</ele>
        <time>2022-01-07T08:07:20.000Z</time>
      </trkpt>
      <trkpt lat="41.54374293051660060882568359375" lon="2.121495567262172698974609375">
        <ele>184.1999969482421875</ele>
        <time>2022-01-07T08:07:21.000Z</time>
      </trkpt>
      <trkpt lat="41.54374913312494754791259765625" lon="2.12153018452227115631103515625">
        <ele>184.1999969482421875</ele>
        <time>2022-01-07T08:07:22.000Z</time>
      </trkpt>
      <trkpt lat="41.5437550842761993408203125" lon="2.12156153284013271331787109375">
        <ele>184.1999969482421875</ele>
        <time>2022-01-07T08:07:23.000Z</time>
      </trkpt>
      <trkpt lat="41.5437559224665164947509765625" lon="2.1215859241783618927001953125">
        <ele>184.1999969482421875</ele>
        <time>2022-01-07T08:07:24.000Z</time>
      </trkpt>
      <trkpt lat="41.54375198297202587127685546875" lon="2.121608555316925048828125">
        <ele>184</ele>
        <time>2022-01-07T08:07:25.000Z</time>
      </trkpt>
      <trkpt lat="41.54374762438237667083740234375" lon="2.1216298453509807586669921875">
        <ele>184</ele>
        <time>2022-01-07T08:07:26.000Z</time>
      </trkpt>
      <trkpt lat="41.54374494217336177825927734375" lon="2.1216476149857044219970703125">
        <ele>184</ele>
        <time>2022-01-07T08:07:27.000Z</time>
      </trkpt>
      <trkpt lat="41.54373941011726856231689453125" lon="2.1216593496501445770263671875">
        <ele>184</ele>
        <time>2022-01-07T08:07:28.000Z</time>
      </trkpt>
      <trkpt lat="41.54373287223279476165771484375" lon="2.1216662228107452392578125">
        <ele>184</ele>
        <time>2022-01-07T08:07:29.000Z</time>
      </trkpt>
      <trkpt lat="41.5437284298241138458251953125" lon="2.12166865356266498565673828125">
        <ele>184</ele>
        <time>2022-01-07T08:07:30.000Z</time>
      </trkpt>
      <trkpt lat="41.54372767545282840728759765625" lon="2.121667563915252685546875">
        <ele>184</ele>
        <time>2022-01-07T08:07:31.000Z</time>
      </trkpt>
      <trkpt lat="41.5436593629419803619384765625" lon="2.12165624834597110748291015625">
        <ele>184</ele>
        <time>2022-01-07T08:13:23.000Z</time>
      </trkpt>
      <trkpt lat="41.54365944676101207733154296875" lon="2.12165641598403453826904296875">
        <ele>184</ele>
        <time>2022-01-07T08:13:24.000Z</time>
      </trkpt>
      <trkpt lat="41.54363564215600490570068359375" lon="2.12170184589922428131103515625">
        <ele>184</ele>
        <time>2022-01-07T08:13:29.000Z</time>
      </trkpt>
      <trkpt lat="41.543615944683551788330078125" lon="2.12171785533428192138671875">
        <ele>184</ele>
        <time>2022-01-07T08:13:30.000Z</time>
      </trkpt>
      <trkpt lat="41.5435936488211154937744140625" lon="2.12173738516867160797119140625">
        <ele>184</ele>
        <time>2022-01-07T08:13:31.000Z</time>
      </trkpt>
      <trkpt lat="41.54356959275901317596435546875" lon="2.12176202796399593353271484375">
        <ele>184</ele>
        <time>2022-01-07T08:13:32.000Z</time>
      </trkpt>
      <trkpt lat="41.54353841207921504974365234375" lon="2.1217840723693370819091796875">
        <ele>184</ele>
        <time>2022-01-07T08:13:33.000Z</time>
      </trkpt>
      <trkpt lat="41.54350907541811466217041015625" lon="2.12180544622242450714111328125">
        <ele>184</ele>
        <time>2022-01-07T08:13:34.000Z</time>
      </trkpt>
      <trkpt lat="41.54348392970860004425048828125" lon="2.12182589806616306304931640625">
        <ele>184</ele>
        <time>2022-01-07T08:13:35.000Z</time>
      </trkpt>
      <trkpt lat="41.5434581972658634185791015625" lon="2.1218474395573139190673828125">
        <ele>183.8000030517578125</ele>
        <time>2022-01-07T08:13:36.000Z</time>
      </trkpt>
      <trkpt lat="41.543427519500255584716796875" lon="2.12185959331691265106201171875">
        <ele>183.8000030517578125</ele>
        <time>2022-01-07T08:13:37.000Z</time>
      </trkpt>
      <trkpt lat="41.5433929860591888427734375" lon="2.12187266908586025238037109375">
        <ele>183.8000030517578125</ele>
        <time>2022-01-07T08:13:38.000Z</time>
      </trkpt>
      <trkpt lat="41.5433607995510101318359375" lon="2.1218888461589813232421875">
        <ele>183.600006103515625</ele>
        <time>2022-01-07T08:13:39.000Z</time>
      </trkpt>
      <trkpt lat="41.54332702048122882843017578125" lon="2.1219051070511341094970703125">
        <ele>183.600006103515625</ele>
        <time>2022-01-07T08:13:40.000Z</time>
      </trkpt>
      <trkpt lat="41.54329298995435237884521484375" lon="2.121919356286525726318359375">
        <ele>183.600006103515625</ele>
        <time>2022-01-07T08:13:41.000Z</time>
      </trkpt>
      <trkpt lat="41.54326164163649082183837890625" lon="2.12193000130355358123779296875">
        <ele>183.399993896484375</ele>
        <time>2022-01-07T08:13:42.000Z</time>
      </trkpt>
      <trkpt lat="41.5432332269847393035888671875" lon="2.1219419874250888824462890625">
        <ele>183.399993896484375</ele>
        <time>2022-01-07T08:13:43.000Z</time>
      </trkpt>
      <trkpt lat="41.543204225599765777587890625" lon="2.1219533868134021759033203125">
        <ele>183.399993896484375</ele>
        <time>2022-01-07T08:13:44.000Z</time>
      </trkpt>
      <trkpt lat="41.54317765496671199798583984375" lon="2.1219639480113983154296875">
        <ele>183.399993896484375</ele>
        <time>2022-01-07T08:13:45.000Z</time>
      </trkpt>
      <trkpt lat="41.543149240314960479736328125" lon="2.12197744287550449371337890625">
        <ele>183.1999969482421875</ele>
        <time>2022-01-07T08:13:46.000Z</time>
      </trkpt>
      <trkpt lat="41.543118059635162353515625" lon="2.12199202738702297210693359375">
        <ele>183.1999969482421875</ele>
        <time>2022-01-07T08:13:47.000Z</time>
      </trkpt>
      <trkpt lat="41.543087549507617950439453125" lon="2.12200862355530261993408203125">
        <ele>183</ele>
        <time>2022-01-07T08:13:48.000Z</time>
      </trkpt>
      <trkpt lat="41.54305527918040752410888671875" lon="2.1220248006284236907958984375">
        <ele>183</ele>
        <time>2022-01-07T08:13:49.000Z</time>
      </trkpt>
      <trkpt lat="41.54301940463483333587646484375" lon="2.12204039096832275390625">
        <ele>183</ele>
        <time>2022-01-07T08:13:50.000Z</time>
      </trkpt>
      <trkpt lat="41.54297967441380023956298828125" lon="2.1220559813082218170166015625">
        <ele>182.8000030517578125</ele>
        <time>2022-01-07T08:13:51.000Z</time>
      </trkpt>
      <trkpt lat="41.54294128529727458953857421875" lon="2.1220727451145648956298828125">
        <ele>182.8000030517578125</ele>
        <time>2022-01-07T08:13:52.000Z</time>
      </trkpt>
      <trkpt lat="41.54290641658008098602294921875" lon="2.12208841927349567413330078125">
        <ele>182.8000030517578125</ele>
        <time>2022-01-07T08:13:53.000Z</time>
      </trkpt>
      <trkpt lat="41.54287330806255340576171875" lon="2.12210233323276042938232421875">
        <ele>182.8000030517578125</ele>
        <time>2022-01-07T08:13:54.000Z</time>
      </trkpt>
      <trkpt lat="41.54283978044986724853515625" lon="2.1221190132200717926025390625">
        <ele>182.600006103515625</ele>
        <time>2022-01-07T08:13:55.000Z</time>
      </trkpt>
      <trkpt lat="41.54280566610395908355712890625" lon="2.12213485501706600189208984375">
        <ele>182.600006103515625</ele>
        <time>2022-01-07T08:13:56.000Z</time>
      </trkpt>
      <trkpt lat="41.54277012683451175689697265625" lon="2.12214558385312557220458984375">
        <ele>182.600006103515625</ele>
        <time>2022-01-07T08:13:57.000Z</time>
      </trkpt>
      <trkpt lat="41.54273710213601589202880859375" lon="2.12215840816497802734375">
        <ele>182.399993896484375</ele>
        <time>2022-01-07T08:13:58.000Z</time>
      </trkpt>
      <trkpt lat="41.54270223341882228851318359375" lon="2.12217156775295734405517578125">
        <ele>182.1999969482421875</ele>
        <time>2022-01-07T08:13:59.000Z</time>
      </trkpt>
      <trkpt lat="41.54266677796840667724609375" lon="2.1221853978931903839111328125">
        <ele>182</ele>
        <time>2022-01-07T08:14:00.000Z</time>
      </trkpt>
      <trkpt lat="41.542632579803466796875" lon="2.12220224551856517791748046875">
        <ele>182</ele>
        <time>2022-01-07T08:14:01.000Z</time>
      </trkpt>
      <trkpt lat="41.542597375810146331787109375" lon="2.12221984751522541046142578125">
        <ele>182</ele>
        <time>2022-01-07T08:14:02.000Z</time>
      </trkpt>
      <trkpt lat="41.54256275855004787445068359375" lon="2.12223686277866363525390625">
        <ele>182</ele>
        <time>2022-01-07T08:14:03.000Z</time>
      </trkpt>
      <trkpt lat="41.5425311587750911712646484375" lon="2.12224532850086688995361328125">
        <ele>181.8000030517578125</ele>
        <time>2022-01-07T08:14:04.000Z</time>
      </trkpt>
      <trkpt lat="41.54250190593302249908447265625" lon="2.1222464181482791900634765625">
        <ele>181.8000030517578125</ele>
        <time>2022-01-07T08:14:05.000Z</time>
      </trkpt>
      <trkpt lat="41.54246670193970203399658203125" lon="2.122254632413387298583984375">
        <ele>181.600006103515625</ele>
        <time>2022-01-07T08:14:06.000Z</time>
      </trkpt>
      <trkpt lat="41.5424299053847789764404296875" lon="2.1222695522010326385498046875">
        <ele>181.600006103515625</ele>
        <time>2022-01-07T08:14:07.000Z</time>
      </trkpt>
      <trkpt lat="41.5423963777720928192138671875" lon="2.12227843701839447021484375">
        <ele>181.399993896484375</ele>
        <time>2022-01-07T08:14:08.000Z</time>
      </trkpt>
      <trkpt lat="41.54234482906758785247802734375" lon="2.12229461409151554107666015625">
        <ele>181.399993896484375</ele>
        <time>2022-01-07T08:14:09.000Z</time>
      </trkpt>
      <trkpt lat="41.5422981418669223785400390625" lon="2.12231506593525409698486328125">
        <ele>181.1999969482421875</ele>
        <time>2022-01-07T08:14:10.000Z</time>
      </trkpt>
      <trkpt lat="41.542249359190464019775390625" lon="2.122337780892848968505859375">
        <ele>180.8000030517578125</ele>
        <time>2022-01-07T08:14:11.000Z</time>
      </trkpt>
      <trkpt lat="41.542198397219181060791015625" lon="2.12235647253692150115966796875">
        <ele>180.399993896484375</ele>
        <time>2022-01-07T08:14:12.000Z</time>
      </trkpt>
      <trkpt lat="41.54214416630566120147705078125" lon="2.1223714761435985565185546875">
        <ele>180.1999969482421875</ele>
        <time>2022-01-07T08:14:13.000Z</time>
      </trkpt>
      <trkpt lat="41.5420892648398876190185546875" lon="2.1223828755319118499755859375">
        <ele>179.8000030517578125</ele>
        <time>2022-01-07T08:14:14.000Z</time>
      </trkpt>
      <trkpt lat="41.54203570447862148284912109375" lon="2.1223895810544490814208984375">
        <ele>179.600006103515625</ele>
        <time>2022-01-07T08:14:15.000Z</time>
      </trkpt>
      <trkpt lat="41.541979126632213592529296875" lon="2.12239150889217853546142578125">
        <ele>179.1999969482421875</ele>
        <time>2022-01-07T08:14:16.000Z</time>
      </trkpt>
      <trkpt lat="41.54192774556577205657958984375" lon="2.12238295935094356536865234375">
        <ele>178.8000030517578125</ele>
        <time>2022-01-07T08:14:17.000Z</time>
      </trkpt>
      <trkpt lat="41.5418810583651065826416015625" lon="2.12236921302974224090576171875">
        <ele>178.399993896484375</ele>
        <time>2022-01-07T08:14:18.000Z</time>
      </trkpt>
      <trkpt lat="41.54184191487729549407958984375" lon="2.12235219776630401611328125">
        <ele>178</ele>
        <time>2022-01-07T08:14:19.000Z</time>
      </trkpt>
      <trkpt lat="41.541802771389484405517578125" lon="2.12233250029385089874267578125">
        <ele>177.600006103515625</ele>
        <time>2022-01-07T08:14:20.000Z</time>
      </trkpt>
      <trkpt lat="41.54176312498748302459716796875" lon="2.1223128028213977813720703125">
        <ele>177.1999969482421875</ele>
        <time>2022-01-07T08:14:21.000Z</time>
      </trkpt>
      <trkpt lat="41.54172540642321109771728515625" lon="2.12228891439735889434814453125">
        <ele>176.8000030517578125</ele>
        <time>2022-01-07T08:14:22.000Z</time>
      </trkpt>
      <trkpt lat="41.5416842512786388397216796875" lon="2.1222655288875102996826171875">
        <ele>176.399993896484375</ele>
        <time>2022-01-07T08:14:23.000Z</time>
      </trkpt>
      <trkpt lat="41.5416410006582736968994140625" lon="2.1222447417676448822021484375">
        <ele>176.1999969482421875</ele>
        <time>2022-01-07T08:14:24.000Z</time>
      </trkpt>
      <trkpt lat="41.541597582399845123291015625" lon="2.12222387082874774932861328125">
        <ele>176</ele>
        <time>2022-01-07T08:14:25.000Z</time>
      </trkpt>
      <trkpt lat="41.54155508615076541900634765625" lon="2.12219637818634510040283203125">
        <ele>175.8000030517578125</ele>
        <time>2022-01-07T08:14:26.000Z</time>
      </trkpt>
      <trkpt lat="41.54151200316846370697021484375" lon="2.122164778411388397216796875">
        <ele>175.8000030517578125</ele>
        <time>2022-01-07T08:14:27.000Z</time>
      </trkpt>
      <trkpt lat="41.5414676629006862640380859375" lon="2.12214223109185695648193359375">
        <ele>175.600006103515625</ele>
        <time>2022-01-07T08:14:28.000Z</time>
      </trkpt>
      <trkpt lat="41.54142499901354312896728515625" lon="2.12212228216230869293212890625">
        <ele>175.399993896484375</ele>
        <time>2022-01-07T08:14:29.000Z</time>
      </trkpt>
      <trkpt lat="41.54138342477381229400634765625" lon="2.12210409343242645263671875">
        <ele>175.1999969482421875</ele>
        <time>2022-01-07T08:14:30.000Z</time>
      </trkpt>
      <trkpt lat="41.5413426049053668975830078125" lon="2.12208925746381282806396484375">
        <ele>174.8000030517578125</ele>
        <time>2022-01-07T08:14:31.000Z</time>
      </trkpt>
      <trkpt lat="41.5413040481507778167724609375" lon="2.12206997908651828765869140625">
        <ele>174.399993896484375</ele>
        <time>2022-01-07T08:14:32.000Z</time>
      </trkpt>
      <trkpt lat="41.54127538204193115234375" lon="2.12205355055630207061767578125">
        <ele>174.1999969482421875</ele>
        <time>2022-01-07T08:14:33.000Z</time>
      </trkpt>
      <trkpt lat="41.54123506508767604827880859375" lon="2.12202840484678745269775390625">
        <ele>174.1999969482421875</ele>
        <time>2022-01-07T08:14:34.000Z</time>
      </trkpt>
      <trkpt lat="41.5412011183798313140869140625" lon="2.12200912646949291229248046875">
        <ele>174.1999969482421875</ele>
        <time>2022-01-07T08:14:35.000Z</time>
      </trkpt>
      <trkpt lat="41.5411655791103839874267578125" lon="2.121988423168659210205078125">
        <ele>173.8000030517578125</ele>
        <time>2022-01-07T08:14:36.000Z</time>
      </trkpt>
      <trkpt lat="41.54113582335412502288818359375" lon="2.121970653533935546875">
        <ele>173.600006103515625</ele>
        <time>2022-01-07T08:14:37.000Z</time>
      </trkpt>
      <trkpt lat="41.5410894714295864105224609375" lon="2.1219451725482940673828125">
        <ele>173.600006103515625</ele>
        <time>2022-01-07T08:14:38.000Z</time>
      </trkpt>
      <trkpt lat="41.5410499088466167449951171875" lon="2.12192279286682605743408203125">
        <ele>173.600006103515625</ele>
        <time>2022-01-07T08:14:39.000Z</time>
      </trkpt>
      <trkpt lat="41.5410133637487888336181640625" lon="2.12189798243343830108642578125">
        <ele>173.399993896484375</ele>
        <time>2022-01-07T08:14:40.000Z</time>
      </trkpt>
      <trkpt lat="41.540978662669658660888671875" lon="2.1218625269830226898193359375">
        <ele>173.1999969482421875</ele>
        <time>2022-01-07T08:14:41.000Z</time>
      </trkpt>
      <trkpt lat="41.54095158912241458892822265625" lon="2.121816091239452362060546875">
        <ele>173.1999969482421875</ele>
        <time>2022-01-07T08:14:42.000Z</time>
      </trkpt>
      <trkpt lat="41.54093298129737377166748046875" lon="2.1217676438391208648681640625">
        <ele>173</ele>
        <time>2022-01-07T08:14:43.000Z</time>
      </trkpt>
      <trkpt lat="41.54091789387166500091552734375" lon="2.12171659804880619049072265625">
        <ele>172.8000030517578125</ele>
        <time>2022-01-07T08:14:44.000Z</time>
      </trkpt>
      <trkpt lat="41.54090448282659053802490234375" lon="2.121658511459827423095703125">
        <ele>172.600006103515625</ele>
        <time>2022-01-07T08:14:45.000Z</time>
      </trkpt>
      <trkpt lat="41.54089006595313549041748046875" lon="2.12160176597535610198974609375">
        <ele>172.399993896484375</ele>
        <time>2022-01-07T08:14:46.000Z</time>
      </trkpt>
      <trkpt lat="41.54088101349771022796630859375" lon="2.12155700661242008209228515625">
        <ele>172.1999969482421875</ele>
        <time>2022-01-07T08:14:47.000Z</time>
      </trkpt>
      <trkpt lat="41.5408718772232532501220703125" lon="2.12150218896567821502685546875">
        <ele>172</ele>
        <time>2022-01-07T08:14:48.000Z</time>
      </trkpt>
      <trkpt lat="41.5408581309020519256591796875" lon="2.121442593634128570556640625">
        <ele>171.600006103515625</ele>
        <time>2022-01-07T08:14:49.000Z</time>
      </trkpt>
      <trkpt lat="41.54084497131407260894775390625" lon="2.12139221839606761932373046875">
        <ele>171.399993896484375</ele>
        <time>2022-01-07T08:14:50.000Z</time>
      </trkpt>
      <trkpt lat="41.5408339910209178924560546875" lon="2.12134561501443386077880859375">
        <ele>171.1999969482421875</ele>
        <time>2022-01-07T08:14:51.000Z</time>
      </trkpt>
      <trkpt lat="41.5408153831958770751953125" lon="2.12130035273730754852294921875">
        <ele>171</ele>
        <time>2022-01-07T08:14:52.000Z</time>
      </trkpt>
      <trkpt lat="41.54080691747367382049560546875" lon="2.1212633885443210601806640625">
        <ele>171</ele>
        <time>2022-01-07T08:14:53.000Z</time>
      </trkpt>
      <trkpt lat="41.5407940931618213653564453125" lon="2.12120798416435718536376953125">
        <ele>171</ele>
        <time>2022-01-07T08:14:54.000Z</time>
      </trkpt>
      <trkpt lat="41.5407786704599857330322265625" lon="2.12116288952529430389404296875">
        <ele>171</ele>
        <time>2022-01-07T08:14:55.000Z</time>
      </trkpt>
      <trkpt lat="41.540765427052974700927734375" lon="2.12111611850559711456298828125">
        <ele>171</ele>
        <time>2022-01-07T08:14:56.000Z</time>
      </trkpt>
      <trkpt lat="41.5407558716833591461181640625" lon="2.12107454426586627960205078125">
        <ele>171</ele>
        <time>2022-01-07T08:14:57.000Z</time>
      </trkpt>
      <trkpt lat="41.5407429635524749755859375" lon="2.1210223250091075897216796875">
        <ele>171</ele>
        <time>2022-01-07T08:14:58.000Z</time>
      </trkpt>
      <trkpt lat="41.5407277084887027740478515625" lon="2.12096088565886020660400390625">
        <ele>171</ele>
        <time>2022-01-07T08:14:59.000Z</time>
      </trkpt>
      <trkpt lat="41.54071287252008914947509765625" lon="2.1209116838872432708740234375">
        <ele>171</ele>
        <time>2022-01-07T08:15:00.000Z</time>
      </trkpt>
      <trkpt lat="41.54069292359054088592529296875" lon="2.12086348794400691986083984375">
        <ele>171</ele>
        <time>2022-01-07T08:15:01.000Z</time>
      </trkpt>
      <trkpt lat="41.54068135656416416168212890625" lon="2.12081068195402622222900390625">
        <ele>171</ele>
        <time>2022-01-07T08:15:02.000Z</time>
      </trkpt>
      <trkpt lat="41.5406700409948825836181640625" lon="2.12076307274401187896728515625">
        <ele>171</ele>
        <time>2022-01-07T08:15:03.000Z</time>
      </trkpt>
      <trkpt lat="41.5406569652259349822998046875" lon="2.12071462534368038177490234375">
        <ele>171</ele>
        <time>2022-01-07T08:15:04.000Z</time>
      </trkpt>
      <trkpt lat="41.5406472422182559967041015625" lon="2.120665423572063446044921875">
        <ele>171</ele>
        <time>2022-01-07T08:15:05.000Z</time>
      </trkpt>
      <trkpt lat="41.5406381897628307342529296875" lon="2.1206203289330005645751953125">
        <ele>171</ele>
        <time>2022-01-07T08:15:06.000Z</time>
      </trkpt>
      <trkpt lat="41.54062754474580287933349609375" lon="2.12057129479944705963134765625">
        <ele>171</ele>
        <time>2022-01-07T08:15:07.000Z</time>
      </trkpt>
      <trkpt lat="41.540615893900394439697265625" lon="2.12052469141781330108642578125">
        <ele>171</ele>
        <time>2022-01-07T08:15:08.000Z</time>
      </trkpt>
      <trkpt lat="41.54060524888336658477783203125" lon="2.1204808540642261505126953125">
        <ele>171.1999969482421875</ele>
        <time>2022-01-07T08:15:09.000Z</time>
      </trkpt>
      <trkpt lat="41.54059317894279956817626953125" lon="2.120439447462558746337890625">
        <ele>171.1999969482421875</ele>
        <time>2022-01-07T08:15:10.000Z</time>
      </trkpt>
      <trkpt lat="41.54057574458420276641845703125" lon="2.12040097452700138092041015625">
        <ele>171.1999969482421875</ele>
        <time>2022-01-07T08:15:11.000Z</time>
      </trkpt>
      <trkpt lat="41.54055495746433734893798828125" lon="2.1203641779720783233642578125">
        <ele>171.1999969482421875</ele>
        <time>2022-01-07T08:15:12.000Z</time>
      </trkpt>
      <trkpt lat="41.54053836129605770111083984375" lon="2.12032847106456756591796875">
        <ele>171.1999969482421875</ele>
        <time>2022-01-07T08:15:13.000Z</time>
      </trkpt>
      <trkpt lat="41.5405268780887126922607421875" lon="2.12029226124286651611328125">
        <ele>171.1999969482421875</ele>
        <time>2022-01-07T08:15:14.000Z</time>
      </trkpt>
      <trkpt lat="41.5405215136706829071044921875" lon="2.12025362066924571990966796875">
        <ele>171.1999969482421875</ele>
        <time>2022-01-07T08:15:15.000Z</time>
      </trkpt>
      <trkpt lat="41.54051539488136768341064453125" lon="2.12022118270397186279296875">
        <ele>171.1999969482421875</ele>
        <time>2022-01-07T08:15:16.000Z</time>
      </trkpt>
      <trkpt lat="41.540501229465007781982421875" lon="2.12019628845155239105224609375">
        <ele>171.1999969482421875</ele>
        <time>2022-01-07T08:15:17.000Z</time>
      </trkpt>
      <trkpt lat="41.54047750867903232574462890625" lon="2.12018891237676143646240234375">
        <ele>171.399993896484375</ele>
        <time>2022-01-07T08:15:18.000Z</time>
      </trkpt>
      <trkpt lat="41.540448926389217376708984375" lon="2.12019436061382293701171875">
        <ele>171.399993896484375</ele>
        <time>2022-01-07T08:15:19.000Z</time>
      </trkpt>
      <trkpt lat="41.54042537324130535125732421875" lon="2.1202062629163265228271484375">
        <ele>171.399993896484375</ele>
        <time>2022-01-07T08:15:20.000Z</time>
      </trkpt>
      <trkpt lat="41.54039335437119007110595703125" lon="2.1202267147600650787353515625">
        <ele>171.399993896484375</ele>
        <time>2022-01-07T08:15:21.000Z</time>
      </trkpt>
      <trkpt lat="41.54036301188170909881591796875" lon="2.12024993263185024261474609375">
        <ele>171.399993896484375</ele>
        <time>2022-01-07T08:15:22.000Z</time>
      </trkpt>
      <trkpt lat="41.54032965190708637237548828125" lon="2.12027038447558879852294921875">
        <ele>171.399993896484375</ele>
        <time>2022-01-07T08:15:23.000Z</time>
      </trkpt>
      <trkpt lat="41.54029394499957561492919921875" lon="2.120287902653217315673828125">
        <ele>171.399993896484375</ele>
        <time>2022-01-07T08:15:24.000Z</time>
      </trkpt>
      <trkpt lat="41.54025974683463573455810546875" lon="2.120304666459560394287109375">
        <ele>171.399993896484375</ele>
        <time>2022-01-07T08:15:25.000Z</time>
      </trkpt>
      <trkpt lat="41.54022454284131526947021484375" lon="2.12032101117074489593505859375">
        <ele>171.399993896484375</ele>
        <time>2022-01-07T08:15:26.000Z</time>
      </trkpt>
      <trkpt lat="41.5401885844767093658447265625" lon="2.1203403733670711517333984375">
        <ele>171.399993896484375</ele>
        <time>2022-01-07T08:15:27.000Z</time>
      </trkpt>
      <trkpt lat="41.5401537157595157623291015625" lon="2.12036107666790485382080078125">
        <ele>171.399993896484375</ele>
        <time>2022-01-07T08:15:28.000Z</time>
      </trkpt>
      <trkpt lat="41.54011641629040241241455078125" lon="2.12038102559745311737060546875">
        <ele>171.399993896484375</ele>
        <time>2022-01-07T08:15:29.000Z</time>
      </trkpt>
      <trkpt lat="41.54007844626903533935546875" lon="2.12040181271731853485107421875">
        <ele>171.399993896484375</ele>
        <time>2022-01-07T08:15:30.000Z</time>
      </trkpt>
      <trkpt lat="41.5400393866002559661865234375" lon="2.120418660342693328857421875">
        <ele>171.399993896484375</ele>
        <time>2022-01-07T08:15:31.000Z</time>
      </trkpt>
      <trkpt lat="41.53999890200793743133544921875" lon="2.12043617852032184600830078125">
        <ele>171.399993896484375</ele>
        <time>2022-01-07T08:15:32.000Z</time>
      </trkpt>
      <trkpt lat="41.539956741034984588623046875" lon="2.12045160122215747833251953125">
        <ele>171.399993896484375</ele>
        <time>2022-01-07T08:15:33.000Z</time>
      </trkpt>
      <trkpt lat="41.5399149991571903228759765625" lon="2.12046400643885135650634765625">
        <ele>171.1999969482421875</ele>
        <time>2022-01-07T08:15:34.000Z</time>
      </trkpt>
      <trkpt lat="41.539874263107776641845703125" lon="2.1204788424074649810791015625">
        <ele>171.1999969482421875</ele>
        <time>2022-01-07T08:15:35.000Z</time>
      </trkpt>
      <trkpt lat="41.53983495198190212249755859375" lon="2.1204939298331737518310546875">
        <ele>171.1999969482421875</ele>
        <time>2022-01-07T08:15:36.000Z</time>
      </trkpt>
      <trkpt lat="41.5397953055799007415771484375" lon="2.12051345966756343841552734375">
        <ele>170.8000030517578125</ele>
        <time>2022-01-07T08:15:37.000Z</time>
      </trkpt>
      <trkpt lat="41.53975381515920162200927734375" lon="2.1205318160355091094970703125">
        <ele>171</ele>
        <time>2022-01-07T08:15:38.000Z</time>
      </trkpt>
      <trkpt lat="41.5397098101675510406494140625" lon="2.12054531089961528778076171875">
        <ele>170.600006103515625</ele>
        <time>2022-01-07T08:15:39.000Z</time>
      </trkpt>
      <trkpt lat="41.5396658889949321746826171875" lon="2.12055377662181854248046875">
        <ele>170.8000030517578125</ele>
        <time>2022-01-07T08:15:40.000Z</time>
      </trkpt>
      <trkpt lat="41.53962221927940845489501953125" lon="2.12055788375437259674072265625">
        <ele>170.399993896484375</ele>
        <time>2022-01-07T08:15:41.000Z</time>
      </trkpt>
      <trkpt lat="41.53957997448742389678955078125" lon="2.120557129383087158203125">
        <ele>170.1999969482421875</ele>
        <time>2022-01-07T08:15:42.000Z</time>
      </trkpt>
      <trkpt lat="41.5395378135144710540771484375" lon="2.12055645883083343505859375">
        <ele>170.1999969482421875</ele>
        <time>2022-01-07T08:15:43.000Z</time>
      </trkpt>
      <trkpt lat="41.53949439525604248046875" lon="2.12055671028792858123779296875">
        <ele>170</ele>
        <time>2022-01-07T08:15:44.000Z</time>
      </trkpt>
      <trkpt lat="41.53945147991180419921875" lon="2.1205552853643894195556640625">
        <ele>170</ele>
        <time>2022-01-07T08:15:45.000Z</time>
      </trkpt>
      <trkpt lat="41.53940915130078792572021484375" lon="2.1205556206405162811279296875">
        <ele>170</ele>
        <time>2022-01-07T08:15:46.000Z</time>
      </trkpt>
      <trkpt lat="41.53936992399394512176513671875" lon="2.12054950185120105743408203125">
        <ele>169.8000030517578125</ele>
        <time>2022-01-07T08:15:47.000Z</time>
      </trkpt>
      <trkpt lat="41.53933321125805377960205078125" lon="2.12053843773901462554931640625">
        <ele>169.8000030517578125</ele>
        <time>2022-01-07T08:15:48.000Z</time>
      </trkpt>
      <trkpt lat="41.53929616324603557586669921875" lon="2.120528630912303924560546875">
        <ele>169.8000030517578125</ele>
        <time>2022-01-07T08:15:49.000Z</time>
      </trkpt>
      <trkpt lat="41.53925794176757335662841796875" lon="2.12051882408559322357177734375">
        <ele>169.600006103515625</ele>
        <time>2022-01-07T08:15:50.000Z</time>
      </trkpt>
      <trkpt lat="41.539219804108142852783203125" lon="2.12050591595470905303955078125">
        <ele>169.600006103515625</ele>
        <time>2022-01-07T08:15:51.000Z</time>
      </trkpt>
      <trkpt lat="41.53917982243001461029052734375" lon="2.1204932592809200286865234375">
        <ele>169.600006103515625</ele>
        <time>2022-01-07T08:15:52.000Z</time>
      </trkpt>
      <trkpt lat="41.53914042748510837554931640625" lon="2.12047758512198925018310546875">
        <ele>169.399993896484375</ele>
        <time>2022-01-07T08:15:53.000Z</time>
      </trkpt>
      <trkpt lat="41.5390982665121555328369140625" lon="2.12046031840145587921142578125">
        <ele>169.399993896484375</ele>
        <time>2022-01-07T08:15:54.000Z</time>
      </trkpt>
      <trkpt lat="41.539057195186614990234375" lon="2.12044690735638141632080078125">
        <ele>169.399993896484375</ele>
        <time>2022-01-07T08:15:55.000Z</time>
      </trkpt>
      <trkpt lat="41.53901419602334499359130859375" lon="2.12043383158743381500244140625">
        <ele>169.399993896484375</ele>
        <time>2022-01-07T08:15:56.000Z</time>
      </trkpt>
      <trkpt lat="41.5389711968600749969482421875" lon="2.12041840888559818267822265625">
        <ele>169.399993896484375</ele>
        <time>2022-01-07T08:15:57.000Z</time>
      </trkpt>
      <trkpt lat="41.53893222101032733917236328125" lon="2.1204020641744136810302734375">
        <ele>169.1999969482421875</ele>
        <time>2022-01-07T08:15:58.000Z</time>
      </trkpt>
      <trkpt lat="41.5388940833508968353271484375" lon="2.120386473834514617919921875">
        <ele>169.1999969482421875</ele>
        <time>2022-01-07T08:15:59.000Z</time>
      </trkpt>
      <trkpt lat="41.53885577805340290069580078125" lon="2.12037046439945697784423828125">
        <ele>169.1999969482421875</ele>
        <time>2022-01-07T08:16:00.000Z</time>
      </trkpt>
      <trkpt lat="41.53881789185106754302978515625" lon="2.12035470642149448394775390625">
        <ele>169.1999969482421875</ele>
        <time>2022-01-07T08:16:01.000Z</time>
      </trkpt>
      <trkpt lat="41.53878235258162021636962890625" lon="2.1203400380909442901611328125">
        <ele>169.1999969482421875</ele>
        <time>2022-01-07T08:16:02.000Z</time>
      </trkpt>
      <trkpt lat="41.53874513693153858184814453125" lon="2.12032553739845752716064453125">
        <ele>169.1999969482421875</ele>
        <time>2022-01-07T08:16:03.000Z</time>
      </trkpt>
      <trkpt lat="41.53870758600533008575439453125" lon="2.12031229399144649505615234375">
        <ele>169.1999969482421875</ele>
        <time>2022-01-07T08:16:04.000Z</time>
      </trkpt>
      <trkpt lat="41.53867162764072418212890625" lon="2.1202981285750865936279296875">
        <ele>169.1999969482421875</ele>
        <time>2022-01-07T08:16:05.000Z</time>
      </trkpt>
      <trkpt lat="41.53863600455224514007568359375" lon="2.1202820353209972381591796875">
        <ele>169.1999969482421875</ele>
        <time>2022-01-07T08:16:06.000Z</time>
      </trkpt>
      <trkpt lat="41.53859895654022693634033203125" lon="2.12026636116206645965576171875">
        <ele>169.1999969482421875</ele>
        <time>2022-01-07T08:16:07.000Z</time>
      </trkpt>
      <trkpt lat="41.53855889104306697845458984375" lon="2.120251692831516265869140625">
        <ele>169</ele>
        <time>2022-01-07T08:16:08.000Z</time>
      </trkpt>
      <trkpt lat="41.53851966373622417449951171875" lon="2.12023735977709293365478515625">
        <ele>169</ele>
        <time>2022-01-07T08:16:09.000Z</time>
      </trkpt>
      <trkpt lat="41.53848060406744480133056640625" lon="2.12022076360881328582763671875">
        <ele>169</ele>
        <time>2022-01-07T08:16:10.000Z</time>
      </trkpt>
      <trkpt lat="41.53844053857028484344482421875" lon="2.1202052570879459381103515625">
        <ele>169</ele>
        <time>2022-01-07T08:16:11.000Z</time>
      </trkpt>
      <trkpt lat="41.538400389254093170166015625" lon="2.12018941529095172882080078125">
        <ele>169</ele>
        <time>2022-01-07T08:16:12.000Z</time>
      </trkpt>
      <trkpt lat="41.5383593179285526275634765625" lon="2.12017298676073551177978515625">
        <ele>169</ele>
        <time>2022-01-07T08:16:13.000Z</time>
      </trkpt>
      <trkpt lat="41.538319252431392669677734375" lon="2.1201559714972972869873046875">
        <ele>169</ele>
        <time>2022-01-07T08:16:14.000Z</time>
      </trkpt>
      <trkpt lat="41.5382801927626132965087890625" lon="2.12014163844287395477294921875">
        <ele>169</ele>
        <time>2022-01-07T08:16:15.000Z</time>
      </trkpt>
      <trkpt lat="41.53824239037930965423583984375" lon="2.12012453936040401458740234375">
        <ele>169</ele>
        <time>2022-01-07T08:16:16.000Z</time>
      </trkpt>
      <trkpt lat="41.538204252719879150390625" lon="2.1201073564589023590087890625">
        <ele>169</ele>
        <time>2022-01-07T08:16:17.000Z</time>
      </trkpt>
      <trkpt lat="41.538165025413036346435546875" lon="2.1200986392796039581298828125">
        <ele>168.8000030517578125</ele>
        <time>2022-01-07T08:16:18.000Z</time>
      </trkpt>
      <trkpt lat="41.5381259657442569732666015625" lon="2.120096124708652496337890625">
        <ele>168.8000030517578125</ele>
        <time>2022-01-07T08:16:19.000Z</time>
      </trkpt>
      <trkpt lat="41.53808648698031902313232421875" lon="2.1200966276228427886962890625">
        <ele>168.600006103515625</ele>
        <time>2022-01-07T08:16:20.000Z</time>
      </trkpt>
      <trkpt lat="41.5380461700260639190673828125" lon="2.12010207585990428924560546875">
        <ele>168.399993896484375</ele>
        <time>2022-01-07T08:16:21.000Z</time>
      </trkpt>
      <trkpt lat="41.538006775081157684326171875" lon="2.12010894902050495147705078125">
        <ele>168.399993896484375</ele>
        <time>2022-01-07T08:16:22.000Z</time>
      </trkpt>
      <trkpt lat="41.53796754777431488037109375" lon="2.12011992931365966796875">
        <ele>168.399993896484375</ele>
        <time>2022-01-07T08:16:23.000Z</time>
      </trkpt>
      <trkpt lat="41.53792907483875751495361328125" lon="2.1201348491013050079345703125">
        <ele>168.399993896484375</ele>
        <time>2022-01-07T08:16:24.000Z</time>
      </trkpt>
      <trkpt lat="41.537890098989009857177734375" lon="2.12014784105122089385986328125">
        <ele>168.1999969482421875</ele>
        <time>2022-01-07T08:16:25.000Z</time>
      </trkpt>
      <trkpt lat="41.53785355389118194580078125" lon="2.12015639059245586395263671875">
        <ele>168.1999969482421875</ele>
        <time>2022-01-07T08:16:26.000Z</time>
      </trkpt>
      <trkpt lat="41.53781977482140064239501953125" lon="2.1201656945049762725830078125">
        <ele>168.1999969482421875</ele>
        <time>2022-01-07T08:16:27.000Z</time>
      </trkpt>
      <trkpt lat="41.53779529966413974761962890625" lon="2.1201727353036403656005859375">
        <ele>168</ele>
        <time>2022-01-07T08:16:28.000Z</time>
      </trkpt>
      <trkpt lat="41.53777920641005039215087890625" lon="2.12017801590263843536376953125">
        <ele>168</ele>
        <time>2022-01-07T08:16:29.000Z</time>
      </trkpt>
      <trkpt lat="41.537767387926578521728515625" lon="2.120183967053890228271484375">
        <ele>168</ele>
        <time>2022-01-07T08:16:30.000Z</time>
      </trkpt>
      <trkpt lat="41.5377561561763286590576171875" lon="2.1201911754906177520751953125">
        <ele>168</ele>
        <time>2022-01-07T08:16:31.000Z</time>
      </trkpt>
      <trkpt lat="41.5377460978925228118896484375" lon="2.12020550854504108428955078125">
        <ele>168</ele>
        <time>2022-01-07T08:16:32.000Z</time>
      </trkpt>
      <trkpt lat="41.53773947618901729583740234375" lon="2.12023283354938030242919921875">
        <ele>168</ele>
        <time>2022-01-07T08:16:33.000Z</time>
      </trkpt>
      <trkpt lat="41.53773344121873378753662109375" lon="2.120267450809478759765625">
        <ele>168</ele>
        <time>2022-01-07T08:16:34.000Z</time>
      </trkpt>
      <trkpt lat="41.53772472403943538665771484375" lon="2.12030441500246524810791015625">
        <ele>168</ele>
        <time>2022-01-07T08:16:35.000Z</time>
      </trkpt>
      <trkpt lat="41.53771550394594669342041015625" lon="2.1203373558819293975830078125">
        <ele>168</ele>
        <time>2022-01-07T08:16:36.000Z</time>
      </trkpt>
      <trkpt lat="41.5377075411379337310791015625" lon="2.1203665249049663543701171875">
        <ele>168</ele>
        <time>2022-01-07T08:16:37.000Z</time>
      </trkpt>
      <trkpt lat="41.53770376928150653839111328125" lon="2.12039611302316188812255859375">
        <ele>167.8000030517578125</ele>
        <time>2022-01-07T08:16:38.000Z</time>
      </trkpt>
      <trkpt lat="41.53770091943442821502685546875" lon="2.1204298920929431915283203125">
        <ele>167.8000030517578125</ele>
        <time>2022-01-07T08:16:39.000Z</time>
      </trkpt>
      <trkpt lat="41.537697315216064453125" lon="2.12046702392399311065673828125">
        <ele>167.8000030517578125</ele>
        <time>2022-01-07T08:16:40.000Z</time>
      </trkpt>
      <trkpt lat="41.537690944969654083251953125" lon="2.1205016411840915679931640625">
        <ele>167.8000030517578125</ele>
        <time>2022-01-07T08:16:41.000Z</time>
      </trkpt>
      <trkpt lat="41.53768013231456279754638671875" lon="2.12052720598876476287841796875">
        <ele>167.8000030517578125</ele>
        <time>2022-01-07T08:16:42.000Z</time>
      </trkpt>
      <trkpt lat="41.53766655363142490386962890625" lon="2.12055419571697711944580078125">
        <ele>167.8000030517578125</ele>
        <time>2022-01-07T08:16:43.000Z</time>
      </trkpt>
      <trkpt lat="41.53764903545379638671875" lon="2.1205857954919338226318359375">
        <ele>167.8000030517578125</ele>
        <time>2022-01-07T08:16:44.000Z</time>
      </trkpt>
      <trkpt lat="41.53762212954461574554443359375" lon="2.120610773563385009765625">
        <ele>167.8000030517578125</ele>
        <time>2022-01-07T08:16:45.000Z</time>
      </trkpt>
      <trkpt lat="41.53759715147316455841064453125" lon="2.1206283755600452423095703125">
        <ele>167.8000030517578125</ele>
        <time>2022-01-07T08:16:46.000Z</time>
      </trkpt>
      <trkpt lat="41.53757703490555286407470703125" lon="2.120645977556705474853515625">
        <ele>167.8000030517578125</ele>
        <time>2022-01-07T08:16:47.000Z</time>
      </trkpt>
      <trkpt lat="41.53756228275597095489501953125" lon="2.12067355401813983917236328125">
        <ele>167.600006103515625</ele>
        <time>2022-01-07T08:16:48.000Z</time>
      </trkpt>
      <trkpt lat="41.5375591814517974853515625" lon="2.12070641107857227325439453125">
        <ele>167.1999969482421875</ele>
        <time>2022-01-07T08:16:49.000Z</time>
      </trkpt>
      <trkpt lat="41.5375616960227489471435546875" lon="2.12074077688157558441162109375">
        <ele>166.8000030517578125</ele>
        <time>2022-01-07T08:16:50.000Z</time>
      </trkpt>
      <trkpt lat="41.5375643782317638397216796875" lon="2.1207762323319911956787109375">
        <ele>166</ele>
        <time>2022-01-07T08:16:51.000Z</time>
      </trkpt>
      <trkpt lat="41.53756731189787387847900390625" lon="2.1208151243627071380615234375">
        <ele>165</ele>
        <time>2022-01-07T08:16:52.000Z</time>
      </trkpt>
      <trkpt lat="41.53756923973560333251953125" lon="2.12085326202213764190673828125">
        <ele>164</ele>
        <time>2022-01-07T08:16:53.000Z</time>
      </trkpt>
      <trkpt lat="41.53757334686815738677978515625" lon="2.12089383043348789215087890625">
        <ele>163.399993896484375</ele>
        <time>2022-01-07T08:16:54.000Z</time>
      </trkpt>
      <trkpt lat="41.53757904656231403350830078125" lon="2.12093238718807697296142578125">
        <ele>163</ele>
        <time>2022-01-07T08:16:55.000Z</time>
      </trkpt>
      <trkpt lat="41.53758860193192958831787109375" lon="2.12096683681011199951171875">
        <ele>162.8000030517578125</ele>
        <time>2022-01-07T08:16:56.000Z</time>
      </trkpt>
      <trkpt lat="41.5376047790050506591796875" lon="2.12100028060376644134521484375">
        <ele>162.600006103515625</ele>
        <time>2022-01-07T08:16:57.000Z</time>
      </trkpt>
      <trkpt lat="41.53761844150722026824951171875" lon="2.12103129364550113677978515625">
        <ele>162.600006103515625</ele>
        <time>2022-01-07T08:16:58.000Z</time>
      </trkpt>
      <trkpt lat="41.53762984089553356170654296875" lon="2.1210662461817264556884765625">
        <ele>162.399993896484375</ele>
        <time>2022-01-07T08:16:59.000Z</time>
      </trkpt>
      <trkpt lat="41.53763755224645137786865234375" lon="2.12110203690826892852783203125">
        <ele>162.1999969482421875</ele>
        <time>2022-01-07T08:17:00.000Z</time>
      </trkpt>
      <trkpt lat="41.53764459304511547088623046875" lon="2.1211393363773822784423828125">
        <ele>162</ele>
        <time>2022-01-07T08:17:01.000Z</time>
      </trkpt>
      <trkpt lat="41.53765163384377956390380859375" lon="2.12117713876068592071533203125">
        <ele>161.8000030517578125</ele>
        <time>2022-01-07T08:17:02.000Z</time>
      </trkpt>
      <trkpt lat="41.537657417356967926025390625" lon="2.121214605867862701416015625">
        <ele>161.8000030517578125</ele>
        <time>2022-01-07T08:17:03.000Z</time>
      </trkpt>
      <trkpt lat="41.53766445815563201904296875" lon="2.12124519981443881988525390625">
        <ele>161.600006103515625</ele>
        <time>2022-01-07T08:17:04.000Z</time>
      </trkpt>
      <trkpt lat="41.53767242096364498138427734375" lon="2.1212694235146045684814453125">
        <ele>161.600006103515625</ele>
        <time>2022-01-07T08:17:05.000Z</time>
      </trkpt>
      <trkpt lat="41.5376790426671504974365234375" lon="2.1212888695299625396728515625">
        <ele>161.399993896484375</ele>
        <time>2022-01-07T08:17:06.000Z</time>
      </trkpt>
      <trkpt lat="41.5376854129135608673095703125" lon="2.1213029511272907257080078125">
        <ele>161.1999969482421875</ele>
        <time>2022-01-07T08:17:07.000Z</time>
      </trkpt>
      <trkpt lat="41.5376911126077175140380859375" lon="2.12131686508655548095703125">
        <ele>161.1999969482421875</ele>
        <time>2022-01-07T08:17:08.000Z</time>
      </trkpt>
      <trkpt lat="41.53769555501639842987060546875" lon="2.1213321201503276824951171875">
        <ele>161</ele>
        <time>2022-01-07T08:17:09.000Z</time>
      </trkpt>
      <trkpt lat="41.53769974596798419952392578125" lon="2.121348045766353607177734375">
        <ele>160.8000030517578125</ele>
        <time>2022-01-07T08:17:10.000Z</time>
      </trkpt>
      <trkpt lat="41.5377048589289188385009765625" lon="2.12136539630591869354248046875">
        <ele>160.600006103515625</ele>
        <time>2022-01-07T08:17:11.000Z</time>
      </trkpt>
      <trkpt lat="41.53771231882274150848388671875" lon="2.12138366885483264923095703125">
        <ele>160.399993896484375</ele>
        <time>2022-01-07T08:17:12.000Z</time>
      </trkpt>
      <trkpt lat="41.53771349228918552398681640625" lon="2.1214072220027446746826171875">
        <ele>160.1999969482421875</ele>
        <time>2022-01-07T08:17:13.000Z</time>
      </trkpt>
      <trkpt lat="41.53771600686013698577880859375" lon="2.1214343793690204620361328125">
        <ele>160</ele>
        <time>2022-01-07T08:17:14.000Z</time>
      </trkpt>
      <trkpt lat="41.537719108164310455322265625" lon="2.12146732024848461151123046875">
        <ele>160</ele>
        <time>2022-01-07T08:17:15.000Z</time>
      </trkpt>
      <trkpt lat="41.5377186052501201629638671875" lon="2.121493555605411529541015625">
        <ele>159.8000030517578125</ele>
        <time>2022-01-07T08:17:16.000Z</time>
      </trkpt>
      <trkpt lat="41.53771818615496158599853515625" lon="2.1215052902698516845703125">
        <ele>159.8000030517578125</ele>
        <time>2022-01-07T08:17:17.000Z</time>
      </trkpt>
      <trkpt lat="41.53771818615496158599853515625" lon="2.1215052902698516845703125">
        <ele>159.600006103515625</ele>
        <time>2022-01-07T08:17:18.000Z</time>
      </trkpt>
      <trkpt lat="41.53771818615496158599853515625" lon="2.1215052902698516845703125">
        <ele>159.600006103515625</ele>
        <time>2022-01-07T08:17:19.000Z</time>
      </trkpt>
      <trkpt lat="41.53771818615496158599853515625" lon="2.1215052902698516845703125">
        <ele>159.600006103515625</ele>
        <time>2022-01-07T08:17:20.000Z</time>
      </trkpt>
      <trkpt lat="41.53774383477866649627685546875" lon="2.1214984171092510223388671875">
        <ele>158.8000030517578125</ele>
        <time>2022-01-07T08:17:35.000Z</time>
      </trkpt>
      <trkpt lat="41.53775992803275585174560546875" lon="2.12147218175232410430908203125">
        <ele>158.8000030517578125</ele>
        <time>2022-01-07T08:17:36.000Z</time>
      </trkpt>
      <trkpt lat="41.53776411898434162139892578125" lon="2.12143882177770137786865234375">
        <ele>158.8000030517578125</ele>
        <time>2022-01-07T08:17:37.000Z</time>
      </trkpt>
      <trkpt lat="41.53775976039469242095947265625" lon="2.12140194140374660491943359375">
        <ele>158.8000030517578125</ele>
        <time>2022-01-07T08:17:38.000Z</time>
      </trkpt>
      <trkpt lat="41.53774936683475971221923828125" lon="2.121369503438472747802734375">
        <ele>158.8000030517578125</ele>
        <time>2022-01-07T08:17:39.000Z</time>
      </trkpt>
      <trkpt lat="41.5377313457429409027099609375" lon="2.12136221118271350860595703125">
        <ele>158.8000030517578125</ele>
        <time>2022-01-07T08:17:40.000Z</time>
      </trkpt>
      <trkpt lat="41.5377182699739933013916015625" lon="2.12137763388454914093017578125">
        <ele>158.8000030517578125</ele>
        <time>2022-01-07T08:17:41.000Z</time>
      </trkpt>
      <trkpt lat="41.53772187419235706329345703125" lon="2.1214065514504909515380859375">
        <ele>158.8000030517578125</ele>
        <time>2022-01-07T08:17:42.000Z</time>
      </trkpt>
      <trkpt lat="41.53773042373359203338623046875" lon="2.1214313618838787078857421875">
        <ele>158.8000030517578125</ele>
        <time>2022-01-07T08:17:43.000Z</time>
      </trkpt>
      <trkpt lat="41.53773679398000240325927734375" lon="2.12144837714731693267822265625">
        <ele>158.8000030517578125</ele>
        <time>2022-01-07T08:17:44.000Z</time>
      </trkpt>
      <trkpt lat="41.537742912769317626953125" lon="2.12146480567753314971923828125">
        <ele>158.600006103515625</ele>
        <time>2022-01-07T08:17:45.000Z</time>
      </trkpt>
      <trkpt lat="41.53774559497833251953125" lon="2.12148584425449371337890625">
        <ele>158.600006103515625</ele>
        <time>2022-01-07T08:17:46.000Z</time>
      </trkpt>
      <trkpt lat="41.53774349950253963470458984375" lon="2.12150537408888339996337890625">
        <ele>158.399993896484375</ele>
        <time>2022-01-07T08:17:47.000Z</time>
      </trkpt>
      <trkpt lat="41.53774224221706390380859375" lon="2.12152565829455852508544921875">
        <ele>158.399993896484375</ele>
        <time>2022-01-07T08:17:48.000Z</time>
      </trkpt>
      <trkpt lat="41.537741236388683319091796875" lon="2.12155147455632686614990234375">
        <ele>158.399993896484375</ele>
        <time>2022-01-07T08:17:49.000Z</time>
      </trkpt>
      <trkpt lat="41.5377397276461124420166015625" lon="2.12157360278069972991943359375">
        <ele>158.399993896484375</ele>
        <time>2022-01-07T08:17:50.000Z</time>
      </trkpt>
      <trkpt lat="41.5377420745790004730224609375" lon="2.12158852256834506988525390625">
        <ele>158.399993896484375</ele>
        <time>2022-01-07T08:17:51.000Z</time>
      </trkpt>
      <trkpt lat="41.53774433769285678863525390625" lon="2.12159321643412113189697265625">
        <ele>158.399993896484375</ele>
        <time>2022-01-07T08:17:52.000Z</time>
      </trkpt>
      <trkpt lat="41.53774433769285678863525390625" lon="2.12159321643412113189697265625">
        <ele>158.1999969482421875</ele>
        <time>2022-01-07T08:17:53.000Z</time>
      </trkpt>
      <trkpt lat="41.53775489889085292816162109375" lon="2.121674604713916778564453125">
        <ele>158</ele>
        <time>2022-01-07T08:18:01.000Z</time>
      </trkpt>
      <trkpt lat="41.5377603471279144287109375" lon="2.12172045372426509857177734375">
        <ele>157.8000030517578125</ele>
        <time>2022-01-07T08:18:02.000Z</time>
      </trkpt>
      <trkpt lat="41.53776579536497592926025390625" lon="2.1217699907720088958740234375">
        <ele>157.8000030517578125</ele>
        <time>2022-01-07T08:18:03.000Z</time>
      </trkpt>
      <trkpt lat="41.5377672202885150909423828125" lon="2.1218226291239261627197265625">
        <ele>157.8000030517578125</ele>
        <time>2022-01-07T08:18:04.000Z</time>
      </trkpt>
      <trkpt lat="41.5377724170684814453125" lon="2.121875770390033721923828125">
        <ele>157.8000030517578125</ele>
        <time>2022-01-07T08:18:05.000Z</time>
      </trkpt>
      <trkpt lat="41.5377799607813358306884765625" lon="2.12193000130355358123779296875">
        <ele>157.8000030517578125</ele>
        <time>2022-01-07T08:18:06.000Z</time>
      </trkpt>
      <trkpt lat="41.53778339736163616180419921875" lon="2.12198431603610515594482421875">
        <ele>157.8000030517578125</ele>
        <time>2022-01-07T08:18:07.000Z</time>
      </trkpt>
      <trkpt lat="41.537785492837429046630859375" lon="2.12204064242541790008544921875">
        <ele>157.600006103515625</ele>
        <time>2022-01-07T08:18:08.000Z</time>
      </trkpt>
      <trkpt lat="41.53778926469385623931884765625" lon="2.12209780700504779815673828125">
        <ele>157.600006103515625</ele>
        <time>2022-01-07T08:18:09.000Z</time>
      </trkpt>
      <trkpt lat="41.53779278509318828582763671875" lon="2.12215773761272430419921875">
        <ele>157.1999969482421875</ele>
        <time>2022-01-07T08:18:10.000Z</time>
      </trkpt>
      <trkpt lat="41.53779479674994945526123046875" lon="2.12221540510654449462890625">
        <ele>156.8000030517578125</ele>
        <time>2022-01-07T08:18:11.000Z</time>
      </trkpt>
      <trkpt lat="41.53779747895896434783935546875" lon="2.12227500043809413909912109375">
        <ele>156.600006103515625</ele>
        <time>2022-01-07T08:18:12.000Z</time>
      </trkpt>
      <trkpt lat="41.537798233330249786376953125" lon="2.12233518250286579132080078125">
        <ele>156.1999969482421875</ele>
        <time>2022-01-07T08:18:13.000Z</time>
      </trkpt>
      <trkpt lat="41.537798233330249786376953125" lon="2.122396789491176605224609375">
        <ele>155.8000030517578125</ele>
        <time>2022-01-07T08:18:14.000Z</time>
      </trkpt>
      <trkpt lat="41.5378007479012012481689453125" lon="2.12245755828917026519775390625">
        <ele>155.399993896484375</ele>
        <time>2022-01-07T08:18:15.000Z</time>
      </trkpt>
      <trkpt lat="41.5378020890057086944580078125" lon="2.12251924909651279449462890625">
        <ele>155</ele>
        <time>2022-01-07T08:18:16.000Z</time>
      </trkpt>
      <trkpt lat="41.53780552558600902557373046875" lon="2.1225827001035213470458984375">
        <ele>154.399993896484375</ele>
        <time>2022-01-07T08:18:17.000Z</time>
      </trkpt>
      <trkpt lat="41.537809632718563079833984375" lon="2.122647576034069061279296875">
        <ele>154</ele>
        <time>2022-01-07T08:18:18.000Z</time>
      </trkpt>
      <trkpt lat="41.53780954889953136444091796875" lon="2.12271161377429962158203125">
        <ele>153.399993896484375</ele>
        <time>2022-01-07T08:18:19.000Z</time>
      </trkpt>
      <trkpt lat="41.53780787251889705657958984375" lon="2.12277741171419620513916015625">
        <ele>153</ele>
        <time>2022-01-07T08:18:20.000Z</time>
      </trkpt>
      <trkpt lat="41.537808962166309356689453125" lon="2.12284446693956851959228515625">
        <ele>152.399993896484375</ele>
        <time>2022-01-07T08:18:21.000Z</time>
      </trkpt>
      <trkpt lat="41.53780535794794559478759765625" lon="2.1229119412600994110107421875">
        <ele>151.600006103515625</ele>
        <time>2022-01-07T08:18:22.000Z</time>
      </trkpt>
      <trkpt lat="41.53780083172023296356201171875" lon="2.1229816786944866180419921875">
        <ele>151</ele>
        <time>2022-01-07T08:18:23.000Z</time>
      </trkpt>
      <trkpt lat="41.5378007479012012481689453125" lon="2.12305133230984210968017578125">
        <ele>150.399993896484375</ele>
        <time>2022-01-07T08:18:24.000Z</time>
      </trkpt>
      <trkpt lat="41.53780133463442325592041015625" lon="2.1231084130704402923583984375">
        <ele>149.8000030517578125</ele>
        <time>2022-01-07T08:18:25.000Z</time>
      </trkpt>
      <trkpt lat="41.537801921367645263671875" lon="2.123179994523525238037109375">
        <ele>149</ele>
        <time>2022-01-07T08:18:26.000Z</time>
      </trkpt>
      <trkpt lat="41.53780535794794559478759765625" lon="2.1232649870216846466064453125">
        <ele>148.399993896484375</ele>
        <time>2022-01-07T08:18:27.000Z</time>
      </trkpt>
      <trkpt lat="41.53780904598534107208251953125" lon="2.12333732284605503082275390625">
        <ele>147.600006103515625</ele>
        <time>2022-01-07T08:18:28.000Z</time>
      </trkpt>
      <trkpt lat="41.53781072236597537994384765625" lon="2.1234088204801082611083984375">
        <ele>147</ele>
        <time>2022-01-07T08:18:29.000Z</time>
      </trkpt>
      <trkpt lat="41.53781340457499027252197265625" lon="2.1234822459518909454345703125">
        <ele>146.399993896484375</ele>
        <time>2022-01-07T08:18:30.000Z</time>
      </trkpt>
      <trkpt lat="41.53781441040337085723876953125" lon="2.12354150600731372833251953125">
        <ele>145.8000030517578125</ele>
        <time>2022-01-07T08:18:31.000Z</time>
      </trkpt>
      <trkpt lat="41.53781843371689319610595703125" lon="2.12363018654286861419677734375">
        <ele>145</ele>
        <time>2022-01-07T08:18:32.000Z</time>
      </trkpt>
      <trkpt lat="41.5378265641629695892333984375" lon="2.1237092278897762298583984375">
        <ele>144.399993896484375</ele>
        <time>2022-01-07T08:18:33.000Z</time>
      </trkpt>
      <trkpt lat="41.537837125360965728759765625" lon="2.1237900294363498687744140625">
        <ele>143.8000030517578125</ele>
        <time>2022-01-07T08:18:34.000Z</time>
      </trkpt>
      <trkpt lat="41.53784944675862789154052734375" lon="2.12387443520128726959228515625">
        <ele>143.1999969482421875</ele>
        <time>2022-01-07T08:18:35.000Z</time>
      </trkpt>
      <trkpt lat="41.5378614328801631927490234375" lon="2.12396596558392047882080078125">
        <ele>142.8000030517578125</ele>
        <time>2022-01-07T08:18:36.000Z</time>
      </trkpt>
      <trkpt lat="41.5378748439252376556396484375" lon="2.1240602619946002960205078125">
        <ele>142</ele>
        <time>2022-01-07T08:18:37.000Z</time>
      </trkpt>
      <trkpt lat="41.53788976371288299560546875" lon="2.12414617650210857391357421875">
        <ele>141.399993896484375</ele>
        <time>2022-01-07T08:18:38.000Z</time>
      </trkpt>
      <trkpt lat="41.5379026718437671661376953125" lon="2.12422396056354045867919921875">
        <ele>141.399993896484375</ele>
        <time>2022-01-07T08:18:39.000Z</time>
      </trkpt>
      <trkpt lat="41.5379050187766551971435546875" lon="2.12428431026637554168701171875">
        <ele>140.8000030517578125</ele>
        <time>2022-01-07T08:18:40.000Z</time>
      </trkpt>
      <trkpt lat="41.53789722360670566558837890625" lon="2.12435941211879253387451171875">
        <ele>140.1999969482421875</ele>
        <time>2022-01-07T08:18:41.000Z</time>
      </trkpt>
      <trkpt lat="41.53787241317331790924072265625" lon="2.1244226954877376556396484375">
        <ele>139.399993896484375</ele>
        <time>2022-01-07T08:18:42.000Z</time>
      </trkpt>
      <trkpt lat="41.53783100657165050506591796875" lon="2.12447592057287693023681640625">
        <ele>138.600006103515625</ele>
        <time>2022-01-07T08:18:43.000Z</time>
      </trkpt>
      <trkpt lat="41.53776772320270538330078125" lon="2.124526463449001312255859375">
        <ele>137.8000030517578125</ele>
        <time>2022-01-07T08:18:44.000Z</time>
      </trkpt>
      <trkpt lat="41.53771986253559589385986328125" lon="2.124548256397247314453125">
        <ele>136.8000030517578125</ele>
        <time>2022-01-07T08:18:45.000Z</time>
      </trkpt>
      <trkpt lat="41.5376584231853485107421875" lon="2.12456845678389072418212890625">
        <ele>135.600006103515625</ele>
        <time>2022-01-07T08:18:46.000Z</time>
      </trkpt>
      <trkpt lat="41.53758273459970951080322265625" lon="2.12458387948572635650634765625">
        <ele>135.1999969482421875</ele>
        <time>2022-01-07T08:18:47.000Z</time>
      </trkpt>
      <trkpt lat="41.537520624697208404541015625" lon="2.124588154256343841552734375">
        <ele>134.8000030517578125</ele>
        <time>2022-01-07T08:18:48.000Z</time>
      </trkpt>
      <trkpt lat="41.5374584309756755828857421875" lon="2.12459142319858074188232421875">
        <ele>134.399993896484375</ele>
        <time>2022-01-07T08:18:49.000Z</time>
      </trkpt>
      <trkpt lat="41.53739682398736476898193359375" lon="2.12459854781627655029296875">
        <ele>133.8000030517578125</ele>
        <time>2022-01-07T08:18:50.000Z</time>
      </trkpt>
      <trkpt lat="41.5373363904654979705810546875" lon="2.12460793554782867431640625">
        <ele>133.399993896484375</ele>
        <time>2022-01-07T08:18:51.000Z</time>
      </trkpt>
      <trkpt lat="41.537277214229106903076171875" lon="2.1246221847832202911376953125">
        <ele>133.1999969482421875</ele>
        <time>2022-01-07T08:18:52.000Z</time>
      </trkpt>
      <trkpt lat="41.537217535078525543212890625" lon="2.12463601492345333099365234375">
        <ele>133</ele>
        <time>2022-01-07T08:18:53.000Z</time>
      </trkpt>
      <trkpt lat="41.53717084787786006927490234375" lon="2.1246463246643543243408203125">
        <ele>132.600006103515625</ele>
        <time>2022-01-07T08:18:54.000Z</time>
      </trkpt>
      <trkpt lat="41.53711250983178615570068359375" lon="2.12465948425233364105224609375">
        <ele>132.1999969482421875</ele>
        <time>2022-01-07T08:18:55.000Z</time>
      </trkpt>
      <trkpt lat="41.53704109601676464080810546875" lon="2.12467222474515438079833984375">
        <ele>132</ele>
        <time>2022-01-07T08:18:56.000Z</time>
      </trkpt>
      <trkpt lat="41.53698275797069072723388671875" lon="2.124681361019611358642578125">
        <ele>131.8000030517578125</ele>
        <time>2022-01-07T08:18:57.000Z</time>
      </trkpt>
      <trkpt lat="41.5369261801242828369140625" lon="2.1246949397027492523193359375">
        <ele>131.600006103515625</ele>
        <time>2022-01-07T08:18:58.000Z</time>
      </trkpt>
      <trkpt lat="41.53687999583780765533447265625" lon="2.1247043274343013763427734375">
        <ele>131.1999969482421875</ele>
        <time>2022-01-07T08:18:59.000Z</time>
      </trkpt>
      <trkpt lat="41.53682434000074863433837890625" lon="2.12471530772745609283447265625">
        <ele>131</ele>
        <time>2022-01-07T08:19:00.000Z</time>
      </trkpt>
      <trkpt lat="41.5367598831653594970703125" lon="2.124728299677371978759765625">
        <ele>130.8000030517578125</ele>
        <time>2022-01-07T08:19:01.000Z</time>
      </trkpt>
      <trkpt lat="41.53671571053564548492431640625" lon="2.1247371844947338104248046875">
        <ele>130.600006103515625</ele>
        <time>2022-01-07T08:19:02.000Z</time>
      </trkpt>
      <trkpt lat="41.5366628207266330718994140625" lon="2.1247485838830471038818359375">
        <ele>130.399993896484375</ele>
        <time>2022-01-07T08:19:03.000Z</time>
      </trkpt>
      <trkpt lat="41.53661177493631839752197265625" lon="2.12475989945232868194580078125">
        <ele>130.1999969482421875</ele>
        <time>2022-01-07T08:19:04.000Z</time>
      </trkpt>
      <trkpt lat="41.5365605615079402923583984375" lon="2.1247722208499908447265625">
        <ele>130.1999969482421875</ele>
        <time>2022-01-07T08:19:05.000Z</time>
      </trkpt>
      <trkpt lat="41.5365092642605304718017578125" lon="2.12478554807603359222412109375">
        <ele>130</ele>
        <time>2022-01-07T08:19:06.000Z</time>
      </trkpt>
      <trkpt lat="41.5364487469196319580078125" lon="2.124804742634296417236328125">
        <ele>129.8000030517578125</ele>
        <time>2022-01-07T08:19:07.000Z</time>
      </trkpt>
      <trkpt lat="41.5364083461463451385498046875" lon="2.124818824231624603271484375">
        <ele>129.8000030517578125</ele>
        <time>2022-01-07T08:19:08.000Z</time>
      </trkpt>
      <trkpt lat="41.536358557641506195068359375" lon="2.12483801878988742828369140625">
        <ele>129.600006103515625</ele>
        <time>2022-01-07T08:19:09.000Z</time>
      </trkpt>
      <trkpt lat="41.53630885295569896697998046875" lon="2.124855704605579376220703125">
        <ele>129.600006103515625</ele>
        <time>2022-01-07T08:19:10.000Z</time>
      </trkpt>
      <trkpt lat="41.53626032173633575439453125" lon="2.1248739771544933319091796875">
        <ele>129.600006103515625</ele>
        <time>2022-01-07T08:19:11.000Z</time>
      </trkpt>
      <trkpt lat="41.53621128760278224945068359375" lon="2.12489149533212184906005859375">
        <ele>129.399993896484375</ele>
        <time>2022-01-07T08:19:12.000Z</time>
      </trkpt>
      <trkpt lat="41.53616267256438732147216796875" lon="2.12491412647068500518798828125">
        <ele>129.1999969482421875</ele>
        <time>2022-01-07T08:19:13.000Z</time>
      </trkpt>
      <trkpt lat="41.5361190028488636016845703125" lon="2.12494413368403911590576171875">
        <ele>129.1999969482421875</ele>
        <time>2022-01-07T08:19:14.000Z</time>
      </trkpt>
      <trkpt lat="41.53608798980712890625" lon="2.12498201988637447357177734375">
        <ele>129</ele>
        <time>2022-01-07T08:19:15.000Z</time>
      </trkpt>
      <trkpt lat="41.53607348911464214324951171875" lon="2.12503046728670597076416015625">
        <ele>128.8000030517578125</ele>
        <time>2022-01-07T08:19:16.000Z</time>
      </trkpt>
      <trkpt lat="41.53607918880879878997802734375" lon="2.12509718723595142364501953125">
        <ele>128.600006103515625</ele>
        <time>2022-01-07T08:19:17.000Z</time>
      </trkpt>
      <trkpt lat="41.53608857654035091400146484375" lon="2.12514177896082401275634765625">
        <ele>128.600006103515625</ele>
        <time>2022-01-07T08:19:18.000Z</time>
      </trkpt>
      <trkpt lat="41.53610148467123508453369140625" lon="2.125197686254978179931640625">
        <ele>128.399993896484375</ele>
        <time>2022-01-07T08:19:19.000Z</time>
      </trkpt>
      <trkpt lat="41.5361159853637218475341796875" lon="2.12525024078786373138427734375">
        <ele>128.399993896484375</ele>
        <time>2022-01-07T08:19:20.000Z</time>
      </trkpt>
      <trkpt lat="41.53613149188458919525146484375" lon="2.1253001131117343902587890625">
        <ele>128.1999969482421875</ele>
        <time>2022-01-07T08:19:21.000Z</time>
      </trkpt>
      <trkpt lat="41.53614766895771026611328125" lon="2.12535216473042964935302734375">
        <ele>128.1999969482421875</ele>
        <time>2022-01-07T08:19:22.000Z</time>
      </trkpt>
      <trkpt lat="41.53616552241146564483642578125" lon="2.12540513835847377777099609375">
        <ele>128.1999969482421875</ele>
        <time>2022-01-07T08:19:23.000Z</time>
      </trkpt>
      <trkpt lat="41.5361847169697284698486328125" lon="2.125459872186183929443359375">
        <ele>128.1999969482421875</ele>
        <time>2022-01-07T08:19:24.000Z</time>
      </trkpt>
      <trkpt lat="41.536206342279911041259765625" lon="2.1255163662135601043701171875">
        <ele>128.1999969482421875</ele>
        <time>2022-01-07T08:19:25.000Z</time>
      </trkpt>
      <trkpt lat="41.53622888959944248199462890625" lon="2.1255723573267459869384765625">
        <ele>128</ele>
        <time>2022-01-07T08:19:26.000Z</time>
      </trkpt>
      <trkpt lat="41.5362514369189739227294921875" lon="2.12562960572540760040283203125">
        <ele>128</ele>
        <time>2022-01-07T08:19:27.000Z</time>
      </trkpt>
      <trkpt lat="41.53627373278141021728515625" lon="2.12568358518183231353759765625">
        <ele>127.8000030517578125</ele>
        <time>2022-01-07T08:19:28.000Z</time>
      </trkpt>
      <trkpt lat="41.53629921376705169677734375" lon="2.12574309669435024261474609375">
        <ele>127.8000030517578125</ele>
        <time>2022-01-07T08:19:29.000Z</time>
      </trkpt>
      <trkpt lat="41.53632394038140773773193359375" lon="2.12579439394176006317138671875">
        <ele>127.8000030517578125</ele>
        <time>2022-01-07T08:19:30.000Z</time>
      </trkpt>
      <trkpt lat="41.53634673915803432464599609375" lon="2.1258439309895038604736328125">
        <ele>127.59999847412109375</ele>
        <time>2022-01-07T08:19:31.000Z</time>
      </trkpt>
      <trkpt lat="41.53636534698307514190673828125" lon="2.1258958987891674041748046875">
        <ele>127.40000152587890625</ele>
        <time>2022-01-07T08:19:32.000Z</time>
      </trkpt>
      <trkpt lat="41.53636786155402660369873046875" lon="2.12592129595577716827392578125">
        <ele>127</ele>
        <time>2022-01-07T08:19:33.000Z</time>
      </trkpt>
      <trkpt lat="41.53636031784117221832275390625" lon="2.12594593875110149383544921875">
        <ele>126.40000152587890625</ele>
        <time>2022-01-07T08:19:34.000Z</time>
      </trkpt>
      <trkpt lat="41.5363463200628757476806640625" lon="2.1259750239551067352294921875">
        <ele>126</ele>
        <time>2022-01-07T08:19:35.000Z</time>
      </trkpt>
      <trkpt lat="41.53634011745452880859375" lon="2.12602321989834308624267578125">
        <ele>125.8000030517578125</ele>
        <time>2022-01-07T08:19:36.000Z</time>
      </trkpt>
      <trkpt lat="41.53633810579776763916015625" lon="2.12608608417212963104248046875">
        <ele>125.59999847412109375</ele>
        <time>2022-01-07T08:19:37.000Z</time>
      </trkpt>
      <trkpt lat="41.5363285504281520843505859375" lon="2.12615129537880420684814453125">
        <ele>125.1999969482421875</ele>
        <time>2022-01-07T08:19:38.000Z</time>
      </trkpt>
      <trkpt lat="41.53630726039409637451171875" lon="2.12622438557446002960205078125">
        <ele>125</ele>
        <time>2022-01-07T08:19:39.000Z</time>
      </trkpt>
      <trkpt lat="41.53628337197005748748779296875" lon="2.12629898451268672943115234375">
        <ele>124.8000030517578125</ele>
        <time>2022-01-07T08:19:40.000Z</time>
      </trkpt>
      <trkpt lat="41.53624867089092731475830078125" lon="2.126379199326038360595703125">
        <ele>124.8000030517578125</ele>
        <time>2022-01-07T08:19:41.000Z</time>
      </trkpt>
      <trkpt lat="41.53621732257306575775146484375" lon="2.12642521597445011138916015625">
        <ele>124.8000030517578125</ele>
        <time>2022-01-07T08:19:42.000Z</time>
      </trkpt>
      <trkpt lat="41.536170803010463714599609375" lon="2.12647265754640102386474609375">
        <ele>124.59999847412109375</ele>
        <time>2022-01-07T08:19:43.000Z</time>
      </trkpt>
      <trkpt lat="41.5361159853637218475341796875" lon="2.1264997310936450958251953125">
        <ele>124</ele>
        <time>2022-01-07T08:19:44.000Z</time>
      </trkpt>
      <trkpt lat="41.53605823405086994171142578125" lon="2.1265044249594211578369140625">
        <ele>123</ele>
        <time>2022-01-07T08:19:45.000Z</time>
      </trkpt>
      <trkpt lat="41.53599210083484649658203125" lon="2.12650082074105739593505859375">
        <ele>122</ele>
        <time>2022-01-07T08:19:46.000Z</time>
      </trkpt>
      <trkpt lat="41.53594918549060821533203125" lon="2.126499228179454803466796875">
        <ele>121</ele>
        <time>2022-01-07T08:19:47.000Z</time>
      </trkpt>
      <trkpt lat="41.5358977206051349639892578125" lon="2.12649730034172534942626953125">
        <ele>119.59999847412109375</ele>
        <time>2022-01-07T08:19:48.000Z</time>
      </trkpt>
      <trkpt lat="41.53584055602550506591796875" lon="2.12649344466626644134521484375">
        <ele>118.59999847412109375</ele>
        <time>2022-01-07T08:19:49.000Z</time>
      </trkpt>
      <trkpt lat="41.53580275364220142364501953125" lon="2.12649243883788585662841796875">
        <ele>117.8000030517578125</ele>
        <time>2022-01-07T08:19:50.000Z</time>
      </trkpt>
      <trkpt lat="41.53574743308126926422119140625" lon="2.1264859847724437713623046875">
        <ele>117.1999969482421875</ele>
        <time>2022-01-07T08:19:51.000Z</time>
      </trkpt>
      <trkpt lat="41.5357126481831073760986328125" lon="2.1264812909066677093505859375">
        <ele>117</ele>
        <time>2022-01-07T08:19:52.000Z</time>
      </trkpt>
      <trkpt lat="41.53566881082952022552490234375" lon="2.12647433392703533172607421875">
        <ele>116.8000030517578125</ele>
        <time>2022-01-07T08:19:53.000Z</time>
      </trkpt>
      <trkpt lat="41.5356167592108249664306640625" lon="2.12646746076643466949462890625">
        <ele>116.59999847412109375</ele>
        <time>2022-01-07T08:19:54.000Z</time>
      </trkpt>
      <trkpt lat="41.5355818904936313629150390625" lon="2.12646494619548320770263671875">
        <ele>116.59999847412109375</ele>
        <time>2022-01-07T08:19:55.000Z</time>
      </trkpt>
      <trkpt lat="41.53553872369229793548583984375" lon="2.126460336148738861083984375">
        <ele>116.40000152587890625</ele>
        <time>2022-01-07T08:19:56.000Z</time>
      </trkpt>
      <trkpt lat="41.53549497015774250030517578125" lon="2.12645354680716991424560546875">
        <ele>116.40000152587890625</ele>
        <time>2022-01-07T08:19:57.000Z</time>
      </trkpt>
      <trkpt lat="41.5354487858712673187255859375" lon="2.126446925103664398193359375">
        <ele>116.1999969482421875</ele>
        <time>2022-01-07T08:19:58.000Z</time>
      </trkpt>
      <trkpt lat="41.53540193103253841400146484375" lon="2.12644315324723720550537109375">
        <ele>116</ele>
        <time>2022-01-07T08:19:59.000Z</time>
      </trkpt>
      <trkpt lat="41.53535365127027034759521484375" lon="2.12643996812403202056884765625">
        <ele>116</ele>
        <time>2022-01-07T08:20:00.000Z</time>
      </trkpt>
      <trkpt lat="41.53530218638479709625244140625" lon="2.12643762119114398956298828125">
        <ele>116</ele>
        <time>2022-01-07T08:20:01.000Z</time>
      </trkpt>
      <trkpt lat="41.5352506376802921295166015625" lon="2.12643426842987537384033203125">
        <ele>115.8000030517578125</ele>
        <time>2022-01-07T08:20:02.000Z</time>
      </trkpt>
      <trkpt lat="41.535197831690311431884765625" lon="2.1264293231070041656494140625">
        <ele>115.8000030517578125</ele>
        <time>2022-01-07T08:20:03.000Z</time>
      </trkpt>
      <trkpt lat="41.53514427132904529571533203125" lon="2.12642052210867404937744140625">
        <ele>115.8000030517578125</ele>
        <time>2022-01-07T08:20:04.000Z</time>
      </trkpt>
      <trkpt lat="41.5350902080535888671875" lon="2.12640895508229732513427734375">
        <ele>115.8000030517578125</ele>
        <time>2022-01-07T08:20:05.000Z</time>
      </trkpt>
      <trkpt lat="41.53503530658781528472900390625" lon="2.1264003217220306396484375">
        <ele>115.59999847412109375</ele>
        <time>2022-01-07T08:20:06.000Z</time>
      </trkpt>
      <trkpt lat="41.5349814109504222869873046875" lon="2.1263934485614299774169921875">
        <ele>115.59999847412109375</ele>
        <time>2022-01-07T08:20:07.000Z</time>
      </trkpt>
      <trkpt lat="41.5349277667701244354248046875" lon="2.1263880841434001922607421875">
        <ele>115.40000152587890625</ele>
        <time>2022-01-07T08:20:08.000Z</time>
      </trkpt>
      <trkpt lat="41.5348627232015132904052734375" lon="2.1263827197253704071044921875">
        <ele>115.40000152587890625</ele>
        <time>2022-01-07T08:20:09.000Z</time>
      </trkpt>
      <trkpt lat="41.534820310771465301513671875" lon="2.126376517117023468017578125">
        <ele>115.1999969482421875</ele>
        <time>2022-01-07T08:20:10.000Z</time>
      </trkpt>
      <trkpt lat="41.5347651578485965728759765625" lon="2.12636880576610565185546875">
        <ele>115.1999969482421875</ele>
        <time>2022-01-07T08:20:11.000Z</time>
      </trkpt>
      <trkpt lat="41.534709669649600982666015625" lon="2.126361764967441558837890625">
        <ele>115.1999969482421875</ele>
        <time>2022-01-07T08:20:12.000Z</time>
      </trkpt>
      <trkpt lat="41.53465501964092254638671875" lon="2.12636050768196582794189453125">
        <ele>115</ele>
        <time>2022-01-07T08:20:13.000Z</time>
      </trkpt>
      <trkpt lat="41.53459223918616771697998046875" lon="2.12635799311101436614990234375">
        <ele>115</ele>
        <time>2022-01-07T08:20:14.000Z</time>
      </trkpt>
      <trkpt lat="41.5345405228435993194580078125" lon="2.12635380215942859649658203125">
        <ele>114.8000030517578125</ele>
        <time>2022-01-07T08:20:15.000Z</time>
      </trkpt>
      <trkpt lat="41.534497775137424468994140625" lon="2.12634734809398651123046875">
        <ele>114.8000030517578125</ele>
        <time>2022-01-07T08:20:16.000Z</time>
      </trkpt>
      <trkpt lat="41.5344439633190631866455078125" lon="2.12634022347629070281982421875">
        <ele>114.8000030517578125</ele>
        <time>2022-01-07T08:20:17.000Z</time>
      </trkpt>
      <trkpt lat="41.53438705019652843475341796875" lon="2.12633385322988033294677734375">
        <ele>114.8000030517578125</ele>
        <time>2022-01-07T08:20:18.000Z</time>
      </trkpt>
      <trkpt lat="41.5343279577791690826416015625" lon="2.1263280697166919708251953125">
        <ele>114.59999847412109375</ele>
        <time>2022-01-07T08:20:19.000Z</time>
      </trkpt>
      <trkpt lat="41.53426484204828739166259765625" lon="2.1263203583657741546630859375">
        <ele>114.59999847412109375</ele>
        <time>2022-01-07T08:20:20.000Z</time>
      </trkpt>
      <trkpt lat="41.53420214541256427764892578125" lon="2.12631256319582462310791015625">
        <ele>114.40000152587890625</ele>
        <time>2022-01-07T08:20:21.000Z</time>
      </trkpt>
      <trkpt lat="41.53413861058652400970458984375" lon="2.1263082884252071380615234375">
        <ele>114.40000152587890625</ele>
        <time>2022-01-07T08:20:22.000Z</time>
      </trkpt>
      <trkpt lat="41.5340644307434558868408203125" lon="2.12630820460617542266845703125">
        <ele>114.40000152587890625</ele>
        <time>2022-01-07T08:20:23.000Z</time>
      </trkpt>
      <trkpt lat="41.5340158157050609588623046875" lon="2.12630686350166797637939453125">
        <ele>114.40000152587890625</ele>
        <time>2022-01-07T08:20:24.000Z</time>
      </trkpt>
      <trkpt lat="41.533956639468669891357421875" lon="2.12630099616944789886474609375">
        <ele>114.1999969482421875</ele>
        <time>2022-01-07T08:20:25.000Z</time>
      </trkpt>
      <trkpt lat="41.53389939107000827789306640625" lon="2.12628833949565887451171875">
        <ele>114.1999969482421875</ele>
        <time>2022-01-07T08:20:26.000Z</time>
      </trkpt>
      <trkpt lat="41.5338451601564884185791015625" lon="2.12627735920250415802001953125">
        <ele>114</ele>
        <time>2022-01-07T08:20:27.000Z</time>
      </trkpt>
      <trkpt lat="41.5337928570806980133056640625" lon="2.12626780383288860321044921875">
        <ele>114</ele>
        <time>2022-01-07T08:20:28.000Z</time>
      </trkpt>
      <trkpt lat="41.53374164365231990814208984375" lon="2.12625891901552677154541015625">
        <ele>114</ele>
        <time>2022-01-07T08:20:29.000Z</time>
      </trkpt>
      <trkpt lat="41.53369269333779811859130859375" lon="2.1262519620358943939208984375">
        <ele>114</ele>
        <time>2022-01-07T08:20:30.000Z</time>
      </trkpt>
      <trkpt lat="41.53364525176584720611572265625" lon="2.12624768726527690887451171875">
        <ele>114</ele>
        <time>2022-01-07T08:20:31.000Z</time>
      </trkpt>
      <trkpt lat="41.5335983969271183013916015625" lon="2.1262419037520885467529296875">
        <ele>114</ele>
        <time>2022-01-07T08:20:32.000Z</time>
      </trkpt>
      <trkpt lat="41.53354953043162822723388671875" lon="2.126231007277965545654296875">
        <ele>114</ele>
        <time>2022-01-07T08:20:33.000Z</time>
      </trkpt>
      <trkpt lat="41.53349940665066242218017578125" lon="2.12622254155576229095458984375">
        <ele>114</ele>
        <time>2022-01-07T08:20:34.000Z</time>
      </trkpt>
      <trkpt lat="41.53344509191811084747314453125" lon="2.12621952407062053680419921875">
        <ele>113.8000030517578125</ele>
        <time>2022-01-07T08:20:35.000Z</time>
      </trkpt>
      <trkpt lat="41.53338968753814697265625" lon="2.1262207813560962677001953125">
        <ele>113.8000030517578125</ele>
        <time>2022-01-07T08:20:36.000Z</time>
      </trkpt>
      <trkpt lat="41.53333310969173908233642578125" lon="2.1262197755277156829833984375">
        <ele>113.8000030517578125</ele>
        <time>2022-01-07T08:20:37.000Z</time>
      </trkpt>
      <trkpt lat="41.53327845968306064605712890625" lon="2.12621600367128849029541015625">
        <ele>113.8000030517578125</ele>
        <time>2022-01-07T08:20:38.000Z</time>
      </trkpt>
      <trkpt lat="41.533221043646335601806640625" lon="2.12620845995843410491943359375">
        <ele>113.8000030517578125</ele>
        <time>2022-01-07T08:20:39.000Z</time>
      </trkpt>
      <trkpt lat="41.53316446579992771148681640625" lon="2.12619991041719913482666015625">
        <ele>113.8000030517578125</ele>
        <time>2022-01-07T08:20:40.000Z</time>
      </trkpt>
      <trkpt lat="41.53311065398156642913818359375" lon="2.1261859126389026641845703125">
        <ele>113.8000030517578125</ele>
        <time>2022-01-07T08:20:41.000Z</time>
      </trkpt>
      <trkpt lat="41.53306086547672748565673828125" lon="2.1261656284332275390625">
        <ele>113.8000030517578125</ele>
        <time>2022-01-07T08:20:42.000Z</time>
      </trkpt>
      <trkpt lat="41.533007808029651641845703125" lon="2.12614978663623332977294921875">
        <ele>113.8000030517578125</ele>
        <time>2022-01-07T08:20:43.000Z</time>
      </trkpt>
      <trkpt lat="41.53294117189943790435791015625" lon="2.12613821960985660552978515625">
        <ele>113.8000030517578125</ele>
        <time>2022-01-07T08:20:44.000Z</time>
      </trkpt>
      <trkpt lat="41.53289674781262874603271484375" lon="2.1261372976005077362060546875">
        <ele>113.59999847412109375</ele>
        <time>2022-01-07T08:20:45.000Z</time>
      </trkpt>
      <trkpt lat="41.53284125961363315582275390625" lon="2.12613922543823719024658203125">
        <ele>113.59999847412109375</ele>
        <time>2022-01-07T08:20:46.000Z</time>
      </trkpt>
      <trkpt lat="41.53278878889977931976318359375" lon="2.12614643387496471405029296875">
        <ele>113.59999847412109375</ele>
        <time>2022-01-07T08:20:47.000Z</time>
      </trkpt>
      <trkpt lat="41.5327370725572109222412109375" lon="2.12615531869232654571533203125">
        <ele>113.59999847412109375</ele>
        <time>2022-01-07T08:20:48.000Z</time>
      </trkpt>
      <trkpt lat="41.5326767228543758392333984375" lon="2.12616638280451297760009765625">
        <ele>113.40000152587890625</ele>
        <time>2022-01-07T08:20:49.000Z</time>
      </trkpt>
      <trkpt lat="41.53263489715754985809326171875" lon="2.12616872973740100860595703125">
        <ele>113.40000152587890625</ele>
        <time>2022-01-07T08:20:50.000Z</time>
      </trkpt>
      <trkpt lat="41.53258292935788631439208984375" lon="2.1261674724519252777099609375">
        <ele>113.40000152587890625</ele>
        <time>2022-01-07T08:20:51.000Z</time>
      </trkpt>
      <trkpt lat="41.53253112919628620147705078125" lon="2.12616093456745147705078125">
        <ele>113.40000152587890625</ele>
        <time>2022-01-07T08:20:52.000Z</time>
      </trkpt>
      <trkpt lat="41.5324782393872737884521484375" lon="2.1261543966829776763916015625">
        <ele>113.40000152587890625</ele>
        <time>2022-01-07T08:20:53.000Z</time>
      </trkpt>
      <trkpt lat="41.5324245952069759368896484375" lon="2.126149870455265045166015625">
        <ele>113.1999969482421875</ele>
        <time>2022-01-07T08:20:54.000Z</time>
      </trkpt>
      <trkpt lat="41.53236902318894863128662109375" lon="2.126143835484981536865234375">
        <ele>113.1999969482421875</ele>
        <time>2022-01-07T08:20:55.000Z</time>
      </trkpt>
      <trkpt lat="41.5323152951896190643310546875" lon="2.1261393092572689056396484375">
        <ele>113.1999969482421875</ele>
        <time>2022-01-07T08:20:56.000Z</time>
      </trkpt>
      <trkpt lat="41.53225938789546489715576171875" lon="2.12613469921052455902099609375">
        <ele>113.1999969482421875</ele>
        <time>2022-01-07T08:20:57.000Z</time>
      </trkpt>
      <trkpt lat="41.532203815877437591552734375" lon="2.1261299215257167816162109375">
        <ele>113</ele>
        <time>2022-01-07T08:20:58.000Z</time>
      </trkpt>
      <trkpt lat="41.53214807622134685516357421875" lon="2.1261258982121944427490234375">
        <ele>113</ele>
        <time>2022-01-07T08:20:59.000Z</time>
      </trkpt>
      <trkpt lat="41.53209057636559009552001953125" lon="2.12612095288932323455810546875">
        <ele>113</ele>
        <time>2022-01-07T08:21:00.000Z</time>
      </trkpt>
      <trkpt lat="41.53203106485307216644287109375" lon="2.126111648976802825927734375">
        <ele>113</ele>
        <time>2022-01-07T08:21:01.000Z</time>
      </trkpt>
      <trkpt lat="41.53197457082569599151611328125" lon="2.12610268034040927886962890625">
        <ele>112.8000030517578125</ele>
        <time>2022-01-07T08:21:02.000Z</time>
      </trkpt>
      <trkpt lat="41.53191505931317806243896484375" lon="2.1260970644652843475341796875">
        <ele>112.8000030517578125</ele>
        <time>2022-01-07T08:21:03.000Z</time>
      </trkpt>
      <trkpt lat="41.53185504488646984100341796875" lon="2.12609396316111087799072265625">
        <ele>112.59999847412109375</ele>
        <time>2022-01-07T08:21:04.000Z</time>
      </trkpt>
      <trkpt lat="41.531794108450412750244140625" lon="2.126089520752429962158203125">
        <ele>112.59999847412109375</ele>
        <time>2022-01-07T08:21:05.000Z</time>
      </trkpt>
      <trkpt lat="41.53173468075692653656005859375" lon="2.12608122266829013824462890625">
        <ele>112.40000152587890625</ele>
        <time>2022-01-07T08:21:06.000Z</time>
      </trkpt>
      <trkpt lat="41.531675420701503753662109375" lon="2.12607376277446746826171875">
        <ele>112.40000152587890625</ele>
        <time>2022-01-07T08:21:07.000Z</time>
      </trkpt>
      <trkpt lat="41.53161716647446155548095703125" lon="2.12606747634708881378173828125">
        <ele>112.40000152587890625</ele>
        <time>2022-01-07T08:21:08.000Z</time>
      </trkpt>
      <trkpt lat="41.53156000189483165740966796875" lon="2.12606110610067844390869140625">
        <ele>112.1999969482421875</ele>
        <time>2022-01-07T08:21:09.000Z</time>
      </trkpt>
      <trkpt lat="41.53150476515293121337890625" lon="2.12605406530201435089111328125">
        <ele>112.1999969482421875</ele>
        <time>2022-01-07T08:21:10.000Z</time>
      </trkpt>
      <trkpt lat="41.53144902549684047698974609375" lon="2.1260487847030162811279296875">
        <ele>112.1999969482421875</ele>
        <time>2022-01-07T08:21:11.000Z</time>
      </trkpt>
      <trkpt lat="41.53139638714492321014404296875" lon="2.126047946512699127197265625">
        <ele>112.1999969482421875</ele>
        <time>2022-01-07T08:21:12.000Z</time>
      </trkpt>
      <trkpt lat="41.531346850097179412841796875" lon="2.126048617064952850341796875">
        <ele>112.1999969482421875</ele>
        <time>2022-01-07T08:21:13.000Z</time>
      </trkpt>
      <trkpt lat="41.5312984026968479156494140625" lon="2.1260491199791431427001953125">
        <ele>112.1999969482421875</ele>
        <time>2022-01-07T08:21:14.000Z</time>
      </trkpt>
      <trkpt lat="41.53125305660068988800048828125" lon="2.1260484494268894195556640625">
        <ele>112.1999969482421875</ele>
        <time>2022-01-07T08:21:15.000Z</time>
      </trkpt>
      <trkpt lat="41.531212069094181060791015625" lon="2.12604668922722339630126953125">
        <ele>112.1999969482421875</ele>
        <time>2022-01-07T08:21:16.000Z</time>
      </trkpt>
      <trkpt lat="41.5311701595783233642578125" lon="2.12604333646595478057861328125">
        <ele>112.1999969482421875</ele>
        <time>2022-01-07T08:21:17.000Z</time>
      </trkpt>
      <trkpt lat="41.531117521226406097412109375" lon="2.1260454319417476654052734375">
        <ele>112.1999969482421875</ele>
        <time>2022-01-07T08:21:18.000Z</time>
      </trkpt>
      <trkpt lat="41.5310714207589626312255859375" lon="2.126048617064952850341796875">
        <ele>112.1999969482421875</ele>
        <time>2022-01-07T08:21:19.000Z</time>
      </trkpt>
      <trkpt lat="41.5310331992805004119873046875" lon="2.12604903616011142730712890625">
        <ele>112.1999969482421875</ele>
        <time>2022-01-07T08:21:20.000Z</time>
      </trkpt>
      <trkpt lat="41.530984081327915191650390625" lon="2.1260504610836505889892578125">
        <ele>112.1999969482421875</ele>
        <time>2022-01-07T08:21:21.000Z</time>
      </trkpt>
      <trkpt lat="41.53092482127249240875244140625" lon="2.12604601867496967315673828125">
        <ele>112.1999969482421875</ele>
        <time>2022-01-07T08:21:22.000Z</time>
      </trkpt>
      <trkpt lat="41.53088006190955638885498046875" lon="2.12603847496211528778076171875">
        <ele>112.1999969482421875</ele>
        <time>2022-01-07T08:21:23.000Z</time>
      </trkpt>
      <trkpt lat="41.53084787540137767791748046875" lon="2.12603495456278324127197265625">
        <ele>112.1999969482421875</ele>
        <time>2022-01-07T08:21:24.000Z</time>
      </trkpt>
      <trkpt lat="41.53081099502742290496826171875" lon="2.1260367147624492645263671875">
        <ele>112</ele>
        <time>2022-01-07T08:21:25.000Z</time>
      </trkpt>
      <trkpt lat="41.53077629394829273223876953125" lon="2.126047611236572265625">
        <ele>112</ele>
        <time>2022-01-07T08:21:26.000Z</time>
      </trkpt>
      <trkpt lat="41.5307344682514667510986328125" lon="2.1260618604719638824462890625">
        <ele>112</ele>
        <time>2022-01-07T08:21:27.000Z</time>
      </trkpt>
      <trkpt lat="41.53070588596165180206298828125" lon="2.1260712482035160064697265625">
        <ele>112</ele>
        <time>2022-01-07T08:21:28.000Z</time>
      </trkpt>
      <trkpt lat="41.53066917322576045989990234375" lon="2.12607703171670436859130859375">
        <ele>112</ele>
        <time>2022-01-07T08:21:29.000Z</time>
      </trkpt>
      <trkpt lat="41.53062977828085422515869140625" lon="2.1260797977447509765625">
        <ele>112</ele>
        <time>2022-01-07T08:21:30.000Z</time>
      </trkpt>
      <trkpt lat="41.53057940304279327392578125" lon="2.12609010748565196990966796875">
        <ele>112</ele>
        <time>2022-01-07T08:21:31.000Z</time>
      </trkpt>
      <trkpt lat="41.53053514659404754638671875" lon="2.12610351853072643280029296875">
        <ele>111.8000030517578125</ele>
        <time>2022-01-07T08:21:32.000Z</time>
      </trkpt>
      <trkpt lat="41.5304903872311115264892578125" lon="2.12611424736678600311279296875">
        <ele>111.8000030517578125</ele>
        <time>2022-01-07T08:21:33.000Z</time>
      </trkpt>
      <trkpt lat="41.530453674495220184326171875" lon="2.12612279690802097320556640625">
        <ele>111.8000030517578125</ele>
        <time>2022-01-07T08:21:34.000Z</time>
      </trkpt>
      <trkpt lat="41.530408076941967010498046875" lon="2.12613268755376338958740234375">
        <ele>111.59999847412109375</ele>
        <time>2022-01-07T08:21:35.000Z</time>
      </trkpt>
      <trkpt lat="41.53035518713295459747314453125" lon="2.1261455118656158447265625">
        <ele>111.59999847412109375</ele>
        <time>2022-01-07T08:21:36.000Z</time>
      </trkpt>
      <trkpt lat="41.53031981550157070159912109375" lon="2.12615615688264369964599609375">
        <ele>111.59999847412109375</ele>
        <time>2022-01-07T08:21:37.000Z</time>
      </trkpt>
      <trkpt lat="41.5302664227783679962158203125" lon="2.126169987022876739501953125">
        <ele>111.40000152587890625</ele>
        <time>2022-01-07T08:21:38.000Z</time>
      </trkpt>
      <trkpt lat="41.5302322246134281158447265625" lon="2.1261798776686191558837890625">
        <ele>111.40000152587890625</ele>
        <time>2022-01-07T08:21:39.000Z</time>
      </trkpt>
      <trkpt lat="41.53018989600241184234619140625" lon="2.126192115247249603271484375">
        <ele>111.40000152587890625</ele>
        <time>2022-01-07T08:21:40.000Z</time>
      </trkpt>
      <trkpt lat="41.530141197144985198974609375" lon="2.126212902367115020751953125">
        <ele>111.1999969482421875</ele>
        <time>2022-01-07T08:21:41.000Z</time>
      </trkpt>
      <trkpt lat="41.53010389767587184906005859375" lon="2.12623142637312412261962890625">
        <ele>111</ele>
        <time>2022-01-07T08:21:42.000Z</time>
      </trkpt>
      <trkpt lat="41.53006249107420444488525390625" lon="2.12625078856945037841796875">
        <ele>111</ele>
        <time>2022-01-07T08:21:43.000Z</time>
      </trkpt>
      <trkpt lat="41.5300256945192813873291015625" lon="2.1262630261480808258056640625">
        <ele>110.8000030517578125</ele>
        <time>2022-01-07T08:21:44.000Z</time>
      </trkpt>
      <trkpt lat="41.52997883968055248260498046875" lon="2.12627233006060123443603515625">
        <ele>110.8000030517578125</ele>
        <time>2022-01-07T08:21:45.000Z</time>
      </trkpt>
      <trkpt lat="41.52993022464215755462646484375" lon="2.12626512162387371063232421875">
        <ele>110.8000030517578125</ele>
        <time>2022-01-07T08:21:46.000Z</time>
      </trkpt>
      <trkpt lat="41.52989652939140796661376953125" lon="2.12624433450400829315185546875">
        <ele>110.8000030517578125</ele>
        <time>2022-01-07T08:21:47.000Z</time>
      </trkpt>
      <trkpt lat="41.52986132539808750152587890625" lon="2.12622153572738170623779296875">
        <ele>110.8000030517578125</ele>
        <time>2022-01-07T08:21:48.000Z</time>
      </trkpt>
      <trkpt lat="41.52983383275568485260009765625" lon="2.1262003295123577117919921875">
        <ele>110.8000030517578125</ele>
        <time>2022-01-07T08:21:49.000Z</time>
      </trkpt>
      <trkpt lat="41.52980047278106212615966796875" lon="2.126173675060272216796875">
        <ele>110.8000030517578125</ele>
        <time>2022-01-07T08:21:50.000Z</time>
      </trkpt>
      <trkpt lat="41.529760658740997314453125" lon="2.1261466853320598602294921875">
        <ele>110.8000030517578125</ele>
        <time>2022-01-07T08:21:51.000Z</time>
      </trkpt>
      <trkpt lat="41.52973324991762638092041015625" lon="2.12613101117312908172607421875">
        <ele>110.8000030517578125</ele>
        <time>2022-01-07T08:21:52.000Z</time>
      </trkpt>
      <trkpt lat="41.52969335205852985382080078125" lon="2.1261111460626125335693359375">
        <ele>110.8000030517578125</ele>
        <time>2022-01-07T08:21:53.000Z</time>
      </trkpt>
      <trkpt lat="41.52966720052063465118408203125" lon="2.12610058486461639404296875">
        <ele>110.8000030517578125</ele>
        <time>2022-01-07T08:21:54.000Z</time>
      </trkpt>
      <trkpt lat="41.5296381153166294097900390625" lon="2.1260906942188739776611328125">
        <ele>110.8000030517578125</ele>
        <time>2022-01-07T08:21:55.000Z</time>
      </trkpt>
      <trkpt lat="41.529608108103275299072265625" lon="2.1260756067931652069091796875">
        <ele>111</ele>
        <time>2022-01-07T08:21:56.000Z</time>
      </trkpt>
      <trkpt lat="41.5295827947556972503662109375" lon="2.12605825625360012054443359375">
        <ele>111</ele>
        <time>2022-01-07T08:21:57.000Z</time>
      </trkpt>
      <trkpt lat="41.52955890633165836334228515625" lon="2.12603663094341754913330078125">
        <ele>111.1999969482421875</ele>
        <time>2022-01-07T08:21:58.000Z</time>
      </trkpt>
      <trkpt lat="41.5295435674488544464111328125" lon="2.12601341307163238525390625">
        <ele>111.1999969482421875</ele>
        <time>2022-01-07T08:21:59.000Z</time>
      </trkpt>
      <trkpt lat="41.529526300728321075439453125" lon="2.12598231621086597442626953125">
        <ele>111.40000152587890625</ele>
        <time>2022-01-07T08:22:00.000Z</time>
      </trkpt>
      <trkpt lat="41.52950517833232879638671875" lon="2.1259443461894989013671875">
        <ele>111.59999847412109375</ele>
        <time>2022-01-07T08:22:01.000Z</time>
      </trkpt>
      <trkpt lat="41.52949151583015918731689453125" lon="2.1259129978716373443603515625">
        <ele>112</ele>
        <time>2022-01-07T08:22:02.000Z</time>
      </trkpt>
      <trkpt lat="41.52948615141212940216064453125" lon="2.125882320106029510498046875">
        <ele>112.1999969482421875</ele>
        <time>2022-01-07T08:22:03.000Z</time>
      </trkpt>
      <trkpt lat="41.52948774397373199462890625" lon="2.125856839120388031005859375">
        <ele>112.8000030517578125</ele>
        <time>2022-01-07T08:22:04.000Z</time>
      </trkpt>
      <trkpt lat="41.5294976346194744110107421875" lon="2.1258231438696384429931640625">
        <ele>113</ele>
        <time>2022-01-07T08:22:05.000Z</time>
      </trkpt>
      <trkpt lat="41.52950995601713657379150390625" lon="2.12580042891204357147216796875">
        <ele>113.40000152587890625</ele>
        <time>2022-01-07T08:22:06.000Z</time>
      </trkpt>
      <trkpt lat="41.52952722273766994476318359375" lon="2.125772349536418914794921875">
        <ele>113.8000030517578125</ele>
        <time>2022-01-07T08:22:07.000Z</time>
      </trkpt>
      <trkpt lat="41.52954516001045703887939453125" lon="2.12575416080653667449951171875">
        <ele>114.1999969482421875</ele>
        <time>2022-01-07T08:22:08.000Z</time>
      </trkpt>
      <trkpt lat="41.52956862933933734893798828125" lon="2.12573220022022724151611328125">
        <ele>114.8000030517578125</ele>
        <time>2022-01-07T08:22:09.000Z</time>
      </trkpt>
      <trkpt lat="41.52959595434367656707763671875" lon="2.1257083117961883544921875">
        <ele>115.1999969482421875</ele>
        <time>2022-01-07T08:22:10.000Z</time>
      </trkpt>
      <trkpt lat="41.52961556799709796905517578125" lon="2.12568911723792552947998046875">
        <ele>115.59999847412109375</ele>
        <time>2022-01-07T08:22:11.000Z</time>
      </trkpt>
      <trkpt lat="41.52964691631495952606201171875" lon="2.12566078640520572662353515625">
        <ele>115.8000030517578125</ele>
        <time>2022-01-07T08:22:12.000Z</time>
      </trkpt>
      <trkpt lat="41.52966904453933238983154296875" lon="2.12564050219953060150146484375">
        <ele>116.1999969482421875</ele>
        <time>2022-01-07T08:22:13.000Z</time>
      </trkpt>
      <trkpt lat="41.52969586662948131561279296875" lon="2.12561912834644317626953125">
        <ele>116.1999969482421875</ele>
        <time>2022-01-07T08:22:14.000Z</time>
      </trkpt>
      <trkpt lat="41.5297271311283111572265625" lon="2.12559373117983341217041015625">
        <ele>116.40000152587890625</ele>
        <time>2022-01-07T08:22:15.000Z</time>
      </trkpt>
      <trkpt lat="41.52975135482847690582275390625" lon="2.12557126767933368682861328125">
        <ele>116.40000152587890625</ele>
        <time>2022-01-07T08:22:16.000Z</time>
      </trkpt>
      <trkpt lat="41.52977532707154750823974609375" lon="2.12554578669369220733642578125">
        <ele>116.59999847412109375</ele>
        <time>2022-01-07T08:22:17.000Z</time>
      </trkpt>
      <trkpt lat="41.52979829348623752593994140625" lon="2.12552256882190704345703125">
        <ele>116.59999847412109375</ele>
        <time>2022-01-07T08:22:18.000Z</time>
      </trkpt>
      <trkpt lat="41.5298188291490077972412109375" lon="2.12549683637917041778564453125">
        <ele>116.8000030517578125</ele>
        <time>2022-01-07T08:22:19.000Z</time>
      </trkpt>
      <trkpt lat="41.5298389457166194915771484375" lon="2.12546884082257747650146484375">
        <ele>116.8000030517578125</ele>
        <time>2022-01-07T08:22:20.000Z</time>
      </trkpt>
      <trkpt lat="41.52986048720777034759521484375" lon="2.12544185109436511993408203125">
        <ele>116.8000030517578125</ele>
        <time>2022-01-07T08:22:21.000Z</time>
      </trkpt>
      <trkpt lat="41.5298853814601898193359375" lon="2.125420980155467987060546875">
        <ele>117</ele>
        <time>2022-01-07T08:22:22.000Z</time>
      </trkpt>
      <trkpt lat="41.52991312555968761444091796875" lon="2.12540765292942523956298828125">
        <ele>117</ele>
        <time>2022-01-07T08:22:23.000Z</time>
      </trkpt>
      <trkpt lat="41.52994296513497829437255859375" lon="2.12539893575012683868408203125">
        <ele>117.1999969482421875</ele>
        <time>2022-01-07T08:22:24.000Z</time>
      </trkpt>
      <trkpt lat="41.5299738943576812744140625" lon="2.125391475856304168701171875">
        <ele>117.1999969482421875</ele>
        <time>2022-01-07T08:22:25.000Z</time>
      </trkpt>
      <trkpt lat="41.53000700287520885467529296875" lon="2.1253869496285915374755859375">
        <ele>117.40000152587890625</ele>
        <time>2022-01-07T08:22:26.000Z</time>
      </trkpt>
      <trkpt lat="41.5300334058701992034912109375" lon="2.1253837645053863525390625">
        <ele>117.59999847412109375</ele>
        <time>2022-01-07T08:22:27.000Z</time>
      </trkpt>
      <trkpt lat="41.53006668202579021453857421875" lon="2.12538301013410091400146484375">
        <ele>117.59999847412109375</ele>
        <time>2022-01-07T08:22:28.000Z</time>
      </trkpt>
      <trkpt lat="41.5300987847149372100830078125" lon="2.12538736872375011444091796875">
        <ele>117.8000030517578125</ele>
        <time>2022-01-07T08:22:29.000Z</time>
      </trkpt>
      <trkpt lat="41.530124433338642120361328125" lon="2.12540321052074432373046875">
        <ele>117.8000030517578125</ele>
        <time>2022-01-07T08:22:30.000Z</time>
      </trkpt>
      <trkpt lat="41.530144214630126953125" lon="2.125435061752796173095703125">
        <ele>118</ele>
        <time>2022-01-07T08:22:31.000Z</time>
      </trkpt>
      <trkpt lat="41.53015418909490108489990234375" lon="2.12546045891940593719482421875">
        <ele>118</ele>
        <time>2022-01-07T08:22:32.000Z</time>
      </trkpt>
      <trkpt lat="41.530161984264850616455078125" lon="2.12549683637917041778564453125">
        <ele>118</ele>
        <time>2022-01-07T08:22:33.000Z</time>
      </trkpt>
      <trkpt lat="41.530158631503582000732421875" lon="2.125540338456630706787109375">
        <ele>118</ele>
        <time>2022-01-07T08:22:34.000Z</time>
      </trkpt>
      <trkpt lat="41.53014915995299816131591796875" lon="2.1255907975137233734130859375">
        <ele>118.1999969482421875</ele>
        <time>2022-01-07T08:22:35.000Z</time>
      </trkpt>
      <trkpt lat="41.53013306669890880584716796875" lon="2.12565843947231769561767578125">
        <ele>118.1999969482421875</ele>
        <time>2022-01-07T08:22:36.000Z</time>
      </trkpt>
      <trkpt lat="41.5301227569580078125" lon="2.12570789270102977752685546875">
        <ele>118.1999969482421875</ele>
        <time>2022-01-07T08:22:37.000Z</time>
      </trkpt>
      <trkpt lat="41.530111022293567657470703125" lon="2.12576773948967456817626953125">
        <ele>118.1999969482421875</ele>
        <time>2022-01-07T08:22:38.000Z</time>
      </trkpt>
      <trkpt lat="41.53009987436234951019287109375" lon="2.12582859210669994354248046875">
        <ele>118.1999969482421875</ele>
        <time>2022-01-07T08:22:39.000Z</time>
      </trkpt>
      <trkpt lat="41.53008512221276760101318359375" lon="2.12590201757848262786865234375">
        <ele>118.1999969482421875</ele>
        <time>2022-01-07T08:22:40.000Z</time>
      </trkpt>
      <trkpt lat="41.53007246553897857666015625" lon="2.12596521712839603424072265625">
        <ele>118.1999969482421875</ele>
        <time>2022-01-07T08:22:41.000Z</time>
      </trkpt>
      <trkpt lat="41.53006215579807758331298828125" lon="2.12601450271904468536376953125">
        <ele>118.1999969482421875</ele>
        <time>2022-01-07T08:22:42.000Z</time>
      </trkpt>
      <trkpt lat="41.53005276806652545928955078125" lon="2.12607669644057750701904296875">
        <ele>118.1999969482421875</ele>
        <time>2022-01-07T08:22:43.000Z</time>
      </trkpt>
      <trkpt lat="41.53004405088722705841064453125" lon="2.126136459410190582275390625">
        <ele>118.1999969482421875</ele>
        <time>2022-01-07T08:22:44.000Z</time>
      </trkpt>
      <trkpt lat="41.5300360880792140960693359375" lon="2.12619437836110591888427734375">
        <ele>118.1999969482421875</ele>
        <time>2022-01-07T08:22:45.000Z</time>
      </trkpt>
      <trkpt lat="41.53002829290926456451416015625" lon="2.12626461870968341827392578125">
        <ele>118</ele>
        <time>2022-01-07T08:22:46.000Z</time>
      </trkpt>
      <trkpt lat="41.53002393431961536407470703125" lon="2.1263139881193637847900390625">
        <ele>117.8000030517578125</ele>
        <time>2022-01-07T08:22:47.000Z</time>
      </trkpt>
      <trkpt lat="41.5300169773399829864501953125" lon="2.12637777440249919891357421875">
        <ele>117.8000030517578125</ele>
        <time>2022-01-07T08:22:48.000Z</time>
      </trkpt>
      <trkpt lat="41.5300087630748748779296875" lon="2.12644214741885662078857421875">
        <ele>117.8000030517578125</ele>
        <time>2022-01-07T08:22:49.000Z</time>
      </trkpt>
      <trkpt lat="41.53000113554298877716064453125" lon="2.1265076100826263427734375">
        <ele>117.8000030517578125</ele>
        <time>2022-01-07T08:22:50.000Z</time>
      </trkpt>
      <trkpt lat="41.52999292127788066864013671875" lon="2.126572318375110626220703125">
        <ele>117.8000030517578125</ele>
        <time>2022-01-07T08:22:51.000Z</time>
      </trkpt>
      <trkpt lat="41.52998437173664569854736328125" lon="2.126639373600482940673828125">
        <ele>117.59999847412109375</ele>
        <time>2022-01-07T08:22:52.000Z</time>
      </trkpt>
      <trkpt lat="41.52997615747153759002685546875" lon="2.12670751847326755523681640625">
        <ele>117.59999847412109375</ele>
        <time>2022-01-07T08:22:53.000Z</time>
      </trkpt>
      <trkpt lat="41.52996693737804889678955078125" lon="2.1267756633460521697998046875">
        <ele>117.59999847412109375</ele>
        <time>2022-01-07T08:22:54.000Z</time>
      </trkpt>
      <trkpt lat="41.5299576334655284881591796875" lon="2.12684565223753452301025390625">
        <ele>117.59999847412109375</ele>
        <time>2022-01-07T08:22:55.000Z</time>
      </trkpt>
      <trkpt lat="41.5299462340772151947021484375" lon="2.126914970576763153076171875">
        <ele>117.59999847412109375</ele>
        <time>2022-01-07T08:22:56.000Z</time>
      </trkpt>
      <trkpt lat="41.52993391267955303192138671875" lon="2.12698563002049922943115234375">
        <ele>117.40000152587890625</ele>
        <time>2022-01-07T08:22:57.000Z</time>
      </trkpt>
      <trkpt lat="41.5299234353005886077880859375" lon="2.1270556189119815826416015625">
        <ele>117.40000152587890625</ele>
        <time>2022-01-07T08:22:58.000Z</time>
      </trkpt>
      <trkpt lat="41.5299143828451633453369140625" lon="2.1271263621747493743896484375">
        <ele>117.40000152587890625</ele>
        <time>2022-01-07T08:22:59.000Z</time>
      </trkpt>
      <trkpt lat="41.52990348637104034423828125" lon="2.12721345014870166778564453125">
        <ele>117.1999969482421875</ele>
        <time>2022-01-07T08:23:00.000Z</time>
      </trkpt>
      <trkpt lat="41.52989543974399566650390625" lon="2.12727262638509273529052734375">
        <ele>117.1999969482421875</ele>
        <time>2022-01-07T08:23:01.000Z</time>
      </trkpt>
      <trkpt lat="41.52988471090793609619140625" lon="2.1273483149707317352294921875">
        <ele>117</ele>
        <time>2022-01-07T08:23:02.000Z</time>
      </trkpt>
      <trkpt lat="41.5298754908144474029541015625" lon="2.127422578632831573486328125">
        <ele>117</ele>
        <time>2022-01-07T08:23:03.000Z</time>
      </trkpt>
      <trkpt lat="41.52986601926386356353759765625" lon="2.12749558500945568084716796875">
        <ele>116.8000030517578125</ele>
        <time>2022-01-07T08:23:04.000Z</time>
      </trkpt>
      <trkpt lat="41.52985612861812114715576171875" lon="2.1275669150054454803466796875">
        <ele>116.59999847412109375</ele>
        <time>2022-01-07T08:23:05.000Z</time>
      </trkpt>
      <trkpt lat="41.52984447777271270751953125" lon="2.12763740681111812591552734375">
        <ele>116.59999847412109375</ele>
        <time>2022-01-07T08:23:06.000Z</time>
      </trkpt>
      <trkpt lat="41.52983332984149456024169921875" lon="2.12770530022680759429931640625">
        <ele>116.59999847412109375</ele>
        <time>2022-01-07T08:23:07.000Z</time>
      </trkpt>
      <trkpt lat="41.5298251993954181671142578125" lon="2.1277734450995922088623046875">
        <ele>116.59999847412109375</ele>
        <time>2022-01-07T08:23:08.000Z</time>
      </trkpt>
      <trkpt lat="41.52981631457805633544921875" lon="2.12785315699875354766845703125">
        <ele>116.40000152587890625</ele>
        <time>2022-01-07T08:23:09.000Z</time>
      </trkpt>
      <trkpt lat="41.52981103397905826568603515625" lon="2.1279050409793853759765625">
        <ele>116.40000152587890625</ele>
        <time>2022-01-07T08:23:10.000Z</time>
      </trkpt>
      <trkpt lat="41.52980181388556957244873046875" lon="2.127967737615108489990234375">
        <ele>116.40000152587890625</ele>
        <time>2022-01-07T08:23:11.000Z</time>
      </trkpt>
      <trkpt lat="41.52979142032563686370849609375" lon="2.12803018279373645782470703125">
        <ele>116.40000152587890625</ele>
        <time>2022-01-07T08:23:12.000Z</time>
      </trkpt>
      <trkpt lat="41.5297807753086090087890625" lon="2.12809304706752300262451171875">
        <ele>116.1999969482421875</ele>
        <time>2022-01-07T08:23:13.000Z</time>
      </trkpt>
      <trkpt lat="41.5297665260732173919677734375" lon="2.12815582752227783203125">
        <ele>116.1999969482421875</ele>
        <time>2022-01-07T08:23:14.000Z</time>
      </trkpt>
      <trkpt lat="41.5297480858862400054931640625" lon="2.12822967208921909332275390625">
        <ele>116.1999969482421875</ele>
        <time>2022-01-07T08:23:15.000Z</time>
      </trkpt>
      <trkpt lat="41.52972855605185031890869140625" lon="2.12829530239105224609375">
        <ele>116.1999969482421875</ele>
        <time>2022-01-07T08:23:16.000Z</time>
      </trkpt>
      <trkpt lat="41.52970961295068264007568359375" lon="2.1283497847616672515869140625">
        <ele>116.1999969482421875</ele>
        <time>2022-01-07T08:23:17.000Z</time>
      </trkpt>
      <trkpt lat="41.529685221612453460693359375" lon="2.12841994129121303558349609375">
        <ele>116.1999969482421875</ele>
        <time>2022-01-07T08:23:18.000Z</time>
      </trkpt>
      <trkpt lat="41.52965362183749675750732421875" lon="2.128504849970340728759765625">
        <ele>116.1999969482421875</ele>
        <time>2022-01-07T08:23:19.000Z</time>
      </trkpt>
      <trkpt lat="41.52962587773799896240234375" lon="2.12857198901474475860595703125">
        <ele>116</ele>
        <time>2022-01-07T08:23:20.000Z</time>
      </trkpt>
      <trkpt lat="41.5296002291142940521240234375" lon="2.12864063680171966552734375">
        <ele>116</ele>
        <time>2022-01-07T08:23:21.000Z</time>
      </trkpt>
      <trkpt lat="41.52957759797573089599609375" lon="2.1286914311349391937255859375">
        <ele>116</ele>
        <time>2022-01-07T08:23:22.000Z</time>
      </trkpt>
      <trkpt lat="41.529547758400440216064453125" lon="2.128751613199710845947265625">
        <ele>115.8000030517578125</ele>
        <time>2022-01-07T08:23:23.000Z</time>
      </trkpt>
      <trkpt lat="41.52951029129326343536376953125" lon="2.1288198418915271759033203125">
        <ele>115.8000030517578125</ele>
        <time>2022-01-07T08:23:24.000Z</time>
      </trkpt>
      <trkpt lat="41.5294818766415119171142578125" lon="2.1288627572357654571533203125">
        <ele>115.8000030517578125</ele>
        <time>2022-01-07T08:23:25.000Z</time>
      </trkpt>
      <trkpt lat="41.5294476784765720367431640625" lon="2.128915227949619293212890625">
        <ele>115.59999847412109375</ele>
        <time>2022-01-07T08:23:26.000Z</time>
      </trkpt>
      <trkpt lat="41.5294144861400127410888671875" lon="2.12896644137799739837646484375">
        <ele>115.59999847412109375</ele>
        <time>2022-01-07T08:23:27.000Z</time>
      </trkpt>
      <trkpt lat="41.52938020415604114532470703125" lon="2.1290163137018680572509765625">
        <ele>115.59999847412109375</ele>
        <time>2022-01-07T08:23:28.000Z</time>
      </trkpt>
      <trkpt lat="41.52934080921113491058349609375" lon="2.1290763281285762786865234375">
        <ele>115.59999847412109375</ele>
        <time>2022-01-07T08:23:29.000Z</time>
      </trkpt>
      <trkpt lat="41.52930803596973419189453125" lon="2.129127793014049530029296875">
        <ele>115.59999847412109375</ele>
        <time>2022-01-07T08:23:30.000Z</time>
      </trkpt>
      <trkpt lat="41.5292780287563800811767578125" lon="2.12917950935661792755126953125">
        <ele>115.59999847412109375</ele>
        <time>2022-01-07T08:23:31.000Z</time>
      </trkpt>
      <trkpt lat="41.529252044856548309326171875" lon="2.129215300083160400390625">
        <ele>115.59999847412109375</ele>
        <time>2022-01-07T08:23:32.000Z</time>
      </trkpt>
      <trkpt lat="41.52921843342483043670654296875" lon="2.12926332838833332061767578125">
        <ele>115.40000152587890625</ele>
        <time>2022-01-07T08:23:33.000Z</time>
      </trkpt>
      <trkpt lat="41.529186330735683441162109375" lon="2.12931378744542598724365234375">
        <ele>115.40000152587890625</ele>
        <time>2022-01-07T08:23:34.000Z</time>
      </trkpt>
      <trkpt lat="41.52915573678910732269287109375" lon="2.129365839064121246337890625">
        <ele>115.40000152587890625</ele>
        <time>2022-01-07T08:23:35.000Z</time>
      </trkpt>
      <trkpt lat="41.52912304736673831939697265625" lon="2.1294173039495944976806640625">
        <ele>115.40000152587890625</ele>
        <time>2022-01-07T08:23:36.000Z</time>
      </trkpt>
      <trkpt lat="41.52908884920179843902587890625" lon="2.12946734391152858734130859375">
        <ele>115.40000152587890625</ele>
        <time>2022-01-07T08:23:37.000Z</time>
      </trkpt>
      <trkpt lat="41.5290543995797634124755859375" lon="2.12951906025409698486328125">
        <ele>115.40000152587890625</ele>
        <time>2022-01-07T08:23:38.000Z</time>
      </trkpt>
      <trkpt lat="41.52901994995772838592529296875" lon="2.129569351673126220703125">
        <ele>115.40000152587890625</ele>
        <time>2022-01-07T08:23:39.000Z</time>
      </trkpt>
      <trkpt lat="41.5289856679737567901611328125" lon="2.1296189725399017333984375">
        <ele>115.40000152587890625</ele>
        <time>2022-01-07T08:23:40.000Z</time>
      </trkpt>
      <trkpt lat="41.52895172126591205596923828125" lon="2.12966247461736202239990234375">
        <ele>115.40000152587890625</ele>
        <time>2022-01-07T08:23:41.000Z</time>
      </trkpt>
      <trkpt lat="41.52891349978744983673095703125" lon="2.12970639578998088836669921875">
        <ele>115.40000152587890625</ele>
        <time>2022-01-07T08:23:42.000Z</time>
      </trkpt>
      <trkpt lat="41.528869159519672393798828125" lon="2.12974092923104763031005859375">
        <ele>115.40000152587890625</ele>
        <time>2022-01-07T08:23:43.000Z</time>
      </trkpt>
      <trkpt lat="41.528812162578105926513671875" lon="2.1297753788530826568603515625">
        <ele>115.1999969482421875</ele>
        <time>2022-01-07T08:23:44.000Z</time>
      </trkpt>
      <trkpt lat="41.52876564301550388336181640625" lon="2.12979859672486782073974609375">
        <ele>115.1999969482421875</ele>
        <time>2022-01-07T08:23:45.000Z</time>
      </trkpt>
      <trkpt lat="41.5287298522889614105224609375" lon="2.12981586344540119171142578125">
        <ele>115.1999969482421875</ele>
        <time>2022-01-07T08:23:46.000Z</time>
      </trkpt>
      <trkpt lat="41.52868651784956455230712890625" lon="2.129839919507503509521484375">
        <ele>115</ele>
        <time>2022-01-07T08:23:47.000Z</time>
      </trkpt>
      <trkpt lat="41.528644859790802001953125" lon="2.1298684179782867431640625">
        <ele>115</ele>
        <time>2022-01-07T08:23:48.000Z</time>
      </trkpt>
      <trkpt lat="41.528604291379451751708984375" lon="2.12989599443972110748291015625">
        <ele>115</ele>
        <time>2022-01-07T08:23:49.000Z</time>
      </trkpt>
      <trkpt lat="41.5285659022629261016845703125" lon="2.12993136607110500335693359375">
        <ele>114.8000030517578125</ele>
        <time>2022-01-07T08:23:50.000Z</time>
      </trkpt>
      <trkpt lat="41.52853011153638362884521484375" lon="2.129974700510501861572265625">
        <ele>114.8000030517578125</ele>
        <time>2022-01-07T08:23:51.000Z</time>
      </trkpt>
      <trkpt lat="41.5284971706569194793701171875" lon="2.13002172298729419708251953125">
        <ele>114.8000030517578125</ele>
        <time>2022-01-07T08:23:52.000Z</time>
      </trkpt>
      <trkpt lat="41.52846448123455047607421875" lon="2.13007050566375255584716796875">
        <ele>114.8000030517578125</ele>
        <time>2022-01-07T08:23:53.000Z</time>
      </trkpt>
      <trkpt lat="41.52843019925057888031005859375" lon="2.130134291946887969970703125">
        <ele>114.8000030517578125</ele>
        <time>2022-01-07T08:23:54.000Z</time>
      </trkpt>
      <trkpt lat="41.5284096635878086090087890625" lon="2.13017511181533336639404296875">
        <ele>114.8000030517578125</ele>
        <time>2022-01-07T08:23:55.000Z</time>
      </trkpt>
      <trkpt lat="41.528381668031215667724609375" lon="2.13022557087242603302001953125">
        <ele>114.8000030517578125</ele>
        <time>2022-01-07T08:23:56.000Z</time>
      </trkpt>
      <trkpt lat="41.52835291810333728790283203125" lon="2.1302742697298526763916015625">
        <ele>114.8000030517578125</ele>
        <time>2022-01-07T08:23:57.000Z</time>
      </trkpt>
      <trkpt lat="41.5283218212425708770751953125" lon="2.1303218789398670196533203125">
        <ele>114.59999847412109375</ele>
        <time>2022-01-07T08:23:58.000Z</time>
      </trkpt>
      <trkpt lat="41.5282921493053436279296875" lon="2.1303691528737545013427734375">
        <ele>114.59999847412109375</ele>
        <time>2022-01-07T08:23:59.000Z</time>
      </trkpt>
      <trkpt lat="41.52826306410133838653564453125" lon="2.1304150857031345367431640625">
        <ele>114.59999847412109375</ele>
        <time>2022-01-07T08:24:00.000Z</time>
      </trkpt>
      <trkpt lat="41.52823322452604770660400390625" lon="2.13046344928443431854248046875">
        <ele>114.59999847412109375</ele>
        <time>2022-01-07T08:24:01.000Z</time>
      </trkpt>
      <trkpt lat="41.52820254676043987274169921875" lon="2.13051072321832180023193359375">
        <ele>114.59999847412109375</ele>
        <time>2022-01-07T08:24:02.000Z</time>
      </trkpt>
      <trkpt lat="41.528173126280307769775390625" lon="2.13055648840963840484619140625">
        <ele>114.59999847412109375</ele>
        <time>2022-01-07T08:24:03.000Z</time>
      </trkpt>
      <trkpt lat="41.52814253233373165130615234375" lon="2.1306014992296695709228515625">
        <ele>114.59999847412109375</ele>
        <time>2022-01-07T08:24:04.000Z</time>
      </trkpt>
      <trkpt lat="41.52810481376945972442626953125" lon="2.13065522722899913787841796875">
        <ele>114.59999847412109375</ele>
        <time>2022-01-07T08:24:05.000Z</time>
      </trkpt>
      <trkpt lat="41.52808218263089656829833984375" lon="2.13070719502866268157958984375">
        <ele>114.59999847412109375</ele>
        <time>2022-01-07T08:24:06.000Z</time>
      </trkpt>
      <trkpt lat="41.52806751430034637451171875" lon="2.1307523734867572784423828125">
        <ele>114.59999847412109375</ele>
        <time>2022-01-07T08:24:07.000Z</time>
      </trkpt>
      <trkpt lat="41.52804471552371978759765625" lon="2.13080794550478458404541015625">
        <ele>114.59999847412109375</ele>
        <time>2022-01-07T08:24:08.000Z</time>
      </trkpt>
      <trkpt lat="41.52801990509033203125" lon="2.130862176418304443359375">
        <ele>114.59999847412109375</ele>
        <time>2022-01-07T08:24:09.000Z</time>
      </trkpt>
      <trkpt lat="41.52799668721854686737060546875" lon="2.13092856109142303466796875">
        <ele>114.40000152587890625</ele>
        <time>2022-01-07T08:24:10.000Z</time>
      </trkpt>
      <trkpt lat="41.52798260562121868133544921875" lon="2.1309746615588665008544921875">
        <ele>114.1999969482421875</ele>
        <time>2022-01-07T08:24:11.000Z</time>
      </trkpt>
      <trkpt lat="41.52796265669167041778564453125" lon="2.1310296468436717987060546875">
        <ele>114.1999969482421875</ele>
        <time>2022-01-07T08:24:12.000Z</time>
      </trkpt>
      <trkpt lat="41.5279406122863292694091796875" lon="2.131083793938159942626953125">
        <ele>114.1999969482421875</ele>
        <time>2022-01-07T08:24:13.000Z</time>
      </trkpt>
      <trkpt lat="41.5279151313006877899169921875" lon="2.1311510168015956878662109375">
        <ele>114.1999969482421875</ele>
        <time>2022-01-07T08:24:14.000Z</time>
      </trkpt>
      <trkpt lat="41.527894847095012664794921875" lon="2.1312070079147815704345703125">
        <ele>114</ele>
        <time>2022-01-07T08:24:15.000Z</time>
      </trkpt>
      <trkpt lat="41.52787900529801845550537109375" lon="2.13125151582062244415283203125">
        <ele>114</ele>
        <time>2022-01-07T08:24:16.000Z</time>
      </trkpt>
      <trkpt lat="41.527855284512042999267578125" lon="2.13130264542996883392333984375">
        <ele>113.8000030517578125</ele>
        <time>2022-01-07T08:24:17.000Z</time>
      </trkpt>
      <trkpt lat="41.52782770805060863494873046875" lon="2.13134740479290485382080078125">
        <ele>113.8000030517578125</ele>
        <time>2022-01-07T08:24:18.000Z</time>
      </trkpt>
      <trkpt lat="41.52779233641922473907470703125" lon="2.13139283470809459686279296875">
        <ele>113.59999847412109375</ele>
        <time>2022-01-07T08:24:19.000Z</time>
      </trkpt>
      <trkpt lat="41.527762077748775482177734375" lon="2.13142812252044677734375">
        <ele>113.59999847412109375</ele>
        <time>2022-01-07T08:24:20.000Z</time>
      </trkpt>
      <trkpt lat="41.5277396142482757568359375" lon="2.13145988993346691131591796875">
        <ele>113.59999847412109375</ele>
        <time>2022-01-07T08:24:21.000Z</time>
      </trkpt>
      <trkpt lat="41.52771086432039737701416015625" lon="2.13149894960224628448486328125">
        <ele>113.59999847412109375</ele>
        <time>2022-01-07T08:24:22.000Z</time>
      </trkpt>
      <trkpt lat="41.52767532505095005035400390625" lon="2.1315432898700237274169921875">
        <ele>113.59999847412109375</ele>
        <time>2022-01-07T08:24:23.000Z</time>
      </trkpt>
      <trkpt lat="41.5276445634663105010986328125" lon="2.13158025406301021575927734375">
        <ele>113.40000152587890625</ele>
        <time>2022-01-07T08:24:24.000Z</time>
      </trkpt>
      <trkpt lat="41.52762000449001789093017578125" lon="2.1316118538379669189453125">
        <ele>113.40000152587890625</ele>
        <time>2022-01-07T08:24:25.000Z</time>
      </trkpt>
      <trkpt lat="41.5275889076292514801025390625" lon="2.131656110286712646484375">
        <ele>113.1999969482421875</ele>
        <time>2022-01-07T08:24:26.000Z</time>
      </trkpt>
      <trkpt lat="41.52755697257816791534423828125" lon="2.131700031459331512451171875">
        <ele>113.1999969482421875</ele>
        <time>2022-01-07T08:24:27.000Z</time>
      </trkpt>
      <trkpt lat="41.52752579189836978912353515625" lon="2.131740935146808624267578125">
        <ele>113.1999969482421875</ele>
        <time>2022-01-07T08:24:28.000Z</time>
      </trkpt>
      <trkpt lat="41.52748555876314640045166015625" lon="2.13179164566099643707275390625">
        <ele>113.1999969482421875</ele>
        <time>2022-01-07T08:24:29.000Z</time>
      </trkpt>
      <trkpt lat="41.52745387516915798187255859375" lon="2.131833471357822418212890625">
        <ele>113.1999969482421875</ele>
        <time>2022-01-07T08:24:30.000Z</time>
      </trkpt>
      <trkpt lat="41.52742973528802394866943359375" lon="2.13186926208436489105224609375">
        <ele>113</ele>
        <time>2022-01-07T08:24:31.000Z</time>
      </trkpt>
      <trkpt lat="41.52739888988435268402099609375" lon="2.13191024959087371826171875">
        <ele>113</ele>
        <time>2022-01-07T08:24:32.000Z</time>
      </trkpt>
      <trkpt lat="41.52736871503293514251708984375" lon="2.13195048272609710693359375">
        <ele>112.8000030517578125</ele>
        <time>2022-01-07T08:24:33.000Z</time>
      </trkpt>
      <trkpt lat="41.5273408032953739166259765625" lon="2.13199163787066936492919921875">
        <ele>112.8000030517578125</ele>
        <time>2022-01-07T08:24:34.000Z</time>
      </trkpt>
      <trkpt lat="41.52731305919587612152099609375" lon="2.13203287683427333831787109375">
        <ele>112.8000030517578125</ele>
        <time>2022-01-07T08:24:35.000Z</time>
      </trkpt>
      <trkpt lat="41.52728606946766376495361328125" lon="2.13207126595079898834228515625">
        <ele>112.8000030517578125</ele>
        <time>2022-01-07T08:24:36.000Z</time>
      </trkpt>
      <trkpt lat="41.52725882828235626220703125" lon="2.13210579939186573028564453125">
        <ele>112.8000030517578125</ele>
        <time>2022-01-07T08:24:37.000Z</time>
      </trkpt>
      <trkpt lat="41.52722798287868499755859375" lon="2.132138572633266448974609375">
        <ele>112.59999847412109375</ele>
        <time>2022-01-07T08:24:38.000Z</time>
      </trkpt>
      <trkpt lat="41.52719537727534770965576171875" lon="2.13217101059854030609130859375">
        <ele>112.59999847412109375</ele>
        <time>2022-01-07T08:24:39.000Z</time>
      </trkpt>
      <trkpt lat="41.5271490253508090972900390625" lon="2.1322011016309261322021484375">
        <ele>112.40000152587890625</ele>
        <time>2022-01-07T08:24:40.000Z</time>
      </trkpt>
      <trkpt lat="41.5271151624619960784912109375" lon="2.13221476413309574127197265625">
        <ele>112.1999969482421875</ele>
        <time>2022-01-07T08:24:41.000Z</time>
      </trkpt>
      <trkpt lat="41.52706964872777462005615234375" lon="2.132224738597869873046875">
        <ele>112.1999969482421875</ele>
        <time>2022-01-07T08:24:42.000Z</time>
      </trkpt>
      <trkpt lat="41.52702723629772663116455078125" lon="2.1322314441204071044921875">
        <ele>112.1999969482421875</ele>
        <time>2022-01-07T08:24:43.000Z</time>
      </trkpt>
      <trkpt lat="41.52697040699422359466552734375" lon="2.1322368085384368896484375">
        <ele>112</ele>
        <time>2022-01-07T08:24:44.000Z</time>
      </trkpt>
      <trkpt lat="41.5269287489354610443115234375" lon="2.1322319470345973968505859375">
        <ele>111.8000030517578125</ele>
        <time>2022-01-07T08:24:45.000Z</time>
      </trkpt>
      <trkpt lat="41.52687250636518001556396484375" lon="2.13222381658852100372314453125">
        <ele>111.8000030517578125</ele>
        <time>2022-01-07T08:24:46.000Z</time>
      </trkpt>
      <trkpt lat="41.52681031264364719390869140625" lon="2.13222515769302845001220703125">
        <ele>111.59999847412109375</ele>
        <time>2022-01-07T08:24:47.000Z</time>
      </trkpt>
      <trkpt lat="41.526733450591564178466796875" lon="2.13224577717483043670654296875">
        <ele>111.59999847412109375</ele>
        <time>2022-01-07T08:24:48.000Z</time>
      </trkpt>
      <trkpt lat="41.52667469345033168792724609375" lon="2.1322788856923580169677734375">
        <ele>111.1999969482421875</ele>
        <time>2022-01-07T08:24:49.000Z</time>
      </trkpt>
      <trkpt lat="41.526628844439983367919921875" lon="2.132320292294025421142578125">
        <ele>110.59999847412109375</ele>
        <time>2022-01-07T08:24:50.000Z</time>
      </trkpt>
      <trkpt lat="41.5265716798603534698486328125" lon="2.13238491676747798919677734375">
        <ele>110</ele>
        <time>2022-01-07T08:24:51.000Z</time>
      </trkpt>
      <trkpt lat="41.5265197120606899261474609375" lon="2.13245515711605548858642578125">
        <ele>109.59999847412109375</ele>
        <time>2022-01-07T08:24:52.000Z</time>
      </trkpt>
      <trkpt lat="41.52646497823297977447509765625" lon="2.13254501111805438995361328125">
        <ele>109</ele>
        <time>2022-01-07T08:24:53.000Z</time>
      </trkpt>
      <trkpt lat="41.5264241583645343780517578125" lon="2.1326225437223911285400390625">
        <ele>109</ele>
        <time>2022-01-07T08:24:54.000Z</time>
      </trkpt>
      <trkpt lat="41.52639557607471942901611328125" lon="2.132684402167797088623046875">
        <ele>108</ele>
        <time>2022-01-07T08:24:55.000Z</time>
      </trkpt>
      <trkpt lat="41.52636204846203327178955078125" lon="2.13275673799216747283935546875">
        <ele>107.1999969482421875</ele>
        <time>2022-01-07T08:24:56.000Z</time>
      </trkpt>
      <trkpt lat="41.52632885612547397613525390625" lon="2.13284575380384922027587890625">
        <ele>106.40000152587890625</ele>
        <time>2022-01-07T08:24:57.000Z</time>
      </trkpt>
      <trkpt lat="41.52630622498691082000732421875" lon="2.1329008229076862335205078125">
        <ele>105.8000030517578125</ele>
        <time>2022-01-07T08:24:58.000Z</time>
      </trkpt>
      <trkpt lat="41.52627353556454181671142578125" lon="2.1329762600362300872802734375">
        <ele>105.40000152587890625</ele>
        <time>2022-01-07T08:24:59.000Z</time>
      </trkpt>
      <trkpt lat="41.5262590348720550537109375" lon="2.13302864693105220794677734375">
        <ele>105</ele>
        <time>2022-01-07T08:25:00.000Z</time>
      </trkpt>
      <trkpt lat="41.52624763548374176025390625" lon="2.13307759724557399749755859375">
        <ele>104.8000030517578125</ele>
        <time>2022-01-07T08:25:01.000Z</time>
      </trkpt>
      <trkpt lat="41.5262384153902530670166015625" lon="2.13311699219048023223876953125">
        <ele>104.59999847412109375</ele>
        <time>2022-01-07T08:25:02.000Z</time>
      </trkpt>
      <trkpt lat="41.52623422443866729736328125" lon="2.1331589855253696441650390625">
        <ele>104.59999847412109375</ele>
        <time>2022-01-07T08:25:03.000Z</time>
      </trkpt>
      <trkpt lat="41.52622961439192295074462890625" lon="2.13318471796810626983642578125">
        <ele>104.59999847412109375</ele>
        <time>2022-01-07T08:25:04.000Z</time>
      </trkpt>
      <trkpt lat="41.52621787972748279571533203125" lon="2.13321975432336330413818359375">
        <ele>104.59999847412109375</ele>
        <time>2022-01-07T08:25:05.000Z</time>
      </trkpt>
      <trkpt lat="41.5262115933001041412353515625" lon="2.1332639269530773162841796875">
        <ele>104.59999847412109375</ele>
        <time>2022-01-07T08:25:06.000Z</time>
      </trkpt>
      <trkpt lat="41.526207067072391510009765625" lon="2.13331564329564571380615234375">
        <ele>104.59999847412109375</ele>
        <time>2022-01-07T08:25:07.000Z</time>
      </trkpt>
      <trkpt lat="41.52619826607406139373779296875" lon="2.13336794637143611907958984375">
        <ele>104.59999847412109375</ele>
        <time>2022-01-07T08:25:08.000Z</time>
      </trkpt>
      <trkpt lat="41.52618619613349437713623046875" lon="2.13341605849564075469970703125">
        <ele>104.59999847412109375</ele>
        <time>2022-01-07T08:25:09.000Z</time>
      </trkpt>
      <trkpt lat="41.5261743776500225067138671875" lon="2.1334681101143360137939453125">
        <ele>104.59999847412109375</ele>
        <time>2022-01-07T08:25:10.000Z</time>
      </trkpt>
      <trkpt lat="41.5261638164520263671875" lon="2.13352091610431671142578125">
        <ele>104.59999847412109375</ele>
        <time>2022-01-07T08:25:11.000Z</time>
      </trkpt>
      <trkpt lat="41.52615501545369625091552734375" lon="2.13357531465590000152587890625">
        <ele>104.59999847412109375</ele>
        <time>2022-01-07T08:25:12.000Z</time>
      </trkpt>
      <trkpt lat="41.52614965103566646575927734375" lon="2.13363231159746646881103515625">
        <ele>104.59999847412109375</ele>
        <time>2022-01-07T08:25:13.000Z</time>
      </trkpt>
      <trkpt lat="41.526148058474063873291015625" lon="2.13369701988995075225830078125">
        <ele>104.59999847412109375</ele>
        <time>2022-01-07T08:25:14.000Z</time>
      </trkpt>
      <trkpt lat="41.5261495672166347503662109375" lon="2.1337386779487133026123046875">
        <ele>104.59999847412109375</ele>
        <time>2022-01-07T08:25:15.000Z</time>
      </trkpt>
      <trkpt lat="41.526150405406951904296875" lon="2.13379726745188236236572265625">
        <ele>104.59999847412109375</ele>
        <time>2022-01-07T08:25:16.000Z</time>
      </trkpt>
      <trkpt lat="41.52614998631179332733154296875" lon="2.133866585791110992431640625">
        <ele>104.59999847412109375</ele>
        <time>2022-01-07T08:25:17.000Z</time>
      </trkpt>
      <trkpt lat="41.52615082450211048126220703125" lon="2.1339284442365169525146484375">
        <ele>104.59999847412109375</ele>
        <time>2022-01-07T08:25:18.000Z</time>
      </trkpt>
      <trkpt lat="41.5261492319405078887939453125" lon="2.1339762210845947265625">
        <ele>104.40000152587890625</ele>
        <time>2022-01-07T08:25:19.000Z</time>
      </trkpt>
      <trkpt lat="41.5261445380747318267822265625" lon="2.13403531350195407867431640625">
        <ele>104.40000152587890625</ele>
        <time>2022-01-07T08:25:20.000Z</time>
      </trkpt>
      <trkpt lat="41.52613741345703601837158203125" lon="2.13409331627190113067626953125">
        <ele>104.1999969482421875</ele>
        <time>2022-01-07T08:25:21.000Z</time>
      </trkpt>
      <trkpt lat="41.52612584643065929412841796875" lon="2.13416355662047863006591796875">
        <ele>104.1999969482421875</ele>
        <time>2022-01-07T08:25:22.000Z</time>
      </trkpt>
      <trkpt lat="41.52611218392848968505859375" lon="2.13422290049493312835693359375">
        <ele>104</ele>
        <time>2022-01-07T08:25:23.000Z</time>
      </trkpt>
      <trkpt lat="41.5260982699692249298095703125" lon="2.13426849804818630218505859375">
        <ele>104</ele>
        <time>2022-01-07T08:25:24.000Z</time>
      </trkpt>
      <trkpt lat="41.52607806958258152008056640625" lon="2.1343217231333255767822265625">
        <ele>104</ele>
        <time>2022-01-07T08:25:25.000Z</time>
      </trkpt>
      <trkpt lat="41.52605543844401836395263671875" lon="2.13437712751328945159912109375">
        <ele>104</ele>
        <time>2022-01-07T08:25:26.000Z</time>
      </trkpt>
      <trkpt lat="41.5260256826877593994140625" lon="2.13444619439542293548583984375">
        <ele>104</ele>
        <time>2022-01-07T08:25:27.000Z</time>
      </trkpt>
      <trkpt lat="41.52600564993917942047119140625" lon="2.134500928223133087158203125">
        <ele>104</ele>
        <time>2022-01-07T08:25:28.000Z</time>
      </trkpt>
      <trkpt lat="41.5259846113622188568115234375" lon="2.13455398567020893096923828125">
        <ele>104</ele>
        <time>2022-01-07T08:25:29.000Z</time>
      </trkpt>
      <trkpt lat="41.52596860192716121673583984375" lon="2.13459421880543231964111328125">
        <ele>103.8000030517578125</ele>
        <time>2022-01-07T08:25:30.000Z</time>
      </trkpt>
      <trkpt lat="41.5259473957121372222900390625" lon="2.134644426405429840087890625">
        <ele>103.8000030517578125</ele>
        <time>2022-01-07T08:25:31.000Z</time>
      </trkpt>
      <trkpt lat="41.525925099849700927734375" lon="2.13469563983380794525146484375">
        <ele>103.8000030517578125</ele>
        <time>2022-01-07T08:25:32.000Z</time>
      </trkpt>
      <trkpt lat="41.52590137906372547149658203125" lon="2.1347465179860591888427734375">
        <ele>103.8000030517578125</ele>
        <time>2022-01-07T08:25:33.000Z</time>
      </trkpt>
      <trkpt lat="41.52587539516389369964599609375" lon="2.134808041155338287353515625">
        <ele>103.8000030517578125</ele>
        <time>2022-01-07T08:25:34.000Z</time>
      </trkpt>
      <trkpt lat="41.5258578769862651824951171875" lon="2.13485120795667171478271484375">
        <ele>103.59999847412109375</ele>
        <time>2022-01-07T08:25:35.000Z</time>
      </trkpt>
      <trkpt lat="41.5258360840380191802978515625" lon="2.13490518741309642791748046875">
        <ele>103.59999847412109375</ele>
        <time>2022-01-07T08:25:36.000Z</time>
      </trkpt>
      <trkpt lat="41.525815464556217193603515625" lon="2.13495933450758457183837890625">
        <ele>103.59999847412109375</ele>
        <time>2022-01-07T08:25:37.000Z</time>
      </trkpt>
      <trkpt lat="41.52579174377024173736572265625" lon="2.1350231207907199859619140625">
        <ele>103.59999847412109375</ele>
        <time>2022-01-07T08:25:38.000Z</time>
      </trkpt>
      <trkpt lat="41.52577531524002552032470703125" lon="2.13506360538303852081298828125">
        <ele>103.59999847412109375</ele>
        <time>2022-01-07T08:25:39.000Z</time>
      </trkpt>
      <trkpt lat="41.52575620450079441070556640625" lon="2.13511507026851177215576171875">
        <ele>103.59999847412109375</ele>
        <time>2022-01-07T08:25:40.000Z</time>
      </trkpt>
      <trkpt lat="41.52573491446673870086669921875" lon="2.13516871444880962371826171875">
        <ele>103.40000152587890625</ele>
        <time>2022-01-07T08:25:41.000Z</time>
      </trkpt>
      <trkpt lat="41.5257140435278415679931640625" lon="2.13522621430456638336181640625">
        <ele>103.40000152587890625</ele>
        <time>2022-01-07T08:25:42.000Z</time>
      </trkpt>
      <trkpt lat="41.52570188976824283599853515625" lon="2.1352598257362842559814453125">
        <ele>103.40000152587890625</ele>
        <time>2022-01-07T08:25:43.000Z</time>
      </trkpt>
      <trkpt lat="41.52568261139094829559326171875" lon="2.13531321845948696136474609375">
        <ele>103.40000152587890625</ele>
        <time>2022-01-07T08:25:44.000Z</time>
      </trkpt>
      <trkpt lat="41.52567121200263500213623046875" lon="2.13535026647150516510009765625">
        <ele>103.40000152587890625</ele>
        <time>2022-01-07T08:25:45.000Z</time>
      </trkpt>
      <trkpt lat="41.52565411292016506195068359375" lon="2.13539938442409038543701171875">
        <ele>103.40000152587890625</ele>
        <time>2022-01-07T08:25:46.000Z</time>
      </trkpt>
      <trkpt lat="41.5256365947425365447998046875" lon="2.13545135222375392913818359375">
        <ele>103.1999969482421875</ele>
        <time>2022-01-07T08:25:47.000Z</time>
      </trkpt>
      <trkpt lat="41.52561991475522518157958984375" lon="2.1355146355926990509033203125">
        <ele>103.1999969482421875</ele>
        <time>2022-01-07T08:25:48.000Z</time>
      </trkpt>
      <trkpt lat="41.52560968883335590362548828125" lon="2.135571800172328948974609375">
        <ele>103</ele>
        <time>2022-01-07T08:25:49.000Z</time>
      </trkpt>
      <trkpt lat="41.5256044082343578338623046875" lon="2.1356163918972015380859375">
        <ele>103</ele>
        <time>2022-01-07T08:25:50.000Z</time>
      </trkpt>
      <trkpt lat="41.52559778653085231781005859375" lon="2.13567112572491168975830078125">
        <ele>103</ele>
        <time>2022-01-07T08:25:51.000Z</time>
      </trkpt>
      <trkpt lat="41.5255896560847759246826171875" lon="2.1357412822544574737548828125">
        <ele>103</ele>
        <time>2022-01-07T08:25:52.000Z</time>
      </trkpt>
      <trkpt lat="41.52558336965739727020263671875" lon="2.1358001232147216796875">
        <ele>102.8000030517578125</ele>
        <time>2022-01-07T08:25:53.000Z</time>
      </trkpt>
      <trkpt lat="41.52557599358260631561279296875" lon="2.13584429584443569183349609375">
        <ele>102.8000030517578125</ele>
        <time>2022-01-07T08:25:54.000Z</time>
      </trkpt>
      <trkpt lat="41.5255651809275150299072265625" lon="2.13589735329151153564453125">
        <ele>102.59999847412109375</ele>
        <time>2022-01-07T08:25:55.000Z</time>
      </trkpt>
      <trkpt lat="41.5255544520914554595947265625" lon="2.13594873435795307159423828125">
        <ele>102.40000152587890625</ele>
        <time>2022-01-07T08:25:56.000Z</time>
      </trkpt>
      <trkpt lat="41.5255413763225078582763671875" lon="2.13599902577698230743408203125">
        <ele>102.40000152587890625</ele>
        <time>2022-01-07T08:25:57.000Z</time>
      </trkpt>
      <trkpt lat="41.52552704326808452606201171875" lon="2.13605266995728015899658203125">
        <ele>102.40000152587890625</ele>
        <time>2022-01-07T08:25:58.000Z</time>
      </trkpt>
      <trkpt lat="41.52551271021366119384765625" lon="2.1360929869115352630615234375">
        <ele>102.40000152587890625</ele>
        <time>2022-01-07T08:25:59.000Z</time>
      </trkpt>
      <trkpt lat="41.52550198137760162353515625" lon="2.136125005781650543212890625">
        <ele>102</ele>
        <time>2022-01-07T08:26:00.000Z</time>
      </trkpt>
      <trkpt lat="41.52549033053219318389892578125" lon="2.1361690945923328399658203125">
        <ele>102</ele>
        <time>2022-01-07T08:26:01.000Z</time>
      </trkpt>
      <trkpt lat="41.5254771709442138671875" lon="2.136210836470127105712890625">
        <ele>102</ele>
        <time>2022-01-07T08:26:02.000Z</time>
      </trkpt>
      <trkpt lat="41.525458395481109619140625" lon="2.13625542819499969482421875">
        <ele>101.8000030517578125</ele>
        <time>2022-01-07T08:26:03.000Z</time>
      </trkpt>
      <trkpt lat="41.52544003911316394805908203125" lon="2.13631452061235904693603515625">
        <ele>101.8000030517578125</ele>
        <time>2022-01-07T08:26:04.000Z</time>
      </trkpt>
      <trkpt lat="41.5254300646483898162841796875" lon="2.13635601103305816650390625">
        <ele>101.59999847412109375</ele>
        <time>2022-01-07T08:26:05.000Z</time>
      </trkpt>
      <trkpt lat="41.52542327530682086944580078125" lon="2.13640588335692882537841796875">
        <ele>101.59999847412109375</ele>
        <time>2022-01-07T08:26:06.000Z</time>
      </trkpt>
      <trkpt lat="41.52541807852685451507568359375" lon="2.1364532411098480224609375">
        <ele>101.59999847412109375</ele>
        <time>2022-01-07T08:26:07.000Z</time>
      </trkpt>
      <trkpt lat="41.52541489340364933013916015625" lon="2.13650143705308437347412109375">
        <ele>101.59999847412109375</ele>
        <time>2022-01-07T08:26:08.000Z</time>
      </trkpt>
      <trkpt lat="41.5254106186330318450927734375" lon="2.13655692525207996368408203125">
        <ele>101.40000152587890625</ele>
        <time>2022-01-07T08:26:09.000Z</time>
      </trkpt>
      <trkpt lat="41.525405086576938629150390625" lon="2.13659196160733699798583984375">
        <ele>101.40000152587890625</ele>
        <time>2022-01-07T08:26:10.000Z</time>
      </trkpt>
      <trkpt lat="41.52540030889213085174560546875" lon="2.13663286529481410980224609375">
        <ele>101.40000152587890625</ele>
        <time>2022-01-07T08:26:11.000Z</time>
      </trkpt>
      <trkpt lat="41.52539041824638843536376953125" lon="2.1366793848574161529541015625">
        <ele>101.40000152587890625</ele>
        <time>2022-01-07T08:26:12.000Z</time>
      </trkpt>
      <trkpt lat="41.52538128197193145751953125" lon="2.13670930825173854827880859375">
        <ele>101.1999969482421875</ele>
        <time>2022-01-07T08:26:13.000Z</time>
      </trkpt>
      <trkpt lat="41.525368876755237579345703125" lon="2.13674635626375675201416015625">
        <ele>101.1999969482421875</ele>
        <time>2022-01-07T08:26:14.000Z</time>
      </trkpt>
      <trkpt lat="41.52535848319530487060546875" lon="2.13678826577961444854736328125">
        <ele>101.1999969482421875</ele>
        <time>2022-01-07T08:26:15.000Z</time>
      </trkpt>
      <trkpt lat="41.5253479219973087310791015625" lon="2.13682673871517181396484375">
        <ele>101</ele>
        <time>2022-01-07T08:26:16.000Z</time>
      </trkpt>
      <trkpt lat="41.525335349142551422119140625" lon="2.1368621103465557098388671875">
        <ele>101</ele>
        <time>2022-01-07T08:26:17.000Z</time>
      </trkpt>
      <trkpt lat="41.5253244526684284210205078125" lon="2.1368929557502269744873046875">
        <ele>101</ele>
        <time>2022-01-07T08:26:18.000Z</time>
      </trkpt>
      <trkpt lat="41.52531682513654232025146484375" lon="2.136918939650058746337890625">
        <ele>101</ele>
        <time>2022-01-07T08:26:19.000Z</time>
      </trkpt>
      <trkpt lat="41.5253110416233539581298828125" lon="2.1369425766170024871826171875">
        <ele>101</ele>
        <time>2022-01-07T08:26:20.000Z</time>
      </trkpt>
      <trkpt lat="41.5253063477575778961181640625" lon="2.1369683928787708282470703125">
        <ele>101</ele>
        <time>2022-01-07T08:26:21.000Z</time>
      </trkpt>
      <trkpt lat="41.52530626393854618072509765625" lon="2.1369992382824420928955078125">
        <ele>101</ele>
        <time>2022-01-07T08:26:22.000Z</time>
      </trkpt>
      <trkpt lat="41.52530492283403873443603515625" lon="2.13703603483736515045166015625">
        <ele>101</ele>
        <time>2022-01-07T08:26:23.000Z</time>
      </trkpt>
      <trkpt lat="41.5253100357949733734130859375" lon="2.13708288967609405517578125">
        <ele>101</ele>
        <time>2022-01-07T08:26:24.000Z</time>
      </trkpt>
      <trkpt lat="41.5253095328807830810546875" lon="2.13712404482066631317138671875">
        <ele>101</ele>
        <time>2022-01-07T08:26:25.000Z</time>
      </trkpt>
      <trkpt lat="41.5252922661602497100830078125" lon="2.137179113924503326416015625">
        <ele>101</ele>
        <time>2022-01-07T08:26:26.000Z</time>
      </trkpt>
      <trkpt lat="41.525256894528865814208984375" lon="2.13723133318126201629638671875">
        <ele>101</ele>
        <time>2022-01-07T08:26:27.000Z</time>
      </trkpt>
      <trkpt lat="41.5252134762704372406005859375" lon="2.1372594125568866729736328125">
        <ele>101</ele>
        <time>2022-01-07T08:26:28.000Z</time>
      </trkpt>
      <trkpt lat="41.52517735026776790618896484375" lon="2.13727869093418121337890625">
        <ele>101</ele>
        <time>2022-01-07T08:26:29.000Z</time>
      </trkpt>
      <trkpt lat="41.52513359673321247100830078125" lon="2.13730492629110813140869140625">
        <ele>101</ele>
        <time>2022-01-07T08:26:30.000Z</time>
      </trkpt>
      <trkpt lat="41.52509420178830623626708984375" lon="2.1373351849615573883056640625">
        <ele>100.8000030517578125</ele>
        <time>2022-01-07T08:26:31.000Z</time>
      </trkpt>
      <trkpt lat="41.52506100945174694061279296875" lon="2.13736644946038722991943359375">
        <ele>100.8000030517578125</ele>
        <time>2022-01-07T08:26:32.000Z</time>
      </trkpt>
      <trkpt lat="41.5250260569155216217041015625" lon="2.13740852661430835723876953125">
        <ele>100.8000030517578125</ele>
        <time>2022-01-07T08:26:33.000Z</time>
      </trkpt>
      <trkpt lat="41.52500686235725879669189453125" lon="2.13744188658893108367919921875">
        <ele>100.40000152587890625</ele>
        <time>2022-01-07T08:26:34.000Z</time>
      </trkpt>
      <trkpt lat="41.52498356066644191741943359375" lon="2.1374890767037868499755859375">
        <ele>100.1999969482421875</ele>
        <time>2022-01-07T08:26:35.000Z</time>
      </trkpt>
      <trkpt lat="41.5249573253095149993896484375" lon="2.1375460736453533172607421875">
        <ele>100.1999969482421875</ele>
        <time>2022-01-07T08:26:36.000Z</time>
      </trkpt>
      <trkpt lat="41.5249375440180301666259765625" lon="2.13757909834384918212890625">
        <ele>99.8000030517578125</ele>
        <time>2022-01-07T08:26:37.000Z</time>
      </trkpt>
      <trkpt lat="41.524908877909183502197265625" lon="2.13762729428708553314208984375">
        <ele>99.40000152587890625</ele>
        <time>2022-01-07T08:26:38.000Z</time>
      </trkpt>
      <trkpt lat="41.52488968335092067718505859375" lon="2.137659229338169097900390625">
        <ele>99</ele>
        <time>2022-01-07T08:26:39.000Z</time>
      </trkpt>
      <trkpt lat="41.524867303669452667236328125" lon="2.1377003006637096405029296875">
        <ele>98.8000030517578125</ele>
        <time>2022-01-07T08:26:40.000Z</time>
      </trkpt>
      <trkpt lat="41.5248403139412403106689453125" lon="2.13775000534951686859130859375">
        <ele>98.8000030517578125</ele>
        <time>2022-01-07T08:26:41.000Z</time>
      </trkpt>
      <trkpt lat="41.52481734752655029296875" lon="2.1377948485314846038818359375">
        <ele>98.59999847412109375</ele>
        <time>2022-01-07T08:26:42.000Z</time>
      </trkpt>
      <trkpt lat="41.524798572063446044921875" lon="2.13783256709575653076171875">
        <ele>98.59999847412109375</ele>
        <time>2022-01-07T08:26:43.000Z</time>
      </trkpt>
      <trkpt lat="41.5247745998203754425048828125" lon="2.13788042776286602020263671875">
        <ele>98.40000152587890625</ele>
        <time>2022-01-07T08:26:44.000Z</time>
      </trkpt>
      <trkpt lat="41.52474920265376567840576171875" lon="2.1379319764673709869384765625">
        <ele>98.40000152587890625</ele>
        <time>2022-01-07T08:26:45.000Z</time>
      </trkpt>
      <trkpt lat="41.5247222967445850372314453125" lon="2.1379785798490047454833984375">
        <ele>98.40000152587890625</ele>
        <time>2022-01-07T08:26:46.000Z</time>
      </trkpt>
      <trkpt lat="41.52469807304441928863525390625" lon="2.1380208246409893035888671875">
        <ele>98.1999969482421875</ele>
        <time>2022-01-07T08:26:47.000Z</time>
      </trkpt>
      <trkpt lat="41.524671502411365509033203125" lon="2.1380677632987499237060546875">
        <ele>98.1999969482421875</ele>
        <time>2022-01-07T08:26:48.000Z</time>
      </trkpt>
      <trkpt lat="41.52465230785310268402099609375" lon="2.13809701614081859588623046875">
        <ele>98.1999969482421875</ele>
        <time>2022-01-07T08:26:49.000Z</time>
      </trkpt>
      <trkpt lat="41.524629257619380950927734375" lon="2.1381354890763759613037109375">
        <ele>98.1999969482421875</ele>
        <time>2022-01-07T08:26:50.000Z</time>
      </trkpt>
      <trkpt lat="41.52460335753858089447021484375" lon="2.1381753869354724884033203125">
        <ele>98.1999969482421875</ele>
        <time>2022-01-07T08:26:51.000Z</time>
      </trkpt>
      <trkpt lat="41.52457393705844879150390625" lon="2.1382256783545017242431640625">
        <ele>98</ele>
        <time>2022-01-07T08:26:52.000Z</time>
      </trkpt>
      <trkpt lat="41.5245496295392513275146484375" lon="2.138264738023281097412109375">
        <ele>98</ele>
        <time>2022-01-07T08:26:53.000Z</time>
      </trkpt>
      <trkpt lat="41.5245291776955127716064453125" lon="2.1382947452366352081298828125">
        <ele>98</ele>
        <time>2022-01-07T08:26:54.000Z</time>
      </trkpt>
      <trkpt lat="41.5245036967098712921142578125" lon="2.13833288289606571197509765625">
        <ele>98</ele>
        <time>2022-01-07T08:26:55.000Z</time>
      </trkpt>
      <trkpt lat="41.52447913773357868194580078125" lon="2.13836791925132274627685546875">
        <ele>97.8000030517578125</ele>
        <time>2022-01-07T08:26:56.000Z</time>
      </trkpt>
      <trkpt lat="41.52444946579635143280029296875" lon="2.13840563781559467315673828125">
        <ele>97.8000030517578125</ele>
        <time>2022-01-07T08:26:57.000Z</time>
      </trkpt>
      <trkpt lat="41.5244269184768199920654296875" lon="2.13843782432377338409423828125">
        <ele>97.8000030517578125</ele>
        <time>2022-01-07T08:26:58.000Z</time>
      </trkpt>
      <trkpt lat="41.5244034491479396820068359375" lon="2.13846045546233654022216796875">
        <ele>97.8000030517578125</ele>
        <time>2022-01-07T08:26:59.000Z</time>
      </trkpt>
      <trkpt lat="41.52437553741037845611572265625" lon="2.1384918875992298126220703125">
        <ele>97.8000030517578125</ele>
        <time>2022-01-07T08:27:00.000Z</time>
      </trkpt>
      <trkpt lat="41.52434838004410266876220703125" lon="2.138528265058994293212890625">
        <ele>97.8000030517578125</ele>
        <time>2022-01-07T08:27:01.000Z</time>
      </trkpt>
      <trkpt lat="41.524321138858795166015625" lon="2.13857595808804035186767578125">
        <ele>97.8000030517578125</ele>
        <time>2022-01-07T08:27:02.000Z</time>
      </trkpt>
      <trkpt lat="41.524299345910549163818359375" lon="2.13861786760389804840087890625">
        <ele>97.8000030517578125</ele>
        <time>2022-01-07T08:27:03.000Z</time>
      </trkpt>
      <trkpt lat="41.52427713386714458465576171875" lon="2.13866530917584896087646484375">
        <ele>97.8000030517578125</ele>
        <time>2022-01-07T08:27:04.000Z</time>
      </trkpt>
      <trkpt lat="41.52426037006080150604248046875" lon="2.13869665749371051788330078125">
        <ele>97.59999847412109375</ele>
        <time>2022-01-07T08:27:05.000Z</time>
      </trkpt>
      <trkpt lat="41.524236313998699188232421875" lon="2.13874183595180511474609375">
        <ele>97.59999847412109375</ele>
        <time>2022-01-07T08:27:06.000Z</time>
      </trkpt>
      <trkpt lat="41.5242150239646434783935546875" lon="2.13878475129604339599609375">
        <ele>97.59999847412109375</ele>
        <time>2022-01-07T08:27:07.000Z</time>
      </trkpt>
      <trkpt lat="41.5241937339305877685546875" lon="2.13882900774478912353515625">
        <ele>97.59999847412109375</ele>
        <time>2022-01-07T08:27:08.000Z</time>
      </trkpt>
      <trkpt lat="41.524173282086849212646484375" lon="2.1388779580593109130859375">
        <ele>97.59999847412109375</ele>
        <time>2022-01-07T08:27:09.000Z</time>
      </trkpt>
      <trkpt lat="41.524155177175998687744140625" lon="2.13892288506031036376953125">
        <ele>97.59999847412109375</ele>
        <time>2022-01-07T08:27:10.000Z</time>
      </trkpt>
      <trkpt lat="41.524128019809722900390625" lon="2.1389726735651493072509765625">
        <ele>97.59999847412109375</ele>
        <time>2022-01-07T08:27:11.000Z</time>
      </trkpt>
      <trkpt lat="41.524099521338939666748046875" lon="2.1390147507190704345703125">
        <ele>97.59999847412109375</ele>
        <time>2022-01-07T08:27:12.000Z</time>
      </trkpt>
      <trkpt lat="41.5240688435733318328857421875" lon="2.13906495831906795501708984375">
        <ele>97.59999847412109375</ele>
        <time>2022-01-07T08:27:13.000Z</time>
      </trkpt>
      <trkpt lat="41.5240457095205783843994140625" lon="2.13910971768200397491455078125">
        <ele>97.59999847412109375</ele>
        <time>2022-01-07T08:27:14.000Z</time>
      </trkpt>
      <trkpt lat="41.5240269340574741363525390625" lon="2.139147184789180755615234375">
        <ele>97.59999847412109375</ele>
        <time>2022-01-07T08:27:15.000Z</time>
      </trkpt>
      <trkpt lat="41.5240014530718326568603515625" lon="2.13920141570270061492919921875">
        <ele>97.40000152587890625</ele>
        <time>2022-01-07T08:27:16.000Z</time>
      </trkpt>
      <trkpt lat="41.52398460544645786285400390625" lon="2.13924550451338291168212890625">
        <ele>97.40000152587890625</ele>
        <time>2022-01-07T08:27:17.000Z</time>
      </trkpt>
      <trkpt lat="41.52396918274462223052978515625" lon="2.139284312725067138671875">
        <ele>97</ele>
        <time>2022-01-07T08:27:18.000Z</time>
      </trkpt>
      <trkpt lat="41.523955352604389190673828125" lon="2.1393149904906749725341796875">
        <ele>97</ele>
        <time>2022-01-07T08:27:19.000Z</time>
      </trkpt>
      <trkpt lat="41.5239380858838558197021484375" lon="2.1393525414168834686279296875">
        <ele>97</ele>
        <time>2022-01-07T08:27:20.000Z</time>
      </trkpt>
      <trkpt lat="41.52391553856432437896728515625" lon="2.13939101435244083404541015625">
        <ele>97</ele>
        <time>2022-01-07T08:27:21.000Z</time>
      </trkpt>
      <trkpt lat="41.52389408089220523834228515625" lon="2.13940559886395931243896484375">
        <ele>97</ele>
        <time>2022-01-07T08:27:22.000Z</time>
      </trkpt>
      <trkpt lat="41.52386005036532878875732421875" lon="2.1394320018589496612548828125">
        <ele>97</ele>
        <time>2022-01-07T08:27:23.000Z</time>
      </trkpt>
      <trkpt lat="41.52382886968553066253662109375" lon="2.13945153169333934783935546875">
        <ele>97</ele>
        <time>2022-01-07T08:27:24.000Z</time>
      </trkpt>
      <trkpt lat="41.52379249222576618194580078125" lon="2.13947785086929798126220703125">
        <ele>97</ele>
        <time>2022-01-07T08:27:25.000Z</time>
      </trkpt>
      <trkpt lat="41.5237567014992237091064453125" lon="2.13950433768332004547119140625">
        <ele>97</ele>
        <time>2022-01-07T08:27:26.000Z</time>
      </trkpt>
      <trkpt lat="41.5237231738865375518798828125" lon="2.139532081782817840576171875">
        <ele>97</ele>
        <time>2022-01-07T08:27:27.000Z</time>
      </trkpt>
      <trkpt lat="41.5236894786357879638671875" lon="2.13956250809133052825927734375">
        <ele>97</ele>
        <time>2022-01-07T08:27:28.000Z</time>
      </trkpt>
      <trkpt lat="41.5236561186611652374267578125" lon="2.13959209620952606201171875">
        <ele>97</ele>
        <time>2022-01-07T08:27:29.000Z</time>
      </trkpt>
      <trkpt lat="41.52362309396266937255859375" lon="2.1396207623183727264404296875">
        <ele>97</ele>
        <time>2022-01-07T08:27:30.000Z</time>
      </trkpt>
      <trkpt lat="41.52358143590390682220458984375" lon="2.1396546252071857452392578125">
        <ele>97</ele>
        <time>2022-01-07T08:27:31.000Z</time>
      </trkpt>
      <trkpt lat="41.52355561964213848114013671875" lon="2.13968002237379550933837890625">
        <ele>97</ele>
        <time>2022-01-07T08:27:32.000Z</time>
      </trkpt>
      <trkpt lat="41.523518152534961700439453125" lon="2.13972084224224090576171875">
        <ele>97</ele>
        <time>2022-01-07T08:27:33.000Z</time>
      </trkpt>
      <trkpt lat="41.5234911628067493438720703125" lon="2.1397464908659458160400390625">
        <ele>97</ele>
        <time>2022-01-07T08:27:34.000Z</time>
      </trkpt>
      <trkpt lat="41.52345838956534862518310546875" lon="2.13977985084056854248046875">
        <ele>97</ele>
        <time>2022-01-07T08:27:35.000Z</time>
      </trkpt>
      <trkpt lat="41.52342318557202816009521484375" lon="2.13981195352971553802490234375">
        <ele>96.8000030517578125</ele>
        <time>2022-01-07T08:27:36.000Z</time>
      </trkpt>
      <trkpt lat="41.5233832038938999176025390625" lon="2.13985629379749298095703125">
        <ele>96.8000030517578125</ele>
        <time>2022-01-07T08:27:37.000Z</time>
      </trkpt>
      <trkpt lat="41.52334841899573802947998046875" lon="2.13989158160984516143798828125">
        <ele>96.8000030517578125</ele>
        <time>2022-01-07T08:27:38.000Z</time>
      </trkpt>
      <trkpt lat="41.5233191661536693572998046875" lon="2.13991756550967693328857421875">
        <ele>96.8000030517578125</ele>
        <time>2022-01-07T08:27:39.000Z</time>
      </trkpt>
      <trkpt lat="41.52328136377036571502685546875" lon="2.13995008729398250579833984375">
        <ele>96.8000030517578125</ele>
        <time>2022-01-07T08:27:40.000Z</time>
      </trkpt>
      <trkpt lat="41.5232363529503345489501953125" lon="2.1399862132966518402099609375">
        <ele>96.8000030517578125</ele>
        <time>2022-01-07T08:27:41.000Z</time>
      </trkpt>
      <trkpt lat="41.523205339908599853515625" lon="2.140008844435214996337890625">
        <ele>96.59999847412109375</ele>
        <time>2022-01-07T08:27:42.000Z</time>
      </trkpt>
      <trkpt lat="41.52315898798406124114990234375" lon="2.14004312641918659210205078125">
        <ele>96.59999847412109375</ele>
        <time>2022-01-07T08:27:43.000Z</time>
      </trkpt>
      <trkpt lat="41.523126550018787384033203125" lon="2.14006550610065460205078125">
        <ele>96.59999847412109375</ele>
        <time>2022-01-07T08:27:44.000Z</time>
      </trkpt>
      <trkpt lat="41.5230895020067691802978515625" lon="2.14009635150432586669921875">
        <ele>96.40000152587890625</ele>
        <time>2022-01-07T08:27:45.000Z</time>
      </trkpt>
      <trkpt lat="41.52304700575768947601318359375" lon="2.1401283703744411468505859375">
        <ele>96.40000152587890625</ele>
        <time>2022-01-07T08:27:46.000Z</time>
      </trkpt>
      <trkpt lat="41.5230110473930835723876953125" lon="2.1401561982929706573486328125">
        <ele>96.40000152587890625</ele>
        <time>2022-01-07T08:27:47.000Z</time>
      </trkpt>
      <trkpt lat="41.52297492139041423797607421875" lon="2.14018628932535648345947265625">
        <ele>96.1999969482421875</ele>
        <time>2022-01-07T08:27:48.000Z</time>
      </trkpt>
      <trkpt lat="41.5229456685483455657958984375" lon="2.1402061544358730316162109375">
        <ele>96.1999969482421875</ele>
        <time>2022-01-07T08:27:49.000Z</time>
      </trkpt>
      <trkpt lat="41.52290602214634418487548828125" lon="2.14022635482251644134521484375">
        <ele>96.1999969482421875</ele>
        <time>2022-01-07T08:27:50.000Z</time>
      </trkpt>
      <trkpt lat="41.5228652022778987884521484375" lon="2.1402477286756038665771484375">
        <ele>96.1999969482421875</ele>
        <time>2022-01-07T08:27:51.000Z</time>
      </trkpt>
      <trkpt lat="41.5228185988962650299072265625" lon="2.1402732096612453460693359375">
        <ele>96.1999969482421875</ele>
        <time>2022-01-07T08:27:52.000Z</time>
      </trkpt>
      <trkpt lat="41.52277861721813678741455078125" lon="2.1402950026094913482666015625">
        <ele>96.1999969482421875</ele>
        <time>2022-01-07T08:27:53.000Z</time>
      </trkpt>
      <trkpt lat="41.5227391384541988372802734375" lon="2.1403201483190059661865234375">
        <ele>96.1999969482421875</ele>
        <time>2022-01-07T08:27:54.000Z</time>
      </trkpt>
      <trkpt lat="41.52270468883216381072998046875" lon="2.1403392590582370758056640625">
        <ele>96.1999969482421875</ele>
        <time>2022-01-07T08:27:55.000Z</time>
      </trkpt>
      <trkpt lat="41.52266026474535465240478515625" lon="2.14036314748227596282958984375">
        <ele>96.1999969482421875</ele>
        <time>2022-01-07T08:27:56.000Z</time>
      </trkpt>
      <trkpt lat="41.52261014096438884735107421875" lon="2.14039298705756664276123046875">
        <ele>96.1999969482421875</ele>
        <time>2022-01-07T08:27:57.000Z</time>
      </trkpt>
      <trkpt lat="41.522569321095943450927734375" lon="2.14041511528193950653076171875">
        <ele>96.1999969482421875</ele>
        <time>2022-01-07T08:27:58.000Z</time>
      </trkpt>
      <trkpt lat="41.52252783067524433135986328125" lon="2.1404363214969635009765625">
        <ele>96.1999969482421875</ele>
        <time>2022-01-07T08:27:59.000Z</time>
      </trkpt>
      <trkpt lat="41.52249631471931934356689453125" lon="2.1404522471129894256591796875">
        <ele>96</ele>
        <time>2022-01-07T08:28:00.000Z</time>
      </trkpt>
      <trkpt lat="41.522446610033512115478515625" lon="2.14047781191766262054443359375">
        <ele>96</ele>
        <time>2022-01-07T08:28:01.000Z</time>
      </trkpt>
      <trkpt lat="41.52240294031798839569091796875" lon="2.14049876667559146881103515625">
        <ele>95.8000030517578125</ele>
        <time>2022-01-07T08:28:02.000Z</time>
      </trkpt>
      <trkpt lat="41.522360108792781829833984375" lon="2.14051770977675914764404296875">
        <ele>95.8000030517578125</ele>
        <time>2022-01-07T08:28:03.000Z</time>
      </trkpt>
      <trkpt lat="41.5223190374672412872314453125" lon="2.14053983800113201141357421875">
        <ele>95.8000030517578125</ele>
        <time>2022-01-07T08:28:04.000Z</time>
      </trkpt>
      <trkpt lat="41.5222875215113162994384765625" lon="2.14055676944553852081298828125">
        <ele>95.8000030517578125</ele>
        <time>2022-01-07T08:28:05.000Z</time>
      </trkpt>
      <trkpt lat="41.522248126566410064697265625" lon="2.140579484403133392333984375">
        <ele>95.8000030517578125</ele>
        <time>2022-01-07T08:28:06.000Z</time>
      </trkpt>
      <trkpt lat="41.52220630086958408355712890625" lon="2.14060270227491855621337890625">
        <ele>95.8000030517578125</ele>
        <time>2022-01-07T08:28:07.000Z</time>
      </trkpt>
      <trkpt lat="41.52216590009629726409912109375" lon="2.1406242437660694122314453125">
        <ele>95.8000030517578125</ele>
        <time>2022-01-07T08:28:08.000Z</time>
      </trkpt>
      <trkpt lat="41.52212440967559814453125" lon="2.140646539628505706787109375">
        <ele>95.59999847412109375</ele>
        <time>2022-01-07T08:28:09.000Z</time>
      </trkpt>
      <trkpt lat="41.522083841264247894287109375" lon="2.140666656196117401123046875">
        <ele>95.59999847412109375</ele>
        <time>2022-01-07T08:28:10.000Z</time>
      </trkpt>
      <trkpt lat="41.522043608129024505615234375" lon="2.1406882815062999725341796875">
        <ele>95.59999847412109375</ele>
        <time>2022-01-07T08:28:11.000Z</time>
      </trkpt>
      <trkpt lat="41.5220015309751033782958984375" lon="2.1407087333500385284423828125">
        <ele>95.59999847412109375</ele>
        <time>2022-01-07T08:28:12.000Z</time>
      </trkpt>
      <trkpt lat="41.52194880880415439605712890625" lon="2.140732705593109130859375">
        <ele>95.59999847412109375</ele>
        <time>2022-01-07T08:28:13.000Z</time>
      </trkpt>
      <trkpt lat="41.5219022892415523529052734375" lon="2.14075072668492794036865234375">
        <ele>95.59999847412109375</ele>
        <time>2022-01-07T08:28:14.000Z</time>
      </trkpt>
      <trkpt lat="41.5218684263527393341064453125" lon="2.14076346717774868011474609375">
        <ele>95.59999847412109375</ele>
        <time>2022-01-07T08:28:15.000Z</time>
      </trkpt>
      <trkpt lat="41.52182559482753276824951171875" lon="2.14078257791697978973388671875">
        <ele>95.59999847412109375</ele>
        <time>2022-01-07T08:28:16.000Z</time>
      </trkpt>
      <trkpt lat="41.5217829309403896331787109375" lon="2.14080512523651123046875">
        <ele>95.59999847412109375</ele>
        <time>2022-01-07T08:28:17.000Z</time>
      </trkpt>
      <trkpt lat="41.52173079550266265869140625" lon="2.14082733727991580963134765625">
        <ele>95.40000152587890625</ele>
        <time>2022-01-07T08:28:18.000Z</time>
      </trkpt>
      <trkpt lat="41.5216883830726146697998046875" lon="2.1408421732485294342041015625">
        <ele>95.40000152587890625</ele>
        <time>2022-01-07T08:28:19.000Z</time>
      </trkpt>
      <trkpt lat="41.52165410108864307403564453125" lon="2.14085198007524013519287109375">
        <ele>95.40000152587890625</ele>
        <time>2022-01-07T08:28:20.000Z</time>
      </trkpt>
      <trkpt lat="41.52161017991602420806884765625" lon="2.14086472056806087493896484375">
        <ele>95.40000152587890625</ele>
        <time>2022-01-07T08:28:21.000Z</time>
      </trkpt>
      <trkpt lat="41.521565504372119903564453125" lon="2.14087645523250102996826171875">
        <ele>95.1999969482421875</ele>
        <time>2022-01-07T08:28:22.000Z</time>
      </trkpt>
      <trkpt lat="41.52151009999215602874755859375" lon="2.14088785462081432342529296875">
        <ele>95.1999969482421875</ele>
        <time>2022-01-07T08:28:23.000Z</time>
      </trkpt>
      <trkpt lat="41.52146299369633197784423828125" lon="2.14089673943817615509033203125">
        <ele>95</ele>
        <time>2022-01-07T08:28:24.000Z</time>
      </trkpt>
      <trkpt lat="41.5214255265891551971435546875" lon="2.1409052051603794097900390625">
        <ele>94.8000030517578125</ele>
        <time>2022-01-07T08:28:25.000Z</time>
      </trkpt>
      <trkpt lat="41.52137800119817256927490234375" lon="2.14091417379677295684814453125">
        <ele>94.8000030517578125</ele>
        <time>2022-01-07T08:28:26.000Z</time>
      </trkpt>
      <trkpt lat="41.52132033370435237884521484375" lon="2.14092389680445194244384765625">
        <ele>94.8000030517578125</ele>
        <time>2022-01-07T08:28:27.000Z</time>
      </trkpt>
      <trkpt lat="41.5212723053991794586181640625" lon="2.1409350447356700897216796875">
        <ele>94.59999847412109375</ele>
        <time>2022-01-07T08:28:28.000Z</time>
      </trkpt>
      <trkpt lat="41.52123190462589263916015625" lon="2.14094133116304874420166015625">
        <ele>94.59999847412109375</ele>
        <time>2022-01-07T08:28:29.000Z</time>
      </trkpt>
      <trkpt lat="41.52118303813040256500244140625" lon="2.14094795286655426025390625">
        <ele>94.59999847412109375</ele>
        <time>2022-01-07T08:28:30.000Z</time>
      </trkpt>
      <trkpt lat="41.52112570591270923614501953125" lon="2.140952646732330322265625">
        <ele>94.59999847412109375</ele>
        <time>2022-01-07T08:28:31.000Z</time>
      </trkpt>
      <trkpt lat="41.52107826434075832366943359375" lon="2.1409585140645503997802734375">
        <ele>94.59999847412109375</ele>
        <time>2022-01-07T08:28:32.000Z</time>
      </trkpt>
      <trkpt lat="41.5210295654833316802978515625" lon="2.14096832089126110076904296875">
        <ele>94.59999847412109375</ele>
        <time>2022-01-07T08:28:33.000Z</time>
      </trkpt>
      <trkpt lat="41.520992182195186614990234375" lon="2.1409754455089569091796875">
        <ele>94.59999847412109375</ele>
        <time>2022-01-07T08:28:34.000Z</time>
      </trkpt>
      <trkpt lat="41.52094767428934574127197265625" lon="2.1409769542515277862548828125">
        <ele>94.59999847412109375</ele>
        <time>2022-01-07T08:28:35.000Z</time>
      </trkpt>
      <trkpt lat="41.520904339849948883056640625" lon="2.1409729309380054473876953125">
        <ele>94.59999847412109375</ele>
        <time>2022-01-07T08:28:36.000Z</time>
      </trkpt>
      <trkpt lat="41.52085212059319019317626953125" lon="2.14096312411129474639892578125">
        <ele>94.59999847412109375</ele>
        <time>2022-01-07T08:28:37.000Z</time>
      </trkpt>
      <trkpt lat="41.52080836705863475799560546875" lon="2.1409524790942668914794921875">
        <ele>94.59999847412109375</ele>
        <time>2022-01-07T08:28:38.000Z</time>
      </trkpt>
      <trkpt lat="41.52077215723693370819091796875" lon="2.14094317518174648284912109375">
        <ele>94.59999847412109375</ele>
        <time>2022-01-07T08:28:39.000Z</time>
      </trkpt>
      <trkpt lat="41.52072555385529994964599609375" lon="2.14093043468892574310302734375">
        <ele>94.59999847412109375</ele>
        <time>2022-01-07T08:28:40.000Z</time>
      </trkpt>
      <trkpt lat="41.5206719934940338134765625" lon="2.14091970585286617279052734375">
        <ele>94.59999847412109375</ele>
        <time>2022-01-07T08:28:41.000Z</time>
      </trkpt>
      <trkpt lat="41.52062647975981235504150390625" lon="2.14090864174067974090576171875">
        <ele>94.59999847412109375</ele>
        <time>2022-01-07T08:28:42.000Z</time>
      </trkpt>
      <trkpt lat="41.52058188803493976593017578125" lon="2.14089699089527130126953125">
        <ele>94.59999847412109375</ele>
        <time>2022-01-07T08:28:43.000Z</time>
      </trkpt>
      <trkpt lat="41.52054416947066783905029296875" lon="2.14088626205921173095703125">
        <ele>94.59999847412109375</ele>
        <time>2022-01-07T08:28:44.000Z</time>
      </trkpt>
      <trkpt lat="41.52049706317484378814697265625" lon="2.14087410829961299896240234375">
        <ele>94.59999847412109375</ele>
        <time>2022-01-07T08:28:45.000Z</time>
      </trkpt>
      <trkpt lat="41.5204388089478015899658203125" lon="2.14086002670228481292724609375">
        <ele>94.59999847412109375</ele>
        <time>2022-01-07T08:28:46.000Z</time>
      </trkpt>
      <trkpt lat="41.52038709260523319244384765625" lon="2.1408472023904323577880859375">
        <ele>94.40000152587890625</ele>
        <time>2022-01-07T08:28:47.000Z</time>
      </trkpt>
      <trkpt lat="41.52033629827201366424560546875" lon="2.140835635364055633544921875">
        <ele>94.40000152587890625</ele>
        <time>2022-01-07T08:28:48.000Z</time>
      </trkpt>
      <trkpt lat="41.52029422111809253692626953125" lon="2.1408212184906005859375">
        <ele>94.40000152587890625</ele>
        <time>2022-01-07T08:28:49.000Z</time>
      </trkpt>
      <trkpt lat="41.52024242095649242401123046875" lon="2.14080118574202060699462890625">
        <ele>94.40000152587890625</ele>
        <time>2022-01-07T08:28:50.000Z</time>
      </trkpt>
      <trkpt lat="41.52018450200557708740234375" lon="2.1407741121947765350341796875">
        <ele>94.40000152587890625</ele>
        <time>2022-01-07T08:28:51.000Z</time>
      </trkpt>
      <trkpt lat="41.5201390720903873443603515625" lon="2.140748463571071624755859375">
        <ele>94.40000152587890625</ele>
        <time>2022-01-07T08:28:52.000Z</time>
      </trkpt>
      <trkpt lat="41.52009355835616588592529296875" lon="2.1407231502234935760498046875">
        <ele>94.40000152587890625</ele>
        <time>2022-01-07T08:28:53.000Z</time>
      </trkpt>
      <trkpt lat="41.5200559236109256744384765625" lon="2.140703536570072174072265625">
        <ele>94.40000152587890625</ele>
        <time>2022-01-07T08:28:54.000Z</time>
      </trkpt>
      <trkpt lat="41.52001015841960906982421875" lon="2.1406788937747478485107421875">
        <ele>94.1999969482421875</ele>
        <time>2022-01-07T08:28:55.000Z</time>
      </trkpt>
      <trkpt lat="41.51995408348739147186279296875" lon="2.14064729399979114532470703125">
        <ele>94.1999969482421875</ele>
        <time>2022-01-07T08:28:56.000Z</time>
      </trkpt>
      <trkpt lat="41.5199057199060916900634765625" lon="2.14062131009995937347412109375">
        <ele>94.1999969482421875</ele>
        <time>2022-01-07T08:28:57.000Z</time>
      </trkpt>
      <trkpt lat="41.51985727250576019287109375" lon="2.1405972540378570556640625">
        <ele>94.1999969482421875</ele>
        <time>2022-01-07T08:28:58.000Z</time>
      </trkpt>
      <trkpt lat="41.519818045198917388916015625" lon="2.14057705365121364593505859375">
        <ele>94</ele>
        <time>2022-01-07T08:28:59.000Z</time>
      </trkpt>
      <trkpt lat="41.519768424332141876220703125" lon="2.140554673969745635986328125">
        <ele>94</ele>
        <time>2022-01-07T08:29:00.000Z</time>
      </trkpt>
      <trkpt lat="41.51970916427671909332275390625" lon="2.14052684605121612548828125">
        <ele>93.8000030517578125</ele>
        <time>2022-01-07T08:29:01.000Z</time>
      </trkpt>
      <trkpt lat="41.51966147124767303466796875" lon="2.14050044305622577667236328125">
        <ele>93.8000030517578125</ele>
        <time>2022-01-07T08:29:02.000Z</time>
      </trkpt>
      <trkpt lat="41.51961361058056354522705078125" lon="2.1404737047851085662841796875">
        <ele>93.8000030517578125</ele>
        <time>2022-01-07T08:29:03.000Z</time>
      </trkpt>
      <trkpt lat="41.5195754729211330413818359375" lon="2.14045383967459201812744140625">
        <ele>93.8000030517578125</ele>
        <time>2022-01-07T08:29:04.000Z</time>
      </trkpt>
      <trkpt lat="41.51952610351145267486572265625" lon="2.14042852632701396942138671875">
        <ele>93.8000030517578125</ele>
        <time>2022-01-07T08:29:05.000Z</time>
      </trkpt>
      <trkpt lat="41.519466005265712738037109375" lon="2.14039885438978672027587890625">
        <ele>93.59999847412109375</ele>
        <time>2022-01-07T08:29:06.000Z</time>
      </trkpt>
      <trkpt lat="41.51941604912281036376953125" lon="2.14037555269896984100341796875">
        <ele>93.59999847412109375</ele>
        <time>2022-01-07T08:29:07.000Z</time>
      </trkpt>
      <trkpt lat="41.51937782764434814453125" lon="2.14035677723586559295654296875">
        <ele>93.40000152587890625</ele>
        <time>2022-01-07T08:29:08.000Z</time>
      </trkpt>
      <trkpt lat="41.51932912878692150115966796875" lon="2.140330374240875244140625">
        <ele>93.40000152587890625</ele>
        <time>2022-01-07T08:29:09.000Z</time>
      </trkpt>
      <trkpt lat="41.51928068138659000396728515625" lon="2.14030288159847259521484375">
        <ele>93.40000152587890625</ele>
        <time>2022-01-07T08:29:10.000Z</time>
      </trkpt>
      <trkpt lat="41.51922167278826236724853515625" lon="2.1402673423290252685546875">
        <ele>93.40000152587890625</ele>
        <time>2022-01-07T08:29:11.000Z</time>
      </trkpt>
      <trkpt lat="41.51917037554085254669189453125" lon="2.14023859240114688873291015625">
        <ele>93.1999969482421875</ele>
        <time>2022-01-07T08:29:12.000Z</time>
      </trkpt>
      <trkpt lat="41.51912192814052104949951171875" lon="2.14021143503487110137939453125">
        <ele>93.1999969482421875</ele>
        <time>2022-01-07T08:29:13.000Z</time>
      </trkpt>
      <trkpt lat="41.51908345520496368408203125" lon="2.1401907317340373992919921875">
        <ele>93.1999969482421875</ele>
        <time>2022-01-07T08:29:14.000Z</time>
      </trkpt>
      <trkpt lat="41.5190353430807590484619140625" lon="2.14016583748161792755126953125">
        <ele>93</ele>
        <time>2022-01-07T08:29:15.000Z</time>
      </trkpt>
      <trkpt lat="41.51897474192082881927490234375" lon="2.1401384286582469940185546875">
        <ele>93</ele>
        <time>2022-01-07T08:29:16.000Z</time>
      </trkpt>
      <trkpt lat="41.51892461813986301422119140625" lon="2.14011319912970066070556640625">
        <ele>93</ele>
        <time>2022-01-07T08:29:17.000Z</time>
      </trkpt>
      <trkpt lat="41.51887449435889720916748046875" lon="2.140088640153408050537109375">
        <ele>93</ele>
        <time>2022-01-07T08:29:18.000Z</time>
      </trkpt>
      <trkpt lat="41.51883660815656185150146484375" lon="2.14006994850933551788330078125">
        <ele>92.8000030517578125</ele>
        <time>2022-01-07T08:29:19.000Z</time>
      </trkpt>
      <trkpt lat="41.51879168115556240081787109375" lon="2.1400442160665988922119140625">
        <ele>92.8000030517578125</ele>
        <time>2022-01-07T08:29:20.000Z</time>
      </trkpt>
      <trkpt lat="41.518737114965915679931640625" lon="2.14001295156776905059814453125">
        <ele>92.59999847412109375</ele>
        <time>2022-01-07T08:29:21.000Z</time>
      </trkpt>
      <trkpt lat="41.51869227178394794464111328125" lon="2.13998897932469844818115234375">
        <ele>92.40000152587890625</ele>
        <time>2022-01-07T08:29:22.000Z</time>
      </trkpt>
      <trkpt lat="41.51864818297326564788818359375" lon="2.13996802456676959991455078125">
        <ele>92.40000152587890625</ele>
        <time>2022-01-07T08:29:23.000Z</time>
      </trkpt>
      <trkpt lat="41.51861297897994518280029296875" lon="2.13995662517845630645751953125">
        <ele>92.1999969482421875</ele>
        <time>2022-01-07T08:29:24.000Z</time>
      </trkpt>
      <trkpt lat="41.51856805197894573211669921875" lon="2.13995419442653656005859375">
        <ele>92.1999969482421875</ele>
        <time>2022-01-07T08:29:25.000Z</time>
      </trkpt>
      <trkpt lat="41.51851759292185306549072265625" lon="2.13996081613004207611083984375">
        <ele>92</ele>
        <time>2022-01-07T08:29:26.000Z</time>
      </trkpt>
      <trkpt lat="41.51847467757761478424072265625" lon="2.139967270195484161376953125">
        <ele>92</ele>
        <time>2022-01-07T08:29:27.000Z</time>
      </trkpt>
      <trkpt lat="41.51843410916626453399658203125" lon="2.13997070677578449249267578125">
        <ele>92</ele>
        <time>2022-01-07T08:29:28.000Z</time>
      </trkpt>
      <trkpt lat="41.51840259321033954620361328125" lon="2.139965593814849853515625">
        <ele>92</ele>
        <time>2022-01-07T08:29:29.000Z</time>
      </trkpt>
      <trkpt lat="41.51835699565708637237548828125" lon="2.13993734680116176605224609375">
        <ele>92</ele>
        <time>2022-01-07T08:29:30.000Z</time>
      </trkpt>
      <trkpt lat="41.51832413859665393829345703125" lon="2.139890156686305999755859375">
        <ele>92</ele>
        <time>2022-01-07T08:29:31.000Z</time>
      </trkpt>
      <trkpt lat="41.5182957239449024200439453125" lon="2.13985017500817775726318359375">
        <ele>92</ele>
        <time>2022-01-07T08:29:32.000Z</time>
      </trkpt>
      <trkpt lat="41.51825373061001300811767578125" lon="2.139803655445575714111328125">
        <ele>91.8000030517578125</ele>
        <time>2022-01-07T08:29:33.000Z</time>
      </trkpt>
      <trkpt lat="41.5182078815996646881103515625" lon="2.13976442813873291015625">
        <ele>91.8000030517578125</ele>
        <time>2022-01-07T08:29:34.000Z</time>
      </trkpt>
      <trkpt lat="41.51816102676093578338623046875" lon="2.13973232544958591461181640625">
        <ele>91.8000030517578125</ele>
        <time>2022-01-07T08:29:35.000Z</time>
      </trkpt>
      <trkpt lat="41.5181064605712890625" lon="2.13969544507563114166259765625">
        <ele>91.8000030517578125</ele>
        <time>2022-01-07T08:29:36.000Z</time>
      </trkpt>
      <trkpt lat="41.51806044392287731170654296875" lon="2.13966392911970615386962890625">
        <ele>91.8000030517578125</ele>
        <time>2022-01-07T08:29:37.000Z</time>
      </trkpt>
      <trkpt lat="41.5180231444537639617919921875" lon="2.13963828049600124359130859375">
        <ele>91.8000030517578125</ele>
        <time>2022-01-07T08:29:38.000Z</time>
      </trkpt>
      <trkpt lat="41.51797880418598651885986328125" lon="2.13960827328264713287353515625">
        <ele>91.8000030517578125</ele>
        <time>2022-01-07T08:29:39.000Z</time>
      </trkpt>
      <trkpt lat="41.5179227292537689208984375" lon="2.13957541622221469879150390625">
        <ele>91.8000030517578125</ele>
        <time>2022-01-07T08:29:40.000Z</time>
      </trkpt>
      <trkpt lat="41.51787319220602512359619140625" lon="2.1395520307123661041259765625">
        <ele>91.59999847412109375</ele>
        <time>2022-01-07T08:29:41.000Z</time>
      </trkpt>
      <trkpt lat="41.51782323606312274932861328125" lon="2.13953132741153240203857421875">
        <ele>91.40000152587890625</ele>
        <time>2022-01-07T08:29:42.000Z</time>
      </trkpt>
      <trkpt lat="41.51778350584208965301513671875" lon="2.13951372541487216949462890625">
        <ele>91.40000152587890625</ele>
        <time>2022-01-07T08:29:43.000Z</time>
      </trkpt>
      <trkpt lat="41.51773405261337757110595703125" lon="2.1394893340766429901123046875">
        <ele>91.40000152587890625</ele>
        <time>2022-01-07T08:29:44.000Z</time>
      </trkpt>
      <trkpt lat="41.51767470873892307281494140625" lon="2.13945865631103515625">
        <ele>91.1999969482421875</ele>
        <time>2022-01-07T08:29:45.000Z</time>
      </trkpt>
      <trkpt lat="41.5176238305866718292236328125" lon="2.139433510601520538330078125">
        <ele>91.1999969482421875</ele>
        <time>2022-01-07T08:29:46.000Z</time>
      </trkpt>
      <trkpt lat="41.51757379062473773956298828125" lon="2.13941213674843311309814453125">
        <ele>91.1999969482421875</ele>
        <time>2022-01-07T08:29:47.000Z</time>
      </trkpt>
      <trkpt lat="41.5175230801105499267578125" lon="2.13939168490469455718994140625">
        <ele>91</ele>
        <time>2022-01-07T08:29:48.000Z</time>
      </trkpt>
      <trkpt lat="41.51748259551823139190673828125" lon="2.13937475346028804779052734375">
        <ele>91</ele>
        <time>2022-01-07T08:29:49.000Z</time>
      </trkpt>
      <trkpt lat="41.5174216590821743011474609375" lon="2.13935069739818572998046875">
        <ele>91</ele>
        <time>2022-01-07T08:29:50.000Z</time>
      </trkpt>
      <trkpt lat="41.51737245731055736541748046875" lon="2.139334268867969512939453125">
        <ele>91</ele>
        <time>2022-01-07T08:29:51.000Z</time>
      </trkpt>
      <trkpt lat="41.51732116006314754486083984375" lon="2.13931306265294551849365234375">
        <ele>90.8000030517578125</ele>
        <time>2022-01-07T08:29:52.000Z</time>
      </trkpt>
      <trkpt lat="41.5172818489372730255126953125" lon="2.1392975561320781707763671875">
        <ele>90.8000030517578125</ele>
        <time>2022-01-07T08:29:53.000Z</time>
      </trkpt>
      <trkpt lat="41.5172312222421169281005859375" lon="2.1392791159451007843017578125">
        <ele>90.59999847412109375</ele>
        <time>2022-01-07T08:29:54.000Z</time>
      </trkpt>
      <trkpt lat="41.51717238128185272216796875" lon="2.13925682008266448974609375">
        <ele>90.59999847412109375</ele>
        <time>2022-01-07T08:29:55.000Z</time>
      </trkpt>
      <trkpt lat="41.51712385006248950958251953125" lon="2.1392392180860042572021484375">
        <ele>90.59999847412109375</ele>
        <time>2022-01-07T08:29:56.000Z</time>
      </trkpt>
      <trkpt lat="41.51707582175731658935546875" lon="2.13922354392707347869873046875">
        <ele>90.59999847412109375</ele>
        <time>2022-01-07T08:29:57.000Z</time>
      </trkpt>
      <trkpt lat="41.5170394442975521087646484375" lon="2.13921063579618930816650390625">
        <ele>90.40000152587890625</ele>
        <time>2022-01-07T08:29:58.000Z</time>
      </trkpt>
      <trkpt lat="41.51699409820139408111572265625" lon="2.13919571600854396820068359375">
        <ele>90.40000152587890625</ele>
        <time>2022-01-07T08:29:59.000Z</time>
      </trkpt>
      <trkpt lat="41.51694573462009429931640625" lon="2.13918062858283519744873046875">
        <ele>90.1999969482421875</ele>
        <time>2022-01-07T08:30:00.000Z</time>
      </trkpt>
      <trkpt lat="41.516889072954654693603515625" lon="2.13916051201522350311279296875">
        <ele>90.1999969482421875</ele>
        <time>2022-01-07T08:30:01.000Z</time>
      </trkpt>
      <trkpt lat="41.51684272103011608123779296875" lon="2.13914425112307071685791015625">
        <ele>90.1999969482421875</ele>
        <time>2022-01-07T08:30:02.000Z</time>
      </trkpt>
      <trkpt lat="41.516805253922939300537109375" lon="2.13913000188767910003662109375">
        <ele>90.1999969482421875</ele>
        <time>2022-01-07T08:30:03.000Z</time>
      </trkpt>
      <trkpt lat="41.51675957255065441131591796875" lon="2.13911273516714572906494140625">
        <ele>90.1999969482421875</ele>
        <time>2022-01-07T08:30:04.000Z</time>
      </trkpt>
      <trkpt lat="41.51670835912227630615234375" lon="2.1390925347805023193359375">
        <ele>90.1999969482421875</ele>
        <time>2022-01-07T08:30:05.000Z</time>
      </trkpt>
      <trkpt lat="41.5166709758341312408447265625" lon="2.139072753489017486572265625">
        <ele>90.1999969482421875</ele>
        <time>2022-01-07T08:30:06.000Z</time>
      </trkpt>
      <trkpt lat="41.51663686148822307586669921875" lon="2.1390630304813385009765625">
        <ele>90.1999969482421875</ele>
        <time>2022-01-07T08:30:07.000Z</time>
      </trkpt>
      <trkpt lat="41.51661221869289875030517578125" lon="2.1390568278729915618896484375">
        <ele>90.1999969482421875</ele>
        <time>2022-01-07T08:30:08.000Z</time>
      </trkpt>
      <trkpt lat="41.5165831334888935089111328125" lon="2.13904417119920253753662109375">
        <ele>90.1999969482421875</ele>
        <time>2022-01-07T08:30:09.000Z</time>
      </trkpt>
      <trkpt lat="41.5165475942194461822509765625" lon="2.13902941904962062835693359375">
        <ele>90.1999969482421875</ele>
        <time>2022-01-07T08:30:10.000Z</time>
      </trkpt>
      <trkpt lat="41.51652303524315357208251953125" lon="2.13901902548968791961669921875">
        <ele>90.1999969482421875</ele>
        <time>2022-01-07T08:30:11.000Z</time>
      </trkpt>
      <trkpt lat="41.5164904296398162841796875" lon="2.139006368815898895263671875">
        <ele>90.1999969482421875</ele>
        <time>2022-01-07T08:30:12.000Z</time>
      </trkpt>
      <trkpt lat="41.516451872885227203369140625" lon="2.13899220339953899383544921875">
        <ele>90.1999969482421875</ele>
        <time>2022-01-07T08:30:13.000Z</time>
      </trkpt>
      <trkpt lat="41.51640803553164005279541015625" lon="2.138978205621242523193359375">
        <ele>90.1999969482421875</ele>
        <time>2022-01-07T08:30:14.000Z</time>
      </trkpt>
      <trkpt lat="41.5163591690361499786376953125" lon="2.13896119035780429840087890625">
        <ele>90.1999969482421875</ele>
        <time>2022-01-07T08:30:15.000Z</time>
      </trkpt>
      <trkpt lat="41.516321115195751190185546875" lon="2.13894694112241268157958984375">
        <ele>90.1999969482421875</ele>
        <time>2022-01-07T08:30:16.000Z</time>
      </trkpt>
      <trkpt lat="41.516286917030811309814453125" lon="2.13893763720989227294921875">
        <ele>90</ele>
        <time>2022-01-07T08:30:17.000Z</time>
      </trkpt>
      <trkpt lat="41.51626721955835819244384765625" lon="2.13893285952508449554443359375">
        <ele>90</ele>
        <time>2022-01-07T08:30:18.000Z</time>
      </trkpt>
      <trkpt lat="41.51625062339007854461669921875" lon="2.1389267407357692718505859375">
        <ele>90</ele>
        <time>2022-01-07T08:30:19.000Z</time>
      </trkpt>
      <trkpt lat="41.51623369194567203521728515625" lon="2.138918526470661163330078125">
        <ele>90</ele>
        <time>2022-01-07T08:30:20.000Z</time>
      </trkpt>
      <trkpt lat="41.516203768551349639892578125" lon="2.13890536688268184661865234375">
        <ele>90</ele>
        <time>2022-01-07T08:30:21.000Z</time>
      </trkpt>
      <trkpt lat="41.516176275908946990966796875" lon="2.1388962306082248687744140625">
        <ele>90</ele>
        <time>2022-01-07T08:30:22.000Z</time>
      </trkpt>
      <trkpt lat="41.5161382220685482025146484375" lon="2.1388821490108966827392578125">
        <ele>90</ele>
        <time>2022-01-07T08:30:23.000Z</time>
      </trkpt>
      <trkpt lat="41.51609723456203937530517578125" lon="2.1388670615851879119873046875">
        <ele>90</ele>
        <time>2022-01-07T08:30:24.000Z</time>
      </trkpt>
      <trkpt lat="41.5160540677607059478759765625" lon="2.1388546563684940338134765625">
        <ele>90</ele>
        <time>2022-01-07T08:30:25.000Z</time>
      </trkpt>
      <trkpt lat="41.51600436307489871978759765625" lon="2.1388457715511322021484375">
        <ele>90</ele>
        <time>2022-01-07T08:30:26.000Z</time>
      </trkpt>
      <trkpt lat="41.51597200892865657806396484375" lon="2.13883898220956325531005859375">
        <ele>90</ele>
        <time>2022-01-07T08:30:27.000Z</time>
      </trkpt>
      <trkpt lat="41.51593579910695552825927734375" lon="2.1388269960880279541015625">
        <ele>89.8000030517578125</ele>
        <time>2022-01-07T08:30:28.000Z</time>
      </trkpt>
      <trkpt lat="41.51589833199977874755859375" lon="2.1388191170990467071533203125">
        <ele>89.8000030517578125</ele>
        <time>2022-01-07T08:30:29.000Z</time>
      </trkpt>
      <trkpt lat="41.51588265784084796905517578125" lon="2.13882490061223506927490234375">
        <ele>89.59999847412109375</ele>
        <time>2022-01-07T08:30:30.000Z</time>
      </trkpt>
      <trkpt lat="41.51586757041513919830322265625" lon="2.13883646763861179351806640625">
        <ele>89.59999847412109375</ele>
        <time>2022-01-07T08:30:31.000Z</time>
      </trkpt>
      <trkpt lat="41.51585214771330356597900390625" lon="2.13884904049336910247802734375">
        <ele>89.40000152587890625</ele>
        <time>2022-01-07T08:30:32.000Z</time>
      </trkpt>
      <trkpt lat="41.51582951657474040985107421875" lon="2.13885272853076457977294921875">
        <ele>89.40000152587890625</ele>
        <time>2022-01-07T08:30:33.000Z</time>
      </trkpt>
      <trkpt lat="41.51580051518976688385009765625" lon="2.13884887285530567169189453125">
        <ele>89.40000152587890625</ele>
        <time>2022-01-07T08:30:34.000Z</time>
      </trkpt>
      <trkpt lat="41.51576329953968524932861328125" lon="2.13884350843727588653564453125">
        <ele>89.40000152587890625</ele>
        <time>2022-01-07T08:30:35.000Z</time>
      </trkpt>
      <trkpt lat="41.515714265406131744384765625" lon="2.13883378542959690093994140625">
        <ele>89.40000152587890625</ele>
        <time>2022-01-07T08:30:36.000Z</time>
      </trkpt>
      <trkpt lat="41.5156798996031284332275390625" lon="2.13882473297417163848876953125">
        <ele>89.40000152587890625</ele>
        <time>2022-01-07T08:30:37.000Z</time>
      </trkpt>
      <trkpt lat="41.51563589461147785186767578125" lon="2.13881618343293666839599609375">
        <ele>89.1999969482421875</ele>
        <time>2022-01-07T08:30:38.000Z</time>
      </trkpt>
      <trkpt lat="41.51558225043118000030517578125" lon="2.13880847208201885223388671875">
        <ele>89.1999969482421875</ele>
        <time>2022-01-07T08:30:39.000Z</time>
      </trkpt>
      <trkpt lat="41.51553581468760967254638671875" lon="2.1388053707778453826904296875">
        <ele>89.1999969482421875</ele>
        <time>2022-01-07T08:30:40.000Z</time>
      </trkpt>
      <trkpt lat="41.515497677028179168701171875" lon="2.13880243711173534393310546875">
        <ele>89.1999969482421875</ele>
        <time>2022-01-07T08:30:41.000Z</time>
      </trkpt>
      <trkpt lat="41.515448726713657379150390625" lon="2.1387976594269275665283203125">
        <ele>89</ele>
        <time>2022-01-07T08:30:42.000Z</time>
      </trkpt>
      <trkpt lat="41.5154016204178333282470703125" lon="2.13879271410405635833740234375">
        <ele>88.8000030517578125</ele>
        <time>2022-01-07T08:30:43.000Z</time>
      </trkpt>
      <trkpt lat="41.51534537784755229949951171875" lon="2.13878517039120197296142578125">
        <ele>88.59999847412109375</ele>
        <time>2022-01-07T08:30:44.000Z</time>
      </trkpt>
      <trkpt lat="41.51530598290264606475830078125" lon="2.1387829072773456573486328125">
        <ele>88.40000152587890625</ele>
        <time>2022-01-07T08:30:45.000Z</time>
      </trkpt>
      <trkpt lat="41.515258960425853729248046875" lon="2.138781733810901641845703125">
        <ele>88.40000152587890625</ele>
        <time>2022-01-07T08:30:46.000Z</time>
      </trkpt>
      <trkpt lat="41.5152121894061565399169921875" lon="2.138780057430267333984375">
        <ele>88.1999969482421875</ele>
        <time>2022-01-07T08:30:47.000Z</time>
      </trkpt>
      <trkpt lat="41.5151672624051570892333984375" lon="2.138778381049633026123046875">
        <ele>88.1999969482421875</ele>
        <time>2022-01-07T08:30:48.000Z</time>
      </trkpt>
      <trkpt lat="41.5151163004338741302490234375" lon="2.13877628557384014129638671875">
        <ele>88.1999969482421875</ele>
        <time>2022-01-07T08:30:49.000Z</time>
      </trkpt>
      <trkpt lat="41.5150831080973148345947265625" lon="2.13877645321190357208251953125">
        <ele>88</ele>
        <time>2022-01-07T08:30:50.000Z</time>
      </trkpt>
      <trkpt lat="41.51504161767661571502685546875" lon="2.1387788839638233184814453125">
        <ele>88</ele>
        <time>2022-01-07T08:30:51.000Z</time>
      </trkpt>
      <trkpt lat="41.51499886997044086456298828125" lon="2.138779722154140472412109375">
        <ele>88</ele>
        <time>2022-01-07T08:30:52.000Z</time>
      </trkpt>
      <trkpt lat="41.5149597264826297760009765625" lon="2.13878072798252105712890625">
        <ele>87.8000030517578125</ele>
        <time>2022-01-07T08:30:53.000Z</time>
      </trkpt>
      <trkpt lat="41.5149204991757869720458984375" lon="2.13878206908702850341796875">
        <ele>87.8000030517578125</ele>
        <time>2022-01-07T08:30:54.000Z</time>
      </trkpt>
      <trkpt lat="41.51488319970667362213134765625" lon="2.1387805603444576263427734375">
        <ele>87.8000030517578125</ele>
        <time>2022-01-07T08:30:55.000Z</time>
      </trkpt>
      <trkpt lat="41.51483491994440555572509765625" lon="2.1387778781354427337646484375">
        <ele>87.8000030517578125</ele>
        <time>2022-01-07T08:30:56.000Z</time>
      </trkpt>
      <trkpt lat="41.514804996550083160400390625" lon="2.13877796195447444915771484375">
        <ele>87.8000030517578125</ele>
        <time>2022-01-07T08:30:57.000Z</time>
      </trkpt>
      <trkpt lat="41.514768116176128387451171875" lon="2.1387815661728382110595703125">
        <ele>87.8000030517578125</ele>
        <time>2022-01-07T08:30:58.000Z</time>
      </trkpt>
      <trkpt lat="41.51473215781152248382568359375" lon="2.13878449983894824981689453125">
        <ele>87.8000030517578125</ele>
        <time>2022-01-07T08:30:59.000Z</time>
      </trkpt>
      <trkpt lat="41.51469628326594829559326171875" lon="2.1387862600386142730712890625">
        <ele>87.59999847412109375</ele>
        <time>2022-01-07T08:31:00.000Z</time>
      </trkpt>
      <trkpt lat="41.51465320028364658355712890625" lon="2.13879137299954891204833984375">
        <ele>87.59999847412109375</ele>
        <time>2022-01-07T08:31:01.000Z</time>
      </trkpt>
      <trkpt lat="41.514623276889324188232421875" lon="2.1387956477701663970947265625">
        <ele>87.59999847412109375</ele>
        <time>2022-01-07T08:31:02.000Z</time>
      </trkpt>
      <trkpt lat="41.5145858936011791229248046875" lon="2.13879992254078388214111328125">
        <ele>87.59999847412109375</ele>
        <time>2022-01-07T08:31:03.000Z</time>
      </trkpt>
      <trkpt lat="41.51454809121787548065185546875" lon="2.13880277238786220550537109375">
        <ele>87.59999847412109375</ele>
        <time>2022-01-07T08:31:04.000Z</time>
      </trkpt>
      <trkpt lat="41.51450165547430515289306640625" lon="2.13880612514913082122802734375">
        <ele>87.59999847412109375</ele>
        <time>2022-01-07T08:31:05.000Z</time>
      </trkpt>
      <trkpt lat="41.51447139680385589599609375" lon="2.1388097293674945831298828125">
        <ele>87.59999847412109375</ele>
        <time>2022-01-07T08:31:06.000Z</time>
      </trkpt>
      <trkpt lat="41.51443250477313995361328125" lon="2.13881299830973148345947265625">
        <ele>87.59999847412109375</ele>
        <time>2022-01-07T08:31:07.000Z</time>
      </trkpt>
      <trkpt lat="41.51439034380018711090087890625" lon="2.138818614184856414794921875">
        <ele>87.59999847412109375</ele>
        <time>2022-01-07T08:31:08.000Z</time>
      </trkpt>
      <trkpt lat="41.51434809900820255279541015625" lon="2.13882406242191791534423828125">
        <ele>87.59999847412109375</ele>
        <time>2022-01-07T08:31:09.000Z</time>
      </trkpt>
      <trkpt lat="41.51429931633174419403076171875" lon="2.13883143849670886993408203125">
        <ele>87.40000152587890625</ele>
        <time>2022-01-07T08:31:10.000Z</time>
      </trkpt>
      <trkpt lat="41.51426528580486774444580078125" lon="2.13883730582892894744873046875">
        <ele>87.40000152587890625</ele>
        <time>2022-01-07T08:31:11.000Z</time>
      </trkpt>
      <trkpt lat="41.514222286641597747802734375" lon="2.1388486213982105255126953125">
        <ele>87.40000152587890625</ele>
        <time>2022-01-07T08:31:12.000Z</time>
      </trkpt>
      <trkpt lat="41.51417903602123260498046875" lon="2.1388606913387775421142578125">
        <ele>87.1999969482421875</ele>
        <time>2022-01-07T08:31:13.000Z</time>
      </trkpt>
      <trkpt lat="41.51413503102958202362060546875" lon="2.13887200690805912017822265625">
        <ele>87.1999969482421875</ele>
        <time>2022-01-07T08:31:14.000Z</time>
      </trkpt>
      <trkpt lat="41.51408188976347446441650390625" lon="2.13888508267700672149658203125">
        <ele>87</ele>
        <time>2022-01-07T08:31:15.000Z</time>
      </trkpt>
      <trkpt lat="41.5140444226562976837158203125" lon="2.13889128528535366058349609375">
        <ele>87</ele>
        <time>2022-01-07T08:31:16.000Z</time>
      </trkpt>
      <trkpt lat="41.513998322188854217529296875" lon="2.13889732025563716888427734375">
        <ele>87</ele>
        <time>2022-01-07T08:31:17.000Z</time>
      </trkpt>
      <trkpt lat="41.51395238935947418212890625" lon="2.13890402577817440032958984375">
        <ele>86.8000030517578125</ele>
        <time>2022-01-07T08:31:18.000Z</time>
      </trkpt>
      <trkpt lat="41.5138975717127323150634765625" lon="2.138918526470661163330078125">
        <ele>86.8000030517578125</ele>
        <time>2022-01-07T08:31:19.000Z</time>
      </trkpt>
      <trkpt lat="41.51385289616882801055908203125" lon="2.13893403299152851104736328125">
        <ele>86.8000030517578125</ele>
        <time>2022-01-07T08:31:20.000Z</time>
      </trkpt>
      <trkpt lat="41.51381819508969783782958984375" lon="2.13894576765596866607666015625">
        <ele>86.8000030517578125</ele>
        <time>2022-01-07T08:31:21.000Z</time>
      </trkpt>
      <trkpt lat="41.513773687183856964111328125" lon="2.138961441814899444580078125">
        <ele>86.8000030517578125</ele>
        <time>2022-01-07T08:31:22.000Z</time>
      </trkpt>
      <trkpt lat="41.513729095458984375" lon="2.138976864516735076904296875">
        <ele>86.8000030517578125</ele>
        <time>2022-01-07T08:31:23.000Z</time>
      </trkpt>
      <trkpt lat="41.51368416845798492431640625" lon="2.13899203576147556304931640625">
        <ele>86.59999847412109375</ele>
        <time>2022-01-07T08:31:24.000Z</time>
      </trkpt>
      <trkpt lat="41.51363932527601718902587890625" lon="2.1390145830810070037841796875">
        <ele>86.59999847412109375</ele>
        <time>2022-01-07T08:31:25.000Z</time>
      </trkpt>
      <trkpt lat="41.51359339244663715362548828125" lon="2.13903687894344329833984375">
        <ele>86.59999847412109375</ele>
        <time>2022-01-07T08:31:26.000Z</time>
      </trkpt>
      <trkpt lat="41.51354880072176456451416015625" lon="2.13905967772006988525390625">
        <ele>86.59999847412109375</ele>
        <time>2022-01-07T08:31:27.000Z</time>
      </trkpt>
      <trkpt lat="41.51350253261625766754150390625" lon="2.1390802972018718719482421875">
        <ele>86.59999847412109375</ele>
        <time>2022-01-07T08:31:28.000Z</time>
      </trkpt>
      <trkpt lat="41.51344520039856433868408203125" lon="2.1391061134636402130126953125">
        <ele>86.59999847412109375</ele>
        <time>2022-01-07T08:31:29.000Z</time>
      </trkpt>
      <trkpt lat="41.51339574716985225677490234375" lon="2.13912648148834705352783203125">
        <ele>86.40000152587890625</ele>
        <time>2022-01-07T08:31:30.000Z</time>
      </trkpt>
      <trkpt lat="41.51335836388170719146728515625" lon="2.13914550840854644775390625">
        <ele>86.40000152587890625</ele>
        <time>2022-01-07T08:31:31.000Z</time>
      </trkpt>
      <trkpt lat="41.51331176050007343292236328125" lon="2.13916906155645847320556640625">
        <ele>86.40000152587890625</ele>
        <time>2022-01-07T08:31:32.000Z</time>
      </trkpt>
      <trkpt lat="41.5132561884820461273193359375" lon="2.139196805655956268310546875">
        <ele>86.40000152587890625</ele>
        <time>2022-01-07T08:31:33.000Z</time>
      </trkpt>
      <trkpt lat="41.513219811022281646728515625" lon="2.13921465910971164703369140625">
        <ele>86.40000152587890625</ele>
        <time>2022-01-07T08:31:34.000Z</time>
      </trkpt>
      <trkpt lat="41.51317446492612361907958984375" lon="2.139236368238925933837890625">
        <ele>86.40000152587890625</ele>
        <time>2022-01-07T08:31:35.000Z</time>
      </trkpt>
      <trkpt lat="41.51313121430575847625732421875" lon="2.13925774209201335906982421875">
        <ele>86.40000152587890625</ele>
        <time>2022-01-07T08:31:36.000Z</time>
      </trkpt>
      <trkpt lat="41.5130893886089324951171875" lon="2.1392821334302425384521484375">
        <ele>86.1999969482421875</ele>
        <time>2022-01-07T08:31:37.000Z</time>
      </trkpt>
      <trkpt lat="41.513040103018283843994140625" lon="2.1393116377294063568115234375">
        <ele>86.1999969482421875</ele>
        <time>2022-01-07T08:31:38.000Z</time>
      </trkpt>
      <trkpt lat="41.512998528778553009033203125" lon="2.13933669961988925933837890625">
        <ele>86.1999969482421875</ele>
        <time>2022-01-07T08:31:39.000Z</time>
      </trkpt>
      <trkpt lat="41.5129564516246318817138671875" lon="2.1393607556819915771484375">
        <ele>86.1999969482421875</ele>
        <time>2022-01-07T08:31:40.000Z</time>
      </trkpt>
      <trkpt lat="41.51292351074516773223876953125" lon="2.13937995024025440216064453125">
        <ele>86.1999969482421875</ele>
        <time>2022-01-07T08:31:41.000Z</time>
      </trkpt>
      <trkpt lat="41.512884534895420074462890625" lon="2.13940559886395931243896484375">
        <ele>86</ele>
        <time>2022-01-07T08:31:42.000Z</time>
      </trkpt>
      <trkpt lat="41.51284757070243358612060546875" lon="2.13943124748766422271728515625">
        <ele>86</ele>
        <time>2022-01-07T08:31:43.000Z</time>
      </trkpt>
      <trkpt lat="41.512814797461032867431640625" lon="2.139455974102020263671875">
        <ele>86</ele>
        <time>2022-01-07T08:31:44.000Z</time>
      </trkpt>
      <trkpt lat="41.5127831138670444488525390625" lon="2.1394786052405834197998046875">
        <ele>86</ele>
        <time>2022-01-07T08:31:45.000Z</time>
      </trkpt>
      <trkpt lat="41.51275453157722949981689453125" lon="2.139497883617877960205078125">
        <ele>86</ele>
        <time>2022-01-07T08:31:46.000Z</time>
      </trkpt>
      <trkpt lat="41.5127261169254779815673828125" lon="2.139516659080982208251953125">
        <ele>86</ele>
        <time>2022-01-07T08:31:47.000Z</time>
      </trkpt>
      <trkpt lat="41.512699127197265625" lon="2.13953174650669097900390625">
        <ele>86</ele>
        <time>2022-01-07T08:31:48.000Z</time>
      </trkpt>
      <trkpt lat="41.5126709640026092529296875" lon="2.139546163380146026611328125">
        <ele>86</ele>
        <time>2022-01-07T08:31:49.000Z</time>
      </trkpt>
      <trkpt lat="41.51263944804668426513671875" lon="2.13956049643456935882568359375">
        <ele>86</ele>
        <time>2022-01-07T08:31:50.000Z</time>
      </trkpt>
      <trkpt lat="41.51260902173817157745361328125" lon="2.139575667679309844970703125">
        <ele>86</ele>
        <time>2022-01-07T08:31:51.000Z</time>
      </trkpt>
      <trkpt lat="41.5125809423625469207763671875" lon="2.13959419168531894683837890625">
        <ele>86</ele>
        <time>2022-01-07T08:31:52.000Z</time>
      </trkpt>
      <trkpt lat="41.51255051605403423309326171875" lon="2.13961347006261348724365234375">
        <ele>86</ele>
        <time>2022-01-07T08:31:53.000Z</time>
      </trkpt>
      <trkpt lat="41.51252151466906070709228515625" lon="2.139632664620876312255859375">
        <ele>86.1999969482421875</ele>
        <time>2022-01-07T08:31:54.000Z</time>
      </trkpt>
      <trkpt lat="41.51248983107507228851318359375" lon="2.1396512724459171295166015625">
        <ele>86.1999969482421875</ele>
        <time>2022-01-07T08:31:55.000Z</time>
      </trkpt>
      <trkpt lat="41.51245630346238613128662109375" lon="2.13966812007129192352294921875">
        <ele>86.1999969482421875</ele>
        <time>2022-01-07T08:31:56.000Z</time>
      </trkpt>
      <trkpt lat="41.51242847554385662078857421875" lon="2.1396858058869838714599609375">
        <ele>86.1999969482421875</ele>
        <time>2022-01-07T08:31:57.000Z</time>
      </trkpt>
      <trkpt lat="41.5124039165675640106201171875" lon="2.1397018991410732269287109375">
        <ele>86.1999969482421875</ele>
        <time>2022-01-07T08:31:58.000Z</time>
      </trkpt>
      <trkpt lat="41.5123777650296688079833984375" lon="2.13971891440451145172119140625">
        <ele>86.1999969482421875</ele>
        <time>2022-01-07T08:31:59.000Z</time>
      </trkpt>
      <trkpt lat="41.512348093092441558837890625" lon="2.139738611876964569091796875">
        <ele>86.1999969482421875</ele>
        <time>2022-01-07T08:32:00.000Z</time>
      </trkpt>
      <trkpt lat="41.5123167447745800018310546875" lon="2.13975830934941768646240234375">
        <ele>86.1999969482421875</ele>
        <time>2022-01-07T08:32:01.000Z</time>
      </trkpt>
      <trkpt lat="41.512286402285099029541015625" lon="2.13977574370801448822021484375">
        <ele>86.1999969482421875</ele>
        <time>2022-01-07T08:32:02.000Z</time>
      </trkpt>
      <trkpt lat="41.512254886329174041748046875" lon="2.1397944353520870208740234375">
        <ele>86.1999969482421875</ele>
        <time>2022-01-07T08:32:03.000Z</time>
      </trkpt>
      <trkpt lat="41.51222278364002704620361328125" lon="2.139815390110015869140625">
        <ele>86.1999969482421875</ele>
        <time>2022-01-07T08:32:04.000Z</time>
      </trkpt>
      <trkpt lat="41.51219059713184833526611328125" lon="2.13983793742954730987548828125">
        <ele>86.1999969482421875</ele>
        <time>2022-01-07T08:32:05.000Z</time>
      </trkpt>
      <trkpt lat="41.5121554769575595855712890625" lon="2.139858305454254150390625">
        <ele>86.1999969482421875</ele>
        <time>2022-01-07T08:32:06.000Z</time>
      </trkpt>
      <trkpt lat="41.512122116982936859130859375" lon="2.139879427850246429443359375">
        <ele>86.1999969482421875</ele>
        <time>2022-01-07T08:32:07.000Z</time>
      </trkpt>
      <trkpt lat="41.51208951137959957122802734375" lon="2.13990214280784130096435546875">
        <ele>86</ele>
        <time>2022-01-07T08:32:08.000Z</time>
      </trkpt>
      <trkpt lat="41.512055732309818267822265625" lon="2.1399248577654361724853515625">
        <ele>86</ele>
        <time>2022-01-07T08:32:09.000Z</time>
      </trkpt>
      <trkpt lat="41.5120217017829418182373046875" lon="2.13995092548429965972900390625">
        <ele>86</ele>
        <time>2022-01-07T08:32:10.000Z</time>
      </trkpt>
      <trkpt lat="41.51198557578027248382568359375" lon="2.13997389189898967742919921875">
        <ele>86</ele>
        <time>2022-01-07T08:32:11.000Z</time>
      </trkpt>
      <trkpt lat="41.51195053942501544952392578125" lon="2.13999585248529911041259765625">
        <ele>86</ele>
        <time>2022-01-07T08:32:12.000Z</time>
      </trkpt>
      <trkpt lat="41.51191617362201213836669921875" lon="2.14001881889998912811279296875">
        <ele>86</ele>
        <time>2022-01-07T08:32:13.000Z</time>
      </trkpt>
      <trkpt lat="41.51188197545707225799560546875" lon="2.1400428749620914459228515625">
        <ele>86</ele>
        <time>2022-01-07T08:32:14.000Z</time>
      </trkpt>
      <trkpt lat="41.51184693910181522369384765625" lon="2.1400663442909717559814453125">
        <ele>86</ele>
        <time>2022-01-07T08:32:15.000Z</time>
      </trkpt>
      <trkpt lat="41.5118124894797801971435546875" lon="2.14008822105824947357177734375">
        <ele>86</ele>
        <time>2022-01-07T08:32:16.000Z</time>
      </trkpt>
      <trkpt lat="41.5117772854864597320556640625" lon="2.14010917581617832183837890625">
        <ele>86</ele>
        <time>2022-01-07T08:32:17.000Z</time>
      </trkpt>
      <trkpt lat="41.51174015365540981292724609375" lon="2.14013163931667804718017578125">
        <ele>86</ele>
        <time>2022-01-07T08:32:18.000Z</time>
      </trkpt>
      <trkpt lat="41.51169237680733203887939453125" lon="2.14015829376876354217529296875">
        <ele>86</ele>
        <time>2022-01-07T08:32:19.000Z</time>
      </trkpt>
      <trkpt lat="41.511654071509838104248046875" lon="2.140179835259914398193359375">
        <ele>86</ele>
        <time>2022-01-07T08:32:20.000Z</time>
      </trkpt>
      <trkpt lat="41.511625908315181732177734375" lon="2.140201292932033538818359375">
        <ele>86</ele>
        <time>2022-01-07T08:32:21.000Z</time>
      </trkpt>
      <trkpt lat="41.51159011758863925933837890625" lon="2.1402272768318653106689453125">
        <ele>86</ele>
        <time>2022-01-07T08:32:22.000Z</time>
      </trkpt>
      <trkpt lat="41.51155441068112850189208984375" lon="2.140251584351062774658203125">
        <ele>86</ele>
        <time>2022-01-07T08:32:23.000Z</time>
      </trkpt>
      <trkpt lat="41.51152021251618862152099609375" lon="2.14027647860348224639892578125">
        <ele>85.8000030517578125</ele>
        <time>2022-01-07T08:32:24.000Z</time>
      </trkpt>
      <trkpt lat="41.511486433446407318115234375" lon="2.14030086994171142578125">
        <ele>85.8000030517578125</ele>
        <time>2022-01-07T08:32:25.000Z</time>
      </trkpt>
      <trkpt lat="41.51145164854824542999267578125" lon="2.1403238363564014434814453125">
        <ele>85.8000030517578125</ele>
        <time>2022-01-07T08:32:26.000Z</time>
      </trkpt>
      <trkpt lat="41.5114183723926544189453125" lon="2.14034847915172576904296875">
        <ele>85.8000030517578125</ele>
        <time>2022-01-07T08:32:27.000Z</time>
      </trkpt>
      <trkpt lat="41.51137453503906726837158203125" lon="2.1403801627457141876220703125">
        <ele>85.59999847412109375</ele>
        <time>2022-01-07T08:32:28.000Z</time>
      </trkpt>
      <trkpt lat="41.51134436018764972686767578125" lon="2.14040405116975307464599609375">
        <ele>85.59999847412109375</ele>
        <time>2022-01-07T08:32:29.000Z</time>
      </trkpt>
      <trkpt lat="41.5113062225282192230224609375" lon="2.14043288491666316986083984375">
        <ele>85.59999847412109375</ele>
        <time>2022-01-07T08:32:30.000Z</time>
      </trkpt>
      <trkpt lat="41.511269174516201019287109375" lon="2.14045970700681209564208984375">
        <ele>85.59999847412109375</ele>
        <time>2022-01-07T08:32:31.000Z</time>
      </trkpt>
      <trkpt lat="41.51123506017029285430908203125" lon="2.140486948192119598388671875">
        <ele>85.59999847412109375</ele>
        <time>2022-01-07T08:32:32.000Z</time>
      </trkpt>
      <trkpt lat="41.51120354421436786651611328125" lon="2.14051502756774425506591796875">
        <ele>85.59999847412109375</ele>
        <time>2022-01-07T08:32:33.000Z</time>
      </trkpt>
      <trkpt lat="41.5111727826297283172607421875" lon="2.1405417658388614654541015625">
        <ele>85.59999847412109375</ele>
        <time>2022-01-07T08:32:34.000Z</time>
      </trkpt>
      <trkpt lat="41.51114101521670818328857421875" lon="2.140567414462566375732421875">
        <ele>85.40000152587890625</ele>
        <time>2022-01-07T08:32:35.000Z</time>
      </trkpt>
      <trkpt lat="41.5111080743372440338134765625" lon="2.14059549383819103240966796875">
        <ele>85.40000152587890625</ele>
        <time>2022-01-07T08:32:36.000Z</time>
      </trkpt>
      <trkpt lat="41.5110745467245578765869140625" lon="2.1406249143183231353759765625">
        <ele>85.40000152587890625</ele>
        <time>2022-01-07T08:32:37.000Z</time>
      </trkpt>
      <trkpt lat="41.511041186749935150146484375" lon="2.1406535804271697998046875">
        <ele>85.1999969482421875</ele>
        <time>2022-01-07T08:32:38.000Z</time>
      </trkpt>
      <trkpt lat="41.51100925169885158538818359375" lon="2.14068618603050708770751953125">
        <ele>85.1999969482421875</ele>
        <time>2022-01-07T08:32:39.000Z</time>
      </trkpt>
      <trkpt lat="41.5109776519238948822021484375" lon="2.14071887545287609100341796875">
        <ele>85.1999969482421875</ele>
        <time>2022-01-07T08:32:40.000Z</time>
      </trkpt>
      <trkpt lat="41.510944627225399017333984375" lon="2.14075190015137195587158203125">
        <ele>85.1999969482421875</ele>
        <time>2022-01-07T08:32:41.000Z</time>
      </trkpt>
      <trkpt lat="41.5109112672507762908935546875" lon="2.14078157208859920501708984375">
        <ele>85.1999969482421875</ele>
        <time>2022-01-07T08:32:42.000Z</time>
      </trkpt>
      <trkpt lat="41.5108797512948513031005859375" lon="2.1408118307590484619140625">
        <ele>85.1999969482421875</ele>
        <time>2022-01-07T08:32:43.000Z</time>
      </trkpt>
      <trkpt lat="41.5108472295105457305908203125" lon="2.1408428438007831573486328125">
        <ele>85.1999969482421875</ele>
        <time>2022-01-07T08:32:44.000Z</time>
      </trkpt>
      <trkpt lat="41.5108157135546207427978515625" lon="2.14087058790028095245361328125">
        <ele>85.1999969482421875</ele>
        <time>2022-01-07T08:32:45.000Z</time>
      </trkpt>
      <trkpt lat="41.5107845328748226165771484375" lon="2.14089891873300075531005859375">
        <ele>85.1999969482421875</ele>
        <time>2022-01-07T08:32:46.000Z</time>
      </trkpt>
      <trkpt lat="41.5107533521950244903564453125" lon="2.14093110524117946624755859375">
        <ele>85.1999969482421875</ele>
        <time>2022-01-07T08:32:47.000Z</time>
      </trkpt>
      <trkpt lat="41.5107218362390995025634765625" lon="2.14096404612064361572265625">
        <ele>85.1999969482421875</ele>
        <time>2022-01-07T08:32:48.000Z</time>
      </trkpt>
      <trkpt lat="41.51069476269185543060302734375" lon="2.1410007588565349578857421875">
        <ele>85.1999969482421875</ele>
        <time>2022-01-07T08:32:49.000Z</time>
      </trkpt>
      <trkpt lat="41.51066794060170650482177734375" lon="2.1410373039543628692626953125">
        <ele>85.1999969482421875</ele>
        <time>2022-01-07T08:32:50.000Z</time>
      </trkpt>
      <trkpt lat="41.51064363308250904083251953125" lon="2.14107778854668140411376953125">
        <ele>85.1999969482421875</ele>
        <time>2022-01-07T08:32:51.000Z</time>
      </trkpt>
      <trkpt lat="41.510622762143611907958984375" lon="2.141119278967380523681640625">
        <ele>85.1999969482421875</ele>
        <time>2022-01-07T08:32:52.000Z</time>
      </trkpt>
      <trkpt lat="41.5106029808521270751953125" lon="2.141156829893589019775390625">
        <ele>85.40000152587890625</ele>
        <time>2022-01-07T08:32:53.000Z</time>
      </trkpt>
      <trkpt lat="41.5105840377509593963623046875" lon="2.1411900222301483154296875">
        <ele>85.40000152587890625</ele>
        <time>2022-01-07T08:32:54.000Z</time>
      </trkpt>
      <trkpt lat="41.51056383736431598663330078125" lon="2.14121910743415355682373046875">
        <ele>85.40000152587890625</ele>
        <time>2022-01-07T08:32:55.000Z</time>
      </trkpt>
      <trkpt lat="41.51054254733026027679443359375" lon="2.14124391786754131317138671875">
        <ele>85.59999847412109375</ele>
        <time>2022-01-07T08:32:56.000Z</time>
      </trkpt>
      <trkpt lat="41.51051941327750682830810546875" lon="2.14126235805451869964599609375">
        <ele>85.59999847412109375</ele>
        <time>2022-01-07T08:32:57.000Z</time>
      </trkpt>
      <trkpt lat="41.51049527339637279510498046875" lon="2.14126990176737308502197265625">
        <ele>85.59999847412109375</ele>
        <time>2022-01-07T08:32:58.000Z</time>
      </trkpt>
      <trkpt lat="41.51046677492558956146240234375" lon="2.1412656269967555999755859375">
        <ele>85.59999847412109375</ele>
        <time>2022-01-07T08:32:59.000Z</time>
      </trkpt>
      <trkpt lat="41.51043442077934741973876953125" lon="2.1412515453994274139404296875">
        <ele>85.8000030517578125</ele>
        <time>2022-01-07T08:33:00.000Z</time>
      </trkpt>
      <trkpt lat="41.51039938442409038543701171875" lon="2.1412357874214649200439453125">
        <ele>85.8000030517578125</ele>
        <time>2022-01-07T08:33:01.000Z</time>
      </trkpt>
      <trkpt lat="41.5103634260594844818115234375" lon="2.14121575467288494110107421875">
        <ele>85.8000030517578125</ele>
        <time>2022-01-07T08:33:02.000Z</time>
      </trkpt>
      <trkpt lat="41.5103235282003879547119140625" lon="2.14119630865752696990966796875">
        <ele>85.8000030517578125</ele>
        <time>2022-01-07T08:33:03.000Z</time>
      </trkpt>
      <trkpt lat="41.51027600280940532684326171875" lon="2.14117988012731075286865234375">
        <ele>86</ele>
        <time>2022-01-07T08:33:04.000Z</time>
      </trkpt>
      <trkpt lat="41.510223448276519775390625" lon="2.141172252595424652099609375">
        <ele>86</ele>
        <time>2022-01-07T08:33:05.000Z</time>
      </trkpt>
      <trkpt lat="41.51016703806817531585693359375" lon="2.14117191731929779052734375">
        <ele>86</ele>
        <time>2022-01-07T08:33:06.000Z</time>
      </trkpt>
      <trkpt lat="41.510107778012752532958984375" lon="2.1411811374127864837646484375">
        <ele>86</ele>
        <time>2022-01-07T08:33:07.000Z</time>
      </trkpt>
      <trkpt lat="41.5100509487092494964599609375" lon="2.1411945484578609466552734375">
        <ele>86</ele>
        <time>2022-01-07T08:33:08.000Z</time>
      </trkpt>
      <trkpt lat="41.5099941194057464599609375" lon="2.1412156708538532257080078125">
        <ele>85.8000030517578125</ele>
        <time>2022-01-07T08:33:09.000Z</time>
      </trkpt>
      <trkpt lat="41.50994625873863697052001953125" lon="2.141244001686573028564453125">
        <ele>85.8000030517578125</ele>
        <time>2022-01-07T08:33:10.000Z</time>
      </trkpt>
      <trkpt lat="41.50991139002144336700439453125" lon="2.141265459358692169189453125">
        <ele>85.59999847412109375</ele>
        <time>2022-01-07T08:33:11.000Z</time>
      </trkpt>
      <trkpt lat="41.50988674722611904144287109375" lon="2.14127576909959316253662109375">
        <ele>85</ele>
        <time>2022-01-07T08:33:12.000Z</time>
      </trkpt>
      <trkpt lat="41.5098672173917293548583984375" lon="2.14128230698406696319580078125">
        <ele>84.40000152587890625</ele>
        <time>2022-01-07T08:33:13.000Z</time>
      </trkpt>
      <trkpt lat="41.50984684936702251434326171875" lon="2.14129018597304821014404296875">
        <ele>83.8000030517578125</ele>
        <time>2022-01-07T08:33:14.000Z</time>
      </trkpt>
      <trkpt lat="41.5098286606371402740478515625" lon="2.14130510576069355010986328125">
        <ele>83.1999969482421875</ele>
        <time>2022-01-07T08:33:15.000Z</time>
      </trkpt>
      <trkpt lat="41.5098108910024166107177734375" lon="2.1413269825279712677001953125">
        <ele>82.8000030517578125</ele>
        <time>2022-01-07T08:33:16.000Z</time>
      </trkpt>
      <trkpt lat="41.5097864158451557159423828125" lon="2.14134416542947292327880859375">
        <ele>82.59999847412109375</ele>
        <time>2022-01-07T08:33:17.000Z</time>
      </trkpt>
      <trkpt lat="41.5097538940608501434326171875" lon="2.14135564863681793212890625">
        <ele>82.59999847412109375</ele>
        <time>2022-01-07T08:33:18.000Z</time>
      </trkpt>
      <trkpt lat="41.50973117910325527191162109375" lon="2.1413685567677021026611328125">
        <ele>82.40000152587890625</ele>
        <time>2022-01-07T08:33:19.000Z</time>
      </trkpt>
      <trkpt lat="41.509701423346996307373046875" lon="2.1413906849920749664306640625">
        <ele>82.40000152587890625</ele>
        <time>2022-01-07T08:33:20.000Z</time>
      </trkpt>
      <trkpt lat="41.50967149995267391204833984375" lon="2.14141666889190673828125">
        <ele>82.1999969482421875</ele>
        <time>2022-01-07T08:33:21.000Z</time>
      </trkpt>
      <trkpt lat="41.5096415765583515167236328125" lon="2.14145162142813205718994140625">
        <ele>82.1999969482421875</ele>
        <time>2022-01-07T08:33:22.000Z</time>
      </trkpt>
      <trkpt lat="41.5096130780875682830810546875" lon="2.14148975908756256103515625">
        <ele>82.1999969482421875</ele>
        <time>2022-01-07T08:33:23.000Z</time>
      </trkpt>
      <trkpt lat="41.50958348996937274932861328125" lon="2.141524963080883026123046875">
        <ele>82</ele>
        <time>2022-01-07T08:33:24.000Z</time>
      </trkpt>
      <trkpt lat="41.50955197401344776153564453125" lon="2.14156125672161579132080078125">
        <ele>82</ele>
        <time>2022-01-07T08:33:25.000Z</time>
      </trkpt>
      <trkpt lat="41.50952163152396678924560546875" lon="2.1415968798100948333740234375">
        <ele>82</ele>
        <time>2022-01-07T08:33:26.000Z</time>
      </trkpt>
      <trkpt lat="41.50949263013899326324462890625" lon="2.14163535274565219879150390625">
        <ele>82</ele>
        <time>2022-01-07T08:33:27.000Z</time>
      </trkpt>
      <trkpt lat="41.509456336498260498046875" lon="2.14168178848922252655029296875">
        <ele>82</ele>
        <time>2022-01-07T08:33:28.000Z</time>
      </trkpt>
      <trkpt lat="41.5094320289790630340576171875" lon="2.14170961640775203704833984375">
        <ele>82</ele>
        <time>2022-01-07T08:33:29.000Z</time>
      </trkpt>
      <trkpt lat="41.50940109975636005401611328125" lon="2.1417407132685184478759765625">
        <ele>81.8000030517578125</ele>
        <time>2022-01-07T08:33:30.000Z</time>
      </trkpt>
      <trkpt lat="41.50937260128557682037353515625" lon="2.1417720615863800048828125">
        <ele>81.8000030517578125</ele>
        <time>2022-01-07T08:33:31.000Z</time>
      </trkpt>
      <trkpt lat="41.50934301316738128662109375" lon="2.14180449955165386199951171875">
        <ele>81.59999847412109375</ele>
        <time>2022-01-07T08:33:32.000Z</time>
      </trkpt>
      <trkpt lat="41.5093123354017734527587890625" lon="2.1418366022408008575439453125">
        <ele>81.59999847412109375</ele>
        <time>2022-01-07T08:33:33.000Z</time>
      </trkpt>
      <trkpt lat="41.50928224436938762664794921875" lon="2.1418681181967258453369140625">
        <ele>81.59999847412109375</ele>
        <time>2022-01-07T08:33:34.000Z</time>
      </trkpt>
      <trkpt lat="41.50925240479409694671630859375" lon="2.141896784305572509765625">
        <ele>81.40000152587890625</ele>
        <time>2022-01-07T08:33:35.000Z</time>
      </trkpt>
      <trkpt lat="41.5092194639146327972412109375" lon="2.1419298090040683746337890625">
        <ele>81.40000152587890625</ele>
        <time>2022-01-07T08:33:36.000Z</time>
      </trkpt>
      <trkpt lat="41.5091867744922637939453125" lon="2.141967527568340301513671875">
        <ele>81.40000152587890625</ele>
        <time>2022-01-07T08:33:37.000Z</time>
      </trkpt>
      <trkpt lat="41.50915366597473621368408203125" lon="2.14200608432292938232421875">
        <ele>81.40000152587890625</ele>
        <time>2022-01-07T08:33:38.000Z</time>
      </trkpt>
      <trkpt lat="41.50912173092365264892578125" lon="2.1420414559543132781982421875">
        <ele>81.40000152587890625</ele>
        <time>2022-01-07T08:33:39.000Z</time>
      </trkpt>
      <trkpt lat="41.50909013114869594573974609375" lon="2.14207758195698261260986328125">
        <ele>81.40000152587890625</ele>
        <time>2022-01-07T08:33:40.000Z</time>
      </trkpt>
      <trkpt lat="41.50905962102115154266357421875" lon="2.14211898855865001678466796875">
        <ele>81.40000152587890625</ele>
        <time>2022-01-07T08:33:41.000Z</time>
      </trkpt>
      <trkpt lat="41.509029529988765716552734375" lon="2.142162322998046875">
        <ele>81.40000152587890625</ele>
        <time>2022-01-07T08:33:42.000Z</time>
      </trkpt>
      <trkpt lat="41.5090022049844264984130859375" lon="2.1422033943235874176025390625">
        <ele>81.1999969482421875</ele>
        <time>2022-01-07T08:33:43.000Z</time>
      </trkpt>
      <trkpt lat="41.508972533047199249267578125" lon="2.14224538765847682952880859375">
        <ele>81.1999969482421875</ele>
        <time>2022-01-07T08:33:44.000Z</time>
      </trkpt>
      <trkpt lat="41.50894336402416229248046875" lon="2.1422870457172393798828125">
        <ele>81.1999969482421875</ele>
        <time>2022-01-07T08:33:45.000Z</time>
      </trkpt>
      <trkpt lat="41.508916206657886505126953125" lon="2.1423257701098918914794921875">
        <ele>81.1999969482421875</ele>
        <time>2022-01-07T08:33:46.000Z</time>
      </trkpt>
      <trkpt lat="41.5088878758251667022705078125" lon="2.1423613093793392181396484375">
        <ele>81.1999969482421875</ele>
        <time>2022-01-07T08:33:47.000Z</time>
      </trkpt>
      <trkpt lat="41.50885795243084430694580078125" lon="2.14239810593426227569580078125">
        <ele>81.1999969482421875</ele>
        <time>2022-01-07T08:33:48.000Z</time>
      </trkpt>
      <trkpt lat="41.50882844813168048858642578125" lon="2.14243817143142223358154296875">
        <ele>81.1999969482421875</ele>
        <time>2022-01-07T08:33:49.000Z</time>
      </trkpt>
      <trkpt lat="41.50879475288093090057373046875" lon="2.1424813382327556610107421875">
        <ele>81.1999969482421875</ele>
        <time>2022-01-07T08:33:50.000Z</time>
      </trkpt>
      <trkpt lat="41.5087675116956233978271484375" lon="2.1425232477486133575439453125">
        <ele>81.1999969482421875</ele>
        <time>2022-01-07T08:33:51.000Z</time>
      </trkpt>
      <trkpt lat="41.50874362327158451080322265625" lon="2.14255836792290210723876953125">
        <ele>81.1999969482421875</ele>
        <time>2022-01-07T08:33:52.000Z</time>
      </trkpt>
      <trkpt lat="41.5087188966572284698486328125" lon="2.14258988387882709503173828125">
        <ele>81.1999969482421875</ele>
        <time>2022-01-07T08:33:53.000Z</time>
      </trkpt>
      <trkpt lat="41.50868947617709636688232421875" lon="2.14262341149151325225830078125">
        <ele>81</ele>
        <time>2022-01-07T08:33:54.000Z</time>
      </trkpt>
      <trkpt lat="41.50866500101983547210693359375" lon="2.14266615919768810272216796875">
        <ele>81</ele>
        <time>2022-01-07T08:33:55.000Z</time>
      </trkpt>
      <trkpt lat="41.50864169932901859283447265625" lon="2.14271142147481441497802734375">
        <ele>81</ele>
        <time>2022-01-07T08:33:56.000Z</time>
      </trkpt>
      <trkpt lat="41.50861789472401142120361328125" lon="2.14275802485644817352294921875">
        <ele>80.8000030517578125</ele>
        <time>2022-01-07T08:33:57.000Z</time>
      </trkpt>
      <trkpt lat="41.5085958503186702728271484375" lon="2.1428075619041919708251953125">
        <ele>80.8000030517578125</ele>
        <time>2022-01-07T08:33:58.000Z</time>
      </trkpt>
      <trkpt lat="41.50857430882751941680908203125" lon="2.1428551711142063140869140625">
        <ele>80.8000030517578125</ele>
        <time>2022-01-07T08:33:59.000Z</time>
      </trkpt>
      <trkpt lat="41.50855536572635173797607421875" lon="2.14289649389684200286865234375">
        <ele>80.8000030517578125</ele>
        <time>2022-01-07T08:34:00.000Z</time>
      </trkpt>
      <trkpt lat="41.50853625498712062835693359375" lon="2.1429302729666233062744140625">
        <ele>80.8000030517578125</ele>
        <time>2022-01-07T08:34:01.000Z</time>
      </trkpt>
      <trkpt lat="41.5085170604288578033447265625" lon="2.14296271093189716339111328125">
        <ele>80.8000030517578125</ele>
        <time>2022-01-07T08:34:02.000Z</time>
      </trkpt>
      <trkpt lat="41.50849803350865840911865234375" lon="2.14300462044775485992431640625">
        <ele>80.59999847412109375</ele>
        <time>2022-01-07T08:34:03.000Z</time>
      </trkpt>
      <trkpt lat="41.50848738849163055419921875" lon="2.1430285088717937469482421875">
        <ele>80.59999847412109375</ele>
        <time>2022-01-07T08:34:04.000Z</time>
      </trkpt>
      <trkpt lat="41.50847238488495349884033203125" lon="2.14306262321770191192626953125">
        <ele>80.59999847412109375</ele>
        <time>2022-01-07T08:34:05.000Z</time>
      </trkpt>
      <trkpt lat="41.508456878364086151123046875" lon="2.14309849776327610015869140625">
        <ele>80.59999847412109375</ele>
        <time>2022-01-07T08:34:06.000Z</time>
      </trkpt>
      <trkpt lat="41.50844044983386993408203125" lon="2.14313487522304058074951171875">
        <ele>80.59999847412109375</ele>
        <time>2022-01-07T08:34:07.000Z</time>
      </trkpt>
      <trkpt lat="41.50842091999948024749755859375" lon="2.1431721746921539306640625">
        <ele>80.59999847412109375</ele>
        <time>2022-01-07T08:34:08.000Z</time>
      </trkpt>
      <trkpt lat="41.50840030051767826080322265625" lon="2.14320913888514041900634765625">
        <ele>80.40000152587890625</ele>
        <time>2022-01-07T08:34:09.000Z</time>
      </trkpt>
      <trkpt lat="41.50837984867393970489501953125" lon="2.14324794709682464599609375">
        <ele>80.40000152587890625</ele>
        <time>2022-01-07T08:34:10.000Z</time>
      </trkpt>
      <trkpt lat="41.5083608217537403106689453125" lon="2.1432860009372234344482421875">
        <ele>80.40000152587890625</ele>
        <time>2022-01-07T08:34:11.000Z</time>
      </trkpt>
      <trkpt lat="41.50834011845290660858154296875" lon="2.14331877417862415313720703125">
        <ele>80.40000152587890625</ele>
        <time>2022-01-07T08:34:12.000Z</time>
      </trkpt>
      <trkpt lat="41.50832151062786579132080078125" lon="2.14335146360099315643310546875">
        <ele>80.40000152587890625</ele>
        <time>2022-01-07T08:34:13.000Z</time>
      </trkpt>
      <trkpt lat="41.5083008073270320892333984375" lon="2.14338599704205989837646484375">
        <ele>80.40000152587890625</ele>
        <time>2022-01-07T08:34:14.000Z</time>
      </trkpt>
      <trkpt lat="41.50828144513070583343505859375" lon="2.143421955406665802001953125">
        <ele>80.40000152587890625</ele>
        <time>2022-01-07T08:34:15.000Z</time>
      </trkpt>
      <trkpt lat="41.50826199911534786224365234375" lon="2.14346143417060375213623046875">
        <ele>80.40000152587890625</ele>
        <time>2022-01-07T08:34:16.000Z</time>
      </trkpt>
      <trkpt lat="41.50824121199548244476318359375" lon="2.143503762781620025634765625">
        <ele>80.40000152587890625</ele>
        <time>2022-01-07T08:34:17.000Z</time>
      </trkpt>
      <trkpt lat="41.50822042487561702728271484375" lon="2.14354290626943111419677734375">
        <ele>80.1999969482421875</ele>
        <time>2022-01-07T08:34:18.000Z</time>
      </trkpt>
      <trkpt lat="41.50819544680416584014892578125" lon="2.1435807086527347564697265625">
        <ele>80.1999969482421875</ele>
        <time>2022-01-07T08:34:19.000Z</time>
      </trkpt>
      <trkpt lat="41.50817013345658779144287109375" lon="2.14361901395022869110107421875">
        <ele>80.1999969482421875</ele>
        <time>2022-01-07T08:34:20.000Z</time>
      </trkpt>
      <trkpt lat="41.50814632885158061981201171875" lon="2.14365874417126178741455078125">
        <ele>80.1999969482421875</ele>
        <time>2022-01-07T08:34:21.000Z</time>
      </trkpt>
      <trkpt lat="41.5081214345991611480712890625" lon="2.14370048604905605316162109375">
        <ele>80.1999969482421875</ele>
        <time>2022-01-07T08:34:22.000Z</time>
      </trkpt>
      <trkpt lat="41.5080969594419002532958984375" lon="2.14374415576457977294921875">
        <ele>80.1999969482421875</ele>
        <time>2022-01-07T08:34:23.000Z</time>
      </trkpt>
      <trkpt lat="41.5080709755420684814453125" lon="2.14378832839429378509521484375">
        <ele>80</ele>
        <time>2022-01-07T08:34:24.000Z</time>
      </trkpt>
      <trkpt lat="41.508045159280300140380859375" lon="2.14383292011916637420654296875">
        <ele>80</ele>
        <time>2022-01-07T08:34:25.000Z</time>
      </trkpt>
      <trkpt lat="41.508024036884307861328125" lon="2.14387717656791210174560546875">
        <ele>80</ele>
        <time>2022-01-07T08:34:26.000Z</time>
      </trkpt>
      <trkpt lat="41.50799713097512722015380859375" lon="2.14393232949078083038330078125">
        <ele>80</ele>
        <time>2022-01-07T08:34:27.000Z</time>
      </trkpt>
      <trkpt lat="41.50797349400818347930908203125" lon="2.1439816989004611968994140625">
        <ele>80</ele>
        <time>2022-01-07T08:34:28.000Z</time>
      </trkpt>
      <trkpt lat="41.50795320980250835418701171875" lon="2.14402285404503345489501953125">
        <ele>80</ele>
        <time>2022-01-07T08:34:29.000Z</time>
      </trkpt>
      <trkpt lat="41.50792680680751800537109375" lon="2.14407281018793582916259765625">
        <ele>80</ele>
        <time>2022-01-07T08:34:30.000Z</time>
      </trkpt>
      <trkpt lat="41.50790124200284481048583984375" lon="2.1441241912543773651123046875">
        <ele>79.8000030517578125</ele>
        <time>2022-01-07T08:34:31.000Z</time>
      </trkpt>
      <trkpt lat="41.50787810795009136199951171875" lon="2.14417842216789722442626953125">
        <ele>79.8000030517578125</ele>
        <time>2022-01-07T08:34:32.000Z</time>
      </trkpt>
      <trkpt lat="41.50785178877413272857666015625" lon="2.14423223398625850677490234375">
        <ele>79.8000030517578125</ele>
        <time>2022-01-07T08:34:33.000Z</time>
      </trkpt>
      <trkpt lat="41.50782295502722263336181640625" lon="2.14428420178592205047607421875">
        <ele>79.8000030517578125</ele>
        <time>2022-01-07T08:34:34.000Z</time>
      </trkpt>
      <trkpt lat="41.507797054946422576904296875" lon="2.144331894814968109130859375">
        <ele>79.8000030517578125</ele>
        <time>2022-01-07T08:34:35.000Z</time>
      </trkpt>
      <trkpt lat="41.5077673830091953277587890625" lon="2.1443793363869190216064453125">
        <ele>79.8000030517578125</ele>
        <time>2022-01-07T08:34:36.000Z</time>
      </trkpt>
      <trkpt lat="41.5077405609190464019775390625" lon="2.14442401193082332611083984375">
        <ele>79.59999847412109375</ele>
        <time>2022-01-07T08:34:37.000Z</time>
      </trkpt>
      <trkpt lat="41.50771633721888065338134765625" lon="2.14446927420794963836669921875">
        <ele>79.59999847412109375</ele>
        <time>2022-01-07T08:34:38.000Z</time>
      </trkpt>
      <trkpt lat="41.50768917985260486602783203125" lon="2.1445181407034397125244140625">
        <ele>79.59999847412109375</ele>
        <time>2022-01-07T08:34:39.000Z</time>
      </trkpt>
      <trkpt lat="41.507662944495677947998046875" lon="2.144565582275390625">
        <ele>79.59999847412109375</ele>
        <time>2022-01-07T08:34:40.000Z</time>
      </trkpt>
      <trkpt lat="41.5076351165771484375" lon="2.14460925199091434478759765625">
        <ele>79.40000152587890625</ele>
        <time>2022-01-07T08:34:41.000Z</time>
      </trkpt>
      <trkpt lat="41.507609300315380096435546875" lon="2.14465484954416751861572265625">
        <ele>79.40000152587890625</ele>
        <time>2022-01-07T08:34:42.000Z</time>
      </trkpt>
      <trkpt lat="41.507584154605865478515625" lon="2.14470170438289642333984375">
        <ele>79.40000152587890625</ele>
        <time>2022-01-07T08:34:43.000Z</time>
      </trkpt>
      <trkpt lat="41.50756076909601688385009765625" lon="2.14474990032613277435302734375">
        <ele>79.1999969482421875</ele>
        <time>2022-01-07T08:34:44.000Z</time>
      </trkpt>
      <trkpt lat="41.50753780268132686614990234375" lon="2.144801951944828033447265625">
        <ele>79.1999969482421875</ele>
        <time>2022-01-07T08:34:45.000Z</time>
      </trkpt>
      <trkpt lat="41.50751651264727115631103515625" lon="2.14485350064933300018310546875">
        <ele>79.1999969482421875</ele>
        <time>2022-01-07T08:34:46.000Z</time>
      </trkpt>
      <trkpt lat="41.50749539025127887725830078125" lon="2.14490345679223537445068359375">
        <ele>79.1999969482421875</ele>
        <time>2022-01-07T08:34:47.000Z</time>
      </trkpt>
      <trkpt lat="41.5074743516743183135986328125" lon="2.14495190419256687164306640625">
        <ele>79.1999969482421875</ele>
        <time>2022-01-07T08:34:48.000Z</time>
      </trkpt>
      <trkpt lat="41.50745079852640628814697265625" lon="2.14499968104064464569091796875">
        <ele>79.1999969482421875</ele>
        <time>2022-01-07T08:34:49.000Z</time>
      </trkpt>
      <trkpt lat="41.50742783211171627044677734375" lon="2.1450448594987392425537109375">
        <ele>79</ele>
        <time>2022-01-07T08:34:50.000Z</time>
      </trkpt>
      <trkpt lat="41.50740637443959712982177734375" lon="2.1450924687087535858154296875">
        <ele>79</ele>
        <time>2022-01-07T08:34:51.000Z</time>
      </trkpt>
      <trkpt lat="41.50738692842423915863037109375" lon="2.14513446204364299774169921875">
        <ele>79</ele>
        <time>2022-01-07T08:34:52.000Z</time>
      </trkpt>
      <trkpt lat="41.50736647658050060272216796875" lon="2.14517285116016864776611328125">
        <ele>79</ele>
        <time>2022-01-07T08:34:53.000Z</time>
      </trkpt>
      <trkpt lat="41.50734568946063518524169921875" lon="2.14521124027669429779052734375">
        <ele>79</ele>
        <time>2022-01-07T08:34:54.000Z</time>
      </trkpt>
      <trkpt lat="41.50732624344527721405029296875" lon="2.14524879120290279388427734375">
        <ele>79</ele>
        <time>2022-01-07T08:34:55.000Z</time>
      </trkpt>
      <trkpt lat="41.507304199039936065673828125" lon="2.1452882699668407440185546875">
        <ele>79</ele>
        <time>2022-01-07T08:34:56.000Z</time>
      </trkpt>
      <trkpt lat="41.507282070815563201904296875" lon="2.14532791636884212493896484375">
        <ele>79</ele>
        <time>2022-01-07T08:34:57.000Z</time>
      </trkpt>
      <trkpt lat="41.5072597749531269073486328125" lon="2.145367227494716644287109375">
        <ele>79</ele>
        <time>2022-01-07T08:34:58.000Z</time>
      </trkpt>
      <trkpt lat="41.50723705999553203582763671875" lon="2.14540670625865459442138671875">
        <ele>79</ele>
        <time>2022-01-07T08:34:59.000Z</time>
      </trkpt>
      <trkpt lat="41.5072166919708251953125" lon="2.14544459246098995208740234375">
        <ele>79</ele>
        <time>2022-01-07T08:35:00.000Z</time>
      </trkpt>
      <trkpt lat="41.50719682686030864715576171875" lon="2.145483903586864471435546875">
        <ele>79</ele>
        <time>2022-01-07T08:35:01.000Z</time>
      </trkpt>
      <trkpt lat="41.50717352516949176788330078125" lon="2.1455333568155765533447265625">
        <ele>78.8000030517578125</ele>
        <time>2022-01-07T08:35:02.000Z</time>
      </trkpt>
      <trkpt lat="41.50715843774378299713134765625" lon="2.1455635316669940948486328125">
        <ele>78.8000030517578125</ele>
        <time>2022-01-07T08:35:03.000Z</time>
      </trkpt>
      <trkpt lat="41.50713630951941013336181640625" lon="2.14560116641223430633544921875">
        <ele>78.8000030517578125</ele>
        <time>2022-01-07T08:35:04.000Z</time>
      </trkpt>
      <trkpt lat="41.5071132592856884002685546875" lon="2.14564022608101367950439453125">
        <ele>78.8000030517578125</ele>
        <time>2022-01-07T08:35:05.000Z</time>
      </trkpt>
      <trkpt lat="41.507088281214237213134765625" lon="2.14568180032074451446533203125">
        <ele>78.8000030517578125</ele>
        <time>2022-01-07T08:35:06.000Z</time>
      </trkpt>
      <trkpt lat="41.5070633031427860260009765625" lon="2.14572672732174396514892578125">
        <ele>78.8000030517578125</ele>
        <time>2022-01-07T08:35:07.000Z</time>
      </trkpt>
      <trkpt lat="41.507040001451969146728515625" lon="2.145770899951457977294921875">
        <ele>78.8000030517578125</ele>
        <time>2022-01-07T08:35:08.000Z</time>
      </trkpt>
      <trkpt lat="41.50701594538986682891845703125" lon="2.1458153240382671356201171875">
        <ele>78.8000030517578125</ele>
        <time>2022-01-07T08:35:09.000Z</time>
      </trkpt>
      <trkpt lat="41.5069939009845256805419921875" lon="2.14586067013442516326904296875">
        <ele>78.8000030517578125</ele>
        <time>2022-01-07T08:35:10.000Z</time>
      </trkpt>
      <trkpt lat="41.50697235949337482452392578125" lon="2.145904004573822021484375">
        <ele>78.8000030517578125</ele>
        <time>2022-01-07T08:35:11.000Z</time>
      </trkpt>
      <trkpt lat="41.50695241056382656097412109375" lon="2.14594624936580657958984375">
        <ele>78.8000030517578125</ele>
        <time>2022-01-07T08:35:12.000Z</time>
      </trkpt>
      <trkpt lat="41.50693430565297603607177734375" lon="2.14598639868199825286865234375">
        <ele>78.8000030517578125</ele>
        <time>2022-01-07T08:35:13.000Z</time>
      </trkpt>
      <trkpt lat="41.5069144405424594879150390625" lon="2.1460238657891750335693359375">
        <ele>78.8000030517578125</ele>
        <time>2022-01-07T08:35:14.000Z</time>
      </trkpt>
      <trkpt lat="41.5068923123180866241455078125" lon="2.1460580639541149139404296875">
        <ele>78.59999847412109375</ele>
        <time>2022-01-07T08:35:15.000Z</time>
      </trkpt>
      <trkpt lat="41.5068681724369525909423828125" lon="2.14609284885227680206298828125">
        <ele>78.59999847412109375</ele>
        <time>2022-01-07T08:35:16.000Z</time>
      </trkpt>
      <trkpt lat="41.50684721767902374267578125" lon="2.1461281366646289825439453125">
        <ele>78.59999847412109375</ele>
        <time>2022-01-07T08:35:17.000Z</time>
      </trkpt>
      <trkpt lat="41.50682718493044376373291015625" lon="2.146164514124393463134765625">
        <ele>78.40000152587890625</ele>
        <time>2022-01-07T08:35:18.000Z</time>
      </trkpt>
      <trkpt lat="41.50680270977318286895751953125" lon="2.14620416052639484405517578125">
        <ele>78.40000152587890625</ele>
        <time>2022-01-07T08:35:19.000Z</time>
      </trkpt>
      <trkpt lat="41.506778486073017120361328125" lon="2.14623886160552501678466796875">
        <ele>78.40000152587890625</ele>
        <time>2022-01-07T08:35:20.000Z</time>
      </trkpt>
      <trkpt lat="41.50675007142126560211181640625" lon="2.1462749876081943511962890625">
        <ele>78.40000152587890625</ele>
        <time>2022-01-07T08:35:21.000Z</time>
      </trkpt>
      <trkpt lat="41.5067179687321186065673828125" lon="2.14630826376378536224365234375">
        <ele>78.40000152587890625</ele>
        <time>2022-01-07T08:35:22.000Z</time>
      </trkpt>
      <trkpt lat="41.50668670423328876495361328125" lon="2.14634296484291553497314453125">
        <ele>78.40000152587890625</ele>
        <time>2022-01-07T08:35:23.000Z</time>
      </trkpt>
      <trkpt lat="41.5066572837531566619873046875" lon="2.146379090845584869384765625">
        <ele>78.40000152587890625</ele>
        <time>2022-01-07T08:35:24.000Z</time>
      </trkpt>
      <trkpt lat="41.50662886910140514373779296875" lon="2.1464122831821441650390625">
        <ele>78.1999969482421875</ele>
        <time>2022-01-07T08:35:25.000Z</time>
      </trkpt>
      <trkpt lat="41.5066012926399707794189453125" lon="2.14644622988998889923095703125">
        <ele>78.1999969482421875</ele>
        <time>2022-01-07T08:35:26.000Z</time>
      </trkpt>
      <trkpt lat="41.50657036341726779937744140625" lon="2.14647925458848476409912109375">
        <ele>78.1999969482421875</ele>
        <time>2022-01-07T08:35:27.000Z</time>
      </trkpt>
      <trkpt lat="41.5065305493772029876708984375" lon="2.146518565714359283447265625">
        <ele>78.1999969482421875</ele>
        <time>2022-01-07T08:35:28.000Z</time>
      </trkpt>
      <trkpt lat="41.5065033920109272003173828125" lon="2.146544046700000762939453125">
        <ele>78.1999969482421875</ele>
        <time>2022-01-07T08:35:29.000Z</time>
      </trkpt>
      <trkpt lat="41.50646927766501903533935546875" lon="2.1465737186372280120849609375">
        <ele>78.1999969482421875</ele>
        <time>2022-01-07T08:35:30.000Z</time>
      </trkpt>
      <trkpt lat="41.506435163319110870361328125" lon="2.14660850353538990020751953125">
        <ele>78</ele>
        <time>2022-01-07T08:35:31.000Z</time>
      </trkpt>
      <trkpt lat="41.50640188716351985931396484375" lon="2.14664588682353496551513671875">
        <ele>78</ele>
        <time>2022-01-07T08:35:32.000Z</time>
      </trkpt>
      <trkpt lat="41.5063662640750408172607421875" lon="2.14668243192136287689208984375">
        <ele>78</ele>
        <time>2022-01-07T08:35:33.000Z</time>
      </trkpt>
      <trkpt lat="41.5063317306339740753173828125" lon="2.14671847410500049591064453125">
        <ele>77.8000030517578125</ele>
        <time>2022-01-07T08:35:34.000Z</time>
      </trkpt>
      <trkpt lat="41.50629728101193904876708984375" lon="2.14675434865057468414306640625">
        <ele>77.8000030517578125</ele>
        <time>2022-01-07T08:35:35.000Z</time>
      </trkpt>
      <trkpt lat="41.506261490285396575927734375" lon="2.14678904972970485687255859375">
        <ele>77.8000030517578125</ele>
        <time>2022-01-07T08:35:36.000Z</time>
      </trkpt>
      <trkpt lat="41.50622419081628322601318359375" lon="2.14682559482753276824951171875">
        <ele>77.8000030517578125</ele>
        <time>2022-01-07T08:35:37.000Z</time>
      </trkpt>
      <trkpt lat="41.5061865560710430145263671875" lon="2.14686146937310695648193359375">
        <ele>77.8000030517578125</ele>
        <time>2022-01-07T08:35:38.000Z</time>
      </trkpt>
      <trkpt lat="41.5061503462493419647216796875" lon="2.14689566753804683685302734375">
        <ele>77.8000030517578125</ele>
        <time>2022-01-07T08:35:39.000Z</time>
      </trkpt>
      <trkpt lat="41.5061144717037677764892578125" lon="2.14693129062652587890625">
        <ele>77.59999847412109375</ele>
        <time>2022-01-07T08:35:40.000Z</time>
      </trkpt>
      <trkpt lat="41.5060785971581935882568359375" lon="2.146968506276607513427734375">
        <ele>77.59999847412109375</ele>
        <time>2022-01-07T08:35:41.000Z</time>
      </trkpt>
      <trkpt lat="41.5060433931648731231689453125" lon="2.147008739411830902099609375">
        <ele>77.59999847412109375</ele>
        <time>2022-01-07T08:35:42.000Z</time>
      </trkpt>
      <trkpt lat="41.506005339324474334716796875" lon="2.1470467932522296905517578125">
        <ele>77.59999847412109375</ele>
        <time>2022-01-07T08:35:43.000Z</time>
      </trkpt>
      <trkpt lat="41.5059692971408367156982421875" lon="2.1470801532268524169921875">
        <ele>77.59999847412109375</ele>
        <time>2022-01-07T08:35:44.000Z</time>
      </trkpt>
      <trkpt lat="41.50593300350010395050048828125" lon="2.14710873551666736602783203125">
        <ele>77.59999847412109375</ele>
        <time>2022-01-07T08:35:45.000Z</time>
      </trkpt>
      <trkpt lat="41.50589612312614917755126953125" lon="2.14713388122618198394775390625">
        <ele>77.59999847412109375</ele>
        <time>2022-01-07T08:35:46.000Z</time>
      </trkpt>
      <trkpt lat="41.5058579854667186737060546875" lon="2.14715802110731601715087890625">
        <ele>77.59999847412109375</ele>
        <time>2022-01-07T08:35:47.000Z</time>
      </trkpt>
      <trkpt lat="41.505818255245685577392578125" lon="2.1471805684268474578857421875">
        <ele>77.59999847412109375</ele>
        <time>2022-01-07T08:35:48.000Z</time>
      </trkpt>
      <trkpt lat="41.5057788603007793426513671875" lon="2.147205211222171783447265625">
        <ele>77.59999847412109375</ele>
        <time>2022-01-07T08:35:49.000Z</time>
      </trkpt>
      <trkpt lat="41.50573887862265110015869140625" lon="2.14722893200814723968505859375">
        <ele>77.40000152587890625</ele>
        <time>2022-01-07T08:35:50.000Z</time>
      </trkpt>
      <trkpt lat="41.5056906826794147491455078125" lon="2.147258855402469635009765625">
        <ele>77.40000152587890625</ele>
        <time>2022-01-07T08:35:51.000Z</time>
      </trkpt>
      <trkpt lat="41.505656652152538299560546875" lon="2.14727721177041530609130859375">
        <ele>77.40000152587890625</ele>
        <time>2022-01-07T08:35:52.000Z</time>
      </trkpt>
      <trkpt lat="41.50560577400028705596923828125" lon="2.14730679988861083984375">
        <ele>77.40000152587890625</ele>
        <time>2022-01-07T08:35:53.000Z</time>
      </trkpt>
      <trkpt lat="41.505572833120822906494140625" lon="2.14732364751398563385009765625">
        <ele>77.40000152587890625</ele>
        <time>2022-01-07T08:35:54.000Z</time>
      </trkpt>
      <trkpt lat="41.50553285144269466400146484375" lon="2.14734175242483615875244140625">
        <ele>77.40000152587890625</ele>
        <time>2022-01-07T08:35:55.000Z</time>
      </trkpt>
      <trkpt lat="41.50549362413585186004638671875" lon="2.1473606117069721221923828125">
        <ele>77.40000152587890625</ele>
        <time>2022-01-07T08:35:56.000Z</time>
      </trkpt>
      <trkpt lat="41.50545381009578704833984375" lon="2.14738014154136180877685546875">
        <ele>77.40000152587890625</ele>
        <time>2022-01-07T08:35:57.000Z</time>
      </trkpt>
      <trkpt lat="41.5054130740463733673095703125" lon="2.14739589951932430267333984375">
        <ele>77.40000152587890625</ele>
        <time>2022-01-07T08:35:58.000Z</time>
      </trkpt>
      <trkpt lat="41.50537275709211826324462890625" lon="2.1474058739840984344482421875">
        <ele>77.40000152587890625</ele>
        <time>2022-01-07T08:35:59.000Z</time>
      </trkpt>
      <trkpt lat="41.50533218868076801300048828125" lon="2.14741073548793792724609375">
        <ele>77.40000152587890625</ele>
        <time>2022-01-07T08:36:00.000Z</time>
      </trkpt>
      <trkpt lat="41.50529011152684688568115234375" lon="2.14741534553468227386474609375">
        <ele>77.40000152587890625</ele>
        <time>2022-01-07T08:36:01.000Z</time>
      </trkpt>
      <trkpt lat="41.50524753145873546600341796875" lon="2.14741744101047515869140625">
        <ele>77.40000152587890625</ele>
        <time>2022-01-07T08:36:02.000Z</time>
      </trkpt>
      <trkpt lat="41.5052045322954654693603515625" lon="2.14741341769695281982421875">
        <ele>77.40000152587890625</ele>
        <time>2022-01-07T08:36:03.000Z</time>
      </trkpt>
      <trkpt lat="41.5051626227796077728271484375" lon="2.14740478433668613433837890625">
        <ele>77.1999969482421875</ele>
        <time>2022-01-07T08:36:04.000Z</time>
      </trkpt>
      <trkpt lat="41.505117528140544891357421875" lon="2.1473964862525463104248046875">
        <ele>77.1999969482421875</ele>
        <time>2022-01-07T08:36:05.000Z</time>
      </trkpt>
      <trkpt lat="41.505071930587291717529296875" lon="2.14738802053034305572509765625">
        <ele>77.1999969482421875</ele>
        <time>2022-01-07T08:36:06.000Z</time>
      </trkpt>
      <trkpt lat="41.5050265006721019744873046875" lon="2.14738416485488414764404296875">
        <ele>77.1999969482421875</ele>
        <time>2022-01-07T08:36:07.000Z</time>
      </trkpt>
      <trkpt lat="41.5049837529659271240234375" lon="2.1473874337971210479736328125">
        <ele>77</ele>
        <time>2022-01-07T08:36:08.000Z</time>
      </trkpt>
      <trkpt lat="41.50494142435491085052490234375" lon="2.14740361087024211883544921875">
        <ele>77</ele>
        <time>2022-01-07T08:36:09.000Z</time>
      </trkpt>
      <trkpt lat="41.504902951419353485107421875" lon="2.14743085205554962158203125">
        <ele>77</ele>
        <time>2022-01-07T08:36:10.000Z</time>
      </trkpt>
      <trkpt lat="41.50485844351351261138916015625" lon="2.1474645473062992095947265625">
        <ele>77</ele>
        <time>2022-01-07T08:36:11.000Z</time>
      </trkpt>
      <trkpt lat="41.50482080876827239990234375" lon="2.1474943868815898895263671875">
        <ele>76.8000030517578125</ele>
        <time>2022-01-07T08:36:12.000Z</time>
      </trkpt>
      <trkpt lat="41.50478459894657135009765625" lon="2.1475248970091342926025390625">
        <ele>76.8000030517578125</ele>
        <time>2022-01-07T08:36:13.000Z</time>
      </trkpt>
      <trkpt lat="41.50475417263805866241455078125" lon="2.1475490368902683258056640625">
        <ele>76.8000030517578125</ele>
        <time>2022-01-07T08:36:14.000Z</time>
      </trkpt>
      <trkpt lat="41.50471444241702556610107421875" lon="2.147577702999114990234375">
        <ele>76.59999847412109375</ele>
        <time>2022-01-07T08:36:15.000Z</time>
      </trkpt>
      <trkpt lat="41.50466348044574260711669921875" lon="2.1476073749363422393798828125">
        <ele>76.59999847412109375</ele>
        <time>2022-01-07T08:36:16.000Z</time>
      </trkpt>
      <trkpt lat="41.5046161226928234100341796875" lon="2.1476214565336704254150390625">
        <ele>76.40000152587890625</ele>
        <time>2022-01-07T08:36:17.000Z</time>
      </trkpt>
      <trkpt lat="41.5045681782066822052001953125" lon="2.1476301737129688262939453125">
        <ele>76.40000152587890625</ele>
        <time>2022-01-07T08:36:18.000Z</time>
      </trkpt>
      <trkpt lat="41.5045289508998394012451171875" lon="2.1476341970264911651611328125">
        <ele>76.40000152587890625</ele>
        <time>2022-01-07T08:36:19.000Z</time>
      </trkpt>
      <trkpt lat="41.50448008440434932708740234375" lon="2.1476385556161403656005859375">
        <ele>76.1999969482421875</ele>
        <time>2022-01-07T08:36:20.000Z</time>
      </trkpt>
      <trkpt lat="41.50442384183406829833984375" lon="2.147640399634838104248046875">
        <ele>76.1999969482421875</ele>
        <time>2022-01-07T08:36:21.000Z</time>
      </trkpt>
      <trkpt lat="41.50437665171921253204345703125" lon="2.14764031581580638885498046875">
        <ele>76</ele>
        <time>2022-01-07T08:36:22.000Z</time>
      </trkpt>
      <trkpt lat="41.50432971306145191192626953125" lon="2.1476398967206478118896484375">
        <ele>75.8000030517578125</ele>
        <time>2022-01-07T08:36:23.000Z</time>
      </trkpt>
      <trkpt lat="41.50429241359233856201171875" lon="2.1476419083774089813232421875">
        <ele>75.59999847412109375</ele>
        <time>2022-01-07T08:36:24.000Z</time>
      </trkpt>
      <trkpt lat="41.50423533283174037933349609375" lon="2.1476407349109649658203125">
        <ele>75.40000152587890625</ele>
        <time>2022-01-07T08:36:25.000Z</time>
      </trkpt>
      <trkpt lat="41.5041883103549480438232421875" lon="2.1476395614445209503173828125">
        <ele>75.40000152587890625</ele>
        <time>2022-01-07T08:36:26.000Z</time>
      </trkpt>
      <trkpt lat="41.50414950214326381683349609375" lon="2.147636376321315765380859375">
        <ele>75.40000152587890625</ele>
        <time>2022-01-07T08:36:27.000Z</time>
      </trkpt>
      <trkpt lat="41.50410256348550319671630859375" lon="2.1476331911981105804443359375">
        <ele>75</ele>
        <time>2022-01-07T08:36:28.000Z</time>
      </trkpt>
      <trkpt lat="41.5040575526654720306396484375" lon="2.1476321853697299957275390625">
        <ele>75.1999969482421875</ele>
        <time>2022-01-07T08:36:29.000Z</time>
      </trkpt>
      <trkpt lat="41.50400449521839618682861328125" lon="2.1476335264742374420166015625">
        <ele>75</ele>
        <time>2022-01-07T08:36:30.000Z</time>
      </trkpt>
      <trkpt lat="41.50396308861672878265380859375" lon="2.147634364664554595947265625">
        <ele>74.8000030517578125</ele>
        <time>2022-01-07T08:36:31.000Z</time>
      </trkpt>
      <trkpt lat="41.50392335839569568634033203125" lon="2.14763461612164974212646484375">
        <ele>74.8000030517578125</ele>
        <time>2022-01-07T08:36:32.000Z</time>
      </trkpt>
      <trkpt lat="41.5038925968110561370849609375" lon="2.147636376321315765380859375">
        <ele>74.59999847412109375</ele>
        <time>2022-01-07T08:36:33.000Z</time>
      </trkpt>
      <trkpt lat="41.503854207694530487060546875" lon="2.14763478375971317291259765625">
        <ele>74.59999847412109375</ele>
        <time>2022-01-07T08:36:34.000Z</time>
      </trkpt>
      <trkpt lat="41.50380735285580158233642578125" lon="2.14763327501714229583740234375">
        <ele>74.59999847412109375</ele>
        <time>2022-01-07T08:36:35.000Z</time>
      </trkpt>
      <trkpt lat="41.5037749148905277252197265625" lon="2.14763612486422061920166015625">
        <ele>74.59999847412109375</ele>
        <time>2022-01-07T08:36:36.000Z</time>
      </trkpt>
      <trkpt lat="41.50373359210789203643798828125" lon="2.147636376321315765380859375">
        <ele>74.59999847412109375</ele>
        <time>2022-01-07T08:36:37.000Z</time>
      </trkpt>
      <trkpt lat="41.503693275153636932373046875" lon="2.147637046873569488525390625">
        <ele>74.40000152587890625</ele>
        <time>2022-01-07T08:36:38.000Z</time>
      </trkpt>
      <trkpt lat="41.50365295819938182830810546875" lon="2.1476375497877597808837890625">
        <ele>74.40000152587890625</ele>
        <time>2022-01-07T08:36:39.000Z</time>
      </trkpt>
      <trkpt lat="41.50361021049320697784423828125" lon="2.1476388908922672271728515625">
        <ele>74.40000152587890625</ele>
        <time>2022-01-07T08:36:40.000Z</time>
      </trkpt>
      <trkpt lat="41.503567211329936981201171875" lon="2.14764132164418697357177734375">
        <ele>74.40000152587890625</ele>
        <time>2022-01-07T08:36:41.000Z</time>
      </trkpt>
      <trkpt lat="41.50352471508085727691650390625" lon="2.14764283038675785064697265625">
        <ele>74.40000152587890625</ele>
        <time>2022-01-07T08:36:42.000Z</time>
      </trkpt>
      <trkpt lat="41.50348314084112644195556640625" lon="2.14764668606221675872802734375">
        <ele>74.40000152587890625</ele>
        <time>2022-01-07T08:36:43.000Z</time>
      </trkpt>
      <trkpt lat="41.5034416504204273223876953125" lon="2.147647105157375335693359375">
        <ele>74.40000152587890625</ele>
        <time>2022-01-07T08:36:44.000Z</time>
      </trkpt>
      <trkpt lat="41.50339982472360134124755859375" lon="2.14764668606221675872802734375">
        <ele>74.40000152587890625</ele>
        <time>2022-01-07T08:36:45.000Z</time>
      </trkpt>
      <trkpt lat="41.5033581666648387908935546875" lon="2.147646434605121612548828125">
        <ele>74.1999969482421875</ele>
        <time>2022-01-07T08:36:46.000Z</time>
      </trkpt>
      <trkpt lat="41.503308713436126708984375" lon="2.1476472727954387664794921875">
        <ele>74.1999969482421875</ele>
        <time>2022-01-07T08:36:47.000Z</time>
      </trkpt>
      <trkpt lat="41.503272838890552520751953125" lon="2.1476472727954387664794921875">
        <ele>74.1999969482421875</ele>
        <time>2022-01-07T08:36:48.000Z</time>
      </trkpt>
      <trkpt lat="41.503228582441806793212890625" lon="2.14764970354735851287841796875">
        <ele>74</ele>
        <time>2022-01-07T08:36:49.000Z</time>
      </trkpt>
      <trkpt lat="41.503176279366016387939453125" lon="2.14765372686088085174560546875">
        <ele>74</ele>
        <time>2022-01-07T08:36:50.000Z</time>
      </trkpt>
      <trkpt lat="41.50313395075500011444091796875" lon="2.14765615761280059814453125">
        <ele>74</ele>
        <time>2022-01-07T08:36:51.000Z</time>
      </trkpt>
      <trkpt lat="41.5030929632484912872314453125" lon="2.14765741489827632904052734375">
        <ele>74</ele>
        <time>2022-01-07T08:36:52.000Z</time>
      </trkpt>
      <trkpt lat="41.50306153111159801483154296875" lon="2.14765741489827632904052734375">
        <ele>74</ele>
        <time>2022-01-07T08:36:53.000Z</time>
      </trkpt>
      <trkpt lat="41.50302280671894550323486328125" lon="2.147659845650196075439453125">
        <ele>73.8000030517578125</ele>
        <time>2022-01-07T08:36:54.000Z</time>
      </trkpt>
      <trkpt lat="41.502974443137645721435546875" lon="2.147663198411464691162109375">
        <ele>73.8000030517578125</ele>
        <time>2022-01-07T08:36:55.000Z</time>
      </trkpt>
      <trkpt lat="41.50293379090726375579833984375" lon="2.1476648747920989990234375">
        <ele>73.8000030517578125</ele>
        <time>2022-01-07T08:36:56.000Z</time>
      </trkpt>
      <trkpt lat="41.50289355777204036712646484375" lon="2.1476648747920989990234375">
        <ele>73.8000030517578125</ele>
        <time>2022-01-07T08:36:57.000Z</time>
      </trkpt>
      <trkpt lat="41.5028602816164493560791015625" lon="2.14766395278275012969970703125">
        <ele>73.8000030517578125</ele>
        <time>2022-01-07T08:36:58.000Z</time>
      </trkpt>
      <trkpt lat="41.5028177015483379364013671875" lon="2.14766152203083038330078125">
        <ele>73.59999847412109375</ele>
        <time>2022-01-07T08:36:59.000Z</time>
      </trkpt>
      <trkpt lat="41.50277889333665370941162109375" lon="2.147661857306957244873046875">
        <ele>73.59999847412109375</ele>
        <time>2022-01-07T08:37:00.000Z</time>
      </trkpt>
      <trkpt lat="41.502733714878559112548828125" lon="2.147663868963718414306640625">
        <ele>73.59999847412109375</ele>
        <time>2022-01-07T08:37:01.000Z</time>
      </trkpt>
      <trkpt lat="41.5027027018368244171142578125" lon="2.147666551172733306884765625">
        <ele>73.59999847412109375</ele>
        <time>2022-01-07T08:37:02.000Z</time>
      </trkpt>
      <trkpt lat="41.5026636421680450439453125" lon="2.14766688644886016845703125">
        <ele>73.59999847412109375</ele>
        <time>2022-01-07T08:37:03.000Z</time>
      </trkpt>
      <trkpt lat="41.50262483395636081695556640625" lon="2.14766730554401874542236328125">
        <ele>73.59999847412109375</ele>
        <time>2022-01-07T08:37:04.000Z</time>
      </trkpt>
      <trkpt lat="41.50258493609726428985595703125" lon="2.14766713790595531463623046875">
        <ele>73.59999847412109375</ele>
        <time>2022-01-07T08:37:05.000Z</time>
      </trkpt>
      <trkpt lat="41.502547301352024078369140625" lon="2.14766965247690677642822265625">
        <ele>73.59999847412109375</ele>
        <time>2022-01-07T08:37:06.000Z</time>
      </trkpt>
      <trkpt lat="41.50249759666621685028076171875" lon="2.1476740948855876922607421875">
        <ele>73.40000152587890625</ele>
        <time>2022-01-07T08:37:07.000Z</time>
      </trkpt>
      <trkpt lat="41.5024639852344989776611328125" lon="2.147676944732666015625">
        <ele>73.40000152587890625</ele>
        <time>2022-01-07T08:37:08.000Z</time>
      </trkpt>
      <trkpt lat="41.502423919737339019775390625" lon="2.14768029749393463134765625">
        <ele>73.40000152587890625</ele>
        <time>2022-01-07T08:37:09.000Z</time>
      </trkpt>
      <trkpt lat="41.5023865364491939544677734375" lon="2.14768256060779094696044921875">
        <ele>73.40000152587890625</ele>
        <time>2022-01-07T08:37:10.000Z</time>
      </trkpt>
      <trkpt lat="41.50234404020011425018310546875" lon="2.14768222533166408538818359375">
        <ele>73.40000152587890625</ele>
        <time>2022-01-07T08:37:11.000Z</time>
      </trkpt>
      <trkpt lat="41.50231000967323780059814453125" lon="2.147678621113300323486328125">
        <ele>73.40000152587890625</ele>
        <time>2022-01-07T08:37:12.000Z</time>
      </trkpt>
      <trkpt lat="41.5022809244692325592041015625" lon="2.14767769910395145416259765625">
        <ele>73.40000152587890625</ele>
        <time>2022-01-07T08:37:13.000Z</time>
      </trkpt>
      <trkpt lat="41.50224412791430950164794921875" lon="2.1476794593036174774169921875">
        <ele>73.1999969482421875</ele>
        <time>2022-01-07T08:37:14.000Z</time>
      </trkpt>
      <trkpt lat="41.50220297276973724365234375" lon="2.14768356643617153167724609375">
        <ele>73.1999969482421875</ele>
        <time>2022-01-07T08:37:15.000Z</time>
      </trkpt>
      <trkpt lat="41.50216382928192615509033203125" lon="2.147692032158374786376953125">
        <ele>73.1999969482421875</ele>
        <time>2022-01-07T08:37:16.000Z</time>
      </trkpt>
      <trkpt lat="41.5021266974508762359619140625" lon="2.14770250953733921051025390625">
        <ele>73.1999969482421875</ele>
        <time>2022-01-07T08:37:17.000Z</time>
      </trkpt>
      <trkpt lat="41.502087973058223724365234375" lon="2.14770904742181301116943359375">
        <ele>73</ele>
        <time>2022-01-07T08:37:18.000Z</time>
      </trkpt>
      <trkpt lat="41.50204715318977832794189453125" lon="2.147708125412464141845703125">
        <ele>73</ele>
        <time>2022-01-07T08:37:19.000Z</time>
      </trkpt>
      <trkpt lat="41.5020065009593963623046875" lon="2.14770418591797351837158203125">
        <ele>73</ele>
        <time>2022-01-07T08:37:20.000Z</time>
      </trkpt>
      <trkpt lat="41.5019580535590648651123046875" lon="2.14770837686955928802490234375">
        <ele>73</ele>
        <time>2022-01-07T08:37:21.000Z</time>
      </trkpt>
      <trkpt lat="41.50191958062350749969482421875" lon="2.147716172039508819580078125">
        <ele>73</ele>
        <time>2022-01-07T08:37:22.000Z</time>
      </trkpt>
      <trkpt lat="41.50188907049596309661865234375" lon="2.14772480539977550506591796875">
        <ele>72.8000030517578125</ele>
        <time>2022-01-07T08:37:23.000Z</time>
      </trkpt>
      <trkpt lat="41.50185151956975460052490234375" lon="2.147733271121978759765625">
        <ele>72.8000030517578125</ele>
        <time>2022-01-07T08:37:24.000Z</time>
      </trkpt>
      <trkpt lat="41.501813717186450958251953125" lon="2.14773821644484996795654296875">
        <ele>72.8000030517578125</ele>
        <time>2022-01-07T08:37:25.000Z</time>
      </trkpt>
      <trkpt lat="41.50177608244121074676513671875" lon="2.14774324558675289154052734375">
        <ele>72.8000030517578125</ele>
        <time>2022-01-07T08:37:26.000Z</time>
      </trkpt>
      <trkpt lat="41.50173082016408443450927734375" lon="2.147747017443180084228515625">
        <ele>72.8000030517578125</ele>
        <time>2022-01-07T08:37:27.000Z</time>
      </trkpt>
      <trkpt lat="41.501699723303318023681640625" lon="2.14775003492832183837890625">
        <ele>72.59999847412109375</ele>
        <time>2022-01-07T08:37:28.000Z</time>
      </trkpt>
      <trkpt lat="41.50165990926325321197509765625" lon="2.14775598607957363128662109375">
        <ele>72.59999847412109375</ele>
        <time>2022-01-07T08:37:29.000Z</time>
      </trkpt>
      <trkpt lat="41.50162185542285442352294921875" lon="2.147762440145015716552734375">
        <ele>72.59999847412109375</ele>
        <time>2022-01-07T08:37:30.000Z</time>
      </trkpt>
      <trkpt lat="41.501573659479618072509765625" lon="2.14776604436337947845458984375">
        <ele>72.59999847412109375</ele>
        <time>2022-01-07T08:37:31.000Z</time>
      </trkpt>
      <trkpt lat="41.50153820402920246124267578125" lon="2.14777040295302867889404296875">
        <ele>72.59999847412109375</ele>
        <time>2022-01-07T08:37:32.000Z</time>
      </trkpt>
      <trkpt lat="41.50149662978947162628173828125" lon="2.14777895249426364898681640625">
        <ele>72.40000152587890625</ele>
        <time>2022-01-07T08:37:33.000Z</time>
      </trkpt>
      <trkpt lat="41.50145463645458221435546875" lon="2.14779001660645008087158203125">
        <ele>72.40000152587890625</ele>
        <time>2022-01-07T08:37:34.000Z</time>
      </trkpt>
      <trkpt lat="41.50141465477645397186279296875" lon="2.14779906906187534332275390625">
        <ele>72.40000152587890625</ele>
        <time>2022-01-07T08:37:35.000Z</time>
      </trkpt>
      <trkpt lat="41.5013740025460720062255859375" lon="2.14780904352664947509765625">
        <ele>72.40000152587890625</ele>
        <time>2022-01-07T08:37:36.000Z</time>
      </trkpt>
      <trkpt lat="41.50133452378213405609130859375" lon="2.1478192694485187530517578125">
        <ele>72.1999969482421875</ele>
        <time>2022-01-07T08:37:37.000Z</time>
      </trkpt>
      <trkpt lat="41.50129697285592555999755859375" lon="2.1478284895420074462890625">
        <ele>72.1999969482421875</ele>
        <time>2022-01-07T08:37:38.000Z</time>
      </trkpt>
      <trkpt lat="41.5012583322823047637939453125" lon="2.1478346921503543853759765625">
        <ele>72.1999969482421875</ele>
        <time>2022-01-07T08:37:39.000Z</time>
      </trkpt>
      <trkpt lat="41.5012164227664470672607421875" lon="2.1478380449116230010986328125">
        <ele>72</ele>
        <time>2022-01-07T08:37:40.000Z</time>
      </trkpt>
      <trkpt lat="41.50117568671703338623046875" lon="2.147846929728984832763671875">
        <ele>72</ele>
        <time>2022-01-07T08:37:41.000Z</time>
      </trkpt>
      <trkpt lat="41.50113436393439769744873046875" lon="2.14785941876471042633056640625">
        <ele>71.8000030517578125</ele>
        <time>2022-01-07T08:37:42.000Z</time>
      </trkpt>
      <trkpt lat="41.501092873513698577880859375" lon="2.14787383563816547393798828125">
        <ele>71.8000030517578125</ele>
        <time>2022-01-07T08:37:43.000Z</time>
      </trkpt>
      <trkpt lat="41.5010507963597774505615234375" lon="2.14788389392197132110595703125">
        <ele>71.59999847412109375</ele>
        <time>2022-01-07T08:37:44.000Z</time>
      </trkpt>
      <trkpt lat="41.50100796483457088470458984375" lon="2.14789546094834804534912109375">
        <ele>71.59999847412109375</ele>
        <time>2022-01-07T08:37:45.000Z</time>
      </trkpt>
      <trkpt lat="41.5009679831564426422119140625" lon="2.14790836907923221588134765625">
        <ele>71.59999847412109375</ele>
        <time>2022-01-07T08:37:46.000Z</time>
      </trkpt>
      <trkpt lat="41.50093202479183673858642578125" lon="2.14791842736303806304931640625">
        <ele>71.59999847412109375</ele>
        <time>2022-01-07T08:37:47.000Z</time>
      </trkpt>
      <trkpt lat="41.50089598260819911956787109375" lon="2.14792865328490734100341796875">
        <ele>71.40000152587890625</ele>
        <time>2022-01-07T08:37:48.000Z</time>
      </trkpt>
      <trkpt lat="41.5008576773107051849365234375" lon="2.14793980121612548828125">
        <ele>71.40000152587890625</ele>
        <time>2022-01-07T08:37:49.000Z</time>
      </trkpt>
      <trkpt lat="41.500819623470306396484375" lon="2.14794927276670932769775390625">
        <ele>71.1999969482421875</ele>
        <time>2022-01-07T08:37:50.000Z</time>
      </trkpt>
      <trkpt lat="41.500782072544097900390625" lon="2.14795983396470546722412109375">
        <ele>71.1999969482421875</ele>
        <time>2022-01-07T08:37:51.000Z</time>
      </trkpt>
      <trkpt lat="41.5007450245320796966552734375" lon="2.147971652448177337646484375">
        <ele>71</ele>
        <time>2022-01-07T08:37:52.000Z</time>
      </trkpt>
      <trkpt lat="41.5007071383297443389892578125" lon="2.1479825489223003387451171875">
        <ele>71.1999969482421875</ele>
        <time>2022-01-07T08:37:53.000Z</time>
      </trkpt>
      <trkpt lat="41.50066849775612354278564453125" lon="2.147995121777057647705078125">
        <ele>71.1999969482421875</ele>
        <time>2022-01-07T08:37:54.000Z</time>
      </trkpt>
      <trkpt lat="41.50062977336347103118896484375" lon="2.148009203374385833740234375">
        <ele>71.1999969482421875</ele>
        <time>2022-01-07T08:37:55.000Z</time>
      </trkpt>
      <trkpt lat="41.50058291852474212646484375" lon="2.14802621863782405853271484375">
        <ele>71</ele>
        <time>2022-01-07T08:37:56.000Z</time>
      </trkpt>
      <trkpt lat="41.50054461322724819183349609375" lon="2.1480412222445011138916015625">
        <ele>71</ele>
        <time>2022-01-07T08:37:57.000Z</time>
      </trkpt>
      <trkpt lat="41.50051510892808437347412109375" lon="2.148052118718624114990234375">
        <ele>71</ele>
        <time>2022-01-07T08:37:58.000Z</time>
      </trkpt>
      <trkpt lat="41.500473953783512115478515625" lon="2.1480673737823963165283203125">
        <ele>71</ele>
        <time>2022-01-07T08:37:59.000Z</time>
      </trkpt>
      <trkpt lat="41.500433050096035003662109375" lon="2.14808371849358081817626953125">
        <ele>71</ele>
        <time>2022-01-07T08:38:00.000Z</time>
      </trkpt>
      <trkpt lat="41.5003946609795093536376953125" lon="2.14809645898640155792236328125">
        <ele>70.8000030517578125</ele>
        <time>2022-01-07T08:38:01.000Z</time>
      </trkpt>
      <trkpt lat="41.5003554336726665496826171875" lon="2.148106433451175689697265625">
        <ele>70.59999847412109375</ele>
        <time>2022-01-07T08:38:02.000Z</time>
      </trkpt>
      <trkpt lat="41.50031545199453830718994140625" lon="2.1481206826865673065185546875">
        <ele>70.8000030517578125</ele>
        <time>2022-01-07T08:38:03.000Z</time>
      </trkpt>
      <trkpt lat="41.500272788107395172119140625" lon="2.148135937750339508056640625">
        <ele>70.40000152587890625</ele>
        <time>2022-01-07T08:38:04.000Z</time>
      </trkpt>
      <trkpt lat="41.5002310462296009063720703125" lon="2.14815395884215831756591796875">
        <ele>70.40000152587890625</ele>
        <time>2022-01-07T08:38:05.000Z</time>
      </trkpt>
      <trkpt lat="41.500188298523426055908203125" lon="2.1481729857623577117919921875">
        <ele>70.1999969482421875</ele>
        <time>2022-01-07T08:38:06.000Z</time>
      </trkpt>
      <trkpt lat="41.5001472271978855133056640625" lon="2.14819167740643024444580078125">
        <ele>70.1999969482421875</ele>
        <time>2022-01-07T08:38:07.000Z</time>
      </trkpt>
      <trkpt lat="41.50010640732944011688232421875" lon="2.14821011759340763092041015625">
        <ele>70.1999969482421875</ele>
        <time>2022-01-07T08:38:08.000Z</time>
      </trkpt>
      <trkpt lat="41.5000654198229312896728515625" lon="2.148227132856845855712890625">
        <ele>70</ele>
        <time>2022-01-07T08:38:09.000Z</time>
      </trkpt>
      <trkpt lat="41.50002325884997844696044921875" lon="2.148242555558681488037109375">
        <ele>70</ele>
        <time>2022-01-07T08:38:10.000Z</time>
      </trkpt>
      <trkpt lat="41.49998210370540618896484375" lon="2.14825831353664398193359375">
        <ele>70</ele>
        <time>2022-01-07T08:38:11.000Z</time>
      </trkpt>
      <trkpt lat="41.49994161911308765411376953125" lon="2.148275077342987060546875">
        <ele>70</ele>
        <time>2022-01-07T08:38:12.000Z</time>
      </trkpt>
      <trkpt lat="41.49990431964397430419921875" lon="2.1482933498919010162353515625">
        <ele>69.8000030517578125</ele>
        <time>2022-01-07T08:38:13.000Z</time>
      </trkpt>
      <trkpt lat="41.49986785836517810821533203125" lon="2.14831489138305187225341796875">
        <ele>69.8000030517578125</ele>
        <time>2022-01-07T08:38:14.000Z</time>
      </trkpt>
      <trkpt lat="41.49983265437185764312744140625" lon="2.148331739008426666259765625">
        <ele>69.8000030517578125</ele>
        <time>2022-01-07T08:38:15.000Z</time>
      </trkpt>
      <trkpt lat="41.4997990429401397705078125" lon="2.1483483351767063140869140625">
        <ele>69.59999847412109375</ele>
        <time>2022-01-07T08:38:16.000Z</time>
      </trkpt>
      <trkpt lat="41.499767191708087921142578125" lon="2.148366272449493408203125">
        <ele>69.59999847412109375</ele>
        <time>2022-01-07T08:38:17.000Z</time>
      </trkpt>
      <trkpt lat="41.4997351728379726409912109375" lon="2.14838446117937564849853515625">
        <ele>69.59999847412109375</ele>
        <time>2022-01-07T08:38:18.000Z</time>
      </trkpt>
      <trkpt lat="41.4997013099491596221923828125" lon="2.14840114116668701171875">
        <ele>69.59999847412109375</ele>
        <time>2022-01-07T08:38:19.000Z</time>
      </trkpt>
      <trkpt lat="41.4996676146984100341796875" lon="2.1484158933162689208984375">
        <ele>69.40000152587890625</ele>
        <time>2022-01-07T08:38:20.000Z</time>
      </trkpt>
      <trkpt lat="41.49962713010609149932861328125" lon="2.14843290857970714569091796875">
        <ele>69.40000152587890625</ele>
        <time>2022-01-07T08:38:21.000Z</time>
      </trkpt>
      <trkpt lat="41.4995920099318027496337890625" lon="2.1484462358057498931884765625">
        <ele>69.40000152587890625</ele>
        <time>2022-01-07T08:38:22.000Z</time>
      </trkpt>
      <trkpt lat="41.49956527166068553924560546875" lon="2.14845906011760234832763671875">
        <ele>69.40000152587890625</ele>
        <time>2022-01-07T08:38:23.000Z</time>
      </trkpt>
      <trkpt lat="41.49953157640993595123291015625" lon="2.14847515337169170379638671875">
        <ele>69.40000152587890625</ele>
        <time>2022-01-07T08:38:24.000Z</time>
      </trkpt>
      <trkpt lat="41.4994964562356472015380859375" lon="2.1484891511499881744384765625">
        <ele>69.40000152587890625</ele>
        <time>2022-01-07T08:38:25.000Z</time>
      </trkpt>
      <trkpt lat="41.49946066550910472869873046875" lon="2.14850516058504581451416015625">
        <ele>69.40000152587890625</ele>
        <time>2022-01-07T08:38:26.000Z</time>
      </trkpt>
      <trkpt lat="41.4994267188012599945068359375" lon="2.14852175675332546234130859375">
        <ele>69.40000152587890625</ele>
        <time>2022-01-07T08:38:27.000Z</time>
      </trkpt>
      <trkpt lat="41.4993827976286411285400390625" lon="2.14854472316801548004150390625">
        <ele>69.1999969482421875</ele>
        <time>2022-01-07T08:38:28.000Z</time>
      </trkpt>
      <trkpt lat="41.4993526227772235870361328125" lon="2.148561067879199981689453125">
        <ele>69.1999969482421875</ele>
        <time>2022-01-07T08:38:29.000Z</time>
      </trkpt>
      <trkpt lat="41.4993140660226345062255859375" lon="2.148583866655826568603515625">
        <ele>69</ele>
        <time>2022-01-07T08:38:30.000Z</time>
      </trkpt>
      <trkpt lat="41.4992738328874111175537109375" lon="2.14860741980373859405517578125">
        <ele>69</ele>
        <time>2022-01-07T08:38:31.000Z</time>
      </trkpt>
      <trkpt lat="41.4992346055805683135986328125" lon="2.1486296318471431732177734375">
        <ele>69</ele>
        <time>2022-01-07T08:38:32.000Z</time>
      </trkpt>
      <trkpt lat="41.49919562973082065582275390625" lon="2.14865804649889469146728515625">
        <ele>69</ele>
        <time>2022-01-07T08:38:33.000Z</time>
      </trkpt>
      <trkpt lat="41.49915874935686588287353515625" lon="2.14868612587451934814453125">
        <ele>69</ele>
        <time>2022-01-07T08:38:34.000Z</time>
      </trkpt>
      <trkpt lat="41.4991219528019428253173828125" lon="2.14871227741241455078125">
        <ele>69</ele>
        <time>2022-01-07T08:38:35.000Z</time>
      </trkpt>
      <trkpt lat="41.4990854077041149139404296875" lon="2.14874136261641979217529296875">
        <ele>69</ele>
        <time>2022-01-07T08:38:36.000Z</time>
      </trkpt>
      <trkpt lat="41.49905045516788959503173828125" lon="2.14877103455364704132080078125">
        <ele>68.8000030517578125</ele>
        <time>2022-01-07T08:38:37.000Z</time>
      </trkpt>
      <trkpt lat="41.499016843736171722412109375" lon="2.14880020357668399810791015625">
        <ele>68.59999847412109375</ele>
        <time>2022-01-07T08:38:38.000Z</time>
      </trkpt>
      <trkpt lat="41.49898323230445384979248046875" lon="2.148829288780689239501953125">
        <ele>68.59999847412109375</ele>
        <time>2022-01-07T08:38:39.000Z</time>
      </trkpt>
      <trkpt lat="41.49895272217690944671630859375" lon="2.1488566137850284576416015625">
        <ele>68.59999847412109375</ele>
        <time>2022-01-07T08:38:40.000Z</time>
      </trkpt>
      <trkpt lat="41.4989211224019527435302734375" lon="2.14888603426516056060791015625">
        <ele>68.40000152587890625</ele>
        <time>2022-01-07T08:38:41.000Z</time>
      </trkpt>
      <trkpt lat="41.4988896064460277557373046875" lon="2.14891369454562664031982421875">
        <ele>68.40000152587890625</ele>
        <time>2022-01-07T08:38:42.000Z</time>
      </trkpt>
      <trkpt lat="41.4988557435572147369384765625" lon="2.14893917553126811981201171875">
        <ele>68.40000152587890625</ele>
        <time>2022-01-07T08:38:43.000Z</time>
      </trkpt>
      <trkpt lat="41.49882263503968715667724609375" lon="2.14896448887884616851806640625">
        <ele>68.40000152587890625</ele>
        <time>2022-01-07T08:38:44.000Z</time>
      </trkpt>
      <trkpt lat="41.498788855969905853271484375" lon="2.148992232978343963623046875">
        <ele>68.40000152587890625</ele>
        <time>2022-01-07T08:38:45.000Z</time>
      </trkpt>
      <trkpt lat="41.4987556636333465576171875" lon="2.14902064763009548187255859375">
        <ele>68.40000152587890625</ele>
        <time>2022-01-07T08:38:46.000Z</time>
      </trkpt>
      <trkpt lat="41.49872490204870700836181640625" lon="2.14904897846281528472900390625">
        <ele>68.1999969482421875</ele>
        <time>2022-01-07T08:38:47.000Z</time>
      </trkpt>
      <trkpt lat="41.49869388900697231292724609375" lon="2.14907647110521793365478515625">
        <ele>68.1999969482421875</ele>
        <time>2022-01-07T08:38:48.000Z</time>
      </trkpt>
      <trkpt lat="41.4986616186797618865966796875" lon="2.14910228736698627471923828125">
        <ele>68.1999969482421875</ele>
        <time>2022-01-07T08:38:49.000Z</time>
      </trkpt>
      <trkpt lat="41.49862767197191715240478515625" lon="2.14912642724812030792236328125">
        <ele>68.1999969482421875</ele>
        <time>2022-01-07T08:38:50.000Z</time>
      </trkpt>
      <trkpt lat="41.49859112687408924102783203125" lon="2.14915215969085693359375">
        <ele>68.1999969482421875</ele>
        <time>2022-01-07T08:38:51.000Z</time>
      </trkpt>
      <trkpt lat="41.49855424650013446807861328125" lon="2.14917722158133983612060546875">
        <ele>68.1999969482421875</ele>
        <time>2022-01-07T08:38:52.000Z</time>
      </trkpt>
      <trkpt lat="41.4985177852213382720947265625" lon="2.14920102618634700775146484375">
        <ele>68.1999969482421875</ele>
        <time>2022-01-07T08:38:53.000Z</time>
      </trkpt>
      <trkpt lat="41.4984820783138275146484375" lon="2.1492277644574642181396484375">
        <ele>68</ele>
        <time>2022-01-07T08:38:54.000Z</time>
      </trkpt>
      <trkpt lat="41.4984457008540630340576171875" lon="2.1492599509656429290771484375">
        <ele>68</ele>
        <time>2022-01-07T08:38:55.000Z</time>
      </trkpt>
      <trkpt lat="41.49840907193720340728759765625" lon="2.149292640388011932373046875">
        <ele>68</ele>
        <time>2022-01-07T08:38:56.000Z</time>
      </trkpt>
      <trkpt lat="41.49837286211550235748291015625" lon="2.1493213064968585968017578125">
        <ele>68</ele>
        <time>2022-01-07T08:38:57.000Z</time>
      </trkpt>
      <trkpt lat="41.49833631701767444610595703125" lon="2.149350978434085845947265625">
        <ele>68</ele>
        <time>2022-01-07T08:38:58.000Z</time>
      </trkpt>
      <trkpt lat="41.49829977191984653472900390625" lon="2.1493809856474399566650390625">
        <ele>67.8000030517578125</ele>
        <time>2022-01-07T08:38:59.000Z</time>
      </trkpt>
      <trkpt lat="41.49826456792652606964111328125" lon="2.1494121663272380828857421875">
        <ele>67.8000030517578125</ele>
        <time>2022-01-07T08:39:00.000Z</time>
      </trkpt>
      <trkpt lat="41.49822081439197063446044921875" lon="2.1494463644921779632568359375">
        <ele>67.8000030517578125</ele>
        <time>2022-01-07T08:39:01.000Z</time>
      </trkpt>
      <trkpt lat="41.49818594567477703094482421875" lon="2.149475030601024627685546875">
        <ele>67.59999847412109375</ele>
        <time>2022-01-07T08:39:02.000Z</time>
      </trkpt>
      <trkpt lat="41.49815225042402744293212890625" lon="2.1495016850531101226806640625">
        <ele>67.59999847412109375</ele>
        <time>2022-01-07T08:39:03.000Z</time>
      </trkpt>
      <trkpt lat="41.49812400341033935546875" lon="2.14952054433524608612060546875">
        <ele>67.59999847412109375</ele>
        <time>2022-01-07T08:39:04.000Z</time>
      </trkpt>
      <trkpt lat="41.4980877935886383056640625" lon="2.149546444416046142578125">
        <ele>67.40000152587890625</ele>
        <time>2022-01-07T08:39:05.000Z</time>
      </trkpt>
      <trkpt lat="41.49805133230984210968017578125" lon="2.14957335032522678375244140625">
        <ele>67.40000152587890625</ele>
        <time>2022-01-07T08:39:06.000Z</time>
      </trkpt>
      <trkpt lat="41.49801428429782390594482421875" lon="2.14960117824375629425048828125">
        <ele>67.1999969482421875</ele>
        <time>2022-01-07T08:39:07.000Z</time>
      </trkpt>
      <trkpt lat="41.49797874502837657928466796875" lon="2.1496280841529369354248046875">
        <ele>67.1999969482421875</ele>
        <time>2022-01-07T08:39:08.000Z</time>
      </trkpt>
      <trkpt lat="41.4979441277682781219482421875" lon="2.1496579237282276153564453125">
        <ele>67.1999969482421875</ele>
        <time>2022-01-07T08:39:09.000Z</time>
      </trkpt>
      <trkpt lat="41.497909761965274810791015625" lon="2.1496870927512645721435546875">
        <ele>67.1999969482421875</ele>
        <time>2022-01-07T08:39:10.000Z</time>
      </trkpt>
      <trkpt lat="41.49787816219031810760498046875" lon="2.149715758860111236572265625">
        <ele>67.1999969482421875</ele>
        <time>2022-01-07T08:39:11.000Z</time>
      </trkpt>
      <trkpt lat="41.497845388948917388916015625" lon="2.1497450955212116241455078125">
        <ele>67</ele>
        <time>2022-01-07T08:39:12.000Z</time>
      </trkpt>
      <trkpt lat="41.49781353771686553955078125" lon="2.14977066032588481903076171875">
        <ele>67</ele>
        <time>2022-01-07T08:39:13.000Z</time>
      </trkpt>
      <trkpt lat="41.49778059683740139007568359375" lon="2.14979563839733600616455078125">
        <ele>67</ele>
        <time>2022-01-07T08:39:14.000Z</time>
      </trkpt>
      <trkpt lat="41.49774673394858837127685546875" lon="2.14982246048748493194580078125">
        <ele>66.8000030517578125</ele>
        <time>2022-01-07T08:39:15.000Z</time>
      </trkpt>
      <trkpt lat="41.49771152995526790618896484375" lon="2.14985079132020473480224609375">
        <ele>66.59999847412109375</ele>
        <time>2022-01-07T08:39:16.000Z</time>
      </trkpt>
      <trkpt lat="41.4976720511913299560546875" lon="2.1498838998377323150634765625">
        <ele>66.59999847412109375</ele>
        <time>2022-01-07T08:39:17.000Z</time>
      </trkpt>
      <trkpt lat="41.49763944558799266815185546875" lon="2.149911560118198394775390625">
        <ele>66.59999847412109375</ele>
        <time>2022-01-07T08:39:18.000Z</time>
      </trkpt>
      <trkpt lat="41.4976068399846553802490234375" lon="2.14993880130350589752197265625">
        <ele>66.59999847412109375</ele>
        <time>2022-01-07T08:39:19.000Z</time>
      </trkpt>
      <trkpt lat="41.4975808560848236083984375" lon="2.14995975606143474578857421875">
        <ele>66.59999847412109375</ele>
        <time>2022-01-07T08:39:20.000Z</time>
      </trkpt>
      <trkpt lat="41.49754808284342288970947265625" lon="2.14998540468513965606689453125">
        <ele>66.40000152587890625</ele>
        <time>2022-01-07T08:39:21.000Z</time>
      </trkpt>
      <trkpt lat="41.497510112822055816650390625" lon="2.150018513202667236328125">
        <ele>66.40000152587890625</ele>
        <time>2022-01-07T08:39:22.000Z</time>
      </trkpt>
      <trkpt lat="41.49747499264776706695556640625" lon="2.15004676021635532379150390625">
        <ele>66.40000152587890625</ele>
        <time>2022-01-07T08:39:23.000Z</time>
      </trkpt>
      <trkpt lat="41.49744582362473011016845703125" lon="2.15006771497428417205810546875">
        <ele>66.40000152587890625</ele>
        <time>2022-01-07T08:39:24.000Z</time>
      </trkpt>
      <trkpt lat="41.49740844033658504486083984375" lon="2.1500911004841327667236328125">
        <ele>66.40000152587890625</ele>
        <time>2022-01-07T08:39:25.000Z</time>
      </trkpt>
      <trkpt lat="41.49737097322940826416015625" lon="2.15011247433722019195556640625">
        <ele>66.1999969482421875</ele>
        <time>2022-01-07T08:39:26.000Z</time>
      </trkpt>
      <trkpt lat="41.4973278902471065521240234375" lon="2.15013041161000728607177734375">
        <ele>66.1999969482421875</ele>
        <time>2022-01-07T08:39:27.000Z</time>
      </trkpt>
      <trkpt lat="41.4972853101789951324462890625" lon="2.1501511149108409881591796875">
        <ele>66.1999969482421875</ele>
        <time>2022-01-07T08:39:28.000Z</time>
      </trkpt>
      <trkpt lat="41.4972440712153911590576171875" lon="2.150175757706165313720703125">
        <ele>66.1999969482421875</ele>
        <time>2022-01-07T08:39:29.000Z</time>
      </trkpt>
      <trkpt lat="41.497205682098865509033203125" lon="2.1502040885388851165771484375">
        <ele>66</ele>
        <time>2022-01-07T08:39:30.000Z</time>
      </trkpt>
      <trkpt lat="41.49716922082006931304931640625" lon="2.15023367665708065032958984375">
        <ele>66</ele>
        <time>2022-01-07T08:39:31.000Z</time>
      </trkpt>
      <trkpt lat="41.4971317537128925323486328125" lon="2.15026133693754673004150390625">
        <ele>66</ele>
        <time>2022-01-07T08:39:32.000Z</time>
      </trkpt>
      <trkpt lat="41.49709411896765232086181640625" lon="2.1502892486751079559326171875">
        <ele>65.8000030517578125</ele>
        <time>2022-01-07T08:39:33.000Z</time>
      </trkpt>
      <trkpt lat="41.497058160603046417236328125" lon="2.15031531639397144317626953125">
        <ele>65.8000030517578125</ele>
        <time>2022-01-07T08:39:34.000Z</time>
      </trkpt>
      <trkpt lat="41.4970244653522968292236328125" lon="2.1503442339599132537841796875">
        <ele>65.8000030517578125</ele>
        <time>2022-01-07T08:39:35.000Z</time>
      </trkpt>
      <trkpt lat="41.4969902671873569488525390625" lon="2.15037382207810878753662109375">
        <ele>65.59999847412109375</ele>
        <time>2022-01-07T08:39:36.000Z</time>
      </trkpt>
      <trkpt lat="41.49695883505046367645263671875" lon="2.15040382929146289825439453125">
        <ele>65.59999847412109375</ele>
        <time>2022-01-07T08:39:37.000Z</time>
      </trkpt>
      <trkpt lat="41.49692145176231861114501953125" lon="2.1504350937902927398681640625">
        <ele>65.59999847412109375</ele>
        <time>2022-01-07T08:39:38.000Z</time>
      </trkpt>
      <trkpt lat="41.49689664132893085479736328125" lon="2.150455377995967864990234375">
        <ele>65.59999847412109375</ele>
        <time>2022-01-07T08:39:39.000Z</time>
      </trkpt>
      <trkpt lat="41.49686864577233791351318359375" lon="2.1504811942577362060546875">
        <ele>65.40000152587890625</ele>
        <time>2022-01-07T08:39:40.000Z</time>
      </trkpt>
      <trkpt lat="41.4968397282063961029052734375" lon="2.150505669414997100830078125">
        <ele>65.40000152587890625</ele>
        <time>2022-01-07T08:39:41.000Z</time>
      </trkpt>
      <trkpt lat="41.49681114591658115386962890625" lon="2.15052888728678226470947265625">
        <ele>65.40000152587890625</ele>
        <time>2022-01-07T08:39:42.000Z</time>
      </trkpt>
      <trkpt lat="41.4967834018170833587646484375" lon="2.150551937520503997802734375">
        <ele>65.40000152587890625</ele>
        <time>2022-01-07T08:39:43.000Z</time>
      </trkpt>
      <trkpt lat="41.4967565797269344329833984375" lon="2.15057465247809886932373046875">
        <ele>65.40000152587890625</ele>
        <time>2022-01-07T08:39:44.000Z</time>
      </trkpt>
      <trkpt lat="41.4967321045696735382080078125" lon="2.15059946291148662567138671875">
        <ele>65.1999969482421875</ele>
        <time>2022-01-07T08:39:45.000Z</time>
      </trkpt>
      <trkpt lat="41.49670586921274662017822265625" lon="2.15062242932617664337158203125">
        <ele>65.1999969482421875</ele>
        <time>2022-01-07T08:39:46.000Z</time>
      </trkpt>
      <trkpt lat="41.49667904712259769439697265625" lon="2.1506449766457080841064453125">
        <ele>65.1999969482421875</ele>
        <time>2022-01-07T08:39:47.000Z</time>
      </trkpt>
      <trkpt lat="41.496650464832782745361328125" lon="2.15067774988710880279541015625">
        <ele>65.1999969482421875</ele>
        <time>2022-01-07T08:39:48.000Z</time>
      </trkpt>
      <trkpt lat="41.49663931690156459808349609375" lon="2.15070323087275028228759765625">
        <ele>65.1999969482421875</ele>
        <time>2022-01-07T08:39:49.000Z</time>
      </trkpt>
      <trkpt lat="41.4966281689703464508056640625" lon="2.1507333219051361083984375">
        <ele>65.1999969482421875</ele>
        <time>2022-01-07T08:39:50.000Z</time>
      </trkpt>
      <trkpt lat="41.496616266667842864990234375" lon="2.1507643349468708038330078125">
        <ele>65.1999969482421875</ele>
        <time>2022-01-07T08:39:51.000Z</time>
      </trkpt>
      <trkpt lat="41.49660210125148296356201171875" lon="2.15079710818827152252197265625">
        <ele>65.1999969482421875</ele>
        <time>2022-01-07T08:39:52.000Z</time>
      </trkpt>
      <trkpt lat="41.49658634327352046966552734375" lon="2.15082694776356220245361328125">
        <ele>65.1999969482421875</ele>
        <time>2022-01-07T08:39:53.000Z</time>
      </trkpt>
      <trkpt lat="41.49656823836266994476318359375" lon="2.150854356586933135986328125">
        <ele>65.1999969482421875</ele>
        <time>2022-01-07T08:39:54.000Z</time>
      </trkpt>
      <trkpt lat="41.4965522289276123046875" lon="2.15087623335421085357666015625">
        <ele>65.1999969482421875</ele>
        <time>2022-01-07T08:39:55.000Z</time>
      </trkpt>
      <trkpt lat="41.4965369738638401031494140625" lon="2.15089626610279083251953125">
        <ele>65.1999969482421875</ele>
        <time>2022-01-07T08:39:56.000Z</time>
      </trkpt>
      <trkpt lat="41.4965205453336238861083984375" lon="2.15091579593718051910400390625">
        <ele>65.1999969482421875</ele>
        <time>2022-01-07T08:39:57.000Z</time>
      </trkpt>
      <trkpt lat="41.49650068022310733795166015625" lon="2.15093222446739673614501953125">
        <ele>65.1999969482421875</ele>
        <time>2022-01-07T08:39:58.000Z</time>
      </trkpt>
      <trkpt lat="41.496468745172023773193359375" lon="2.1509487368166446685791015625">
        <ele>65.40000152587890625</ele>
        <time>2022-01-07T08:39:59.000Z</time>
      </trkpt>
      <trkpt lat="41.4964441023766994476318359375" lon="2.1509574539959430694580078125">
        <ele>65.40000152587890625</ele>
        <time>2022-01-07T08:40:00.000Z</time>
      </trkpt>
      <trkpt lat="41.496413089334964752197265625" lon="2.1509706974029541015625">
        <ele>65.59999847412109375</ele>
        <time>2022-01-07T08:40:01.000Z</time>
      </trkpt>
      <trkpt lat="41.49638098664581775665283203125" lon="2.1509856171905994415283203125">
        <ele>65.59999847412109375</ele>
        <time>2022-01-07T08:40:02.000Z</time>
      </trkpt>
      <trkpt lat="41.49634980596601963043212890625" lon="2.15100347064435482025146484375">
        <ele>65.8000030517578125</ele>
        <time>2022-01-07T08:40:03.000Z</time>
      </trkpt>
      <trkpt lat="41.4963202178478240966796875" lon="2.15102358721196651458740234375">
        <ele>65.8000030517578125</ele>
        <time>2022-01-07T08:40:04.000Z</time>
      </trkpt>
      <trkpt lat="41.49629046209156513214111328125" lon="2.15104839764535427093505859375">
        <ele>65.8000030517578125</ele>
        <time>2022-01-07T08:40:05.000Z</time>
      </trkpt>
      <trkpt lat="41.496258191764354705810546875" lon="2.15107488445937633514404296875">
        <ele>65.8000030517578125</ele>
        <time>2022-01-07T08:40:06.000Z</time>
      </trkpt>
      <trkpt lat="41.49622374214231967926025390625" lon="2.1511026285588741302490234375">
        <ele>65.8000030517578125</ele>
        <time>2022-01-07T08:40:07.000Z</time>
      </trkpt>
      <trkpt lat="41.49618971161544322967529296875" lon="2.15113188140094280242919921875">
        <ele>65.8000030517578125</ele>
        <time>2022-01-07T08:40:08.000Z</time>
      </trkpt>
      <trkpt lat="41.49615593254566192626953125" lon="2.15116180479526519775390625">
        <ele>65.8000030517578125</ele>
        <time>2022-01-07T08:40:09.000Z</time>
      </trkpt>
      <trkpt lat="41.49612148292362689971923828125" lon="2.1511921472847461700439453125">
        <ele>65.8000030517578125</ele>
        <time>2022-01-07T08:40:10.000Z</time>
      </trkpt>
      <trkpt lat="41.49608594365417957305908203125" lon="2.1512209810316562652587890625">
        <ele>65.8000030517578125</ele>
        <time>2022-01-07T08:40:11.000Z</time>
      </trkpt>
      <trkpt lat="41.49605057202279567718505859375" lon="2.15125031769275665283203125">
        <ele>65.8000030517578125</ele>
        <time>2022-01-07T08:40:12.000Z</time>
      </trkpt>
      <trkpt lat="41.49601503275334835052490234375" lon="2.15128057636320590972900390625">
        <ele>65.8000030517578125</ele>
        <time>2022-01-07T08:40:13.000Z</time>
      </trkpt>
      <trkpt lat="41.4959790743887424468994140625" lon="2.15131091885268688201904296875">
        <ele>65.59999847412109375</ele>
        <time>2022-01-07T08:40:14.000Z</time>
      </trkpt>
      <trkpt lat="41.49594361893832683563232421875" lon="2.15134193189442157745361328125">
        <ele>65.59999847412109375</ele>
        <time>2022-01-07T08:40:15.000Z</time>
      </trkpt>
      <trkpt lat="41.49590992368757724761962890625" lon="2.15137378312647342681884765625">
        <ele>65.59999847412109375</ele>
        <time>2022-01-07T08:40:16.000Z</time>
      </trkpt>
      <trkpt lat="41.49587270803749561309814453125" lon="2.1514020301401615142822265625">
        <ele>65.40000152587890625</ele>
        <time>2022-01-07T08:40:17.000Z</time>
      </trkpt>
      <trkpt lat="41.49583339691162109375" lon="2.1514301933348178863525390625">
        <ele>65.40000152587890625</ele>
        <time>2022-01-07T08:40:18.000Z</time>
      </trkpt>
      <trkpt lat="41.49579492397606372833251953125" lon="2.15145776979625225067138671875">
        <ele>65.1999969482421875</ele>
        <time>2022-01-07T08:40:19.000Z</time>
      </trkpt>
      <trkpt lat="41.4957574568688869476318359375" lon="2.15148844756186008453369140625">
        <ele>65.1999969482421875</ele>
        <time>2022-01-07T08:40:20.000Z</time>
      </trkpt>
      <trkpt lat="41.49572216905653476715087890625" lon="2.15151946060359477996826171875">
        <ele>65</ele>
        <time>2022-01-07T08:40:21.000Z</time>
      </trkpt>
      <trkpt lat="41.495686881244182586669921875" lon="2.15155265294015407562255859375">
        <ele>65</ele>
        <time>2022-01-07T08:40:22.000Z</time>
      </trkpt>
      <trkpt lat="41.49565477855503559112548828125" lon="2.15158215723931789398193359375">
        <ele>64.8000030517578125</ele>
        <time>2022-01-07T08:40:23.000Z</time>
      </trkpt>
      <trkpt lat="41.49562745355069637298583984375" lon="2.15160395018756389617919921875">
        <ele>64.59999847412109375</ele>
        <time>2022-01-07T08:40:24.000Z</time>
      </trkpt>
      <trkpt lat="41.4956092648208141326904296875" lon="2.1516196243464946746826171875">
        <ele>64.59999847412109375</ele>
        <time>2022-01-07T08:40:25.000Z</time>
      </trkpt>
      <trkpt lat="41.49559593759477138519287109375" lon="2.1516313590109348297119140625">
        <ele>64.40000152587890625</ele>
        <time>2022-01-07T08:40:26.000Z</time>
      </trkpt>
      <trkpt lat="41.49558923207223415374755859375" lon="2.15163663960993289947509765625">
        <ele>64.40000152587890625</ele>
        <time>2022-01-07T08:40:27.000Z</time>
      </trkpt>
      <trkpt lat="41.49558923207223415374755859375" lon="2.15163663960993289947509765625">
        <ele>64.40000152587890625</ele>
        <time>2022-01-07T08:40:28.000Z</time>
      </trkpt>
      <trkpt lat="41.49559292010962963104248046875" lon="2.15169019997119903564453125">
        <ele>63.799999237060546875</ele>
        <time>2022-01-07T08:40:57.000Z</time>
      </trkpt>
      <trkpt lat="41.4956089295446872711181640625" lon="2.15172029100358486175537109375">
        <ele>63.799999237060546875</ele>
        <time>2022-01-07T08:40:58.000Z</time>
      </trkpt>
      <trkpt lat="41.49563021957874298095703125" lon="2.1517540700733661651611328125">
        <ele>63.799999237060546875</ele>
        <time>2022-01-07T08:40:59.000Z</time>
      </trkpt>
      <trkpt lat="41.49565092287957668304443359375" lon="2.151787094771862030029296875">
        <ele>63.799999237060546875</ele>
        <time>2022-01-07T08:41:00.000Z</time>
      </trkpt>
      <trkpt lat="41.49567087180912494659423828125" lon="2.1518187783658504486083984375">
        <ele>63.799999237060546875</ele>
        <time>2022-01-07T08:41:01.000Z</time>
      </trkpt>
      <trkpt lat="41.495686881244182586669921875" lon="2.151850126683712005615234375">
        <ele>63.799999237060546875</ele>
        <time>2022-01-07T08:41:02.000Z</time>
      </trkpt>
      <trkpt lat="41.495700292289257049560546875" lon="2.15188323520123958587646484375">
        <ele>63.799999237060546875</ele>
        <time>2022-01-07T08:41:03.000Z</time>
      </trkpt>
      <trkpt lat="41.49571294896304607391357421875" lon="2.15191810391843318939208984375">
        <ele>63.799999237060546875</ele>
        <time>2022-01-07T08:41:04.000Z</time>
      </trkpt>
      <trkpt lat="41.49572652764618396759033203125" lon="2.15195305645465850830078125">
        <ele>63.799999237060546875</ele>
        <time>2022-01-07T08:41:05.000Z</time>
      </trkpt>
      <trkpt lat="41.49574127979576587677001953125" lon="2.1519805490970611572265625">
        <ele>63.799999237060546875</ele>
        <time>2022-01-07T08:41:06.000Z</time>
      </trkpt>
      <trkpt lat="41.49575318209826946258544921875" lon="2.152007706463336944580078125">
        <ele>63.799999237060546875</ele>
        <time>2022-01-07T08:41:07.000Z</time>
      </trkpt>
      <trkpt lat="41.49575988762080669403076171875" lon="2.15203176252543926239013671875">
        <ele>63.799999237060546875</ele>
        <time>2022-01-07T08:41:08.000Z</time>
      </trkpt>
      <trkpt lat="41.495759300887584686279296875" lon="2.15205087326467037200927734375">
        <ele>63.799999237060546875</ele>
        <time>2022-01-07T08:41:09.000Z</time>
      </trkpt>
      <trkpt lat="41.49575091898441314697265625" lon="2.1520685590803623199462890625">
        <ele>63.799999237060546875</ele>
        <time>2022-01-07T08:41:10.000Z</time>
      </trkpt>
      <trkpt lat="41.49573105387389659881591796875" lon="2.1520829759538173675537109375">
        <ele>63.799999237060546875</ele>
        <time>2022-01-07T08:41:11.000Z</time>
      </trkpt>
      <trkpt lat="41.49570724926888942718505859375" lon="2.15208448469638824462890625">
        <ele>63.799999237060546875</ele>
        <time>2022-01-07T08:41:12.000Z</time>
      </trkpt>
      <trkpt lat="41.4956843666732311248779296875" lon="2.152073085308074951171875">
        <ele>64.1999969482421875</ele>
        <time>2022-01-07T08:41:13.000Z</time>
      </trkpt>
      <trkpt lat="41.49566500447690486907958984375" lon="2.15205405838787555694580078125">
        <ele>64.40000152587890625</ele>
        <time>2022-01-07T08:41:14.000Z</time>
      </trkpt>
      <trkpt lat="41.49564321152865886688232421875" lon="2.1520414017140865325927734375">
        <ele>64.59999847412109375</ele>
        <time>2022-01-07T08:41:15.000Z</time>
      </trkpt>
      <trkpt lat="41.49561454541981220245361328125" lon="2.1520476043224334716796875">
        <ele>65</ele>
        <time>2022-01-07T08:41:16.000Z</time>
      </trkpt>
      <trkpt lat="41.49559660814702510833740234375" lon="2.15206881053745746612548828125">
        <ele>65.1999969482421875</ele>
        <time>2022-01-07T08:41:17.000Z</time>
      </trkpt>
      <trkpt lat="41.4955945126712322235107421875" lon="2.152103595435619354248046875">
        <ele>65.40000152587890625</ele>
        <time>2022-01-07T08:41:18.000Z</time>
      </trkpt>
      <trkpt lat="41.4956055767834186553955078125" lon="2.15214089490473270416259765625">
        <ele>65.59999847412109375</ele>
        <time>2022-01-07T08:41:19.000Z</time>
      </trkpt>
      <trkpt lat="41.4956266991794109344482421875" lon="2.15217559598386287689208984375">
        <ele>65.59999847412109375</ele>
        <time>2022-01-07T08:41:20.000Z</time>
      </trkpt>
      <trkpt lat="41.4956484921276569366455078125" lon="2.1522053517401218414306640625">
        <ele>65.59999847412109375</ele>
        <time>2022-01-07T08:41:21.000Z</time>
      </trkpt>
      <trkpt lat="41.49566751904785633087158203125" lon="2.15223376639187335968017578125">
        <ele>65.59999847412109375</ele>
        <time>2022-01-07T08:41:22.000Z</time>
      </trkpt>
      <trkpt lat="41.49568076245486736297607421875" lon="2.1522606723010540008544921875">
        <ele>65.59999847412109375</ele>
        <time>2022-01-07T08:41:23.000Z</time>
      </trkpt>
      <trkpt lat="41.4956887252628803253173828125" lon="2.1522871591150760650634765625">
        <ele>65.8000030517578125</ele>
        <time>2022-01-07T08:41:24.000Z</time>
      </trkpt>
      <trkpt lat="41.49568227119743824005126953125" lon="2.15231071226298809051513671875">
        <ele>65.8000030517578125</ele>
        <time>2022-01-07T08:41:25.000Z</time>
      </trkpt>
      <trkpt lat="41.4956679381430149078369140625" lon="2.1523166634142398834228515625">
        <ele>65.8000030517578125</ele>
        <time>2022-01-07T08:41:26.000Z</time>
      </trkpt>
      <trkpt lat="41.49565176106989383697509765625" lon="2.15230031870305538177490234375">
        <ele>65.8000030517578125</ele>
        <time>2022-01-07T08:41:27.000Z</time>
      </trkpt>
      <trkpt lat="41.49563499726355075836181640625" lon="2.15227366425096988677978515625">
        <ele>65.8000030517578125</ele>
        <time>2022-01-07T08:41:28.000Z</time>
      </trkpt>
      <trkpt lat="41.4956179820001125335693359375" lon="2.15224541723728179931640625">
        <ele>66</ele>
        <time>2022-01-07T08:41:29.000Z</time>
      </trkpt>
      <trkpt lat="41.49560314603149890899658203125" lon="2.152216248214244842529296875">
        <ele>66.40000152587890625</ele>
        <time>2022-01-07T08:41:30.000Z</time>
      </trkpt>
      <trkpt lat="41.49558504112064838409423828125" lon="2.1521869115531444549560546875">
        <ele>66.59999847412109375</ele>
        <time>2022-01-07T08:41:31.000Z</time>
      </trkpt>
      <trkpt lat="41.49556626565754413604736328125" lon="2.15215799398720264434814453125">
        <ele>66.8000030517578125</ele>
        <time>2022-01-07T08:41:32.000Z</time>
      </trkpt>
      <trkpt lat="41.49554598145186901092529296875" lon="2.15213016606867313385009765625">
        <ele>66.8000030517578125</ele>
        <time>2022-01-07T08:41:33.000Z</time>
      </trkpt>
      <trkpt lat="41.49552888236939907073974609375" lon="2.15210057795047760009765625">
        <ele>67</ele>
        <time>2022-01-07T08:41:34.000Z</time>
      </trkpt>
      <trkpt lat="41.495511867105960845947265625" lon="2.15207283385097980499267578125">
        <ele>67</ele>
        <time>2022-01-07T08:41:35.000Z</time>
      </trkpt>
      <trkpt lat="41.49549476802349090576171875" lon="2.15204383246600627899169921875">
        <ele>67.1999969482421875</ele>
        <time>2022-01-07T08:41:36.000Z</time>
      </trkpt>
      <trkpt lat="41.495477668941020965576171875" lon="2.152013070881366729736328125">
        <ele>67.40000152587890625</ele>
        <time>2022-01-07T08:41:37.000Z</time>
      </trkpt>
      <trkpt lat="41.49545964784920215606689453125" lon="2.1519787050783634185791015625">
        <ele>67.40000152587890625</ele>
        <time>2022-01-07T08:41:38.000Z</time>
      </trkpt>
      <trkpt lat="41.4954419620335102081298828125" lon="2.15194123797118663787841796875">
        <ele>67.59999847412109375</ele>
        <time>2022-01-07T08:41:39.000Z</time>
      </trkpt>
      <trkpt lat="41.49541991762816905975341796875" lon="2.1519025973975658416748046875">
        <ele>68</ele>
        <time>2022-01-07T08:41:40.000Z</time>
      </trkpt>
      <trkpt lat="41.49539611302316188812255859375" lon="2.15186261571943759918212890625">
        <ele>68.1999969482421875</ele>
        <time>2022-01-07T08:41:41.000Z</time>
      </trkpt>
      <trkpt lat="41.49537163786590099334716796875" lon="2.15181970037519931793212890625">
        <ele>68.59999847412109375</ele>
        <time>2022-01-07T08:41:42.000Z</time>
      </trkpt>
      <trkpt lat="41.49534816853702068328857421875" lon="2.1517735160887241363525390625">
        <ele>68.59999847412109375</ele>
        <time>2022-01-07T08:41:43.000Z</time>
      </trkpt>
      <trkpt lat="41.4953226037323474884033203125" lon="2.15172708034515380859375">
        <ele>68.8000030517578125</ele>
        <time>2022-01-07T08:41:44.000Z</time>
      </trkpt>
      <trkpt lat="41.49529536254703998565673828125" lon="2.15167854912579059600830078125">
        <ele>68.8000030517578125</ele>
        <time>2022-01-07T08:41:45.000Z</time>
      </trkpt>
      <trkpt lat="41.4952679537236690521240234375" lon="2.15162741951644420623779296875">
        <ele>68.8000030517578125</ele>
        <time>2022-01-07T08:41:46.000Z</time>
      </trkpt>
      <trkpt lat="41.49523953907191753387451171875" lon="2.15157628990709781646728515625">
        <ele>68.8000030517578125</ele>
        <time>2022-01-07T08:41:47.000Z</time>
      </trkpt>
      <trkpt lat="41.49521003477275371551513671875" lon="2.15152381919324398040771484375">
        <ele>68.8000030517578125</ele>
        <time>2022-01-07T08:41:48.000Z</time>
      </trkpt>
      <trkpt lat="41.49518036283552646636962890625" lon="2.15147294104099273681640625">
        <ele>68.8000030517578125</ele>
        <time>2022-01-07T08:41:49.000Z</time>
      </trkpt>
      <trkpt lat="41.4951499365270137786865234375" lon="2.1514208056032657623291015625">
        <ele>68.8000030517578125</ele>
        <time>2022-01-07T08:41:50.000Z</time>
      </trkpt>
      <trkpt lat="41.4951187558472156524658203125" lon="2.151367329061031341552734375">
        <ele>68.8000030517578125</ele>
        <time>2022-01-07T08:41:51.000Z</time>
      </trkpt>
      <trkpt lat="41.49508866481482982635498046875" lon="2.1513125114142894744873046875">
        <ele>68.8000030517578125</ele>
        <time>2022-01-07T08:41:52.000Z</time>
      </trkpt>
      <trkpt lat="41.49505748413503170013427734375" lon="2.151257358491420745849609375">
        <ele>68.59999847412109375</ele>
        <time>2022-01-07T08:41:53.000Z</time>
      </trkpt>
      <trkpt lat="41.49502714164555072784423828125" lon="2.15120580978691577911376953125">
        <ele>68.40000152587890625</ele>
        <time>2022-01-07T08:41:54.000Z</time>
      </trkpt>
      <trkpt lat="41.49499855935573577880859375" lon="2.15115568600594997406005859375">
        <ele>68.1999969482421875</ele>
        <time>2022-01-07T08:41:55.000Z</time>
      </trkpt>
      <trkpt lat="41.49497098289430141448974609375" lon="2.15110740624368190765380859375">
        <ele>68</ele>
        <time>2022-01-07T08:41:56.000Z</time>
      </trkpt>
      <trkpt lat="41.49494349025189876556396484375" lon="2.151061557233333587646484375">
        <ele>68</ele>
        <time>2022-01-07T08:41:57.000Z</time>
      </trkpt>
      <trkpt lat="41.494913734495639801025390625" lon="2.15101587586104869842529296875">
        <ele>67.8000030517578125</ele>
        <time>2022-01-07T08:41:58.000Z</time>
      </trkpt>
      <trkpt lat="41.49488599039614200592041015625" lon="2.15097027830779552459716796875">
        <ele>67.8000030517578125</ele>
        <time>2022-01-07T08:41:59.000Z</time>
      </trkpt>
      <trkpt lat="41.49485833011567592620849609375" lon="2.15092535130679607391357421875">
        <ele>67.8000030517578125</ele>
        <time>2022-01-07T08:42:00.000Z</time>
      </trkpt>
      <trkpt lat="41.49483050219714641571044921875" lon="2.15088042430579662322998046875">
        <ele>67.8000030517578125</ele>
        <time>2022-01-07T08:42:01.000Z</time>
      </trkpt>
      <trkpt lat="41.494803763926029205322265625" lon="2.1508354134857654571533203125">
        <ele>67.8000030517578125</ele>
        <time>2022-01-07T08:42:02.000Z</time>
      </trkpt>
      <trkpt lat="41.49477861821651458740234375" lon="2.15078956447541713714599609375">
        <ele>67.8000030517578125</ele>
        <time>2022-01-07T08:42:03.000Z</time>
      </trkpt>
      <trkpt lat="41.49475255049765110015869140625" lon="2.15074530802667140960693359375">
        <ele>67.8000030517578125</ele>
        <time>2022-01-07T08:42:04.000Z</time>
      </trkpt>
      <trkpt lat="41.4947321824729442596435546875" lon="2.15069644153118133544921875">
        <ele>67.8000030517578125</ele>
        <time>2022-01-07T08:42:05.000Z</time>
      </trkpt>
      <trkpt lat="41.49471466429531574249267578125" lon="2.15064623393118381500244140625">
        <ele>67.8000030517578125</ele>
        <time>2022-01-07T08:42:06.000Z</time>
      </trkpt>
      <trkpt lat="41.4946942962706089019775390625" lon="2.15059711597859859466552734375">
        <ele>67.8000030517578125</ele>
        <time>2022-01-07T08:42:07.000Z</time>
      </trkpt>
      <trkpt lat="41.4946738444268703460693359375" lon="2.15055118314921855926513671875">
        <ele>67.8000030517578125</ele>
        <time>2022-01-07T08:42:08.000Z</time>
      </trkpt>
      <trkpt lat="41.4946507103741168975830078125" lon="2.15050592087209224700927734375">
        <ele>68</ele>
        <time>2022-01-07T08:42:09.000Z</time>
      </trkpt>
      <trkpt lat="41.49462782777845859527587890625" lon="2.1504609100520610809326171875">
        <ele>68</ele>
        <time>2022-01-07T08:42:10.000Z</time>
      </trkpt>
      <trkpt lat="41.49460519663989543914794921875" lon="2.1504169888794422149658203125">
        <ele>68.1999969482421875</ele>
        <time>2022-01-07T08:42:11.000Z</time>
      </trkpt>
      <trkpt lat="41.49457820691168308258056640625" lon="2.15037466026842594146728515625">
        <ele>68.40000152587890625</ele>
        <time>2022-01-07T08:42:12.000Z</time>
      </trkpt>
      <trkpt lat="41.494549624621868133544921875" lon="2.1503338403999805450439453125">
        <ele>68.59999847412109375</ele>
        <time>2022-01-07T08:42:13.000Z</time>
      </trkpt>
      <trkpt lat="41.4945236407220363616943359375" lon="2.1502905897796154022216796875">
        <ele>68.8000030517578125</ele>
        <time>2022-01-07T08:42:14.000Z</time>
      </trkpt>
      <trkpt lat="41.49449941702187061309814453125" lon="2.15024717152118682861328125">
        <ele>69</ele>
        <time>2022-01-07T08:42:15.000Z</time>
      </trkpt>
      <trkpt lat="41.49447678588330745697021484375" lon="2.15020283125340938568115234375">
        <ele>69.1999969482421875</ele>
        <time>2022-01-07T08:42:16.000Z</time>
      </trkpt>
      <trkpt lat="41.49445583112537860870361328125" lon="2.15016134083271026611328125">
        <ele>69.1999969482421875</ele>
        <time>2022-01-07T08:42:17.000Z</time>
      </trkpt>
      <trkpt lat="41.494435630738735198974609375" lon="2.15012119151651859283447265625">
        <ele>69.1999969482421875</ele>
        <time>2022-01-07T08:42:18.000Z</time>
      </trkpt>
      <trkpt lat="41.49441526271402835845947265625" lon="2.15008355677127838134765625">
        <ele>69.40000152587890625</ele>
        <time>2022-01-07T08:42:19.000Z</time>
      </trkpt>
      <trkpt lat="41.49439279921352863311767578125" lon="2.150048352777957916259765625">
        <ele>69.40000152587890625</ele>
        <time>2022-01-07T08:42:20.000Z</time>
      </trkpt>
      <trkpt lat="41.49437033571302890777587890625" lon="2.15000920929014682769775390625">
        <ele>69.40000152587890625</ele>
        <time>2022-01-07T08:42:21.000Z</time>
      </trkpt>
      <trkpt lat="41.4943499676883220672607421875" lon="2.149970233440399169921875">
        <ele>69.40000152587890625</ele>
        <time>2022-01-07T08:42:22.000Z</time>
      </trkpt>
      <trkpt lat="41.4943285100162029266357421875" lon="2.1499318443238735198974609375">
        <ele>69.40000152587890625</ele>
        <time>2022-01-07T08:42:23.000Z</time>
      </trkpt>
      <trkpt lat="41.4943070523440837860107421875" lon="2.14988918043673038482666015625">
        <ele>69.40000152587890625</ele>
        <time>2022-01-07T08:42:24.000Z</time>
      </trkpt>
      <trkpt lat="41.4942809008061885833740234375" lon="2.14984743855893611907958984375">
        <ele>69.40000152587890625</ele>
        <time>2022-01-07T08:42:25.000Z</time>
      </trkpt>
      <trkpt lat="41.49424829520285129547119140625" lon="2.14980955235660076141357421875">
        <ele>69.40000152587890625</ele>
        <time>2022-01-07T08:42:26.000Z</time>
      </trkpt>
      <trkpt lat="41.49421937763690948486328125" lon="2.14977166615426540374755859375">
        <ele>69.1999969482421875</ele>
        <time>2022-01-07T08:42:27.000Z</time>
      </trkpt>
      <trkpt lat="41.4941840060055255889892578125" lon="2.149728834629058837890625">
        <ele>69.1999969482421875</ele>
        <time>2022-01-07T08:42:28.000Z</time>
      </trkpt>
      <trkpt lat="41.4941638894379138946533203125" lon="2.1497005037963390350341796875">
        <ele>68.8000030517578125</ele>
        <time>2022-01-07T08:42:29.000Z</time>
      </trkpt>
      <trkpt lat="41.4941427670419216156005859375" lon="2.1496616117656230926513671875">
        <ele>68.40000152587890625</ele>
        <time>2022-01-07T08:42:30.000Z</time>
      </trkpt>
      <trkpt lat="41.49412826634943485260009765625" lon="2.14960335753858089447021484375">
        <ele>68</ele>
        <time>2022-01-07T08:42:31.000Z</time>
      </trkpt>
      <trkpt lat="41.49411099962890148162841796875" lon="2.1495600230991840362548828125">
        <ele>67.1999969482421875</ele>
        <time>2022-01-07T08:42:32.000Z</time>
      </trkpt>
      <trkpt lat="41.49408468045294284820556640625" lon="2.14952389709651470184326171875">
        <ele>66.8000030517578125</ele>
        <time>2022-01-07T08:42:33.000Z</time>
      </trkpt>
      <trkpt lat="41.49406188167631626129150390625" lon="2.14949388988316059112548828125">
        <ele>66.8000030517578125</ele>
        <time>2022-01-07T08:42:34.000Z</time>
      </trkpt>
      <trkpt lat="41.49403472431004047393798828125" lon="2.149455584585666656494140625">
        <ele>66.59999847412109375</ele>
        <time>2022-01-07T08:42:35.000Z</time>
      </trkpt>
      <trkpt lat="41.4940022863447666168212890625" lon="2.149403952062129974365234375">
        <ele>66.59999847412109375</ele>
        <time>2022-01-07T08:42:36.000Z</time>
      </trkpt>
      <trkpt lat="41.493980996310710906982421875" lon="2.14935910888016223907470703125">
        <ele>66.59999847412109375</ele>
        <time>2022-01-07T08:42:37.000Z</time>
      </trkpt>
      <trkpt lat="41.493947468698024749755859375" lon="2.149318791925907135009765625">
        <ele>66.59999847412109375</ele>
        <time>2022-01-07T08:42:38.000Z</time>
      </trkpt>
      <trkpt lat="41.49392458610236644744873046875" lon="2.1492881141602993011474609375">
        <ele>66.59999847412109375</ele>
        <time>2022-01-07T08:42:39.000Z</time>
      </trkpt>
      <trkpt lat="41.4939006976783275604248046875" lon="2.149249054491519927978515625">
        <ele>66.59999847412109375</ele>
        <time>2022-01-07T08:42:40.000Z</time>
      </trkpt>
      <trkpt lat="41.4938755519688129425048828125" lon="2.14921175502240657806396484375">
        <ele>66.59999847412109375</ele>
        <time>2022-01-07T08:42:41.000Z</time>
      </trkpt>
      <trkpt lat="41.4938551001250743865966796875" lon="2.14919163845479488372802734375">
        <ele>66.59999847412109375</ele>
        <time>2022-01-07T08:42:42.000Z</time>
      </trkpt>
      <trkpt lat="41.49382752366364002227783203125" lon="2.1491865254938602447509765625">
        <ele>66.59999847412109375</ele>
        <time>2022-01-07T08:42:43.000Z</time>
      </trkpt>
      <trkpt lat="41.49379885755479335784912109375" lon="2.14919365011155605316162109375">
        <ele>66.59999847412109375</ele>
        <time>2022-01-07T08:42:44.000Z</time>
      </trkpt>
      <trkpt lat="41.4937709458172321319580078125" lon="2.1492116712033748626708984375">
        <ele>66.8000030517578125</ele>
        <time>2022-01-07T08:42:45.000Z</time>
      </trkpt>
      <trkpt lat="41.49374387226998805999755859375" lon="2.14923874475061893463134765625">
        <ele>66.8000030517578125</ele>
        <time>2022-01-07T08:42:46.000Z</time>
      </trkpt>
      <trkpt lat="41.4937176369130611419677734375" lon="2.14926808141171932220458984375">
        <ele>67</ele>
        <time>2022-01-07T08:42:47.000Z</time>
      </trkpt>
      <trkpt lat="41.493690647184848785400390625" lon="2.14929641224443912506103515625">
        <ele>67</ele>
        <time>2022-01-07T08:42:48.000Z</time>
      </trkpt>
      <trkpt lat="41.493664495646953582763671875" lon="2.1493276767432689666748046875">
        <ele>67.1999969482421875</ele>
        <time>2022-01-07T08:42:49.000Z</time>
      </trkpt>
      <trkpt lat="41.49363708682358264923095703125" lon="2.1493612043559551239013671875">
        <ele>67.40000152587890625</ele>
        <time>2022-01-07T08:42:50.000Z</time>
      </trkpt>
      <trkpt lat="41.49360221810638904571533203125" lon="2.14940554462373256683349609375">
        <ele>67.40000152587890625</ele>
        <time>2022-01-07T08:42:51.000Z</time>
      </trkpt>
      <trkpt lat="41.4935754798352718353271484375" lon="2.14944309554994106292724609375">
        <ele>67.40000152587890625</ele>
        <time>2022-01-07T08:42:52.000Z</time>
      </trkpt>
      <trkpt lat="41.49355226196348667144775390625" lon="2.14947947300970554351806640625">
        <ele>67.40000152587890625</ele>
        <time>2022-01-07T08:42:53.000Z</time>
      </trkpt>
      <trkpt lat="41.49353549815714359283447265625" lon="2.14950746856629848480224609375">
        <ele>67.59999847412109375</ele>
        <time>2022-01-07T08:42:54.000Z</time>
      </trkpt>
      <trkpt lat="41.49351353757083415985107421875" lon="2.14954149909317493438720703125">
        <ele>67.59999847412109375</ele>
        <time>2022-01-07T08:42:55.000Z</time>
      </trkpt>
      <trkpt lat="41.49348721839487552642822265625" lon="2.1495794691145420074462890625">
        <ele>67.8000030517578125</ele>
        <time>2022-01-07T08:42:56.000Z</time>
      </trkpt>
      <trkpt lat="41.4934651739895343780517578125" lon="2.14960956014692783355712890625">
        <ele>68</ele>
        <time>2022-01-07T08:42:57.000Z</time>
      </trkpt>
      <trkpt lat="41.49344229139387607574462890625" lon="2.14963562786579132080078125">
        <ele>68</ele>
        <time>2022-01-07T08:42:58.000Z</time>
      </trkpt>
      <trkpt lat="41.49342049844563007354736328125" lon="2.14966136030852794647216796875">
        <ele>68</ele>
        <time>2022-01-07T08:42:59.000Z</time>
      </trkpt>
      <trkpt lat="41.49340708740055561065673828125" lon="2.14968482963740825653076171875">
        <ele>68.1999969482421875</ele>
        <time>2022-01-07T08:43:00.000Z</time>
      </trkpt>
      <trkpt lat="41.493384540081024169921875" lon="2.14971341192722320556640625">
        <ele>68.1999969482421875</ele>
        <time>2022-01-07T08:43:01.000Z</time>
      </trkpt>
      <trkpt lat="41.49335159920156002044677734375" lon="2.14974819682538509368896484375">
        <ele>68.40000152587890625</ele>
        <time>2022-01-07T08:43:02.000Z</time>
      </trkpt>
      <trkpt lat="41.49332745932042598724365234375" lon="2.14977803640067577362060546875">
        <ele>68.40000152587890625</ele>
        <time>2022-01-07T08:43:03.000Z</time>
      </trkpt>
      <trkpt lat="41.49330398999154567718505859375" lon="2.14981324039399623870849609375">
        <ele>68.40000152587890625</ele>
        <time>2022-01-07T08:43:04.000Z</time>
      </trkpt>
      <trkpt lat="41.49327834136784076690673828125" lon="2.14985146187245845794677734375">
        <ele>68.40000152587890625</ele>
        <time>2022-01-07T08:43:05.000Z</time>
      </trkpt>
      <trkpt lat="41.4932586438953876495361328125" lon="2.14987828396260738372802734375">
        <ele>68.40000152587890625</ele>
        <time>2022-01-07T08:43:06.000Z</time>
      </trkpt>
      <trkpt lat="41.49323123507201671600341796875" lon="2.14992069639265537261962890625">
        <ele>68.40000152587890625</ele>
        <time>2022-01-07T08:43:07.000Z</time>
      </trkpt>
      <trkpt lat="41.49321095086634159088134765625" lon="2.14995539747178554534912109375">
        <ele>68.40000152587890625</ele>
        <time>2022-01-07T08:43:08.000Z</time>
      </trkpt>
      <trkpt lat="41.49319200776517391204833984375" lon="2.14999110437929630279541015625">
        <ele>68.40000152587890625</ele>
        <time>2022-01-07T08:43:09.000Z</time>
      </trkpt>
      <trkpt lat="41.49317641742527484893798828125" lon="2.1500159986317157745361328125">
        <ele>68.40000152587890625</ele>
        <time>2022-01-07T08:43:10.000Z</time>
      </trkpt>
      <trkpt lat="41.49315998889505863189697265625" lon="2.15004961006343364715576171875">
        <ele>68.40000152587890625</ele>
        <time>2022-01-07T08:43:11.000Z</time>
      </trkpt>
      <trkpt lat="41.49314708076417446136474609375" lon="2.1500780247151851654052734375">
        <ele>68.40000152587890625</ele>
        <time>2022-01-07T08:43:12.000Z</time>
      </trkpt>
      <trkpt lat="41.4931312389671802520751953125" lon="2.1501152403652667999267578125">
        <ele>68.1999969482421875</ele>
        <time>2022-01-07T08:43:13.000Z</time>
      </trkpt>
      <trkpt lat="41.493105925619602203369140625" lon="2.15013845823705196380615234375">
        <ele>68.1999969482421875</ele>
        <time>2022-01-07T08:43:14.000Z</time>
      </trkpt>
      <trkpt lat="41.49308254010975360870361328125" lon="2.15016670525074005126953125">
        <ele>68</ele>
        <time>2022-01-07T08:43:15.000Z</time>
      </trkpt>
      <trkpt lat="41.49306510575115680694580078125" lon="2.15021104551851749420166015625">
        <ele>68</ele>
        <time>2022-01-07T08:43:16.000Z</time>
      </trkpt>
      <trkpt lat="41.4930061809718608856201171875" lon="2.1502402983605861663818359375">
        <ele>68</ele>
        <time>2022-01-07T08:43:17.000Z</time>
      </trkpt>
      <trkpt lat="41.49297407828271389007568359375" lon="2.15027491562068462371826171875">
        <ele>67.8000030517578125</ele>
        <time>2022-01-07T08:43:18.000Z</time>
      </trkpt>
      <trkpt lat="41.492953710258007049560546875" lon="2.15030542574822902679443359375">
        <ele>67.8000030517578125</ele>
        <time>2022-01-07T08:43:19.000Z</time>
      </trkpt>
      <trkpt lat="41.4929159916937351226806640625" lon="2.1503432281315326690673828125">
        <ele>67.8000030517578125</ele>
        <time>2022-01-07T08:43:20.000Z</time>
      </trkpt>
      <trkpt lat="41.49288170970976352691650390625" lon="2.1503848023712635040283203125">
        <ele>67.59999847412109375</ele>
        <time>2022-01-07T08:43:21.000Z</time>
      </trkpt>
      <trkpt lat="41.492839045822620391845703125" lon="2.15043358504772186279296875">
        <ele>67.8000030517578125</ele>
        <time>2022-01-07T08:43:22.000Z</time>
      </trkpt>
      <trkpt lat="41.49280074052512645721435546875" lon="2.15047071687877178192138671875">
        <ele>67.8000030517578125</ele>
        <time>2022-01-07T08:43:23.000Z</time>
      </trkpt>
      <trkpt lat="41.49276302196085453033447265625" lon="2.1505101956427097320556640625">
        <ele>67.40000152587890625</ele>
        <time>2022-01-07T08:43:24.000Z</time>
      </trkpt>
      <trkpt lat="41.492736451327800750732421875" lon="2.1505527757108211517333984375">
        <ele>67.59999847412109375</ele>
        <time>2022-01-07T08:43:25.000Z</time>
      </trkpt>
      <trkpt lat="41.492706276476383209228515625" lon="2.1505992114543914794921875">
        <ele>67.1999969482421875</ele>
        <time>2022-01-07T08:43:26.000Z</time>
      </trkpt>
      <trkpt lat="41.4926683902740478515625" lon="2.1506448090076446533203125">
        <ele>67</ele>
        <time>2022-01-07T08:43:27.000Z</time>
      </trkpt>
      <trkpt lat="41.4926390536129474639892578125" lon="2.15069166384637355804443359375">
        <ele>67</ele>
        <time>2022-01-07T08:43:28.000Z</time>
      </trkpt>
      <trkpt lat="41.49262052960693836212158203125" lon="2.150737345218658447265625">
        <ele>66.59999847412109375</ele>
        <time>2022-01-07T08:43:29.000Z</time>
      </trkpt>
      <trkpt lat="41.492610387504100799560546875" lon="2.15077950619161128997802734375">
        <ele>66.40000152587890625</ele>
        <time>2022-01-07T08:43:30.000Z</time>
      </trkpt>
      <trkpt lat="41.4925880916416645050048828125" lon="2.15081471018493175506591796875">
        <ele>66.1999969482421875</ele>
        <time>2022-01-07T08:43:31.000Z</time>
      </trkpt>
      <trkpt lat="41.4925642870366573333740234375" lon="2.1508414484560489654541015625">
        <ele>66</ele>
        <time>2022-01-07T08:43:32.000Z</time>
      </trkpt>
      <trkpt lat="41.49254836142063140869140625" lon="2.15086969546973705291748046875">
        <ele>65.59999847412109375</ele>
        <time>2022-01-07T08:43:33.000Z</time>
      </trkpt>
      <trkpt lat="41.49253168143332004547119140625" lon="2.150893919169902801513671875">
        <ele>65.1999969482421875</ele>
        <time>2022-01-07T08:43:34.000Z</time>
      </trkpt>
      <trkpt lat="41.4925126545131206512451171875" lon="2.15091445483267307281494140625">
        <ele>65</ele>
        <time>2022-01-07T08:43:35.000Z</time>
      </trkpt>
      <trkpt lat="41.4924918673932552337646484375" lon="2.15093339793384075164794921875">
        <ele>64.8000030517578125</ele>
        <time>2022-01-07T08:43:36.000Z</time>
      </trkpt>
      <trkpt lat="41.49247569032013416290283203125" lon="2.15095854364335536956787109375">
        <ele>64.8000030517578125</ele>
        <time>2022-01-07T08:43:37.000Z</time>
      </trkpt>
      <trkpt lat="41.49245842359960079193115234375" lon="2.1509822644293308258056640625">
        <ele>64.8000030517578125</ele>
        <time>2022-01-07T08:43:38.000Z</time>
      </trkpt>
      <trkpt lat="41.492440067231655120849609375" lon="2.15101084671914577484130859375">
        <ele>64.59999847412109375</ele>
        <time>2022-01-07T08:43:39.000Z</time>
      </trkpt>
      <trkpt lat="41.492413245141506195068359375" lon="2.15104219503700733184814453125">
        <ele>64.59999847412109375</ele>
        <time>2022-01-07T08:43:40.000Z</time>
      </trkpt>
      <trkpt lat="41.492383740842342376708984375" lon="2.151070944964885711669921875">
        <ele>64.59999847412109375</ele>
        <time>2022-01-07T08:43:41.000Z</time>
      </trkpt>
      <trkpt lat="41.49235524237155914306640625" lon="2.15110640041530132293701171875">
        <ele>64.59999847412109375</ele>
        <time>2022-01-07T08:43:42.000Z</time>
      </trkpt>
      <trkpt lat="41.49232900701463222503662109375" lon="2.15114160440862178802490234375">
        <ele>64.40000152587890625</ele>
        <time>2022-01-07T08:43:43.000Z</time>
      </trkpt>
      <trkpt lat="41.4923081360757350921630859375" lon="2.1511800773441791534423828125">
        <ele>64.40000152587890625</ele>
        <time>2022-01-07T08:43:44.000Z</time>
      </trkpt>
      <trkpt lat="41.49228726513683795928955078125" lon="2.15121871791779994964599609375">
        <ele>64.40000152587890625</ele>
        <time>2022-01-07T08:43:45.000Z</time>
      </trkpt>
      <trkpt lat="41.49227351881563663482666015625" lon="2.15126247145235538482666015625">
        <ele>64.1999969482421875</ele>
        <time>2022-01-07T08:43:46.000Z</time>
      </trkpt>
      <trkpt lat="41.492255665361881256103515625" lon="2.15129264630377292633056640625">
        <ele>64.1999969482421875</ele>
        <time>2022-01-07T08:43:47.000Z</time>
      </trkpt>
      <trkpt lat="41.49223412387073040008544921875" lon="2.151316702365875244140625">
        <ele>63.799999237060546875</ele>
        <time>2022-01-07T08:43:48.000Z</time>
      </trkpt>
      <trkpt lat="41.49220562539994716644287109375" lon="2.151332795619964599609375">
        <ele>63.40000152587890625</ele>
        <time>2022-01-07T08:43:49.000Z</time>
      </trkpt>
      <trkpt lat="41.49217930622398853302001953125" lon="2.151346541941165924072265625">
        <ele>63.200000762939453125</ele>
        <time>2022-01-07T08:43:50.000Z</time>
      </trkpt>
      <trkpt lat="41.4921535737812519073486328125" lon="2.15135919861495494842529296875">
        <ele>62.799999237060546875</ele>
        <time>2022-01-07T08:43:51.000Z</time>
      </trkpt>
      <trkpt lat="41.49212767370045185089111328125" lon="2.1513765491545200347900390625">
        <ele>62.59999847412109375</ele>
        <time>2022-01-07T08:43:52.000Z</time>
      </trkpt>
      <trkpt lat="41.49209079332649707794189453125" lon="2.1513973362743854522705078125">
        <ele>62.40000152587890625</ele>
        <time>2022-01-07T08:43:53.000Z</time>
      </trkpt>
      <trkpt lat="41.492043100297451019287109375" lon="2.1514214761555194854736328125">
        <ele>62.200000762939453125</ele>
        <time>2022-01-07T08:43:54.000Z</time>
      </trkpt>
      <trkpt lat="41.49201367981731891632080078125" lon="2.15143849141895771026611328125">
        <ele>62</ele>
        <time>2022-01-07T08:43:55.000Z</time>
      </trkpt>
      <trkpt lat="41.491982080042362213134765625" lon="2.15143765322864055633544921875">
        <ele>62</ele>
        <time>2022-01-07T08:43:56.000Z</time>
      </trkpt>
      <trkpt lat="41.49195383302867412567138671875" lon="2.15142994187772274017333984375">
        <ele>62.200000762939453125</ele>
        <time>2022-01-07T08:43:57.000Z</time>
      </trkpt>
      <trkpt lat="41.4919269271194934844970703125" lon="2.15140898711979389190673828125">
        <ele>62.200000762939453125</ele>
        <time>2022-01-07T08:43:58.000Z</time>
      </trkpt>
      <trkpt lat="41.49189901538193225860595703125" lon="2.15139691717922687530517578125">
        <ele>62.200000762939453125</ele>
        <time>2022-01-07T08:43:59.000Z</time>
      </trkpt>
      <trkpt lat="41.49187973700463771820068359375" lon="2.1513852663338184356689453125">
        <ele>62</ele>
        <time>2022-01-07T08:44:00.000Z</time>
      </trkpt>
      <trkpt lat="41.49185727350413799285888671875" lon="2.151375710964202880859375">
        <ele>62</ele>
        <time>2022-01-07T08:44:01.000Z</time>
      </trkpt>
      <trkpt lat="41.49184134788811206817626953125" lon="2.15136422775685787200927734375">
        <ele>62</ele>
        <time>2022-01-07T08:44:02.000Z</time>
      </trkpt>
      <trkpt lat="41.49182475171983242034912109375" lon="2.151352576911449432373046875">
        <ele>62</ele>
        <time>2022-01-07T08:44:03.000Z</time>
      </trkpt>
      <trkpt lat="41.49180765263736248016357421875" lon="2.1513393335044384002685546875">
        <ele>62</ele>
        <time>2022-01-07T08:44:04.000Z</time>
      </trkpt>
      <trkpt lat="41.491791307926177978515625" lon="2.15132768265902996063232421875">
        <ele>62.200000762939453125</ele>
        <time>2022-01-07T08:44:05.000Z</time>
      </trkpt>
      <trkpt lat="41.4917733706533908843994140625" lon="2.1513145230710506439208984375">
        <ele>62.59999847412109375</ele>
        <time>2022-01-07T08:44:06.000Z</time>
      </trkpt>
      <trkpt lat="41.49175484664738178253173828125" lon="2.1512964181602001190185546875">
        <ele>62.799999237060546875</ele>
        <time>2022-01-07T08:44:07.000Z</time>
      </trkpt>
      <trkpt lat="41.49173699319362640380859375" lon="2.151274792850017547607421875">
        <ele>63.200000762939453125</ele>
        <time>2022-01-07T08:44:08.000Z</time>
      </trkpt>
      <trkpt lat="41.49171846918761730194091796875" lon="2.1512545086443424224853515625">
        <ele>63.59999847412109375</ele>
        <time>2022-01-07T08:44:09.000Z</time>
      </trkpt>
      <trkpt lat="41.49170078337192535400390625" lon="2.1512327156960964202880859375">
        <ele>63.799999237060546875</ele>
        <time>2022-01-07T08:44:10.000Z</time>
      </trkpt>
      <trkpt lat="41.491684019565582275390625" lon="2.151207067072391510009765625">
        <ele>64</ele>
        <time>2022-01-07T08:44:11.000Z</time>
      </trkpt>
      <trkpt lat="41.49167119525372982025146484375" lon="2.1511804126203060150146484375">
        <ele>64</ele>
        <time>2022-01-07T08:44:12.000Z</time>
      </trkpt>
      <trkpt lat="41.4916600473225116729736328125" lon="2.151150740683078765869140625">
        <ele>64</ele>
        <time>2022-01-07T08:44:13.000Z</time>
      </trkpt>
      <trkpt lat="41.4916489832103252410888671875" lon="2.151121906936168670654296875">
        <ele>64</ele>
        <time>2022-01-07T08:44:14.000Z</time>
      </trkpt>
      <trkpt lat="41.49163800291717052459716796875" lon="2.1510982699692249298095703125">
        <ele>64.1999969482421875</ele>
        <time>2022-01-07T08:44:15.000Z</time>
      </trkpt>
      <trkpt lat="41.49162811227142810821533203125" lon="2.15107572264969348907470703125">
        <ele>64.1999969482421875</ele>
        <time>2022-01-07T08:44:16.000Z</time>
      </trkpt>
      <trkpt lat="41.49161922745406627655029296875" lon="2.15105451643466949462890625">
        <ele>64.1999969482421875</ele>
        <time>2022-01-07T08:44:17.000Z</time>
      </trkpt>
      <trkpt lat="41.49160690605640411376953125" lon="2.1510389260947704315185546875">
        <ele>64.1999969482421875</ele>
        <time>2022-01-07T08:44:18.000Z</time>
      </trkpt>
      <trkpt lat="41.4915913157165050506591796875" lon="2.15102660469710826873779296875">
        <ele>64.1999969482421875</ele>
        <time>2022-01-07T08:44:19.000Z</time>
      </trkpt>
      <trkpt lat="41.4915780723094940185546875" lon="2.15101168490946292877197265625">
        <ele>64.1999969482421875</ele>
        <time>2022-01-07T08:44:20.000Z</time>
      </trkpt>
      <trkpt lat="41.4915675111114978790283203125" lon="2.1509933285415172576904296875">
        <ele>64.1999969482421875</ele>
        <time>2022-01-07T08:44:21.000Z</time>
      </trkpt>
      <trkpt lat="41.49155535735189914703369140625" lon="2.15096793137490749359130859375">
        <ele>64.1999969482421875</ele>
        <time>2022-01-07T08:44:22.000Z</time>
      </trkpt>
      <trkpt lat="41.49153649806976318359375" lon="2.15093649923801422119140625">
        <ele>64.1999969482421875</ele>
        <time>2022-01-07T08:44:23.000Z</time>
      </trkpt>
      <trkpt lat="41.49151436984539031982421875" lon="2.15090607292950153350830078125">
        <ele>64.1999969482421875</ele>
        <time>2022-01-07T08:44:24.000Z</time>
      </trkpt>
      <trkpt lat="41.49148888885974884033203125" lon="2.1508813463151454925537109375">
        <ele>64.1999969482421875</ele>
        <time>2022-01-07T08:44:25.000Z</time>
      </trkpt>
      <trkpt lat="41.49145938456058502197265625" lon="2.1508565358817577362060546875">
        <ele>64.1999969482421875</ele>
        <time>2022-01-07T08:44:26.000Z</time>
      </trkpt>
      <trkpt lat="41.49142719805240631103515625" lon="2.1508354134857654571533203125">
        <ele>64.40000152587890625</ele>
        <time>2022-01-07T08:44:27.000Z</time>
      </trkpt>
      <trkpt lat="41.4913941733539104461669921875" lon="2.15081420727074146270751953125">
        <ele>64.40000152587890625</ele>
        <time>2022-01-07T08:44:28.000Z</time>
      </trkpt>
      <trkpt lat="41.49135804735124111175537109375" lon="2.15080180205404758453369140625">
        <ele>64.40000152587890625</ele>
        <time>2022-01-07T08:44:29.000Z</time>
      </trkpt>
      <trkpt lat="41.491316892206668853759765625" lon="2.1508057415485382080078125">
        <ele>64.40000152587890625</ele>
        <time>2022-01-07T08:44:30.000Z</time>
      </trkpt>
      <trkpt lat="41.4912764914333820343017578125" lon="2.15082292445003986358642578125">
        <ele>64.40000152587890625</ele>
        <time>2022-01-07T08:44:31.000Z</time>
      </trkpt>
      <trkpt lat="41.4912379346787929534912109375" lon="2.150855027139186859130859375">
        <ele>64.40000152587890625</ele>
        <time>2022-01-07T08:44:32.000Z</time>
      </trkpt>
      <trkpt lat="41.4912023954093456268310546875" lon="2.15089417062699794769287109375">
        <ele>64.40000152587890625</ele>
        <time>2022-01-07T08:44:33.000Z</time>
      </trkpt>
      <trkpt lat="41.4911685325205326080322265625" lon="2.15093649923801422119140625">
        <ele>64.40000152587890625</ele>
        <time>2022-01-07T08:44:34.000Z</time>
      </trkpt>
      <trkpt lat="41.491133831441402435302734375" lon="2.15097597800195217132568359375">
        <ele>64.40000152587890625</ele>
        <time>2022-01-07T08:44:35.000Z</time>
      </trkpt>
      <trkpt lat="41.49109871126711368560791015625" lon="2.15101587586104869842529296875">
        <ele>64.1999969482421875</ele>
        <time>2022-01-07T08:44:36.000Z</time>
      </trkpt>
      <trkpt lat="41.4910635910928249359130859375" lon="2.1510583721101284027099609375">
        <ele>64.1999969482421875</ele>
        <time>2022-01-07T08:44:37.000Z</time>
      </trkpt>
      <trkpt lat="41.49102763272821903228759765625" lon="2.15110371820628643035888671875">
        <ele>64.1999969482421875</ele>
        <time>2022-01-07T08:44:38.000Z</time>
      </trkpt>
      <trkpt lat="41.49099536240100860595703125" lon="2.15115350671112537384033203125">
        <ele>64.1999969482421875</ele>
        <time>2022-01-07T08:44:39.000Z</time>
      </trkpt>
      <trkpt lat="41.4909643493592739105224609375" lon="2.15120078064501285552978515625">
        <ele>64.40000152587890625</ele>
        <time>2022-01-07T08:44:40.000Z</time>
      </trkpt>
      <trkpt lat="41.4909343421459197998046875" lon="2.15125107206404209136962890625">
        <ele>64.40000152587890625</ele>
        <time>2022-01-07T08:44:41.000Z</time>
      </trkpt>
      <trkpt lat="41.4909016527235507965087890625" lon="2.15130102820694446563720703125">
        <ele>64.40000152587890625</ele>
        <time>2022-01-07T08:44:42.000Z</time>
      </trkpt>
      <trkpt lat="41.4908654429018497467041015625" lon="2.15134947560727596282958984375">
        <ele>64.40000152587890625</ele>
        <time>2022-01-07T08:44:43.000Z</time>
      </trkpt>
      <trkpt lat="41.49083266966044902801513671875" lon="2.15139423497021198272705078125">
        <ele>64.40000152587890625</ele>
        <time>2022-01-07T08:44:44.000Z</time>
      </trkpt>
      <trkpt lat="41.49080090224742889404296875" lon="2.15144067071378231048583984375">
        <ele>64.40000152587890625</ele>
        <time>2022-01-07T08:44:45.000Z</time>
      </trkpt>
      <trkpt lat="41.490768380463123321533203125" lon="2.15148760937154293060302734375">
        <ele>64.40000152587890625</ele>
        <time>2022-01-07T08:44:46.000Z</time>
      </trkpt>
      <trkpt lat="41.49073560722172260284423828125" lon="2.15153320692479610443115234375">
        <ele>64.40000152587890625</ele>
        <time>2022-01-07T08:44:47.000Z</time>
      </trkpt>
      <trkpt lat="41.4907009899616241455078125" lon="2.151578553020954132080078125">
        <ele>64.1999969482421875</ele>
        <time>2022-01-07T08:44:48.000Z</time>
      </trkpt>
      <trkpt lat="41.49067073129117488861083984375" lon="2.15162456966936588287353515625">
        <ele>64.1999969482421875</ele>
        <time>2022-01-07T08:44:49.000Z</time>
      </trkpt>
      <trkpt lat="41.49063737131655216217041015625" lon="2.151670418679714202880859375">
        <ele>64.1999969482421875</ele>
        <time>2022-01-07T08:44:50.000Z</time>
      </trkpt>
      <trkpt lat="41.4906042627990245819091796875" lon="2.15171693824231624603271484375">
        <ele>64.1999969482421875</ele>
        <time>2022-01-07T08:44:51.000Z</time>
      </trkpt>
      <trkpt lat="41.49057182483375072479248046875" lon="2.15176127851009368896484375">
        <ele>64.1999969482421875</ele>
        <time>2022-01-07T08:44:52.000Z</time>
      </trkpt>
      <trkpt lat="41.49053997360169887542724609375" lon="2.15180377475917339324951171875">
        <ele>64.1999969482421875</ele>
        <time>2022-01-07T08:44:53.000Z</time>
      </trkpt>
      <trkpt lat="41.49050812236964702606201171875" lon="2.151846103370189666748046875">
        <ele>64.1999969482421875</ele>
        <time>2022-01-07T08:44:54.000Z</time>
      </trkpt>
      <trkpt lat="41.4904756844043731689453125" lon="2.15188457630574703216552734375">
        <ele>64.1999969482421875</ele>
        <time>2022-01-07T08:44:55.000Z</time>
      </trkpt>
      <trkpt lat="41.4904460124671459197998046875" lon="2.1519237197935581207275390625">
        <ele>64.1999969482421875</ele>
        <time>2022-01-07T08:44:56.000Z</time>
      </trkpt>
      <trkpt lat="41.49041759781539440155029296875" lon="2.15196420438587665557861328125">
        <ele>64.1999969482421875</ele>
        <time>2022-01-07T08:44:57.000Z</time>
      </trkpt>
      <trkpt lat="41.49038775824010372161865234375" lon="2.15200242586433887481689453125">
        <ele>64.40000152587890625</ele>
        <time>2022-01-07T08:44:58.000Z</time>
      </trkpt>
      <trkpt lat="41.49035607464611530303955078125" lon="2.1520424075424671173095703125">
        <ele>64.40000152587890625</ele>
        <time>2022-01-07T08:44:59.000Z</time>
      </trkpt>
      <trkpt lat="41.49032481014728546142578125" lon="2.152084819972515106201171875">
        <ele>64.1999969482421875</ele>
        <time>2022-01-07T08:45:00.000Z</time>
      </trkpt>
      <trkpt lat="41.49029304273426532745361328125" lon="2.15212815441191196441650390625">
        <ele>64.1999969482421875</ele>
        <time>2022-01-07T08:45:01.000Z</time>
      </trkpt>
      <trkpt lat="41.49026085622608661651611328125" lon="2.1521709859371185302734375">
        <ele>64.1999969482421875</ele>
        <time>2022-01-07T08:45:02.000Z</time>
      </trkpt>
      <trkpt lat="41.4902311004698276519775390625" lon="2.15221314691007137298583984375">
        <ele>64.1999969482421875</ele>
        <time>2022-01-07T08:45:03.000Z</time>
      </trkpt>
      <trkpt lat="41.4902039431035518646240234375" lon="2.15225505642592906951904296875">
        <ele>64.1999969482421875</ele>
        <time>2022-01-07T08:45:04.000Z</time>
      </trkpt>
      <trkpt lat="41.4901751093566417694091796875" lon="2.15230065397918224334716796875">
        <ele>64.1999969482421875</ele>
        <time>2022-01-07T08:45:05.000Z</time>
      </trkpt>
      <trkpt lat="41.4901430904865264892578125" lon="2.15234239585697650909423828125">
        <ele>64.1999969482421875</ele>
        <time>2022-01-07T08:45:06.000Z</time>
      </trkpt>
      <trkpt lat="41.490107886493206024169921875" lon="2.15238464064896106719970703125">
        <ele>64.1999969482421875</ele>
        <time>2022-01-07T08:45:07.000Z</time>
      </trkpt>
      <trkpt lat="41.49007511325180530548095703125" lon="2.1524257957935333251953125">
        <ele>64.1999969482421875</ele>
        <time>2022-01-07T08:45:08.000Z</time>
      </trkpt>
      <trkpt lat="41.4900430105626583099365234375" lon="2.15246946550905704498291015625">
        <ele>64.1999969482421875</ele>
        <time>2022-01-07T08:45:09.000Z</time>
      </trkpt>
      <trkpt lat="41.49001124314963817596435546875" lon="2.15251254849135875701904296875">
        <ele>64.1999969482421875</ele>
        <time>2022-01-07T08:45:10.000Z</time>
      </trkpt>
      <trkpt lat="41.48997905664145946502685546875" lon="2.15255320072174072265625">
        <ele>64.1999969482421875</ele>
        <time>2022-01-07T08:45:11.000Z</time>
      </trkpt>
      <trkpt lat="41.48994787596166133880615234375" lon="2.15259016491472721099853515625">
        <ele>64.1999969482421875</ele>
        <time>2022-01-07T08:45:12.000Z</time>
      </trkpt>
      <trkpt lat="41.489916779100894927978515625" lon="2.15262872166931629180908203125">
        <ele>64.1999969482421875</ele>
        <time>2022-01-07T08:45:13.000Z</time>
      </trkpt>
      <trkpt lat="41.4898844249546527862548828125" lon="2.152668535709381103515625">
        <ele>64.1999969482421875</ele>
        <time>2022-01-07T08:45:14.000Z</time>
      </trkpt>
      <trkpt lat="41.489854417741298675537109375" lon="2.152707092463970184326171875">
        <ele>64.1999969482421875</ele>
        <time>2022-01-07T08:45:15.000Z</time>
      </trkpt>
      <trkpt lat="41.48982591927051544189453125" lon="2.15275059454143047332763671875">
        <ele>64.1999969482421875</ele>
        <time>2022-01-07T08:45:16.000Z</time>
      </trkpt>
      <trkpt lat="41.4897962473332881927490234375" lon="2.1527987904846668243408203125">
        <ele>64.1999969482421875</ele>
        <time>2022-01-07T08:45:17.000Z</time>
      </trkpt>
      <trkpt lat="41.48976422846317291259765625" lon="2.15284413658082485198974609375">
        <ele>64.1999969482421875</ele>
        <time>2022-01-07T08:45:18.000Z</time>
      </trkpt>
      <trkpt lat="41.48973338305950164794921875" lon="2.15288537554442882537841796875">
        <ele>64.1999969482421875</ele>
        <time>2022-01-07T08:45:19.000Z</time>
      </trkpt>
      <trkpt lat="41.48970128037035465240478515625" lon="2.1529265306890010833740234375">
        <ele>64</ele>
        <time>2022-01-07T08:45:20.000Z</time>
      </trkpt>
      <trkpt lat="41.48966942913830280303955078125" lon="2.15296919457614421844482421875">
        <ele>64</ele>
        <time>2022-01-07T08:45:21.000Z</time>
      </trkpt>
      <trkpt lat="41.4896390028297901153564453125" lon="2.1530143730342388153076171875">
        <ele>64</ele>
        <time>2022-01-07T08:45:22.000Z</time>
      </trkpt>
      <trkpt lat="41.4896088279783725738525390625" lon="2.1530587971210479736328125">
        <ele>64</ele>
        <time>2022-01-07T08:45:23.000Z</time>
      </trkpt>
      <trkpt lat="41.4895776472985744476318359375" lon="2.1531008742749691009521484375">
        <ele>64</ele>
        <time>2022-01-07T08:45:24.000Z</time>
      </trkpt>
      <trkpt lat="41.4895461313426494598388671875" lon="2.15314387343823909759521484375">
        <ele>64</ele>
        <time>2022-01-07T08:45:25.000Z</time>
      </trkpt>
      <trkpt lat="41.48951746523380279541015625" lon="2.153187207877635955810546875">
        <ele>64</ele>
        <time>2022-01-07T08:45:26.000Z</time>
      </trkpt>
      <trkpt lat="41.4894881285727024078369140625" lon="2.1532289497554302215576171875">
        <ele>64</ele>
        <time>2022-01-07T08:45:27.000Z</time>
      </trkpt>
      <trkpt lat="41.4894603006541728973388671875" lon="2.15326658450067043304443359375">
        <ele>64</ele>
        <time>2022-01-07T08:45:28.000Z</time>
      </trkpt>
      <trkpt lat="41.48943171836435794830322265625" lon="2.15330530889332294464111328125">
        <ele>64</ele>
        <time>2022-01-07T08:45:29.000Z</time>
      </trkpt>
      <trkpt lat="41.48940221406519412994384765625" lon="2.1533442847430706024169921875">
        <ele>64</ele>
        <time>2022-01-07T08:45:30.000Z</time>
      </trkpt>
      <trkpt lat="41.4893764816224575042724609375" lon="2.15337722562253475189208984375">
        <ele>64</ele>
        <time>2022-01-07T08:45:31.000Z</time>
      </trkpt>
      <trkpt lat="41.48933666758239269256591796875" lon="2.15342684648931026458740234375">
        <ele>64</ele>
        <time>2022-01-07T08:45:32.000Z</time>
      </trkpt>
      <trkpt lat="41.48930297233164310455322265625" lon="2.153468839824199676513671875">
        <ele>64</ele>
        <time>2022-01-07T08:45:33.000Z</time>
      </trkpt>
      <trkpt lat="41.48926843889057636260986328125" lon="2.153511084616184234619140625">
        <ele>64</ele>
        <time>2022-01-07T08:45:34.000Z</time>
      </trkpt>
      <trkpt lat="41.4892349950969219207763671875" lon="2.15355592779815196990966796875">
        <ele>64</ele>
        <time>2022-01-07T08:45:35.000Z</time>
      </trkpt>
      <trkpt lat="41.48920021019876003265380859375" lon="2.1536044590175151824951171875">
        <ele>64</ele>
        <time>2022-01-07T08:45:36.000Z</time>
      </trkpt>
      <trkpt lat="41.4891652576625347137451171875" lon="2.153652571141719818115234375">
        <ele>64</ele>
        <time>2022-01-07T08:45:37.000Z</time>
      </trkpt>
      <trkpt lat="41.4891345798969268798828125" lon="2.15369959361851215362548828125">
        <ele>64</ele>
        <time>2022-01-07T08:45:38.000Z</time>
      </trkpt>
      <trkpt lat="41.48910465650260448455810546875" lon="2.153751812875270843505859375">
        <ele>63.799999237060546875</ele>
        <time>2022-01-07T08:45:39.000Z</time>
      </trkpt>
      <trkpt lat="41.48907431401312351226806640625" lon="2.15380084700882434844970703125">
        <ele>63.799999237060546875</ele>
        <time>2022-01-07T08:45:40.000Z</time>
      </trkpt>
      <trkpt lat="41.48904296569526195526123046875" lon="2.15384912677109241485595703125">
        <ele>63.799999237060546875</ele>
        <time>2022-01-07T08:45:41.000Z</time>
      </trkpt>
      <trkpt lat="41.4890093542635440826416015625" lon="2.15389707125723361968994140625">
        <ele>63.799999237060546875</ele>
        <time>2022-01-07T08:45:42.000Z</time>
      </trkpt>
      <trkpt lat="41.4889764972031116485595703125" lon="2.15394166298210620880126953125">
        <ele>63.799999237060546875</ele>
        <time>2022-01-07T08:45:43.000Z</time>
      </trkpt>
      <trkpt lat="41.48894305340945720672607421875" lon="2.1539870090782642364501953125">
        <ele>63.799999237060546875</ele>
        <time>2022-01-07T08:45:44.000Z</time>
      </trkpt>
      <trkpt lat="41.488910280168056488037109375" lon="2.15403134934604167938232421875">
        <ele>63.799999237060546875</ele>
        <time>2022-01-07T08:45:45.000Z</time>
      </trkpt>
      <trkpt lat="41.48887700401246547698974609375" lon="2.15407728217542171478271484375">
        <ele>63.799999237060546875</ele>
        <time>2022-01-07T08:45:46.000Z</time>
      </trkpt>
      <trkpt lat="41.48884481750428676605224609375" lon="2.154121957719326019287109375">
        <ele>63.799999237060546875</ele>
        <time>2022-01-07T08:45:47.000Z</time>
      </trkpt>
      <trkpt lat="41.48881330154836177825927734375" lon="2.15416462160646915435791015625">
        <ele>63.799999237060546875</ele>
        <time>2022-01-07T08:45:48.000Z</time>
      </trkpt>
      <trkpt lat="41.48877792991697788238525390625" lon="2.15420669876039028167724609375">
        <ele>63.799999237060546875</ele>
        <time>2022-01-07T08:45:49.000Z</time>
      </trkpt>
      <trkpt lat="41.48874423466622829437255859375" lon="2.1542518772184848785400390625">
        <ele>63.59999847412109375</ele>
        <time>2022-01-07T08:45:50.000Z</time>
      </trkpt>
      <trkpt lat="41.48871188051998615264892578125" lon="2.1542964689433574676513671875">
        <ele>63.59999847412109375</ele>
        <time>2022-01-07T08:45:51.000Z</time>
      </trkpt>
      <trkpt lat="41.488679610192775726318359375" lon="2.154340557754039764404296875">
        <ele>63.59999847412109375</ele>
        <time>2022-01-07T08:45:52.000Z</time>
      </trkpt>
      <trkpt lat="41.488645412027835845947265625" lon="2.154384143650531768798828125">
        <ele>63.59999847412109375</ele>
        <time>2022-01-07T08:45:53.000Z</time>
      </trkpt>
      <trkpt lat="41.4886097051203250885009765625" lon="2.154430411756038665771484375">
        <ele>63.59999847412109375</ele>
        <time>2022-01-07T08:45:54.000Z</time>
      </trkpt>
      <trkpt lat="41.488579027354717254638671875" lon="2.15446871705353260040283203125">
        <ele>63.40000152587890625</ele>
        <time>2022-01-07T08:45:55.000Z</time>
      </trkpt>
      <trkpt lat="41.4885299094021320343017578125" lon="2.15452655218541622161865234375">
        <ele>63.40000152587890625</ele>
        <time>2022-01-07T08:45:56.000Z</time>
      </trkpt>
      <trkpt lat="41.4884876646101474761962890625" lon="2.15457432903349399566650390625">
        <ele>63.200000762939453125</ele>
        <time>2022-01-07T08:45:57.000Z</time>
      </trkpt>
      <trkpt lat="41.48845220915973186492919921875" lon="2.1546133048832416534423828125">
        <ele>63.200000762939453125</ele>
        <time>2022-01-07T08:45:58.000Z</time>
      </trkpt>
      <trkpt lat="41.48841029964387416839599609375" lon="2.154663763940334320068359375">
        <ele>63</ele>
        <time>2022-01-07T08:45:59.000Z</time>
      </trkpt>
      <trkpt lat="41.4883616007864475250244140625" lon="2.15472637675702571868896484375">
        <ele>62.799999237060546875</ele>
        <time>2022-01-07T08:46:00.000Z</time>
      </trkpt>
      <trkpt lat="41.48832924664020538330078125" lon="2.15476979501545429229736328125">
        <ele>62.799999237060546875</ele>
        <time>2022-01-07T08:46:01.000Z</time>
      </trkpt>
      <trkpt lat="41.48828289471566677093505859375" lon="2.1548355929553508758544921875">
        <ele>62.59999847412109375</ele>
        <time>2022-01-07T08:46:02.000Z</time>
      </trkpt>
      <trkpt lat="41.4882512949407100677490234375" lon="2.15487926267087459564208984375">
        <ele>62.40000152587890625</ele>
        <time>2022-01-07T08:46:03.000Z</time>
      </trkpt>
      <trkpt lat="41.48821131326258182525634765625" lon="2.1549336612224578857421875">
        <ele>62.200000762939453125</ele>
        <time>2022-01-07T08:46:04.000Z</time>
      </trkpt>
      <trkpt lat="41.4881681464612483978271484375" lon="2.15500297956168651580810546875">
        <ele>62.200000762939453125</ele>
        <time>2022-01-07T08:46:05.000Z</time>
      </trkpt>
      <trkpt lat="41.48813772015273571014404296875" lon="2.15504807420074939727783203125">
        <ele>61.799999237060546875</ele>
        <time>2022-01-07T08:46:06.000Z</time>
      </trkpt>
      <trkpt lat="41.4880990795791149139404296875" lon="2.155102305114269256591796875">
        <ele>61.59999847412109375</ele>
        <time>2022-01-07T08:46:07.000Z</time>
      </trkpt>
      <trkpt lat="41.4880625344812870025634765625" lon="2.15515435673296451568603515625">
        <ele>61.40000152587890625</ele>
        <time>2022-01-07T08:46:08.000Z</time>
      </trkpt>
      <trkpt lat="41.48802557028830051422119140625" lon="2.15520783327519893646240234375">
        <ele>61.40000152587890625</ele>
        <time>2022-01-07T08:46:09.000Z</time>
      </trkpt>
      <trkpt lat="41.487980894744396209716796875" lon="2.15527153573930263519287109375">
        <ele>61.200000762939453125</ele>
        <time>2022-01-07T08:46:10.000Z</time>
      </trkpt>
      <trkpt lat="41.4879498817026615142822265625" lon="2.15531176887452602386474609375">
        <ele>61</ele>
        <time>2022-01-07T08:46:11.000Z</time>
      </trkpt>
      <trkpt lat="41.48791057057678699493408203125" lon="2.1553613059222698211669921875">
        <ele>60.799999237060546875</ele>
        <time>2022-01-07T08:46:12.000Z</time>
      </trkpt>
      <trkpt lat="41.48787067271769046783447265625" lon="2.15541000477969646453857421875">
        <ele>60.799999237060546875</ele>
        <time>2022-01-07T08:46:13.000Z</time>
      </trkpt>
      <trkpt lat="41.4878318645060062408447265625" lon="2.15545996092259883880615234375">
        <ele>60.59999847412109375</ele>
        <time>2022-01-07T08:46:14.000Z</time>
      </trkpt>
      <trkpt lat="41.48779490031301975250244140625" lon="2.1555111743509769439697265625">
        <ele>60.59999847412109375</ele>
        <time>2022-01-07T08:46:15.000Z</time>
      </trkpt>
      <trkpt lat="41.4877493865787982940673828125" lon="2.15557563118636608123779296875">
        <ele>60.59999847412109375</ele>
        <time>2022-01-07T08:46:16.000Z</time>
      </trkpt>
      <trkpt lat="41.4877130091190338134765625" lon="2.15563044883310794830322265625">
        <ele>60.40000152587890625</ele>
        <time>2022-01-07T08:46:17.000Z</time>
      </trkpt>
      <trkpt lat="41.48768476210534572601318359375" lon="2.155676297843456268310546875">
        <ele>60.40000152587890625</ele>
        <time>2022-01-07T08:46:18.000Z</time>
      </trkpt>
      <trkpt lat="41.4876488037407398223876953125" lon="2.15572885237634181976318359375">
        <ele>60.200000762939453125</ele>
        <time>2022-01-07T08:46:19.000Z</time>
      </trkpt>
      <trkpt lat="41.487604714930057525634765625" lon="2.15579339303076267242431640625">
        <ele>60.200000762939453125</ele>
        <time>2022-01-07T08:46:20.000Z</time>
      </trkpt>
      <trkpt lat="41.48756858892738819122314453125" lon="2.15584720484912395477294921875">
        <ele>60</ele>
        <time>2022-01-07T08:46:21.000Z</time>
      </trkpt>
      <trkpt lat="41.4875348098576068878173828125" lon="2.1559024415910243988037109375">
        <ele>59.799999237060546875</ele>
        <time>2022-01-07T08:46:22.000Z</time>
      </trkpt>
      <trkpt lat="41.4874992705881595611572265625" lon="2.1559560857713222503662109375">
        <ele>59.59999847412109375</ele>
        <time>2022-01-07T08:46:23.000Z</time>
      </trkpt>
      <trkpt lat="41.48746959865093231201171875" lon="2.15599958784878253936767578125">
        <ele>59.40000152587890625</ele>
        <time>2022-01-07T08:46:24.000Z</time>
      </trkpt>
      <trkpt lat="41.48742324672639369964599609375" lon="2.15606513433158397674560546875">
        <ele>59.40000152587890625</ele>
        <time>2022-01-07T08:46:25.000Z</time>
      </trkpt>
      <trkpt lat="41.48738334886729717254638671875" lon="2.15611928142607212066650390625">
        <ele>59.200000762939453125</ele>
        <time>2022-01-07T08:46:26.000Z</time>
      </trkpt>
      <trkpt lat="41.48734328337013721466064453125" lon="2.1561743505299091339111328125">
        <ele>59.200000762939453125</ele>
        <time>2022-01-07T08:46:27.000Z</time>
      </trkpt>
      <trkpt lat="41.487312354147434234619140625" lon="2.1562176011502742767333984375">
        <ele>59</ele>
        <time>2022-01-07T08:46:28.000Z</time>
      </trkpt>
      <trkpt lat="41.487263739109039306640625" lon="2.15628172270953655242919921875">
        <ele>59</ele>
        <time>2022-01-07T08:46:29.000Z</time>
      </trkpt>
      <trkpt lat="41.48722493089735507965087890625" lon="2.1563356183469295501708984375">
        <ele>58.799999237060546875</ele>
        <time>2022-01-07T08:46:30.000Z</time>
      </trkpt>
      <trkpt lat="41.48718771524727344512939453125" lon="2.15639077126979827880859375">
        <ele>58.59999847412109375</ele>
        <time>2022-01-07T08:46:31.000Z</time>
      </trkpt>
      <trkpt lat="41.48715536110103130340576171875" lon="2.15643561445176601409912109375">
        <ele>58.40000152587890625</ele>
        <time>2022-01-07T08:46:32.000Z</time>
      </trkpt>
      <trkpt lat="41.4871163852512836456298828125" lon="2.156492359936237335205078125">
        <ele>58</ele>
        <time>2022-01-07T08:46:33.000Z</time>
      </trkpt>
      <trkpt lat="41.48707908578217029571533203125" lon="2.1565501950681209564208984375">
        <ele>57.799999237060546875</ele>
        <time>2022-01-07T08:46:34.000Z</time>
      </trkpt>
      <trkpt lat="41.487043462693691253662109375" lon="2.1566065214574337005615234375">
        <ele>57.799999237060546875</ele>
        <time>2022-01-07T08:46:35.000Z</time>
      </trkpt>
      <trkpt lat="41.48699593730270862579345703125" lon="2.1566745825111865997314453125">
        <ele>57.799999237060546875</ele>
        <time>2022-01-07T08:46:36.000Z</time>
      </trkpt>
      <trkpt lat="41.48696391843259334564208984375" lon="2.1567198447883129119873046875">
        <ele>57.799999237060546875</ele>
        <time>2022-01-07T08:46:37.000Z</time>
      </trkpt>
      <trkpt lat="41.48692150600254535675048828125" lon="2.15677508153021335601806640625">
        <ele>57.59999847412109375</ele>
        <time>2022-01-07T08:46:38.000Z</time>
      </trkpt>
      <trkpt lat="41.486879847943782806396484375" lon="2.1568324975669384002685546875">
        <ele>57.59999847412109375</ele>
        <time>2022-01-07T08:46:39.000Z</time>
      </trkpt>
      <trkpt lat="41.48682653903961181640625" lon="2.15690198354423046112060546875">
        <ele>57.40000152587890625</ele>
        <time>2022-01-07T08:46:40.000Z</time>
      </trkpt>
      <trkpt lat="41.486784629523754119873046875" lon="2.1569592319428920745849609375">
        <ele>57.40000152587890625</ele>
        <time>2022-01-07T08:46:41.000Z</time>
      </trkpt>
      <trkpt lat="41.4867482520639896392822265625" lon="2.157003991305828094482421875">
        <ele>57</ele>
        <time>2022-01-07T08:46:42.000Z</time>
      </trkpt>
      <trkpt lat="41.48670692928135395050048828125" lon="2.15705989859998226165771484375">
        <ele>56.799999237060546875</ele>
        <time>2022-01-07T08:46:43.000Z</time>
      </trkpt>
      <trkpt lat="41.48666501976549625396728515625" lon="2.15712058357894420623779296875">
        <ele>56.799999237060546875</ele>
        <time>2022-01-07T08:46:44.000Z</time>
      </trkpt>
      <trkpt lat="41.48661757819354534149169921875" lon="2.15719367377460002899169921875">
        <ele>56.799999237060546875</ele>
        <time>2022-01-07T08:46:45.000Z</time>
      </trkpt>
      <trkpt lat="41.4865769259631633758544921875" lon="2.1572465635836124420166015625">
        <ele>56.799999237060546875</ele>
        <time>2022-01-07T08:46:46.000Z</time>
      </trkpt>
      <trkpt lat="41.48654264397919178009033203125" lon="2.15729090385138988494873046875">
        <ele>56.59999847412109375</ele>
        <time>2022-01-07T08:46:47.000Z</time>
      </trkpt>
      <trkpt lat="41.486497633159160614013671875" lon="2.157350666821002960205078125">
        <ele>56.40000152587890625</ele>
        <time>2022-01-07T08:46:48.000Z</time>
      </trkpt>
      <trkpt lat="41.4864441566169261932373046875" lon="2.15742451138794422149658203125">
        <ele>56.200000762939453125</ele>
        <time>2022-01-07T08:46:49.000Z</time>
      </trkpt>
      <trkpt lat="41.4864019118249416351318359375" lon="2.1574846096336841583251953125">
        <ele>56</ele>
        <time>2022-01-07T08:46:50.000Z</time>
      </trkpt>
      <trkpt lat="41.48635991849005222320556640625" lon="2.15754889883100986480712890625">
        <ele>56</ele>
        <time>2022-01-07T08:46:51.000Z</time>
      </trkpt>
      <trkpt lat="41.486326642334461212158203125" lon="2.1576036326587200164794921875">
        <ele>55.799999237060546875</ele>
        <time>2022-01-07T08:46:52.000Z</time>
      </trkpt>
      <trkpt lat="41.486285738646984100341796875" lon="2.15766959823668003082275390625">
        <ele>55.799999237060546875</ele>
        <time>2022-01-07T08:46:53.000Z</time>
      </trkpt>
      <trkpt lat="41.48623201064765453338623046875" lon="2.157746963202953338623046875">
        <ele>55.59999847412109375</ele>
        <time>2022-01-07T08:46:54.000Z</time>
      </trkpt>
      <trkpt lat="41.4861859939992427825927734375" lon="2.15781100094318389892578125">
        <ele>55.59999847412109375</ele>
        <time>2022-01-07T08:46:55.000Z</time>
      </trkpt>
      <trkpt lat="41.4861397258937358856201171875" lon="2.1578768827021121978759765625">
        <ele>55.200000762939453125</ele>
        <time>2022-01-07T08:46:56.000Z</time>
      </trkpt>
      <trkpt lat="41.48609220050275325775146484375" lon="2.1579409204423427581787109375">
        <ele>54.799999237060546875</ele>
        <time>2022-01-07T08:46:57.000Z</time>
      </trkpt>
      <trkpt lat="41.4860508777201175689697265625" lon="2.157988362014293670654296875">
        <ele>54.59999847412109375</ele>
        <time>2022-01-07T08:46:58.000Z</time>
      </trkpt>
      <trkpt lat="41.485990695655345916748046875" lon="2.15806170366704463958740234375">
        <ele>54.59999847412109375</ele>
        <time>2022-01-07T08:46:59.000Z</time>
      </trkpt>
      <trkpt lat="41.48594249971210956573486328125" lon="2.15812641195952892303466796875">
        <ele>54.200000762939453125</ele>
        <time>2022-01-07T08:47:00.000Z</time>
      </trkpt>
      <trkpt lat="41.4858969859778881072998046875" lon="2.1581930480897426605224609375">
        <ele>54.200000762939453125</ele>
        <time>2022-01-07T08:47:01.000Z</time>
      </trkpt>
      <trkpt lat="41.48585784249007701873779296875" lon="2.1582470275461673736572265625">
        <ele>54</ele>
        <time>2022-01-07T08:47:02.000Z</time>
      </trkpt>
      <trkpt lat="41.4858128316700458526611328125" lon="2.15831299312412738800048828125">
        <ele>53.799999237060546875</ele>
        <time>2022-01-07T08:47:03.000Z</time>
      </trkpt>
      <trkpt lat="41.4857578463852405548095703125" lon="2.15838943608105182647705078125">
        <ele>53.59999847412109375</ele>
        <time>2022-01-07T08:47:04.000Z</time>
      </trkpt>
      <trkpt lat="41.4857102371752262115478515625" lon="2.1584495343267917633056640625">
        <ele>53.40000152587890625</ele>
        <time>2022-01-07T08:47:05.000Z</time>
      </trkpt>
      <trkpt lat="41.485662795603275299072265625" lon="2.158508710563182830810546875">
        <ele>53.200000762939453125</ele>
        <time>2022-01-07T08:47:06.000Z</time>
      </trkpt>
      <trkpt lat="41.4856262505054473876953125" lon="2.1585571579635143280029296875">
        <ele>53.200000762939453125</ele>
        <time>2022-01-07T08:47:07.000Z</time>
      </trkpt>
      <trkpt lat="41.48558241315186023712158203125" lon="2.15861675329506397247314453125">
        <ele>53</ele>
        <time>2022-01-07T08:47:08.000Z</time>
      </trkpt>
      <trkpt lat="41.48552893660962581634521484375" lon="2.1586872451007366180419921875">
        <ele>52.799999237060546875</ele>
        <time>2022-01-07T08:47:09.000Z</time>
      </trkpt>
      <trkpt lat="41.48548543453216552734375" lon="2.15874549932777881622314453125">
        <ele>52.59999847412109375</ele>
        <time>2022-01-07T08:47:10.000Z</time>
      </trkpt>
      <trkpt lat="41.48544947616755962371826171875" lon="2.158792018890380859375">
        <ele>52.40000152587890625</ele>
        <time>2022-01-07T08:47:11.000Z</time>
      </trkpt>
      <trkpt lat="41.48540756665170192718505859375" lon="2.15884977020323276519775390625">
        <ele>52.40000152587890625</ele>
        <time>2022-01-07T08:47:12.000Z</time>
      </trkpt>
      <trkpt lat="41.48535593412816524505615234375" lon="2.1589194238185882568359375">
        <ele>52.200000762939453125</ele>
        <time>2022-01-07T08:47:13.000Z</time>
      </trkpt>
      <trkpt lat="41.48531310260295867919921875" lon="2.15898019261658191680908203125">
        <ele>52.200000762939453125</ele>
        <time>2022-01-07T08:47:14.000Z</time>
      </trkpt>
      <trkpt lat="41.4852706901729106903076171875" lon="2.15904406271874904632568359375">
        <ele>52.200000762939453125</ele>
        <time>2022-01-07T08:47:15.000Z</time>
      </trkpt>
      <trkpt lat="41.4852368272840976715087890625" lon="2.15909175574779510498046875">
        <ele>52.200000762939453125</ele>
        <time>2022-01-07T08:47:16.000Z</time>
      </trkpt>
      <trkpt lat="41.48519433103501796722412109375" lon="2.15914942324161529541015625">
        <ele>52.200000762939453125</ele>
        <time>2022-01-07T08:47:17.000Z</time>
      </trkpt>
      <trkpt lat="41.48514336906373500823974609375" lon="2.15921647846698760986328125">
        <ele>52.200000762939453125</ele>
        <time>2022-01-07T08:47:18.000Z</time>
      </trkpt>
      <trkpt lat="41.4851084165275096893310546875" lon="2.15926081873476505279541015625">
        <ele>52</ele>
        <time>2022-01-07T08:47:19.000Z</time>
      </trkpt>
      <trkpt lat="41.48505837656557559967041015625" lon="2.15932913124561309814453125">
        <ele>52</ele>
        <time>2022-01-07T08:47:20.000Z</time>
      </trkpt>
      <trkpt lat="41.48502032272517681121826171875" lon="2.15938587673008441925048828125">
        <ele>52</ele>
        <time>2022-01-07T08:47:21.000Z</time>
      </trkpt>
      <trkpt lat="41.48499031551182270050048828125" lon="2.1594312228262424468994140625">
        <ele>52</ele>
        <time>2022-01-07T08:47:22.000Z</time>
      </trkpt>
      <trkpt lat="41.484943293035030364990234375" lon="2.1594962663948535919189453125">
        <ele>52</ele>
        <time>2022-01-07T08:47:23.000Z</time>
      </trkpt>
      <trkpt lat="41.48491085506975650787353515625" lon="2.15953775681555271148681640625">
        <ele>52</ele>
        <time>2022-01-07T08:47:24.000Z</time>
      </trkpt>
      <trkpt lat="41.48486525751650333404541015625" lon="2.159599699079990386962890625">
        <ele>51.59999847412109375</ele>
        <time>2022-01-07T08:47:25.000Z</time>
      </trkpt>
      <trkpt lat="41.48483608849346637725830078125" lon="2.159639932215213775634765625">
        <ele>51.59999847412109375</ele>
        <time>2022-01-07T08:47:26.000Z</time>
      </trkpt>
      <trkpt lat="41.4847989566624164581298828125" lon="2.15968444012105464935302734375">
        <ele>51.59999847412109375</ele>
        <time>2022-01-07T08:47:27.000Z</time>
      </trkpt>
      <trkpt lat="41.4847560413181781768798828125" lon="2.15971277095377445220947265625">
        <ele>51.59999847412109375</ele>
        <time>2022-01-07T08:47:28.000Z</time>
      </trkpt>
      <trkpt lat="41.48469845764338970184326171875" lon="2.15972098521888256072998046875">
        <ele>51.59999847412109375</ele>
        <time>2022-01-07T08:47:29.000Z</time>
      </trkpt>
      <trkpt lat="41.484651602804660797119140625" lon="2.15970707125961780548095703125">
        <ele>51.59999847412109375</ele>
        <time>2022-01-07T08:47:30.000Z</time>
      </trkpt>
      <trkpt lat="41.48461614735424518585205078125" lon="2.15968879871070384979248046875">
        <ele>51.59999847412109375</ele>
        <time>2022-01-07T08:47:31.000Z</time>
      </trkpt>
      <trkpt lat="41.48457893170416355133056640625" lon="2.15965569019317626953125">
        <ele>51.40000152587890625</ele>
        <time>2022-01-07T08:47:32.000Z</time>
      </trkpt>
      <trkpt lat="41.484548337757587432861328125" lon="2.15962576679885387420654296875">
        <ele>51.40000152587890625</ele>
        <time>2022-01-07T08:47:33.000Z</time>
      </trkpt>
      <trkpt lat="41.4845193363726139068603515625" lon="2.159605734050273895263671875">
        <ele>51.40000152587890625</ele>
        <time>2022-01-07T08:47:34.000Z</time>
      </trkpt>
      <trkpt lat="41.48450936190783977508544921875" lon="2.15959911234676837921142578125">
        <ele>51.40000152587890625</ele>
        <time>2022-01-07T08:47:35.000Z</time>
      </trkpt>
      <trkpt lat="41.4844998903572559356689453125" lon="2.15959458611905574798583984375">
        <ele>51.40000152587890625</ele>
        <time>2022-01-07T08:47:36.000Z</time>
      </trkpt>
      <trkpt lat="41.48449276573956012725830078125" lon="2.1595918200910091400146484375">
        <ele>51.40000152587890625</ele>
        <time>2022-01-07T08:47:37.000Z</time>
      </trkpt>
      <trkpt lat="41.48448354564607143402099609375" lon="2.15958553366363048553466796875">
        <ele>51.40000152587890625</ele>
        <time>2022-01-07T08:47:38.000Z</time>
      </trkpt>
      <trkpt lat="41.48447147570550441741943359375" lon="2.15958117507398128509521484375">
        <ele>51.40000152587890625</ele>
        <time>2022-01-07T08:47:39.000Z</time>
      </trkpt>
      <trkpt lat="41.48445974104106426239013671875" lon="2.1595777384936809539794921875">
        <ele>51.40000152587890625</ele>
        <time>2022-01-07T08:47:40.000Z</time>
      </trkpt>
      <trkpt lat="41.484449766576290130615234375" lon="2.15956793166697025299072265625">
        <ele>51.40000152587890625</ele>
        <time>2022-01-07T08:47:41.000Z</time>
      </trkpt>
      <trkpt lat="41.48444649763405323028564453125" lon="2.159552089869976043701171875">
        <ele>51.40000152587890625</ele>
        <time>2022-01-07T08:47:42.000Z</time>
      </trkpt>
      <trkpt lat="41.48444264195859432220458984375" lon="2.15953700244426727294921875">
        <ele>51.200000762939453125</ele>
        <time>2022-01-07T08:47:43.000Z</time>
      </trkpt>
      <trkpt lat="41.48443208076059818267822265625" lon="2.1595197357237339019775390625">
        <ele>51.200000762939453125</ele>
        <time>2022-01-07T08:47:44.000Z</time>
      </trkpt>
      <trkpt lat="41.4844127185642719268798828125" lon="2.159493751823902130126953125">
        <ele>51.200000762939453125</ele>
        <time>2022-01-07T08:47:45.000Z</time>
      </trkpt>
      <trkpt lat="41.48439017124474048614501953125" lon="2.159474305808544158935546875">
        <ele>51.200000762939453125</ele>
        <time>2022-01-07T08:47:46.000Z</time>
      </trkpt>
      <trkpt lat="41.48435194976627826690673828125" lon="2.159450165927410125732421875">
        <ele>51.200000762939453125</ele>
        <time>2022-01-07T08:47:47.000Z</time>
      </trkpt>
      <trkpt lat="41.484319008886814117431640625" lon="2.15943097136914730072021484375">
        <ele>51.200000762939453125</ele>
        <time>2022-01-07T08:47:48.000Z</time>
      </trkpt>
      <trkpt lat="41.48428791202604770660400390625" lon="2.1594094298779964447021484375">
        <ele>51.200000762939453125</ele>
        <time>2022-01-07T08:47:49.000Z</time>
      </trkpt>
      <trkpt lat="41.48426410742104053497314453125" lon="2.15938906185328960418701171875">
        <ele>51.200000762939453125</ele>
        <time>2022-01-07T08:47:50.000Z</time>
      </trkpt>
      <trkpt lat="41.48423426784574985504150390625" lon="2.1593715436756610870361328125">
        <ele>51.200000762939453125</ele>
        <time>2022-01-07T08:47:51.000Z</time>
      </trkpt>
      <trkpt lat="41.48419864475727081298828125" lon="2.15935327112674713134765625">
        <ele>51.200000762939453125</ele>
        <time>2022-01-07T08:47:52.000Z</time>
      </trkpt>
      <trkpt lat="41.4841644465923309326171875" lon="2.15933986008167266845703125">
        <ele>51</ele>
        <time>2022-01-07T08:47:53.000Z</time>
      </trkpt>
      <trkpt lat="41.4841280691325664520263671875" lon="2.15932569466531276702880859375">
        <ele>51</ele>
        <time>2022-01-07T08:47:54.000Z</time>
      </trkpt>
      <trkpt lat="41.4840965531766414642333984375" lon="2.159310020506381988525390625">
        <ele>51</ele>
        <time>2022-01-07T08:47:55.000Z</time>
      </trkpt>
      <trkpt lat="41.484053470194339752197265625" lon="2.15928797610104084014892578125">
        <ele>51</ele>
        <time>2022-01-07T08:47:56.000Z</time>
      </trkpt>
      <trkpt lat="41.48400016129016876220703125" lon="2.1592615731060504913330078125">
        <ele>51</ele>
        <time>2022-01-07T08:47:57.000Z</time>
      </trkpt>
      <trkpt lat="41.4839574135839939117431640625" lon="2.15923500247299671173095703125">
        <ele>51</ele>
        <time>2022-01-07T08:47:58.000Z</time>
      </trkpt>
      <trkpt lat="41.48391944356262683868408203125" lon="2.15920499525964260101318359375">
        <ele>50.799999237060546875</ele>
        <time>2022-01-07T08:47:59.000Z</time>
      </trkpt>
      <trkpt lat="41.48389128036797046661376953125" lon="2.15917800553143024444580078125">
        <ele>50.799999237060546875</ele>
        <time>2022-01-07T08:48:00.000Z</time>
      </trkpt>
      <trkpt lat="41.48385741747915744781494140625" lon="2.15914632193744182586669921875">
        <ele>50.59999847412109375</ele>
        <time>2022-01-07T08:48:01.000Z</time>
      </trkpt>
      <trkpt lat="41.4838179387152194976806640625" lon="2.15911312960088253021240234375">
        <ele>50.40000152587890625</ele>
        <time>2022-01-07T08:48:02.000Z</time>
      </trkpt>
      <trkpt lat="41.48379103280603885650634765625" lon="2.1590822003781795501708984375">
        <ele>50.200000762939453125</ele>
        <time>2022-01-07T08:48:03.000Z</time>
      </trkpt>
      <trkpt lat="41.48376370780169963836669921875" lon="2.159049846231937408447265625">
        <ele>50</ele>
        <time>2022-01-07T08:48:04.000Z</time>
      </trkpt>
      <trkpt lat="41.48373705334961414337158203125" lon="2.15901707299053668975830078125">
        <ele>49.799999237060546875</ele>
        <time>2022-01-07T08:48:05.000Z</time>
      </trkpt>
      <trkpt lat="41.48371090181171894073486328125" lon="2.1589842997491359710693359375">
        <ele>49.799999237060546875</ele>
        <time>2022-01-07T08:48:06.000Z</time>
      </trkpt>
      <trkpt lat="41.48367905057966709136962890625" lon="2.1589420549571514129638671875">
        <ele>49.799999237060546875</ele>
        <time>2022-01-07T08:48:07.000Z</time>
      </trkpt>
      <trkpt lat="41.4836546592414379119873046875" lon="2.1589045040309429168701171875">
        <ele>49.799999237060546875</ele>
        <time>2022-01-07T08:48:08.000Z</time>
      </trkpt>
      <trkpt lat="41.48363663814961910247802734375" lon="2.15887625701725482940673828125">
        <ele>49.59999847412109375</ele>
        <time>2022-01-07T08:48:09.000Z</time>
      </trkpt>
      <trkpt lat="41.4836100675165653228759765625" lon="2.15884373523294925689697265625">
        <ele>49.59999847412109375</ele>
        <time>2022-01-07T08:48:10.000Z</time>
      </trkpt>
      <trkpt lat="41.48358433507382869720458984375" lon="2.158816158771514892578125">
        <ele>49.59999847412109375</ele>
        <time>2022-01-07T08:48:11.000Z</time>
      </trkpt>
      <trkpt lat="41.4835555851459503173828125" lon="2.15878757648169994354248046875">
        <ele>49.59999847412109375</ele>
        <time>2022-01-07T08:48:12.000Z</time>
      </trkpt>
      <trkpt lat="41.483519710600376129150390625" lon="2.1587563119828701019287109375">
        <ele>49.59999847412109375</ele>
        <time>2022-01-07T08:48:13.000Z</time>
      </trkpt>
      <trkpt lat="41.48349733091890811920166015625" lon="2.15873778797686100006103515625">
        <ele>49.59999847412109375</ele>
        <time>2022-01-07T08:48:14.000Z</time>
      </trkpt>
      <trkpt lat="41.48347184993326663970947265625" lon="2.15871331281960010528564453125">
        <ele>49.799999237060546875</ele>
        <time>2022-01-07T08:48:15.000Z</time>
      </trkpt>
      <trkpt lat="41.4834434352815151214599609375" lon="2.1586818806827068328857421875">
        <ele>49.799999237060546875</ele>
        <time>2022-01-07T08:48:16.000Z</time>
      </trkpt>
      <trkpt lat="41.48341451771557331085205078125" lon="2.15865857899188995361328125">
        <ele>50</ele>
        <time>2022-01-07T08:48:17.000Z</time>
      </trkpt>
      <trkpt lat="41.48338920436799526214599609375" lon="2.158646173775196075439453125">
        <ele>50</ele>
        <time>2022-01-07T08:48:18.000Z</time>
      </trkpt>
      <trkpt lat="41.4833582751452922821044921875" lon="2.15863217599689960479736328125">
        <ele>50.200000762939453125</ele>
        <time>2022-01-07T08:48:19.000Z</time>
      </trkpt>
      <trkpt lat="41.483320891857147216796875" lon="2.15861423872411251068115234375">
        <ele>50.40000152587890625</ele>
        <time>2022-01-07T08:48:20.000Z</time>
      </trkpt>
      <trkpt lat="41.4832928963005542755126953125" lon="2.158601917326450347900390625">
        <ele>50.799999237060546875</ele>
        <time>2022-01-07T08:48:21.000Z</time>
      </trkpt>
      <trkpt lat="41.4832519926130771636962890625" lon="2.158585153520107269287109375">
        <ele>51.40000152587890625</ele>
        <time>2022-01-07T08:48:22.000Z</time>
      </trkpt>
      <trkpt lat="41.48321854881942272186279296875" lon="2.1585812978446483612060546875">
        <ele>52</ele>
        <time>2022-01-07T08:48:23.000Z</time>
      </trkpt>
      <trkpt lat="41.48319206200540065765380859375" lon="2.1585853211581707000732421875">
        <ele>52.59999847412109375</ele>
        <time>2022-01-07T08:48:24.000Z</time>
      </trkpt>
      <trkpt lat="41.48315819911658763885498046875" lon="2.15859043411910533905029296875">
        <ele>53</ele>
        <time>2022-01-07T08:48:25.000Z</time>
      </trkpt>
      <trkpt lat="41.48312333039939403533935546875" lon="2.15859957039356231689453125">
        <ele>53.40000152587890625</ele>
        <time>2022-01-07T08:48:26.000Z</time>
      </trkpt>
      <trkpt lat="41.48308846168220043182373046875" lon="2.1586118079721927642822265625">
        <ele>54</ele>
        <time>2022-01-07T08:48:27.000Z</time>
      </trkpt>
      <trkpt lat="41.48305627517402172088623046875" lon="2.15862530283629894256591796875">
        <ele>54.40000152587890625</ele>
        <time>2022-01-07T08:48:28.000Z</time>
      </trkpt>
      <trkpt lat="41.48302509449422359466552734375" lon="2.1586429886519908905029296875">
        <ele>54.59999847412109375</ele>
        <time>2022-01-07T08:48:29.000Z</time>
      </trkpt>
      <trkpt lat="41.48299424909055233001708984375" lon="2.15866084210574626922607421875">
        <ele>54.799999237060546875</ele>
        <time>2022-01-07T08:48:30.000Z</time>
      </trkpt>
      <trkpt lat="41.4829629845917224884033203125" lon="2.15867467224597930908203125">
        <ele>54.799999237060546875</ele>
        <time>2022-01-07T08:48:31.000Z</time>
      </trkpt>
      <trkpt lat="41.4829304628074169158935546875" lon="2.1586882509291172027587890625">
        <ele>55.200000762939453125</ele>
        <time>2022-01-07T08:48:32.000Z</time>
      </trkpt>
      <trkpt lat="41.48290473036468029022216796875" lon="2.15870082378387451171875">
        <ele>55.40000152587890625</ele>
        <time>2022-01-07T08:48:33.000Z</time>
      </trkpt>
      <trkpt lat="41.4828841947019100189208984375" lon="2.15871146880090236663818359375">
        <ele>55.59999847412109375</ele>
        <time>2022-01-07T08:48:34.000Z</time>
      </trkpt>
      <trkpt lat="41.48285795934498310089111328125" lon="2.15872353874146938323974609375">
        <ele>55.799999237060546875</ele>
        <time>2022-01-07T08:48:35.000Z</time>
      </trkpt>
      <trkpt lat="41.48283231072127819061279296875" lon="2.1587341837584972381591796875">
        <ele>56</ele>
        <time>2022-01-07T08:48:36.000Z</time>
      </trkpt>
      <trkpt lat="41.48280247114598751068115234375" lon="2.15874306857585906982421875">
        <ele>56.40000152587890625</ele>
        <time>2022-01-07T08:48:37.000Z</time>
      </trkpt>
      <trkpt lat="41.48278386332094669342041015625" lon="2.1587512828409671783447265625">
        <ele>56.799999237060546875</ele>
        <time>2022-01-07T08:48:38.000Z</time>
      </trkpt>
      <trkpt lat="41.4827614836394786834716796875" lon="2.158758826553821563720703125">
        <ele>57.40000152587890625</ele>
        <time>2022-01-07T08:48:39.000Z</time>
      </trkpt>
      <trkpt lat="41.482740528881549835205078125" lon="2.15876318514347076416015625">
        <ele>58</ele>
        <time>2022-01-07T08:48:40.000Z</time>
      </trkpt>
      <trkpt lat="41.4827165566384792327880859375" lon="2.15876762755215167999267578125">
        <ele>58.40000152587890625</ele>
        <time>2022-01-07T08:48:41.000Z</time>
      </trkpt>
      <trkpt lat="41.48268613032996654510498046875" lon="2.1587687171995639801025390625">
        <ele>58.59999847412109375</ele>
        <time>2022-01-07T08:48:42.000Z</time>
      </trkpt>
      <trkpt lat="41.48266199044883251190185546875" lon="2.15877030976116657257080078125">
        <ele>59</ele>
        <time>2022-01-07T08:48:43.000Z</time>
      </trkpt>
      <trkpt lat="41.48264137096703052520751953125" lon="2.15877081267535686492919921875">
        <ele>59.200000762939453125</ele>
        <time>2022-01-07T08:48:44.000Z</time>
      </trkpt>
      <trkpt lat="41.482617147266864776611328125" lon="2.1587703935801982879638671875">
        <ele>59.40000152587890625</ele>
        <time>2022-01-07T08:48:45.000Z</time>
      </trkpt>
      <trkpt lat="41.48258387111127376556396484375" lon="2.1587707288563251495361328125">
        <ele>59.59999847412109375</ele>
        <time>2022-01-07T08:48:46.000Z</time>
      </trkpt>
      <trkpt lat="41.482558138668537139892578125" lon="2.15877198614180088043212890625">
        <ele>60</ele>
        <time>2022-01-07T08:48:47.000Z</time>
      </trkpt>
      <trkpt lat="41.48253307677805423736572265625" lon="2.15877215377986431121826171875">
        <ele>60.200000762939453125</ele>
        <time>2022-01-07T08:48:48.000Z</time>
      </trkpt>
      <trkpt lat="41.48251161910593509674072265625" lon="2.15876980684697628021240234375">
        <ele>60.200000762939453125</ele>
        <time>2022-01-07T08:48:49.000Z</time>
      </trkpt>
      <trkpt lat="41.48248513229191303253173828125" lon="2.15876561589539051055908203125">
        <ele>60.59999847412109375</ele>
        <time>2022-01-07T08:48:50.000Z</time>
      </trkpt>
      <trkpt lat="41.48245546035468578338623046875" lon="2.15876326896250247955322265625">
        <ele>61</ele>
        <time>2022-01-07T08:48:51.000Z</time>
      </trkpt>
      <trkpt lat="41.48243081755936145782470703125" lon="2.15876259841024875640869140625">
        <ele>61.200000762939453125</ele>
        <time>2022-01-07T08:48:52.000Z</time>
      </trkpt>
      <trkpt lat="41.48241019807755947113037109375" lon="2.15876519680023193359375">
        <ele>61.40000152587890625</ele>
        <time>2022-01-07T08:48:53.000Z</time>
      </trkpt>
      <trkpt lat="41.48238639347255229949951171875" lon="2.15876930393278598785400390625">
        <ele>61.59999847412109375</ele>
        <time>2022-01-07T08:48:54.000Z</time>
      </trkpt>
      <trkpt lat="41.4823651872575283050537109375" lon="2.15877198614180088043212890625">
        <ele>61.799999237060546875</ele>
        <time>2022-01-07T08:48:55.000Z</time>
      </trkpt>
      <trkpt lat="41.4823423884809017181396484375" lon="2.1587770991027355194091796875">
        <ele>62</ele>
        <time>2022-01-07T08:48:56.000Z</time>
      </trkpt>
      <trkpt lat="41.48231397382915019989013671875" lon="2.15878388844430446624755859375">
        <ele>62.200000762939453125</ele>
        <time>2022-01-07T08:48:57.000Z</time>
      </trkpt>
      <trkpt lat="41.48229553364217281341552734375" lon="2.15878866612911224365234375">
        <ele>62.59999847412109375</ele>
        <time>2022-01-07T08:48:58.000Z</time>
      </trkpt>
      <trkpt lat="41.48227156139910221099853515625" lon="2.15880098752677440643310546875">
        <ele>62.799999237060546875</ele>
        <time>2022-01-07T08:48:59.000Z</time>
      </trkpt>
      <trkpt lat="41.4822495169937610626220703125" lon="2.15881456620991230010986328125">
        <ele>63</ele>
        <time>2022-01-07T08:49:00.000Z</time>
      </trkpt>
      <trkpt lat="41.4822240360081195831298828125" lon="2.158829905092716217041015625">
        <ele>63.200000762939453125</ele>
        <time>2022-01-07T08:49:01.000Z</time>
      </trkpt>
      <trkpt lat="41.4822039194405078887939453125" lon="2.1588431484997272491455078125">
        <ele>63.40000152587890625</ele>
        <time>2022-01-07T08:49:02.000Z</time>
      </trkpt>
      <trkpt lat="41.482187323272228240966796875" lon="2.1588538773357868194580078125">
        <ele>63.59999847412109375</ele>
        <time>2022-01-07T08:49:03.000Z</time>
      </trkpt>
      <trkpt lat="41.48216745816171169281005859375" lon="2.15886770747601985931396484375">
        <ele>64</ele>
        <time>2022-01-07T08:49:04.000Z</time>
      </trkpt>
      <trkpt lat="41.4821432344615459442138671875" lon="2.15888530947268009185791015625">
        <ele>64.1999969482421875</ele>
        <time>2022-01-07T08:49:05.000Z</time>
      </trkpt>
      <trkpt lat="41.4821268059313297271728515625" lon="2.15889729559421539306640625">
        <ele>64.59999847412109375</ele>
        <time>2022-01-07T08:49:06.000Z</time>
      </trkpt>
      <trkpt lat="41.48210425861179828643798828125" lon="2.15891464613378047943115234375">
        <ele>64.8000030517578125</ele>
        <time>2022-01-07T08:49:07.000Z</time>
      </trkpt>
      <trkpt lat="41.4820905961096286773681640625" lon="2.15892956592142581939697265625">
        <ele>65</ele>
        <time>2022-01-07T08:49:08.000Z</time>
      </trkpt>
      <trkpt lat="41.48207140155136585235595703125" lon="2.1589507721364498138427734375">
        <ele>65.40000152587890625</ele>
        <time>2022-01-07T08:49:09.000Z</time>
      </trkpt>
      <trkpt lat="41.48204793222248554229736328125" lon="2.158970721065998077392578125">
        <ele>65.59999847412109375</ele>
        <time>2022-01-07T08:49:10.000Z</time>
      </trkpt>
      <trkpt lat="41.48202605545520782470703125" lon="2.15899025090038776397705078125">
        <ele>66</ele>
        <time>2022-01-07T08:49:11.000Z</time>
      </trkpt>
      <trkpt lat="41.48200350813567638397216796875" lon="2.15901019982993602752685546875">
        <ele>66.1999969482421875</ele>
        <time>2022-01-07T08:49:12.000Z</time>
      </trkpt>
      <trkpt lat="41.48198741488158702850341796875" lon="2.1590272150933742523193359375">
        <ele>66.40000152587890625</ele>
        <time>2022-01-07T08:49:13.000Z</time>
      </trkpt>
      <trkpt lat="41.481965370476245880126953125" lon="2.15904674492776393890380859375">
        <ele>66.59999847412109375</ele>
        <time>2022-01-07T08:49:14.000Z</time>
      </trkpt>
      <trkpt lat="41.48193662054836750030517578125" lon="2.15906719677150249481201171875">
        <ele>66.8000030517578125</ele>
        <time>2022-01-07T08:49:15.000Z</time>
      </trkpt>
      <trkpt lat="41.48191206157207489013671875" lon="2.15908505022525787353515625">
        <ele>66.8000030517578125</ele>
        <time>2022-01-07T08:49:16.000Z</time>
      </trkpt>
      <trkpt lat="41.48188582621514797210693359375" lon="2.1591006405651569366455078125">
        <ele>66.8000030517578125</ele>
        <time>2022-01-07T08:49:17.000Z</time>
      </trkpt>
      <trkpt lat="41.4818659611046314239501953125" lon="2.15910919010639190673828125">
        <ele>67</ele>
        <time>2022-01-07T08:49:18.000Z</time>
      </trkpt>
      <trkpt lat="41.48184123449027538299560546875" lon="2.159118242561817169189453125">
        <ele>67</ele>
        <time>2022-01-07T08:49:19.000Z</time>
      </trkpt>
      <trkpt lat="41.48181458003818988800048828125" lon="2.159126959741115570068359375">
        <ele>67</ele>
        <time>2022-01-07T08:49:20.000Z</time>
      </trkpt>
      <trkpt lat="41.481789685785770416259765625" lon="2.159132994711399078369140625">
        <ele>67</ele>
        <time>2022-01-07T08:49:21.000Z</time>
      </trkpt>
      <trkpt lat="41.48176982067525386810302734375" lon="2.159137018024921417236328125">
        <ele>67</ele>
        <time>2022-01-07T08:49:22.000Z</time>
      </trkpt>
      <trkpt lat="41.48174450732767581939697265625" lon="2.1591438911855220794677734375">
        <ele>67</ele>
        <time>2022-01-07T08:49:23.000Z</time>
      </trkpt>
      <trkpt lat="41.48171969689428806304931640625" lon="2.1591505967080593109130859375">
        <ele>67.1999969482421875</ele>
        <time>2022-01-07T08:49:24.000Z</time>
      </trkpt>
      <trkpt lat="41.4816909469664096832275390625" lon="2.1591569669544696807861328125">
        <ele>67.1999969482421875</ele>
        <time>2022-01-07T08:49:25.000Z</time>
      </trkpt>
      <trkpt lat="41.48167208768427371978759765625" lon="2.159162499010562896728515625">
        <ele>67.1999969482421875</ele>
        <time>2022-01-07T08:49:26.000Z</time>
      </trkpt>
      <trkpt lat="41.4816485345363616943359375" lon="2.15916962362825870513916015625">
        <ele>67.1999969482421875</ele>
        <time>2022-01-07T08:49:27.000Z</time>
      </trkpt>
      <trkpt lat="41.481625735759735107421875" lon="2.15917331166565418243408203125">
        <ele>67.40000152587890625</ele>
        <time>2022-01-07T08:49:28.000Z</time>
      </trkpt>
      <trkpt lat="41.48159765638411045074462890625" lon="2.15917649678885936737060546875">
        <ele>67.40000152587890625</ele>
        <time>2022-01-07T08:49:29.000Z</time>
      </trkpt>
      <trkpt lat="41.48157318122684955596923828125" lon="2.1591834537684917449951171875">
        <ele>67.59999847412109375</ele>
        <time>2022-01-07T08:49:30.000Z</time>
      </trkpt>
      <trkpt lat="41.481547616422176361083984375" lon="2.15919259004294872283935546875">
        <ele>67.8000030517578125</ele>
        <time>2022-01-07T08:49:31.000Z</time>
      </trkpt>
      <trkpt lat="41.4815209619700908660888671875" lon="2.15919979847967624664306640625">
        <ele>68</ele>
        <time>2022-01-07T08:49:32.000Z</time>
      </trkpt>
      <trkpt lat="41.48149967193603515625" lon="2.159202732145786285400390625">
        <ele>68.1999969482421875</ele>
        <time>2022-01-07T08:49:33.000Z</time>
      </trkpt>
      <trkpt lat="41.48147310130298137664794921875" lon="2.15920767746865749359130859375">
        <ele>68.1999969482421875</ele>
        <time>2022-01-07T08:49:34.000Z</time>
      </trkpt>
      <trkpt lat="41.481443680822849273681640625" lon="2.1592153050005435943603515625">
        <ele>68.40000152587890625</ele>
        <time>2022-01-07T08:49:35.000Z</time>
      </trkpt>
      <trkpt lat="41.48141987621784210205078125" lon="2.1592251956462860107421875">
        <ele>68.59999847412109375</ele>
        <time>2022-01-07T08:49:36.000Z</time>
      </trkpt>
      <trkpt lat="41.4814005978405475616455078125" lon="2.15923131443560123443603515625">
        <ele>68.59999847412109375</ele>
        <time>2022-01-07T08:49:37.000Z</time>
      </trkpt>
      <trkpt lat="41.48137629032135009765625" lon="2.15923768468201160430908203125">
        <ele>68.8000030517578125</ele>
        <time>2022-01-07T08:49:38.000Z</time>
      </trkpt>
      <trkpt lat="41.4813513122498989105224609375" lon="2.15923952870070934295654296875">
        <ele>69</ele>
        <time>2022-01-07T08:49:39.000Z</time>
      </trkpt>
      <trkpt lat="41.481320969760417938232421875" lon="2.15924371965229511260986328125">
        <ele>69.1999969482421875</ele>
        <time>2022-01-07T08:49:40.000Z</time>
      </trkpt>
      <trkpt lat="41.4812943153083324432373046875" lon="2.159251682460308074951171875">
        <ele>69.40000152587890625</ele>
        <time>2022-01-07T08:49:41.000Z</time>
      </trkpt>
      <trkpt lat="41.481274701654911041259765625" lon="2.15925696305930614471435546875">
        <ele>69.40000152587890625</ele>
        <time>2022-01-07T08:49:42.000Z</time>
      </trkpt>
      <trkpt lat="41.48125198669731616973876953125" lon="2.159263081848621368408203125">
        <ele>69.40000152587890625</ele>
        <time>2022-01-07T08:49:43.000Z</time>
      </trkpt>
      <trkpt lat="41.4812272600829601287841796875" lon="2.1592672728002071380615234375">
        <ele>69.59999847412109375</ele>
        <time>2022-01-07T08:49:44.000Z</time>
      </trkpt>
      <trkpt lat="41.48119188845157623291015625" lon="2.159271799027919769287109375">
        <ele>69.8000030517578125</ele>
        <time>2022-01-07T08:49:45.000Z</time>
      </trkpt>
      <trkpt lat="41.48116548545658588409423828125" lon="2.15927925892174243927001953125">
        <ele>69.8000030517578125</ele>
        <time>2022-01-07T08:49:46.000Z</time>
      </trkpt>
      <trkpt lat="41.4811442792415618896484375" lon="2.1592826955020427703857421875">
        <ele>70</ele>
        <time>2022-01-07T08:49:47.000Z</time>
      </trkpt>
      <trkpt lat="41.4811174571514129638671875" lon="2.1592853777110576629638671875">
        <ele>70</ele>
        <time>2022-01-07T08:49:48.000Z</time>
      </trkpt>
      <trkpt lat="41.48109021596610546112060546875" lon="2.15929049067199230194091796875">
        <ele>70</ele>
        <time>2022-01-07T08:49:49.000Z</time>
      </trkpt>
      <trkpt lat="41.48105870001018047332763671875" lon="2.15930289588868618011474609375">
        <ele>70</ele>
        <time>2022-01-07T08:49:50.000Z</time>
      </trkpt>
      <trkpt lat="41.48103288374841213226318359375" lon="2.15930960141122341156005859375">
        <ele>70.1999969482421875</ele>
        <time>2022-01-07T08:49:51.000Z</time>
      </trkpt>
      <trkpt lat="41.481005139648914337158203125" lon="2.15932100079953670501708984375">
        <ele>70.40000152587890625</ele>
        <time>2022-01-07T08:49:52.000Z</time>
      </trkpt>
      <trkpt lat="41.48098242469131946563720703125" lon="2.1593256108462810516357421875">
        <ele>70.40000152587890625</ele>
        <time>2022-01-07T08:49:53.000Z</time>
      </trkpt>
      <trkpt lat="41.4809556864202022552490234375" lon="2.15933256782591342926025390625">
        <ele>70.59999847412109375</ele>
        <time>2022-01-07T08:49:54.000Z</time>
      </trkpt>
      <trkpt lat="41.4809224940836429595947265625" lon="2.15934212319552898406982421875">
        <ele>70.59999847412109375</ele>
        <time>2022-01-07T08:49:55.000Z</time>
      </trkpt>
      <trkpt lat="41.4808943308889865875244140625" lon="2.1593490801751613616943359375">
        <ele>70.8000030517578125</ele>
        <time>2022-01-07T08:49:56.000Z</time>
      </trkpt>
      <trkpt lat="41.48087362758815288543701171875" lon="2.15935486368834972381591796875">
        <ele>70.8000030517578125</ele>
        <time>2022-01-07T08:49:57.000Z</time>
      </trkpt>
      <trkpt lat="41.480849571526050567626953125" lon="2.15936190448701381683349609375">
        <ele>71</ele>
        <time>2022-01-07T08:49:58.000Z</time>
      </trkpt>
      <trkpt lat="41.480821408331394195556640625" lon="2.1593700349330902099609375">
        <ele>70.8000030517578125</ele>
        <time>2022-01-07T08:49:59.000Z</time>
      </trkpt>
      <trkpt lat="41.4807957597076892852783203125" lon="2.15937917120754718780517578125">
        <ele>71.1999969482421875</ele>
        <time>2022-01-07T08:50:00.000Z</time>
      </trkpt>
      <trkpt lat="41.48077287711203098297119140625" lon="2.159390486776828765869140625">
        <ele>71.1999969482421875</ele>
        <time>2022-01-07T08:50:01.000Z</time>
      </trkpt>
      <trkpt lat="41.48075561039149761199951171875" lon="2.15940029360353946685791015625">
        <ele>71.40000152587890625</ele>
        <time>2022-01-07T08:50:02.000Z</time>
      </trkpt>
      <trkpt lat="41.4807276986539363861083984375" lon="2.15941135771572589874267578125">
        <ele>71.40000152587890625</ele>
        <time>2022-01-07T08:50:03.000Z</time>
      </trkpt>
      <trkpt lat="41.48070381022989749908447265625" lon="2.15942057780921459197998046875">
        <ele>71.40000152587890625</ele>
        <time>2022-01-07T08:50:04.000Z</time>
      </trkpt>
      <trkpt lat="41.48068235255777835845947265625" lon="2.1594339050352573394775390625">
        <ele>71.40000152587890625</ele>
        <time>2022-01-07T08:50:05.000Z</time>
      </trkpt>
      <trkpt lat="41.4806609787046909332275390625" lon="2.15944421477615833282470703125">
        <ele>71.59999847412109375</ele>
        <time>2022-01-07T08:50:06.000Z</time>
      </trkpt>
      <trkpt lat="41.48063792847096920013427734375" lon="2.15946181677281856536865234375">
        <ele>71.59999847412109375</ele>
        <time>2022-01-07T08:50:07.000Z</time>
      </trkpt>
      <trkpt lat="41.48061462678015232086181640625" lon="2.15948428027331829071044921875">
        <ele>71.59999847412109375</ele>
        <time>2022-01-07T08:50:08.000Z</time>
      </trkpt>
      <trkpt lat="41.48059451021254062652587890625" lon="2.15950372628867626190185546875">
        <ele>71.8000030517578125</ele>
        <time>2022-01-07T08:50:09.000Z</time>
      </trkpt>
      <trkpt lat="41.4805756509304046630859375" lon="2.15951898135244846343994140625">
        <ele>71.8000030517578125</ele>
        <time>2022-01-07T08:50:10.000Z</time>
      </trkpt>
      <trkpt lat="41.48055553436279296875" lon="2.15953423641622066497802734375">
        <ele>72</ele>
        <time>2022-01-07T08:50:11.000Z</time>
      </trkpt>
      <trkpt lat="41.48053617216646671295166015625" lon="2.1595468930900096893310546875">
        <ele>72</ele>
        <time>2022-01-07T08:50:12.000Z</time>
      </trkpt>
      <trkpt lat="41.4805147983133792877197265625" lon="2.15956105850636959075927734375">
        <ele>72</ele>
        <time>2022-01-07T08:50:13.000Z</time>
      </trkpt>
      <trkpt lat="41.48049049079418182373046875" lon="2.159576229751110076904296875">
        <ele>72.1999969482421875</ele>
        <time>2022-01-07T08:50:14.000Z</time>
      </trkpt>
      <trkpt lat="41.4804685302078723907470703125" lon="2.1595928259193897247314453125">
        <ele>72.1999969482421875</ele>
        <time>2022-01-07T08:50:15.000Z</time>
      </trkpt>
      <trkpt lat="41.480445899069309234619140625" lon="2.15961017645895481109619140625">
        <ele>72.40000152587890625</ele>
        <time>2022-01-07T08:50:16.000Z</time>
      </trkpt>
      <trkpt lat="41.48042209446430206298828125" lon="2.1596276946365833282470703125">
        <ele>72.40000152587890625</ele>
        <time>2022-01-07T08:50:17.000Z</time>
      </trkpt>
      <trkpt lat="41.48039736784994602203369140625" lon="2.15964303351938724517822265625">
        <ele>72.40000152587890625</ele>
        <time>2022-01-07T08:50:18.000Z</time>
      </trkpt>
      <trkpt lat="41.4803739823400974273681640625" lon="2.15965677984058856964111328125">
        <ele>72.40000152587890625</ele>
        <time>2022-01-07T08:50:19.000Z</time>
      </trkpt>
      <trkpt lat="41.48034808225929737091064453125" lon="2.1596692688763141632080078125">
        <ele>72.59999847412109375</ele>
        <time>2022-01-07T08:50:20.000Z</time>
      </trkpt>
      <trkpt lat="41.48032109253108501434326171875" lon="2.15968427248299121856689453125">
        <ele>72.59999847412109375</ele>
        <time>2022-01-07T08:50:21.000Z</time>
      </trkpt>
      <trkpt lat="41.4802968688309192657470703125" lon="2.15969919227063655853271484375">
        <ele>72.59999847412109375</ele>
        <time>2022-01-07T08:50:22.000Z</time>
      </trkpt>
      <trkpt lat="41.4802710525691509246826171875" lon="2.1597192250192165374755859375">
        <ele>72.59999847412109375</ele>
        <time>2022-01-07T08:50:23.000Z</time>
      </trkpt>
      <trkpt lat="41.48024347610771656036376953125" lon="2.1597380004823207855224609375">
        <ele>72.59999847412109375</ele>
        <time>2022-01-07T08:50:24.000Z</time>
      </trkpt>
      <trkpt lat="41.4802167378365993499755859375" lon="2.1597527526319026947021484375">
        <ele>72.59999847412109375</ele>
        <time>2022-01-07T08:50:25.000Z</time>
      </trkpt>
      <trkpt lat="41.48019134066998958587646484375" lon="2.159765660762786865234375">
        <ele>72.8000030517578125</ele>
        <time>2022-01-07T08:50:26.000Z</time>
      </trkpt>
      <trkpt lat="41.48016233928501605987548828125" lon="2.15977764688432216644287109375">
        <ele>72.8000030517578125</ele>
        <time>2022-01-07T08:50:27.000Z</time>
      </trkpt>
      <trkpt lat="41.48013551719486713409423828125" lon="2.15979390777647495269775390625">
        <ele>73</ele>
        <time>2022-01-07T08:50:28.000Z</time>
      </trkpt>
      <trkpt lat="41.48011070676147937774658203125" lon="2.15981016866862773895263671875">
        <ele>73</ele>
        <time>2022-01-07T08:50:29.000Z</time>
      </trkpt>
      <trkpt lat="41.48008522577583789825439453125" lon="2.15982257388532161712646484375">
        <ele>73.1999969482421875</ele>
        <time>2022-01-07T08:50:30.000Z</time>
      </trkpt>
      <trkpt lat="41.48005991242825984954833984375" lon="2.1598389185965061187744140625">
        <ele>73.40000152587890625</ele>
        <time>2022-01-07T08:50:31.000Z</time>
      </trkpt>
      <trkpt lat="41.4800336770713329315185546875" lon="2.159856855869293212890625">
        <ele>73.59999847412109375</ele>
        <time>2022-01-07T08:50:32.000Z</time>
      </trkpt>
      <trkpt lat="41.48000777699053287506103515625" lon="2.159867584705352783203125">
        <ele>73.59999847412109375</ele>
        <time>2022-01-07T08:50:33.000Z</time>
      </trkpt>
      <trkpt lat="41.47998196072876453399658203125" lon="2.1598781459033489227294921875">
        <ele>73.59999847412109375</ele>
        <time>2022-01-07T08:50:34.000Z</time>
      </trkpt>
      <trkpt lat="41.47995673120021820068359375" lon="2.15989549644291400909423828125">
        <ele>73.8000030517578125</ele>
        <time>2022-01-07T08:50:35.000Z</time>
      </trkpt>
      <trkpt lat="41.4799310825765132904052734375" lon="2.15991293080151081085205078125">
        <ele>73.8000030517578125</ele>
        <time>2022-01-07T08:50:36.000Z</time>
      </trkpt>
      <trkpt lat="41.4799056015908718109130859375" lon="2.15992265380918979644775390625">
        <ele>73.8000030517578125</ele>
        <time>2022-01-07T08:50:37.000Z</time>
      </trkpt>
      <trkpt lat="41.47987819276750087738037109375" lon="2.1599304489791393280029296875">
        <ele>74</ele>
        <time>2022-01-07T08:50:38.000Z</time>
      </trkpt>
      <trkpt lat="41.47985137067735195159912109375" lon="2.15994008816778659820556640625">
        <ele>74.1999969482421875</ele>
        <time>2022-01-07T08:50:39.000Z</time>
      </trkpt>
      <trkpt lat="41.47982672788202762603759765625" lon="2.159953750669956207275390625">
        <ele>74.40000152587890625</ele>
        <time>2022-01-07T08:50:40.000Z</time>
      </trkpt>
      <trkpt lat="41.4798020012676715850830078125" lon="2.15996213257312774658203125">
        <ele>74.40000152587890625</ele>
        <time>2022-01-07T08:50:41.000Z</time>
      </trkpt>
      <trkpt lat="41.47978196851909160614013671875" lon="2.159964479506015777587890625">
        <ele>74.59999847412109375</ele>
        <time>2022-01-07T08:50:42.000Z</time>
      </trkpt>
      <trkpt lat="41.47976269014179706573486328125" lon="2.1599654853343963623046875">
        <ele>74.8000030517578125</ele>
        <time>2022-01-07T08:50:43.000Z</time>
      </trkpt>
      <trkpt lat="41.479737460613250732421875" lon="2.15996573679149150848388671875">
        <ele>75</ele>
        <time>2022-01-07T08:50:44.000Z</time>
      </trkpt>
      <trkpt lat="41.47970996797084808349609375" lon="2.1599596180021762847900390625">
        <ele>75</ele>
        <time>2022-01-07T08:50:45.000Z</time>
      </trkpt>
      <trkpt lat="41.4796856604516506195068359375" lon="2.15994947589933872222900390625">
        <ele>75.1999969482421875</ele>
        <time>2022-01-07T08:50:46.000Z</time>
      </trkpt>
      <trkpt lat="41.47966193966567516326904296875" lon="2.15993463993072509765625">
        <ele>75.40000152587890625</ele>
        <time>2022-01-07T08:50:47.000Z</time>
      </trkpt>
      <trkpt lat="41.47963595576584339141845703125" lon="2.15992148034274578094482421875">
        <ele>75.59999847412109375</ele>
        <time>2022-01-07T08:50:48.000Z</time>
      </trkpt>
      <trkpt lat="41.4796082116663455963134765625" lon="2.15990974567830562591552734375">
        <ele>75.8000030517578125</ele>
        <time>2022-01-07T08:50:49.000Z</time>
      </trkpt>
      <trkpt lat="41.47957862354815006256103515625" lon="2.1598985977470874786376953125">
        <ele>76</ele>
        <time>2022-01-07T08:50:50.000Z</time>
      </trkpt>
      <trkpt lat="41.47954978980123996734619140625" lon="2.159888707101345062255859375">
        <ele>76</ele>
        <time>2022-01-07T08:50:51.000Z</time>
      </trkpt>
      <trkpt lat="41.47952749393880367279052734375" lon="2.15987672097980976104736328125">
        <ele>76.1999969482421875</ele>
        <time>2022-01-07T08:50:52.000Z</time>
      </trkpt>
      <trkpt lat="41.47950754500925540924072265625" lon="2.15985962189733982086181640625">
        <ele>76.40000152587890625</ele>
        <time>2022-01-07T08:50:53.000Z</time>
      </trkpt>
      <trkpt lat="41.4794871769845485687255859375" lon="2.15984269045293331146240234375">
        <ele>76.59999847412109375</ele>
        <time>2022-01-07T08:50:54.000Z</time>
      </trkpt>
      <trkpt lat="41.479468904435634613037109375" lon="2.15982307679951190948486328125">
        <ele>76.59999847412109375</ele>
        <time>2022-01-07T08:50:55.000Z</time>
      </trkpt>
      <trkpt lat="41.47945121861994266510009765625" lon="2.1598006971180438995361328125">
        <ele>76.8000030517578125</ele>
        <time>2022-01-07T08:50:56.000Z</time>
      </trkpt>
      <trkpt lat="41.4794365502893924713134765625" lon="2.159778065979480743408203125">
        <ele>77</ele>
        <time>2022-01-07T08:50:57.000Z</time>
      </trkpt>
      <trkpt lat="41.479421295225620269775390625" lon="2.15975501574575901031494140625">
        <ele>77.1999969482421875</ele>
        <time>2022-01-07T08:50:58.000Z</time>
      </trkpt>
      <trkpt lat="41.47940629161894321441650390625" lon="2.1597329713404178619384765625">
        <ele>77.40000152587890625</ele>
        <time>2022-01-07T08:50:59.000Z</time>
      </trkpt>
      <trkpt lat="41.47939740680158138275146484375" lon="2.15970992110669612884521484375">
        <ele>77.59999847412109375</ele>
        <time>2022-01-07T08:51:00.000Z</time>
      </trkpt>
      <trkpt lat="41.47938634268939495086669921875" lon="2.159688882529735565185546875">
        <ele>77.8000030517578125</ele>
        <time>2022-01-07T08:51:01.000Z</time>
      </trkpt>
      <trkpt lat="41.47937200963497161865234375" lon="2.1596685983240604400634765625">
        <ele>78.1999969482421875</ele>
        <time>2022-01-07T08:51:02.000Z</time>
      </trkpt>
      <trkpt lat="41.4793577603995800018310546875" lon="2.159650661051273345947265625">
        <ele>78.40000152587890625</ele>
        <time>2022-01-07T08:51:03.000Z</time>
      </trkpt>
      <trkpt lat="41.47934275679290294647216796875" lon="2.15963515453040599822998046875">
        <ele>78.59999847412109375</ele>
        <time>2022-01-07T08:51:04.000Z</time>
      </trkpt>
      <trkpt lat="41.479330100119113922119140625" lon="2.15962258167564868927001953125">
        <ele>78.8000030517578125</ele>
        <time>2022-01-07T08:51:05.000Z</time>
      </trkpt>
      <trkpt lat="41.47931777872145175933837890625" lon="2.15961000882089138031005859375">
        <ele>79</ele>
        <time>2022-01-07T08:51:06.000Z</time>
      </trkpt>
      <trkpt lat="41.47930487059056758880615234375" lon="2.15959425084292888641357421875">
        <ele>79.40000152587890625</ele>
        <time>2022-01-07T08:51:07.000Z</time>
      </trkpt>
      <trkpt lat="41.47928911261260509490966796875" lon="2.159577906131744384765625">
        <ele>79.59999847412109375</ele>
        <time>2022-01-07T08:51:08.000Z</time>
      </trkpt>
      <trkpt lat="41.47926765494048595428466796875" lon="2.15956239961087703704833984375">
        <ele>79.59999847412109375</ele>
        <time>2022-01-07T08:51:09.000Z</time>
      </trkpt>
      <trkpt lat="41.47924334742128849029541015625" lon="2.1595502458512783050537109375">
        <ele>79.8000030517578125</ele>
        <time>2022-01-07T08:51:10.000Z</time>
      </trkpt>
      <trkpt lat="41.4792179502546787261962890625" lon="2.15954060666263103485107421875">
        <ele>79.8000030517578125</ele>
        <time>2022-01-07T08:51:11.000Z</time>
      </trkpt>
      <trkpt lat="41.4791894517838954925537109375" lon="2.15952895581722259521484375">
        <ele>79.8000030517578125</ele>
        <time>2022-01-07T08:51:12.000Z</time>
      </trkpt>
      <trkpt lat="41.4791572652757167816162109375" lon="2.15951814316213130950927734375">
        <ele>79.8000030517578125</ele>
        <time>2022-01-07T08:51:13.000Z</time>
      </trkpt>
      <trkpt lat="41.4791223965585231781005859375" lon="2.1595068275928497314453125">
        <ele>79.8000030517578125</ele>
        <time>2022-01-07T08:51:14.000Z</time>
      </trkpt>
      <trkpt lat="41.47908727638423442840576171875" lon="2.15949299745261669158935546875">
        <ele>79.8000030517578125</ele>
        <time>2022-01-07T08:51:15.000Z</time>
      </trkpt>
      <trkpt lat="41.47905274294316768646240234375" lon="2.1594717912375926971435546875">
        <ele>79.8000030517578125</ele>
        <time>2022-01-07T08:51:16.000Z</time>
      </trkpt>
      <trkpt lat="41.47902122698724269866943359375" lon="2.1594412811100482940673828125">
        <ele>79.8000030517578125</ele>
        <time>2022-01-07T08:51:17.000Z</time>
      </trkpt>
      <trkpt lat="41.47899189032614231109619140625" lon="2.1594064123928546905517578125">
        <ele>79.59999847412109375</ele>
        <time>2022-01-07T08:51:18.000Z</time>
      </trkpt>
      <trkpt lat="41.47896255366504192352294921875" lon="2.15937070548534393310546875">
        <ele>79.40000152587890625</ele>
        <time>2022-01-07T08:51:19.000Z</time>
      </trkpt>
      <trkpt lat="41.47893271408975124359130859375" lon="2.15933608822524547576904296875">
        <ele>79.1999969482421875</ele>
        <time>2022-01-07T08:51:20.000Z</time>
      </trkpt>
      <trkpt lat="41.478899605572223663330078125" lon="2.15930323116481304168701171875">
        <ele>79</ele>
        <time>2022-01-07T08:51:21.000Z</time>
      </trkpt>
      <trkpt lat="41.4788689278066158294677734375" lon="2.159269787371158599853515625">
        <ele>79</ele>
        <time>2022-01-07T08:51:22.000Z</time>
      </trkpt>
      <trkpt lat="41.478835232555866241455078125" lon="2.1592350862920284271240234375">
        <ele>78.59999847412109375</ele>
        <time>2022-01-07T08:51:23.000Z</time>
      </trkpt>
      <trkpt lat="41.47880078293383121490478515625" lon="2.159204073250293731689453125">
        <ele>78</ele>
        <time>2022-01-07T08:51:24.000Z</time>
      </trkpt>
      <trkpt lat="41.47876490838825702667236328125" lon="2.1591777540743350982666015625">
        <ele>77.8000030517578125</ele>
        <time>2022-01-07T08:51:25.000Z</time>
      </trkpt>
      <trkpt lat="41.4787271060049533843994140625" lon="2.1591559611260890960693359375">
        <ele>77.59999847412109375</ele>
        <time>2022-01-07T08:51:26.000Z</time>
      </trkpt>
      <trkpt lat="41.47868511267006397247314453125" lon="2.15913559310138225555419921875">
        <ele>77.40000152587890625</ele>
        <time>2022-01-07T08:51:27.000Z</time>
      </trkpt>
      <trkpt lat="41.478644125163555145263671875" lon="2.15911715291440486907958984375">
        <ele>77.1999969482421875</ele>
        <time>2022-01-07T08:51:28.000Z</time>
      </trkpt>
      <trkpt lat="41.47860162891447544097900390625" lon="2.1591039933264255523681640625">
        <ele>76.8000030517578125</ele>
        <time>2022-01-07T08:51:29.000Z</time>
      </trkpt>
      <trkpt lat="41.47855904884636402130126953125" lon="2.15910793282091617584228515625">
        <ele>76.40000152587890625</ele>
        <time>2022-01-07T08:51:30.000Z</time>
      </trkpt>
      <trkpt lat="41.4785229228436946868896484375" lon="2.1591288037598133087158203125">
        <ele>76</ele>
        <time>2022-01-07T08:51:31.000Z</time>
      </trkpt>
      <trkpt lat="41.47849283181130886077880859375" lon="2.1591650135815143585205078125">
        <ele>75.40000152587890625</ele>
        <time>2022-01-07T08:51:32.000Z</time>
      </trkpt>
      <trkpt lat="41.47846919484436511993408203125" lon="2.1592119522392749786376953125">
        <ele>75</ele>
        <time>2022-01-07T08:51:33.000Z</time>
      </trkpt>
      <trkpt lat="41.478457041084766387939453125" lon="2.159265764057636260986328125">
        <ele>74.8000030517578125</ele>
        <time>2022-01-07T08:51:34.000Z</time>
      </trkpt>
      <trkpt lat="41.47846265695989131927490234375" lon="2.1593172289431095123291015625">
        <ele>74.8000030517578125</ele>
        <time>2022-01-07T08:51:35.000Z</time>
      </trkpt>
      <trkpt lat="41.47847187705338001251220703125" lon="2.15936156921088695526123046875">
        <ele>74.59999847412109375</ele>
        <time>2022-01-07T08:51:36.000Z</time>
      </trkpt>
      <trkpt lat="41.47847740910947322845458984375" lon="2.159395515918731689453125">
        <ele>74.59999847412109375</ele>
        <time>2022-01-07T08:51:37.000Z</time>
      </trkpt>
      <trkpt lat="41.47848176769912242889404296875" lon="2.15943650342524051666259765625">
        <ele>74.59999847412109375</ele>
        <time>2022-01-07T08:51:38.000Z</time>
      </trkpt>
      <trkpt lat="41.4784823544323444366455078125" lon="2.1594773232936859130859375">
        <ele>74.59999847412109375</ele>
        <time>2022-01-07T08:51:39.000Z</time>
      </trkpt>
      <trkpt lat="41.4784813486039638519287109375" lon="2.1595190651714801788330078125">
        <ele>74.59999847412109375</ele>
        <time>2022-01-07T08:51:40.000Z</time>
      </trkpt>
      <trkpt lat="41.47849031724035739898681640625" lon="2.1595482341945171356201171875">
        <ele>74.59999847412109375</ele>
        <time>2022-01-07T08:51:41.000Z</time>
      </trkpt>
      <trkpt lat="41.47849551402032375335693359375" lon="2.15957053005695343017578125">
        <ele>74.59999847412109375</ele>
        <time>2022-01-07T08:51:42.000Z</time>
      </trkpt>
      <trkpt lat="41.47849970497190952301025390625" lon="2.15959760360419750213623046875">
        <ele>74.8000030517578125</ele>
        <time>2022-01-07T08:51:43.000Z</time>
      </trkpt>
      <trkpt lat="41.4785044826567173004150390625" lon="2.1596327237784862518310546875">
        <ele>75</ele>
        <time>2022-01-07T08:51:44.000Z</time>
      </trkpt>
      <trkpt lat="41.47851169109344482421875" lon="2.15966038405895233154296875">
        <ele>75.40000152587890625</ele>
        <time>2022-01-07T08:51:45.000Z</time>
      </trkpt>
      <trkpt lat="41.47851160727441310882568359375" lon="2.159686870872974395751953125">
        <ele>75.59999847412109375</ele>
        <time>2022-01-07T08:51:46.000Z</time>
      </trkpt>
      <trkpt lat="41.47851102054119110107421875" lon="2.15971478261053562164306640625">
        <ele>76</ele>
        <time>2022-01-07T08:51:47.000Z</time>
      </trkpt>
      <trkpt lat="41.47851169109344482421875" lon="2.1597450412809848785400390625">
        <ele>76.1999969482421875</ele>
        <time>2022-01-07T08:51:48.000Z</time>
      </trkpt>
      <trkpt lat="41.47851370275020599365234375" lon="2.159774713218212127685546875">
        <ele>76.59999847412109375</ele>
        <time>2022-01-07T08:51:49.000Z</time>
      </trkpt>
      <trkpt lat="41.47851881571114063262939453125" lon="2.15979541651904582977294921875">
        <ele>76.8000030517578125</ele>
        <time>2022-01-07T08:51:50.000Z</time>
      </trkpt>
      <trkpt lat="41.47852451540529727935791015625" lon="2.1598234958946704864501953125">
        <ele>77.1999969482421875</ele>
        <time>2022-01-07T08:51:51.000Z</time>
      </trkpt>
      <trkpt lat="41.47852577269077301025390625" lon="2.15984403155744075775146484375">
        <ele>77.59999847412109375</ele>
        <time>2022-01-07T08:51:52.000Z</time>
      </trkpt>
      <trkpt lat="41.4785323105752468109130859375" lon="2.15987085364758968353271484375">
        <ele>77.59999847412109375</ele>
        <time>2022-01-07T08:51:53.000Z</time>
      </trkpt>
      <trkpt lat="41.47853742353618144989013671875" lon="2.15989465825259685516357421875">
        <ele>78</ele>
        <time>2022-01-07T08:51:54.000Z</time>
      </trkpt>
      <trkpt lat="41.47854630835354328155517578125" lon="2.15991829521954059600830078125">
        <ele>78.40000152587890625</ele>
        <time>2022-01-07T08:51:55.000Z</time>
      </trkpt>
      <trkpt lat="41.47855661809444427490234375" lon="2.1599381603300571441650390625">
        <ele>78.8000030517578125</ele>
        <time>2022-01-07T08:51:56.000Z</time>
      </trkpt>
      <trkpt lat="41.47856374271214008331298828125" lon="2.15995819307863712310791015625">
        <ele>79</ele>
        <time>2022-01-07T08:51:57.000Z</time>
      </trkpt>
      <trkpt lat="41.4785706996917724609375" lon="2.1599777229130268096923828125">
        <ele>79.59999847412109375</ele>
        <time>2022-01-07T08:51:58.000Z</time>
      </trkpt>
      <trkpt lat="41.478582434356212615966796875" lon="2.159996666014194488525390625">
        <ele>80</ele>
        <time>2022-01-07T08:51:59.000Z</time>
      </trkpt>
      <trkpt lat="41.47859693504869937896728515625" lon="2.1600142680108547210693359375">
        <ele>80.1999969482421875</ele>
        <time>2022-01-07T08:52:00.000Z</time>
      </trkpt>
      <trkpt lat="41.47861286066472530364990234375" lon="2.16003723442554473876953125">
        <ele>80.59999847412109375</ele>
        <time>2022-01-07T08:52:01.000Z</time>
      </trkpt>
      <trkpt lat="41.47863063029944896697998046875" lon="2.16005860827863216400146484375">
        <ele>80.8000030517578125</ele>
        <time>2022-01-07T08:52:02.000Z</time>
      </trkpt>
      <trkpt lat="41.4786506630480289459228515625" lon="2.16008073650300502777099609375">
        <ele>81.1999969482421875</ele>
        <time>2022-01-07T08:52:03.000Z</time>
      </trkpt>
      <trkpt lat="41.47867237217724323272705078125" lon="2.1601047925651073455810546875">
        <ele>81.59999847412109375</ele>
        <time>2022-01-07T08:52:04.000Z</time>
      </trkpt>
      <trkpt lat="41.4786942489445209503173828125" lon="2.160129435360431671142578125">
        <ele>81.8000030517578125</ele>
        <time>2022-01-07T08:52:05.000Z</time>
      </trkpt>
      <trkpt lat="41.4787103421986103057861328125" lon="2.16015785001218318939208984375">
        <ele>82</ele>
        <time>2022-01-07T08:52:06.000Z</time>
      </trkpt>
      <trkpt lat="41.4787247590720653533935546875" lon="2.16018634848296642303466796875">
        <ele>82.1999969482421875</ele>
        <time>2022-01-07T08:52:07.000Z</time>
      </trkpt>
      <trkpt lat="41.47874294780194759368896484375" lon="2.16021702624857425689697265625">
        <ele>82.40000152587890625</ele>
        <time>2022-01-07T08:52:08.000Z</time>
      </trkpt>
      <trkpt lat="41.478761136531829833984375" lon="2.1602462790906429290771484375">
        <ele>82.59999847412109375</ele>
        <time>2022-01-07T08:52:09.000Z</time>
      </trkpt>
      <trkpt lat="41.478776223957538604736328125" lon="2.16027720831334590911865234375">
        <ele>82.8000030517578125</ele>
        <time>2022-01-07T08:52:10.000Z</time>
      </trkpt>
      <trkpt lat="41.4787908084690570831298828125" lon="2.160308472812175750732421875">
        <ele>83</ele>
        <time>2022-01-07T08:52:11.000Z</time>
      </trkpt>
      <trkpt lat="41.47880472242832183837890625" lon="2.16033789329230785369873046875">
        <ele>83.1999969482421875</ele>
        <time>2022-01-07T08:52:12.000Z</time>
      </trkpt>
      <trkpt lat="41.478816457092761993408203125" lon="2.16037024743854999542236328125">
        <ele>83.40000152587890625</ele>
        <time>2022-01-07T08:52:13.000Z</time>
      </trkpt>
      <trkpt lat="41.478825844824314117431640625" lon="2.16040545143187046051025390625">
        <ele>83.8000030517578125</ele>
        <time>2022-01-07T08:52:14.000Z</time>
      </trkpt>
      <trkpt lat="41.4788387529551982879638671875" lon="2.1604367159307003021240234375">
        <ele>84.40000152587890625</ele>
        <time>2022-01-07T08:52:15.000Z</time>
      </trkpt>
      <trkpt lat="41.47885107435286045074462890625" lon="2.16046730987727642059326171875">
        <ele>84.59999847412109375</ele>
        <time>2022-01-07T08:52:16.000Z</time>
      </trkpt>
      <trkpt lat="41.47886498831212520599365234375" lon="2.16050050221383571624755859375">
        <ele>85.1999969482421875</ele>
        <time>2022-01-07T08:52:17.000Z</time>
      </trkpt>
      <trkpt lat="41.478879153728485107421875" lon="2.16053252108395099639892578125">
        <ele>85.40000152587890625</ele>
        <time>2022-01-07T08:52:18.000Z</time>
      </trkpt>
      <trkpt lat="41.47889030165970325469970703125" lon="2.1605664677917957305908203125">
        <ele>85.8000030517578125</ele>
        <time>2022-01-07T08:52:19.000Z</time>
      </trkpt>
      <trkpt lat="41.478900611400604248046875" lon="2.1606003306806087493896484375">
        <ele>86.1999969482421875</ele>
        <time>2022-01-07T08:52:20.000Z</time>
      </trkpt>
      <trkpt lat="41.47890740074217319488525390625" lon="2.16063075698912143707275390625">
        <ele>86.40000152587890625</ele>
        <time>2022-01-07T08:52:21.000Z</time>
      </trkpt>
      <trkpt lat="41.4789140224456787109375" lon="2.1606601774692535400390625">
        <ele>86.8000030517578125</ele>
        <time>2022-01-07T08:52:22.000Z</time>
      </trkpt>
      <trkpt lat="41.478919051587581634521484375" lon="2.160688005387783050537109375">
        <ele>87.1999969482421875</ele>
        <time>2022-01-07T08:52:23.000Z</time>
      </trkpt>
      <trkpt lat="41.47892114706337451934814453125" lon="2.16071583330631256103515625">
        <ele>87.1999969482421875</ele>
        <time>2022-01-07T08:52:24.000Z</time>
      </trkpt>
      <trkpt lat="41.47891938686370849609375" lon="2.1607451699674129486083984375">
        <ele>87.40000152587890625</ele>
        <time>2022-01-07T08:52:25.000Z</time>
      </trkpt>
      <trkpt lat="41.478918381035327911376953125" lon="2.16077484190464019775390625">
        <ele>87.59999847412109375</ele>
        <time>2022-01-07T08:52:26.000Z</time>
      </trkpt>
      <trkpt lat="41.47892064414918422698974609375" lon="2.16080443002283573150634765625">
        <ele>88</ele>
        <time>2022-01-07T08:52:27.000Z</time>
      </trkpt>
      <trkpt lat="41.47892215289175510406494140625" lon="2.16083192266523838043212890625">
        <ele>88.1999969482421875</ele>
        <time>2022-01-07T08:52:28.000Z</time>
      </trkpt>
      <trkpt lat="41.478919722139835357666015625" lon="2.16085773892700672149658203125">
        <ele>88.59999847412109375</ele>
        <time>2022-01-07T08:52:29.000Z</time>
      </trkpt>
      <trkpt lat="41.47891595028340816497802734375" lon="2.16088171117007732391357421875">
        <ele>89</ele>
        <time>2022-01-07T08:52:30.000Z</time>
      </trkpt>
      <trkpt lat="41.4789141900837421417236328125" lon="2.16090719215571880340576171875">
        <ele>89.40000152587890625</ele>
        <time>2022-01-07T08:52:31.000Z</time>
      </trkpt>
      <trkpt lat="41.478911340236663818359375" lon="2.1609315834939479827880859375">
        <ele>89.59999847412109375</ele>
        <time>2022-01-07T08:52:32.000Z</time>
      </trkpt>
      <trkpt lat="41.47890773601830005645751953125" lon="2.16095664538443088531494140625">
        <ele>90.1999969482421875</ele>
        <time>2022-01-07T08:52:33.000Z</time>
      </trkpt>
      <trkpt lat="41.4788997732102870941162109375" lon="2.16098229400813579559326171875">
        <ele>90.40000152587890625</ele>
        <time>2022-01-07T08:52:34.000Z</time>
      </trkpt>
      <trkpt lat="41.47889147512614727020263671875" lon="2.16100710444152355194091796875">
        <ele>90.8000030517578125</ele>
        <time>2022-01-07T08:52:35.000Z</time>
      </trkpt>
      <trkpt lat="41.47888527251780033111572265625" lon="2.16103342361748218536376953125">
        <ele>91.1999969482421875</ele>
        <time>2022-01-07T08:52:36.000Z</time>
      </trkpt>
      <trkpt lat="41.478876806795597076416015625" lon="2.16105890460312366485595703125">
        <ele>91.8000030517578125</ele>
        <time>2022-01-07T08:52:37.000Z</time>
      </trkpt>
      <trkpt lat="41.47886264137923717498779296875" lon="2.16107985936105251312255859375">
        <ele>92.1999969482421875</ele>
        <time>2022-01-07T08:52:38.000Z</time>
      </trkpt>
      <trkpt lat="41.47884788922965526580810546875" lon="2.16109897010028362274169921875">
        <ele>92.59999847412109375</ele>
        <time>2022-01-07T08:52:39.000Z</time>
      </trkpt>
      <trkpt lat="41.47883548401296138763427734375" lon="2.16111682355403900146484375">
        <ele>93</ele>
        <time>2022-01-07T08:52:40.000Z</time>
      </trkpt>
      <trkpt lat="41.4788240008056163787841796875" lon="2.16113300062716007232666015625">
        <ele>93.59999847412109375</ele>
        <time>2022-01-07T08:52:41.000Z</time>
      </trkpt>
      <trkpt lat="41.4788109250366687774658203125" lon="2.1611478365957736968994140625">
        <ele>94</ele>
        <time>2022-01-07T08:52:42.000Z</time>
      </trkpt>
      <trkpt lat="41.47879793308675289154052734375" lon="2.16116149909794330596923828125">
        <ele>94.40000152587890625</ele>
        <time>2022-01-07T08:52:43.000Z</time>
      </trkpt>
      <trkpt lat="41.47878670133650302886962890625" lon="2.16117474250495433807373046875">
        <ele>95</ele>
        <time>2022-01-07T08:52:44.000Z</time>
      </trkpt>
      <trkpt lat="41.4787737093865871429443359375" lon="2.1611863933503627777099609375">
        <ele>95.40000152587890625</ele>
        <time>2022-01-07T08:52:45.000Z</time>
      </trkpt>
      <trkpt lat="41.478754095733165740966796875" lon="2.16120064258575439453125">
        <ele>96</ele>
        <time>2022-01-07T08:52:46.000Z</time>
      </trkpt>
      <trkpt lat="41.47873708046972751617431640625" lon="2.1612205915153026580810546875">
        <ele>96.40000152587890625</ele>
        <time>2022-01-07T08:52:47.000Z</time>
      </trkpt>
      <trkpt lat="41.47872157394886016845703125" lon="2.16123844496905803680419921875">
        <ele>96.8000030517578125</ele>
        <time>2022-01-07T08:52:48.000Z</time>
      </trkpt>
      <trkpt lat="41.478709168732166290283203125" lon="2.16124682687222957611083984375">
        <ele>97.1999969482421875</ele>
        <time>2022-01-07T08:52:49.000Z</time>
      </trkpt>
      <trkpt lat="41.4786898903548717498779296875" lon="2.16125939972698688507080078125">
        <ele>97.59999847412109375</ele>
        <time>2022-01-07T08:52:50.000Z</time>
      </trkpt>
      <trkpt lat="41.47867103107273578643798828125" lon="2.1612755768001079559326171875">
        <ele>97.8000030517578125</ele>
        <time>2022-01-07T08:52:51.000Z</time>
      </trkpt>
      <trkpt lat="41.47865108214318752288818359375" lon="2.16128957457840442657470703125">
        <ele>98</ele>
        <time>2022-01-07T08:52:52.000Z</time>
      </trkpt>
      <trkpt lat="41.4786302112042903900146484375" lon="2.161303572356700897216796875">
        <ele>98.1999969482421875</ele>
        <time>2022-01-07T08:52:53.000Z</time>
      </trkpt>
      <trkpt lat="41.4786107651889324188232421875" lon="2.161318995058536529541015625">
        <ele>98.40000152587890625</ele>
        <time>2022-01-07T08:52:54.000Z</time>
      </trkpt>
      <trkpt lat="41.47858888842165470123291015625" lon="2.1613319031894207000732421875">
        <ele>98.40000152587890625</ele>
        <time>2022-01-07T08:52:55.000Z</time>
      </trkpt>
      <trkpt lat="41.4785666763782501220703125" lon="2.1613463200628757476806640625">
        <ele>98.59999847412109375</ele>
        <time>2022-01-07T08:52:56.000Z</time>
      </trkpt>
      <trkpt lat="41.47854362614452838897705078125" lon="2.16135956346988677978515625">
        <ele>98.8000030517578125</ele>
        <time>2022-01-07T08:52:57.000Z</time>
      </trkpt>
      <trkpt lat="41.4785172231495380401611328125" lon="2.16137791983783245086669921875">
        <ele>99</ele>
        <time>2022-01-07T08:52:58.000Z</time>
      </trkpt>
      <trkpt lat="41.4784944243729114532470703125" lon="2.16139820404350757598876953125">
        <ele>99.40000152587890625</ele>
        <time>2022-01-07T08:52:59.000Z</time>
      </trkpt>
      <trkpt lat="41.4784848690032958984375" lon="2.16142100282013416290283203125">
        <ele>99.40000152587890625</ele>
        <time>2022-01-07T08:53:00.000Z</time>
      </trkpt>
      <trkpt lat="41.47848478518426418304443359375" lon="2.161444388329982757568359375">
        <ele>99.8000030517578125</ele>
        <time>2022-01-07T08:53:01.000Z</time>
      </trkpt>
      <trkpt lat="41.47849115543067455291748046875" lon="2.16147095896303653717041015625">
        <ele>100</ele>
        <time>2022-01-07T08:53:02.000Z</time>
      </trkpt>
      <trkpt lat="41.478503309190273284912109375" lon="2.161503732204437255859375">
        <ele>100.40000152587890625</ele>
        <time>2022-01-07T08:53:03.000Z</time>
      </trkpt>
      <trkpt lat="41.47851814515888690948486328125" lon="2.16153734363615512847900390625">
        <ele>100.59999847412109375</ele>
        <time>2022-01-07T08:53:04.000Z</time>
      </trkpt>
      <trkpt lat="41.478534154593944549560546875" lon="2.16156768612563610076904296875">
        <ele>100.59999847412109375</ele>
        <time>2022-01-07T08:53:05.000Z</time>
      </trkpt>
      <trkpt lat="41.4785492420196533203125" lon="2.16159819625318050384521484375">
        <ele>100.8000030517578125</ele>
        <time>2022-01-07T08:53:06.000Z</time>
      </trkpt>
      <trkpt lat="41.47856391035020351409912109375" lon="2.16162619180977344512939453125">
        <ele>101.1999969482421875</ele>
        <time>2022-01-07T08:53:07.000Z</time>
      </trkpt>
      <trkpt lat="41.478574387729167938232421875" lon="2.161654271185398101806640625">
        <ele>101.1999969482421875</ele>
        <time>2022-01-07T08:53:08.000Z</time>
      </trkpt>
      <trkpt lat="41.478583775460720062255859375" lon="2.16168050654232501983642578125">
        <ele>101.1999969482421875</ele>
        <time>2022-01-07T08:53:09.000Z</time>
      </trkpt>
      <trkpt lat="41.478595174849033355712890625" lon="2.16170313768088817596435546875">
        <ele>101.1999969482421875</ele>
        <time>2022-01-07T08:53:10.000Z</time>
      </trkpt>
      <trkpt lat="41.4786015450954437255859375" lon="2.16172459535300731658935546875">
        <ele>101.40000152587890625</ele>
        <time>2022-01-07T08:53:11.000Z</time>
      </trkpt>
      <trkpt lat="41.4786100946366786956787109375" lon="2.16174471192061901092529296875">
        <ele>101.40000152587890625</ele>
        <time>2022-01-07T08:53:12.000Z</time>
      </trkpt>
      <trkpt lat="41.47862241603434085845947265625" lon="2.16175745241343975067138671875">
        <ele>101.40000152587890625</ele>
        <time>2022-01-07T08:53:13.000Z</time>
      </trkpt>
      <trkpt lat="41.47863230668008327484130859375" lon="2.16176114045083522796630859375">
        <ele>101.40000152587890625</ele>
        <time>2022-01-07T08:53:14.000Z</time>
      </trkpt>
      <trkpt lat="41.4786364138126373291015625" lon="2.1617610566318035125732421875">
        <ele>101.40000152587890625</ele>
        <time>2022-01-07T08:53:15.000Z</time>
      </trkpt>
      <trkpt lat="41.4786364138126373291015625" lon="2.1617610566318035125732421875">
        <ele>101.40000152587890625</ele>
        <time>2022-01-07T08:53:16.000Z</time>
      </trkpt>
      <trkpt lat="41.47859626449644565582275390625" lon="2.161660976707935333251953125">
        <ele>101</ele>
        <time>2022-01-07T08:54:37.000Z</time>
      </trkpt>
      <trkpt lat="41.478580422699451446533203125" lon="2.16163583099842071533203125">
        <ele>101</ele>
        <time>2022-01-07T08:54:38.000Z</time>
      </trkpt>
      <trkpt lat="41.47856759838759899139404296875" lon="2.161614038050174713134765625">
        <ele>101</ele>
        <time>2022-01-07T08:54:39.000Z</time>
      </trkpt>
      <trkpt lat="41.47855167277157306671142578125" lon="2.16158411465585231781005859375">
        <ele>101</ele>
        <time>2022-01-07T08:54:40.000Z</time>
      </trkpt>
      <trkpt lat="41.47853608243167400360107421875" lon="2.1615533530712127685546875">
        <ele>101</ele>
        <time>2022-01-07T08:54:41.000Z</time>
      </trkpt>
      <trkpt lat="41.47851496003568172454833984375" lon="2.161514125764369964599609375">
        <ele>101</ele>
        <time>2022-01-07T08:54:42.000Z</time>
      </trkpt>
      <trkpt lat="41.4784920774400234222412109375" lon="2.1614854596555233001708984375">
        <ele>101</ele>
        <time>2022-01-07T08:54:43.000Z</time>
      </trkpt>
      <trkpt lat="41.47847170941531658172607421875" lon="2.161471880972385406494140625">
        <ele>100.8000030517578125</ele>
        <time>2022-01-07T08:54:44.000Z</time>
      </trkpt>
      <trkpt lat="41.47844396531581878662109375" lon="2.1614660136401653289794921875">
        <ele>100.8000030517578125</ele>
        <time>2022-01-07T08:54:45.000Z</time>
      </trkpt>
      <trkpt lat="41.4784102700650691986083984375" lon="2.161467857658863067626953125">
        <ele>100.8000030517578125</ele>
        <time>2022-01-07T08:54:46.000Z</time>
      </trkpt>
      <trkpt lat="41.478389315307140350341796875" lon="2.16147414408624172210693359375">
        <ele>100.8000030517578125</ele>
        <time>2022-01-07T08:54:47.000Z</time>
      </trkpt>
      <trkpt lat="41.4783547818660736083984375" lon="2.16148437000811100006103515625">
        <ele>100.8000030517578125</ele>
        <time>2022-01-07T08:54:48.000Z</time>
      </trkpt>
      <trkpt lat="41.478328965604305267333984375" lon="2.16149476356804370880126953125">
        <ele>100.8000030517578125</ele>
        <time>2022-01-07T08:54:49.000Z</time>
      </trkpt>
      <trkpt lat="41.47829644381999969482421875" lon="2.16151001863181591033935546875">
        <ele>100.8000030517578125</ele>
        <time>2022-01-07T08:54:50.000Z</time>
      </trkpt>
      <trkpt lat="41.47825713269412517547607421875" lon="2.1615278720855712890625">
        <ele>100.8000030517578125</ele>
        <time>2022-01-07T08:54:51.000Z</time>
      </trkpt>
      <trkpt lat="41.47822528146207332611083984375" lon="2.161539606750011444091796875">
        <ele>100.8000030517578125</ele>
        <time>2022-01-07T08:54:52.000Z</time>
      </trkpt>
      <trkpt lat="41.4781953580677509307861328125" lon="2.1615493297576904296875">
        <ele>101</ele>
        <time>2022-01-07T08:54:53.000Z</time>
      </trkpt>
      <trkpt lat="41.47817297838628292083740234375" lon="2.1615560352802276611328125">
        <ele>101.1999969482421875</ele>
        <time>2022-01-07T08:54:54.000Z</time>
      </trkpt>
      <trkpt lat="41.47814364172518253326416015625" lon="2.161565758287906646728515625">
        <ele>101.40000152587890625</ele>
        <time>2022-01-07T08:54:55.000Z</time>
      </trkpt>
      <trkpt lat="41.47810810245573520660400390625" lon="2.16158377937972545623779296875">
        <ele>101.40000152587890625</ele>
        <time>2022-01-07T08:54:56.000Z</time>
      </trkpt>
      <trkpt lat="41.47807792760431766510009765625" lon="2.16160406358540058135986328125">
        <ele>101.59999847412109375</ele>
        <time>2022-01-07T08:54:57.000Z</time>
      </trkpt>
      <trkpt lat="41.47804875858128070831298828125" lon="2.16162635944783687591552734375">
        <ele>101.59999847412109375</ele>
        <time>2022-01-07T08:54:58.000Z</time>
      </trkpt>
      <trkpt lat="41.47802746854722499847412109375" lon="2.1616445481777191162109375">
        <ele>101.8000030517578125</ele>
        <time>2022-01-07T08:54:59.000Z</time>
      </trkpt>
      <trkpt lat="41.47800232283771038055419921875" lon="2.16167178936302661895751953125">
        <ele>101.8000030517578125</ele>
        <time>2022-01-07T08:55:00.000Z</time>
      </trkpt>
      <trkpt lat="41.477972231805324554443359375" lon="2.16170615516602993011474609375">
        <ele>102</ele>
        <time>2022-01-07T08:55:01.000Z</time>
      </trkpt>
      <trkpt lat="41.4779512770473957061767578125" lon="2.161736078560352325439453125">
        <ele>102</ele>
        <time>2022-01-07T08:55:02.000Z</time>
      </trkpt>
      <trkpt lat="41.477930657565593719482421875" lon="2.16176985763013362884521484375">
        <ele>102.1999969482421875</ele>
        <time>2022-01-07T08:55:03.000Z</time>
      </trkpt>
      <trkpt lat="41.477911211550235748291015625" lon="2.1617952547967433929443359375">
        <ele>102.59999847412109375</ele>
        <time>2022-01-07T08:55:04.000Z</time>
      </trkpt>
      <trkpt lat="41.4778875745832920074462890625" lon="2.16182836331427097320556640625">
        <ele>102.59999847412109375</ele>
        <time>2022-01-07T08:55:05.000Z</time>
      </trkpt>
      <trkpt lat="41.477862261235713958740234375" lon="2.1618703566491603851318359375">
        <ele>102.8000030517578125</ele>
        <time>2022-01-07T08:55:06.000Z</time>
      </trkpt>
      <trkpt lat="41.47784206084907054901123046875" lon="2.1619025431573390960693359375">
        <ele>102.8000030517578125</ele>
        <time>2022-01-07T08:55:07.000Z</time>
      </trkpt>
      <trkpt lat="41.47781892679631710052490234375" lon="2.16193112544715404510498046875">
        <ele>102.8000030517578125</ele>
        <time>2022-01-07T08:55:08.000Z</time>
      </trkpt>
      <trkpt lat="41.47779746912419795989990234375" lon="2.1619511581957340240478515625">
        <ele>102.8000030517578125</ele>
        <time>2022-01-07T08:55:09.000Z</time>
      </trkpt>
      <trkpt lat="41.47777232341468334197998046875" lon="2.161976136267185211181640625">
        <ele>102.8000030517578125</ele>
        <time>2022-01-07T08:55:10.000Z</time>
      </trkpt>
      <trkpt lat="41.47774214856326580047607421875" lon="2.1620017848908901214599609375">
        <ele>103</ele>
        <time>2022-01-07T08:55:11.000Z</time>
      </trkpt>
      <trkpt lat="41.47771398536860942840576171875" lon="2.16202181763947010040283203125">
        <ele>103</ele>
        <time>2022-01-07T08:55:12.000Z</time>
      </trkpt>
      <trkpt lat="41.47768397815525531768798828125" lon="2.1620433591306209564208984375">
        <ele>103</ele>
        <time>2022-01-07T08:55:13.000Z</time>
      </trkpt>
      <trkpt lat="41.4776582457125186920166015625" lon="2.16206054203212261199951171875">
        <ele>103</ele>
        <time>2022-01-07T08:55:14.000Z</time>
      </trkpt>
      <trkpt lat="41.477626897394657135009765625" lon="2.16208920814096927642822265625">
        <ele>103</ele>
        <time>2022-01-07T08:55:15.000Z</time>
      </trkpt>
      <trkpt lat="41.477586328983306884765625" lon="2.1621271781623363494873046875">
        <ele>103</ele>
        <time>2022-01-07T08:55:16.000Z</time>
      </trkpt>
      <trkpt lat="41.4775469340384006500244140625" lon="2.162158191204071044921875">
        <ele>103</ele>
        <time>2022-01-07T08:55:17.000Z</time>
      </trkpt>
      <trkpt lat="41.47751064039766788482666015625" lon="2.16218308545649051666259765625">
        <ele>103</ele>
        <time>2022-01-07T08:55:18.000Z</time>
      </trkpt>
      <trkpt lat="41.47746361792087554931640625" lon="2.16220957227051258087158203125">
        <ele>103</ele>
        <time>2022-01-07T08:55:19.000Z</time>
      </trkpt>
      <trkpt lat="41.47741408087313175201416015625" lon="2.16223136521875858306884765625">
        <ele>103</ele>
        <time>2022-01-07T08:55:20.000Z</time>
      </trkpt>
      <trkpt lat="41.477347947657108306884765625" lon="2.1622507274150848388671875">
        <ele>102.59999847412109375</ele>
        <time>2022-01-07T08:55:21.000Z</time>
      </trkpt>
      <trkpt lat="41.47728835232555866241455078125" lon="2.162259779870510101318359375">
        <ele>102.59999847412109375</ele>
        <time>2022-01-07T08:55:22.000Z</time>
      </trkpt>
      <trkpt lat="41.47722448222339153289794921875" lon="2.16226288117468357086181640625">
        <ele>102.59999847412109375</ele>
        <time>2022-01-07T08:55:23.000Z</time>
      </trkpt>
      <trkpt lat="41.47717318497598171234130859375" lon="2.1622574329376220703125">
        <ele>102</ele>
        <time>2022-01-07T08:55:24.000Z</time>
      </trkpt>
      <trkpt lat="41.4770933054387569427490234375" lon="2.162243016064167022705078125">
        <ele>101.8000030517578125</ele>
        <time>2022-01-07T08:55:25.000Z</time>
      </trkpt>
      <trkpt lat="41.4770232327282428741455078125" lon="2.1622307784855365753173828125">
        <ele>101.1999969482421875</ele>
        <time>2022-01-07T08:55:26.000Z</time>
      </trkpt>
      <trkpt lat="41.47695173509418964385986328125" lon="2.1622230671346187591552734375">
        <ele>100.8000030517578125</ele>
        <time>2022-01-07T08:55:27.000Z</time>
      </trkpt>
      <trkpt lat="41.47689926438033580780029296875" lon="2.1622234024107456207275390625">
        <ele>100</ele>
        <time>2022-01-07T08:55:28.000Z</time>
      </trkpt>
      <trkpt lat="41.4768411777913570404052734375" lon="2.1622291021049022674560546875">
        <ele>99.1999969482421875</ele>
        <time>2022-01-07T08:55:29.000Z</time>
      </trkpt>
      <trkpt lat="41.47677638567984104156494140625" lon="2.16223723255097866058349609375">
        <ele>98.59999847412109375</ele>
        <time>2022-01-07T08:55:30.000Z</time>
      </trkpt>
      <trkpt lat="41.4767278544604778289794921875" lon="2.16224293224513530731201171875">
        <ele>98.59999847412109375</ele>
        <time>2022-01-07T08:55:31.000Z</time>
      </trkpt>
      <trkpt lat="41.4766849391162395477294921875" lon="2.16224393807351589202880859375">
        <ele>98.1999969482421875</ele>
        <time>2022-01-07T08:55:32.000Z</time>
      </trkpt>
      <trkpt lat="41.47665216587483882904052734375" lon="2.1622458659112453460693359375">
        <ele>98</ele>
        <time>2022-01-07T08:55:33.000Z</time>
      </trkpt>
      <trkpt lat="41.4766113460063934326171875" lon="2.16225131414830684661865234375">
        <ele>98</ele>
        <time>2022-01-07T08:55:34.000Z</time>
      </trkpt>
      <trkpt lat="41.476572789251804351806640625" lon="2.1622592769563198089599609375">
        <ele>98</ele>
        <time>2022-01-07T08:55:35.000Z</time>
      </trkpt>
      <trkpt lat="41.47652710787951946258544921875" lon="2.16226506046950817108154296875">
        <ele>98</ele>
        <time>2022-01-07T08:55:36.000Z</time>
      </trkpt>
      <trkpt lat="41.4764891378581523895263671875" lon="2.16226573102176189422607421875">
        <ele>98</ele>
        <time>2022-01-07T08:55:37.000Z</time>
      </trkpt>
      <trkpt lat="41.47645938210189342498779296875" lon="2.1622643060982227325439453125">
        <ele>98</ele>
        <time>2022-01-07T08:55:38.000Z</time>
      </trkpt>
      <trkpt lat="41.47642032243311405181884765625" lon="2.162265144288539886474609375">
        <ele>98</ele>
        <time>2022-01-07T08:55:39.000Z</time>
      </trkpt>
      <trkpt lat="41.4763726294040679931640625" lon="2.1622750349342823028564453125">
        <ele>98</ele>
        <time>2022-01-07T08:55:40.000Z</time>
      </trkpt>
      <trkpt lat="41.4763339050114154815673828125" lon="2.162287272512912750244140625">
        <ele>98.1999969482421875</ele>
        <time>2022-01-07T08:55:41.000Z</time>
      </trkpt>
      <trkpt lat="41.47629710845649242401123046875" lon="2.16229355894029140472412109375">
        <ele>98.59999847412109375</ele>
        <time>2022-01-07T08:55:42.000Z</time>
      </trkpt>
      <trkpt lat="41.4762678556144237518310546875" lon="2.16229858808219432830810546875">
        <ele>99</ele>
        <time>2022-01-07T08:55:43.000Z</time>
      </trkpt>
      <trkpt lat="41.47623290307819843292236328125" lon="2.1623048745095729827880859375">
        <ele>99.59999847412109375</ele>
        <time>2022-01-07T08:55:44.000Z</time>
      </trkpt>
      <trkpt lat="41.47619367577135562896728515625" lon="2.16230931691825389862060546875">
        <ele>100.40000152587890625</ele>
        <time>2022-01-07T08:55:45.000Z</time>
      </trkpt>
      <trkpt lat="41.47616065107285976409912109375" lon="2.162314765155315399169921875">
        <ele>100.8000030517578125</ele>
        <time>2022-01-07T08:55:46.000Z</time>
      </trkpt>
      <trkpt lat="41.476126201450824737548828125" lon="2.1623202972114086151123046875">
        <ele>101.40000152587890625</ele>
        <time>2022-01-07T08:55:47.000Z</time>
      </trkpt>
      <trkpt lat="41.47609342820942401885986328125" lon="2.16232725419104099273681640625">
        <ele>101.59999847412109375</ele>
        <time>2022-01-07T08:55:48.000Z</time>
      </trkpt>
      <trkpt lat="41.47606308571994304656982421875" lon="2.1623363904654979705810546875">
        <ele>102</ele>
        <time>2022-01-07T08:55:49.000Z</time>
      </trkpt>
      <trkpt lat="41.47603190504014492034912109375" lon="2.16234887950122356414794921875">
        <ele>102.40000152587890625</ele>
        <time>2022-01-07T08:55:50.000Z</time>
      </trkpt>
      <trkpt lat="41.47600047290325164794921875" lon="2.16236011125147342681884765625">
        <ele>102.8000030517578125</ele>
        <time>2022-01-07T08:55:51.000Z</time>
      </trkpt>
      <trkpt lat="41.47597423754632472991943359375" lon="2.16236983425915241241455078125">
        <ele>103.40000152587890625</ele>
        <time>2022-01-07T08:55:52.000Z</time>
      </trkpt>
      <trkpt lat="41.47594322450459003448486328125" lon="2.16238441877067089080810546875">
        <ele>104</ele>
        <time>2022-01-07T08:55:53.000Z</time>
      </trkpt>
      <trkpt lat="41.47590315900743007659912109375" lon="2.1623977459967136383056640625">
        <ele>104.1999969482421875</ele>
        <time>2022-01-07T08:55:54.000Z</time>
      </trkpt>
      <trkpt lat="41.47587575018405914306640625" lon="2.16240227222442626953125">
        <ele>104.59999847412109375</ele>
        <time>2022-01-07T08:55:55.000Z</time>
      </trkpt>
      <trkpt lat="41.475837528705596923828125" lon="2.1624044515192508697509765625">
        <ele>105.1999969482421875</ele>
        <time>2022-01-07T08:55:56.000Z</time>
      </trkpt>
      <trkpt lat="41.47579737938940525054931640625" lon="2.16240696609020233154296875">
        <ele>105.59999847412109375</ele>
        <time>2022-01-07T08:55:57.000Z</time>
      </trkpt>
      <trkpt lat="41.475757397711277008056640625" lon="2.16240671463310718536376953125">
        <ele>105.8000030517578125</ele>
        <time>2022-01-07T08:55:58.000Z</time>
      </trkpt>
      <trkpt lat="41.47571641020476818084716796875" lon="2.16240336187183856964111328125">
        <ele>106.1999969482421875</ele>
        <time>2022-01-07T08:55:59.000Z</time>
      </trkpt>
      <trkpt lat="41.4756757579743862152099609375" lon="2.16239950619637966156005859375">
        <ele>106.40000152587890625</ele>
        <time>2022-01-07T08:56:00.000Z</time>
      </trkpt>
      <trkpt lat="41.47563837468624114990234375" lon="2.1623896993696689605712890625">
        <ele>106.40000152587890625</ele>
        <time>2022-01-07T08:56:01.000Z</time>
      </trkpt>
      <trkpt lat="41.47560291923582553863525390625" lon="2.1623759530484676361083984375">
        <ele>106.8000030517578125</ele>
        <time>2022-01-07T08:56:02.000Z</time>
      </trkpt>
      <trkpt lat="41.4755679666996002197265625" lon="2.1623612008988857269287109375">
        <ele>107</ele>
        <time>2022-01-07T08:56:03.000Z</time>
      </trkpt>
      <trkpt lat="41.4755339361727237701416015625" lon="2.16233982704579830169677734375">
        <ele>107.1999969482421875</ele>
        <time>2022-01-07T08:56:04.000Z</time>
      </trkpt>
      <trkpt lat="41.47549915127456188201904296875" lon="2.1623166091740131378173828125">
        <ele>107.59999847412109375</ele>
        <time>2022-01-07T08:56:05.000Z</time>
      </trkpt>
      <trkpt lat="41.47546813823282718658447265625" lon="2.162298671901226043701171875">
        <ele>107.8000030517578125</ele>
        <time>2022-01-07T08:56:06.000Z</time>
      </trkpt>
      <trkpt lat="41.47544416598975658416748046875" lon="2.16228500939905643463134765625">
        <ele>108</ele>
        <time>2022-01-07T08:56:07.000Z</time>
      </trkpt>
      <trkpt lat="41.4754155836999416351318359375" lon="2.16227176599204540252685546875">
        <ele>108.1999969482421875</ele>
        <time>2022-01-07T08:56:08.000Z</time>
      </trkpt>
      <trkpt lat="41.4753837324678897857666015625" lon="2.16225852258503437042236328125">
        <ele>108.40000152587890625</ele>
        <time>2022-01-07T08:56:09.000Z</time>
      </trkpt>
      <trkpt lat="41.47535632364451885223388671875" lon="2.16224829666316509246826171875">
        <ele>108.59999847412109375</ele>
        <time>2022-01-07T08:56:10.000Z</time>
      </trkpt>
      <trkpt lat="41.4753300882875919342041015625" lon="2.1622348017990589141845703125">
        <ele>109</ele>
        <time>2022-01-07T08:56:11.000Z</time>
      </trkpt>
      <trkpt lat="41.47531290538609027862548828125" lon="2.1622247435152530670166015625">
        <ele>109.1999969482421875</ele>
        <time>2022-01-07T08:56:12.000Z</time>
      </trkpt>
      <trkpt lat="41.47529262118041515350341796875" lon="2.162206135690212249755859375">
        <ele>109.40000152587890625</ele>
        <time>2022-01-07T08:56:13.000Z</time>
      </trkpt>
      <trkpt lat="41.4752623625099658966064453125" lon="2.16218291781842708587646484375">
        <ele>109.59999847412109375</ele>
        <time>2022-01-07T08:56:14.000Z</time>
      </trkpt>
      <trkpt lat="41.47523872554302215576171875" lon="2.16215928085148334503173828125">
        <ele>109.8000030517578125</ele>
        <time>2022-01-07T08:56:15.000Z</time>
      </trkpt>
      <trkpt lat="41.475216262042522430419921875" lon="2.1621352247893810272216796875">
        <ele>110.1999969482421875</ele>
        <time>2022-01-07T08:56:16.000Z</time>
      </trkpt>
      <trkpt lat="41.4751973189413547515869140625" lon="2.1621117554605007171630859375">
        <ele>110.40000152587890625</ele>
        <time>2022-01-07T08:56:17.000Z</time>
      </trkpt>
      <trkpt lat="41.4751725085079669952392578125" lon="2.162083089351654052734375">
        <ele>110.59999847412109375</ele>
        <time>2022-01-07T08:56:18.000Z</time>
      </trkpt>
      <trkpt lat="41.4751453511416912078857421875" lon="2.16204620897769927978515625">
        <ele>110.59999847412109375</ele>
        <time>2022-01-07T08:56:19.000Z</time>
      </trkpt>
      <trkpt lat="41.47512448020279407501220703125" lon="2.16201678849756717681884765625">
        <ele>110.8000030517578125</ele>
        <time>2022-01-07T08:56:20.000Z</time>
      </trkpt>
      <trkpt lat="41.47510863840579986572265625" lon="2.16199298389256000518798828125">
        <ele>110.8000030517578125</ele>
        <time>2022-01-07T08:56:21.000Z</time>
      </trkpt>
      <trkpt lat="41.475088857114315032958984375" lon="2.16196817345917224884033203125">
        <ele>110.8000030517578125</ele>
        <time>2022-01-07T08:56:22.000Z</time>
      </trkpt>
      <trkpt lat="41.47506840527057647705078125" lon="2.16194638051092624664306640625">
        <ele>110.8000030517578125</ele>
        <time>2022-01-07T08:56:23.000Z</time>
      </trkpt>
      <trkpt lat="41.47504468448460102081298828125" lon="2.1619260124862194061279296875">
        <ele>110.8000030517578125</ele>
        <time>2022-01-07T08:56:24.000Z</time>
      </trkpt>
      <trkpt lat="41.47501031868159770965576171875" lon="2.1618998609483242034912109375">
        <ele>110.8000030517578125</ele>
        <time>2022-01-07T08:56:25.000Z</time>
      </trkpt>
      <trkpt lat="41.474980227649211883544921875" lon="2.161877565085887908935546875">
        <ele>110.8000030517578125</ele>
        <time>2022-01-07T08:56:26.000Z</time>
      </trkpt>
      <trkpt lat="41.47495147772133350372314453125" lon="2.161860130727291107177734375">
        <ele>110.8000030517578125</ele>
        <time>2022-01-07T08:56:27.000Z</time>
      </trkpt>
      <trkpt lat="41.47491275332868099212646484375" lon="2.16183833777904510498046875">
        <ele>110.59999847412109375</ele>
        <time>2022-01-07T08:56:28.000Z</time>
      </trkpt>
      <trkpt lat="41.47487126290798187255859375" lon="2.161821238696575164794921875">
        <ele>110.59999847412109375</ele>
        <time>2022-01-07T08:56:29.000Z</time>
      </trkpt>
      <trkpt lat="41.47481921128928661346435546875" lon="2.16180087067186832427978515625">
        <ele>110.40000152587890625</ele>
        <time>2022-01-07T08:56:30.000Z</time>
      </trkpt>
      <trkpt lat="41.4747849293053150177001953125" lon="2.1617893874645233154296875">
        <ele>110.1999969482421875</ele>
        <time>2022-01-07T08:56:31.000Z</time>
      </trkpt>
      <trkpt lat="41.47474243305623531341552734375" lon="2.16177639551460742950439453125">
        <ele>110.1999969482421875</ele>
        <time>2022-01-07T08:56:32.000Z</time>
      </trkpt>
      <trkpt lat="41.47469222545623779296875" lon="2.1617630682885646820068359375">
        <ele>109.8000030517578125</ele>
        <time>2022-01-07T08:56:33.000Z</time>
      </trkpt>
      <trkpt lat="41.47464654408395290374755859375" lon="2.1617563627660274505615234375">
        <ele>109.59999847412109375</ele>
        <time>2022-01-07T08:56:34.000Z</time>
      </trkpt>
      <trkpt lat="41.47460396401584148406982421875" lon="2.16175477020442485809326171875">
        <ele>109.1999969482421875</ele>
        <time>2022-01-07T08:56:35.000Z</time>
      </trkpt>
      <trkpt lat="41.47457127459347248077392578125" lon="2.161760888993740081787109375">
        <ele>108.59999847412109375</ele>
        <time>2022-01-07T08:56:36.000Z</time>
      </trkpt>
      <trkpt lat="41.4745317958295345306396484375" lon="2.1617754735052585601806640625">
        <ele>108</ele>
        <time>2022-01-07T08:56:37.000Z</time>
      </trkpt>
      <trkpt lat="41.47448527626693248748779296875" lon="2.16180724091827869415283203125">
        <ele>107.40000152587890625</ele>
        <time>2022-01-07T08:56:38.000Z</time>
      </trkpt>
      <trkpt lat="41.47444747388362884521484375" lon="2.1618411876261234283447265625">
        <ele>107</ele>
        <time>2022-01-07T08:56:39.000Z</time>
      </trkpt>
      <trkpt lat="41.47440933622419834136962890625" lon="2.1618779003620147705078125">
        <ele>106.59999847412109375</ele>
        <time>2022-01-07T08:56:40.000Z</time>
      </trkpt>
      <trkpt lat="41.4743802510201930999755859375" lon="2.16190933249890804290771484375">
        <ele>106.40000152587890625</ele>
        <time>2022-01-07T08:56:41.000Z</time>
      </trkpt>
      <trkpt lat="41.4743477292358875274658203125" lon="2.16195275075733661651611328125">
        <ele>105.8000030517578125</ele>
        <time>2022-01-07T08:56:42.000Z</time>
      </trkpt>
      <trkpt lat="41.47431713528931140899658203125" lon="2.16199784539639949798583984375">
        <ele>105.59999847412109375</ele>
        <time>2022-01-07T08:56:43.000Z</time>
      </trkpt>
      <trkpt lat="41.474286876618862152099609375" lon="2.162039168179035186767578125">
        <ele>105.40000152587890625</ele>
        <time>2022-01-07T08:56:44.000Z</time>
      </trkpt>
      <trkpt lat="41.47425276227295398712158203125" lon="2.16207428835332393646240234375">
        <ele>105.40000152587890625</ele>
        <time>2022-01-07T08:56:45.000Z</time>
      </trkpt>
      <trkpt lat="41.47421521134674549102783203125" lon="2.16211217455565929412841796875">
        <ele>105.40000152587890625</ele>
        <time>2022-01-07T08:56:46.000Z</time>
      </trkpt>
      <trkpt lat="41.474178917706012725830078125" lon="2.1621519885957241058349609375">
        <ele>105.1999969482421875</ele>
        <time>2022-01-07T08:56:47.000Z</time>
      </trkpt>
      <trkpt lat="41.474142707884311676025390625" lon="2.16218769550323486328125">
        <ele>105.1999969482421875</ele>
        <time>2022-01-07T08:56:48.000Z</time>
      </trkpt>
      <trkpt lat="41.4741088449954986572265625" lon="2.16221812181174755096435546875">
        <ele>105.1999969482421875</ele>
        <time>2022-01-07T08:56:49.000Z</time>
      </trkpt>
      <trkpt lat="41.474072635173797607421875" lon="2.16224494390189647674560546875">
        <ele>105.1999969482421875</ele>
        <time>2022-01-07T08:56:50.000Z</time>
      </trkpt>
      <trkpt lat="41.4740349166095256805419921875" lon="2.1622673235833644866943359375">
        <ele>105.1999969482421875</ele>
        <time>2022-01-07T08:56:51.000Z</time>
      </trkpt>
      <trkpt lat="41.47399376146495342254638671875" lon="2.1622824110090732574462890625">
        <ele>105.1999969482421875</ele>
        <time>2022-01-07T08:56:52.000Z</time>
      </trkpt>
      <trkpt lat="41.4739561267197132110595703125" lon="2.162291295826435089111328125">
        <ele>105.40000152587890625</ele>
        <time>2022-01-07T08:56:53.000Z</time>
      </trkpt>
      <trkpt lat="41.47392201237380504608154296875" lon="2.16229858808219432830810546875">
        <ele>105.40000152587890625</ele>
        <time>2022-01-07T08:56:54.000Z</time>
      </trkpt>
      <trkpt lat="41.4738914184272289276123046875" lon="2.16230370104312896728515625">
        <ele>105.59999847412109375</ele>
        <time>2022-01-07T08:56:55.000Z</time>
      </trkpt>
      <trkpt lat="41.47385864518582820892333984375" lon="2.1623062156140804290771484375">
        <ele>105.8000030517578125</ele>
        <time>2022-01-07T08:56:56.000Z</time>
      </trkpt>
      <trkpt lat="41.47382394410669803619384765625" lon="2.1623092330992221832275390625">
        <ele>106</ele>
        <time>2022-01-07T08:56:57.000Z</time>
      </trkpt>
      <trkpt lat="41.47379360161721706390380859375" lon="2.16231015510857105255126953125">
        <ele>106.1999969482421875</ele>
        <time>2022-01-07T08:56:58.000Z</time>
      </trkpt>
      <trkpt lat="41.47376107983291149139404296875" lon="2.16231468133628368377685546875">
        <ele>106.59999847412109375</ele>
        <time>2022-01-07T08:56:59.000Z</time>
      </trkpt>
      <trkpt lat="41.473719589412212371826171875" lon="2.162325493991374969482421875">
        <ele>106.8000030517578125</ele>
        <time>2022-01-07T08:57:00.000Z</time>
      </trkpt>
      <trkpt lat="41.473691761493682861328125" lon="2.1623337082564830780029296875">
        <ele>107.1999969482421875</ele>
        <time>2022-01-07T08:57:01.000Z</time>
      </trkpt>
      <trkpt lat="41.47365546785295009613037109375" lon="2.16234661638736724853515625">
        <ele>107.59999847412109375</ele>
        <time>2022-01-07T08:57:02.000Z</time>
      </trkpt>
      <trkpt lat="41.4736174978315830230712890625" lon="2.16235600411891937255859375">
        <ele>107.59999847412109375</ele>
        <time>2022-01-07T08:57:03.000Z</time>
      </trkpt>
      <trkpt lat="41.4735819585621356964111328125" lon="2.162354998290538787841796875">
        <ele>107.8000030517578125</ele>
        <time>2022-01-07T08:57:04.000Z</time>
      </trkpt>
      <trkpt lat="41.4735455811023712158203125" lon="2.16234636493027210235595703125">
        <ele>108.1999969482421875</ele>
        <time>2022-01-07T08:57:05.000Z</time>
      </trkpt>
      <trkpt lat="41.4735078625380992889404296875" lon="2.162335216999053955078125">
        <ele>108.40000152587890625</ele>
        <time>2022-01-07T08:57:06.000Z</time>
      </trkpt>
      <trkpt lat="41.47347022779285907745361328125" lon="2.162319459021091461181640625">
        <ele>108.8000030517578125</ele>
        <time>2022-01-07T08:57:07.000Z</time>
      </trkpt>
      <trkpt lat="41.47343493998050689697265625" lon="2.1623018570244312286376953125">
        <ele>109</ele>
        <time>2022-01-07T08:57:08.000Z</time>
      </trkpt>
      <trkpt lat="41.47340233437716960906982421875" lon="2.16228014789521694183349609375">
        <ele>109.1999969482421875</ele>
        <time>2022-01-07T08:57:09.000Z</time>
      </trkpt>
      <trkpt lat="41.47336880676448345184326171875" lon="2.16225944459438323974609375">
        <ele>109.40000152587890625</ele>
        <time>2022-01-07T08:57:10.000Z</time>
      </trkpt>
      <trkpt lat="41.4733336865901947021484375" lon="2.162240333855152130126953125">
        <ele>109.59999847412109375</ele>
        <time>2022-01-07T08:57:11.000Z</time>
      </trkpt>
      <trkpt lat="41.473300494253635406494140625" lon="2.1622177027165889739990234375">
        <ele>109.59999847412109375</ele>
        <time>2022-01-07T08:57:12.000Z</time>
      </trkpt>
      <trkpt lat="41.47326302714645862579345703125" lon="2.1621881984174251556396484375">
        <ele>109.8000030517578125</ele>
        <time>2022-01-07T08:57:13.000Z</time>
      </trkpt>
      <trkpt lat="41.4732389710843563079833984375" lon="2.16216799803078174591064453125">
        <ele>109.8000030517578125</ele>
        <time>2022-01-07T08:57:14.000Z</time>
      </trkpt>
      <trkpt lat="41.47321055643260478973388671875" lon="2.162138409912586212158203125">
        <ele>110</ele>
        <time>2022-01-07T08:57:15.000Z</time>
      </trkpt>
      <trkpt lat="41.47318859584629535675048828125" lon="2.1620990149676799774169921875">
        <ele>110.1999969482421875</ele>
        <time>2022-01-07T08:57:16.000Z</time>
      </trkpt>
      <trkpt lat="41.47317887283861637115478515625" lon="2.16205366887152194976806640625">
        <ele>110.40000152587890625</ele>
        <time>2022-01-07T08:57:17.000Z</time>
      </trkpt>
      <trkpt lat="41.473181806504726409912109375" lon="2.1619977615773677825927734375">
        <ele>110.8000030517578125</ele>
        <time>2022-01-07T08:57:18.000Z</time>
      </trkpt>
      <trkpt lat="41.47319748066365718841552734375" lon="2.16195090673863887786865234375">
        <ele>111</ele>
        <time>2022-01-07T08:57:19.000Z</time>
      </trkpt>
      <trkpt lat="41.47321742959320545196533203125" lon="2.161917127668857574462890625">
        <ele>111.1999969482421875</ele>
        <time>2022-01-07T08:57:20.000Z</time>
      </trkpt>
      <trkpt lat="41.47324408404529094696044921875" lon="2.16187597252428531646728515625">
        <ele>111.40000152587890625</ele>
        <time>2022-01-07T08:57:21.000Z</time>
      </trkpt>
      <trkpt lat="41.47327040322124958038330078125" lon="2.16183473356068134307861328125">
        <ele>111.8000030517578125</ele>
        <time>2022-01-07T08:57:22.000Z</time>
      </trkpt>
      <trkpt lat="41.4733023382723331451416015625" lon="2.16178360395133495330810546875">
        <ele>112</ele>
        <time>2022-01-07T08:57:23.000Z</time>
      </trkpt>
      <trkpt lat="41.473325975239276885986328125" lon="2.16174236498773097991943359375">
        <ele>112</ele>
        <time>2022-01-07T08:57:24.000Z</time>
      </trkpt>
      <trkpt lat="41.47334634326398372650146484375" lon="2.161710597574710845947265625">
        <ele>112.1999969482421875</ele>
        <time>2022-01-07T08:57:25.000Z</time>
      </trkpt>
      <trkpt lat="41.47337115369737148284912109375" lon="2.1616701968014240264892578125">
        <ele>112.1999969482421875</ele>
        <time>2022-01-07T08:57:26.000Z</time>
      </trkpt>
      <trkpt lat="41.473393030464649200439453125" lon="2.16162904165685176849365234375">
        <ele>112.40000152587890625</ele>
        <time>2022-01-07T08:57:27.000Z</time>
      </trkpt>
      <trkpt lat="41.4734159968793392181396484375" lon="2.16158344410359859466552734375">
        <ele>112.40000152587890625</ele>
        <time>2022-01-07T08:57:28.000Z</time>
      </trkpt>
      <trkpt lat="41.4734377898275852203369140625" lon="2.16152510605752468109130859375">
        <ele>112.40000152587890625</ele>
        <time>2022-01-07T08:57:29.000Z</time>
      </trkpt>
      <trkpt lat="41.4734490215778350830078125" lon="2.1614874713122844696044921875">
        <ele>112.59999847412109375</ele>
        <time>2022-01-07T08:57:30.000Z</time>
      </trkpt>
      <trkpt lat="41.47346268408000469207763671875" lon="2.16143508441746234893798828125">
        <ele>112.59999847412109375</ele>
        <time>2022-01-07T08:57:31.000Z</time>
      </trkpt>
      <trkpt lat="41.473470143973827362060546875" lon="2.16140071861445903778076171875">
        <ele>112.8000030517578125</ele>
        <time>2022-01-07T08:57:32.000Z</time>
      </trkpt>
      <trkpt lat="41.47348715923726558685302734375" lon="2.16135394759476184844970703125">
        <ele>112.8000030517578125</ele>
        <time>2022-01-07T08:57:33.000Z</time>
      </trkpt>
      <trkpt lat="41.473496295511722564697265625" lon="2.16130533255636692047119140625">
        <ele>112.8000030517578125</ele>
        <time>2022-01-07T08:57:34.000Z</time>
      </trkpt>
      <trkpt lat="41.4735081978142261505126953125" lon="2.16125772334635257720947265625">
        <ele>113</ele>
        <time>2022-01-07T08:57:35.000Z</time>
      </trkpt>
      <trkpt lat="41.47351683117449283599853515625" lon="2.1612105332314968109130859375">
        <ele>113.1999969482421875</ele>
        <time>2022-01-07T08:57:36.000Z</time>
      </trkpt>
      <trkpt lat="41.47352722473442554473876953125" lon="2.16116351075470447540283203125">
        <ele>113.1999969482421875</ele>
        <time>2022-01-07T08:57:37.000Z</time>
      </trkpt>
      <trkpt lat="41.4735366962850093841552734375" lon="2.16111590154469013214111328125">
        <ele>113.40000152587890625</ele>
        <time>2022-01-07T08:57:38.000Z</time>
      </trkpt>
      <trkpt lat="41.47354491055011749267578125" lon="2.16105421073734760284423828125">
        <ele>113.40000152587890625</ele>
        <time>2022-01-07T08:57:39.000Z</time>
      </trkpt>
      <trkpt lat="41.4735531248152256011962890625" lon="2.16101179830729961395263671875">
        <ele>113.59999847412109375</ele>
        <time>2022-01-07T08:57:40.000Z</time>
      </trkpt>
      <trkpt lat="41.4735645242035388946533203125" lon="2.16095882467925548553466796875">
        <ele>113.8000030517578125</ele>
        <time>2022-01-07T08:57:41.000Z</time>
      </trkpt>
      <trkpt lat="41.4735755883157253265380859375" lon="2.16089260764420032501220703125">
        <ele>113.8000030517578125</ele>
        <time>2022-01-07T08:57:42.000Z</time>
      </trkpt>
      <trkpt lat="41.47357977926731109619140625" lon="2.1608350239694118499755859375">
        <ele>114</ele>
        <time>2022-01-07T08:57:43.000Z</time>
      </trkpt>
      <trkpt lat="41.47357801906764507293701171875" lon="2.1607884205877780914306640625">
        <ele>114</ele>
        <time>2022-01-07T08:57:44.000Z</time>
      </trkpt>
      <trkpt lat="41.47357148118317127227783203125" lon="2.16073167510330677032470703125">
        <ele>114</ele>
        <time>2022-01-07T08:57:45.000Z</time>
      </trkpt>
      <trkpt lat="41.47356309927999973297119140625" lon="2.16067467816174030303955078125">
        <ele>114</ele>
        <time>2022-01-07T08:57:46.000Z</time>
      </trkpt>
      <trkpt lat="41.4735497720539569854736328125" lon="2.16062019579112529754638671875">
        <ele>114</ele>
        <time>2022-01-07T08:57:47.000Z</time>
      </trkpt>
      <trkpt lat="41.4735413901507854461669921875" lon="2.160565294325351715087890625">
        <ele>114</ele>
        <time>2022-01-07T08:57:48.000Z</time>
      </trkpt>
      <trkpt lat="41.47352890111505985260009765625" lon="2.16051156632602214813232421875">
        <ele>114.1999969482421875</ele>
        <time>2022-01-07T08:57:49.000Z</time>
      </trkpt>
      <trkpt lat="41.47351733408868312835693359375" lon="2.16045993380248546600341796875">
        <ele>114.1999969482421875</ele>
        <time>2022-01-07T08:57:50.000Z</time>
      </trkpt>
      <trkpt lat="41.4735085330903530120849609375" lon="2.160407714545726776123046875">
        <ele>114.1999969482421875</ele>
        <time>2022-01-07T08:57:51.000Z</time>
      </trkpt>
      <trkpt lat="41.47350761108100414276123046875" lon="2.16035641729831695556640625">
        <ele>114.1999969482421875</ele>
        <time>2022-01-07T08:57:52.000Z</time>
      </trkpt>
      <trkpt lat="41.47351012565195560455322265625" lon="2.16030411422252655029296875">
        <ele>114.1999969482421875</ele>
        <time>2022-01-07T08:57:53.000Z</time>
      </trkpt>
      <trkpt lat="41.47351272404193878173828125" lon="2.160252816975116729736328125">
        <ele>114.1999969482421875</ele>
        <time>2022-01-07T08:57:54.000Z</time>
      </trkpt>
      <trkpt lat="41.4735175855457782745361328125" lon="2.16020260937511920928955078125">
        <ele>114.1999969482421875</ele>
        <time>2022-01-07T08:57:55.000Z</time>
      </trkpt>
      <trkpt lat="41.473525799810886383056640625" lon="2.16014930047094821929931640625">
        <ele>114.1999969482421875</ele>
        <time>2022-01-07T08:57:56.000Z</time>
      </trkpt>
      <trkpt lat="41.47353661246597766876220703125" lon="2.1600776351988315582275390625">
        <ele>114.1999969482421875</ele>
        <time>2022-01-07T08:57:57.000Z</time>
      </trkpt>
      <trkpt lat="41.47354482673108577728271484375" lon="2.16001016087830066680908203125">
        <ele>114.1999969482421875</ele>
        <time>2022-01-07T08:57:58.000Z</time>
      </trkpt>
      <trkpt lat="41.4735507778823375701904296875" lon="2.15993790887296199798583984375">
        <ele>114.1999969482421875</ele>
        <time>2022-01-07T08:57:59.000Z</time>
      </trkpt>
      <trkpt lat="41.473554633557796478271484375" lon="2.1598796546459197998046875">
        <ele>114.1999969482421875</ele>
        <time>2022-01-07T08:58:00.000Z</time>
      </trkpt>
      <trkpt lat="41.47356242872774600982666015625" lon="2.1598107554018497467041015625">
        <ele>114</ele>
        <time>2022-01-07T08:58:01.000Z</time>
      </trkpt>
      <trkpt lat="41.4735745824873447418212890625" lon="2.15974210761487483978271484375">
        <ele>114</ele>
        <time>2022-01-07T08:58:02.000Z</time>
      </trkpt>
      <trkpt lat="41.47359025664627552032470703125" lon="2.15965770184993743896484375">
        <ele>114</ele>
        <time>2022-01-07T08:58:03.000Z</time>
      </trkpt>
      <trkpt lat="41.4736040867865085601806640625" lon="2.15960363857448101043701171875">
        <ele>113.8000030517578125</ele>
        <time>2022-01-07T08:58:04.000Z</time>
      </trkpt>
      <trkpt lat="41.47362562827765941619873046875" lon="2.15953859500586986541748046875">
        <ele>113.8000030517578125</ele>
        <time>2022-01-07T08:58:05.000Z</time>
      </trkpt>
      <trkpt lat="41.47365161217749118804931640625" lon="2.15947329998016357421875">
        <ele>113.8000030517578125</ele>
        <time>2022-01-07T08:58:06.000Z</time>
      </trkpt>
      <trkpt lat="41.4736825414001941680908203125" lon="2.1594097651541233062744140625">
        <ele>113.40000152587890625</ele>
        <time>2022-01-07T08:58:07.000Z</time>
      </trkpt>
      <trkpt lat="41.47371330298483371734619140625" lon="2.15934748761355876922607421875">
        <ele>113</ele>
        <time>2022-01-07T08:58:08.000Z</time>
      </trkpt>
      <trkpt lat="41.47373777814209461212158203125" lon="2.15928629972040653228759765625">
        <ele>112.8000030517578125</ele>
        <time>2022-01-07T08:58:09.000Z</time>
      </trkpt>
      <trkpt lat="41.47375605069100856781005859375" lon="2.15922192670404911041259765625">
        <ele>112.59999847412109375</ele>
        <time>2022-01-07T08:58:10.000Z</time>
      </trkpt>
      <trkpt lat="41.4737656898796558380126953125" lon="2.1591485850512981414794921875">
        <ele>112.1999969482421875</ele>
        <time>2022-01-07T08:58:11.000Z</time>
      </trkpt>
      <trkpt lat="41.47376242093741893768310546875" lon="2.15907675214111804962158203125">
        <ele>111.59999847412109375</ele>
        <time>2022-01-07T08:58:12.000Z</time>
      </trkpt>
      <trkpt lat="41.4737413823604583740234375" lon="2.158999554812908172607421875">
        <ele>111.40000152587890625</ele>
        <time>2022-01-07T08:58:13.000Z</time>
      </trkpt>
      <trkpt lat="41.47371212951838970184326171875" lon="2.1589541248977184295654296875">
        <ele>111.1999969482421875</ele>
        <time>2022-01-07T08:58:14.000Z</time>
      </trkpt>
      <trkpt lat="41.4736728183925151824951171875" lon="2.158929146826267242431640625">
        <ele>111</ele>
        <time>2022-01-07T08:58:15.000Z</time>
      </trkpt>
      <trkpt lat="41.47362965159118175506591796875" lon="2.15892612934112548828125">
        <ele>110.40000152587890625</ele>
        <time>2022-01-07T08:58:16.000Z</time>
      </trkpt>
      <trkpt lat="41.4735812880098819732666015625" lon="2.15893794782459735870361328125">
        <ele>110</ele>
        <time>2022-01-07T08:58:17.000Z</time>
      </trkpt>
      <trkpt lat="41.47352688945829868316650390625" lon="2.15895404107868671417236328125">
        <ele>109.8000030517578125</ele>
        <time>2022-01-07T08:58:18.000Z</time>
      </trkpt>
      <trkpt lat="41.4734729938209056854248046875" lon="2.15897901915013790130615234375">
        <ele>109.8000030517578125</ele>
        <time>2022-01-07T08:58:19.000Z</time>
      </trkpt>
      <trkpt lat="41.473431251943111419677734375" lon="2.159005589783191680908203125">
        <ele>109.59999847412109375</ele>
        <time>2022-01-07T08:58:20.000Z</time>
      </trkpt>
      <trkpt lat="41.47338691167533397674560546875" lon="2.159040458500385284423828125">
        <ele>109.59999847412109375</ele>
        <time>2022-01-07T08:58:21.000Z</time>
      </trkpt>
      <trkpt lat="41.4733363687992095947265625" lon="2.15907440520823001861572265625">
        <ele>109.59999847412109375</ele>
        <time>2022-01-07T08:58:22.000Z</time>
      </trkpt>
      <trkpt lat="41.473270319402217864990234375" lon="2.15911187231540679931640625">
        <ele>109.40000152587890625</ele>
        <time>2022-01-07T08:58:23.000Z</time>
      </trkpt>
      <trkpt lat="41.47321038879454135894775390625" lon="2.15914648957550525665283203125">
        <ele>109.40000152587890625</ele>
        <time>2022-01-07T08:58:24.000Z</time>
      </trkpt>
      <trkpt lat="41.47316294722259044647216796875" lon="2.15917381457984447479248046875">
        <ele>109.40000152587890625</ele>
        <time>2022-01-07T08:58:25.000Z</time>
      </trkpt>
      <trkpt lat="41.4731038548052310943603515625" lon="2.15920516289770603179931640625">
        <ele>109.1999969482421875</ele>
        <time>2022-01-07T08:58:26.000Z</time>
      </trkpt>
      <trkpt lat="41.4730394817888736724853515625" lon="2.15923366136848926544189453125">
        <ele>109</ele>
        <time>2022-01-07T08:58:27.000Z</time>
      </trkpt>
      <trkpt lat="41.472969241440296173095703125" lon="2.15925059281289577484130859375">
        <ele>108.8000030517578125</ele>
        <time>2022-01-07T08:58:28.000Z</time>
      </trkpt>
      <trkpt lat="41.472895145416259765625" lon="2.15925260446965694427490234375">
        <ele>108.40000152587890625</ele>
        <time>2022-01-07T08:58:29.000Z</time>
      </trkpt>
      <trkpt lat="41.47282515652477741241455078125" lon="2.15923936106264591217041015625">
        <ele>108</ele>
        <time>2022-01-07T08:58:30.000Z</time>
      </trkpt>
      <trkpt lat="41.47276229225099086761474609375" lon="2.15920197777450084686279296875">
        <ele>107.59999847412109375</ele>
        <time>2022-01-07T08:58:31.000Z</time>
      </trkpt>
      <trkpt lat="41.4727062173187732696533203125" lon="2.15912603773176670074462890625">
        <ele>107.1999969482421875</ele>
        <time>2022-01-07T08:58:32.000Z</time>
      </trkpt>
      <trkpt lat="41.47268232889473438262939453125" lon="2.15904389508068561553955078125">
        <ele>106.40000152587890625</ele>
        <time>2022-01-07T08:58:33.000Z</time>
      </trkpt>
      <trkpt lat="41.47267176769673824310302734375" lon="2.1589608304202556610107421875">
        <ele>105.8000030517578125</ele>
        <time>2022-01-07T08:58:34.000Z</time>
      </trkpt>
      <trkpt lat="41.472661457955837249755859375" lon="2.1588991396129131317138671875">
        <ele>105.8000030517578125</ele>
        <time>2022-01-07T08:58:35.000Z</time>
      </trkpt>
      <trkpt lat="41.472645699977874755859375" lon="2.1588242053985595703125">
        <ele>105.1999969482421875</ele>
        <time>2022-01-07T08:58:36.000Z</time>
      </trkpt>
      <trkpt lat="41.4726173691451549530029296875" lon="2.15875857509672641754150390625">
        <ele>104.8000030517578125</ele>
        <time>2022-01-07T08:58:37.000Z</time>
      </trkpt>
      <trkpt lat="41.4725801534950733184814453125" lon="2.15871280990540981292724609375">
        <ele>104.1999969482421875</ele>
        <time>2022-01-07T08:58:38.000Z</time>
      </trkpt>
      <trkpt lat="41.47253380157053470611572265625" lon="2.158700488507747650146484375">
        <ele>103.8000030517578125</ele>
        <time>2022-01-07T08:58:39.000Z</time>
      </trkpt>
      <trkpt lat="41.47248770110309123992919921875" lon="2.15871331281960010528564453125">
        <ele>103.59999847412109375</ele>
        <time>2022-01-07T08:58:40.000Z</time>
      </trkpt>
      <trkpt lat="41.47244478575885295867919921875" lon="2.1587385423481464385986328125">
        <ele>103.59999847412109375</ele>
        <time>2022-01-07T08:58:41.000Z</time>
      </trkpt>
      <trkpt lat="41.47240421734750270843505859375" lon="2.158775590360164642333984375">
        <ele>103.59999847412109375</ele>
        <time>2022-01-07T08:58:42.000Z</time>
      </trkpt>
      <trkpt lat="41.47235426120460033416748046875" lon="2.15882747434079647064208984375">
        <ele>103.59999847412109375</ele>
        <time>2022-01-07T08:58:43.000Z</time>
      </trkpt>
      <trkpt lat="41.47231067530810832977294921875" lon="2.1588756702840328216552734375">
        <ele>103.59999847412109375</ele>
        <time>2022-01-07T08:58:44.000Z</time>
      </trkpt>
      <trkpt lat="41.4722795784473419189453125" lon="2.15891833417117595672607421875">
        <ele>103.59999847412109375</ele>
        <time>2022-01-07T08:58:45.000Z</time>
      </trkpt>
      <trkpt lat="41.4722408540546894073486328125" lon="2.15897600166499614715576171875">
        <ele>103.59999847412109375</ele>
        <time>2022-01-07T08:58:46.000Z</time>
      </trkpt>
      <trkpt lat="41.47220187820494174957275390625" lon="2.1590320765972137451171875">
        <ele>103.59999847412109375</ele>
        <time>2022-01-07T08:58:47.000Z</time>
      </trkpt>
      <trkpt lat="41.47216298617422580718994140625" lon="2.15908647514879703521728515625">
        <ele>103.59999847412109375</ele>
        <time>2022-01-07T08:58:48.000Z</time>
      </trkpt>
      <trkpt lat="41.47212359122931957244873046875" lon="2.1591393649578094482421875">
        <ele>103.59999847412109375</ele>
        <time>2022-01-07T08:58:49.000Z</time>
      </trkpt>
      <trkpt lat="41.47208511829376220703125" lon="2.15919476933777332305908203125">
        <ele>103.59999847412109375</ele>
        <time>2022-01-07T08:58:50.000Z</time>
      </trkpt>
      <trkpt lat="41.47204748354852199554443359375" lon="2.1592498384416103363037109375">
        <ele>103.8000030517578125</ele>
        <time>2022-01-07T08:58:51.000Z</time>
      </trkpt>
      <trkpt lat="41.47200356237590312957763671875" lon="2.15930163860321044921875">
        <ele>104</ele>
        <time>2022-01-07T08:58:52.000Z</time>
      </trkpt>
      <trkpt lat="41.47195612080395221710205078125" lon="2.1593391895294189453125">
        <ele>104</ele>
        <time>2022-01-07T08:58:53.000Z</time>
      </trkpt>
      <trkpt lat="41.4719032309949398040771484375" lon="2.15935067273676395416259765625">
        <ele>104.1999969482421875</ele>
        <time>2022-01-07T08:58:54.000Z</time>
      </trkpt>
      <trkpt lat="41.4718522690236568450927734375" lon="2.15933508239686489105224609375">
        <ele>104.1999969482421875</ele>
        <time>2022-01-07T08:58:55.000Z</time>
      </trkpt>
      <trkpt lat="41.471812538802623748779296875" lon="2.159293256700038909912109375">
        <ele>104.40000152587890625</ele>
        <time>2022-01-07T08:58:56.000Z</time>
      </trkpt>
      <trkpt lat="41.47178496234118938446044921875" lon="2.1592236869037151336669921875">
        <ele>104.59999847412109375</ele>
        <time>2022-01-07T08:58:57.000Z</time>
      </trkpt>
      <trkpt lat="41.4717734791338443756103515625" lon="2.15917230583727359771728515625">
        <ele>104.59999847412109375</ele>
        <time>2022-01-07T08:58:58.000Z</time>
      </trkpt>
      <trkpt lat="41.47176124155521392822265625" lon="2.1591076813638210296630859375">
        <ele>105</ele>
        <time>2022-01-07T08:58:59.000Z</time>
      </trkpt>
      <trkpt lat="41.47175277583301067352294921875" lon="2.1590416319668292999267578125">
        <ele>105</ele>
        <time>2022-01-07T08:59:00.000Z</time>
      </trkpt>
      <trkpt lat="41.471746824681758880615234375" lon="2.158976085484027862548828125">
        <ele>105.1999969482421875</ele>
        <time>2022-01-07T08:59:01.000Z</time>
      </trkpt>
      <trkpt lat="41.47173710167407989501953125" lon="2.1589118801057338714599609375">
        <ele>105.59999847412109375</ele>
        <time>2022-01-07T08:59:02.000Z</time>
      </trkpt>
      <trkpt lat="41.47171857766807079315185546875" lon="2.1588367782533168792724609375">
        <ele>105.8000030517578125</ele>
        <time>2022-01-07T08:59:03.000Z</time>
      </trkpt>
      <trkpt lat="41.471700556576251983642578125" lon="2.15879076160490512847900390625">
        <ele>106</ele>
        <time>2022-01-07T08:59:04.000Z</time>
      </trkpt>
      <trkpt lat="41.471671052277088165283203125" lon="2.1587402187287807464599609375">
        <ele>106.1999969482421875</ele>
        <time>2022-01-07T08:59:05.000Z</time>
      </trkpt>
      <trkpt lat="41.47163744084537029266357421875" lon="2.15869487263262271881103515625">
        <ele>106.1999969482421875</ele>
        <time>2022-01-07T08:59:06.000Z</time>
      </trkpt>
      <trkpt lat="41.4716004766523838043212890625" lon="2.15865983627736568450927734375">
        <ele>106.40000152587890625</ele>
        <time>2022-01-07T08:59:07.000Z</time>
      </trkpt>
      <trkpt lat="41.47156066261231899261474609375" lon="2.15863066725432872772216796875">
        <ele>106.59999847412109375</ele>
        <time>2022-01-07T08:59:08.000Z</time>
      </trkpt>
      <trkpt lat="41.471520178020000457763671875" lon="2.15860384516417980194091796875">
        <ele>106.8000030517578125</ele>
        <time>2022-01-07T08:59:09.000Z</time>
      </trkpt>
      <trkpt lat="41.4714757539331912994384765625" lon="2.1585762687027454376220703125">
        <ele>107</ele>
        <time>2022-01-07T08:59:10.000Z</time>
      </trkpt>
      <trkpt lat="41.47143761627376079559326171875" lon="2.15855271555483341217041015625">
        <ele>107.1999969482421875</ele>
        <time>2022-01-07T08:59:11.000Z</time>
      </trkpt>
      <trkpt lat="41.471401490271091461181640625" lon="2.158530838787555694580078125">
        <ele>107.1999969482421875</ele>
        <time>2022-01-07T08:59:12.000Z</time>
      </trkpt>
      <trkpt lat="41.4713595807552337646484375" lon="2.15850443579256534576416015625">
        <ele>107.40000152587890625</ele>
        <time>2022-01-07T08:59:13.000Z</time>
      </trkpt>
      <trkpt lat="41.4713319204747676849365234375" lon="2.1584830619394779205322265625">
        <ele>107.59999847412109375</ele>
        <time>2022-01-07T08:59:14.000Z</time>
      </trkpt>
      <trkpt lat="41.47129185497760772705078125" lon="2.15844743885099887847900390625">
        <ele>107.8000030517578125</ele>
        <time>2022-01-07T08:59:15.000Z</time>
      </trkpt>
      <trkpt lat="41.47126880474388599395751953125" lon="2.15841759927570819854736328125">
        <ele>108.1999969482421875</ele>
        <time>2022-01-07T08:59:16.000Z</time>
      </trkpt>
      <trkpt lat="41.47124432958662509918212890625" lon="2.158376276493072509765625">
        <ele>108.40000152587890625</ele>
        <time>2022-01-07T08:59:17.000Z</time>
      </trkpt>
      <trkpt lat="41.4712206088006496429443359375" lon="2.1583308465778827667236328125">
        <ele>108.59999847412109375</ele>
        <time>2022-01-07T08:59:18.000Z</time>
      </trkpt>
      <trkpt lat="41.471199654042720794677734375" lon="2.1582869254052639007568359375">
        <ele>109</ele>
        <time>2022-01-07T08:59:19.000Z</time>
      </trkpt>
      <trkpt lat="41.47117962129414081573486328125" lon="2.15824090875685214996337890625">
        <ele>109.40000152587890625</ele>
        <time>2022-01-07T08:59:20.000Z</time>
      </trkpt>
      <trkpt lat="41.471158079802989959716796875" lon="2.15819430537521839141845703125">
        <ele>109.59999847412109375</ele>
        <time>2022-01-07T08:59:21.000Z</time>
      </trkpt>
      <trkpt lat="41.47113620303571224212646484375" lon="2.15814761817455291748046875">
        <ele>110</ele>
        <time>2022-01-07T08:59:22.000Z</time>
      </trkpt>
      <trkpt lat="41.47111239843070507049560546875" lon="2.158101685345172882080078125">
        <ele>110.1999969482421875</ele>
        <time>2022-01-07T08:59:23.000Z</time>
      </trkpt>
      <trkpt lat="41.47108574397861957550048828125" lon="2.1580438502132892608642578125">
        <ele>110.59999847412109375</ele>
        <time>2022-01-07T08:59:24.000Z</time>
      </trkpt>
      <trkpt lat="41.47106344811618328094482421875" lon="2.15799615718424320220947265625">
        <ele>111</ele>
        <time>2022-01-07T08:59:25.000Z</time>
      </trkpt>
      <trkpt lat="41.4710466004908084869384765625" lon="2.15795659460127353668212890625">
        <ele>111.1999969482421875</ele>
        <time>2022-01-07T08:59:26.000Z</time>
      </trkpt>
      <trkpt lat="41.4710251428186893463134765625" lon="2.157909236848354339599609375">
        <ele>111.40000152587890625</ele>
        <time>2022-01-07T08:59:27.000Z</time>
      </trkpt>
      <trkpt lat="41.47100293077528476715087890625" lon="2.15786238200962543487548828125">
        <ele>111.8000030517578125</ele>
        <time>2022-01-07T08:59:28.000Z</time>
      </trkpt>
      <trkpt lat="41.470979712903499603271484375" lon="2.157814688980579376220703125">
        <ele>112.1999969482421875</ele>
        <time>2022-01-07T08:59:29.000Z</time>
      </trkpt>
      <trkpt lat="41.47095263935625553131103515625" lon="2.15777269564568996429443359375">
        <ele>112.40000152587890625</ele>
        <time>2022-01-07T08:59:30.000Z</time>
      </trkpt>
      <trkpt lat="41.47092481143772602081298828125" lon="2.15773397125303745269775390625">
        <ele>112.59999847412109375</ele>
        <time>2022-01-07T08:59:31.000Z</time>
      </trkpt>
      <trkpt lat="41.47089581005275249481201171875" lon="2.15769541449844837188720703125">
        <ele>112.8000030517578125</ele>
        <time>2022-01-07T08:59:32.000Z</time>
      </trkpt>
      <trkpt lat="41.47085440345108509063720703125" lon="2.15765166096389293670654296875">
        <ele>113.1999969482421875</ele>
        <time>2022-01-07T08:59:33.000Z</time>
      </trkpt>
      <trkpt lat="41.470816433429718017578125" lon="2.15761746279895305633544921875">
        <ele>113.40000152587890625</ele>
        <time>2022-01-07T08:59:34.000Z</time>
      </trkpt>
      <trkpt lat="41.470777206122875213623046875" lon="2.15758862905204296112060546875">
        <ele>113.59999847412109375</ele>
        <time>2022-01-07T08:59:35.000Z</time>
      </trkpt>
      <trkpt lat="41.47074736654758453369140625" lon="2.15756717137992382049560546875">
        <ele>113.8000030517578125</ele>
        <time>2022-01-07T08:59:36.000Z</time>
      </trkpt>
      <trkpt lat="41.47070487029850482940673828125" lon="2.157543115317821502685546875">
        <ele>113.8000030517578125</ele>
        <time>2022-01-07T08:59:37.000Z</time>
      </trkpt>
      <trkpt lat="41.47066480480134487152099609375" lon="2.15751771815121173858642578125">
        <ele>114</ele>
        <time>2022-01-07T08:59:38.000Z</time>
      </trkpt>
      <trkpt lat="41.47062373347580432891845703125" lon="2.15749190188944339752197265625">
        <ele>114.1999969482421875</ele>
        <time>2022-01-07T08:59:39.000Z</time>
      </trkpt>
      <trkpt lat="41.4705832488834857940673828125" lon="2.15746357105672359466552734375">
        <ele>114.40000152587890625</ele>
        <time>2022-01-07T08:59:40.000Z</time>
      </trkpt>
      <trkpt lat="41.4705477096140384674072265625" lon="2.15743540786206722259521484375">
        <ele>114.59999847412109375</ele>
        <time>2022-01-07T08:59:41.000Z</time>
      </trkpt>
      <trkpt lat="41.4705171994864940643310546875" lon="2.1574081666767597198486328125">
        <ele>114.59999847412109375</ele>
        <time>2022-01-07T08:59:42.000Z</time>
      </trkpt>
      <trkpt lat="41.4704920537769794464111328125" lon="2.1573783271014690399169921875">
        <ele>114.8000030517578125</ele>
        <time>2022-01-07T08:59:43.000Z</time>
      </trkpt>
      <trkpt lat="41.4704744517803192138671875" lon="2.15733884833753108978271484375">
        <ele>115</ele>
        <time>2022-01-07T08:59:44.000Z</time>
      </trkpt>
      <trkpt lat="41.47045408375561237335205078125" lon="2.1572800911962985992431640625">
        <ele>115</ele>
        <time>2022-01-07T08:59:45.000Z</time>
      </trkpt>
      <trkpt lat="41.470440588891506195068359375" lon="2.15723625384271144866943359375">
        <ele>115.1999969482421875</ele>
        <time>2022-01-07T08:59:46.000Z</time>
      </trkpt>
      <trkpt lat="41.47042206488549709320068359375" lon="2.15718068182468414306640625">
        <ele>115.59999847412109375</ele>
        <time>2022-01-07T08:59:47.000Z</time>
      </trkpt>
      <trkpt lat="41.470403708517551422119140625" lon="2.15712544508278369903564453125">
        <ele>115.8000030517578125</ele>
        <time>2022-01-07T08:59:48.000Z</time>
      </trkpt>
      <trkpt lat="41.470387615263462066650390625" lon="2.157069034874439239501953125">
        <ele>115.8000030517578125</ele>
        <time>2022-01-07T08:59:49.000Z</time>
      </trkpt>
      <trkpt lat="41.47037931717932224273681640625" lon="2.157006673514842987060546875">
        <ele>116</ele>
        <time>2022-01-07T08:59:50.000Z</time>
      </trkpt>
      <trkpt lat="41.47037009708583354949951171875" lon="2.15693735517561435699462890625">
        <ele>116</ele>
        <time>2022-01-07T08:59:51.000Z</time>
      </trkpt>
      <trkpt lat="41.4703656546771526336669921875" lon="2.1568650193512439727783203125">
        <ele>116</ele>
        <time>2022-01-07T08:59:52.000Z</time>
      </trkpt>
      <trkpt lat="41.4703644812107086181640625" lon="2.1567899174988269805908203125">
        <ele>116</ele>
        <time>2022-01-07T08:59:53.000Z</time>
      </trkpt>
      <trkpt lat="41.4703606255352497100830078125" lon="2.15670165605843067169189453125">
        <ele>116</ele>
        <time>2022-01-07T08:59:54.000Z</time>
      </trkpt>
      <trkpt lat="41.4703562669456005096435546875" lon="2.15662823058664798736572265625">
        <ele>116</ele>
        <time>2022-01-07T08:59:55.000Z</time>
      </trkpt>
      <trkpt lat="41.4703509025275707244873046875" lon="2.15655279345810413360595703125">
        <ele>116</ele>
        <time>2022-01-07T08:59:56.000Z</time>
      </trkpt>
      <trkpt lat="41.47034562192857265472412109375" lon="2.15649227611720561981201171875">
        <ele>116</ele>
        <time>2022-01-07T08:59:57.000Z</time>
      </trkpt>
      <trkpt lat="41.470337994396686553955078125" lon="2.156419269740581512451171875">
        <ele>115.8000030517578125</ele>
        <time>2022-01-07T08:59:58.000Z</time>
      </trkpt>
      <trkpt lat="41.47032416425645351409912109375" lon="2.15633922256529331207275390625">
        <ele>115.59999847412109375</ele>
        <time>2022-01-07T08:59:59.000Z</time>
      </trkpt>
      <trkpt lat="41.47031310014426708221435546875" lon="2.1562906913459300994873046875">
        <ele>115.1999969482421875</ele>
        <time>2022-01-07T09:00:00.000Z</time>
      </trkpt>
      <trkpt lat="41.470295749604701995849609375" lon="2.156221456825733184814453125">
        <ele>114.8000030517578125</ele>
        <time>2022-01-07T09:00:01.000Z</time>
      </trkpt>
      <trkpt lat="41.4702840149402618408203125" lon="2.156181223690509796142578125">
        <ele>114.59999847412109375</ele>
        <time>2022-01-07T09:00:02.000Z</time>
      </trkpt>
      <trkpt lat="41.4702640660107135772705078125" lon="2.156133614480495452880859375">
        <ele>114.1999969482421875</ele>
        <time>2022-01-07T09:00:03.000Z</time>
      </trkpt>
      <trkpt lat="41.470231376588344573974609375" lon="2.1560895256698131561279296875">
        <ele>114</ele>
        <time>2022-01-07T09:00:04.000Z</time>
      </trkpt>
      <trkpt lat="41.47018670104444026947021484375" lon="2.15604149736464023590087890625">
        <ele>114</ele>
        <time>2022-01-07T09:00:05.000Z</time>
      </trkpt>
      <trkpt lat="41.470155604183673858642578125" lon="2.1560114063322544097900390625">
        <ele>113.8000030517578125</ele>
        <time>2022-01-07T09:00:06.000Z</time>
      </trkpt>
      <trkpt lat="41.47011377848684787750244140625" lon="2.15597561560571193695068359375">
        <ele>113.8000030517578125</ele>
        <time>2022-01-07T09:00:07.000Z</time>
      </trkpt>
      <trkpt lat="41.47006952203810214996337890625" lon="2.1559466980397701263427734375">
        <ele>113.8000030517578125</ele>
        <time>2022-01-07T09:00:08.000Z</time>
      </trkpt>
      <trkpt lat="41.47002543322741985321044921875" lon="2.1559195406734943389892578125">
        <ele>113.8000030517578125</ele>
        <time>2022-01-07T09:00:09.000Z</time>
      </trkpt>
      <trkpt lat="41.4699844457209110260009765625" lon="2.1558900363743305206298828125">
        <ele>113.8000030517578125</ele>
        <time>2022-01-07T09:00:10.000Z</time>
      </trkpt>
      <trkpt lat="41.469941698014736175537109375" lon="2.15586195699870586395263671875">
        <ele>113.8000030517578125</ele>
        <time>2022-01-07T09:00:11.000Z</time>
      </trkpt>
      <trkpt lat="41.46989844739437103271484375" lon="2.15583681128919124603271484375">
        <ele>113.8000030517578125</ele>
        <time>2022-01-07T09:00:12.000Z</time>
      </trkpt>
      <trkpt lat="41.4698543585836887359619140625" lon="2.155815102159976959228515625">
        <ele>113.8000030517578125</ele>
        <time>2022-01-07T09:00:13.000Z</time>
      </trkpt>
      <trkpt lat="41.469813622534275054931640625" lon="2.1558008529245853424072265625">
        <ele>113.8000030517578125</ele>
        <time>2022-01-07T09:00:14.000Z</time>
      </trkpt>
      <trkpt lat="41.46977431140840053558349609375" lon="2.15579305775463581085205078125">
        <ele>113.8000030517578125</ele>
        <time>2022-01-07T09:00:15.000Z</time>
      </trkpt>
      <trkpt lat="41.46974028088152408599853515625" lon="2.1557857654988765716552734375">
        <ele>113.8000030517578125</ele>
        <time>2022-01-07T09:00:16.000Z</time>
      </trkpt>
      <trkpt lat="41.4697101898491382598876953125" lon="2.15577922761440277099609375">
        <ele>113.8000030517578125</ele>
        <time>2022-01-07T09:00:17.000Z</time>
      </trkpt>
      <trkpt lat="41.469684876501560211181640625" lon="2.1557731926441192626953125">
        <ele>113.8000030517578125</ele>
        <time>2022-01-07T09:00:18.000Z</time>
      </trkpt>
      <trkpt lat="41.4696642570197582244873046875" lon="2.1557633019983768463134765625">
        <ele>113.8000030517578125</ele>
        <time>2022-01-07T09:00:19.000Z</time>
      </trkpt>
      <trkpt lat="41.46964556537568569183349609375" lon="2.1557475440204143524169921875">
        <ele>113.8000030517578125</ele>
        <time>2022-01-07T09:00:20.000Z</time>
      </trkpt>
      <trkpt lat="41.469629220664501190185546875" lon="2.15572902001440525054931640625">
        <ele>113.8000030517578125</ele>
        <time>2022-01-07T09:00:21.000Z</time>
      </trkpt>
      <trkpt lat="41.46961924619972705841064453125" lon="2.15570907108485698699951171875">
        <ele>114</ele>
        <time>2022-01-07T09:00:22.000Z</time>
      </trkpt>
      <trkpt lat="41.46961136721074581146240234375" lon="2.15568811632692813873291015625">
        <ele>114</ele>
        <time>2022-01-07T09:00:23.000Z</time>
      </trkpt>
      <trkpt lat="41.46960684098303318023681640625" lon="2.1556660719215869903564453125">
        <ele>114.1999969482421875</ele>
        <time>2022-01-07T09:00:24.000Z</time>
      </trkpt>
      <trkpt lat="41.46960147656500339508056640625" lon="2.15564570389688014984130859375">
        <ele>114.40000152587890625</ele>
        <time>2022-01-07T09:00:25.000Z</time>
      </trkpt>
      <trkpt lat="41.46959678269922733306884765625" lon="2.15562759898602962493896484375">
        <ele>114.59999847412109375</ele>
        <time>2022-01-07T09:00:26.000Z</time>
      </trkpt>
      <trkpt lat="41.46959644742310047149658203125" lon="2.1556167863309383392333984375">
        <ele>114.8000030517578125</ele>
        <time>2022-01-07T09:00:27.000Z</time>
      </trkpt>
      <trkpt lat="41.4695925079286098480224609375" lon="2.1555993519723415374755859375">
        <ele>114.8000030517578125</ele>
        <time>2022-01-07T09:00:28.000Z</time>
      </trkpt>
      <trkpt lat="41.46958756260573863983154296875" lon="2.155580408871173858642578125">
        <ele>114.8000030517578125</ele>
        <time>2022-01-07T09:00:29.000Z</time>
      </trkpt>
      <trkpt lat="41.46958060562610626220703125" lon="2.1555611304938793182373046875">
        <ele>115</ele>
        <time>2022-01-07T09:00:30.000Z</time>
      </trkpt>
      <trkpt lat="41.4695630036294460296630859375" lon="2.1555343084037303924560546875">
        <ele>115</ele>
        <time>2022-01-07T09:00:31.000Z</time>
      </trkpt>
      <trkpt lat="41.46954732947051525115966796875" lon="2.1555088274180889129638671875">
        <ele>115</ele>
        <time>2022-01-07T09:00:32.000Z</time>
      </trkpt>
      <trkpt lat="41.46952696144580841064453125" lon="2.1554726175963878631591796875">
        <ele>115</ele>
        <time>2022-01-07T09:00:33.000Z</time>
      </trkpt>
      <trkpt lat="41.46950441412627696990966796875" lon="2.1554370783269405364990234375">
        <ele>115</ele>
        <time>2022-01-07T09:00:34.000Z</time>
      </trkpt>
      <trkpt lat="41.469484381377696990966796875" lon="2.15540246106684207916259765625">
        <ele>115</ele>
        <time>2022-01-07T09:00:35.000Z</time>
      </trkpt>
      <trkpt lat="41.4694651030004024505615234375" lon="2.15537094511091709136962890625">
        <ele>115</ele>
        <time>2022-01-07T09:00:36.000Z</time>
      </trkpt>
      <trkpt lat="41.4694418013095855712890625" lon="2.15533926151692867279052734375">
        <ele>115</ele>
        <time>2022-01-07T09:00:37.000Z</time>
      </trkpt>
      <trkpt lat="41.46941858343780040740966796875" lon="2.15530808083713054656982421875">
        <ele>115</ele>
        <time>2022-01-07T09:00:38.000Z</time>
      </trkpt>
      <trkpt lat="41.4693987183272838592529296875" lon="2.1552751399576663970947265625">
        <ele>114.8000030517578125</ele>
        <time>2022-01-07T09:00:39.000Z</time>
      </trkpt>
      <trkpt lat="41.4693755842745304107666015625" lon="2.15523867867887020111083984375">
        <ele>114.40000152587890625</ele>
        <time>2022-01-07T09:00:40.000Z</time>
      </trkpt>
      <trkpt lat="41.46935236640274524688720703125" lon="2.155206911265850067138671875">
        <ele>114.1999969482421875</ele>
        <time>2022-01-07T09:00:41.000Z</time>
      </trkpt>
      <trkpt lat="41.4693286456167697906494140625" lon="2.15517380274832248687744140625">
        <ele>113.8000030517578125</ele>
        <time>2022-01-07T09:00:42.000Z</time>
      </trkpt>
      <trkpt lat="41.4693076908588409423828125" lon="2.15514915995299816131591796875">
        <ele>113.59999847412109375</ele>
        <time>2022-01-07T09:00:43.000Z</time>
      </trkpt>
      <trkpt lat="41.4692810364067554473876953125" lon="2.155125103890895843505859375">
        <ele>113.59999847412109375</ele>
        <time>2022-01-07T09:00:44.000Z</time>
      </trkpt>
      <trkpt lat="41.46925161592662334442138671875" lon="2.1551075018942356109619140625">
        <ele>113.59999847412109375</ele>
        <time>2022-01-07T09:00:45.000Z</time>
      </trkpt>
      <trkpt lat="41.469215489923954010009765625" lon="2.15509300120174884796142578125">
        <ele>113.59999847412109375</ele>
        <time>2022-01-07T09:00:46.000Z</time>
      </trkpt>
      <trkpt lat="41.46918204613029956817626953125" lon="2.15509434230625629425048828125">
        <ele>113.59999847412109375</ele>
        <time>2022-01-07T09:00:47.000Z</time>
      </trkpt>
      <trkpt lat="41.46915170364081859588623046875" lon="2.15510624460875988006591796875">
        <ele>113.40000152587890625</ele>
        <time>2022-01-07T09:00:48.000Z</time>
      </trkpt>
      <trkpt lat="41.46911499090492725372314453125" lon="2.15512317605316638946533203125">
        <ele>113.40000152587890625</ele>
        <time>2022-01-07T09:00:49.000Z</time>
      </trkpt>
      <trkpt lat="41.46907727234065532684326171875" lon="2.1551440469920635223388671875">
        <ele>113.40000152587890625</ele>
        <time>2022-01-07T09:00:50.000Z</time>
      </trkpt>
      <trkpt lat="41.46903737448155879974365234375" lon="2.1551764011383056640625">
        <ele>113.40000152587890625</ele>
        <time>2022-01-07T09:00:51.000Z</time>
      </trkpt>
      <trkpt lat="41.4690081216394901275634765625" lon="2.15520934201776981353759765625">
        <ele>113.40000152587890625</ele>
        <time>2022-01-07T09:00:52.000Z</time>
      </trkpt>
      <trkpt lat="41.46898339502513408660888671875" lon="2.15524613857269287109375">
        <ele>113.40000152587890625</ele>
        <time>2022-01-07T09:00:53.000Z</time>
      </trkpt>
      <trkpt lat="41.46896529011428356170654296875" lon="2.15527363121509552001953125">
        <ele>113.40000152587890625</ele>
        <time>2022-01-07T09:00:54.000Z</time>
      </trkpt>
      <trkpt lat="41.468933857977390289306640625" lon="2.15531118214130401611328125">
        <ele>113.40000152587890625</ele>
        <time>2022-01-07T09:00:55.000Z</time>
      </trkpt>
      <trkpt lat="41.4689065329730510711669921875" lon="2.155332975089550018310546875">
        <ele>113.40000152587890625</ele>
        <time>2022-01-07T09:00:56.000Z</time>
      </trkpt>
      <trkpt lat="41.46888180635869503021240234375" lon="2.15534244664013385772705078125">
        <ele>113.59999847412109375</ele>
        <time>2022-01-07T09:00:57.000Z</time>
      </trkpt>
      <trkpt lat="41.4688528887927532196044921875" lon="2.15533792041242122650146484375">
        <ele>113.59999847412109375</ele>
        <time>2022-01-07T09:00:58.000Z</time>
      </trkpt>
      <trkpt lat="41.4688247255980968475341796875" lon="2.1553220786154270172119140625">
        <ele>113.59999847412109375</ele>
        <time>2022-01-07T09:00:59.000Z</time>
      </trkpt>
      <trkpt lat="41.46878206171095371246337890625" lon="2.15528612025082111358642578125">
        <ele>113.59999847412109375</ele>
        <time>2022-01-07T09:01:00.000Z</time>
      </trkpt>
      <trkpt lat="41.46875037811696529388427734375" lon="2.1552501618862152099609375">
        <ele>113.59999847412109375</ele>
        <time>2022-01-07T09:01:01.000Z</time>
      </trkpt>
      <trkpt lat="41.4687202870845794677734375" lon="2.1552141197025775909423828125">
        <ele>113.59999847412109375</ele>
        <time>2022-01-07T09:01:02.000Z</time>
      </trkpt>
      <trkpt lat="41.46868919022381305694580078125" lon="2.1551772393286228179931640625">
        <ele>113.59999847412109375</ele>
        <time>2022-01-07T09:01:03.000Z</time>
      </trkpt>
      <trkpt lat="41.4686651341617107391357421875" lon="2.15514622628688812255859375">
        <ele>113.59999847412109375</ele>
        <time>2022-01-07T09:01:04.000Z</time>
      </trkpt>
      <trkpt lat="41.46862573921680450439453125" lon="2.155101634562015533447265625">
        <ele>113.59999847412109375</ele>
        <time>2022-01-07T09:01:05.000Z</time>
      </trkpt>
      <trkpt lat="41.46859095431864261627197265625" lon="2.15506467036902904510498046875">
        <ele>113.59999847412109375</ele>
        <time>2022-01-07T09:01:06.000Z</time>
      </trkpt>
      <trkpt lat="41.46855206228792667388916015625" lon="2.15503097511827945709228515625">
        <ele>113.40000152587890625</ele>
        <time>2022-01-07T09:01:07.000Z</time>
      </trkpt>
      <trkpt lat="41.468512080609798431396484375" lon="2.1550085954368114471435546875">
        <ele>113.40000152587890625</ele>
        <time>2022-01-07T09:01:08.000Z</time>
      </trkpt>
      <trkpt lat="41.46847310476005077362060546875" lon="2.15498956851661205291748046875">
        <ele>113.40000152587890625</ele>
        <time>2022-01-07T09:01:09.000Z</time>
      </trkpt>
      <trkpt lat="41.468437649309635162353515625" lon="2.1549646742641925811767578125">
        <ele>113.1999969482421875</ele>
        <time>2022-01-07T09:01:10.000Z</time>
      </trkpt>
      <trkpt lat="41.4684146828949451446533203125" lon="2.1549318172037601470947265625">
        <ele>113</ele>
        <time>2022-01-07T09:01:11.000Z</time>
      </trkpt>
      <trkpt lat="41.46839599125087261199951171875" lon="2.1548899076879024505615234375">
        <ele>112.8000030517578125</ele>
        <time>2022-01-07T09:01:12.000Z</time>
      </trkpt>
      <trkpt lat="41.46837302483618259429931640625" lon="2.15484657324850559234619140625">
        <ele>112.59999847412109375</ele>
        <time>2022-01-07T09:01:13.000Z</time>
      </trkpt>
      <trkpt lat="41.46835424937307834625244140625" lon="2.15479980222880840301513671875">
        <ele>112.40000152587890625</ele>
        <time>2022-01-07T09:01:14.000Z</time>
      </trkpt>
      <trkpt lat="41.46833631210029125213623046875" lon="2.154753617942333221435546875">
        <ele>112.1999969482421875</ele>
        <time>2022-01-07T09:01:15.000Z</time>
      </trkpt>
      <trkpt lat="41.46831594407558441162109375" lon="2.15471916832029819488525390625">
        <ele>112</ele>
        <time>2022-01-07T09:01:16.000Z</time>
      </trkpt>
      <trkpt lat="41.46829926408827304840087890625" lon="2.15468631125986576080322265625">
        <ele>112</ele>
        <time>2022-01-07T09:01:17.000Z</time>
      </trkpt>
      <trkpt lat="41.46828635595738887786865234375" lon="2.15464004315435886383056640625">
        <ele>112</ele>
        <time>2022-01-07T09:01:18.000Z</time>
      </trkpt>
      <trkpt lat="41.4682792313396930694580078125" lon="2.154588662087917327880859375">
        <ele>112</ele>
        <time>2022-01-07T09:01:19.000Z</time>
      </trkpt>
      <trkpt lat="41.468268334865570068359375" lon="2.15454532764852046966552734375">
        <ele>111.8000030517578125</ele>
        <time>2022-01-07T09:01:20.000Z</time>
      </trkpt>
      <trkpt lat="41.46827009506523609161376953125" lon="2.15448439121246337890625">
        <ele>111.8000030517578125</ele>
        <time>2022-01-07T09:01:21.000Z</time>
      </trkpt>
      <trkpt lat="41.46827713586390018463134765625" lon="2.15443200431764125823974609375">
        <ele>111.8000030517578125</ele>
        <time>2022-01-07T09:01:22.000Z</time>
      </trkpt>
      <trkpt lat="41.4682849310338497161865234375" lon="2.1543836407363414764404296875">
        <ele>111.59999847412109375</ele>
        <time>2022-01-07T09:01:23.000Z</time>
      </trkpt>
      <trkpt lat="41.46828669123351573944091796875" lon="2.1543380431830883026123046875">
        <ele>111.59999847412109375</ele>
        <time>2022-01-07T09:01:24.000Z</time>
      </trkpt>
      <trkpt lat="41.468290127813816070556640625" lon="2.15429487638175487518310546875">
        <ele>111.59999847412109375</ele>
        <time>2022-01-07T09:01:25.000Z</time>
      </trkpt>
      <trkpt lat="41.46830965764820575714111328125" lon="2.15424994938075542449951171875">
        <ele>111.59999847412109375</ele>
        <time>2022-01-07T09:01:26.000Z</time>
      </trkpt>
      <trkpt lat="41.46832793019711971282958984375" lon="2.154206447303295135498046875">
        <ele>111.59999847412109375</ele>
        <time>2022-01-07T09:01:27.000Z</time>
      </trkpt>
      <trkpt lat="41.4683436043560504913330078125" lon="2.1541626937687397003173828125">
        <ele>111.59999847412109375</ele>
        <time>2022-01-07T09:01:28.000Z</time>
      </trkpt>
      <trkpt lat="41.46834989078342914581298828125" lon="2.15412572957575321197509765625">
        <ele>111.59999847412109375</ele>
        <time>2022-01-07T09:01:29.000Z</time>
      </trkpt>
      <trkpt lat="41.4683526568114757537841796875" lon="2.1540922857820987701416015625">
        <ele>111.59999847412109375</ele>
        <time>2022-01-07T09:01:30.000Z</time>
      </trkpt>
      <trkpt lat="41.4683482982218265533447265625" lon="2.15405330993235111236572265625">
        <ele>111.40000152587890625</ele>
        <time>2022-01-07T09:01:31.000Z</time>
      </trkpt>
      <trkpt lat="41.4683546684682369232177734375" lon="2.1540178544819355010986328125">
        <ele>111.59999847412109375</ele>
        <time>2022-01-07T09:01:32.000Z</time>
      </trkpt>
      <trkpt lat="41.468363218009471893310546875" lon="2.15397820807993412017822265625">
        <ele>111.59999847412109375</ele>
        <time>2022-01-07T09:01:33.000Z</time>
      </trkpt>
      <trkpt lat="41.4683764614164829254150390625" lon="2.15394032187759876251220703125">
        <ele>111.59999847412109375</ele>
        <time>2022-01-07T09:01:34.000Z</time>
      </trkpt>
      <trkpt lat="41.468386687338352203369140625" lon="2.15390034019947052001953125">
        <ele>111.59999847412109375</ele>
        <time>2022-01-07T09:01:35.000Z</time>
      </trkpt>
      <trkpt lat="41.46839230321347713470458984375" lon="2.1538572572171688079833984375">
        <ele>111.59999847412109375</ele>
        <time>2022-01-07T09:01:36.000Z</time>
      </trkpt>
      <trkpt lat="41.4683992601931095123291015625" lon="2.15380646288394927978515625">
        <ele>111.8000030517578125</ele>
        <time>2022-01-07T09:01:37.000Z</time>
      </trkpt>
      <trkpt lat="41.46840839646756649017333984375" lon="2.15375726111233234405517578125">
        <ele>112</ele>
        <time>2022-01-07T09:01:38.000Z</time>
      </trkpt>
      <trkpt lat="41.46841795183718204498291015625" lon="2.1537181176245212554931640625">
        <ele>112</ele>
        <time>2022-01-07T09:01:39.000Z</time>
      </trkpt>
      <trkpt lat="41.468435637652873992919921875" lon="2.15366120450198650360107421875">
        <ele>112</ele>
        <time>2022-01-07T09:01:40.000Z</time>
      </trkpt>
      <trkpt lat="41.46845147944986820220947265625" lon="2.15361678041517734527587890625">
        <ele>112</ele>
        <time>2022-01-07T09:01:41.000Z</time>
      </trkpt>
      <trkpt lat="41.4684622921049594879150390625" lon="2.153575457632541656494140625">
        <ele>112</ele>
        <time>2022-01-07T09:01:42.000Z</time>
      </trkpt>
      <trkpt lat="41.468471176922321319580078125" lon="2.1535374037921428680419921875">
        <ele>112.1999969482421875</ele>
        <time>2022-01-07T09:01:43.000Z</time>
      </trkpt>
      <trkpt lat="41.468476541340351104736328125" lon="2.1535120904445648193359375">
        <ele>112.1999969482421875</ele>
        <time>2022-01-07T09:01:44.000Z</time>
      </trkpt>
      <trkpt lat="41.4684790559113025665283203125" lon="2.1534944884479045867919921875">
        <ele>112.1999969482421875</ele>
        <time>2022-01-07T09:01:45.000Z</time>
      </trkpt>
      <trkpt lat="41.4684844203293323516845703125" lon="2.15347847901284694671630859375">
        <ele>112.40000152587890625</ele>
        <time>2022-01-07T09:01:46.000Z</time>
      </trkpt>
      <trkpt lat="41.4684922993183135986328125" lon="2.1534597873687744140625">
        <ele>112.40000152587890625</ele>
        <time>2022-01-07T09:01:47.000Z</time>
      </trkpt>
      <trkpt lat="41.46850411780178546905517578125" lon="2.15344168245792388916015625">
        <ele>112.40000152587890625</ele>
        <time>2022-01-07T09:01:48.000Z</time>
      </trkpt>
      <trkpt lat="41.46851451136171817779541015625" lon="2.15342500247061252593994140625">
        <ele>112.40000152587890625</ele>
        <time>2022-01-07T09:01:49.000Z</time>
      </trkpt>
      <trkpt lat="41.4685253240168094635009765625" lon="2.15338778682053089141845703125">
        <ele>112.59999847412109375</ele>
        <time>2022-01-07T09:01:50.000Z</time>
      </trkpt>
      <trkpt lat="41.46851937286555767059326171875" lon="2.15334646403789520263671875">
        <ele>112.59999847412109375</ele>
        <time>2022-01-07T09:01:51.000Z</time>
      </trkpt>
      <trkpt lat="41.4685142599046230316162109375" lon="2.1533131040632724761962890625">
        <ele>112.59999847412109375</ele>
        <time>2022-01-07T09:01:52.000Z</time>
      </trkpt>
      <trkpt lat="41.46851082332432270050048828125" lon="2.15327580459415912628173828125">
        <ele>112.59999847412109375</ele>
        <time>2022-01-07T09:01:53.000Z</time>
      </trkpt>
      <trkpt lat="41.46850780583918094635009765625" lon="2.15324009768664836883544921875">
        <ele>112.59999847412109375</ele>
        <time>2022-01-07T09:01:54.000Z</time>
      </trkpt>
      <trkpt lat="41.46850143559277057647705078125" lon="2.1532001160085201263427734375">
        <ele>112.59999847412109375</ele>
        <time>2022-01-07T09:01:55.000Z</time>
      </trkpt>
      <trkpt lat="41.4684964902698993682861328125" lon="2.15315963141620159149169921875">
        <ele>112.59999847412109375</ele>
        <time>2022-01-07T09:01:56.000Z</time>
      </trkpt>
      <trkpt lat="41.46848165430128574371337890625" lon="2.15310984291136264801025390625">
        <ele>112.59999847412109375</ele>
        <time>2022-01-07T09:01:57.000Z</time>
      </trkpt>
      <trkpt lat="41.468449719250202178955078125" lon="2.1530522592365741729736328125">
        <ele>112.59999847412109375</ele>
        <time>2022-01-07T09:01:58.000Z</time>
      </trkpt>
      <trkpt lat="41.4684096537530422210693359375" lon="2.1529999561607837677001953125">
        <ele>112.59999847412109375</ele>
        <time>2022-01-07T09:01:59.000Z</time>
      </trkpt>
      <trkpt lat="41.4683742821216583251953125" lon="2.152968943119049072265625">
        <ele>112.40000152587890625</ele>
        <time>2022-01-07T09:02:00.000Z</time>
      </trkpt>
      <trkpt lat="41.4683204703032970428466796875" lon="2.1529318951070308685302734375">
        <ele>112.40000152587890625</ele>
        <time>2022-01-07T09:02:01.000Z</time>
      </trkpt>
      <trkpt lat="41.46827436983585357666015625" lon="2.15290582738816738128662109375">
        <ele>112.40000152587890625</ele>
        <time>2022-01-07T09:02:02.000Z</time>
      </trkpt>
      <trkpt lat="41.4682309515774250030517578125" lon="2.15288034640252590179443359375">
        <ele>112.1999969482421875</ele>
        <time>2022-01-07T09:02:03.000Z</time>
      </trkpt>
      <trkpt lat="41.46820597350597381591796875" lon="2.15284832753241062164306640625">
        <ele>111.8000030517578125</ele>
        <time>2022-01-07T09:02:04.000Z</time>
      </trkpt>
      <trkpt lat="41.468170769512653350830078125" lon="2.15279367752373218536376953125">
        <ele>110.8000030517578125</ele>
        <time>2022-01-07T09:02:05.000Z</time>
      </trkpt>
      <trkpt lat="41.46814654581248760223388671875" lon="2.15274028480052947998046875">
        <ele>110</ele>
        <time>2022-01-07T09:02:06.000Z</time>
      </trkpt>
      <trkpt lat="41.4681229926645755767822265625" lon="2.15268840081989765167236328125">
        <ele>109.1999969482421875</ele>
        <time>2022-01-07T09:02:07.000Z</time>
      </trkpt>
      <trkpt lat="41.468096673488616943359375" lon="2.15263693593442440032958984375">
        <ele>108.40000152587890625</ele>
        <time>2022-01-07T09:02:08.000Z</time>
      </trkpt>
      <trkpt lat="41.46807429380714893341064453125" lon="2.15260005556046962738037109375">
        <ele>107.59999847412109375</ele>
        <time>2022-01-07T09:02:09.000Z</time>
      </trkpt>
      <trkpt lat="41.46804638206958770751953125" lon="2.15255563147366046905517578125">
        <ele>107</ele>
        <time>2022-01-07T09:02:10.000Z</time>
      </trkpt>
      <trkpt lat="41.46801696158945560455322265625" lon="2.15251238085329532623291015625">
        <ele>107</ele>
        <time>2022-01-07T09:02:11.000Z</time>
      </trkpt>
      <trkpt lat="41.46798997186124324798583984375" lon="2.15248438529670238494873046875">
        <ele>106.40000152587890625</ele>
        <time>2022-01-07T09:02:12.000Z</time>
      </trkpt>
      <trkpt lat="41.467956863343715667724609375" lon="2.15245119296014308929443359375">
        <ele>106.1999969482421875</ele>
        <time>2022-01-07T09:02:13.000Z</time>
      </trkpt>
      <trkpt lat="41.467916965484619140625" lon="2.15241682715713977813720703125">
        <ele>105.8000030517578125</ele>
        <time>2022-01-07T09:02:14.000Z</time>
      </trkpt>
      <trkpt lat="41.46788151003420352935791015625" lon="2.15237952768802642822265625">
        <ele>105.40000152587890625</ele>
        <time>2022-01-07T09:02:15.000Z</time>
      </trkpt>
      <trkpt lat="41.4678524248301982879638671875" lon="2.1523439884185791015625">
        <ele>105.1999969482421875</ele>
        <time>2022-01-07T09:02:16.000Z</time>
      </trkpt>
      <trkpt lat="41.46782216615974903106689453125" lon="2.15229545719921588897705078125">
        <ele>104.40000152587890625</ele>
        <time>2022-01-07T09:02:17.000Z</time>
      </trkpt>
      <trkpt lat="41.46779559552669525146484375" lon="2.15226712636649608612060546875">
        <ele>104</ele>
        <time>2022-01-07T09:02:18.000Z</time>
      </trkpt>
      <trkpt lat="41.4677722938358783721923828125" lon="2.15223711915314197540283203125">
        <ele>103.40000152587890625</ele>
        <time>2022-01-07T09:02:19.000Z</time>
      </trkpt>
      <trkpt lat="41.467746309936046600341796875" lon="2.1522093750536441802978515625">
        <ele>103</ele>
        <time>2022-01-07T09:02:20.000Z</time>
      </trkpt>
      <trkpt lat="41.4677049033343791961669921875" lon="2.152181379497051239013671875">
        <ele>102.40000152587890625</ele>
        <time>2022-01-07T09:02:21.000Z</time>
      </trkpt>
      <trkpt lat="41.467661820352077484130859375" lon="2.15215816162526607513427734375">
        <ele>101.8000030517578125</ele>
        <time>2022-01-07T09:02:22.000Z</time>
      </trkpt>
      <trkpt lat="41.46761454641819000244140625" lon="2.15212798677384853363037109375">
        <ele>101.40000152587890625</ele>
        <time>2022-01-07T09:02:23.000Z</time>
      </trkpt>
      <trkpt lat="41.46757431328296661376953125" lon="2.15210326015949249267578125">
        <ele>101.40000152587890625</ele>
        <time>2022-01-07T09:02:24.000Z</time>
      </trkpt>
      <trkpt lat="41.46753810346126556396484375" lon="2.1520843170583248138427734375">
        <ele>100.8000030517578125</ele>
        <time>2022-01-07T09:02:25.000Z</time>
      </trkpt>
      <trkpt lat="41.46750264801084995269775390625" lon="2.152074761688709259033203125">
        <ele>100.40000152587890625</ele>
        <time>2022-01-07T09:02:26.000Z</time>
      </trkpt>
      <trkpt lat="41.46747532300651073455810546875" lon="2.1520668826997280120849609375">
        <ele>100</ele>
        <time>2022-01-07T09:02:27.000Z</time>
      </trkpt>
      <trkpt lat="41.46745922975242137908935546875" lon="2.15206411667168140411376953125">
        <ele>99.8000030517578125</ele>
        <time>2022-01-07T09:02:28.000Z</time>
      </trkpt>
      <trkpt lat="41.4674328267574310302734375" lon="2.152072079479694366455078125">
        <ele>99.40000152587890625</ele>
        <time>2022-01-07T09:02:29.000Z</time>
      </trkpt>
      <trkpt lat="41.46738764829933643341064453125" lon="2.15208138339221477508544921875">
        <ele>99</ele>
        <time>2022-01-07T09:02:30.000Z</time>
      </trkpt>
      <trkpt lat="41.4673464931547641754150390625" lon="2.15208104811608791351318359375">
        <ele>98.59999847412109375</ele>
        <time>2022-01-07T09:02:31.000Z</time>
      </trkpt>
      <trkpt lat="41.46730869077146053314208984375" lon="2.15205841697752475738525390625">
        <ele>97.8000030517578125</ele>
        <time>2022-01-07T09:02:32.000Z</time>
      </trkpt>
      <trkpt lat="41.46727348677814006805419921875" lon="2.15201483108103275299072265625">
        <ele>97.40000152587890625</ele>
        <time>2022-01-07T09:02:33.000Z</time>
      </trkpt>
      <trkpt lat="41.46724498830735683441162109375" lon="2.1519532240927219390869140625">
        <ele>96.8000030517578125</ele>
        <time>2022-01-07T09:02:34.000Z</time>
      </trkpt>
      <trkpt lat="41.46723358891904354095458984375" lon="2.1519056148827075958251953125">
        <ele>96.40000152587890625</ele>
        <time>2022-01-07T09:02:35.000Z</time>
      </trkpt>
      <trkpt lat="41.467229984700679779052734375" lon="2.15186060406267642974853515625">
        <ele>96.1999969482421875</ele>
        <time>2022-01-07T09:02:36.000Z</time>
      </trkpt>
      <trkpt lat="41.46722353063523769378662109375" lon="2.15181986801326274871826171875">
        <ele>95.59999847412109375</ele>
        <time>2022-01-07T09:02:37.000Z</time>
      </trkpt>
      <trkpt lat="41.46721079014241695404052734375" lon="2.151783742010593414306640625">
        <ele>95.1999969482421875</ele>
        <time>2022-01-07T09:02:38.000Z</time>
      </trkpt>
      <trkpt lat="41.4671942777931690216064453125" lon="2.1517500467598438262939453125">
        <ele>95</ele>
        <time>2022-01-07T09:02:39.000Z</time>
      </trkpt>
      <trkpt lat="41.46717868745326995849609375" lon="2.15172238647937774658203125">
        <ele>95</ele>
        <time>2022-01-07T09:02:40.000Z</time>
      </trkpt>
      <trkpt lat="41.4671533741056919097900390625" lon="2.1516883559525012969970703125">
        <ele>95</ele>
        <time>2022-01-07T09:02:41.000Z</time>
      </trkpt>
      <trkpt lat="41.46713233552873134613037109375" lon="2.15168424881994724273681640625">
        <ele>95</ele>
        <time>2022-01-07T09:02:42.000Z</time>
      </trkpt>
      <trkpt lat="41.4671057648956775665283203125" lon="2.1516855061054229736328125">
        <ele>95</ele>
        <time>2022-01-07T09:02:43.000Z</time>
      </trkpt>
      <trkpt lat="41.46707919426262378692626953125" lon="2.1516873501241207122802734375">
        <ele>95</ele>
        <time>2022-01-07T09:02:44.000Z</time>
      </trkpt>
      <trkpt lat="41.46705019287765026092529296875" lon="2.1516870148479938507080078125">
        <ele>95</ele>
        <time>2022-01-07T09:02:45.000Z</time>
      </trkpt>
      <trkpt lat="41.4670169167220592498779296875" lon="2.1516895294189453125">
        <ele>95</ele>
        <time>2022-01-07T09:02:46.000Z</time>
      </trkpt>
      <trkpt lat="41.46699135191738605499267578125" lon="2.15169112198054790496826171875">
        <ele>95</ele>
        <time>2022-01-07T09:02:47.000Z</time>
      </trkpt>
      <trkpt lat="41.4669569022953510284423828125" lon="2.15168659575283527374267578125">
        <ele>95</ele>
        <time>2022-01-07T09:02:48.000Z</time>
      </trkpt>
      <trkpt lat="41.46691960282623767852783203125" lon="2.15168508701026439666748046875">
        <ele>95.40000152587890625</ele>
        <time>2022-01-07T09:02:49.000Z</time>
      </trkpt>
      <trkpt lat="41.4668891765177249908447265625" lon="2.15169422328472137451171875">
        <ele>95.8000030517578125</ele>
        <time>2022-01-07T09:02:50.000Z</time>
      </trkpt>
      <trkpt lat="41.466855816543102264404296875" lon="2.1517078019678592681884765625">
        <ele>96</ele>
        <time>2022-01-07T09:02:51.000Z</time>
      </trkpt>
      <trkpt lat="41.4668254740536212921142578125" lon="2.15172372758388519287109375">
        <ele>96.1999969482421875</ele>
        <time>2022-01-07T09:02:52.000Z</time>
      </trkpt>
      <trkpt lat="41.46679605357348918914794921875" lon="2.15174711309373378753662109375">
        <ele>96.40000152587890625</ele>
        <time>2022-01-07T09:02:53.000Z</time>
      </trkpt>
      <trkpt lat="41.46676436997950077056884765625" lon="2.15176706202328205108642578125">
        <ele>96.59999847412109375</ele>
        <time>2022-01-07T09:02:54.000Z</time>
      </trkpt>
      <trkpt lat="41.4667279087007045745849609375" lon="2.15179187245666980743408203125">
        <ele>96.8000030517578125</ele>
        <time>2022-01-07T09:02:55.000Z</time>
      </trkpt>
      <trkpt lat="41.46668809466063976287841796875" lon="2.151824645698070526123046875">
        <ele>97</ele>
        <time>2022-01-07T09:02:56.000Z</time>
      </trkpt>
      <trkpt lat="41.46664367057383060455322265625" lon="2.1518513001501560211181640625">
        <ele>97.1999969482421875</ele>
        <time>2022-01-07T09:02:57.000Z</time>
      </trkpt>
      <trkpt lat="41.46659530699253082275390625" lon="2.15187284164130687713623046875">
        <ele>97.40000152587890625</ele>
        <time>2022-01-07T09:02:58.000Z</time>
      </trkpt>
      <trkpt lat="41.466551721096038818359375" lon="2.15189538896083831787109375">
        <ele>97.59999847412109375</ele>
        <time>2022-01-07T09:02:59.000Z</time>
      </trkpt>
      <trkpt lat="41.466514505445957183837890625" lon="2.151917181909084320068359375">
        <ele>97.8000030517578125</ele>
        <time>2022-01-07T09:03:00.000Z</time>
      </trkpt>
      <trkpt lat="41.46648122929036617279052734375" lon="2.151923216879367828369140625">
        <ele>98</ele>
        <time>2022-01-07T09:03:01.000Z</time>
      </trkpt>
      <trkpt lat="41.466457843780517578125" lon="2.151925228536128997802734375">
        <ele>98.1999969482421875</ele>
        <time>2022-01-07T09:03:02.000Z</time>
      </trkpt>
      <trkpt lat="41.466421298682689666748046875" lon="2.15192086994647979736328125">
        <ele>98.40000152587890625</ele>
        <time>2022-01-07T09:03:03.000Z</time>
      </trkpt>
      <trkpt lat="41.4663879387080669403076171875" lon="2.15189614333212375640869140625">
        <ele>98.40000152587890625</ele>
        <time>2022-01-07T09:03:04.000Z</time>
      </trkpt>
      <trkpt lat="41.466371677815914154052734375" lon="2.1518596820533275604248046875">
        <ele>98.59999847412109375</ele>
        <time>2022-01-07T09:03:05.000Z</time>
      </trkpt>
      <trkpt lat="41.46636329591274261474609375" lon="2.15181224048137664794921875">
        <ele>99</ele>
        <time>2022-01-07T09:03:06.000Z</time>
      </trkpt>
      <trkpt lat="41.4663570933043956756591796875" lon="2.1517601050436496734619140625">
        <ele>99.1999969482421875</ele>
        <time>2022-01-07T09:03:07.000Z</time>
      </trkpt>
      <trkpt lat="41.46635449491441249847412109375" lon="2.15171190910041332244873046875">
        <ele>99.40000152587890625</ele>
        <time>2022-01-07T09:03:08.000Z</time>
      </trkpt>
      <trkpt lat="41.4663410000503063201904296875" lon="2.151639573276042938232421875">
        <ele>99.59999847412109375</ele>
        <time>2022-01-07T09:03:09.000Z</time>
      </trkpt>
      <trkpt lat="41.466326080262660980224609375" lon="2.15158651582896709442138671875">
        <ele>99.59999847412109375</ele>
        <time>2022-01-07T09:03:10.000Z</time>
      </trkpt>
      <trkpt lat="41.466310322284698486328125" lon="2.15153739787638187408447265625">
        <ele>99.8000030517578125</ele>
        <time>2022-01-07T09:03:11.000Z</time>
      </trkpt>
      <trkpt lat="41.46629816852509975433349609375" lon="2.1514995954930782318115234375">
        <ele>99.8000030517578125</ele>
        <time>2022-01-07T09:03:12.000Z</time>
      </trkpt>
      <trkpt lat="41.4662794768810272216796875" lon="2.15145374648272991180419921875">
        <ele>99.8000030517578125</ele>
        <time>2022-01-07T09:03:13.000Z</time>
      </trkpt>
      <trkpt lat="41.46625198423862457275390625" lon="2.15140228159725666046142578125">
        <ele>99.8000030517578125</ele>
        <time>2022-01-07T09:03:14.000Z</time>
      </trkpt>
      <trkpt lat="41.46622180938720703125" lon="2.15136322192847728729248046875">
        <ele>99.8000030517578125</ele>
        <time>2022-01-07T09:03:15.000Z</time>
      </trkpt>
      <trkpt lat="41.46619565784931182861328125" lon="2.15133053250610828399658203125">
        <ele>100</ele>
        <time>2022-01-07T09:03:16.000Z</time>
      </trkpt>
      <trkpt lat="41.46617361344397068023681640625" lon="2.1513058058917522430419921875">
        <ele>100.1999969482421875</ele>
        <time>2022-01-07T09:03:17.000Z</time>
      </trkpt>
      <trkpt lat="41.4661418460309505462646484375" lon="2.15127311646938323974609375">
        <ele>100.1999969482421875</ele>
        <time>2022-01-07T09:03:18.000Z</time>
      </trkpt>
      <trkpt lat="41.46610119380056858062744140625" lon="2.1512273512780666351318359375">
        <ele>100.1999969482421875</ele>
        <time>2022-01-07T09:03:19.000Z</time>
      </trkpt>
      <trkpt lat="41.4660684205591678619384765625" lon="2.15118602849543094635009765625">
        <ele>100.1999969482421875</ele>
        <time>2022-01-07T09:03:20.000Z</time>
      </trkpt>
      <trkpt lat="41.46603430621325969696044921875" lon="2.15113774873316287994384765625">
        <ele>100</ele>
        <time>2022-01-07T09:03:21.000Z</time>
      </trkpt>
      <trkpt lat="41.4660107530653476715087890625" lon="2.1510758064687252044677734375">
        <ele>100</ele>
        <time>2022-01-07T09:03:22.000Z</time>
      </trkpt>
      <trkpt lat="41.46600111387670040130615234375" lon="2.15101202018558979034423828125">
        <ele>99.8000030517578125</ele>
        <time>2022-01-07T09:03:23.000Z</time>
      </trkpt>
      <trkpt lat="41.4660000242292881011962890625" lon="2.1509510837495326995849609375">
        <ele>99.8000030517578125</ele>
        <time>2022-01-07T09:03:24.000Z</time>
      </trkpt>
      <trkpt lat="41.46601418964564800262451171875" lon="2.15089735575020313262939453125">
        <ele>99.8000030517578125</ele>
        <time>2022-01-07T09:03:25.000Z</time>
      </trkpt>
      <trkpt lat="41.4660355634987354278564453125" lon="2.1508535183966159820556640625">
        <ele>99.59999847412109375</ele>
        <time>2022-01-07T09:03:26.000Z</time>
      </trkpt>
      <trkpt lat="41.466061882674694061279296875" lon="2.1508183144032955169677734375">
        <ele>99.40000152587890625</ele>
        <time>2022-01-07T09:03:27.000Z</time>
      </trkpt>
      <trkpt lat="41.46609080024063587188720703125" lon="2.1507918275892734527587890625">
        <ele>99.40000152587890625</ele>
        <time>2022-01-07T09:03:28.000Z</time>
      </trkpt>
      <trkpt lat="41.46611921489238739013671875" lon="2.15077816508710384368896484375">
        <ele>99.40000152587890625</ele>
        <time>2022-01-07T09:03:29.000Z</time>
      </trkpt>
      <trkpt lat="41.46614134311676025390625" lon="2.1507656760513782501220703125">
        <ele>99.59999847412109375</ele>
        <time>2022-01-07T09:03:30.000Z</time>
      </trkpt>
      <trkpt lat="41.4661646448075771331787109375" lon="2.1507562883198261260986328125">
        <ele>99.59999847412109375</ele>
        <time>2022-01-07T09:03:31.000Z</time>
      </trkpt>
      <trkpt lat="41.46618501283228397369384765625" lon="2.1507499180734157562255859375">
        <ele>99.59999847412109375</ele>
        <time>2022-01-07T09:03:32.000Z</time>
      </trkpt>
      <trkpt lat="41.466210074722766876220703125" lon="2.15073801577091217041015625">
        <ele>99.59999847412109375</ele>
        <time>2022-01-07T09:03:33.000Z</time>
      </trkpt>
      <trkpt lat="41.46623748354613780975341796875" lon="2.150722928345203399658203125">
        <ele>99.59999847412109375</ele>
        <time>2022-01-07T09:03:34.000Z</time>
      </trkpt>
      <trkpt lat="41.46625592373311519622802734375" lon="2.1507090143859386444091796875">
        <ele>99.59999847412109375</ele>
        <time>2022-01-07T09:03:35.000Z</time>
      </trkpt>
      <trkpt lat="41.466273777186870574951171875" lon="2.15068495832383632659912109375">
        <ele>99.59999847412109375</ele>
        <time>2022-01-07T09:03:36.000Z</time>
      </trkpt>
      <trkpt lat="41.46628291346132755279541015625" lon="2.150662578642368316650390625">
        <ele>99.59999847412109375</ele>
        <time>2022-01-07T09:03:37.000Z</time>
      </trkpt>
      <trkpt lat="41.46628157235682010650634765625" lon="2.1506429649889469146728515625">
        <ele>99.8000030517578125</ele>
        <time>2022-01-07T09:03:38.000Z</time>
      </trkpt>
      <trkpt lat="41.4662789739668369293212890625" lon="2.15063081122934818267822265625">
        <ele>99.8000030517578125</ele>
        <time>2022-01-07T09:03:39.000Z</time>
      </trkpt>
      <trkpt lat="41.46626933477818965911865234375" lon="2.150623016059398651123046875">
        <ele>100</ele>
        <time>2022-01-07T09:03:40.000Z</time>
      </trkpt>
      <trkpt lat="41.46625676192343235015869140625" lon="2.15062662027776241302490234375">
        <ele>100.1999969482421875</ele>
        <time>2022-01-07T09:03:41.000Z</time>
      </trkpt>
      <trkpt lat="41.46624251268804073333740234375" lon="2.15062804520130157470703125">
        <ele>100.1999969482421875</ele>
        <time>2022-01-07T09:03:42.000Z</time>
      </trkpt>
      <trkpt lat="41.46622122265398502349853515625" lon="2.15063131414353847503662109375">
        <ele>100.40000152587890625</ele>
        <time>2022-01-07T09:03:43.000Z</time>
      </trkpt>
      <trkpt lat="41.4662038721144199371337890625" lon="2.150631062686443328857421875">
        <ele>100.59999847412109375</ele>
        <time>2022-01-07T09:03:44.000Z</time>
      </trkpt>
      <trkpt lat="41.46618358790874481201171875" lon="2.15062913484871387481689453125">
        <ele>100.59999847412109375</ele>
        <time>2022-01-07T09:03:45.000Z</time>
      </trkpt>
      <trkpt lat="41.4661649800837039947509765625" lon="2.1506273746490478515625">
        <ele>101</ele>
        <time>2022-01-07T09:03:46.000Z</time>
      </trkpt>
      <trkpt lat="41.4661549217998981475830078125" lon="2.15062075294554233551025390625">
        <ele>101.1999969482421875</ele>
        <time>2022-01-07T09:03:47.000Z</time>
      </trkpt>
      <trkpt lat="41.466137655079364776611328125" lon="2.150608599185943603515625">
        <ele>101.40000152587890625</ele>
        <time>2022-01-07T09:03:48.000Z</time>
      </trkpt>
      <trkpt lat="41.46611443720757961273193359375" lon="2.150598876178264617919921875">
        <ele>101.59999847412109375</ele>
        <time>2022-01-07T09:03:49.000Z</time>
      </trkpt>
      <trkpt lat="41.46609180606901645660400390625" lon="2.1505911648273468017578125">
        <ele>101.59999847412109375</ele>
        <time>2022-01-07T09:03:50.000Z</time>
      </trkpt>
      <trkpt lat="41.46607001312077045440673828125" lon="2.150581441819667816162109375">
        <ele>101.8000030517578125</ele>
        <time>2022-01-07T09:03:51.000Z</time>
      </trkpt>
      <trkpt lat="41.46605215966701507568359375" lon="2.15057398192584514617919921875">
        <ele>102</ele>
        <time>2022-01-07T09:03:52.000Z</time>
      </trkpt>
      <trkpt lat="41.4660305343568325042724609375" lon="2.15056224726140499114990234375">
        <ele>102.1999969482421875</ele>
        <time>2022-01-07T09:03:53.000Z</time>
      </trkpt>
      <trkpt lat="41.4660060591995716094970703125" lon="2.150546573102474212646484375">
        <ele>102.40000152587890625</ele>
        <time>2022-01-07T09:03:54.000Z</time>
      </trkpt>
      <trkpt lat="41.46598435007035732269287109375" lon="2.1505321562290191650390625">
        <ele>102.59999847412109375</ele>
        <time>2022-01-07T09:03:55.000Z</time>
      </trkpt>
      <trkpt lat="41.46596171893179416656494140625" lon="2.15051933191716670989990234375">
        <ele>102.8000030517578125</ele>
        <time>2022-01-07T09:03:56.000Z</time>
      </trkpt>
      <trkpt lat="41.46594227291643619537353515625" lon="2.150511704385280609130859375">
        <ele>103</ele>
        <time>2022-01-07T09:03:57.000Z</time>
      </trkpt>
      <trkpt lat="41.46592081524431705474853515625" lon="2.15049988590180873870849609375">
        <ele>103.1999969482421875</ele>
        <time>2022-01-07T09:03:58.000Z</time>
      </trkpt>
      <trkpt lat="41.46589751355350017547607421875" lon="2.150486893951892852783203125">
        <ele>103.40000152587890625</ele>
        <time>2022-01-07T09:03:59.000Z</time>
      </trkpt>
      <trkpt lat="41.46587588824331760406494140625" lon="2.150476835668087005615234375">
        <ele>103.40000152587890625</ele>
        <time>2022-01-07T09:04:00.000Z</time>
      </trkpt>
      <trkpt lat="41.46585292182862758636474609375" lon="2.15046786703169345855712890625">
        <ele>103.59999847412109375</ele>
        <time>2022-01-07T09:04:01.000Z</time>
      </trkpt>
      <trkpt lat="41.4658236689865589141845703125" lon="2.1504625864326953887939453125">
        <ele>103.8000030517578125</ele>
        <time>2022-01-07T09:04:02.000Z</time>
      </trkpt>
      <trkpt lat="41.46579860709607601165771484375" lon="2.150460742413997650146484375">
        <ele>104</ele>
        <time>2022-01-07T09:04:03.000Z</time>
      </trkpt>
      <trkpt lat="41.4657670073211193084716796875" lon="2.15045764110982418060302734375">
        <ele>104.1999969482421875</ele>
        <time>2022-01-07T09:04:04.000Z</time>
      </trkpt>
      <trkpt lat="41.46574177779257297515869140625" lon="2.15045663528144359588623046875">
        <ele>104.40000152587890625</ele>
        <time>2022-01-07T09:04:05.000Z</time>
      </trkpt>
      <trkpt lat="41.46571948193013668060302734375" lon="2.15045596472918987274169921875">
        <ele>104.8000030517578125</ele>
        <time>2022-01-07T09:04:06.000Z</time>
      </trkpt>
      <trkpt lat="41.46569450385868549346923828125" lon="2.150462083518505096435546875">
        <ele>104.8000030517578125</ele>
        <time>2022-01-07T09:04:07.000Z</time>
      </trkpt>
      <trkpt lat="41.46566684357821941375732421875" lon="2.15046568773686885833740234375">
        <ele>105</ele>
        <time>2022-01-07T09:04:08.000Z</time>
      </trkpt>
      <trkpt lat="41.46563800983130931854248046875" lon="2.15046786703169345855712890625">
        <ele>105.1999969482421875</ele>
        <time>2022-01-07T09:04:09.000Z</time>
      </trkpt>
      <trkpt lat="41.465615294873714447021484375" lon="2.1504706330597400665283203125">
        <ele>105.40000152587890625</ele>
        <time>2022-01-07T09:04:10.000Z</time>
      </trkpt>
      <trkpt lat="41.465580426156520843505859375" lon="2.1504739858210086822509765625">
        <ele>105.40000152587890625</ele>
        <time>2022-01-07T09:04:11.000Z</time>
      </trkpt>
      <trkpt lat="41.46555754356086254119873046875" lon="2.150476835668087005615234375">
        <ele>105.59999847412109375</ele>
        <time>2022-01-07T09:04:12.000Z</time>
      </trkpt>
      <trkpt lat="41.46552803926169872283935546875" lon="2.15047725476324558258056640625">
        <ele>105.59999847412109375</ele>
        <time>2022-01-07T09:04:13.000Z</time>
      </trkpt>
      <trkpt lat="41.46549249999225139617919921875" lon="2.15047960169613361358642578125">
        <ele>105.40000152587890625</ele>
        <time>2022-01-07T09:04:14.000Z</time>
      </trkpt>
      <trkpt lat="41.4654632471501827239990234375" lon="2.150484211742877960205078125">
        <ele>105.59999847412109375</ele>
        <time>2022-01-07T09:04:15.000Z</time>
      </trkpt>
      <trkpt lat="41.46543298847973346710205078125" lon="2.1504880674183368682861328125">
        <ele>105.59999847412109375</ele>
        <time>2022-01-07T09:04:16.000Z</time>
      </trkpt>
      <trkpt lat="41.46541153080761432647705078125" lon="2.15048982761800289154052734375">
        <ele>105.8000030517578125</ele>
        <time>2022-01-07T09:04:17.000Z</time>
      </trkpt>
      <trkpt lat="41.465384624898433685302734375" lon="2.15049351565539836883544921875">
        <ele>106</ele>
        <time>2022-01-07T09:04:18.000Z</time>
      </trkpt>
      <trkpt lat="41.46535587497055530548095703125" lon="2.15050441212952136993408203125">
        <ele>106</ele>
        <time>2022-01-07T09:04:19.000Z</time>
      </trkpt>
      <trkpt lat="41.46533341147005558013916015625" lon="2.1505138836801052093505859375">
        <ele>106.1999969482421875</ele>
        <time>2022-01-07T09:04:20.000Z</time>
      </trkpt>
      <trkpt lat="41.46531111560761928558349609375" lon="2.15052117593586444854736328125">
        <ele>106.40000152587890625</ele>
        <time>2022-01-07T09:04:21.000Z</time>
      </trkpt>
      <trkpt lat="41.46528312005102634429931640625" lon="2.150531820952892303466796875">
        <ele>106.59999847412109375</ele>
        <time>2022-01-07T09:04:22.000Z</time>
      </trkpt>
      <trkpt lat="41.4652624167501926422119140625" lon="2.150541879236698150634765625">
        <ele>106.8000030517578125</ele>
        <time>2022-01-07T09:04:23.000Z</time>
      </trkpt>
      <trkpt lat="41.4652372710406780242919921875" lon="2.15055436827242374420166015625">
        <ele>107</ele>
        <time>2022-01-07T09:04:24.000Z</time>
      </trkpt>
      <trkpt lat="41.46520852111279964447021484375" lon="2.15056836605072021484375">
        <ele>107</ele>
        <time>2022-01-07T09:04:25.000Z</time>
      </trkpt>
      <trkpt lat="41.4651802740991115570068359375" lon="2.15057708323001861572265625">
        <ele>107.1999969482421875</ele>
        <time>2022-01-07T09:04:26.000Z</time>
      </trkpt>
      <trkpt lat="41.465152613818645477294921875" lon="2.15059158392250537872314453125">
        <ele>107.1999969482421875</ele>
        <time>2022-01-07T09:04:27.000Z</time>
      </trkpt>
      <trkpt lat="41.465128473937511444091796875" lon="2.1505997143685817718505859375">
        <ele>107.1999969482421875</ele>
        <time>2022-01-07T09:04:28.000Z</time>
      </trkpt>
      <trkpt lat="41.46509268321096897125244140625" lon="2.15060868300497531890869140625">
        <ele>107.1999969482421875</ele>
        <time>2022-01-07T09:04:29.000Z</time>
      </trkpt>
      <trkpt lat="41.465065442025661468505859375" lon="2.150609605014324188232421875">
        <ele>107.40000152587890625</ele>
        <time>2022-01-07T09:04:30.000Z</time>
      </trkpt>
      <trkpt lat="41.46503317169845104217529296875" lon="2.15060164220631122589111328125">
        <ele>107.59999847412109375</ele>
        <time>2022-01-07T09:04:31.000Z</time>
      </trkpt>
      <trkpt lat="41.46500115282833576202392578125" lon="2.150584124028682708740234375">
        <ele>107.59999847412109375</ele>
        <time>2022-01-07T09:04:32.000Z</time>
      </trkpt>
      <trkpt lat="41.4649720676243305206298828125" lon="2.15055688284337520599365234375">
        <ele>108</ele>
        <time>2022-01-07T09:04:33.000Z</time>
      </trkpt>
      <trkpt lat="41.46494298242032527923583984375" lon="2.150513045489788055419921875">
        <ele>108.1999969482421875</ele>
        <time>2022-01-07T09:04:34.000Z</time>
      </trkpt>
      <trkpt lat="41.46492420695722103118896484375" lon="2.15047323144972324371337890625">
        <ele>108.40000152587890625</ele>
        <time>2022-01-07T09:04:35.000Z</time>
      </trkpt>
      <trkpt lat="41.46490928716957569122314453125" lon="2.150431573390960693359375">
        <ele>108.59999847412109375</ele>
        <time>2022-01-07T09:04:36.000Z</time>
      </trkpt>
      <trkpt lat="41.46490107290446758270263671875" lon="2.15039310045540332794189453125">
        <ele>109</ele>
        <time>2022-01-07T09:04:37.000Z</time>
      </trkpt>
      <trkpt lat="41.46489436738193035125732421875" lon="2.1503438986837863922119140625">
        <ele>109</ele>
        <time>2022-01-07T09:04:38.000Z</time>
      </trkpt>
      <trkpt lat="41.4648916013538837432861328125" lon="2.15028472244739532470703125">
        <ele>109.1999969482421875</ele>
        <time>2022-01-07T09:04:39.000Z</time>
      </trkpt>
      <trkpt lat="41.464886404573917388916015625" lon="2.15023736469447612762451171875">
        <ele>109.59999847412109375</ele>
        <time>2022-01-07T09:04:40.000Z</time>
      </trkpt>
      <trkpt lat="41.4648738317191600799560546875" lon="2.15019176714122295379638671875">
        <ele>109.8000030517578125</ele>
        <time>2022-01-07T09:04:41.000Z</time>
      </trkpt>
      <trkpt lat="41.464862935245037078857421875" lon="2.15015958063304424285888671875">
        <ele>110</ele>
        <time>2022-01-07T09:04:42.000Z</time>
      </trkpt>
      <trkpt lat="41.4648453332483768463134765625" lon="2.1501189284026622772216796875">
        <ele>110.1999969482421875</ele>
        <time>2022-01-07T09:04:43.000Z</time>
      </trkpt>
      <trkpt lat="41.4648185111582279205322265625" lon="2.15007592923939228057861328125">
        <ele>110.40000152587890625</ele>
        <time>2022-01-07T09:04:44.000Z</time>
      </trkpt>
      <trkpt lat="41.46478741429746150970458984375" lon="2.15005162172019481658935546875">
        <ele>110.59999847412109375</ele>
        <time>2022-01-07T09:04:45.000Z</time>
      </trkpt>
      <trkpt lat="41.46475128829479217529296875" lon="2.15004290454089641571044921875">
        <ele>110.8000030517578125</ele>
        <time>2022-01-07T09:04:46.000Z</time>
      </trkpt>
      <trkpt lat="41.46472186781466007232666015625" lon="2.15004541911184787750244140625">
        <ele>110.8000030517578125</ele>
        <time>2022-01-07T09:04:47.000Z</time>
      </trkpt>
      <trkpt lat="41.4646884240210056304931640625" lon="2.15006184764206409454345703125">
        <ele>111.1999969482421875</ele>
        <time>2022-01-07T09:04:48.000Z</time>
      </trkpt>
      <trkpt lat="41.4646518789231777191162109375" lon="2.15008246712386608123779296875">
        <ele>111.59999847412109375</ele>
        <time>2022-01-07T09:04:49.000Z</time>
      </trkpt>
      <trkpt lat="41.4646240510046482086181640625" lon="2.1501028351485729217529296875">
        <ele>111.8000030517578125</ele>
        <time>2022-01-07T09:04:50.000Z</time>
      </trkpt>
      <trkpt lat="41.46459697745740413665771484375" lon="2.15012555010616779327392578125">
        <ele>111.8000030517578125</ele>
        <time>2022-01-07T09:04:51.000Z</time>
      </trkpt>
      <trkpt lat="41.4645740948617458343505859375" lon="2.1501467563211917877197265625">
        <ele>112</ele>
        <time>2022-01-07T09:04:52.000Z</time>
      </trkpt>
      <trkpt lat="41.46454618312418460845947265625" lon="2.1501765958964824676513671875">
        <ele>112.1999969482421875</ele>
        <time>2022-01-07T09:04:53.000Z</time>
      </trkpt>
      <trkpt lat="41.46451969631016254425048828125" lon="2.15020232833921909332275390625">
        <ele>112.40000152587890625</ele>
        <time>2022-01-07T09:04:54.000Z</time>
      </trkpt>
      <trkpt lat="41.46449170075356960296630859375" lon="2.15023803524672985076904296875">
        <ele>112.59999847412109375</ele>
        <time>2022-01-07T09:04:55.000Z</time>
      </trkpt>
      <trkpt lat="41.4644664712250232696533203125" lon="2.15026938356459140777587890625">
        <ele>112.8000030517578125</ele>
        <time>2022-01-07T09:04:56.000Z</time>
      </trkpt>
      <trkpt lat="41.46443855948746204376220703125" lon="2.1503009833395481109619140625">
        <ele>113.1999969482421875</ele>
        <time>2022-01-07T09:04:57.000Z</time>
      </trkpt>
      <trkpt lat="41.4644148387014865875244140625" lon="2.15032772161066532135009765625">
        <ele>113.40000152587890625</ele>
        <time>2022-01-07T09:04:58.000Z</time>
      </trkpt>
      <trkpt lat="41.46437720395624637603759765625" lon="2.15036359615623950958251953125">
        <ele>113.59999847412109375</ele>
        <time>2022-01-07T09:04:59.000Z</time>
      </trkpt>
      <trkpt lat="41.46434585563838481903076171875" lon="2.1503921784460544586181640625">
        <ele>114</ele>
        <time>2022-01-07T09:05:00.000Z</time>
      </trkpt>
      <trkpt lat="41.4643202908337116241455078125" lon="2.1504139713943004608154296875">
        <ele>114.1999969482421875</ele>
        <time>2022-01-07T09:05:01.000Z</time>
      </trkpt>
      <trkpt lat="41.46428952924907207489013671875" lon="2.15043936856091022491455078125">
        <ele>114.59999847412109375</ele>
        <time>2022-01-07T09:05:02.000Z</time>
      </trkpt>
      <trkpt lat="41.46425801329314708709716796875" lon="2.1504645980894565582275390625">
        <ele>114.8000030517578125</ele>
        <time>2022-01-07T09:05:03.000Z</time>
      </trkpt>
      <trkpt lat="41.46421794779598712921142578125" lon="2.150492928922176361083984375">
        <ele>115</ele>
        <time>2022-01-07T09:05:04.000Z</time>
      </trkpt>
      <trkpt lat="41.46418525837361812591552734375" lon="2.1505179069936275482177734375">
        <ele>115</ele>
        <time>2022-01-07T09:05:05.000Z</time>
      </trkpt>
      <trkpt lat="41.46415743045508861541748046875" lon="2.15054196305572986602783203125">
        <ele>115.1999969482421875</ele>
        <time>2022-01-07T09:05:06.000Z</time>
      </trkpt>
      <trkpt lat="41.46413094364106655120849609375" lon="2.1505641750991344451904296875">
        <ele>115.1999969482421875</ele>
        <time>2022-01-07T09:05:07.000Z</time>
      </trkpt>
      <trkpt lat="41.4641047082841396331787109375" lon="2.15059074573218822479248046875">
        <ele>115.59999847412109375</ele>
        <time>2022-01-07T09:05:08.000Z</time>
      </trkpt>
      <trkpt lat="41.46407897584140300750732421875" lon="2.15061639435589313507080078125">
        <ele>115.8000030517578125</ele>
        <time>2022-01-07T09:05:09.000Z</time>
      </trkpt>
      <trkpt lat="41.4640524052083492279052734375" lon="2.150641791522502899169921875">
        <ele>116</ele>
        <time>2022-01-07T09:05:10.000Z</time>
      </trkpt>
      <trkpt lat="41.464024074375629425048828125" lon="2.15066417120397090911865234375">
        <ele>116.59999847412109375</ele>
        <time>2022-01-07T09:05:11.000Z</time>
      </trkpt>
      <trkpt lat="41.46399448625743389129638671875" lon="2.1506828628480434417724609375">
        <ele>116.8000030517578125</ele>
        <time>2022-01-07T09:05:12.000Z</time>
      </trkpt>
      <trkpt lat="41.4639628864824771881103515625" lon="2.1507009677588939666748046875">
        <ele>117.1999969482421875</ele>
        <time>2022-01-07T09:05:13.000Z</time>
      </trkpt>
      <trkpt lat="41.46393279545009136199951171875" lon="2.1507167257368564605712890625">
        <ele>117.59999847412109375</ele>
        <time>2022-01-07T09:05:14.000Z</time>
      </trkpt>
      <trkpt lat="41.46390111185610294342041015625" lon="2.15072686783969402313232421875">
        <ele>117.8000030517578125</ele>
        <time>2022-01-07T09:05:15.000Z</time>
      </trkpt>
      <trkpt lat="41.46387009881436824798583984375" lon="2.15073273517191410064697265625">
        <ele>118.1999969482421875</ele>
        <time>2022-01-07T09:05:16.000Z</time>
      </trkpt>
      <trkpt lat="41.46383724175393581390380859375" lon="2.1507351659238338470458984375">
        <ele>118.40000152587890625</ele>
        <time>2022-01-07T09:05:17.000Z</time>
      </trkpt>
      <trkpt lat="41.46380321122705936431884765625" lon="2.15073592029511928558349609375">
        <ele>118.40000152587890625</ele>
        <time>2022-01-07T09:05:18.000Z</time>
      </trkpt>
      <trkpt lat="41.4637707732617855072021484375" lon="2.15073374100029468536376953125">
        <ele>118.8000030517578125</ele>
        <time>2022-01-07T09:05:19.000Z</time>
      </trkpt>
      <trkpt lat="41.4637340605258941650390625" lon="2.15072150342166423797607421875">
        <ele>119</ele>
        <time>2022-01-07T09:05:20.000Z</time>
      </trkpt>
      <trkpt lat="41.46370983682572841644287109375" lon="2.1507132053375244140625">
        <ele>119.1999969482421875</ele>
        <time>2022-01-07T09:05:21.000Z</time>
      </trkpt>
      <trkpt lat="41.463676393032073974609375" lon="2.15070691891014575958251953125">
        <ele>119.59999847412109375</ele>
        <time>2022-01-07T09:05:22.000Z</time>
      </trkpt>
      <trkpt lat="41.4636443741619586944580078125" lon="2.15070624835789203643798828125">
        <ele>119.8000030517578125</ele>
        <time>2022-01-07T09:05:23.000Z</time>
      </trkpt>
      <trkpt lat="41.463609002530574798583984375" lon="2.15070809237658977508544921875">
        <ele>119.8000030517578125</ele>
        <time>2022-01-07T09:05:24.000Z</time>
      </trkpt>
      <trkpt lat="41.46357388235628604888916015625" lon="2.150712199509143829345703125">
        <ele>120.1999969482421875</ele>
        <time>2022-01-07T09:05:25.000Z</time>
      </trkpt>
      <trkpt lat="41.463533230125904083251953125" lon="2.1507127024233341217041015625">
        <ele>120.1999969482421875</ele>
        <time>2022-01-07T09:05:26.000Z</time>
      </trkpt>
      <trkpt lat="41.46350582130253314971923828125" lon="2.15070826001465320587158203125">
        <ele>120.59999847412109375</ele>
        <time>2022-01-07T09:05:27.000Z</time>
      </trkpt>
      <trkpt lat="41.46347212605178356170654296875" lon="2.15069887228310108184814453125">
        <ele>120.8000030517578125</ele>
        <time>2022-01-07T09:05:28.000Z</time>
      </trkpt>
      <trkpt lat="41.4634381793439388275146484375" lon="2.150682695209980010986328125">
        <ele>121</ele>
        <time>2022-01-07T09:05:29.000Z</time>
      </trkpt>
      <trkpt lat="41.46340607665479183197021484375" lon="2.1506609022617340087890625">
        <ele>121.1999969482421875</ele>
        <time>2022-01-07T09:05:30.000Z</time>
      </trkpt>
      <trkpt lat="41.46337506361305713653564453125" lon="2.15062762610614299774169921875">
        <ele>121.40000152587890625</ele>
        <time>2022-01-07T09:05:31.000Z</time>
      </trkpt>
      <trkpt lat="41.4633600600063800811767578125" lon="2.15059795416891574859619140625">
        <ele>121.59999847412109375</ele>
        <time>2022-01-07T09:05:32.000Z</time>
      </trkpt>
      <trkpt lat="41.46333918906748294830322265625" lon="2.15055956505239009857177734375">
        <ele>121.8000030517578125</ele>
        <time>2022-01-07T09:05:33.000Z</time>
      </trkpt>
      <trkpt lat="41.46331840194761753082275390625" lon="2.15051011182367801666259765625">
        <ele>122</ele>
        <time>2022-01-07T09:05:34.000Z</time>
      </trkpt>
      <trkpt lat="41.4633010514080524444580078125" lon="2.15046786703169345855712890625">
        <ele>122.1999969482421875</ele>
        <time>2022-01-07T09:05:35.000Z</time>
      </trkpt>
      <trkpt lat="41.4632829464972019195556640625" lon="2.1504250355064868927001953125">
        <ele>122.40000152587890625</ele>
        <time>2022-01-07T09:05:36.000Z</time>
      </trkpt>
      <trkpt lat="41.4632678590714931488037109375" lon="2.1503905020654201507568359375">
        <ele>122.59999847412109375</ele>
        <time>2022-01-07T09:05:37.000Z</time>
      </trkpt>
      <trkpt lat="41.46324665285646915435791015625" lon="2.15034984983503818511962890625">
        <ele>122.8000030517578125</ele>
        <time>2022-01-07T09:05:38.000Z</time>
      </trkpt>
      <trkpt lat="41.46322033368051052093505859375" lon="2.15030777268111705780029296875">
        <ele>122.8000030517578125</ele>
        <time>2022-01-07T09:05:39.000Z</time>
      </trkpt>
      <trkpt lat="41.46319770254194736480712890625" lon="2.15028614737093448638916015625">
        <ele>123</ele>
        <time>2022-01-07T09:05:40.000Z</time>
      </trkpt>
      <trkpt lat="41.4631672762334346771240234375" lon="2.15026368387043476104736328125">
        <ele>123</ele>
        <time>2022-01-07T09:05:41.000Z</time>
      </trkpt>
      <trkpt lat="41.4631391130387783050537109375" lon="2.1502476744353771209716796875">
        <ele>123.1999969482421875</ele>
        <time>2022-01-07T09:05:42.000Z</time>
      </trkpt>
      <trkpt lat="41.4631064236164093017578125" lon="2.15024373494088649749755859375">
        <ele>123.40000152587890625</ele>
        <time>2022-01-07T09:05:43.000Z</time>
      </trkpt>
      <trkpt lat="41.46307214163243770599365234375" lon="2.150247506797313690185546875">
        <ele>123.59999847412109375</ele>
        <time>2022-01-07T09:05:44.000Z</time>
      </trkpt>
      <trkpt lat="41.46303760819137096405029296875" lon="2.150250189006328582763671875">
        <ele>124.1999969482421875</ele>
        <time>2022-01-07T09:05:45.000Z</time>
      </trkpt>
      <trkpt lat="41.4630039967596530914306640625" lon="2.15024641714990139007568359375">
        <ele>124.40000152587890625</ele>
        <time>2022-01-07T09:05:46.000Z</time>
      </trkpt>
      <trkpt lat="41.4629721455276012420654296875" lon="2.150233425199985504150390625">
        <ele>124.59999847412109375</ele>
        <time>2022-01-07T09:05:47.000Z</time>
      </trkpt>
      <trkpt lat="41.4629396237432956695556640625" lon="2.1502158232033252716064453125">
        <ele>124.8000030517578125</ele>
        <time>2022-01-07T09:05:48.000Z</time>
      </trkpt>
      <trkpt lat="41.4629133045673370361328125" lon="2.1502040885388851165771484375">
        <ele>125</ele>
        <time>2022-01-07T09:05:49.000Z</time>
      </trkpt>
      <trkpt lat="41.46289310418069362640380859375" lon="2.1501973830163478851318359375">
        <ele>125</ele>
        <time>2022-01-07T09:05:50.000Z</time>
      </trkpt>
      <trkpt lat="41.462869383394718170166015625" lon="2.15020920149981975555419921875">
        <ele>125.40000152587890625</ele>
        <time>2022-01-07T09:05:51.000Z</time>
      </trkpt>
      <trkpt lat="41.46285739727318286895751953125" lon="2.15023149736225605010986328125">
        <ele>125.8000030517578125</ele>
        <time>2022-01-07T09:05:52.000Z</time>
      </trkpt>
      <trkpt lat="41.462851949036121368408203125" lon="2.15025932528078556060791015625">
        <ele>126</ele>
        <time>2022-01-07T09:05:53.000Z</time>
      </trkpt>
      <trkpt lat="41.46285572089254856109619140625" lon="2.15028329752385616302490234375">
        <ele>126.1999969482421875</ele>
        <time>2022-01-07T09:05:54.000Z</time>
      </trkpt>
      <trkpt lat="41.46286242641508579254150390625" lon="2.15030844323337078094482421875">
        <ele>126.1999969482421875</ele>
        <time>2022-01-07T09:05:55.000Z</time>
      </trkpt>
      <trkpt lat="41.4628772623836994171142578125" lon="2.15032923035323619842529296875">
        <ele>126.8000030517578125</ele>
        <time>2022-01-07T09:05:56.000Z</time>
      </trkpt>
      <trkpt lat="41.462898217141628265380859375" lon="2.15034230612218379974365234375">
        <ele>127</ele>
        <time>2022-01-07T09:05:57.000Z</time>
      </trkpt>
      <trkpt lat="41.46291623823344707489013671875" lon="2.1503428928554058074951171875">
        <ele>127.1999969482421875</ele>
        <time>2022-01-07T09:05:58.000Z</time>
      </trkpt>
      <trkpt lat="41.46293484605848789215087890625" lon="2.1503345109522342681884765625">
        <ele>127.1999969482421875</ele>
        <time>2022-01-07T09:05:59.000Z</time>
      </trkpt>
      <trkpt lat="41.46295328624546527862548828125" lon="2.15031615458428859710693359375">
        <ele>127.1999969482421875</ele>
        <time>2022-01-07T09:06:00.000Z</time>
      </trkpt>
      <trkpt lat="41.46295814774930477142333984375" lon="2.15029234997928142547607421875">
        <ele>127.1999969482421875</ele>
        <time>2022-01-07T09:06:01.000Z</time>
      </trkpt>
      <trkpt lat="41.4629520289599895477294921875" lon="2.1502625942230224609375">
        <ele>127.40000152587890625</ele>
        <time>2022-01-07T09:06:02.000Z</time>
      </trkpt>
      <trkpt lat="41.46294347941875457763671875" lon="2.150229401886463165283203125">
        <ele>127.40000152587890625</ele>
        <time>2022-01-07T09:06:03.000Z</time>
      </trkpt>
      <trkpt lat="41.46294339559972286224365234375" lon="2.1502004005014896392822265625">
        <ele>127.59999847412109375</ele>
        <time>2022-01-07T09:06:04.000Z</time>
      </trkpt>
      <trkpt lat="41.46294373087584972381591796875" lon="2.1501809544861316680908203125">
        <ele>127.8000030517578125</ele>
        <time>2022-01-07T09:06:05.000Z</time>
      </trkpt>
      <trkpt lat="41.4629446528851985931396484375" lon="2.15016561560332775115966796875">
        <ele>128</ele>
        <time>2022-01-07T09:06:06.000Z</time>
      </trkpt>
      <trkpt lat="41.46294440142810344696044921875" lon="2.150150276720523834228515625">
        <ele>128.1999969482421875</ele>
        <time>2022-01-07T09:06:07.000Z</time>
      </trkpt>
      <trkpt lat="41.46294859237968921661376953125" lon="2.150127477943897247314453125">
        <ele>128.1999969482421875</ele>
        <time>2022-01-07T09:06:08.000Z</time>
      </trkpt>
      <trkpt lat="41.46296418271958827972412109375" lon="2.15010291896760463714599609375">
        <ele>128.1999969482421875</ele>
        <time>2022-01-07T09:06:09.000Z</time>
      </trkpt>
      <trkpt lat="41.46298329345881938934326171875" lon="2.15008967556059360504150390625">
        <ele>128.1999969482421875</ele>
        <time>2022-01-07T09:06:10.000Z</time>
      </trkpt>
      <trkpt lat="41.4630107022821903228759765625" lon="2.1500793658196926116943359375">
        <ele>128.1999969482421875</ele>
        <time>2022-01-07T09:06:11.000Z</time>
      </trkpt>
      <trkpt lat="41.463048420846462249755859375" lon="2.1500676311552524566650390625">
        <ele>128.399993896484375</ele>
        <time>2022-01-07T09:06:12.000Z</time>
      </trkpt>
      <trkpt lat="41.4630847983062267303466796875" lon="2.15005933307111263275146484375">
        <ele>128.8000030517578125</ele>
        <time>2022-01-07T09:06:13.000Z</time>
      </trkpt>
      <trkpt lat="41.463111452758312225341796875" lon="2.1500520408153533935546875">
        <ele>129</ele>
        <time>2022-01-07T09:06:14.000Z</time>
      </trkpt>
      <trkpt lat="41.46313483826816082000732421875" lon="2.15003938414156436920166015625">
        <ele>129.1999969482421875</ele>
        <time>2022-01-07T09:06:15.000Z</time>
      </trkpt>
      <trkpt lat="41.4631552062928676605224609375" lon="2.15002966113388538360595703125">
        <ele>129.399993896484375</ele>
        <time>2022-01-07T09:06:16.000Z</time>
      </trkpt>
      <trkpt lat="41.46317683160305023193359375" lon="2.15001859702169895172119140625">
        <ele>129.600006103515625</ele>
        <time>2022-01-07T09:06:17.000Z</time>
      </trkpt>
      <trkpt lat="41.46319652907550334930419921875" lon="2.15000870637595653533935546875">
        <ele>129.8000030517578125</ele>
        <time>2022-01-07T09:06:18.000Z</time>
      </trkpt>
      <trkpt lat="41.46321916021406650543212890625" lon="2.1500002406537532806396484375">
        <ele>130</ele>
        <time>2022-01-07T09:06:19.000Z</time>
      </trkpt>
      <trkpt lat="41.4632453955709934234619140625" lon="2.149994373321533203125">
        <ele>130.1999969482421875</ele>
        <time>2022-01-07T09:06:20.000Z</time>
      </trkpt>
      <trkpt lat="41.46326626650989055633544921875" lon="2.14999236166477203369140625">
        <ele>130.1999969482421875</ele>
        <time>2022-01-07T09:06:21.000Z</time>
      </trkpt>
      <trkpt lat="41.4632960222661495208740234375" lon="2.14999931864440441131591796875">
        <ele>130.1999969482421875</ele>
        <time>2022-01-07T09:06:22.000Z</time>
      </trkpt>
      <trkpt lat="41.4633183181285858154296875" lon="2.1499968878924846649169921875">
        <ele>130.399993896484375</ele>
        <time>2022-01-07T09:06:23.000Z</time>
      </trkpt>
      <trkpt lat="41.4633375965058803558349609375" lon="2.1499915234744548797607421875">
        <ele>130.600006103515625</ele>
        <time>2022-01-07T09:06:24.000Z</time>
      </trkpt>
      <trkpt lat="41.46335997618734836578369140625" lon="2.1500010788440704345703125">
        <ele>130.8000030517578125</ele>
        <time>2022-01-07T09:06:25.000Z</time>
      </trkpt>
      <trkpt lat="41.4633800089359283447265625" lon="2.15001876465976238250732421875">
        <ele>131</ele>
        <time>2022-01-07T09:06:26.000Z</time>
      </trkpt>
      <trkpt lat="41.46339568309485912322998046875" lon="2.15004064142704010009765625">
        <ele>131.399993896484375</ele>
        <time>2022-01-07T09:06:27.000Z</time>
      </trkpt>
      <trkpt lat="41.46341026760637760162353515625" lon="2.15006285347044467926025390625">
        <ele>131.399993896484375</ele>
        <time>2022-01-07T09:06:28.000Z</time>
      </trkpt>
      <trkpt lat="41.4634240977466106414794921875" lon="2.15008196420967578887939453125">
        <ele>131.600006103515625</ele>
        <time>2022-01-07T09:06:29.000Z</time>
      </trkpt>
      <trkpt lat="41.4634358324110507965087890625" lon="2.1501083672046661376953125">
        <ele>131.8000030517578125</ele>
        <time>2022-01-07T09:06:30.000Z</time>
      </trkpt>
      <trkpt lat="41.46344362758100032806396484375" lon="2.15013359673321247100830078125">
        <ele>132</ele>
        <time>2022-01-07T09:06:31.000Z</time>
      </trkpt>
      <trkpt lat="41.46345485933125019073486328125" lon="2.1501568146049976348876953125">
        <ele>132.1999969482421875</ele>
        <time>2022-01-07T09:06:32.000Z</time>
      </trkpt>
      <trkpt lat="41.4634660072624683380126953125" lon="2.15017232112586498260498046875">
        <ele>132.399993896484375</ele>
        <time>2022-01-07T09:06:33.000Z</time>
      </trkpt>
      <trkpt lat="41.46347598172724246978759765625" lon="2.1501970477402210235595703125">
        <ele>132.600006103515625</ele>
        <time>2022-01-07T09:06:34.000Z</time>
      </trkpt>
      <trkpt lat="41.46349173970520496368408203125" lon="2.15021724812686443328857421875">
        <ele>132.8000030517578125</ele>
        <time>2022-01-07T09:06:35.000Z</time>
      </trkpt>
      <trkpt lat="41.46351403556764125823974609375" lon="2.15023602358996868133544921875">
        <ele>133</ele>
        <time>2022-01-07T09:06:36.000Z</time>
      </trkpt>
      <trkpt lat="41.46353113465011119842529296875" lon="2.15025178156793117523193359375">
        <ele>133</ele>
        <time>2022-01-07T09:06:37.000Z</time>
      </trkpt>
      <trkpt lat="41.46355058066546916961669921875" lon="2.15027131140232086181640625">
        <ele>133.399993896484375</ele>
        <time>2022-01-07T09:06:38.000Z</time>
      </trkpt>
      <trkpt lat="41.463568098843097686767578125" lon="2.15029008686542510986328125">
        <ele>133.600006103515625</ele>
        <time>2022-01-07T09:06:39.000Z</time>
      </trkpt>
      <trkpt lat="41.4635846950113773345947265625" lon="2.15030618011951446533203125">
        <ele>133.8000030517578125</ele>
        <time>2022-01-07T09:06:40.000Z</time>
      </trkpt>
      <trkpt lat="41.46360456012189388275146484375" lon="2.1503154002130031585693359375">
        <ele>134</ele>
        <time>2022-01-07T09:06:41.000Z</time>
      </trkpt>
      <trkpt lat="41.46362551487982273101806640625" lon="2.15032361447811126708984375">
        <ele>134</ele>
        <time>2022-01-07T09:06:42.000Z</time>
      </trkpt>
      <trkpt lat="41.463644206523895263671875" lon="2.15032973326742649078369140625">
        <ele>134.1999969482421875</ele>
        <time>2022-01-07T09:06:43.000Z</time>
      </trkpt>
      <trkpt lat="41.46366298198699951171875" lon="2.1503345109522342681884765625">
        <ele>134.1999969482421875</ele>
        <time>2022-01-07T09:06:44.000Z</time>
      </trkpt>
      <trkpt lat="41.46368385292589664459228515625" lon="2.1503388695418834686279296875">
        <ele>134.399993896484375</ele>
        <time>2022-01-07T09:06:45.000Z</time>
      </trkpt>
      <trkpt lat="41.463703215122222900390625" lon="2.1503395400941371917724609375">
        <ele>134.600006103515625</ele>
        <time>2022-01-07T09:06:46.000Z</time>
      </trkpt>
      <trkpt lat="41.46372274495661258697509765625" lon="2.150332666933536529541015625">
        <ele>134.600006103515625</ele>
        <time>2022-01-07T09:06:47.000Z</time>
      </trkpt>
      <trkpt lat="41.46374453790485858917236328125" lon="2.15032135136425495147705078125">
        <ele>134.8000030517578125</ele>
        <time>2022-01-07T09:06:48.000Z</time>
      </trkpt>
      <trkpt lat="41.4637635648250579833984375" lon="2.15030978433787822723388671875">
        <ele>134.8000030517578125</ele>
        <time>2022-01-07T09:06:49.000Z</time>
      </trkpt>
      <trkpt lat="41.46378342993557453155517578125" lon="2.1502949483692646026611328125">
        <ele>135.1999969482421875</ele>
        <time>2022-01-07T09:06:50.000Z</time>
      </trkpt>
      <trkpt lat="41.46380606107413768768310546875" lon="2.15027407743036746978759765625">
        <ele>135.399993896484375</ele>
        <time>2022-01-07T09:06:51.000Z</time>
      </trkpt>
      <trkpt lat="41.46382349543273448944091796875" lon="2.1502543799579143524169921875">
        <ele>135.600006103515625</ele>
        <time>2022-01-07T09:06:52.000Z</time>
      </trkpt>
      <trkpt lat="41.463836990296840667724609375" lon="2.15023736469447612762451171875">
        <ele>135.600006103515625</ele>
        <time>2022-01-07T09:06:53.000Z</time>
      </trkpt>
      <trkpt lat="41.46385316736996173858642578125" lon="2.1502091176807880401611328125">
        <ele>135.8000030517578125</ele>
        <time>2022-01-07T09:06:54.000Z</time>
      </trkpt>
      <trkpt lat="41.46386423148214817047119140625" lon="2.15017768554389476776123046875">
        <ele>136</ele>
        <time>2022-01-07T09:06:55.000Z</time>
      </trkpt>
      <trkpt lat="41.46387496031820774078369140625" lon="2.15015287511050701141357421875">
        <ele>136.399993896484375</ele>
        <time>2022-01-07T09:06:56.000Z</time>
      </trkpt>
      <trkpt lat="41.46388401277363300323486328125" lon="2.1501216106116771697998046875">
        <ele>136.399993896484375</ele>
        <time>2022-01-07T09:06:57.000Z</time>
      </trkpt>
      <trkpt lat="41.46388828754425048828125" lon="2.15009872801601886749267578125">
        <ele>136.600006103515625</ele>
        <time>2022-01-07T09:06:58.000Z</time>
      </trkpt>
      <trkpt lat="41.46389708854258060455322265625" lon="2.15006855316460132598876953125">
        <ele>136.8000030517578125</ele>
        <time>2022-01-07T09:06:59.000Z</time>
      </trkpt>
      <trkpt lat="41.4639028720557689666748046875" lon="2.15004089288413524627685546875">
        <ele>137.1999969482421875</ele>
        <time>2022-01-07T09:07:00.000Z</time>
      </trkpt>
      <trkpt lat="41.463904045522212982177734375" lon="2.15000887401401996612548828125">
        <ele>137.399993896484375</ele>
        <time>2022-01-07T09:07:01.000Z</time>
      </trkpt>
      <trkpt lat="41.463900022208690643310546875" lon="2.14997769333422183990478515625">
        <ele>137.600006103515625</ele>
        <time>2022-01-07T09:07:02.000Z</time>
      </trkpt>
      <trkpt lat="41.4638958312571048736572265625" lon="2.1499533019959926605224609375">
        <ele>137.8000030517578125</ele>
        <time>2022-01-07T09:07:03.000Z</time>
      </trkpt>
      <trkpt lat="41.46390111185610294342041015625" lon="2.149927318096160888671875">
        <ele>138</ele>
        <time>2022-01-07T09:07:04.000Z</time>
      </trkpt>
      <trkpt lat="41.46390915848314762115478515625" lon="2.14989739470183849334716796875">
        <ele>138.1999969482421875</ele>
        <time>2022-01-07T09:07:05.000Z</time>
      </trkpt>
      <trkpt lat="41.4639233238995075225830078125" lon="2.1498788706958293914794921875">
        <ele>138.1999969482421875</ele>
        <time>2022-01-07T09:07:06.000Z</time>
      </trkpt>
      <trkpt lat="41.46394436247646808624267578125" lon="2.14985028840601444244384765625">
        <ele>138.399993896484375</ele>
        <time>2022-01-07T09:07:07.000Z</time>
      </trkpt>
      <trkpt lat="41.463955678045749664306640625" lon="2.1498309262096881866455078125">
        <ele>138.600006103515625</ele>
        <time>2022-01-07T09:07:08.000Z</time>
      </trkpt>
      <trkpt lat="41.46396950818598270416259765625" lon="2.1498074568808078765869140625">
        <ele>138.600006103515625</ele>
        <time>2022-01-07T09:07:09.000Z</time>
      </trkpt>
      <trkpt lat="41.46398358978331089019775390625" lon="2.149782814085483551025390625">
        <ele>138.8000030517578125</ele>
        <time>2022-01-07T09:07:10.000Z</time>
      </trkpt>
      <trkpt lat="41.46399817429482936859130859375" lon="2.1497608534991741180419921875">
        <ele>139.1999969482421875</ele>
        <time>2022-01-07T09:07:11.000Z</time>
      </trkpt>
      <trkpt lat="41.46401502192020416259765625" lon="2.149736881256103515625">
        <ele>139.399993896484375</ele>
        <time>2022-01-07T09:07:12.000Z</time>
      </trkpt>
      <trkpt lat="41.4640309475362300872802734375" lon="2.1497135795652866363525390625">
        <ele>139.600006103515625</ele>
        <time>2022-01-07T09:07:13.000Z</time>
      </trkpt>
      <trkpt lat="41.4640505611896514892578125" lon="2.149690948426723480224609375">
        <ele>139.600006103515625</ele>
        <time>2022-01-07T09:07:14.000Z</time>
      </trkpt>
      <trkpt lat="41.46407461725175380706787109375" lon="2.1496709994971752166748046875">
        <ele>139.8000030517578125</ele>
        <time>2022-01-07T09:07:15.000Z</time>
      </trkpt>
      <trkpt lat="41.46410328336060047149658203125" lon="2.14964560233056545257568359375">
        <ele>139.8000030517578125</ele>
        <time>2022-01-07T09:07:16.000Z</time>
      </trkpt>
      <trkpt lat="41.46412172354757785797119140625" lon="2.14962615631520748138427734375">
        <ele>140</ele>
        <time>2022-01-07T09:07:17.000Z</time>
      </trkpt>
      <trkpt lat="41.46413262002170085906982421875" lon="2.14960939250886440277099609375">
        <ele>140.1999969482421875</ele>
        <time>2022-01-07T09:07:18.000Z</time>
      </trkpt>
      <trkpt lat="41.46414938382804393768310546875" lon="2.149587683379650115966796875">
        <ele>140.399993896484375</ele>
        <time>2022-01-07T09:07:19.000Z</time>
      </trkpt>
      <trkpt lat="41.464169919490814208984375" lon="2.149566225707530975341796875">
        <ele>140.600006103515625</ele>
        <time>2022-01-07T09:07:20.000Z</time>
      </trkpt>
      <trkpt lat="41.46419162862002849578857421875" lon="2.1495432592928409576416015625">
        <ele>140.600006103515625</ele>
        <time>2022-01-07T09:07:21.000Z</time>
      </trkpt>
      <trkpt lat="41.464207135140895843505859375" lon="2.14952440001070499420166015625">
        <ele>140.8000030517578125</ele>
        <time>2022-01-07T09:07:22.000Z</time>
      </trkpt>
      <trkpt lat="41.4642270840704441070556640625" lon="2.1494996733963489532470703125">
        <ele>141</ele>
        <time>2022-01-07T09:07:23.000Z</time>
      </trkpt>
      <trkpt lat="41.46424912847578525543212890625" lon="2.14948265813291072845458984375">
        <ele>141</ele>
        <time>2022-01-07T09:07:24.000Z</time>
      </trkpt>
      <trkpt lat="41.46427041850984096527099609375" lon="2.14946052990853786468505859375">
        <ele>141.1999969482421875</ele>
        <time>2022-01-07T09:07:25.000Z</time>
      </trkpt>
      <trkpt lat="41.46428986452519893646240234375" lon="2.14943253435194492340087890625">
        <ele>141.399993896484375</ele>
        <time>2022-01-07T09:07:26.000Z</time>
      </trkpt>
      <trkpt lat="41.46430143155157566070556640625" lon="2.149409987032413482666015625">
        <ele>141.600006103515625</ele>
        <time>2022-01-07T09:07:27.000Z</time>
      </trkpt>
      <trkpt lat="41.464313752949237823486328125" lon="2.14938224293291568756103515625">
        <ele>141.8000030517578125</ele>
        <time>2022-01-07T09:07:28.000Z</time>
      </trkpt>
      <trkpt lat="41.46432791836559772491455078125" lon="2.14935475029051303863525390625">
        <ele>142.1999969482421875</ele>
        <time>2022-01-07T09:07:29.000Z</time>
      </trkpt>
      <trkpt lat="41.4643451012670993804931640625" lon="2.149329520761966705322265625">
        <ele>142.1999969482421875</ele>
        <time>2022-01-07T09:07:30.000Z</time>
      </trkpt>
      <trkpt lat="41.46435641683638095855712890625" lon="2.14930529706180095672607421875">
        <ele>142.399993896484375</ele>
        <time>2022-01-07T09:07:31.000Z</time>
      </trkpt>
      <trkpt lat="41.46437904797494411468505859375" lon="2.149276547133922576904296875">
        <ele>142.600006103515625</ele>
        <time>2022-01-07T09:07:32.000Z</time>
      </trkpt>
      <trkpt lat="41.4643970690667629241943359375" lon="2.14925131760537624359130859375">
        <ele>142.600006103515625</ele>
        <time>2022-01-07T09:07:33.000Z</time>
      </trkpt>
      <trkpt lat="41.46441123448312282562255859375" lon="2.14922784827649593353271484375">
        <ele>142.8000030517578125</ele>
        <time>2022-01-07T09:07:34.000Z</time>
      </trkpt>
      <trkpt lat="41.4644265733659267425537109375" lon="2.149207480251789093017578125">
        <ele>143</ele>
        <time>2022-01-07T09:07:35.000Z</time>
      </trkpt>
      <trkpt lat="41.46444191224873065948486328125" lon="2.14918895624577999114990234375">
        <ele>143.399993896484375</ele>
        <time>2022-01-07T09:07:36.000Z</time>
      </trkpt>
      <trkpt lat="41.4644570834934711456298828125" lon="2.14916984550654888153076171875">
        <ele>143.600006103515625</ele>
        <time>2022-01-07T09:07:37.000Z</time>
      </trkpt>
      <trkpt lat="41.464472673833370208740234375" lon="2.14914369396865367889404296875">
        <ele>143.8000030517578125</ele>
        <time>2022-01-07T09:07:38.000Z</time>
      </trkpt>
      <trkpt lat="41.46447896026074886322021484375" lon="2.14911100454628467559814453125">
        <ele>144</ele>
        <time>2022-01-07T09:07:39.000Z</time>
      </trkpt>
      <trkpt lat="41.46449379622936248779296875" lon="2.14907982386648654937744140625">
        <ele>144.1999969482421875</ele>
        <time>2022-01-07T09:07:40.000Z</time>
      </trkpt>
      <trkpt lat="41.46451047621667385101318359375" lon="2.14906238950788974761962890625">
        <ele>144.1999969482421875</ele>
        <time>2022-01-07T09:07:41.000Z</time>
      </trkpt>
      <trkpt lat="41.46452866494655609130859375" lon="2.1490420214831829071044921875">
        <ele>144.399993896484375</ele>
        <time>2022-01-07T09:07:42.000Z</time>
      </trkpt>
      <trkpt lat="41.4645402319729328155517578125" lon="2.14901679195463657379150390625">
        <ele>144.600006103515625</ele>
        <time>2022-01-07T09:07:43.000Z</time>
      </trkpt>
      <trkpt lat="41.46454551257193088531494140625" lon="2.14899449609220027923583984375">
        <ele>144.8000030517578125</ele>
        <time>2022-01-07T09:07:44.000Z</time>
      </trkpt>
      <trkpt lat="41.46456127054989337921142578125" lon="2.148964740335941314697265625">
        <ele>145</ele>
        <time>2022-01-07T09:07:45.000Z</time>
      </trkpt>
      <trkpt lat="41.46456629969179630279541015625" lon="2.1489444561302661895751953125">
        <ele>145.1999969482421875</ele>
        <time>2022-01-07T09:07:46.000Z</time>
      </trkpt>
      <trkpt lat="41.46457694470882415771484375" lon="2.14892475865781307220458984375">
        <ele>145.399993896484375</ele>
        <time>2022-01-07T09:07:47.000Z</time>
      </trkpt>
      <trkpt lat="41.464590020477771759033203125" lon="2.1489067375659942626953125">
        <ele>145.600006103515625</ele>
        <time>2022-01-07T09:07:48.000Z</time>
      </trkpt>
      <trkpt lat="41.46460871212184429168701171875" lon="2.14888452552258968353271484375">
        <ele>145.8000030517578125</ele>
        <time>2022-01-07T09:07:49.000Z</time>
      </trkpt>
      <trkpt lat="41.4646263979375362396240234375" lon="2.14886088855564594268798828125">
        <ele>146</ele>
        <time>2022-01-07T09:07:50.000Z</time>
      </trkpt>
      <trkpt lat="41.46464743651449680328369140625" lon="2.14883406646549701690673828125">
        <ele>146.1999969482421875</ele>
        <time>2022-01-07T09:07:51.000Z</time>
      </trkpt>
      <trkpt lat="41.4646661281585693359375" lon="2.14881294406950473785400390625">
        <ele>146.1999969482421875</ele>
        <time>2022-01-07T09:07:52.000Z</time>
      </trkpt>
      <trkpt lat="41.46468020975589752197265625" lon="2.14878939092159271240234375">
        <ele>146.399993896484375</ele>
        <time>2022-01-07T09:07:53.000Z</time>
      </trkpt>
      <trkpt lat="41.4646889269351959228515625" lon="2.1487664245069026947021484375">
        <ele>146.399993896484375</ele>
        <time>2022-01-07T09:07:54.000Z</time>
      </trkpt>
      <trkpt lat="41.4646981470286846160888671875" lon="2.14873834513127803802490234375">
        <ele>146.399993896484375</ele>
        <time>2022-01-07T09:07:55.000Z</time>
      </trkpt>
      <trkpt lat="41.4647050201892852783203125" lon="2.1487134508788585662841796875">
        <ele>146.600006103515625</ele>
        <time>2022-01-07T09:07:56.000Z</time>
      </trkpt>
      <trkpt lat="41.46471365354955196380615234375" lon="2.148673720657825469970703125">
        <ele>146.8000030517578125</ele>
        <time>2022-01-07T09:07:57.000Z</time>
      </trkpt>
      <trkpt lat="41.46470879204571247100830078125" lon="2.14865184389054775238037109375">
        <ele>147</ele>
        <time>2022-01-07T09:07:58.000Z</time>
      </trkpt>
      <trkpt lat="41.464691273868083953857421875" lon="2.14863474480807781219482421875">
        <ele>147.1999969482421875</ele>
        <time>2022-01-07T09:07:59.000Z</time>
      </trkpt>
      <trkpt lat="41.4646699838340282440185546875" lon="2.148631475865840911865234375">
        <ele>147.1999969482421875</ele>
        <time>2022-01-07T09:08:00.000Z</time>
      </trkpt>
      <trkpt lat="41.464650370180606842041015625" lon="2.14864321053028106689453125">
        <ele>147.1999969482421875</ele>
        <time>2022-01-07T09:08:01.000Z</time>
      </trkpt>
      <trkpt lat="41.46463938988745212554931640625" lon="2.148666679859161376953125">
        <ele>147.399993896484375</ele>
        <time>2022-01-07T09:08:02.000Z</time>
      </trkpt>
      <trkpt lat="41.46463301964104175567626953125" lon="2.14868838898837566375732421875">
        <ele>147.600006103515625</ele>
        <time>2022-01-07T09:08:03.000Z</time>
      </trkpt>
      <trkpt lat="41.46461726166307926177978515625" lon="2.148707248270511627197265625">
        <ele>148</ele>
        <time>2022-01-07T09:08:04.000Z</time>
      </trkpt>
      <trkpt lat="41.46459932439029216766357421875" lon="2.14871889911592006683349609375">
        <ele>148.399993896484375</ele>
        <time>2022-01-07T09:08:05.000Z</time>
      </trkpt>
      <trkpt lat="41.46457719616591930389404296875" lon="2.1487365849316120147705078125">
        <ele>148.600006103515625</ele>
        <time>2022-01-07T09:08:06.000Z</time>
      </trkpt>
      <trkpt lat="41.464561186730861663818359375" lon="2.14875812642276287078857421875">
        <ele>149</ele>
        <time>2022-01-07T09:08:07.000Z</time>
      </trkpt>
      <trkpt lat="41.46454584784805774688720703125" lon="2.1487711183726787567138671875">
        <ele>149.399993896484375</ele>
        <time>2022-01-07T09:08:08.000Z</time>
      </trkpt>
      <trkpt lat="41.46452254615724086761474609375" lon="2.14878494851291179656982421875">
        <ele>149.8000030517578125</ele>
        <time>2022-01-07T09:08:09.000Z</time>
      </trkpt>
      <trkpt lat="41.4645030163228511810302734375" lon="2.14880154468119144439697265625">
        <ele>150</ele>
        <time>2022-01-07T09:08:10.000Z</time>
      </trkpt>
      <trkpt lat="41.464486755430698394775390625" lon="2.14881931431591510772705078125">
        <ele>150.1999969482421875</ele>
        <time>2022-01-07T09:08:11.000Z</time>
      </trkpt>
      <trkpt lat="41.46446722559630870819091796875" lon="2.148839347064495086669921875">
        <ele>150.399993896484375</ele>
        <time>2022-01-07T09:08:12.000Z</time>
      </trkpt>
      <trkpt lat="41.464454233646392822265625" lon="2.14885200373828411102294921875">
        <ele>150.600006103515625</ele>
        <time>2022-01-07T09:08:13.000Z</time>
      </trkpt>
      <trkpt lat="41.46444057114422321319580078125" lon="2.14886591769754886627197265625">
        <ele>150.600006103515625</ele>
        <time>2022-01-07T09:08:14.000Z</time>
      </trkpt>
      <trkpt lat="41.46442296914756298065185546875" lon="2.14888502843677997589111328125">
        <ele>150.8000030517578125</ele>
        <time>2022-01-07T09:08:15.000Z</time>
      </trkpt>
      <trkpt lat="41.46440955810248851776123046875" lon="2.1489012055099010467529296875">
        <ele>151.1999969482421875</ele>
        <time>2022-01-07T09:08:16.000Z</time>
      </trkpt>
      <trkpt lat="41.464391537010669708251953125" lon="2.14892576448619365692138671875">
        <ele>151.1999969482421875</ele>
        <time>2022-01-07T09:08:17.000Z</time>
      </trkpt>
      <trkpt lat="41.4643796347081661224365234375" lon="2.1489411033689975738525390625">
        <ele>151.8000030517578125</ele>
        <time>2022-01-07T09:08:18.000Z</time>
      </trkpt>
      <trkpt lat="41.46436546929180622100830078125" lon="2.14896046556532382965087890625">
        <ele>152</ele>
        <time>2022-01-07T09:08:19.000Z</time>
      </trkpt>
      <trkpt lat="41.46434937603771686553955078125" lon="2.14898091740906238555908203125">
        <ele>152.1999969482421875</ele>
        <time>2022-01-07T09:08:20.000Z</time>
      </trkpt>
      <trkpt lat="41.46432808600366115570068359375" lon="2.1490058116614818572998046875">
        <ele>152.399993896484375</ele>
        <time>2022-01-07T09:08:21.000Z</time>
      </trkpt>
      <trkpt lat="41.46430738270282745361328125" lon="2.14902651496231555938720703125">
        <ele>152.8000030517578125</ele>
        <time>2022-01-07T09:08:22.000Z</time>
      </trkpt>
      <trkpt lat="41.4642917923629283905029296875" lon="2.14904076419770717620849609375">
        <ele>152.8000030517578125</ele>
        <time>2022-01-07T09:08:23.000Z</time>
      </trkpt>
      <trkpt lat="41.46427427418529987335205078125" lon="2.14906138367950916290283203125">
        <ele>153</ele>
        <time>2022-01-07T09:08:24.000Z</time>
      </trkpt>
      <trkpt lat="41.4642562530934810638427734375" lon="2.14907932095229625701904296875">
        <ele>153.1999969482421875</ele>
        <time>2022-01-07T09:08:25.000Z</time>
      </trkpt>
      <trkpt lat="41.464238651096820831298828125" lon="2.14909826405346393585205078125">
        <ele>153.1999969482421875</ele>
        <time>2022-01-07T09:08:26.000Z</time>
      </trkpt>
      <trkpt lat="41.4642155170440673828125" lon="2.149124331772327423095703125">
        <ele>153.399993896484375</ele>
        <time>2022-01-07T09:08:27.000Z</time>
      </trkpt>
      <trkpt lat="41.46420068107545375823974609375" lon="2.14913631789386272430419921875">
        <ele>153.399993896484375</ele>
        <time>2022-01-07T09:08:28.000Z</time>
      </trkpt>
      <trkpt lat="41.46418265998363494873046875" lon="2.1491503156721591949462890625">
        <ele>153.600006103515625</ele>
        <time>2022-01-07T09:08:29.000Z</time>
      </trkpt>
      <trkpt lat="41.46416614763438701629638671875" lon="2.14916221797466278076171875">
        <ele>153.8000030517578125</ele>
        <time>2022-01-07T09:08:30.000Z</time>
      </trkpt>
      <trkpt lat="41.46414854563772678375244140625" lon="2.1491731144487857818603515625">
        <ele>154</ele>
        <time>2022-01-07T09:08:31.000Z</time>
      </trkpt>
      <trkpt lat="41.46412591449916362762451171875" lon="2.149188034236431121826171875">
        <ele>154.1999969482421875</ele>
        <time>2022-01-07T09:08:32.000Z</time>
      </trkpt>
      <trkpt lat="41.4641104079782962799072265625" lon="2.14919867925345897674560546875">
        <ele>154.600006103515625</ele>
        <time>2022-01-07T09:08:33.000Z</time>
      </trkpt>
      <trkpt lat="41.46409213542938232421875" lon="2.14921410195529460906982421875">
        <ele>154.8000030517578125</ele>
        <time>2022-01-07T09:08:34.000Z</time>
      </trkpt>
      <trkpt lat="41.46407243795692920684814453125" lon="2.14922969229519367218017578125">
        <ele>155</ele>
        <time>2022-01-07T09:08:35.000Z</time>
      </trkpt>
      <trkpt lat="41.4640537463128566741943359375" lon="2.1492378227412700653076171875">
        <ele>155.1999969482421875</ele>
        <time>2022-01-07T09:08:36.000Z</time>
      </trkpt>
      <trkpt lat="41.46403321065008640289306640625" lon="2.1492441929876804351806640625">
        <ele>155.600006103515625</ele>
        <time>2022-01-07T09:08:37.000Z</time>
      </trkpt>
      <trkpt lat="41.4640135131776332855224609375" lon="2.1492472104728221893310546875">
        <ele>155.8000030517578125</ele>
        <time>2022-01-07T09:08:38.000Z</time>
      </trkpt>
      <trkpt lat="41.46399297751486301422119140625" lon="2.1492495574057102203369140625">
        <ele>156</ele>
        <time>2022-01-07T09:08:39.000Z</time>
      </trkpt>
      <trkpt lat="41.46396565251052379608154296875" lon="2.14925475418567657470703125">
        <ele>156.1999969482421875</ele>
        <time>2022-01-07T09:08:40.000Z</time>
      </trkpt>
      <trkpt lat="41.4639451168477535247802734375" lon="2.1492581069469451904296875">
        <ele>156.399993896484375</ele>
        <time>2022-01-07T09:08:41.000Z</time>
      </trkpt>
      <trkpt lat="41.46391703747212886810302734375" lon="2.14926321990787982940673828125">
        <ele>156.8000030517578125</ele>
        <time>2022-01-07T09:08:42.000Z</time>
      </trkpt>
      <trkpt lat="41.4638944901525974273681640625" lon="2.14926145970821380615234375">
        <ele>157</ele>
        <time>2022-01-07T09:08:43.000Z</time>
      </trkpt>
      <trkpt lat="41.46387546323239803314208984375" lon="2.149259783327579498291015625">
        <ele>157.1999969482421875</ele>
        <time>2022-01-07T09:08:44.000Z</time>
      </trkpt>
      <trkpt lat="41.4638448692858219146728515625" lon="2.14926405809819698333740234375">
        <ele>157.399993896484375</ele>
        <time>2022-01-07T09:08:45.000Z</time>
      </trkpt>
      <trkpt lat="41.4638250879943370819091796875" lon="2.14926187880337238311767578125">
        <ele>157.8000030517578125</ele>
        <time>2022-01-07T09:08:46.000Z</time>
      </trkpt>
      <trkpt lat="41.46380715072154998779296875" lon="2.1492589451372623443603515625">
        <ele>157.8000030517578125</ele>
        <time>2022-01-07T09:08:47.000Z</time>
      </trkpt>
      <trkpt lat="41.4637908898293972015380859375" lon="2.14925148524343967437744140625">
        <ele>158</ele>
        <time>2022-01-07T09:08:48.000Z</time>
      </trkpt>
      <trkpt lat="41.46377362310886383056640625" lon="2.14924025349318981170654296875">
        <ele>158.399993896484375</ele>
        <time>2022-01-07T09:08:49.000Z</time>
      </trkpt>
      <trkpt lat="41.46374872885644435882568359375" lon="2.14922466315329074859619140625">
        <ele>158.600006103515625</ele>
        <time>2022-01-07T09:08:50.000Z</time>
      </trkpt>
      <trkpt lat="41.46373062394559383392333984375" lon="2.1492146886885166168212890625">
        <ele>158.8000030517578125</ele>
        <time>2022-01-07T09:08:51.000Z</time>
      </trkpt>
      <trkpt lat="41.4637070707976818084716796875" lon="2.14919767342507839202880859375">
        <ele>159</ele>
        <time>2022-01-07T09:08:52.000Z</time>
      </trkpt>
      <trkpt lat="41.46369122900068759918212890625" lon="2.14918904006481170654296875">
        <ele>159.399993896484375</ele>
        <time>2022-01-07T09:08:53.000Z</time>
      </trkpt>
      <trkpt lat="41.4636711962521076202392578125" lon="2.1491788141429424285888671875">
        <ele>159.600006103515625</ele>
        <time>2022-01-07T09:08:54.000Z</time>
      </trkpt>
      <trkpt lat="41.46364496089518070220947265625" lon="2.1491654030978679656982421875">
        <ele>160</ele>
        <time>2022-01-07T09:08:55.000Z</time>
      </trkpt>
      <trkpt lat="41.463627777993679046630859375" lon="2.1491543389856815338134765625">
        <ele>160.1999969482421875</ele>
        <time>2022-01-07T09:08:56.000Z</time>
      </trkpt>
      <trkpt lat="41.4636038057506084442138671875" lon="2.14914503507316112518310546875">
        <ele>160.1999969482421875</ele>
        <time>2022-01-07T09:08:57.000Z</time>
      </trkpt>
      <trkpt lat="41.4635830186307430267333984375" lon="2.14913212694227695465087890625">
        <ele>160.399993896484375</ele>
        <time>2022-01-07T09:08:58.000Z</time>
      </trkpt>
      <trkpt lat="41.463560052216053009033203125" lon="2.14912055991590023040771484375">
        <ele>160.600006103515625</ele>
        <time>2022-01-07T09:08:59.000Z</time>
      </trkpt>
      <trkpt lat="41.463535241782665252685546875" lon="2.1491080708801746368408203125">
        <ele>161</ele>
        <time>2022-01-07T09:09:00.000Z</time>
      </trkpt>
      <trkpt lat="41.46350950933992862701416015625" lon="2.14909122325479984283447265625">
        <ele>161.1999969482421875</ele>
        <time>2022-01-07T09:09:01.000Z</time>
      </trkpt>
      <trkpt lat="41.4634827710688114166259765625" lon="2.14907596819102764129638671875">
        <ele>161.399993896484375</ele>
        <time>2022-01-07T09:09:02.000Z</time>
      </trkpt>
      <trkpt lat="41.46345368586480617523193359375" lon="2.1490651555359363555908203125">
        <ele>161.600006103515625</ele>
        <time>2022-01-07T09:09:03.000Z</time>
      </trkpt>
      <trkpt lat="41.46342703141272068023681640625" lon="2.14905836619436740875244140625">
        <ele>162</ele>
        <time>2022-01-07T09:09:04.000Z</time>
      </trkpt>
      <trkpt lat="41.463403813540935516357421875" lon="2.149047553539276123046875">
        <ele>162.1999969482421875</ele>
        <time>2022-01-07T09:09:05.000Z</time>
      </trkpt>
      <trkpt lat="41.46338160149753093719482421875" lon="2.14903556741774082183837890625">
        <ele>162.600006103515625</ele>
        <time>2022-01-07T09:09:06.000Z</time>
      </trkpt>
      <trkpt lat="41.46335947327315807342529296875" lon="2.1490252576768398284912109375">
        <ele>163</ele>
        <time>2022-01-07T09:09:07.000Z</time>
      </trkpt>
      <trkpt lat="41.46333969198167324066162109375" lon="2.14901746250689029693603515625">
        <ele>163.1999969482421875</ele>
        <time>2022-01-07T09:09:08.000Z</time>
      </trkpt>
      <trkpt lat="41.46331789903342723846435546875" lon="2.1490128524601459503173828125">
        <ele>163.399993896484375</ele>
        <time>2022-01-07T09:09:09.000Z</time>
      </trkpt>
      <trkpt lat="41.46329459734261035919189453125" lon="2.14900933206081390380859375">
        <ele>163.600006103515625</ele>
        <time>2022-01-07T09:09:10.000Z</time>
      </trkpt>
      <trkpt lat="41.46327079273760318756103515625" lon="2.14900690130889415740966796875">
        <ele>163.8000030517578125</ele>
        <time>2022-01-07T09:09:11.000Z</time>
      </trkpt>
      <trkpt lat="41.46324455738067626953125" lon="2.14900438673794269561767578125">
        <ele>164.1999969482421875</ele>
        <time>2022-01-07T09:09:12.000Z</time>
      </trkpt>
      <trkpt lat="41.46322787739336490631103515625" lon="2.14900128543376922607421875">
        <ele>164.399993896484375</ele>
        <time>2022-01-07T09:09:13.000Z</time>
      </trkpt>
      <trkpt lat="41.4632051624357700347900390625" lon="2.14899583719670772552490234375">
        <ele>164.8000030517578125</ele>
        <time>2022-01-07T09:09:14.000Z</time>
      </trkpt>
      <trkpt lat="41.46318093873560428619384765625" lon="2.148990221321582794189453125">
        <ele>165</ele>
        <time>2022-01-07T09:09:15.000Z</time>
      </trkpt>
      <trkpt lat="41.463155038654804229736328125" lon="2.14898519217967987060546875">
        <ele>165.1999969482421875</ele>
        <time>2022-01-07T09:09:16.000Z</time>
      </trkpt>
      <trkpt lat="41.46313098259270191192626953125" lon="2.14897991158068180084228515625">
        <ele>165.600006103515625</ele>
        <time>2022-01-07T09:09:17.000Z</time>
      </trkpt>
      <trkpt lat="41.4631072618067264556884765625" lon="2.1489746309816837310791015625">
        <ele>165.8000030517578125</ele>
        <time>2022-01-07T09:09:18.000Z</time>
      </trkpt>
      <trkpt lat="41.4630849659442901611328125" lon="2.14897044003009796142578125">
        <ele>166.1999969482421875</ele>
        <time>2022-01-07T09:09:19.000Z</time>
      </trkpt>
      <trkpt lat="41.46306216716766357421875" lon="2.14896415360271930694580078125">
        <ele>166.399993896484375</ele>
        <time>2022-01-07T09:09:20.000Z</time>
      </trkpt>
      <trkpt lat="41.46303894929587841033935546875" lon="2.14895568788051605224609375">
        <ele>166.600006103515625</ele>
        <time>2022-01-07T09:09:21.000Z</time>
      </trkpt>
      <trkpt lat="41.4630130492150783538818359375" lon="2.1489498205482959747314453125">
        <ele>166.8000030517578125</ele>
        <time>2022-01-07T09:09:22.000Z</time>
      </trkpt>
      <trkpt lat="41.46299402229487895965576171875" lon="2.1489484794437885284423828125">
        <ele>167.1999969482421875</ele>
        <time>2022-01-07T09:09:23.000Z</time>
      </trkpt>
      <trkpt lat="41.46296820603311061859130859375" lon="2.14894571341574192047119140625">
        <ele>167.399993896484375</ele>
        <time>2022-01-07T09:09:24.000Z</time>
      </trkpt>
      <trkpt lat="41.4629423059523105621337890625" lon="2.14894034899771213531494140625">
        <ele>167.600006103515625</ele>
        <time>2022-01-07T09:09:25.000Z</time>
      </trkpt>
      <trkpt lat="41.46291707642376422882080078125" lon="2.14893649332225322723388671875">
        <ele>168</ele>
        <time>2022-01-07T09:09:26.000Z</time>
      </trkpt>
      <trkpt lat="41.4628923498094081878662109375" lon="2.1489322185516357421875">
        <ele>168.1999969482421875</ele>
        <time>2022-01-07T09:09:27.000Z</time>
      </trkpt>
      <trkpt lat="41.4628672040998935699462890625" lon="2.14892844669520854949951171875">
        <ele>168.399993896484375</ele>
        <time>2022-01-07T09:09:28.000Z</time>
      </trkpt>
      <trkpt lat="41.462838537991046905517578125" lon="2.148927859961986541748046875">
        <ele>168.399993896484375</ele>
        <time>2022-01-07T09:09:29.000Z</time>
      </trkpt>
      <trkpt lat="41.4628209359943866729736328125" lon="2.148927859961986541748046875">
        <ele>168.8000030517578125</ele>
        <time>2022-01-07T09:09:30.000Z</time>
      </trkpt>
      <trkpt lat="41.46279838867485523223876953125" lon="2.148931212723255157470703125">
        <ele>169</ele>
        <time>2022-01-07T09:09:31.000Z</time>
      </trkpt>
      <trkpt lat="41.4627756737172603607177734375" lon="2.14893448166549205780029296875">
        <ele>169</ele>
        <time>2022-01-07T09:09:32.000Z</time>
      </trkpt>
      <trkpt lat="41.46275228820741176605224609375" lon="2.1489384211599826812744140625">
        <ele>169.399993896484375</ele>
        <time>2022-01-07T09:09:33.000Z</time>
      </trkpt>
      <trkpt lat="41.46272890269756317138671875" lon="2.14894303120672702789306640625">
        <ele>169.600006103515625</ele>
        <time>2022-01-07T09:09:34.000Z</time>
      </trkpt>
      <trkpt lat="41.462705768644809722900390625" lon="2.14894822798669338226318359375">
        <ele>169.8000030517578125</ele>
        <time>2022-01-07T09:09:35.000Z</time>
      </trkpt>
      <trkpt lat="41.46268120966851711273193359375" lon="2.14895434677600860595703125">
        <ele>170.1999969482421875</ele>
        <time>2022-01-07T09:09:36.000Z</time>
      </trkpt>
      <trkpt lat="41.46265321411192417144775390625" lon="2.14896147139370441436767578125">
        <ele>170.399993896484375</ele>
        <time>2022-01-07T09:09:37.000Z</time>
      </trkpt>
      <trkpt lat="41.46263745613396167755126953125" lon="2.14896482415497303009033203125">
        <ele>170.600006103515625</ele>
        <time>2022-01-07T09:09:38.000Z</time>
      </trkpt>
      <trkpt lat="41.462613902986049652099609375" lon="2.1489729546010494232177734375">
        <ele>170.8000030517578125</ele>
        <time>2022-01-07T09:09:39.000Z</time>
      </trkpt>
      <trkpt lat="41.462592445313930511474609375" lon="2.1489773131906986236572265625">
        <ele>171</ele>
        <time>2022-01-07T09:09:40.000Z</time>
      </trkpt>
      <trkpt lat="41.462569646537303924560546875" lon="2.14897957630455493927001953125">
        <ele>171.399993896484375</ele>
        <time>2022-01-07T09:09:41.000Z</time>
      </trkpt>
      <trkpt lat="41.462546177208423614501953125" lon="2.14898091740906238555908203125">
        <ele>171.600006103515625</ele>
        <time>2022-01-07T09:09:42.000Z</time>
      </trkpt>
      <trkpt lat="41.46252312697470188140869140625" lon="2.14898125268518924713134765625">
        <ele>171.8000030517578125</ele>
        <time>2022-01-07T09:09:43.000Z</time>
      </trkpt>
      <trkpt lat="41.4624980650842189788818359375" lon="2.14898125268518924713134765625">
        <ele>172</ele>
        <time>2022-01-07T09:09:44.000Z</time>
      </trkpt>
      <trkpt lat="41.462471075356006622314453125" lon="2.14898376725614070892333984375">
        <ele>172.600006103515625</ele>
        <time>2022-01-07T09:09:45.000Z</time>
      </trkpt>
      <trkpt lat="41.46243922412395477294921875" lon="2.14898929931223392486572265625">
        <ele>172.8000030517578125</ele>
        <time>2022-01-07T09:09:46.000Z</time>
      </trkpt>
      <trkpt lat="41.462416760623455047607421875" lon="2.14899122714996337890625">
        <ele>173.399993896484375</ele>
        <time>2022-01-07T09:09:47.000Z</time>
      </trkpt>
      <trkpt lat="41.46240142174065113067626953125" lon="2.14899281971156597137451171875">
        <ele>173.600006103515625</ele>
        <time>2022-01-07T09:09:48.000Z</time>
      </trkpt>
      <trkpt lat="41.4623813889920711517333984375" lon="2.14899499900639057159423828125">
        <ele>173.8000030517578125</ele>
        <time>2022-01-07T09:09:49.000Z</time>
      </trkpt>
      <trkpt lat="41.46236185915768146514892578125" lon="2.14900086633861064910888671875">
        <ele>174</ele>
        <time>2022-01-07T09:09:50.000Z</time>
      </trkpt>
      <trkpt lat="41.46234534680843353271484375" lon="2.14900723658502101898193359375">
        <ele>174.1999969482421875</ele>
        <time>2022-01-07T09:09:51.000Z</time>
      </trkpt>
      <trkpt lat="41.462324224412441253662109375" lon="2.1490162052214145660400390625">
        <ele>174.399993896484375</ele>
        <time>2022-01-07T09:09:52.000Z</time>
      </trkpt>
      <trkpt lat="41.46230318583548069000244140625" lon="2.14902668260037899017333984375">
        <ele>174.600006103515625</ele>
        <time>2022-01-07T09:09:53.000Z</time>
      </trkpt>
      <trkpt lat="41.46228172816336154937744140625" lon="2.14903322048485279083251953125">
        <ele>174.8000030517578125</ele>
        <time>2022-01-07T09:09:54.000Z</time>
      </trkpt>
      <trkpt lat="41.46226077340543270111083984375" lon="2.14903908781707286834716796875">
        <ele>175</ele>
        <time>2022-01-07T09:09:55.000Z</time>
      </trkpt>
      <trkpt lat="41.462238729000091552734375" lon="2.14904981665313243865966796875">
        <ele>175.1999969482421875</ele>
        <time>2022-01-07T09:09:56.000Z</time>
      </trkpt>
      <trkpt lat="41.46222087554633617401123046875" lon="2.14906121604144573211669921875">
        <ele>175.600006103515625</ele>
        <time>2022-01-07T09:09:57.000Z</time>
      </trkpt>
      <trkpt lat="41.4622043631970882415771484375" lon="2.149071358144283294677734375">
        <ele>175.8000030517578125</ele>
        <time>2022-01-07T09:09:58.000Z</time>
      </trkpt>
      <trkpt lat="41.46218801848590373992919921875" lon="2.14907948859035968780517578125">
        <ele>176.1999969482421875</ele>
        <time>2022-01-07T09:09:59.000Z</time>
      </trkpt>
      <trkpt lat="41.46216941066086292266845703125" lon="2.149085439741611480712890625">
        <ele>176.1999969482421875</ele>
        <time>2022-01-07T09:10:00.000Z</time>
      </trkpt>
      <trkpt lat="41.46215013228356838226318359375" lon="2.14909139089286327362060546875">
        <ele>176.399993896484375</ele>
        <time>2022-01-07T09:10:01.000Z</time>
      </trkpt>
      <trkpt lat="41.46213018335402011871337890625" lon="2.14909742586314678192138671875">
        <ele>176.399993896484375</ele>
        <time>2022-01-07T09:10:02.000Z</time>
      </trkpt>
      <trkpt lat="41.462109647691249847412109375" lon="2.14910262264311313629150390625">
        <ele>176.8000030517578125</ele>
        <time>2022-01-07T09:10:03.000Z</time>
      </trkpt>
      <trkpt lat="41.46208927966654300689697265625" lon="2.14910924434661865234375">
        <ele>177</ele>
        <time>2022-01-07T09:10:04.000Z</time>
      </trkpt>
      <trkpt lat="41.46207050420343875885009765625" lon="2.14911519549787044525146484375">
        <ele>177.1999969482421875</ele>
        <time>2022-01-07T09:10:05.000Z</time>
      </trkpt>
      <trkpt lat="41.46205390803515911102294921875" lon="2.1491295285522937774658203125">
        <ele>177.399993896484375</ele>
        <time>2022-01-07T09:10:06.000Z</time>
      </trkpt>
      <trkpt lat="41.4620464481413364410400390625" lon="2.14913866482675075531005859375">
        <ele>177.600006103515625</ele>
        <time>2022-01-07T09:10:07.000Z</time>
      </trkpt>
      <trkpt lat="41.4620430953800678253173828125" lon="2.14914344251155853271484375">
        <ele>177.8000030517578125</ele>
        <time>2022-01-07T09:10:08.000Z</time>
      </trkpt>
      <trkpt lat="41.4620430953800678253173828125" lon="2.14914344251155853271484375">
        <ele>178</ele>
        <time>2022-01-07T09:10:09.000Z</time>
      </trkpt>
      <trkpt lat="41.46206329576671123504638671875" lon="2.14913413859903812408447265625">
        <ele>178.399993896484375</ele>
        <time>2022-01-07T09:10:31.000Z</time>
      </trkpt>
      <trkpt lat="41.46208114922046661376953125" lon="2.14913070201873779296875">
        <ele>178.399993896484375</ele>
        <time>2022-01-07T09:10:32.000Z</time>
      </trkpt>
      <trkpt lat="41.46210034377872943878173828125" lon="2.14912810362875461578369140625">
        <ele>178.399993896484375</ele>
        <time>2022-01-07T09:10:33.000Z</time>
      </trkpt>
      <trkpt lat="41.46211802959442138671875" lon="2.14911921881139278411865234375">
        <ele>178.399993896484375</ele>
        <time>2022-01-07T09:10:34.000Z</time>
      </trkpt>
      <trkpt lat="41.46213554777204990386962890625" lon="2.14910547249019145965576171875">
        <ele>178.399993896484375</ele>
        <time>2022-01-07T09:10:35.000Z</time>
      </trkpt>
      <trkpt lat="41.46215021610260009765625" lon="2.14908845722675323486328125">
        <ele>178.399993896484375</ele>
        <time>2022-01-07T09:10:36.000Z</time>
      </trkpt>
      <trkpt lat="41.462163962423801422119140625" lon="2.14906741864979267120361328125">
        <ele>178.1999969482421875</ele>
        <time>2022-01-07T09:10:37.000Z</time>
      </trkpt>
      <trkpt lat="41.4621810615062713623046875" lon="2.1490497328341007232666015625">
        <ele>178.1999969482421875</ele>
        <time>2022-01-07T09:10:38.000Z</time>
      </trkpt>
      <trkpt lat="41.4621998369693756103515625" lon="2.14904017746448516845703125">
        <ele>178.1999969482421875</ele>
        <time>2022-01-07T09:10:39.000Z</time>
      </trkpt>
      <trkpt lat="41.46221986971795558929443359375" lon="2.1490366570651531219482421875">
        <ele>178.1999969482421875</ele>
        <time>2022-01-07T09:10:40.000Z</time>
      </trkpt>
      <trkpt lat="41.4622415788471698760986328125" lon="2.14903590269386768341064453125">
        <ele>178</ele>
        <time>2022-01-07T09:10:41.000Z</time>
      </trkpt>
      <trkpt lat="41.46225876174867153167724609375" lon="2.14903925545513629913330078125">
        <ele>178</ele>
        <time>2022-01-07T09:10:42.000Z</time>
      </trkpt>
      <trkpt lat="41.4622730948030948638916015625" lon="2.14904579333961009979248046875">
        <ele>177.8000030517578125</ele>
        <time>2022-01-07T09:10:43.000Z</time>
      </trkpt>
      <trkpt lat="41.46228156052529811859130859375" lon="2.14905484579503536224365234375">
        <ele>177.8000030517578125</ele>
        <time>2022-01-07T09:10:44.000Z</time>
      </trkpt>
      <trkpt lat="41.462281644344329833984375" lon="2.14906808920204639434814453125">
        <ele>177.600006103515625</ele>
        <time>2022-01-07T09:10:45.000Z</time>
      </trkpt>
      <trkpt lat="41.46227301098406314849853515625" lon="2.1490846015512943267822265625">
        <ele>177.600006103515625</ele>
        <time>2022-01-07T09:10:46.000Z</time>
      </trkpt>
      <trkpt lat="41.46225557662546634674072265625" lon="2.1491030417382717132568359375">
        <ele>177.399993896484375</ele>
        <time>2022-01-07T09:10:47.000Z</time>
      </trkpt>
      <trkpt lat="41.46223629824817180633544921875" lon="2.14912600815296173095703125">
        <ele>177.1999969482421875</ele>
        <time>2022-01-07T09:10:48.000Z</time>
      </trkpt>
      <trkpt lat="41.46221601404249668121337890625" lon="2.1491456218063831329345703125">
        <ele>177</ele>
        <time>2022-01-07T09:10:49.000Z</time>
      </trkpt>
      <trkpt lat="41.4621949754655361175537109375" lon="2.14916096068918704986572265625">
        <ele>176.8000030517578125</ele>
        <time>2022-01-07T09:10:50.000Z</time>
      </trkpt>
      <trkpt lat="41.4621758647263050079345703125" lon="2.14917554520070552825927734375">
        <ele>176.399993896484375</ele>
        <time>2022-01-07T09:10:51.000Z</time>
      </trkpt>
      <trkpt lat="41.46215633489191532135009765625" lon="2.14918769896030426025390625">
        <ele>176.1999969482421875</ele>
        <time>2022-01-07T09:10:52.000Z</time>
      </trkpt>
      <trkpt lat="41.46213554777204990386962890625" lon="2.14920245110988616943359375">
        <ele>176.1999969482421875</ele>
        <time>2022-01-07T09:10:53.000Z</time>
      </trkpt>
      <trkpt lat="41.4621114917099475860595703125" lon="2.14921988546848297119140625">
        <ele>176</ele>
        <time>2022-01-07T09:10:54.000Z</time>
      </trkpt>
      <trkpt lat="41.46208475343883037567138671875" lon="2.14923606254160404205322265625">
        <ele>175.600006103515625</ele>
        <time>2022-01-07T09:10:55.000Z</time>
      </trkpt>
      <trkpt lat="41.462061367928981781005859375" lon="2.1492472104728221893310546875">
        <ele>175.600006103515625</ele>
        <time>2022-01-07T09:10:56.000Z</time>
      </trkpt>
      <trkpt lat="41.46203781478106975555419921875" lon="2.14925634674727916717529296875">
        <ele>175.399993896484375</ele>
        <time>2022-01-07T09:10:57.000Z</time>
      </trkpt>
      <trkpt lat="41.46201501600444316864013671875" lon="2.1492750383913516998291015625">
        <ele>175.399993896484375</ele>
        <time>2022-01-07T09:10:58.000Z</time>
      </trkpt>
      <trkpt lat="41.461991630494594573974609375" lon="2.1492981724441051483154296875">
        <ele>175.1999969482421875</ele>
        <time>2022-01-07T09:10:59.000Z</time>
      </trkpt>
      <trkpt lat="41.46196790970861911773681640625" lon="2.1493251621723175048828125">
        <ele>175.1999969482421875</ele>
        <time>2022-01-07T09:11:00.000Z</time>
      </trkpt>
      <trkpt lat="41.46194762550294399261474609375" lon="2.1493524871766567230224609375">
        <ele>175.1999969482421875</ele>
        <time>2022-01-07T09:11:01.000Z</time>
      </trkpt>
      <trkpt lat="41.4619230665266513824462890625" lon="2.14937268756330013275146484375">
        <ele>175.1999969482421875</ele>
        <time>2022-01-07T09:11:02.000Z</time>
      </trkpt>
      <trkpt lat="41.46189481951296329498291015625" lon="2.1493870206177234649658203125">
        <ele>175.1999969482421875</ele>
        <time>2022-01-07T09:11:03.000Z</time>
      </trkpt>
      <trkpt lat="41.46186464466154575347900390625" lon="2.14939950965344905853271484375">
        <ele>175.399993896484375</ele>
        <time>2022-01-07T09:11:04.000Z</time>
      </trkpt>
      <trkpt lat="41.4618328772485256195068359375" lon="2.14940604753792285919189453125">
        <ele>175.1999969482421875</ele>
        <time>2022-01-07T09:11:05.000Z</time>
      </trkpt>
      <trkpt lat="41.46180228330194950103759765625" lon="2.1494091488420963287353515625">
        <ele>175.399993896484375</ele>
        <time>2022-01-07T09:11:06.000Z</time>
      </trkpt>
      <trkpt lat="41.46177537739276885986328125" lon="2.1494064666330814361572265625">
        <ele>175.399993896484375</ele>
        <time>2022-01-07T09:11:07.000Z</time>
      </trkpt>
      <trkpt lat="41.46174964495003223419189453125" lon="2.149394564330577850341796875">
        <ele>175.399993896484375</ele>
        <time>2022-01-07T09:11:08.000Z</time>
      </trkpt>
      <trkpt lat="41.4617264270782470703125" lon="2.14938123710453510284423828125">
        <ele>175.399993896484375</ele>
        <time>2022-01-07T09:11:09.000Z</time>
      </trkpt>
      <trkpt lat="41.46170538850128650665283203125" lon="2.149369083344936370849609375">
        <ele>175.600006103515625</ele>
        <time>2022-01-07T09:11:10.000Z</time>
      </trkpt>
      <trkpt lat="41.46168686449527740478515625" lon="2.1493595279753208160400390625">
        <ele>175.600006103515625</ele>
        <time>2022-01-07T09:11:11.000Z</time>
      </trkpt>
      <trkpt lat="41.4616719447076320648193359375" lon="2.14935458265244960784912109375">
        <ele>175.600006103515625</ele>
        <time>2022-01-07T09:11:12.000Z</time>
      </trkpt>
      <trkpt lat="41.4616622216999530792236328125" lon="2.14935039170086383819580078125">
        <ele>175.600006103515625</ele>
        <time>2022-01-07T09:11:13.000Z</time>
      </trkpt>
      <trkpt lat="41.46165727637708187103271484375" lon="2.14934469200670719146728515625">
        <ele>175.600006103515625</ele>
        <time>2022-01-07T09:11:14.000Z</time>
      </trkpt>
      <trkpt lat="41.46165358833968639373779296875" lon="2.14933765120804309844970703125">
        <ele>175.600006103515625</ele>
        <time>2022-01-07T09:11:15.000Z</time>
      </trkpt>
      <trkpt lat="41.461648643016815185546875" lon="2.1493320353329181671142578125">
        <ele>175.8000030517578125</ele>
        <time>2022-01-07T09:11:16.000Z</time>
      </trkpt>
      <trkpt lat="41.46164336241781711578369140625" lon="2.149325497448444366455078125">
        <ele>175.8000030517578125</ele>
        <time>2022-01-07T09:11:17.000Z</time>
      </trkpt>
      <trkpt lat="41.46163883619010448455810546875" lon="2.1493182890117168426513671875">
        <ele>175.8000030517578125</ele>
        <time>2022-01-07T09:11:18.000Z</time>
      </trkpt>
      <trkpt lat="41.4616380818188190460205078125" lon="2.14931485243141651153564453125">
        <ele>176</ele>
        <time>2022-01-07T09:11:19.000Z</time>
      </trkpt>
      <trkpt lat="41.4616380818188190460205078125" lon="2.14931485243141651153564453125">
        <ele>176</ele>
        <time>2022-01-07T09:11:20.000Z</time>
      </trkpt>
      <trkpt lat="41.4616380818188190460205078125" lon="2.14931485243141651153564453125">
        <ele>176</ele>
        <time>2022-01-07T09:11:21.000Z</time>
      </trkpt>
      <trkpt lat="41.461527608335018157958984375" lon="2.14923975057899951934814453125">
        <ele>176.8000030517578125</ele>
        <time>2022-01-07T09:12:25.000Z</time>
      </trkpt>
      <trkpt lat="41.4615036360919475555419921875" lon="2.14921846054494380950927734375">
        <ele>176.8000030517578125</ele>
        <time>2022-01-07T09:12:26.000Z</time>
      </trkpt>
      <trkpt lat="41.46147572435438632965087890625" lon="2.14920085854828357696533203125">
        <ele>176.8000030517578125</ele>
        <time>2022-01-07T09:12:27.000Z</time>
      </trkpt>
      <trkpt lat="41.46144622005522251129150390625" lon="2.14918501675128936767578125">
        <ele>176.8000030517578125</ele>
        <time>2022-01-07T09:12:28.000Z</time>
      </trkpt>
      <trkpt lat="41.461417973041534423828125" lon="2.14916615746915340423583984375">
        <ele>176.8000030517578125</ele>
        <time>2022-01-07T09:12:29.000Z</time>
      </trkpt>
      <trkpt lat="41.4613980241119861602783203125" lon="2.14914620853960514068603515625">
        <ele>176.8000030517578125</ele>
        <time>2022-01-07T09:12:30.000Z</time>
      </trkpt>
      <trkpt lat="41.46138285286724567413330078125" lon="2.14913162402808666229248046875">
        <ele>176.8000030517578125</ele>
        <time>2022-01-07T09:12:31.000Z</time>
      </trkpt>
      <trkpt lat="41.4613675139844417572021484375" lon="2.149122655391693115234375">
        <ele>176.8000030517578125</ele>
        <time>2022-01-07T09:12:32.000Z</time>
      </trkpt>
      <trkpt lat="41.461348570883274078369140625" lon="2.149115614593029022216796875">
        <ele>176.8000030517578125</ele>
        <time>2022-01-07T09:12:33.000Z</time>
      </trkpt>
      <trkpt lat="41.461328454315662384033203125" lon="2.149109579622745513916015625">
        <ele>177</ele>
        <time>2022-01-07T09:12:34.000Z</time>
      </trkpt>
      <trkpt lat="41.46130875684320926666259765625" lon="2.1491023711860179901123046875">
        <ele>177.1999969482421875</ele>
        <time>2022-01-07T09:12:35.000Z</time>
      </trkpt>
      <trkpt lat="41.46128813736140727996826171875" lon="2.1490916423499584197998046875">
        <ele>177.600006103515625</ele>
        <time>2022-01-07T09:12:36.000Z</time>
      </trkpt>
      <trkpt lat="41.46126885898411273956298828125" lon="2.14907865040004253387451171875">
        <ele>178</ele>
        <time>2022-01-07T09:12:37.000Z</time>
      </trkpt>
      <trkpt lat="41.4612488262355327606201171875" lon="2.14906699955463409423828125">
        <ele>178.1999969482421875</ele>
        <time>2022-01-07T09:12:38.000Z</time>
      </trkpt>
      <trkpt lat="41.4612263627350330352783203125" lon="2.14905987493693828582763671875">
        <ele>178.399993896484375</ele>
        <time>2022-01-07T09:12:39.000Z</time>
      </trkpt>
      <trkpt lat="41.46120314486324787139892578125" lon="2.1490577794611454010009765625">
        <ele>178.399993896484375</ele>
        <time>2022-01-07T09:12:40.000Z</time>
      </trkpt>
      <trkpt lat="41.4611827768385410308837890625" lon="2.1490591205656528472900390625">
        <ele>178.399993896484375</ele>
        <time>2022-01-07T09:12:41.000Z</time>
      </trkpt>
      <trkpt lat="41.4611640013754367828369140625" lon="2.149058282375335693359375">
        <ele>178.600006103515625</ele>
        <time>2022-01-07T09:12:42.000Z</time>
      </trkpt>
      <trkpt lat="41.461144387722015380859375" lon="2.1490561030805110931396484375">
        <ele>178.600006103515625</ele>
        <time>2022-01-07T09:12:43.000Z</time>
      </trkpt>
      <trkpt lat="41.4611254446208477020263671875" lon="2.1490554325282573699951171875">
        <ele>178.600006103515625</ele>
        <time>2022-01-07T09:12:44.000Z</time>
      </trkpt>
      <trkpt lat="41.46110893227159976959228515625" lon="2.1490544266998767852783203125">
        <ele>178.600006103515625</ele>
        <time>2022-01-07T09:12:45.000Z</time>
      </trkpt>
      <trkpt lat="41.46109384484589099884033203125" lon="2.14905300177633762359619140625">
        <ele>178.600006103515625</ele>
        <time>2022-01-07T09:12:46.000Z</time>
      </trkpt>
      <trkpt lat="41.4610813558101654052734375" lon="2.149055935442447662353515625">
        <ele>178.8000030517578125</ele>
        <time>2022-01-07T09:12:47.000Z</time>
      </trkpt>
      <trkpt lat="41.4610707946121692657470703125" lon="2.14905970729887485504150390625">
        <ele>178.8000030517578125</ele>
        <time>2022-01-07T09:12:48.000Z</time>
      </trkpt>
      <trkpt lat="41.46106325089931488037109375" lon="2.14905870147049427032470703125">
        <ele>178.8000030517578125</ele>
        <time>2022-01-07T09:12:49.000Z</time>
      </trkpt>
      <trkpt lat="41.46105545572936534881591796875" lon="2.1490547619760036468505859375">
        <ele>178.8000030517578125</ele>
        <time>2022-01-07T09:12:50.000Z</time>
      </trkpt>
      <trkpt lat="41.461050845682621002197265625" lon="2.14905333705246448516845703125">
        <ele>178.8000030517578125</ele>
        <time>2022-01-07T09:12:51.000Z</time>
      </trkpt>
      <trkpt lat="41.461050845682621002197265625" lon="2.14905333705246448516845703125">
        <ele>178.8000030517578125</ele>
        <time>2022-01-07T09:12:52.000Z</time>
      </trkpt>
      <trkpt lat="41.461050845682621002197265625" lon="2.14905333705246448516845703125">
        <ele>178.8000030517578125</ele>
        <time>2022-01-07T09:12:53.000Z</time>
      </trkpt>
      <trkpt lat="41.46102813072502613067626953125" lon="2.14905937202274799346923828125">
        <ele>178.8000030517578125</ele>
        <time>2022-01-07T09:13:22.000Z</time>
      </trkpt>
      <trkpt lat="41.46100851707160472869873046875" lon="2.1490676701068878173828125">
        <ele>178.8000030517578125</ele>
        <time>2022-01-07T09:13:23.000Z</time>
      </trkpt>
      <trkpt lat="41.4609847962856292724609375" lon="2.149076722562313079833984375">
        <ele>178.8000030517578125</ele>
        <time>2022-01-07T09:13:24.000Z</time>
      </trkpt>
      <trkpt lat="41.46095730364322662353515625" lon="2.149086780846118927001953125">
        <ele>178.8000030517578125</ele>
        <time>2022-01-07T09:13:25.000Z</time>
      </trkpt>
      <trkpt lat="41.46092654205858707427978515625" lon="2.1490953303873538970947265625">
        <ele>178.600006103515625</ele>
        <time>2022-01-07T09:13:26.000Z</time>
      </trkpt>
      <trkpt lat="41.4608957804739475250244140625" lon="2.1491020359098911285400390625">
        <ele>178.600006103515625</ele>
        <time>2022-01-07T09:13:27.000Z</time>
      </trkpt>
      <trkpt lat="41.4608666114509105682373046875" lon="2.14911100454628467559814453125">
        <ele>178.600006103515625</ele>
        <time>2022-01-07T09:13:28.000Z</time>
      </trkpt>
      <trkpt lat="41.46084129810333251953125" lon="2.1491194702684879302978515625">
        <ele>178.600006103515625</ele>
        <time>2022-01-07T09:13:29.000Z</time>
      </trkpt>
      <trkpt lat="41.46081791259348392486572265625" lon="2.14912910945713520050048828125">
        <ele>178.600006103515625</ele>
        <time>2022-01-07T09:13:30.000Z</time>
      </trkpt>
      <trkpt lat="41.46079930476844310760498046875" lon="2.14913933537900447845458984375">
        <ele>178.600006103515625</ele>
        <time>2022-01-07T09:13:31.000Z</time>
      </trkpt>
      <trkpt lat="41.46078052930533885955810546875" lon="2.149147801101207733154296875">
        <ele>178.600006103515625</ele>
        <time>2022-01-07T09:13:32.000Z</time>
      </trkpt>
      <trkpt lat="41.460759826004505157470703125" lon="2.1491580270230770111083984375">
        <ele>178.600006103515625</ele>
        <time>2022-01-07T09:13:33.000Z</time>
      </trkpt>
      <trkpt lat="41.46073602139949798583984375" lon="2.14916733093559741973876953125">
        <ele>178.600006103515625</ele>
        <time>2022-01-07T09:13:34.000Z</time>
      </trkpt>
      <trkpt lat="41.46071054041385650634765625" lon="2.14917873032391071319580078125">
        <ele>178.600006103515625</ele>
        <time>2022-01-07T09:13:35.000Z</time>
      </trkpt>
      <trkpt lat="41.46068447269499301910400390625" lon="2.14918945915997028350830078125">
        <ele>178.8000030517578125</ele>
        <time>2022-01-07T09:13:36.000Z</time>
      </trkpt>
      <trkpt lat="41.46065798588097095489501953125" lon="2.14919934980571269989013671875">
        <ele>179</ele>
        <time>2022-01-07T09:13:37.000Z</time>
      </trkpt>
      <trkpt lat="41.46063007414340972900390625" lon="2.1492049656808376312255859375">
        <ele>179</ele>
        <time>2022-01-07T09:13:38.000Z</time>
      </trkpt>
      <trkpt lat="41.46060300059616565704345703125" lon="2.14920856989920139312744140625">
        <ele>179.1999969482421875</ele>
        <time>2022-01-07T09:13:39.000Z</time>
      </trkpt>
      <trkpt lat="41.46057852543890476226806640625" lon="2.1492079831659793853759765625">
        <ele>179.399993896484375</ele>
        <time>2022-01-07T09:13:40.000Z</time>
      </trkpt>
      <trkpt lat="41.4605527929961681365966796875" lon="2.1492059715092182159423828125">
        <ele>179.399993896484375</ele>
        <time>2022-01-07T09:13:41.000Z</time>
      </trkpt>
      <trkpt lat="41.4605263061821460723876953125" lon="2.1492069773375988006591796875">
        <ele>179.399993896484375</ele>
        <time>2022-01-07T09:13:42.000Z</time>
      </trkpt>
      <trkpt lat="41.46050241775810718536376953125" lon="2.14921326376497745513916015625">
        <ele>179.399993896484375</ele>
        <time>2022-01-07T09:13:43.000Z</time>
      </trkpt>
      <trkpt lat="41.46047978661954402923583984375" lon="2.1492180414497852325439453125">
        <ele>179.600006103515625</ele>
        <time>2022-01-07T09:13:44.000Z</time>
      </trkpt>
      <trkpt lat="41.460456736385822296142578125" lon="2.14921510778367519378662109375">
        <ele>179.600006103515625</ele>
        <time>2022-01-07T09:13:45.000Z</time>
      </trkpt>
      <trkpt lat="41.46043351851403713226318359375" lon="2.14920873753726482391357421875">
        <ele>179.600006103515625</ele>
        <time>2022-01-07T09:13:46.000Z</time>
      </trkpt>
      <trkpt lat="41.46040921099483966827392578125" lon="2.1492029540240764617919921875">
        <ele>179.600006103515625</ele>
        <time>2022-01-07T09:13:47.000Z</time>
      </trkpt>
      <trkpt lat="41.4603864960372447967529296875" lon="2.1491955779492855072021484375">
        <ele>179.600006103515625</ele>
        <time>2022-01-07T09:13:48.000Z</time>
      </trkpt>
      <trkpt lat="41.46036176942288875579833984375" lon="2.1491885371506214141845703125">
        <ele>179.8000030517578125</ele>
        <time>2022-01-07T09:13:49.000Z</time>
      </trkpt>
      <trkpt lat="41.460334025323390960693359375" lon="2.149182669818401336669921875">
        <ele>180</ele>
        <time>2022-01-07T09:13:50.000Z</time>
      </trkpt>
      <trkpt lat="41.46030745469033718109130859375" lon="2.1491828374564647674560546875">
        <ele>180</ele>
        <time>2022-01-07T09:13:51.000Z</time>
      </trkpt>
      <trkpt lat="41.460284404456615447998046875" lon="2.14918141253292560577392578125">
        <ele>180.399993896484375</ele>
        <time>2022-01-07T09:13:52.000Z</time>
      </trkpt>
      <trkpt lat="41.4602624438703060150146484375" lon="2.149181999266147613525390625">
        <ele>180.600006103515625</ele>
        <time>2022-01-07T09:13:53.000Z</time>
      </trkpt>
      <trkpt lat="41.46024257875978946685791015625" lon="2.1491811610758304595947265625">
        <ele>180.8000030517578125</ele>
        <time>2022-01-07T09:13:54.000Z</time>
      </trkpt>
      <trkpt lat="41.46022330038249492645263671875" lon="2.1491791494190692901611328125">
        <ele>181</ele>
        <time>2022-01-07T09:13:55.000Z</time>
      </trkpt>
      <trkpt lat="41.4602047763764858245849609375" lon="2.14917571283876895904541015625">
        <ele>181.399993896484375</ele>
        <time>2022-01-07T09:13:56.000Z</time>
      </trkpt>
      <trkpt lat="41.46018348634243011474609375" lon="2.149177305400371551513671875">
        <ele>181.600006103515625</ele>
        <time>2022-01-07T09:13:57.000Z</time>
      </trkpt>
      <trkpt lat="41.46016110666096210479736328125" lon="2.14918074198067188262939453125">
        <ele>182</ele>
        <time>2022-01-07T09:13:58.000Z</time>
      </trkpt>
      <trkpt lat="41.460136882960796356201171875" lon="2.1491861902177333831787109375">
        <ele>182.399993896484375</ele>
        <time>2022-01-07T09:13:59.000Z</time>
      </trkpt>
      <trkpt lat="41.46010679192841053009033203125" lon="2.14919147081673145294189453125">
        <ele>182.8000030517578125</ele>
        <time>2022-01-07T09:14:00.000Z</time>
      </trkpt>
      <trkpt lat="41.46007443778216838836669921875" lon="2.1491979248821735382080078125">
        <ele>183.1999969482421875</ele>
        <time>2022-01-07T09:14:01.000Z</time>
      </trkpt>
      <trkpt lat="41.460043005645275115966796875" lon="2.149200774729251861572265625">
        <ele>183.600006103515625</ele>
        <time>2022-01-07T09:14:02.000Z</time>
      </trkpt>
      <trkpt lat="41.46001182496547698974609375" lon="2.149199433624744415283203125">
        <ele>183.8000030517578125</ele>
        <time>2022-01-07T09:14:03.000Z</time>
      </trkpt>
      <trkpt lat="41.4599791355431079864501953125" lon="2.1491925604641437530517578125">
        <ele>183.8000030517578125</ele>
        <time>2022-01-07T09:14:04.000Z</time>
      </trkpt>
      <trkpt lat="41.459946446120738983154296875" lon="2.14918325655162334442138671875">
        <ele>183.8000030517578125</ele>
        <time>2022-01-07T09:14:05.000Z</time>
      </trkpt>
      <trkpt lat="41.4599117450416088104248046875" lon="2.14918099343776702880859375">
        <ele>184.1999969482421875</ele>
        <time>2022-01-07T09:14:06.000Z</time>
      </trkpt>
      <trkpt lat="41.45987729541957378387451171875" lon="2.1491861902177333831787109375">
        <ele>184.1999969482421875</ele>
        <time>2022-01-07T09:14:07.000Z</time>
      </trkpt>
      <trkpt lat="41.45984292961657047271728515625" lon="2.14919415302574634552001953125">
        <ele>184.1999969482421875</ele>
        <time>2022-01-07T09:14:08.000Z</time>
      </trkpt>
      <trkpt lat="41.45980923436582088470458984375" lon="2.14920387603342533111572265625">
        <ele>184.1999969482421875</ele>
        <time>2022-01-07T09:14:09.000Z</time>
      </trkpt>
      <trkpt lat="41.459772773087024688720703125" lon="2.14921317994594573974609375">
        <ele>184.1999969482421875</ele>
        <time>2022-01-07T09:14:10.000Z</time>
      </trkpt>
      <trkpt lat="41.45973329432308673858642578125" lon="2.14921963401138782501220703125">
        <ele>184.1999969482421875</ele>
        <time>2022-01-07T09:14:11.000Z</time>
      </trkpt>
      <trkpt lat="41.45969331264495849609375" lon="2.14922818355262279510498046875">
        <ele>184.1999969482421875</ele>
        <time>2022-01-07T09:14:12.000Z</time>
      </trkpt>
      <trkpt lat="41.4596519060432910919189453125" lon="2.14923639781773090362548828125">
        <ele>184.1999969482421875</ele>
        <time>2022-01-07T09:14:13.000Z</time>
      </trkpt>
      <trkpt lat="41.45961276255548000335693359375" lon="2.1492445282638072967529296875">
        <ele>184.1999969482421875</ele>
        <time>2022-01-07T09:14:14.000Z</time>
      </trkpt>
      <trkpt lat="41.45957588218152523040771484375" lon="2.149251401424407958984375">
        <ele>184.1999969482421875</ele>
        <time>2022-01-07T09:14:15.000Z</time>
      </trkpt>
      <trkpt lat="41.45953933708369731903076171875" lon="2.1492581069469451904296875">
        <ele>184.1999969482421875</ele>
        <time>2022-01-07T09:14:16.000Z</time>
      </trkpt>
      <trkpt lat="41.4595030434429645538330078125" lon="2.14926053769886493682861328125">
        <ele>184.1999969482421875</ele>
        <time>2022-01-07T09:14:17.000Z</time>
      </trkpt>
      <trkpt lat="41.459470689296722412109375" lon="2.14926120825111865997314453125">
        <ele>184.1999969482421875</ele>
        <time>2022-01-07T09:14:18.000Z</time>
      </trkpt>
      <trkpt lat="41.4594403468072414398193359375" lon="2.1492602862417697906494140625">
        <ele>184.1999969482421875</ele>
        <time>2022-01-07T09:14:19.000Z</time>
      </trkpt>
      <trkpt lat="41.45940941758453845977783203125" lon="2.149257101118564605712890625">
        <ele>184.1999969482421875</ele>
        <time>2022-01-07T09:14:20.000Z</time>
      </trkpt>
      <trkpt lat="41.4593793265521526336669921875" lon="2.1492515690624713897705078125">
        <ele>184.1999969482421875</ele>
        <time>2022-01-07T09:14:21.000Z</time>
      </trkpt>
      <trkpt lat="41.4593471400439739227294921875" lon="2.14924679137766361236572265625">
        <ele>184.1999969482421875</ele>
        <time>2022-01-07T09:14:22.000Z</time>
      </trkpt>
      <trkpt lat="41.4593152888119220733642578125" lon="2.1492401696741580963134765625">
        <ele>184.399993896484375</ele>
        <time>2022-01-07T09:14:23.000Z</time>
      </trkpt>
      <trkpt lat="41.4592871256172657012939453125" lon="2.1492398343980312347412109375">
        <ele>184.8000030517578125</ele>
        <time>2022-01-07T09:14:24.000Z</time>
      </trkpt>
      <trkpt lat="41.45926139317452907562255859375" lon="2.14923438616096973419189453125">
        <ele>185.1999969482421875</ele>
        <time>2022-01-07T09:14:25.000Z</time>
      </trkpt>
      <trkpt lat="41.45924597047269344329833984375" lon="2.1492197178304195404052734375">
        <ele>185.399993896484375</ele>
        <time>2022-01-07T09:14:26.000Z</time>
      </trkpt>
      <trkpt lat="41.45923205651342868804931640625" lon="2.149197421967983245849609375">
        <ele>185.8000030517578125</ele>
        <time>2022-01-07T09:14:27.000Z</time>
      </trkpt>
      <trkpt lat="41.45922417752444744110107421875" lon="2.1491830050945281982421875">
        <ele>186</ele>
        <time>2022-01-07T09:14:28.000Z</time>
      </trkpt>
      <trkpt lat="41.45921193994581699371337890625" lon="2.14915928430855274200439453125">
        <ele>186.399993896484375</ele>
        <time>2022-01-07T09:14:29.000Z</time>
      </trkpt>
      <trkpt lat="41.4591922424733638763427734375" lon="2.14913112111389636993408203125">
        <ele>186.600006103515625</ele>
        <time>2022-01-07T09:14:30.000Z</time>
      </trkpt>
      <trkpt lat="41.459169946610927581787109375" lon="2.149102874100208282470703125">
        <ele>186.8000030517578125</ele>
        <time>2022-01-07T09:14:31.000Z</time>
      </trkpt>
      <trkpt lat="41.45914706401526927947998046875" lon="2.1490768902003765106201171875">
        <ele>187.1999969482421875</ele>
        <time>2022-01-07T09:14:32.000Z</time>
      </trkpt>
      <trkpt lat="41.4591260254383087158203125" lon="2.1490524150431156158447265625">
        <ele>187.399993896484375</ele>
        <time>2022-01-07T09:14:33.000Z</time>
      </trkpt>
      <trkpt lat="41.4591044001281261444091796875" lon="2.14902810752391815185546875">
        <ele>187.399993896484375</ele>
        <time>2022-01-07T09:14:34.000Z</time>
      </trkpt>
      <trkpt lat="41.4590832777321338653564453125" lon="2.14900153689086437225341796875">
        <ele>187.600006103515625</ele>
        <time>2022-01-07T09:14:35.000Z</time>
      </trkpt>
      <trkpt lat="41.45906123332679271697998046875" lon="2.148978151381015777587890625">
        <ele>187.600006103515625</ele>
        <time>2022-01-07T09:14:36.000Z</time>
      </trkpt>
      <trkpt lat="41.45903793163597583770751953125" lon="2.14895359240472316741943359375">
        <ele>187.600006103515625</ele>
        <time>2022-01-07T09:14:37.000Z</time>
      </trkpt>
      <trkpt lat="41.45901312120258808135986328125" lon="2.14892962016165256500244140625">
        <ele>187.600006103515625</ele>
        <time>2022-01-07T09:14:38.000Z</time>
      </trkpt>
      <trkpt lat="41.458984874188899993896484375" lon="2.1489082463085651397705078125">
        <ele>187.600006103515625</ele>
        <time>2022-01-07T09:14:39.000Z</time>
      </trkpt>
      <trkpt lat="41.458951346576213836669921875" lon="2.14888737536966800689697265625">
        <ele>187.600006103515625</ele>
        <time>2022-01-07T09:14:40.000Z</time>
      </trkpt>
      <trkpt lat="41.45891807042062282562255859375" lon="2.14886440895497798919677734375">
        <ele>187.600006103515625</ele>
        <time>2022-01-07T09:14:41.000Z</time>
      </trkpt>
      <trkpt lat="41.45888336934149265289306640625" lon="2.14883725158870220184326171875">
        <ele>187.600006103515625</ele>
        <time>2022-01-07T09:14:42.000Z</time>
      </trkpt>
      <trkpt lat="41.4588512666523456573486328125" lon="2.14880825020372867584228515625">
        <ele>187.600006103515625</ele>
        <time>2022-01-07T09:14:43.000Z</time>
      </trkpt>
      <trkpt lat="41.45881765522062778472900390625" lon="2.14877271093428134918212890625">
        <ele>187.600006103515625</ele>
        <time>2022-01-07T09:14:44.000Z</time>
      </trkpt>
      <trkpt lat="41.45877406932413578033447265625" lon="2.1487323939800262451171875">
        <ele>187.600006103515625</ele>
        <time>2022-01-07T09:14:45.000Z</time>
      </trkpt>
      <trkpt lat="41.458731405436992645263671875" lon="2.14868620969355106353759765625">
        <ele>187.600006103515625</ele>
        <time>2022-01-07T09:14:46.000Z</time>
      </trkpt>
      <trkpt lat="41.45868455059826374053955078125" lon="2.14862904511392116546630859375">
        <ele>187.8000030517578125</ele>
        <time>2022-01-07T09:14:47.000Z</time>
      </trkpt>
      <trkpt lat="41.45864129997789859771728515625" lon="2.14857590384781360626220703125">
        <ele>187.600006103515625</ele>
        <time>2022-01-07T09:14:48.000Z</time>
      </trkpt>
      <trkpt lat="41.45859620533883571624755859375" lon="2.14852041564881801605224609375">
        <ele>187.1999969482421875</ele>
        <time>2022-01-07T09:14:49.000Z</time>
      </trkpt>
      <trkpt lat="41.458555720746517181396484375" lon="2.148461826145648956298828125">
        <ele>187</ele>
        <time>2022-01-07T09:14:50.000Z</time>
      </trkpt>
      <trkpt lat="41.4585163258016109466552734375" lon="2.14840357191860675811767578125">
        <ele>186.399993896484375</ele>
        <time>2022-01-07T09:14:51.000Z</time>
      </trkpt>
      <trkpt lat="41.4584858156740665435791015625" lon="2.14833852834999561309814453125">
        <ele>186.1999969482421875</ele>
        <time>2022-01-07T09:14:52.000Z</time>
      </trkpt>
      <trkpt lat="41.4584529586136341094970703125" lon="2.14827147312462329864501953125">
        <ele>186</ele>
        <time>2022-01-07T09:14:53.000Z</time>
      </trkpt>
      <trkpt lat="41.458424963057041168212890625" lon="2.14821028523147106170654296875">
        <ele>185.600006103515625</ele>
        <time>2022-01-07T09:14:54.000Z</time>
      </trkpt>
      <trkpt lat="41.45842068828642368316650390625" lon="2.14814431965351104736328125">
        <ele>185.399993896484375</ele>
        <time>2022-01-07T09:14:55.000Z</time>
      </trkpt>
      <trkpt lat="41.4584372006356716156005859375" lon="2.1480724029242992401123046875">
        <ele>185.1999969482421875</ele>
        <time>2022-01-07T09:14:56.000Z</time>
      </trkpt>
      <trkpt lat="41.458475254476070404052734375" lon="2.14802437461912631988525390625">
        <ele>184.8000030517578125</ele>
        <time>2022-01-07T09:14:57.000Z</time>
      </trkpt>
      <trkpt lat="41.45850987173616886138916015625" lon="2.14799889363348484039306640625">
        <ele>184.399993896484375</ele>
        <time>2022-01-07T09:14:58.000Z</time>
      </trkpt>
      <trkpt lat="41.45855647511780261993408203125" lon="2.147965617477893829345703125">
        <ele>184</ele>
        <time>2022-01-07T09:14:59.000Z</time>
      </trkpt>
      <trkpt lat="41.45860492251813411712646484375" lon="2.14792680926620960235595703125">
        <ele>183.600006103515625</ele>
        <time>2022-01-07T09:15:00.000Z</time>
      </trkpt>
      <trkpt lat="41.45865739323198795318603515625" lon="2.14787987060844898223876953125">
        <ele>183.600006103515625</ele>
        <time>2022-01-07T09:15:01.000Z</time>
      </trkpt>
      <trkpt lat="41.45870299078524112701416015625" lon="2.14784198440611362457275390625">
        <ele>183.399993896484375</ele>
        <time>2022-01-07T09:15:02.000Z</time>
      </trkpt>
      <trkpt lat="41.45877071656286716461181640625" lon="2.14781080372631549835205078125">
        <ele>183.1999969482421875</ele>
        <time>2022-01-07T09:15:03.000Z</time>
      </trkpt>
      <trkpt lat="41.458819247782230377197265625" lon="2.14778867550194263458251953125">
        <ele>183</ele>
        <time>2022-01-07T09:15:04.000Z</time>
      </trkpt>
      <trkpt lat="41.4588784240186214447021484375" lon="2.1477518789470195770263671875">
        <ele>183</ele>
        <time>2022-01-07T09:15:05.000Z</time>
      </trkpt>
      <trkpt lat="41.45894162356853485107421875" lon="2.14770871214568614959716796875">
        <ele>182.8000030517578125</ele>
        <time>2022-01-07T09:15:06.000Z</time>
      </trkpt>
      <trkpt lat="41.4590081758797168731689453125" lon="2.1476690657436847686767578125">
        <ele>182.399993896484375</ele>
        <time>2022-01-07T09:15:07.000Z</time>
      </trkpt>
      <trkpt lat="41.45906860940158367156982421875" lon="2.1476335264742374420166015625">
        <ele>182.1999969482421875</ele>
        <time>2022-01-07T09:15:08.000Z</time>
      </trkpt>
      <trkpt lat="41.45912309177219867706298828125" lon="2.1476030163466930389404296875">
        <ele>181.8000030517578125</ele>
        <time>2022-01-07T09:15:09.000Z</time>
      </trkpt>
      <trkpt lat="41.45918562076985836029052734375" lon="2.1475725062191486358642578125">
        <ele>181.399993896484375</ele>
        <time>2022-01-07T09:15:10.000Z</time>
      </trkpt>
      <trkpt lat="41.45924362353980541229248046875" lon="2.14754878543317317962646484375">
        <ele>181.1999969482421875</ele>
        <time>2022-01-07T09:15:11.000Z</time>
      </trkpt>
      <trkpt lat="41.45929458551108837127685546875" lon="2.1475307643413543701171875">
        <ele>181.1999969482421875</ele>
        <time>2022-01-07T09:15:12.000Z</time>
      </trkpt>
      <trkpt lat="41.4593451283872127532958984375" lon="2.14750620536506175994873046875">
        <ele>181.1999969482421875</ele>
        <time>2022-01-07T09:15:13.000Z</time>
      </trkpt>
      <trkpt lat="41.4593920670449733734130859375" lon="2.14748340658843517303466796875">
        <ele>181.1999969482421875</ele>
        <time>2022-01-07T09:15:14.000Z</time>
      </trkpt>
      <trkpt lat="41.4594349823892116546630859375" lon="2.14746597222983837127685546875">
        <ele>181</ele>
        <time>2022-01-07T09:15:15.000Z</time>
      </trkpt>
      <trkpt lat="41.459481753408908843994140625" lon="2.14743143878877162933349609375">
        <ele>181.1999969482421875</ele>
        <time>2022-01-07T09:15:16.000Z</time>
      </trkpt>
      <trkpt lat="41.45951771177351474761962890625" lon="2.14739606715738773345947265625">
        <ele>181</ele>
        <time>2022-01-07T09:15:17.000Z</time>
      </trkpt>
      <trkpt lat="41.45954654552042484283447265625" lon="2.14736404828727245330810546875">
        <ele>181</ele>
        <time>2022-01-07T09:15:18.000Z</time>
      </trkpt>
      <trkpt lat="41.45958929322659969329833984375" lon="2.1473136730492115020751953125">
        <ele>181</ele>
        <time>2022-01-07T09:15:19.000Z</time>
      </trkpt>
      <trkpt lat="41.45961930043995380401611328125" lon="2.14727587066590785980224609375">
        <ele>181</ele>
        <time>2022-01-07T09:15:20.000Z</time>
      </trkpt>
      <trkpt lat="41.459658443927764892578125" lon="2.14721283875405788421630859375">
        <ele>181.399993896484375</ele>
        <time>2022-01-07T09:15:21.000Z</time>
      </trkpt>
      <trkpt lat="41.45968727767467498779296875" lon="2.14716129004955291748046875">
        <ele>181.8000030517578125</ele>
        <time>2022-01-07T09:15:22.000Z</time>
      </trkpt>
      <trkpt lat="41.45970848388969898223876953125" lon="2.1471202187240123748779296875">
        <ele>182</ele>
        <time>2022-01-07T09:15:23.000Z</time>
      </trkpt>
      <trkpt lat="41.45972055383026599884033203125" lon="2.14706045575439929962158203125">
        <ele>182.1999969482421875</ele>
        <time>2022-01-07T09:15:24.000Z</time>
      </trkpt>
      <trkpt lat="41.459717452526092529296875" lon="2.1469918079674243927001953125">
        <ele>182.399993896484375</ele>
        <time>2022-01-07T09:15:25.000Z</time>
      </trkpt>
      <trkpt lat="41.4596988447010517120361328125" lon="2.14695869944989681243896484375">
        <ele>182.600006103515625</ele>
        <time>2022-01-07T09:15:26.000Z</time>
      </trkpt>
      <trkpt lat="41.4596790634095668792724609375" lon="2.146922238171100616455078125">
        <ele>182.8000030517578125</ele>
        <time>2022-01-07T09:15:27.000Z</time>
      </trkpt>
      <trkpt lat="41.45965098403394222259521484375" lon="2.146882675588130950927734375">
        <ele>182.8000030517578125</ele>
        <time>2022-01-07T09:15:28.000Z</time>
      </trkpt>
      <trkpt lat="41.45962961018085479736328125" lon="2.1468580327928066253662109375">
        <ele>182.8000030517578125</ele>
        <time>2022-01-07T09:15:29.000Z</time>
      </trkpt>
      <trkpt lat="41.45959876477718353271484375" lon="2.1468333899974822998046875">
        <ele>183</ele>
        <time>2022-01-07T09:15:30.000Z</time>
      </trkpt>
      <trkpt lat="41.45956833846867084503173828125" lon="2.14680849574506282806396484375">
        <ele>183.1999969482421875</ele>
        <time>2022-01-07T09:15:31.000Z</time>
      </trkpt>
      <trkpt lat="41.45954688079655170440673828125" lon="2.1467765606939792633056640625">
        <ele>183.399993896484375</ele>
        <time>2022-01-07T09:15:32.000Z</time>
      </trkpt>
      <trkpt lat="41.45952508784830570220947265625" lon="2.1467390097677707672119140625">
        <ele>183.600006103515625</ele>
        <time>2022-01-07T09:15:33.000Z</time>
      </trkpt>
      <trkpt lat="41.45950161851942539215087890625" lon="2.14669869281351566314697265625">
        <ele>184</ele>
        <time>2022-01-07T09:15:34.000Z</time>
      </trkpt>
      <trkpt lat="41.459473706781864166259765625" lon="2.14665829204022884368896484375">
        <ele>184</ele>
        <time>2022-01-07T09:15:35.000Z</time>
      </trkpt>
      <trkpt lat="41.4594450406730175018310546875" lon="2.1466203220188617706298828125">
        <ele>184.600006103515625</ele>
        <time>2022-01-07T09:15:36.000Z</time>
      </trkpt>
      <trkpt lat="41.4594172127544879913330078125" lon="2.14658285491168498992919921875">
        <ele>184.8000030517578125</ele>
        <time>2022-01-07T09:15:37.000Z</time>
      </trkpt>
      <trkpt lat="41.459389217197895050048828125" lon="2.14654572308063507080078125">
        <ele>185</ele>
        <time>2022-01-07T09:15:38.000Z</time>
      </trkpt>
      <trkpt lat="41.4593551866710186004638671875" lon="2.1465106867253780364990234375">
        <ele>185.399993896484375</ele>
        <time>2022-01-07T09:15:39.000Z</time>
      </trkpt>
      <trkpt lat="41.45932073704898357391357421875" lon="2.14647858403623104095458984375">
        <ele>185.600006103515625</ele>
        <time>2022-01-07T09:15:40.000Z</time>
      </trkpt>
      <trkpt lat="41.459282599389553070068359375" lon="2.14644514024257659912109375">
        <ele>185.8000030517578125</ele>
        <time>2022-01-07T09:15:41.000Z</time>
      </trkpt>
      <trkpt lat="41.45924446173012256622314453125" lon="2.14641337282955646514892578125">
        <ele>186</ele>
        <time>2022-01-07T09:15:42.000Z</time>
      </trkpt>
      <trkpt lat="41.4592059887945652008056640625" lon="2.1463839523494243621826171875">
        <ele>186.1999969482421875</ele>
        <time>2022-01-07T09:15:43.000Z</time>
      </trkpt>
      <trkpt lat="41.45916919223964214324951171875" lon="2.14635235257446765899658203125">
        <ele>186.1999969482421875</ele>
        <time>2022-01-07T09:15:44.000Z</time>
      </trkpt>
      <trkpt lat="41.4591292105615139007568359375" lon="2.1463184058666229248046875">
        <ele>186.399993896484375</ele>
        <time>2022-01-07T09:15:45.000Z</time>
      </trkpt>
      <trkpt lat="41.4590832777321338653564453125" lon="2.1462830342352390289306640625">
        <ele>186.399993896484375</ele>
        <time>2022-01-07T09:15:46.000Z</time>
      </trkpt>
      <trkpt lat="41.45903692580759525299072265625" lon="2.1462428011000156402587890625">
        <ele>186.399993896484375</ele>
        <time>2022-01-07T09:15:47.000Z</time>
      </trkpt>
      <trkpt lat="41.45899568684399127960205078125" lon="2.14619577862322330474853515625">
        <ele>186.399993896484375</ele>
        <time>2022-01-07T09:15:48.000Z</time>
      </trkpt>
      <trkpt lat="41.45895713008940219879150390625" lon="2.146145068109035491943359375">
        <ele>186.399993896484375</ele>
        <time>2022-01-07T09:15:49.000Z</time>
      </trkpt>
      <trkpt lat="41.4589220099151134490966796875" lon="2.146096788346767425537109375">
        <ele>186.399993896484375</ele>
        <time>2022-01-07T09:15:50.000Z</time>
      </trkpt>
      <trkpt lat="41.45888253115117549896240234375" lon="2.1460500173270702362060546875">
        <ele>186.600006103515625</ele>
        <time>2022-01-07T09:15:51.000Z</time>
      </trkpt>
      <trkpt lat="41.45883525721728801727294921875" lon="2.14600659906864166259765625">
        <ele>186.8000030517578125</ele>
        <time>2022-01-07T09:15:52.000Z</time>
      </trkpt>
      <trkpt lat="41.45878815092146396636962890625" lon="2.1459668688476085662841796875">
        <ele>186.600006103515625</ele>
        <time>2022-01-07T09:15:53.000Z</time>
      </trkpt>
      <trkpt lat="41.45874322392046451568603515625" lon="2.14592956937849521636962890625">
        <ele>186.600006103515625</ele>
        <time>2022-01-07T09:15:54.000Z</time>
      </trkpt>
      <trkpt lat="41.4586983807384967803955078125" lon="2.14589796960353851318359375">
        <ele>186.8000030517578125</ele>
        <time>2022-01-07T09:15:55.000Z</time>
      </trkpt>
      <trkpt lat="41.45865789614617824554443359375" lon="2.14586385525763034820556640625">
        <ele>186.8000030517578125</ele>
        <time>2022-01-07T09:15:56.000Z</time>
      </trkpt>
      <trkpt lat="41.45862705074250698089599609375" lon="2.1458330936729907989501953125">
        <ele>186.8000030517578125</ele>
        <time>2022-01-07T09:15:57.000Z</time>
      </trkpt>
      <trkpt lat="41.4585977979004383087158203125" lon="2.14580669067800045013427734375">
        <ele>186.8000030517578125</ele>
        <time>2022-01-07T09:15:58.000Z</time>
      </trkpt>
      <trkpt lat="41.45856804214417934417724609375" lon="2.1457787789404392242431640625">
        <ele>186.8000030517578125</ele>
        <time>2022-01-07T09:15:59.000Z</time>
      </trkpt>
      <trkpt lat="41.4585458301007747650146484375" lon="2.145754136145114898681640625">
        <ele>186.8000030517578125</ele>
        <time>2022-01-07T09:16:00.000Z</time>
      </trkpt>
      <trkpt lat="41.4585320837795734405517578125" lon="2.14573544450104236602783203125">
        <ele>186.8000030517578125</ele>
        <time>2022-01-07T09:16:01.000Z</time>
      </trkpt>
      <trkpt lat="41.4585237018764019012451171875" lon="2.145715244114398956298828125">
        <ele>186.8000030517578125</ele>
        <time>2022-01-07T09:16:02.000Z</time>
      </trkpt>
      <trkpt lat="41.45851942710578441619873046875" lon="2.14570225216448307037353515625">
        <ele>187.1999969482421875</ele>
        <time>2022-01-07T09:16:03.000Z</time>
      </trkpt>
      <trkpt lat="41.458516158163547515869140625" lon="2.14568682946264743804931640625">
        <ele>187.600006103515625</ele>
        <time>2022-01-07T09:16:04.000Z</time>
      </trkpt>
      <trkpt lat="41.45851808600127696990966796875" lon="2.14567157439887523651123046875">
        <ele>188</ele>
        <time>2022-01-07T09:16:05.000Z</time>
      </trkpt>
      <trkpt lat="41.45852328278124332427978515625" lon="2.1456527151167392730712890625">
        <ele>188</ele>
        <time>2022-01-07T09:16:06.000Z</time>
      </trkpt>
      <trkpt lat="41.45853786729276180267333984375" lon="2.145635448396205902099609375">
        <ele>188.600006103515625</ele>
        <time>2022-01-07T09:16:07.000Z</time>
      </trkpt>
      <trkpt lat="41.458562426269054412841796875" lon="2.14561172761023044586181640625">
        <ele>189</ele>
        <time>2022-01-07T09:16:08.000Z</time>
      </trkpt>
      <trkpt lat="41.458588577806949615478515625" lon="2.1455848217010498046875">
        <ele>189.1999969482421875</ele>
        <time>2022-01-07T09:16:09.000Z</time>
      </trkpt>
      <trkpt lat="41.45862487144768238067626953125" lon="2.1455427445471286773681640625">
        <ele>189.399993896484375</ele>
        <time>2022-01-07T09:16:10.000Z</time>
      </trkpt>
      <trkpt lat="41.45866678096354007720947265625" lon="2.14549924246966838836669921875">
        <ele>189.399993896484375</ele>
        <time>2022-01-07T09:16:11.000Z</time>
      </trkpt>
      <trkpt lat="41.4586893282830715179443359375" lon="2.1454666368663311004638671875">
        <ele>189.600006103515625</ele>
        <time>2022-01-07T09:16:12.000Z</time>
      </trkpt>
      <trkpt lat="41.45871900022029876708984375" lon="2.14541559107601642608642578125">
        <ele>189.600006103515625</ele>
        <time>2022-01-07T09:16:13.000Z</time>
      </trkpt>
      <trkpt lat="41.4587438106536865234375" lon="2.14537359774112701416015625">
        <ele>189.600006103515625</ele>
        <time>2022-01-07T09:16:14.000Z</time>
      </trkpt>
      <trkpt lat="41.4587791822850704193115234375" lon="2.145330011844635009765625">
        <ele>189.600006103515625</ele>
        <time>2022-01-07T09:16:15.000Z</time>
      </trkpt>
      <trkpt lat="41.4588106982409954071044921875" lon="2.14529179036617279052734375">
        <ele>189.600006103515625</ele>
        <time>2022-01-07T09:16:16.000Z</time>
      </trkpt>
      <trkpt lat="41.4588408730924129486083984375" lon="2.14525558054447174072265625">
        <ele>189.600006103515625</ele>
        <time>2022-01-07T09:16:17.000Z</time>
      </trkpt>
      <trkpt lat="41.45887196995317935943603515625" lon="2.14521844871342182159423828125">
        <ele>189.600006103515625</ele>
        <time>2022-01-07T09:16:18.000Z</time>
      </trkpt>
      <trkpt lat="41.458903737366199493408203125" lon="2.1451806463301181793212890625">
        <ele>189.8000030517578125</ele>
        <time>2022-01-07T09:16:19.000Z</time>
      </trkpt>
      <trkpt lat="41.45893223583698272705078125" lon="2.14514200575649738311767578125">
        <ele>189.8000030517578125</ele>
        <time>2022-01-07T09:16:20.000Z</time>
      </trkpt>
      <trkpt lat="41.45895847119390964508056640625" lon="2.1451078914105892181396484375">
        <ele>189.8000030517578125</ele>
        <time>2022-01-07T09:16:21.000Z</time>
      </trkpt>
      <trkpt lat="41.45899652503430843353271484375" lon="2.1450700052082538604736328125">
        <ele>189.8000030517578125</ele>
        <time>2022-01-07T09:16:22.000Z</time>
      </trkpt>
      <trkpt lat="41.4590447209775447845458984375" lon="2.1450324542820453643798828125">
        <ele>190</ele>
        <time>2022-01-07T09:16:23.000Z</time>
      </trkpt>
      <trkpt lat="41.45907129161059856414794921875" lon="2.14500772766768932342529296875">
        <ele>190</ele>
        <time>2022-01-07T09:16:24.000Z</time>
      </trkpt>
      <trkpt lat="41.4590913243591785430908203125" lon="2.14499180205166339874267578125">
        <ele>190.1999969482421875</ele>
        <time>2022-01-07T09:16:25.000Z</time>
      </trkpt>
      <trkpt lat="41.4591278694570064544677734375" lon="2.144970931112766265869140625">
        <ele>190.1999969482421875</ele>
        <time>2022-01-07T09:16:26.000Z</time>
      </trkpt>
      <trkpt lat="41.45915896631777286529541015625" lon="2.14495358057320117950439453125">
        <ele>190.399993896484375</ele>
        <time>2022-01-07T09:16:27.000Z</time>
      </trkpt>
      <trkpt lat="41.45918972790241241455078125" lon="2.1449325419962406158447265625">
        <ele>190.600006103515625</ele>
        <time>2022-01-07T09:16:28.000Z</time>
      </trkpt>
      <trkpt lat="41.45922116003930568695068359375" lon="2.1449104137718677520751953125">
        <ele>191</ele>
        <time>2022-01-07T09:16:29.000Z</time>
      </trkpt>
      <trkpt lat="41.459254436194896697998046875" lon="2.14489373378455638885498046875">
        <ele>191</ele>
        <time>2022-01-07T09:16:30.000Z</time>
      </trkpt>
      <trkpt lat="41.45928804762661457061767578125" lon="2.144870348274707794189453125">
        <ele>191.399993896484375</ele>
        <time>2022-01-07T09:16:31.000Z</time>
      </trkpt>
      <trkpt lat="41.45931805483996868133544921875" lon="2.14484109543263912200927734375">
        <ele>191.8000030517578125</ele>
        <time>2022-01-07T09:16:32.000Z</time>
      </trkpt>
      <trkpt lat="41.4593431167304515838623046875" lon="2.14481578208506107330322265625">
        <ele>192</ele>
        <time>2022-01-07T09:16:33.000Z</time>
      </trkpt>
      <trkpt lat="41.4593702740967273712158203125" lon="2.14479449205100536346435546875">
        <ele>192.1999969482421875</ele>
        <time>2022-01-07T09:16:34.000Z</time>
      </trkpt>
      <trkpt lat="41.45939801819622516632080078125" lon="2.14476482011377811431884765625">
        <ele>192.399993896484375</ele>
        <time>2022-01-07T09:16:35.000Z</time>
      </trkpt>
      <trkpt lat="41.459422074258327484130859375" lon="2.1447290293872356414794921875">
        <ele>192.399993896484375</ele>
        <time>2022-01-07T09:16:36.000Z</time>
      </trkpt>
      <trkpt lat="41.45944294519722461700439453125" lon="2.14468955062329769134521484375">
        <ele>192.600006103515625</ele>
        <time>2022-01-07T09:16:37.000Z</time>
      </trkpt>
      <trkpt lat="41.459459960460662841796875" lon="2.1446495689451694488525390625">
        <ele>192.600006103515625</ele>
        <time>2022-01-07T09:16:38.000Z</time>
      </trkpt>
      <trkpt lat="41.4594711922109127044677734375" lon="2.14460405521094799041748046875">
        <ele>193</ele>
        <time>2022-01-07T09:16:39.000Z</time>
      </trkpt>
      <trkpt lat="41.45947613753378391265869140625" lon="2.144561223685741424560546875">
        <ele>193.1999969482421875</ele>
        <time>2022-01-07T09:16:40.000Z</time>
      </trkpt>
      <trkpt lat="41.4594852738082408905029296875" lon="2.1445161290466785430908203125">
        <ele>193.1999969482421875</ele>
        <time>2022-01-07T09:16:41.000Z</time>
      </trkpt>
      <trkpt lat="41.4594908058643341064453125" lon="2.144471369683742523193359375">
        <ele>193.399993896484375</ele>
        <time>2022-01-07T09:16:42.000Z</time>
      </trkpt>
      <trkpt lat="41.459498517215251922607421875" lon="2.14442635886371135711669921875">
        <ele>193.399993896484375</ele>
        <time>2022-01-07T09:16:43.000Z</time>
      </trkpt>
      <trkpt lat="41.4595131017267704010009765625" lon="2.1443870477378368377685546875">
        <ele>193.600006103515625</ele>
        <time>2022-01-07T09:16:44.000Z</time>
      </trkpt>
      <trkpt lat="41.45953766070306301116943359375" lon="2.14435192756354808807373046875">
        <ele>193.600006103515625</ele>
        <time>2022-01-07T09:16:45.000Z</time>
      </trkpt>
      <trkpt lat="41.4595643989741802215576171875" lon="2.14432208798825740814208984375">
        <ele>193.8000030517578125</ele>
        <time>2022-01-07T09:16:46.000Z</time>
      </trkpt>
      <trkpt lat="41.459594406187534332275390625" lon="2.1442955173552036285400390625">
        <ele>193.8000030517578125</ele>
        <time>2022-01-07T09:16:47.000Z</time>
      </trkpt>
      <trkpt lat="41.45962156355381011962890625" lon="2.14427129365503787994384765625">
        <ele>194</ele>
        <time>2022-01-07T09:16:48.000Z</time>
      </trkpt>
      <trkpt lat="41.4596490561962127685546875" lon="2.1442502550780773162841796875">
        <ele>194.1999969482421875</ele>
        <time>2022-01-07T09:16:49.000Z</time>
      </trkpt>
      <trkpt lat="41.459676213562488555908203125" lon="2.1442341618239879608154296875">
        <ele>194.1999969482421875</ele>
        <time>2022-01-07T09:16:50.000Z</time>
      </trkpt>
      <trkpt lat="41.4597038738429546356201171875" lon="2.14421899057924747467041015625">
        <ele>194.399993896484375</ele>
        <time>2022-01-07T09:16:51.000Z</time>
      </trkpt>
      <trkpt lat="41.45973664708435535430908203125" lon="2.14420340023934841156005859375">
        <ele>194.399993896484375</ele>
        <time>2022-01-07T09:16:52.000Z</time>
      </trkpt>
      <trkpt lat="41.45976933650672435760498046875" lon="2.144183032214641571044921875">
        <ele>194.600006103515625</ele>
        <time>2022-01-07T09:16:53.000Z</time>
      </trkpt>
      <trkpt lat="41.45979884080588817596435546875" lon="2.14415880851447582244873046875">
        <ele>194.399993896484375</ele>
        <time>2022-01-07T09:16:54.000Z</time>
      </trkpt>
      <trkpt lat="41.45982675254344940185546875" lon="2.14414020068943500518798828125">
        <ele>194.399993896484375</ele>
        <time>2022-01-07T09:16:55.000Z</time>
      </trkpt>
      <trkpt lat="41.45986019633710384368896484375" lon="2.14413232170045375823974609375">
        <ele>194.600006103515625</ele>
        <time>2022-01-07T09:16:56.000Z</time>
      </trkpt>
      <trkpt lat="41.4598976634442806243896484375" lon="2.1441372670233249664306640625">
        <ele>194.600006103515625</ele>
        <time>2022-01-07T09:16:57.000Z</time>
      </trkpt>
      <trkpt lat="41.4599332027137279510498046875" lon="2.1441496722400188446044921875">
        <ele>194.600006103515625</ele>
        <time>2022-01-07T09:16:58.000Z</time>
      </trkpt>
      <trkpt lat="41.4599724300205707550048828125" lon="2.14416467584669589996337890625">
        <ele>194.600006103515625</ele>
        <time>2022-01-07T09:16:59.000Z</time>
      </trkpt>
      <trkpt lat="41.4600119926035404205322265625" lon="2.14417657814919948577880859375">
        <ele>194.8000030517578125</ele>
        <time>2022-01-07T09:17:00.000Z</time>
      </trkpt>
      <trkpt lat="41.460049040615558624267578125" lon="2.14418613351881504058837890625">
        <ele>194.8000030517578125</ele>
        <time>2022-01-07T09:17:01.000Z</time>
      </trkpt>
      <trkpt lat="41.46008483134210109710693359375" lon="2.14419342577457427978515625">
        <ele>194.8000030517578125</ele>
        <time>2022-01-07T09:17:02.000Z</time>
      </trkpt>
      <trkpt lat="41.4601211249828338623046875" lon="2.144197113811969757080078125">
        <ele>194.600006103515625</ele>
        <time>2022-01-07T09:17:03.000Z</time>
      </trkpt>
      <trkpt lat="41.46015708334743976593017578125" lon="2.14420004747807979583740234375">
        <ele>194.600006103515625</ele>
        <time>2022-01-07T09:17:04.000Z</time>
      </trkpt>
      <trkpt lat="41.46019027568399906158447265625" lon="2.14420356787741184234619140625">
        <ele>194.600006103515625</ele>
        <time>2022-01-07T09:17:05.000Z</time>
      </trkpt>
      <trkpt lat="41.4602272398769855499267578125" lon="2.1442002989351749420166015625">
        <ele>194.600006103515625</ele>
        <time>2022-01-07T09:17:06.000Z</time>
      </trkpt>
      <trkpt lat="41.46026529371738433837890625" lon="2.1441912464797496795654296875">
        <ele>194.600006103515625</ele>
        <time>2022-01-07T09:17:07.000Z</time>
      </trkpt>
      <trkpt lat="41.46030359901487827301025390625" lon="2.14418512769043445587158203125">
        <ele>194.600006103515625</ele>
        <time>2022-01-07T09:17:08.000Z</time>
      </trkpt>
      <trkpt lat="41.460344083607196807861328125" lon="2.144179008901119232177734375">
        <ele>194.600006103515625</ele>
        <time>2022-01-07T09:17:09.000Z</time>
      </trkpt>
      <trkpt lat="41.4603834785521030426025390625" lon="2.14416517876088619232177734375">
        <ele>194.600006103515625</ele>
        <time>2022-01-07T09:17:10.000Z</time>
      </trkpt>
      <trkpt lat="41.460414826869964599609375" lon="2.144149839878082275390625">
        <ele>194.399993896484375</ele>
        <time>2022-01-07T09:17:11.000Z</time>
      </trkpt>
      <trkpt lat="41.46045329980552196502685546875" lon="2.144129388034343719482421875">
        <ele>194.399993896484375</ele>
        <time>2022-01-07T09:17:12.000Z</time>
      </trkpt>
      <trkpt lat="41.46050090901553630828857421875" lon="2.14410969056189060211181640625">
        <ele>194.1999969482421875</ele>
        <time>2022-01-07T09:17:13.000Z</time>
      </trkpt>
      <trkpt lat="41.46055153571069240570068359375" lon="2.14409158565104007720947265625">
        <ele>194.1999969482421875</ele>
        <time>2022-01-07T09:17:14.000Z</time>
      </trkpt>
      <trkpt lat="41.460600905120372772216796875" lon="2.14407012797892093658447265625">
        <ele>194</ele>
        <time>2022-01-07T09:17:15.000Z</time>
      </trkpt>
      <trkpt lat="41.4606332592666149139404296875" lon="2.1440517716109752655029296875">
        <ele>194</ele>
        <time>2022-01-07T09:17:16.000Z</time>
      </trkpt>
      <trkpt lat="41.460673995316028594970703125" lon="2.14402972720563411712646484375">
        <ele>193.8000030517578125</ele>
        <time>2022-01-07T09:17:17.000Z</time>
      </trkpt>
      <trkpt lat="41.4607261307537555694580078125" lon="2.14401162229478359222412109375">
        <ele>193.600006103515625</ele>
        <time>2022-01-07T09:17:18.000Z</time>
      </trkpt>
      <trkpt lat="41.46076695062220096588134765625" lon="2.1440081857144832611083984375">
        <ele>193.399993896484375</ele>
        <time>2022-01-07T09:17:19.000Z</time>
      </trkpt>
      <trkpt lat="41.46080533973872661590576171875" lon="2.14400089345872402191162109375">
        <ele>193.1999969482421875</ele>
        <time>2022-01-07T09:17:20.000Z</time>
      </trkpt>
      <trkpt lat="41.4608592353761196136474609375" lon="2.14398848824203014373779296875">
        <ele>193.1999969482421875</ele>
        <time>2022-01-07T09:17:21.000Z</time>
      </trkpt>
      <trkpt lat="41.46089561283588409423828125" lon="2.14397893287241458892822265625">
        <ele>193</ele>
        <time>2022-01-07T09:17:22.000Z</time>
      </trkpt>
      <trkpt lat="41.460950933396816253662109375" lon="2.14396619237959384918212890625">
        <ele>193</ele>
        <time>2022-01-07T09:17:23.000Z</time>
      </trkpt>
      <trkpt lat="41.46099376492202281951904296875" lon="2.1439562179148197174072265625">
        <ele>193</ele>
        <time>2022-01-07T09:17:24.000Z</time>
      </trkpt>
      <trkpt lat="41.46102528087794780731201171875" lon="2.1439491771161556243896484375">
        <ele>193</ele>
        <time>2022-01-07T09:17:25.000Z</time>
      </trkpt>
      <trkpt lat="41.46107129752635955810546875" lon="2.1439354307949542999267578125">
        <ele>193</ele>
        <time>2022-01-07T09:17:26.000Z</time>
      </trkpt>
      <trkpt lat="41.46110842935740947723388671875" lon="2.14392579160630702972412109375">
        <ele>193</ele>
        <time>2022-01-07T09:17:27.000Z</time>
      </trkpt>
      <trkpt lat="41.4611438848078250885009765625" lon="2.14392160065472126007080078125">
        <ele>193</ele>
        <time>2022-01-07T09:17:28.000Z</time>
      </trkpt>
      <trkpt lat="41.4611710421741008758544921875" lon="2.143917493522167205810546875">
        <ele>193</ele>
        <time>2022-01-07T09:17:29.000Z</time>
      </trkpt>
      <trkpt lat="41.4612099342048168182373046875" lon="2.1439122967422008514404296875">
        <ele>193</ele>
        <time>2022-01-07T09:17:30.000Z</time>
      </trkpt>
      <trkpt lat="41.461233906447887420654296875" lon="2.1439099498093128204345703125">
        <ele>193</ele>
        <time>2022-01-07T09:17:31.000Z</time>
      </trkpt>
      <trkpt lat="41.46126986481249332427978515625" lon="2.14390316046774387359619140625">
        <ele>193</ele>
        <time>2022-01-07T09:17:32.000Z</time>
      </trkpt>
      <trkpt lat="41.46129065193235874176025390625" lon="2.143902741372585296630859375">
        <ele>193.399993896484375</ele>
        <time>2022-01-07T09:17:33.000Z</time>
      </trkpt>
      <trkpt lat="41.46131210960447788238525390625" lon="2.143898718059062957763671875">
        <ele>193.8000030517578125</ele>
        <time>2022-01-07T09:17:34.000Z</time>
      </trkpt>
      <trkpt lat="41.4613373391330242156982421875" lon="2.14388899505138397216796875">
        <ele>193.8000030517578125</ele>
        <time>2022-01-07T09:17:35.000Z</time>
      </trkpt>
      <trkpt lat="41.4613641612231731414794921875" lon="2.1438777633011341094970703125">
        <ele>193.8000030517578125</ele>
        <time>2022-01-07T09:17:36.000Z</time>
      </trkpt>
      <trkpt lat="41.4613812603056430816650390625" lon="2.14386829175055027008056640625">
        <ele>194.1999969482421875</ele>
        <time>2022-01-07T09:17:37.000Z</time>
      </trkpt>
      <trkpt lat="41.46139140240848064422607421875" lon="2.1438636817038059234619140625">
        <ele>194.600006103515625</ele>
        <time>2022-01-07T09:17:38.000Z</time>
      </trkpt>
      <trkpt lat="41.46140665747225284576416015625" lon="2.143853791058063507080078125">
        <ele>195.399993896484375</ele>
        <time>2022-01-07T09:17:39.000Z</time>
      </trkpt>
      <trkpt lat="41.46141554228961467742919921875" lon="2.14383861981332302093505859375">
        <ele>195.600006103515625</ele>
        <time>2022-01-07T09:17:40.000Z</time>
      </trkpt>
      <trkpt lat="41.46141998469829559326171875" lon="2.143821604549884796142578125">
        <ele>196.399993896484375</ele>
        <time>2022-01-07T09:17:41.000Z</time>
      </trkpt>
      <trkpt lat="41.46142107434570789337158203125" lon="2.14380777440965175628662109375">
        <ele>197</ele>
        <time>2022-01-07T09:17:42.000Z</time>
      </trkpt>
      <trkpt lat="41.46142006851732730865478515625" lon="2.1437915973365306854248046875">
        <ele>197.600006103515625</ele>
        <time>2022-01-07T09:17:43.000Z</time>
      </trkpt>
      <trkpt lat="41.46140648983418941497802734375" lon="2.1437758393585681915283203125">
        <ele>198</ele>
        <time>2022-01-07T09:17:44.000Z</time>
      </trkpt>
      <trkpt lat="41.46139609627425670623779296875" lon="2.14376083575189113616943359375">
        <ele>198.8000030517578125</ele>
        <time>2022-01-07T09:17:45.000Z</time>
      </trkpt>
      <trkpt lat="41.461382098495960235595703125" lon="2.14375362731516361236572265625">
        <ele>199.1999969482421875</ele>
        <time>2022-01-07T09:17:46.000Z</time>
      </trkpt>
      <trkpt lat="41.46137312985956668853759765625" lon="2.14375496841967105865478515625">
        <ele>199.600006103515625</ele>
        <time>2022-01-07T09:17:47.000Z</time>
      </trkpt>
      <trkpt lat="41.46136240102350711822509765625" lon="2.14375756680965423583984375">
        <ele>200</ele>
        <time>2022-01-07T09:17:48.000Z</time>
      </trkpt>
      <trkpt lat="41.461345888674259185791015625" lon="2.14376150630414485931396484375">
        <ele>200.1999969482421875</ele>
        <time>2022-01-07T09:17:49.000Z</time>
      </trkpt>
      <trkpt lat="41.46132451482117176055908203125" lon="2.1437647752463817596435546875">
        <ele>200.399993896484375</ele>
        <time>2022-01-07T09:17:50.000Z</time>
      </trkpt>
      <trkpt lat="41.46130959503352642059326171875" lon="2.14376301504671573638916015625">
        <ele>200.600006103515625</ele>
        <time>2022-01-07T09:17:51.000Z</time>
      </trkpt>
      <trkpt lat="41.461291573941707611083984375" lon="2.14375915937125682830810546875">
        <ele>200.8000030517578125</ele>
        <time>2022-01-07T09:17:52.000Z</time>
      </trkpt>
      <trkpt lat="41.46127271465957164764404296875" lon="2.14374977163970470428466796875">
        <ele>200.8000030517578125</ele>
        <time>2022-01-07T09:17:53.000Z</time>
      </trkpt>
      <trkpt lat="41.46125427447259426116943359375" lon="2.143741138279438018798828125">
        <ele>200.8000030517578125</ele>
        <time>2022-01-07T09:17:54.000Z</time>
      </trkpt>
      <trkpt lat="41.461240611970424652099609375" lon="2.1437354385852813720703125">
        <ele>201</ele>
        <time>2022-01-07T09:17:55.000Z</time>
      </trkpt>
      <trkpt lat="41.46123348735272884368896484375" lon="2.14373367838561534881591796875">
        <ele>201</ele>
        <time>2022-01-07T09:17:56.000Z</time>
      </trkpt>
      <trkpt lat="41.46123348735272884368896484375" lon="2.14373367838561534881591796875">
        <ele>201</ele>
        <time>2022-01-07T09:17:57.000Z</time>
      </trkpt>
      <trkpt lat="41.46123348735272884368896484375" lon="2.14373367838561534881591796875">
        <ele>201.1999969482421875</ele>
        <time>2022-01-07T09:17:58.000Z</time>
      </trkpt>
      <trkpt lat="41.46118168719112873077392578125" lon="2.1437242068350315093994140625">
        <ele>201.8000030517578125</ele>
        <time>2022-01-07T09:19:06.000Z</time>
      </trkpt>
      <trkpt lat="41.46115989424288272857666015625" lon="2.1437180042266845703125">
        <ele>201.8000030517578125</ele>
        <time>2022-01-07T09:19:07.000Z</time>
      </trkpt>
      <trkpt lat="41.461136341094970703125" lon="2.14371305890381336212158203125">
        <ele>201.8000030517578125</ele>
        <time>2022-01-07T09:19:08.000Z</time>
      </trkpt>
      <trkpt lat="41.461113207042217254638671875" lon="2.14370987378060817718505859375">
        <ele>201.8000030517578125</ele>
        <time>2022-01-07T09:19:09.000Z</time>
      </trkpt>
      <trkpt lat="41.46109141409397125244140625" lon="2.1437081135809421539306640625">
        <ele>201.600006103515625</ele>
        <time>2022-01-07T09:19:10.000Z</time>
      </trkpt>
      <trkpt lat="41.46106668747961521148681640625" lon="2.14370258152484893798828125">
        <ele>201.600006103515625</ele>
        <time>2022-01-07T09:19:11.000Z</time>
      </trkpt>
      <trkpt lat="41.46104053594172000885009765625" lon="2.14369696564972400665283203125">
        <ele>201.600006103515625</ele>
        <time>2022-01-07T09:19:12.000Z</time>
      </trkpt>
      <trkpt lat="41.4610148034989833831787109375" lon="2.14369176886975765228271484375">
        <ele>201.600006103515625</ele>
        <time>2022-01-07T09:19:13.000Z</time>
      </trkpt>
      <trkpt lat="41.4609893225133419036865234375" lon="2.1436913497745990753173828125">
        <ele>201.600006103515625</ele>
        <time>2022-01-07T09:19:14.000Z</time>
      </trkpt>
      <trkpt lat="41.4609633386135101318359375" lon="2.14368791319429874420166015625">
        <ele>201.8000030517578125</ele>
        <time>2022-01-07T09:19:15.000Z</time>
      </trkpt>
      <trkpt lat="41.46093760617077350616455078125" lon="2.143687494099140167236328125">
        <ele>201.8000030517578125</ele>
        <time>2022-01-07T09:19:16.000Z</time>
      </trkpt>
      <trkpt lat="41.4609142206609249114990234375" lon="2.14369042776525020599365234375">
        <ele>201.8000030517578125</ele>
        <time>2022-01-07T09:19:17.000Z</time>
      </trkpt>
      <trkpt lat="41.460881866514682769775390625" lon="2.1436960436403751373291015625">
        <ele>201.8000030517578125</ele>
        <time>2022-01-07T09:19:18.000Z</time>
      </trkpt>
      <trkpt lat="41.46085479296743869781494140625" lon="2.14370015077292919158935546875">
        <ele>201.8000030517578125</ele>
        <time>2022-01-07T09:19:19.000Z</time>
      </trkpt>
      <trkpt lat="41.4608344249427318572998046875" lon="2.143704593181610107421875">
        <ele>202</ele>
        <time>2022-01-07T09:19:20.000Z</time>
      </trkpt>
      <trkpt lat="41.4608092792332172393798828125" lon="2.14370501227676868438720703125">
        <ele>202</ele>
        <time>2022-01-07T09:19:21.000Z</time>
      </trkpt>
      <trkpt lat="41.46077516488730907440185546875" lon="2.14370735920965671539306640625">
        <ele>202.1999969482421875</ele>
        <time>2022-01-07T09:19:22.000Z</time>
      </trkpt>
      <trkpt lat="41.4607452414929866790771484375" lon="2.143707610666751861572265625">
        <ele>202.399993896484375</ele>
        <time>2022-01-07T09:19:23.000Z</time>
      </trkpt>
      <trkpt lat="41.4607164077460765838623046875" lon="2.1437128074467182159423828125">
        <ele>202.399993896484375</ele>
        <time>2022-01-07T09:19:24.000Z</time>
      </trkpt>
      <trkpt lat="41.46068849600851535797119140625" lon="2.14371331036090850830078125">
        <ele>202.600006103515625</ele>
        <time>2022-01-07T09:19:25.000Z</time>
      </trkpt>
      <trkpt lat="41.46066083572804927825927734375" lon="2.14371272362768650054931640625">
        <ele>202.8000030517578125</ele>
        <time>2022-01-07T09:19:26.000Z</time>
      </trkpt>
      <trkpt lat="41.46063317544758319854736328125" lon="2.14371222071349620819091796875">
        <ele>202.8000030517578125</ele>
        <time>2022-01-07T09:19:27.000Z</time>
      </trkpt>
      <trkpt lat="41.4606044255197048187255859375" lon="2.143712975084781646728515625">
        <ele>203.1999969482421875</ele>
        <time>2022-01-07T09:19:28.000Z</time>
      </trkpt>
      <trkpt lat="41.4605752564966678619384765625" lon="2.14371263980865478515625">
        <ele>203.600006103515625</ele>
        <time>2022-01-07T09:19:29.000Z</time>
      </trkpt>
      <trkpt lat="41.460548937320709228515625" lon="2.143714316189289093017578125">
        <ele>204</ele>
        <time>2022-01-07T09:19:30.000Z</time>
      </trkpt>
      <trkpt lat="41.46052136085927486419677734375" lon="2.14371574111282825469970703125">
        <ele>204.1999969482421875</ele>
        <time>2022-01-07T09:19:31.000Z</time>
      </trkpt>
      <trkpt lat="41.460492946207523345947265625" lon="2.14371574111282825469970703125">
        <ele>204.399993896484375</ele>
        <time>2022-01-07T09:19:32.000Z</time>
      </trkpt>
      <trkpt lat="41.4604672975838184356689453125" lon="2.14371691457927227020263671875">
        <ele>204.8000030517578125</ele>
        <time>2022-01-07T09:19:33.000Z</time>
      </trkpt>
      <trkpt lat="41.4604414813220500946044921875" lon="2.143719010055065155029296875">
        <ele>205.1999969482421875</ele>
        <time>2022-01-07T09:19:34.000Z</time>
      </trkpt>
      <trkpt lat="41.46041424013674259185791015625" lon="2.14371959678828716278076171875">
        <ele>205.399993896484375</ele>
        <time>2022-01-07T09:19:35.000Z</time>
      </trkpt>
      <trkpt lat="41.46038624458014965057373046875" lon="2.14371867477893829345703125">
        <ele>205.600006103515625</ele>
        <time>2022-01-07T09:19:36.000Z</time>
      </trkpt>
      <trkpt lat="41.46036109887063503265380859375" lon="2.143718339502811431884765625">
        <ele>205.600006103515625</ele>
        <time>2022-01-07T09:19:37.000Z</time>
      </trkpt>
      <trkpt lat="41.4603378809988498687744140625" lon="2.14371909387409687042236328125">
        <ele>206</ele>
        <time>2022-01-07T09:19:38.000Z</time>
      </trkpt>
      <trkpt lat="41.4603157527744770050048828125" lon="2.1437185071408748626708984375">
        <ele>206.399993896484375</ele>
        <time>2022-01-07T09:19:39.000Z</time>
      </trkpt>
      <trkpt lat="41.46029437892138957977294921875" lon="2.143715657293796539306640625">
        <ele>206.600006103515625</ele>
        <time>2022-01-07T09:19:40.000Z</time>
      </trkpt>
      <trkpt lat="41.46027158014476299285888671875" lon="2.14371305890381336212158203125">
        <ele>207</ele>
        <time>2022-01-07T09:19:41.000Z</time>
      </trkpt>
      <trkpt lat="41.46024861373007297515869140625" lon="2.143707275390625">
        <ele>207.399993896484375</ele>
        <time>2022-01-07T09:19:42.000Z</time>
      </trkpt>
      <trkpt lat="41.4602257311344146728515625" lon="2.1437005698680877685546875">
        <ele>207.8000030517578125</ele>
        <time>2022-01-07T09:19:43.000Z</time>
      </trkpt>
      <trkpt lat="41.46019798703491687774658203125" lon="2.143690846860408782958984375">
        <ele>208.1999969482421875</ele>
        <time>2022-01-07T09:19:44.000Z</time>
      </trkpt>
      <trkpt lat="41.46016848273575305938720703125" lon="2.14368003420531749725341796875">
        <ele>208.600006103515625</ele>
        <time>2022-01-07T09:19:45.000Z</time>
      </trkpt>
      <trkpt lat="41.460144929587841033935546875" lon="2.14367316104471683502197265625">
        <ele>209.1999969482421875</ele>
        <time>2022-01-07T09:19:46.000Z</time>
      </trkpt>
      <trkpt lat="41.46012707613408565521240234375" lon="2.14366645552217960357666015625">
        <ele>209.600006103515625</ele>
        <time>2022-01-07T09:19:47.000Z</time>
      </trkpt>
      <trkpt lat="41.460109390318393707275390625" lon="2.14365832507610321044921875">
        <ele>210</ele>
        <time>2022-01-07T09:19:48.000Z</time>
      </trkpt>
      <trkpt lat="41.46008583717048168182373046875" lon="2.1436440758407115936279296875">
        <ele>210.399993896484375</ele>
        <time>2022-01-07T09:19:49.000Z</time>
      </trkpt>
      <trkpt lat="41.460060440003871917724609375" lon="2.14362655766308307647705078125">
        <ele>210.8000030517578125</ele>
        <time>2022-01-07T09:19:50.000Z</time>
      </trkpt>
      <trkpt lat="41.46003973670303821563720703125" lon="2.14361046440899372100830078125">
        <ele>211.1999969482421875</ele>
        <time>2022-01-07T09:19:51.000Z</time>
      </trkpt>
      <trkpt lat="41.46002045832574367523193359375" lon="2.1435964666306972503662109375">
        <ele>211.600006103515625</ele>
        <time>2022-01-07T09:19:52.000Z</time>
      </trkpt>
      <trkpt lat="41.4599969051778316497802734375" lon="2.14358163066208362579345703125">
        <ele>212</ele>
        <time>2022-01-07T09:19:53.000Z</time>
      </trkpt>
      <trkpt lat="41.45997821353375911712646484375" lon="2.1435683034360408782958984375">
        <ele>212.1999969482421875</ele>
        <time>2022-01-07T09:19:54.000Z</time>
      </trkpt>
      <trkpt lat="41.45995683968067169189453125" lon="2.1435515396296977996826171875">
        <ele>212.600006103515625</ele>
        <time>2022-01-07T09:19:55.000Z</time>
      </trkpt>
      <trkpt lat="41.4599358849227428436279296875" lon="2.143537290394306182861328125">
        <ele>213.1999969482421875</ele>
        <time>2022-01-07T09:19:56.000Z</time>
      </trkpt>
      <trkpt lat="41.45990964956581592559814453125" lon="2.14352513663470745086669921875">
        <ele>213.399993896484375</ele>
        <time>2022-01-07T09:19:57.000Z</time>
      </trkpt>
      <trkpt lat="41.459881402552127838134765625" lon="2.1435160003602504730224609375">
        <ele>213.399993896484375</ele>
        <time>2022-01-07T09:19:58.000Z</time>
      </trkpt>
      <trkpt lat="41.459848880767822265625" lon="2.14351356960833072662353515625">
        <ele>213.600006103515625</ele>
        <time>2022-01-07T09:19:59.000Z</time>
      </trkpt>
      <trkpt lat="41.459816358983516693115234375" lon="2.14351474307477474212646484375">
        <ele>213.600006103515625</ele>
        <time>2022-01-07T09:20:00.000Z</time>
      </trkpt>
      <trkpt lat="41.45978459157049655914306640625" lon="2.143519856035709381103515625">
        <ele>213.600006103515625</ele>
        <time>2022-01-07T09:20:01.000Z</time>
      </trkpt>
      <trkpt lat="41.45975810475647449493408203125" lon="2.14352731592953205108642578125">
        <ele>213.600006103515625</ele>
        <time>2022-01-07T09:20:02.000Z</time>
      </trkpt>
      <trkpt lat="41.45972709171473979949951171875" lon="2.14353955350816249847412109375">
        <ele>213.600006103515625</ele>
        <time>2022-01-07T09:20:03.000Z</time>
      </trkpt>
      <trkpt lat="41.45969205535948276519775390625" lon="2.1435545571148395538330078125">
        <ele>213.600006103515625</ele>
        <time>2022-01-07T09:20:04.000Z</time>
      </trkpt>
      <trkpt lat="41.45966841839253902435302734375" lon="2.1435666270554065704345703125">
        <ele>213.600006103515625</ele>
        <time>2022-01-07T09:20:05.000Z</time>
      </trkpt>
      <trkpt lat="41.4596485532820224761962890625" lon="2.1435780264437198638916015625">
        <ele>213.600006103515625</ele>
        <time>2022-01-07T09:20:06.000Z</time>
      </trkpt>
      <trkpt lat="41.45963229238986968994140625" lon="2.14358431287109851837158203125">
        <ele>213.600006103515625</ele>
        <time>2022-01-07T09:20:07.000Z</time>
      </trkpt>
      <trkpt lat="41.45962064154446125030517578125" lon="2.1435905992984771728515625">
        <ele>213.8000030517578125</ele>
        <time>2022-01-07T09:20:08.000Z</time>
      </trkpt>
      <trkpt lat="41.45961175672709941864013671875" lon="2.1435947902500629425048828125">
        <ele>213.8000030517578125</ele>
        <time>2022-01-07T09:20:09.000Z</time>
      </trkpt>
      <trkpt lat="41.4596042968332767486572265625" lon="2.14359940029680728912353515625">
        <ele>213.8000030517578125</ele>
        <time>2022-01-07T09:20:10.000Z</time>
      </trkpt>
      <trkpt lat="41.459599770605564117431640625" lon="2.1436065249145030975341796875">
        <ele>213.8000030517578125</ele>
        <time>2022-01-07T09:20:11.000Z</time>
      </trkpt>
      <trkpt lat="41.459591053426265716552734375" lon="2.1436122246086597442626953125">
        <ele>213.8000030517578125</ele>
        <time>2022-01-07T09:20:12.000Z</time>
      </trkpt>
      <trkpt lat="41.45958133041858673095703125" lon="2.1436169184744358062744140625">
        <ele>213.8000030517578125</ele>
        <time>2022-01-07T09:20:13.000Z</time>
      </trkpt>
      <trkpt lat="41.45957018248736858367919921875" lon="2.1436226181685924530029296875">
        <ele>213.8000030517578125</ele>
        <time>2022-01-07T09:20:14.000Z</time>
      </trkpt>
      <trkpt lat="41.45955325104296207427978515625" lon="2.1436263062059879302978515625">
        <ele>213.8000030517578125</ele>
        <time>2022-01-07T09:20:15.000Z</time>
      </trkpt>
      <trkpt lat="41.45953430794179439544677734375" lon="2.14363225735723972320556640625">
        <ele>214</ele>
        <time>2022-01-07T09:20:16.000Z</time>
      </trkpt>
      <trkpt lat="41.45951754413545131683349609375" lon="2.14364281855523586273193359375">
        <ele>214</ele>
        <time>2022-01-07T09:20:17.000Z</time>
      </trkpt>
      <trkpt lat="41.4594990201294422149658203125" lon="2.14364382438361644744873046875">
        <ele>214</ele>
        <time>2022-01-07T09:20:18.000Z</time>
      </trkpt>
      <trkpt lat="41.45947831682860851287841796875" lon="2.14364332146942615509033203125">
        <ele>214.1999969482421875</ele>
        <time>2022-01-07T09:20:19.000Z</time>
      </trkpt>
      <trkpt lat="41.45945836789906024932861328125" lon="2.1436467580497264862060546875">
        <ele>214.1999969482421875</ele>
        <time>2022-01-07T09:20:20.000Z</time>
      </trkpt>
      <trkpt lat="41.45943892188370227813720703125" lon="2.14365237392485141754150390625">
        <ele>214.399993896484375</ele>
        <time>2022-01-07T09:20:21.000Z</time>
      </trkpt>
      <trkpt lat="41.4594185538589954376220703125" lon="2.14365757070481777191162109375">
        <ele>214.600006103515625</ele>
        <time>2022-01-07T09:20:22.000Z</time>
      </trkpt>
      <trkpt lat="41.4593944139778614044189453125" lon="2.143664695322513580322265625">
        <ele>214.600006103515625</ele>
        <time>2022-01-07T09:20:23.000Z</time>
      </trkpt>
      <trkpt lat="41.45937203429639339447021484375" lon="2.1436708979308605194091796875">
        <ele>214.8000030517578125</ele>
        <time>2022-01-07T09:20:24.000Z</time>
      </trkpt>
      <trkpt lat="41.45935040898621082305908203125" lon="2.14367919601500034332275390625">
        <ele>215</ele>
        <time>2022-01-07T09:20:25.000Z</time>
      </trkpt>
      <trkpt lat="41.4593270234763622283935546875" lon="2.14368917047977447509765625">
        <ele>215.399993896484375</ele>
        <time>2022-01-07T09:20:26.000Z</time>
      </trkpt>
      <trkpt lat="41.45930464379489421844482421875" lon="2.14370082132518291473388671875">
        <ele>215.600006103515625</ele>
        <time>2022-01-07T09:20:27.000Z</time>
      </trkpt>
      <trkpt lat="41.45928218029439449310302734375" lon="2.14371339417994022369384765625">
        <ele>216</ele>
        <time>2022-01-07T09:20:28.000Z</time>
      </trkpt>
      <trkpt lat="41.45925954915583133697509765625" lon="2.1437278948724269866943359375">
        <ele>216.399993896484375</ele>
        <time>2022-01-07T09:20:29.000Z</time>
      </trkpt>
      <trkpt lat="41.4592368341982364654541015625" lon="2.143741808831691741943359375">
        <ele>216.600006103515625</ele>
        <time>2022-01-07T09:20:30.000Z</time>
      </trkpt>
      <trkpt lat="41.459212861955165863037109375" lon="2.14375262148678302764892578125">
        <ele>217</ele>
        <time>2022-01-07T09:20:31.000Z</time>
      </trkpt>
      <trkpt lat="41.4591878838837146759033203125" lon="2.143763937056064605712890625">
        <ele>217.399993896484375</ele>
        <time>2022-01-07T09:20:32.000Z</time>
      </trkpt>
      <trkpt lat="41.45916424691677093505859375" lon="2.143771648406982421875">
        <ele>217.8000030517578125</ele>
        <time>2022-01-07T09:20:33.000Z</time>
      </trkpt>
      <trkpt lat="41.45914102904498577117919921875" lon="2.14377634227275848388671875">
        <ele>218.399993896484375</ele>
        <time>2022-01-07T09:20:34.000Z</time>
      </trkpt>
      <trkpt lat="41.4591171406209468841552734375" lon="2.14378195814788341522216796875">
        <ele>218.8000030517578125</ele>
        <time>2022-01-07T09:20:35.000Z</time>
      </trkpt>
      <trkpt lat="41.45909341983497142791748046875" lon="2.1437862329185009002685546875">
        <ele>219.1999969482421875</ele>
        <time>2022-01-07T09:20:36.000Z</time>
      </trkpt>
      <trkpt lat="41.4590722136199474334716796875" lon="2.1437917649745941162109375">
        <ele>219.1999969482421875</ele>
        <time>2022-01-07T09:20:37.000Z</time>
      </trkpt>
      <trkpt lat="41.45904815755784511566162109375" lon="2.1437976323068141937255859375">
        <ele>219.600006103515625</ele>
        <time>2022-01-07T09:20:38.000Z</time>
      </trkpt>
      <trkpt lat="41.459023766219615936279296875" lon="2.14380425401031970977783203125">
        <ele>220.1999969482421875</ele>
        <time>2022-01-07T09:20:39.000Z</time>
      </trkpt>
      <trkpt lat="41.4590001292526721954345703125" lon="2.1438038349151611328125">
        <ele>221</ele>
        <time>2022-01-07T09:20:40.000Z</time>
      </trkpt>
      <trkpt lat="41.4589773304760456085205078125" lon="2.14379922486841678619384765625">
        <ele>221.600006103515625</ele>
        <time>2022-01-07T09:20:41.000Z</time>
      </trkpt>
      <trkpt lat="41.45895637571811676025390625" lon="2.1437959559261798858642578125">
        <ele>222.1999969482421875</ele>
        <time>2022-01-07T09:20:42.000Z</time>
      </trkpt>
      <trkpt lat="41.4589360915124416351318359375" lon="2.143795788288116455078125">
        <ele>222.600006103515625</ele>
        <time>2022-01-07T09:20:43.000Z</time>
      </trkpt>
      <trkpt lat="41.45891471765935420989990234375" lon="2.14379989542067050933837890625">
        <ele>223.600006103515625</ele>
        <time>2022-01-07T09:20:44.000Z</time>
      </trkpt>
      <trkpt lat="41.45889661274850368499755859375" lon="2.1438003145158290863037109375">
        <ele>224.399993896484375</ele>
        <time>2022-01-07T09:20:45.000Z</time>
      </trkpt>
      <trkpt lat="41.45888001658022403717041015625" lon="2.14380090124905109405517578125">
        <ele>225.1999969482421875</ele>
        <time>2022-01-07T09:20:46.000Z</time>
      </trkpt>
      <trkpt lat="41.4588636718690395355224609375" lon="2.14380743913352489471435546875">
        <ele>226.1999969482421875</ele>
        <time>2022-01-07T09:20:47.000Z</time>
      </trkpt>
      <trkpt lat="41.45884414203464984893798828125" lon="2.14381716214120388031005859375">
        <ele>226.8000030517578125</ele>
        <time>2022-01-07T09:20:48.000Z</time>
      </trkpt>
      <trkpt lat="41.45882385782897472381591796875" lon="2.1438308246433734893798828125">
        <ele>227.399993896484375</ele>
        <time>2022-01-07T09:20:49.000Z</time>
      </trkpt>
      <trkpt lat="41.4588046632707118988037109375" lon="2.14384499005973339080810546875">
        <ele>228.1999969482421875</ele>
        <time>2022-01-07T09:20:50.000Z</time>
      </trkpt>
      <trkpt lat="41.45878312177956104278564453125" lon="2.14386242441833019256591796875">
        <ele>229</ele>
        <time>2022-01-07T09:20:51.000Z</time>
      </trkpt>
      <trkpt lat="41.4587620832026004791259765625" lon="2.14388455264270305633544921875">
        <ele>229.8000030517578125</ele>
        <time>2022-01-07T09:20:52.000Z</time>
      </trkpt>
      <trkpt lat="41.45874104462563991546630859375" lon="2.1439049206674098968505859375">
        <ele>230.1999969482421875</ele>
        <time>2022-01-07T09:20:53.000Z</time>
      </trkpt>
      <trkpt lat="41.4587184973061084747314453125" lon="2.143921516835689544677734375">
        <ele>230.8000030517578125</ele>
        <time>2022-01-07T09:20:54.000Z</time>
      </trkpt>
      <trkpt lat="41.45869812928140163421630859375" lon="2.143938951194286346435546875">
        <ele>231.600006103515625</ele>
        <time>2022-01-07T09:20:55.000Z</time>
      </trkpt>
      <trkpt lat="41.4586775936186313629150390625" lon="2.14395965449512004852294921875">
        <ele>232.1999969482421875</ele>
        <time>2022-01-07T09:20:56.000Z</time>
      </trkpt>
      <trkpt lat="41.45865923725068569183349609375" lon="2.14397893287241458892822265625">
        <ele>232.600006103515625</ele>
        <time>2022-01-07T09:20:57.000Z</time>
      </trkpt>
      <trkpt lat="41.45864012651145458221435546875" lon="2.14399804361164569854736328125">
        <ele>232.8000030517578125</ele>
        <time>2022-01-07T09:20:58.000Z</time>
      </trkpt>
      <trkpt lat="41.45862084813416004180908203125" lon="2.14401765726506710052490234375">
        <ele>233.600006103515625</ele>
        <time>2022-01-07T09:20:59.000Z</time>
      </trkpt>
      <trkpt lat="41.45860056392848491668701171875" lon="2.14403651654720306396484375">
        <ele>234</ele>
        <time>2022-01-07T09:21:00.000Z</time>
      </trkpt>
      <trkpt lat="41.4585823751986026763916015625" lon="2.1440546214580535888671875">
        <ele>234.600006103515625</ele>
        <time>2022-01-07T09:21:01.000Z</time>
      </trkpt>
      <trkpt lat="41.45856519229710102081298828125" lon="2.1440715529024600982666015625">
        <ele>235</ele>
        <time>2022-01-07T09:21:02.000Z</time>
      </trkpt>
      <trkpt lat="41.45854792557656764984130859375" lon="2.14408672414720058441162109375">
        <ele>235.600006103515625</ele>
        <time>2022-01-07T09:21:03.000Z</time>
      </trkpt>
      <trkpt lat="41.45852965302765369415283203125" lon="2.14410063810646533966064453125">
        <ele>236</ele>
        <time>2022-01-07T09:21:04.000Z</time>
      </trkpt>
      <trkpt lat="41.4585106261074542999267578125" lon="2.14411304332315921783447265625">
        <ele>236.600006103515625</ele>
        <time>2022-01-07T09:21:05.000Z</time>
      </trkpt>
      <trkpt lat="41.458494700491428375244140625" lon="2.14412829838693141937255859375">
        <ele>237</ele>
        <time>2022-01-07T09:21:06.000Z</time>
      </trkpt>
      <trkpt lat="41.45848019979894161224365234375" lon="2.1441431343555450439453125">
        <ele>237</ele>
        <time>2022-01-07T09:21:07.000Z</time>
      </trkpt>
      <trkpt lat="41.4584623463451862335205078125" lon="2.14415444992482662200927734375">
        <ele>237.399993896484375</ele>
        <time>2022-01-07T09:21:08.000Z</time>
      </trkpt>
      <trkpt lat="41.45844197832047939300537109375" lon="2.1441637538373470306396484375">
        <ele>237.8000030517578125</ele>
        <time>2022-01-07T09:21:09.000Z</time>
      </trkpt>
      <trkpt lat="41.4584190957248210906982421875" lon="2.1441728062927722930908203125">
        <ele>238.1999969482421875</ele>
        <time>2022-01-07T09:21:10.000Z</time>
      </trkpt>
      <trkpt lat="41.4583996497094631195068359375" lon="2.14418672025203704833984375">
        <ele>238.600006103515625</ele>
        <time>2022-01-07T09:21:11.000Z</time>
      </trkpt>
      <trkpt lat="41.45837710238993167877197265625" lon="2.144198454916477203369140625">
        <ele>239.1999969482421875</ele>
        <time>2022-01-07T09:21:12.000Z</time>
      </trkpt>
      <trkpt lat="41.45836134441196918487548828125" lon="2.1442127041518688201904296875">
        <ele>239.399993896484375</ele>
        <time>2022-01-07T09:21:13.000Z</time>
      </trkpt>
      <trkpt lat="41.4583436585962772369384765625" lon="2.1442257799208164215087890625">
        <ele>239.8000030517578125</ele>
        <time>2022-01-07T09:21:14.000Z</time>
      </trkpt>
      <trkpt lat="41.458327062427997589111328125" lon="2.14423977769911289215087890625">
        <ele>240.1999969482421875</ele>
        <time>2022-01-07T09:21:15.000Z</time>
      </trkpt>
      <trkpt lat="41.4583118073642253875732421875" lon="2.1442542783915996551513671875">
        <ele>240.600006103515625</ele>
        <time>2022-01-07T09:21:16.000Z</time>
      </trkpt>
      <trkpt lat="41.4582931995391845703125" lon="2.14427095837891101837158203125">
        <ele>240.8000030517578125</ele>
        <time>2022-01-07T09:21:17.000Z</time>
      </trkpt>
      <trkpt lat="41.458269394934177398681640625" lon="2.1442904882133007049560546875">
        <ele>241</ele>
        <time>2022-01-07T09:21:18.000Z</time>
      </trkpt>
      <trkpt lat="41.4582420699298381805419921875" lon="2.1443156339228153228759765625">
        <ele>241.399993896484375</ele>
        <time>2022-01-07T09:21:19.000Z</time>
      </trkpt>
      <trkpt lat="41.4582140743732452392578125" lon="2.14434622786939144134521484375">
        <ele>241.399993896484375</ele>
        <time>2022-01-07T09:21:20.000Z</time>
      </trkpt>
      <trkpt lat="41.45818733610212802886962890625" lon="2.14437849819660186767578125">
        <ele>241.399993896484375</ele>
        <time>2022-01-07T09:21:21.000Z</time>
      </trkpt>
      <trkpt lat="41.458158753812313079833984375" lon="2.14441110379993915557861328125">
        <ele>241.399993896484375</ele>
        <time>2022-01-07T09:21:22.000Z</time>
      </trkpt>
      <trkpt lat="41.45813251845538616180419921875" lon="2.1444410271942615509033203125">
        <ele>241.399993896484375</ele>
        <time>2022-01-07T09:21:23.000Z</time>
      </trkpt>
      <trkpt lat="41.4581049419939517974853515625" lon="2.14446977712213993072509765625">
        <ele>241.399993896484375</ele>
        <time>2022-01-07T09:21:24.000Z</time>
      </trkpt>
      <trkpt lat="41.45807786844670772552490234375" lon="2.14449659921228885650634765625">
        <ele>241.399993896484375</ele>
        <time>2022-01-07T09:21:25.000Z</time>
      </trkpt>
      <trkpt lat="41.45805255509912967681884765625" lon="2.144519649446010589599609375">
        <ele>241.399993896484375</ele>
        <time>2022-01-07T09:21:26.000Z</time>
      </trkpt>
      <trkpt lat="41.4580261521041393280029296875" lon="2.14454135857522487640380859375">
        <ele>241.399993896484375</ele>
        <time>2022-01-07T09:21:27.000Z</time>
      </trkpt>
      <trkpt lat="41.45799882709980010986328125" lon="2.144563235342502593994140625">
        <ele>241.399993896484375</ele>
        <time>2022-01-07T09:21:28.000Z</time>
      </trkpt>
      <trkpt lat="41.4579715020954608917236328125" lon="2.1445862017571926116943359375">
        <ele>241.399993896484375</ele>
        <time>2022-01-07T09:21:29.000Z</time>
      </trkpt>
      <trkpt lat="41.45794694311916828155517578125" lon="2.1446116827428340911865234375">
        <ele>241.399993896484375</ele>
        <time>2022-01-07T09:21:30.000Z</time>
      </trkpt>
      <trkpt lat="41.45792515017092227935791015625" lon="2.14463674463331699371337890625">
        <ele>241.399993896484375</ele>
        <time>2022-01-07T09:21:31.000Z</time>
      </trkpt>
      <trkpt lat="41.45790469832718372344970703125" lon="2.14466641657054424285888671875">
        <ele>241.399993896484375</ele>
        <time>2022-01-07T09:21:32.000Z</time>
      </trkpt>
      <trkpt lat="41.457883827388286590576171875" lon="2.14469608850777149200439453125">
        <ele>241.399993896484375</ele>
        <time>2022-01-07T09:21:33.000Z</time>
      </trkpt>
      <trkpt lat="41.4578648842871189117431640625" lon="2.1447266824543476104736328125">
        <ele>241.1999969482421875</ele>
        <time>2022-01-07T09:21:34.000Z</time>
      </trkpt>
      <trkpt lat="41.4578454382717609405517578125" lon="2.144757695496082305908203125">
        <ele>241.1999969482421875</ele>
        <time>2022-01-07T09:21:35.000Z</time>
      </trkpt>
      <trkpt lat="41.4578283391892910003662109375" lon="2.14478929527103900909423828125">
        <ele>241</ele>
        <time>2022-01-07T09:21:36.000Z</time>
      </trkpt>
      <trkpt lat="41.4578102342784404754638671875" lon="2.1448212303221225738525390625">
        <ele>241</ele>
        <time>2022-01-07T09:21:37.000Z</time>
      </trkpt>
      <trkpt lat="41.45779573358595371246337890625" lon="2.14485517702996730804443359375">
        <ele>241</ele>
        <time>2022-01-07T09:21:38.000Z</time>
      </trkpt>
      <trkpt lat="41.45778114907443523406982421875" lon="2.14488920755684375762939453125">
        <ele>241</ele>
        <time>2022-01-07T09:21:39.000Z</time>
      </trkpt>
      <trkpt lat="41.45776757039129734039306640625" lon="2.144922316074371337890625">
        <ele>241</ele>
        <time>2022-01-07T09:21:40.000Z</time>
      </trkpt>
      <trkpt lat="41.45775315351784229278564453125" lon="2.14495374821126461029052734375">
        <ele>241</ele>
        <time>2022-01-07T09:21:41.000Z</time>
      </trkpt>
      <trkpt lat="41.45773370750248432159423828125" lon="2.14498828165233135223388671875">
        <ele>241</ele>
        <time>2022-01-07T09:21:42.000Z</time>
      </trkpt>
      <trkpt lat="41.457717530429363250732421875" lon="2.1450240723788738250732421875">
        <ele>240.8000030517578125</ele>
        <time>2022-01-07T09:21:43.000Z</time>
      </trkpt>
      <trkpt lat="41.45770235918462276458740234375" lon="2.1450542472302913665771484375">
        <ele>240.600006103515625</ele>
        <time>2022-01-07T09:21:44.000Z</time>
      </trkpt>
      <trkpt lat="41.4576923847198486328125" lon="2.14507964439690113067626953125">
        <ele>240.399993896484375</ele>
        <time>2022-01-07T09:21:45.000Z</time>
      </trkpt>
      <trkpt lat="41.45768576301634311676025390625" lon="2.14510311372578144073486328125">
        <ele>240</ele>
        <time>2022-01-07T09:21:46.000Z</time>
      </trkpt>
      <trkpt lat="41.45768190734088420867919921875" lon="2.1451253257691860198974609375">
        <ele>239.399993896484375</ele>
        <time>2022-01-07T09:21:47.000Z</time>
      </trkpt>
      <trkpt lat="41.45768341608345508575439453125" lon="2.14514049701392650604248046875">
        <ele>239</ele>
        <time>2022-01-07T09:21:48.000Z</time>
      </trkpt>
      <trkpt lat="41.45768358372151851654052734375" lon="2.14514636434614658355712890625">
        <ele>238.399993896484375</ele>
        <time>2022-01-07T09:21:49.000Z</time>
      </trkpt>
      <trkpt lat="41.45768358372151851654052734375" lon="2.14514636434614658355712890625">
        <ele>238</ele>
        <time>2022-01-07T09:21:50.000Z</time>
      </trkpt>
      <trkpt lat="41.4576539956033229827880859375" lon="2.1451816521584987640380859375">
        <ele>236.600006103515625</ele>
        <time>2022-01-07T09:25:12.000Z</time>
      </trkpt>
      <trkpt lat="41.457638405263423919677734375" lon="2.14519782923161983489990234375">
        <ele>236.600006103515625</ele>
        <time>2022-01-07T09:25:13.000Z</time>
      </trkpt>
      <trkpt lat="41.45762256346642971038818359375" lon="2.14521878398954868316650390625">
        <ele>236.600006103515625</ele>
        <time>2022-01-07T09:25:14.000Z</time>
      </trkpt>
      <trkpt lat="41.457608230412006378173828125" lon="2.14524225331842899322509765625">
        <ele>236.600006103515625</ele>
        <time>2022-01-07T09:25:15.000Z</time>
      </trkpt>
      <trkpt lat="41.45759758539497852325439453125" lon="2.1452664770185947418212890625">
        <ele>236.600006103515625</ele>
        <time>2022-01-07T09:25:16.000Z</time>
      </trkpt>
      <trkpt lat="41.45758585073053836822509765625" lon="2.14528902433812618255615234375">
        <ele>236.600006103515625</ele>
        <time>2022-01-07T09:25:17.000Z</time>
      </trkpt>
      <trkpt lat="41.45757227204740047454833984375" lon="2.14531182311475276947021484375">
        <ele>236.600006103515625</ele>
        <time>2022-01-07T09:25:18.000Z</time>
      </trkpt>
      <trkpt lat="41.45755802281200885772705078125" lon="2.145334370434284210205078125">
        <ele>236.8000030517578125</ele>
        <time>2022-01-07T09:25:19.000Z</time>
      </trkpt>
      <trkpt lat="41.4575450308620929718017578125" lon="2.1453586779534816741943359375">
        <ele>236.8000030517578125</ele>
        <time>2022-01-07T09:25:20.000Z</time>
      </trkpt>
      <trkpt lat="41.4575296081602573394775390625" lon="2.1453865058720111846923828125">
        <ele>236.8000030517578125</ele>
        <time>2022-01-07T09:25:21.000Z</time>
      </trkpt>
      <trkpt lat="41.457518376410007476806640625" lon="2.14541089721024036407470703125">
        <ele>236.8000030517578125</ele>
        <time>2022-01-07T09:25:22.000Z</time>
      </trkpt>
      <trkpt lat="41.4575024507939815521240234375" lon="2.14544065296649932861328125">
        <ele>236.8000030517578125</ele>
        <time>2022-01-07T09:25:23.000Z</time>
      </trkpt>
      <trkpt lat="41.45748392678797245025634765625" lon="2.14547124691307544708251953125">
        <ele>236.8000030517578125</ele>
        <time>2022-01-07T09:25:24.000Z</time>
      </trkpt>
      <trkpt lat="41.45746112801134586334228515625" lon="2.1455097198486328125">
        <ele>236.8000030517578125</ele>
        <time>2022-01-07T09:25:25.000Z</time>
      </trkpt>
      <trkpt lat="41.45744360983371734619140625" lon="2.14554500766098499298095703125">
        <ele>237</ele>
        <time>2022-01-07T09:25:26.000Z</time>
      </trkpt>
      <trkpt lat="41.45742726512253284454345703125" lon="2.145581133663654327392578125">
        <ele>237</ele>
        <time>2022-01-07T09:25:27.000Z</time>
      </trkpt>
      <trkpt lat="41.4574085734784603118896484375" lon="2.14561633765697479248046875">
        <ele>237.1999969482421875</ele>
        <time>2022-01-07T09:25:28.000Z</time>
      </trkpt>
      <trkpt lat="41.457388289272785186767578125" lon="2.14565112255513668060302734375">
        <ele>237.399993896484375</ele>
        <time>2022-01-07T09:25:29.000Z</time>
      </trkpt>
      <trkpt lat="41.4573680050671100616455078125" lon="2.14568733237683773040771484375">
        <ele>237.600006103515625</ele>
        <time>2022-01-07T09:25:30.000Z</time>
      </trkpt>
      <trkpt lat="41.45734705030918121337890625" lon="2.14572303928434848785400390625">
        <ele>237.8000030517578125</ele>
        <time>2022-01-07T09:25:31.000Z</time>
      </trkpt>
      <trkpt lat="41.4573276042938232421875" lon="2.145759165287017822265625">
        <ele>238.1999969482421875</ele>
        <time>2022-01-07T09:25:32.000Z</time>
      </trkpt>
      <trkpt lat="41.45731410942971706390380859375" lon="2.14578791521489620208740234375">
        <ele>238.399993896484375</ele>
        <time>2022-01-07T09:25:33.000Z</time>
      </trkpt>
      <trkpt lat="41.4572925679385662078857421875" lon="2.14582747779786586761474609375">
        <ele>238.8000030517578125</ele>
        <time>2022-01-07T09:25:34.000Z</time>
      </trkpt>
      <trkpt lat="41.45727957598865032196044921875" lon="2.1458558924496173858642578125">
        <ele>239.399993896484375</ele>
        <time>2022-01-07T09:25:35.000Z</time>
      </trkpt>
      <trkpt lat="41.45726733841001987457275390625" lon="2.145886905491352081298828125">
        <ele>240</ele>
        <time>2022-01-07T09:25:36.000Z</time>
      </trkpt>
      <trkpt lat="41.45725308917462825775146484375" lon="2.1459185890853404998779296875">
        <ele>240.600006103515625</ele>
        <time>2022-01-07T09:25:37.000Z</time>
      </trkpt>
      <trkpt lat="41.457240097224712371826171875" lon="2.1459537930786609649658203125">
        <ele>240.600006103515625</ele>
        <time>2022-01-07T09:25:38.000Z</time>
      </trkpt>
      <trkpt lat="41.45723012275993824005126953125" lon="2.1459950320422649383544921875">
        <ele>241.600006103515625</ele>
        <time>2022-01-07T09:25:39.000Z</time>
      </trkpt>
      <trkpt lat="41.45722039975225925445556640625" lon="2.146035768091678619384765625">
        <ele>242.1999969482421875</ele>
        <time>2022-01-07T09:25:40.000Z</time>
      </trkpt>
      <trkpt lat="41.45721369422972202301025390625" lon="2.14607625268399715423583984375">
        <ele>243.1999969482421875</ele>
        <time>2022-01-07T09:25:41.000Z</time>
      </trkpt>
      <trkpt lat="41.45720900036394596099853515625" lon="2.14611522853374481201171875">
        <ele>244.1999969482421875</ele>
        <time>2022-01-07T09:25:42.000Z</time>
      </trkpt>
      <trkpt lat="41.45720581524074077606201171875" lon="2.14614565484225749969482421875">
        <ele>245.1999969482421875</ele>
        <time>2022-01-07T09:25:43.000Z</time>
      </trkpt>
      <trkpt lat="41.45720514468848705291748046875" lon="2.1461861394345760345458984375">
        <ele>246</ele>
        <time>2022-01-07T09:25:44.000Z</time>
      </trkpt>
      <trkpt lat="41.457207910716533660888671875" lon="2.146220505237579345703125">
        <ele>246.8000030517578125</ele>
        <time>2022-01-07T09:25:45.000Z</time>
      </trkpt>
      <trkpt lat="41.45720967091619968414306640625" lon="2.146251685917377471923828125">
        <ele>247.600006103515625</ele>
        <time>2022-01-07T09:25:46.000Z</time>
      </trkpt>
      <trkpt lat="41.45721335895359516143798828125" lon="2.14628060348331928253173828125">
        <ele>248.399993896484375</ele>
        <time>2022-01-07T09:25:47.000Z</time>
      </trkpt>
      <trkpt lat="41.457213945686817169189453125" lon="2.14630356989800930023193359375">
        <ele>249.1999969482421875</ele>
        <time>2022-01-07T09:25:48.000Z</time>
      </trkpt>
      <trkpt lat="41.4572107605636119842529296875" lon="2.14632444083690643310546875">
        <ele>250.1999969482421875</ele>
        <time>2022-01-07T09:25:49.000Z</time>
      </trkpt>
      <trkpt lat="41.45720313303172588348388671875" lon="2.1463430486619472503662109375">
        <ele>251</ele>
        <time>2022-01-07T09:25:50.000Z</time>
      </trkpt>
      <trkpt lat="41.45719458349049091339111328125" lon="2.14635394513607025146484375">
        <ele>251.8000030517578125</ele>
        <time>2022-01-07T09:25:51.000Z</time>
      </trkpt>
      <trkpt lat="41.4571768976747989654541015625" lon="2.14636710472404956817626953125">
        <ele>252.399993896484375</ele>
        <time>2022-01-07T09:25:52.000Z</time>
      </trkpt>
      <trkpt lat="41.4571591280400753021240234375" lon="2.1463759057223796844482421875">
        <ele>253</ele>
        <time>2022-01-07T09:25:53.000Z</time>
      </trkpt>
      <trkpt lat="41.45713876001536846160888671875" lon="2.14637615717947483062744140625">
        <ele>253.399993896484375</ele>
        <time>2022-01-07T09:25:54.000Z</time>
      </trkpt>
      <trkpt lat="41.45711612887680530548095703125" lon="2.14637414552271366119384765625">
        <ele>253.399993896484375</ele>
        <time>2022-01-07T09:25:55.000Z</time>
      </trkpt>
      <trkpt lat="41.4570955932140350341796875" lon="2.14637666009366512298583984375">
        <ele>253.8000030517578125</ele>
        <time>2022-01-07T09:25:56.000Z</time>
      </trkpt>
      <trkpt lat="41.4570669271051883697509765625" lon="2.14637666009366512298583984375">
        <ele>253.8000030517578125</ele>
        <time>2022-01-07T09:25:57.000Z</time>
      </trkpt>
      <trkpt lat="41.45702811889350414276123046875" lon="2.1463720500469207763671875">
        <ele>253.8000030517578125</ele>
        <time>2022-01-07T09:25:58.000Z</time>
      </trkpt>
      <trkpt lat="41.45699040032923221588134765625" lon="2.146364338696002960205078125">
        <ele>253.8000030517578125</ele>
        <time>2022-01-07T09:25:59.000Z</time>
      </trkpt>
      <trkpt lat="41.45694564096629619598388671875" lon="2.14635436423122882843017578125">
        <ele>253.8000030517578125</ele>
        <time>2022-01-07T09:26:00.000Z</time>
      </trkpt>
      <trkpt lat="41.4569019712507724761962890625" lon="2.14634514413774013519287109375">
        <ele>253.8000030517578125</ele>
        <time>2022-01-07T09:26:01.000Z</time>
      </trkpt>
      <trkpt lat="41.45686819218099117279052734375" lon="2.14633894152939319610595703125">
        <ele>253.8000030517578125</ele>
        <time>2022-01-07T09:26:02.000Z</time>
      </trkpt>
      <trkpt lat="41.45682611502707004547119140625" lon="2.14633223600685596466064453125">
        <ele>253.8000030517578125</ele>
        <time>2022-01-07T09:26:03.000Z</time>
      </trkpt>
      <trkpt lat="41.45678588189184665679931640625" lon="2.1463279612362384796142578125">
        <ele>253.399993896484375</ele>
        <time>2022-01-07T09:26:04.000Z</time>
      </trkpt>
      <trkpt lat="41.4567360095679759979248046875" lon="2.1463209204375743865966796875">
        <ele>253</ele>
        <time>2022-01-07T09:26:05.000Z</time>
      </trkpt>
      <trkpt lat="41.45669921301305294036865234375" lon="2.14631597511470317840576171875">
        <ele>252.1999969482421875</ele>
        <time>2022-01-07T09:26:06.000Z</time>
      </trkpt>
      <trkpt lat="41.45664271898567676544189453125" lon="2.14630742557346820831298828125">
        <ele>250.8000030517578125</ele>
        <time>2022-01-07T09:26:07.000Z</time>
      </trkpt>
      <trkpt lat="41.4565935172140598297119140625" lon="2.14630004949867725372314453125">
        <ele>250.8000030517578125</ele>
        <time>2022-01-07T09:26:08.000Z</time>
      </trkpt>
      <trkpt lat="41.45654917694628238677978515625" lon="2.1462947688996791839599609375">
        <ele>249.8000030517578125</ele>
        <time>2022-01-07T09:26:09.000Z</time>
      </trkpt>
      <trkpt lat="41.4565081894397735595703125" lon="2.1462863869965076446533203125">
        <ele>249.1999969482421875</ele>
        <time>2022-01-07T09:26:10.000Z</time>
      </trkpt>
      <trkpt lat="41.45646862685680389404296875" lon="2.146284542977809906005859375">
        <ele>248.600006103515625</ele>
        <time>2022-01-07T09:26:11.000Z</time>
      </trkpt>
      <trkpt lat="41.45642529241740703582763671875" lon="2.14628261514008045196533203125">
        <ele>248</ele>
        <time>2022-01-07T09:26:12.000Z</time>
      </trkpt>
      <trkpt lat="41.45638690330088138580322265625" lon="2.1462793461978435516357421875">
        <ele>247.600006103515625</ele>
        <time>2022-01-07T09:26:13.000Z</time>
      </trkpt>
      <trkpt lat="41.4563434012234210968017578125" lon="2.14627222158014774322509765625">
        <ele>247.1999969482421875</ele>
        <time>2022-01-07T09:26:14.000Z</time>
      </trkpt>
      <trkpt lat="41.4562917686998844146728515625" lon="2.14626115746796131134033203125">
        <ele>246.8000030517578125</ele>
        <time>2022-01-07T09:26:15.000Z</time>
      </trkpt>
      <trkpt lat="41.45625631324946880340576171875" lon="2.14625428430736064910888671875">
        <ele>246.8000030517578125</ele>
        <time>2022-01-07T09:26:16.000Z</time>
      </trkpt>
      <trkpt lat="41.45620266906917095184326171875" lon="2.14624975807964801788330078125">
        <ele>246.600006103515625</ele>
        <time>2022-01-07T09:26:17.000Z</time>
      </trkpt>
      <trkpt lat="41.45615673623979091644287109375" lon="2.146244980394840240478515625">
        <ele>246.600006103515625</ele>
        <time>2022-01-07T09:26:18.000Z</time>
      </trkpt>
      <trkpt lat="41.4561134018003940582275390625" lon="2.146241627633571624755859375">
        <ele>246.399993896484375</ele>
        <time>2022-01-07T09:26:19.000Z</time>
      </trkpt>
      <trkpt lat="41.4560745097696781158447265625" lon="2.14623861014842987060546875">
        <ele>246.399993896484375</ele>
        <time>2022-01-07T09:26:20.000Z</time>
      </trkpt>
      <trkpt lat="41.45603151060640811920166015625" lon="2.1462360955774784088134765625">
        <ele>246.1999969482421875</ele>
        <time>2022-01-07T09:26:21.000Z</time>
      </trkpt>
      <trkpt lat="41.45598423667252063751220703125" lon="2.1462406218051910400390625">
        <ele>246</ele>
        <time>2022-01-07T09:26:22.000Z</time>
      </trkpt>
      <trkpt lat="41.45593411289155483245849609375" lon="2.14625068008899688720703125">
        <ele>246</ele>
        <time>2022-01-07T09:26:23.000Z</time>
      </trkpt>
      <trkpt lat="41.45588524639606475830078125" lon="2.14625914581120014190673828125">
        <ele>245.8000030517578125</ele>
        <time>2022-01-07T09:26:24.000Z</time>
      </trkpt>
      <trkpt lat="41.45585029385983943939208984375" lon="2.146262414753437042236328125">
        <ele>245.399993896484375</ele>
        <time>2022-01-07T09:26:25.000Z</time>
      </trkpt>
      <trkpt lat="41.45580737851560115814208984375" lon="2.1462709642946720123291015625">
        <ele>245.1999969482421875</ele>
        <time>2022-01-07T09:26:26.000Z</time>
      </trkpt>
      <trkpt lat="41.455780304968357086181640625" lon="2.146279849112033843994140625">
        <ele>245</ele>
        <time>2022-01-07T09:26:27.000Z</time>
      </trkpt>
      <trkpt lat="41.45576178096234798431396484375" lon="2.14628663845360279083251953125">
        <ele>244.600006103515625</ele>
        <time>2022-01-07T09:26:28.000Z</time>
      </trkpt>
      <trkpt lat="41.45574401132762432098388671875" lon="2.146287225186824798583984375">
        <ele>244.399993896484375</ele>
        <time>2022-01-07T09:26:29.000Z</time>
      </trkpt>
      <trkpt lat="41.455728672444820404052734375" lon="2.14628546498715877532958984375">
        <ele>244.399993896484375</ele>
        <time>2022-01-07T09:26:30.000Z</time>
      </trkpt>
      <trkpt lat="41.45571601577103137969970703125" lon="2.14628295041620731353759765625">
        <ele>244.1999969482421875</ele>
        <time>2022-01-07T09:26:31.000Z</time>
      </trkpt>
      <trkpt lat="41.455696485936641693115234375" lon="2.1462837047874927520751953125">
        <ele>244.1999969482421875</ele>
        <time>2022-01-07T09:26:32.000Z</time>
      </trkpt>
      <trkpt lat="41.45567930303514003753662109375" lon="2.1462823636829853057861328125">
        <ele>244.1999969482421875</ele>
        <time>2022-01-07T09:26:33.000Z</time>
      </trkpt>
      <trkpt lat="41.4556632936000823974609375" lon="2.1462793461978435516357421875">
        <ele>244.1999969482421875</ele>
        <time>2022-01-07T09:26:34.000Z</time>
      </trkpt>
      <trkpt lat="41.4556523971259593963623046875" lon="2.1462810225784778594970703125">
        <ele>244.1999969482421875</ele>
        <time>2022-01-07T09:26:35.000Z</time>
      </trkpt>
      <trkpt lat="41.4556359685957431793212890625" lon="2.14628278277814388275146484375">
        <ele>244.1999969482421875</ele>
        <time>2022-01-07T09:26:36.000Z</time>
      </trkpt>
      <trkpt lat="41.4556235633790493011474609375" lon="2.1462847106158733367919921875">
        <ele>244.1999969482421875</ele>
        <time>2022-01-07T09:26:37.000Z</time>
      </trkpt>
      <trkpt lat="41.45561174489557743072509765625" lon="2.14628730900585651397705078125">
        <ele>244.1999969482421875</ele>
        <time>2022-01-07T09:26:38.000Z</time>
      </trkpt>
      <trkpt lat="41.45559799857437610626220703125" lon="2.1462942659854888916015625">
        <ele>244.1999969482421875</ele>
        <time>2022-01-07T09:26:39.000Z</time>
      </trkpt>
      <trkpt lat="41.4555840007960796356201171875" lon="2.146299295127391815185546875">
        <ele>244.1999969482421875</ele>
        <time>2022-01-07T09:26:40.000Z</time>
      </trkpt>
      <trkpt lat="41.4555736072361469268798828125" lon="2.14629895985126495361328125">
        <ele>244.1999969482421875</ele>
        <time>2022-01-07T09:26:41.000Z</time>
      </trkpt>
      <trkpt lat="41.45556631498038768768310546875" lon="2.1462991274893283843994140625">
        <ele>244.1999969482421875</ele>
        <time>2022-01-07T09:26:42.000Z</time>
      </trkpt>
      <trkpt lat="41.45556363277137279510498046875" lon="2.1462996304035186767578125">
        <ele>244.1999969482421875</ele>
        <time>2022-01-07T09:26:43.000Z</time>
      </trkpt>
      <trkpt lat="41.45556363277137279510498046875" lon="2.1462996304035186767578125">
        <ele>244.399993896484375</ele>
        <time>2022-01-07T09:26:44.000Z</time>
      </trkpt>
      <trkpt lat="41.45556363277137279510498046875" lon="2.1462996304035186767578125">
        <ele>244.399993896484375</ele>
        <time>2022-01-07T09:26:45.000Z</time>
      </trkpt>
      <trkpt lat="41.4556279219686985015869140625" lon="2.14626836590468883514404296875">
        <ele>244.399993896484375</ele>
        <time>2022-01-07T09:27:32.000Z</time>
      </trkpt>
      <trkpt lat="41.4556279219686985015869140625" lon="2.14626836590468883514404296875">
        <ele>244.399993896484375</ele>
        <time>2022-01-07T09:27:33.000Z</time>
      </trkpt>
      <trkpt lat="41.4556279219686985015869140625" lon="2.14626836590468883514404296875">
        <ele>244.399993896484375</ele>
        <time>2022-01-07T09:27:34.000Z</time>
      </trkpt>
      <trkpt lat="41.45555307157337665557861328125" lon="2.14630424045026302337646484375">
        <ele>245</ele>
        <time>2022-01-07T09:28:13.000Z</time>
      </trkpt>
      <trkpt lat="41.455534212291240692138671875" lon="2.14630826376378536224365234375">
        <ele>245</ele>
        <time>2022-01-07T09:28:14.000Z</time>
      </trkpt>
      <trkpt lat="41.45551552064716815948486328125" lon="2.14631144888699054718017578125">
        <ele>245</ele>
        <time>2022-01-07T09:28:15.000Z</time>
      </trkpt>
      <trkpt lat="41.45549221895635128021240234375" lon="2.14631681330502033233642578125">
        <ele>245</ele>
        <time>2022-01-07T09:28:16.000Z</time>
      </trkpt>
      <trkpt lat="41.4554669894278049468994140625" lon="2.1463266201317310333251953125">
        <ele>245</ele>
        <time>2022-01-07T09:28:17.000Z</time>
      </trkpt>
      <trkpt lat="41.45543572492897510528564453125" lon="2.14633307419717311859130859375">
        <ele>245</ele>
        <time>2022-01-07T09:28:18.000Z</time>
      </trkpt>
      <trkpt lat="41.45540177822113037109375" lon="2.14634028263390064239501953125">
        <ele>244.8000030517578125</ele>
        <time>2022-01-07T09:28:19.000Z</time>
      </trkpt>
      <trkpt lat="41.45536749623715877532958984375" lon="2.1463447250425815582275390625">
        <ele>244.8000030517578125</ele>
        <time>2022-01-07T09:28:20.000Z</time>
      </trkpt>
      <trkpt lat="41.45533162169158458709716796875" lon="2.1463447250425815582275390625">
        <ele>244.8000030517578125</ele>
        <time>2022-01-07T09:28:21.000Z</time>
      </trkpt>
      <trkpt lat="41.455293484032154083251953125" lon="2.14634614996612071990966796875">
        <ele>244.8000030517578125</ele>
        <time>2022-01-07T09:28:22.000Z</time>
      </trkpt>
      <trkpt lat="41.4552524127066135406494140625" lon="2.146350927650928497314453125">
        <ele>244.8000030517578125</ele>
        <time>2022-01-07T09:28:23.000Z</time>
      </trkpt>
      <trkpt lat="41.4552081562578678131103515625" lon="2.14636006392538547515869140625">
        <ele>244.8000030517578125</ele>
        <time>2022-01-07T09:28:24.000Z</time>
      </trkpt>
      <trkpt lat="41.4551605470478534698486328125" lon="2.146368362009525299072265625">
        <ele>244.600006103515625</ele>
        <time>2022-01-07T09:28:25.000Z</time>
      </trkpt>
      <trkpt lat="41.45511218346655368804931640625" lon="2.14637565426528453826904296875">
        <ele>244.600006103515625</ele>
        <time>2022-01-07T09:28:26.000Z</time>
      </trkpt>
      <trkpt lat="41.455068849027156829833984375" lon="2.14638655073940753936767578125">
        <ele>244.399993896484375</ele>
        <time>2022-01-07T09:28:27.000Z</time>
      </trkpt>
      <trkpt lat="41.45502626895904541015625" lon="2.14640515856444835662841796875">
        <ele>244.399993896484375</ele>
        <time>2022-01-07T09:28:28.000Z</time>
      </trkpt>
      <trkpt lat="41.45498192869126796722412109375" lon="2.14642929844558238983154296875">
        <ele>244.1999969482421875</ele>
        <time>2022-01-07T09:28:29.000Z</time>
      </trkpt>
      <trkpt lat="41.4549364149570465087890625" lon="2.146456539630889892578125">
        <ele>243.8000030517578125</ele>
        <time>2022-01-07T09:28:30.000Z</time>
      </trkpt>
      <trkpt lat="41.45489475689828395843505859375" lon="2.1464895643293857574462890625">
        <ele>243.1999969482421875</ele>
        <time>2022-01-07T09:28:31.000Z</time>
      </trkpt>
      <trkpt lat="41.45484848879277706146240234375" lon="2.1465264447033405303955078125">
        <ele>242.600006103515625</ele>
        <time>2022-01-07T09:28:32.000Z</time>
      </trkpt>
      <trkpt lat="41.45480054430663585662841796875" lon="2.14656877331435680389404296875">
        <ele>242</ele>
        <time>2022-01-07T09:28:33.000Z</time>
      </trkpt>
      <trkpt lat="41.4547540247440338134765625" lon="2.1466132812201976776123046875">
        <ele>241.8000030517578125</ele>
        <time>2022-01-07T09:28:34.000Z</time>
      </trkpt>
      <trkpt lat="41.454709433019161224365234375" lon="2.14666516520082950592041015625">
        <ele>241.399993896484375</ele>
        <time>2022-01-07T09:28:35.000Z</time>
      </trkpt>
      <trkpt lat="41.45467397756874561309814453125" lon="2.1467131935060024261474609375">
        <ele>240.8000030517578125</ele>
        <time>2022-01-07T09:28:36.000Z</time>
      </trkpt>
      <trkpt lat="41.45464397035539150238037109375" lon="2.1467443741858005523681640625">
        <ele>240.8000030517578125</ele>
        <time>2022-01-07T09:28:37.000Z</time>
      </trkpt>
      <trkpt lat="41.45461915992200374603271484375" lon="2.1467638202011585235595703125">
        <ele>240.600006103515625</ele>
        <time>2022-01-07T09:28:38.000Z</time>
      </trkpt>
      <trkpt lat="41.45459770224988460540771484375" lon="2.14678234420716762542724609375">
        <ele>240.399993896484375</ele>
        <time>2022-01-07T09:28:39.000Z</time>
      </trkpt>
      <trkpt lat="41.45457632839679718017578125" lon="2.1468007005751132965087890625">
        <ele>240.399993896484375</ele>
        <time>2022-01-07T09:28:40.000Z</time>
      </trkpt>
      <trkpt lat="41.45455361343920230865478515625" lon="2.14681637473404407501220703125">
        <ele>240.399993896484375</ele>
        <time>2022-01-07T09:28:41.000Z</time>
      </trkpt>
      <trkpt lat="41.454532407224178314208984375" lon="2.1468332223594188690185546875">
        <ele>240.1999969482421875</ele>
        <time>2022-01-07T09:28:42.000Z</time>
      </trkpt>
      <trkpt lat="41.454512961208820343017578125" lon="2.14685409329831600189208984375">
        <ele>240.1999969482421875</ele>
        <time>2022-01-07T09:28:43.000Z</time>
      </trkpt>
      <trkpt lat="41.45449410192668437957763671875" lon="2.14687152765691280364990234375">
        <ele>240.1999969482421875</ele>
        <time>2022-01-07T09:28:44.000Z</time>
      </trkpt>
      <trkpt lat="41.4544762484729290008544921875" lon="2.146889381110668182373046875">
        <ele>240.1999969482421875</ele>
        <time>2022-01-07T09:28:45.000Z</time>
      </trkpt>
      <trkpt lat="41.45445805974304676055908203125" lon="2.14690874330699443817138671875">
        <ele>240.1999969482421875</ele>
        <time>2022-01-07T09:28:46.000Z</time>
      </trkpt>
      <trkpt lat="41.45443760789930820465087890625" lon="2.14692684821784496307373046875">
        <ele>240.1999969482421875</ele>
        <time>2022-01-07T09:28:47.000Z</time>
      </trkpt>
      <trkpt lat="41.4544142223894596099853515625" lon="2.1469487249851226806640625">
        <ele>240.399993896484375</ele>
        <time>2022-01-07T09:28:48.000Z</time>
      </trkpt>
      <trkpt lat="41.4543897472321987152099609375" lon="2.1469723619520664215087890625">
        <ele>240.8000030517578125</ele>
        <time>2022-01-07T09:28:49.000Z</time>
      </trkpt>
      <trkpt lat="41.45436049439013004302978515625" lon="2.14699566364288330078125">
        <ele>241.1999969482421875</ele>
        <time>2022-01-07T09:28:50.000Z</time>
      </trkpt>
      <trkpt lat="41.45433400757610797882080078125" lon="2.1470193006098270416259765625">
        <ele>241.600006103515625</ele>
        <time>2022-01-07T09:28:51.000Z</time>
      </trkpt>
      <trkpt lat="41.4543086104094982147216796875" lon="2.14704059064388275146484375">
        <ele>242</ele>
        <time>2022-01-07T09:28:52.000Z</time>
      </trkpt>
      <trkpt lat="41.45427726209163665771484375" lon="2.147064395248889923095703125">
        <ele>242.399993896484375</ele>
        <time>2022-01-07T09:28:53.000Z</time>
      </trkpt>
      <trkpt lat="41.45424901507794857025146484375" lon="2.1470935642719268798828125">
        <ele>242.600006103515625</ele>
        <time>2022-01-07T09:28:54.000Z</time>
      </trkpt>
      <trkpt lat="41.4542237855494022369384765625" lon="2.14712281711399555206298828125">
        <ele>242.600006103515625</ele>
        <time>2022-01-07T09:28:55.000Z</time>
      </trkpt>
      <trkpt lat="41.4542014896869659423828125" lon="2.14715265668928623199462890625">
        <ele>242.8000030517578125</ele>
        <time>2022-01-07T09:28:56.000Z</time>
      </trkpt>
      <trkpt lat="41.45417575724422931671142578125" lon="2.1471788920462131500244140625">
        <ele>243</ele>
        <time>2022-01-07T09:28:57.000Z</time>
      </trkpt>
      <trkpt lat="41.45414910279214382171630859375" lon="2.1472057141363620758056640625">
        <ele>243.1999969482421875</ele>
        <time>2022-01-07T09:28:58.000Z</time>
      </trkpt>
      <trkpt lat="41.45412479527294635772705078125" lon="2.1472330391407012939453125">
        <ele>243.600006103515625</ele>
        <time>2022-01-07T09:28:59.000Z</time>
      </trkpt>
      <trkpt lat="41.454102583229541778564453125" lon="2.14725860394537448883056640625">
        <ele>243.8000030517578125</ele>
        <time>2022-01-07T09:29:00.000Z</time>
      </trkpt>
      <trkpt lat="41.45407886244356632232666015625" lon="2.14728374965488910675048828125">
        <ele>244.1999969482421875</ele>
        <time>2022-01-07T09:29:01.000Z</time>
      </trkpt>
      <trkpt lat="41.45405002869665622711181640625" lon="2.1473049558699131011962890625">
        <ele>244.399993896484375</ele>
        <time>2022-01-07T09:29:02.000Z</time>
      </trkpt>
      <trkpt lat="41.4540296606719493865966796875" lon="2.1473301015794277191162109375">
        <ele>244.600006103515625</ele>
        <time>2022-01-07T09:29:03.000Z</time>
      </trkpt>
      <trkpt lat="41.4540068618953227996826171875" lon="2.14735507965087890625">
        <ele>245</ele>
        <time>2022-01-07T09:29:04.000Z</time>
      </trkpt>
      <trkpt lat="41.4539793692529201507568359375" lon="2.14738282375037670135498046875">
        <ele>245.1999969482421875</ele>
        <time>2022-01-07T09:29:05.000Z</time>
      </trkpt>
      <trkpt lat="41.45395346917212009429931640625" lon="2.14740646071732044219970703125">
        <ele>245.8000030517578125</ele>
        <time>2022-01-07T09:29:06.000Z</time>
      </trkpt>
      <trkpt lat="41.453930251300334930419921875" lon="2.14742054231464862823486328125">
        <ele>245.8000030517578125</ele>
        <time>2022-01-07T09:29:07.000Z</time>
      </trkpt>
      <trkpt lat="41.45390720106661319732666015625" lon="2.1474176086485385894775390625">
        <ele>246</ele>
        <time>2022-01-07T09:29:08.000Z</time>
      </trkpt>
      <trkpt lat="41.45388540811836719512939453125" lon="2.14740277267992496490478515625">
        <ele>246.1999969482421875</ele>
        <time>2022-01-07T09:29:09.000Z</time>
      </trkpt>
      <trkpt lat="41.4538613520562648773193359375" lon="2.147380225360393524169921875">
        <ele>246.600006103515625</ele>
        <time>2022-01-07T09:29:10.000Z</time>
      </trkpt>
      <trkpt lat="41.4538340270519256591796875" lon="2.147355414927005767822265625">
        <ele>247</ele>
        <time>2022-01-07T09:29:11.000Z</time>
      </trkpt>
      <trkpt lat="41.4538033492863178253173828125" lon="2.1473334543406963348388671875">
        <ele>247.1999969482421875</ele>
        <time>2022-01-07T09:29:12.000Z</time>
      </trkpt>
      <trkpt lat="41.45377778448164463043212890625" lon="2.14731392450630664825439453125">
        <ele>247.399993896484375</ele>
        <time>2022-01-07T09:29:13.000Z</time>
      </trkpt>
      <trkpt lat="41.4537543989717960357666015625" lon="2.147291712462902069091796875">
        <ele>247.600006103515625</ele>
        <time>2022-01-07T09:29:14.000Z</time>
      </trkpt>
      <trkpt lat="41.45373151637613773345947265625" lon="2.1472650580108165740966796875">
        <ele>247.8000030517578125</ele>
        <time>2022-01-07T09:29:15.000Z</time>
      </trkpt>
      <trkpt lat="41.453707627952098846435546875" lon="2.1472392417490482330322265625">
        <ele>248.1999969482421875</ele>
        <time>2022-01-07T09:29:16.000Z</time>
      </trkpt>
      <trkpt lat="41.4536798000335693359375" lon="2.147221975028514862060546875">
        <ele>248.399993896484375</ele>
        <time>2022-01-07T09:29:17.000Z</time>
      </trkpt>
      <trkpt lat="41.45364920608699321746826171875" lon="2.14721602387726306915283203125">
        <ele>248.600006103515625</ele>
        <time>2022-01-07T09:29:18.000Z</time>
      </trkpt>
      <trkpt lat="41.45362355746328830718994140625" lon="2.14720831252634525299072265625">
        <ele>248.600006103515625</ele>
        <time>2022-01-07T09:29:19.000Z</time>
      </trkpt>
      <trkpt lat="41.4535984955728054046630859375" lon="2.14720227755606174468994140625">
        <ele>249</ele>
        <time>2022-01-07T09:29:20.000Z</time>
      </trkpt>
      <trkpt lat="41.45356915891170501708984375" lon="2.1471956558525562286376953125">
        <ele>249.1999969482421875</ele>
        <time>2022-01-07T09:29:21.000Z</time>
      </trkpt>
      <trkpt lat="41.4535354636609554290771484375" lon="2.14719590730965137481689453125">
        <ele>249.399993896484375</ele>
        <time>2022-01-07T09:29:22.000Z</time>
      </trkpt>
      <trkpt lat="41.45350654609501361846923828125" lon="2.14718903414905071258544921875">
        <ele>249.600006103515625</ele>
        <time>2022-01-07T09:29:23.000Z</time>
      </trkpt>
      <trkpt lat="41.45347704179584980010986328125" lon="2.14718417264521121978759765625">
        <ele>250</ele>
        <time>2022-01-07T09:29:24.000Z</time>
      </trkpt>
      <trkpt lat="41.45344099961221218109130859375" lon="2.147178389132022857666015625">
        <ele>250.1999969482421875</ele>
        <time>2022-01-07T09:29:25.000Z</time>
      </trkpt>
      <trkpt lat="41.45340193994343280792236328125" lon="2.1471745334565639495849609375">
        <ele>250.600006103515625</ele>
        <time>2022-01-07T09:29:26.000Z</time>
      </trkpt>
      <trkpt lat="41.45336455665528774261474609375" lon="2.1471701748669147491455078125">
        <ele>250.8000030517578125</ele>
        <time>2022-01-07T09:29:27.000Z</time>
      </trkpt>
      <trkpt lat="41.45333153195679187774658203125" lon="2.147170342504978179931640625">
        <ele>251</ele>
        <time>2022-01-07T09:29:28.000Z</time>
      </trkpt>
      <trkpt lat="41.4532975852489471435546875" lon="2.147175036370754241943359375">
        <ele>251</ele>
        <time>2022-01-07T09:29:29.000Z</time>
      </trkpt>
      <trkpt lat="41.45326028577983379364013671875" lon="2.14718408882617950439453125">
        <ele>251</ele>
        <time>2022-01-07T09:29:30.000Z</time>
      </trkpt>
      <trkpt lat="41.4532189629971981048583984375" lon="2.14719071052968502044677734375">
        <ele>251.1999969482421875</ele>
        <time>2022-01-07T09:29:31.000Z</time>
      </trkpt>
      <trkpt lat="41.4531750418245792388916015625" lon="2.14719087816774845123291015625">
        <ele>251.1999969482421875</ele>
        <time>2022-01-07T09:29:32.000Z</time>
      </trkpt>
      <trkpt lat="41.45313153974711894989013671875" lon="2.14718886651098728179931640625">
        <ele>251.1999969482421875</ele>
        <time>2022-01-07T09:29:33.000Z</time>
      </trkpt>
      <trkpt lat="41.45308812148869037628173828125" lon="2.14718165807425975799560546875">
        <ele>251.1999969482421875</ele>
        <time>2022-01-07T09:29:34.000Z</time>
      </trkpt>
      <trkpt lat="41.4530467987060546875" lon="2.14717344380915164947509765625">
        <ele>251.1999969482421875</ele>
        <time>2022-01-07T09:29:35.000Z</time>
      </trkpt>
      <trkpt lat="41.45300463773310184478759765625" lon="2.14716321788728237152099609375">
        <ele>251.1999969482421875</ele>
        <time>2022-01-07T09:29:36.000Z</time>
      </trkpt>
      <trkpt lat="41.45296121947467327117919921875" lon="2.14715198613703250885009765625">
        <ele>251.1999969482421875</ele>
        <time>2022-01-07T09:29:37.000Z</time>
      </trkpt>
      <trkpt lat="41.45291738212108612060546875" lon="2.14713874273002147674560546875">
        <ele>251.1999969482421875</ele>
        <time>2022-01-07T09:29:38.000Z</time>
      </trkpt>
      <trkpt lat="41.45286767743527889251708984375" lon="2.147129438817501068115234375">
        <ele>251.1999969482421875</ele>
        <time>2022-01-07T09:29:39.000Z</time>
      </trkpt>
      <trkpt lat="41.4528196491301059722900390625" lon="2.14712248183786869049072265625">
        <ele>251.1999969482421875</ele>
        <time>2022-01-07T09:29:40.000Z</time>
      </trkpt>
      <trkpt lat="41.452774889767169952392578125" lon="2.14711778797209262847900390625">
        <ele>250.8000030517578125</ele>
        <time>2022-01-07T09:29:41.000Z</time>
      </trkpt>
      <trkpt lat="41.452732980251312255859375" lon="2.14711158536374568939208984375">
        <ele>250.8000030517578125</ele>
        <time>2022-01-07T09:29:42.000Z</time>
      </trkpt>
      <trkpt lat="41.45269383676350116729736328125" lon="2.1471051312983036041259765625">
        <ele>250.8000030517578125</ele>
        <time>2022-01-07T09:29:43.000Z</time>
      </trkpt>
      <trkpt lat="41.45265452563762664794921875" lon="2.147099263966083526611328125">
        <ele>250.8000030517578125</ele>
        <time>2022-01-07T09:29:44.000Z</time>
      </trkpt>
      <trkpt lat="41.45261161029338836669921875" lon="2.1470933966338634490966796875">
        <ele>250.8000030517578125</ele>
        <time>2022-01-07T09:29:45.000Z</time>
      </trkpt>
      <trkpt lat="41.45256643183529376983642578125" lon="2.1470920555293560028076171875">
        <ele>250.8000030517578125</ele>
        <time>2022-01-07T09:29:46.000Z</time>
      </trkpt>
      <trkpt lat="41.45252041518688201904296875" lon="2.147109322249889373779296875">
        <ele>250.8000030517578125</ele>
        <time>2022-01-07T09:29:47.000Z</time>
      </trkpt>
      <trkpt lat="41.452480517327785491943359375" lon="2.14714385569095611572265625">
        <ele>250.8000030517578125</ele>
        <time>2022-01-07T09:29:48.000Z</time>
      </trkpt>
      <trkpt lat="41.45244439132511615753173828125" lon="2.14718811213970184326171875">
        <ele>250.8000030517578125</ele>
        <time>2022-01-07T09:29:49.000Z</time>
      </trkpt>
      <trkpt lat="41.45240885205566883087158203125" lon="2.147231362760066986083984375">
        <ele>250.8000030517578125</ele>
        <time>2022-01-07T09:29:50.000Z</time>
      </trkpt>
      <trkpt lat="41.45237532444298267364501953125" lon="2.147274278104305267333984375">
        <ele>251</ele>
        <time>2022-01-07T09:29:51.000Z</time>
      </trkpt>
      <trkpt lat="41.4523385278880596160888671875" lon="2.14730788953602313995361328125">
        <ele>251</ele>
        <time>2022-01-07T09:29:52.000Z</time>
      </trkpt>
      <trkpt lat="41.45229854620993137359619140625" lon="2.147341668605804443359375">
        <ele>251</ele>
        <time>2022-01-07T09:29:53.000Z</time>
      </trkpt>
      <trkpt lat="41.452259235084056854248046875" lon="2.14737561531364917755126953125">
        <ele>251</ele>
        <time>2022-01-07T09:29:54.000Z</time>
      </trkpt>
      <trkpt lat="41.45222227089107036590576171875" lon="2.147413752973079681396484375">
        <ele>251.1999969482421875</ele>
        <time>2022-01-07T09:29:55.000Z</time>
      </trkpt>
      <trkpt lat="41.4521923474967479705810546875" lon="2.14745105244219303131103515625">
        <ele>251.1999969482421875</ele>
        <time>2022-01-07T09:29:56.000Z</time>
      </trkpt>
      <trkpt lat="41.4521683752536773681640625" lon="2.147481143474578857421875">
        <ele>251.1999969482421875</ele>
        <time>2022-01-07T09:29:57.000Z</time>
      </trkpt>
      <trkpt lat="41.4521444030106067657470703125" lon="2.14749547652900218963623046875">
        <ele>251.1999969482421875</ele>
        <time>2022-01-07T09:29:58.000Z</time>
      </trkpt>
      <trkpt lat="41.4521259628236293792724609375" lon="2.1475051157176494598388671875">
        <ele>251.399993896484375</ele>
        <time>2022-01-07T09:29:59.000Z</time>
      </trkpt>
      <trkpt lat="41.4521078579127788543701171875" lon="2.14751441963016986846923828125">
        <ele>251.399993896484375</ele>
        <time>2022-01-07T09:30:00.000Z</time>
      </trkpt>
      <trkpt lat="41.452087573707103729248046875" lon="2.14753151871263980865478515625">
        <ele>251.399993896484375</ele>
        <time>2022-01-07T09:30:01.000Z</time>
      </trkpt>
      <trkpt lat="41.45206234417855739593505859375" lon="2.14754962362349033355712890625">
        <ele>251.399993896484375</ele>
        <time>2022-01-07T09:30:02.000Z</time>
      </trkpt>
      <trkpt lat="41.45203300751745700836181640625" lon="2.147563286125659942626953125">
        <ele>251.399993896484375</ele>
        <time>2022-01-07T09:30:03.000Z</time>
      </trkpt>
      <trkpt lat="41.45200115628540515899658203125" lon="2.14757166802883148193359375">
        <ele>251.600006103515625</ele>
        <time>2022-01-07T09:30:04.000Z</time>
      </trkpt>
      <trkpt lat="41.45196829922497272491455078125" lon="2.14757996611297130584716796875">
        <ele>251.600006103515625</ele>
        <time>2022-01-07T09:30:05.000Z</time>
      </trkpt>
      <trkpt lat="41.45193527452647686004638671875" lon="2.1475875936448574066162109375">
        <ele>251.8000030517578125</ele>
        <time>2022-01-07T09:30:06.000Z</time>
      </trkpt>
      <trkpt lat="41.4518974721431732177734375" lon="2.1475951373577117919921875">
        <ele>251.8000030517578125</ele>
        <time>2022-01-07T09:30:07.000Z</time>
      </trkpt>
      <trkpt lat="41.45186017267405986785888671875" lon="2.14759857393801212310791015625">
        <ele>251.8000030517578125</ele>
        <time>2022-01-07T09:30:08.000Z</time>
      </trkpt>
      <trkpt lat="41.4518272317945957183837890625" lon="2.14759773574769496917724609375">
        <ele>251.8000030517578125</ele>
        <time>2022-01-07T09:30:09.000Z</time>
      </trkpt>
      <trkpt lat="41.4517963863909244537353515625" lon="2.14759740047156810760498046875">
        <ele>251.8000030517578125</ele>
        <time>2022-01-07T09:30:10.000Z</time>
      </trkpt>
      <trkpt lat="41.4517729170620441436767578125" lon="2.1475852467119693756103515625">
        <ele>252</ele>
        <time>2022-01-07T09:30:11.000Z</time>
      </trkpt>
      <trkpt lat="41.45175070501863956451416015625" lon="2.147563956677913665771484375">
        <ele>252</ele>
        <time>2022-01-07T09:30:12.000Z</time>
      </trkpt>
      <trkpt lat="41.4517276547849178314208984375" lon="2.14754140935838222503662109375">
        <ele>252</ele>
        <time>2022-01-07T09:30:13.000Z</time>
      </trkpt>
      <trkpt lat="41.45170577801764011383056640625" lon="2.1475191973149776458740234375">
        <ele>252</ele>
        <time>2022-01-07T09:30:14.000Z</time>
      </trkpt>
      <trkpt lat="41.451683230698108673095703125" lon="2.1474984101951122283935546875">
        <ele>252.1999969482421875</ele>
        <time>2022-01-07T09:30:15.000Z</time>
      </trkpt>
      <trkpt lat="41.45166210830211639404296875" lon="2.14747586287558078765869140625">
        <ele>252.600006103515625</ele>
        <time>2022-01-07T09:30:16.000Z</time>
      </trkpt>
      <trkpt lat="41.45164241082966327667236328125" lon="2.147452645003795623779296875">
        <ele>252.8000030517578125</ele>
        <time>2022-01-07T09:30:17.000Z</time>
      </trkpt>
      <trkpt lat="41.4516186900436878204345703125" lon="2.14743060059845447540283203125">
        <ele>253.1999969482421875</ele>
        <time>2022-01-07T09:30:18.000Z</time>
      </trkpt>
      <trkpt lat="41.45159304141998291015625" lon="2.1474073827266693115234375">
        <ele>253.600006103515625</ele>
        <time>2022-01-07T09:30:19.000Z</time>
      </trkpt>
      <trkpt lat="41.45156663842499256134033203125" lon="2.1473820693790912628173828125">
        <ele>254</ele>
        <time>2022-01-07T09:30:20.000Z</time>
      </trkpt>
      <trkpt lat="41.45154476165771484375" lon="2.1473565883934497833251953125">
        <ele>254.600006103515625</ele>
        <time>2022-01-07T09:30:21.000Z</time>
      </trkpt>
      <trkpt lat="41.45152070559561252593994140625" lon="2.14733253233134746551513671875">
        <ele>255</ele>
        <time>2022-01-07T09:30:22.000Z</time>
      </trkpt>
      <trkpt lat="41.45149438641965389251708984375" lon="2.14731040410697460174560546875">
        <ele>255.399993896484375</ele>
        <time>2022-01-07T09:30:23.000Z</time>
      </trkpt>
      <trkpt lat="41.451469324529170989990234375" lon="2.14729137718677520751953125">
        <ele>255.8000030517578125</ele>
        <time>2022-01-07T09:30:24.000Z</time>
      </trkpt>
      <trkpt lat="41.45144526846706867218017578125" lon="2.14726933278143405914306640625">
        <ele>256</ele>
        <time>2022-01-07T09:30:25.000Z</time>
      </trkpt>
      <trkpt lat="41.451426409184932708740234375" lon="2.14724737219512462615966796875">
        <ele>256.20001220703125</ele>
        <time>2022-01-07T09:30:26.000Z</time>
      </trkpt>
      <trkpt lat="41.45140922628343105316162109375" lon="2.1472218073904514312744140625">
        <ele>256.20001220703125</ele>
        <time>2022-01-07T09:30:27.000Z</time>
      </trkpt>
      <trkpt lat="41.4513920433819293975830078125" lon="2.147196829319000244140625">
        <ele>256.399993896484375</ele>
        <time>2022-01-07T09:30:28.000Z</time>
      </trkpt>
      <trkpt lat="41.4513736031949520111083984375" lon="2.14717713184654712677001953125">
        <ele>256.399993896484375</ele>
        <time>2022-01-07T09:30:29.000Z</time>
      </trkpt>
      <trkpt lat="41.4513531513512134552001953125" lon="2.1471614576876163482666015625">
        <ele>256.600006103515625</ele>
        <time>2022-01-07T09:30:30.000Z</time>
      </trkpt>
      <trkpt lat="41.45133144222199916839599609375" lon="2.14714922010898590087890625">
        <ele>256.79998779296875</ele>
        <time>2022-01-07T09:30:31.000Z</time>
      </trkpt>
      <trkpt lat="41.4513047039508819580078125" lon="2.14713756926357746124267578125">
        <ele>257</ele>
        <time>2022-01-07T09:30:32.000Z</time>
      </trkpt>
      <trkpt lat="41.45127796567976474761962890625" lon="2.147126086056232452392578125">
        <ele>257.399993896484375</ele>
        <time>2022-01-07T09:30:33.000Z</time>
      </trkpt>
      <trkpt lat="41.4512552507221698760986328125" lon="2.14711326174437999725341796875">
        <ele>257.79998779296875</ele>
        <time>2022-01-07T09:30:34.000Z</time>
      </trkpt>
      <trkpt lat="41.45123429596424102783203125" lon="2.1471027843654155731201171875">
        <ele>258.399993896484375</ele>
        <time>2022-01-07T09:30:35.000Z</time>
      </trkpt>
      <trkpt lat="41.4512093178927898406982421875" lon="2.14708928950130939483642578125">
        <ele>258.79998779296875</ele>
        <time>2022-01-07T09:30:36.000Z</time>
      </trkpt>
      <trkpt lat="41.4511838369071483612060546875" lon="2.14707470498979091644287109375">
        <ele>258.79998779296875</ele>
        <time>2022-01-07T09:30:37.000Z</time>
      </trkpt>
      <trkpt lat="41.4511598646640777587890625" lon="2.1470699273049831390380859375">
        <ele>259.20001220703125</ele>
        <time>2022-01-07T09:30:38.000Z</time>
      </trkpt>
      <trkpt lat="41.45113161765038967132568359375" lon="2.1470679156482219696044921875">
        <ele>259.600006103515625</ele>
        <time>2022-01-07T09:30:39.000Z</time>
      </trkpt>
      <trkpt lat="41.4510990120470523834228515625" lon="2.14706431142985820770263671875">
        <ele>260</ele>
        <time>2022-01-07T09:30:40.000Z</time>
      </trkpt>
      <trkpt lat="41.45106037147343158721923828125" lon="2.1470694243907928466796875">
        <ele>260.600006103515625</ele>
        <time>2022-01-07T09:30:41.000Z</time>
      </trkpt>
      <trkpt lat="41.4510192163288593292236328125" lon="2.147073782980442047119140625">
        <ele>260.79998779296875</ele>
        <time>2022-01-07T09:30:42.000Z</time>
      </trkpt>
      <trkpt lat="41.45097504369914531707763671875" lon="2.14707671664655208587646484375">
        <ele>261</ele>
        <time>2022-01-07T09:30:43.000Z</time>
      </trkpt>
      <trkpt lat="41.4509353972971439361572265625" lon="2.147077806293964385986328125">
        <ele>261.600006103515625</ele>
        <time>2022-01-07T09:30:44.000Z</time>
      </trkpt>
      <trkpt lat="41.45090228877961635589599609375" lon="2.14708962477743625640869140625">
        <ele>261.79998779296875</ele>
        <time>2022-01-07T09:30:45.000Z</time>
      </trkpt>
      <trkpt lat="41.45086591131985187530517578125" lon="2.1471011079847812652587890625">
        <ele>262</ele>
        <time>2022-01-07T09:30:46.000Z</time>
      </trkpt>
      <trkpt lat="41.4508324675261974334716796875" lon="2.147112004458904266357421875">
        <ele>262.20001220703125</ele>
        <time>2022-01-07T09:30:47.000Z</time>
      </trkpt>
      <trkpt lat="41.45080246031284332275390625" lon="2.1471218951046466827392578125">
        <ele>262.399993896484375</ele>
        <time>2022-01-07T09:30:48.000Z</time>
      </trkpt>
      <trkpt lat="41.450767256319522857666015625" lon="2.1471296064555644989013671875">
        <ele>262.399993896484375</ele>
        <time>2022-01-07T09:30:49.000Z</time>
      </trkpt>
      <trkpt lat="41.45073850639164447784423828125" lon="2.14713170193135738372802734375">
        <ele>262.399993896484375</ele>
        <time>2022-01-07T09:30:50.000Z</time>
      </trkpt>
      <trkpt lat="41.45071352832019329071044921875" lon="2.1471282653510570526123046875">
        <ele>262.600006103515625</ele>
        <time>2022-01-07T09:30:51.000Z</time>
      </trkpt>
      <trkpt lat="41.45069114863872528076171875" lon="2.1471349708735942840576171875">
        <ele>262.79998779296875</ele>
        <time>2022-01-07T09:30:52.000Z</time>
      </trkpt>
      <trkpt lat="41.45066709257662296295166015625" lon="2.14714293368160724639892578125">
        <ele>262.79998779296875</ele>
        <time>2022-01-07T09:30:53.000Z</time>
      </trkpt>
      <trkpt lat="41.4506383426487445831298828125" lon="2.14715324342250823974609375">
        <ele>263</ele>
        <time>2022-01-07T09:30:54.000Z</time>
      </trkpt>
      <trkpt lat="41.45060791634023189544677734375" lon="2.147166989743709564208984375">
        <ele>263.20001220703125</ele>
        <time>2022-01-07T09:30:55.000Z</time>
      </trkpt>
      <trkpt lat="41.45058109425008296966552734375" lon="2.14717512018978595733642578125">
        <ele>263.399993896484375</ele>
        <time>2022-01-07T09:30:56.000Z</time>
      </trkpt>
      <trkpt lat="41.4505531825125217437744140625" lon="2.1471825800836086273193359375">
        <ele>263.600006103515625</ele>
        <time>2022-01-07T09:30:57.000Z</time>
      </trkpt>
      <trkpt lat="41.45052091218531131744384765625" lon="2.14718987233936786651611328125">
        <ele>264</ele>
        <time>2022-01-07T09:30:58.000Z</time>
      </trkpt>
      <trkpt lat="41.450491659343242645263671875" lon="2.14719456620514392852783203125">
        <ele>264.600006103515625</ele>
        <time>2022-01-07T09:30:59.000Z</time>
      </trkpt>
      <trkpt lat="41.4504636637866497039794921875" lon="2.14719674549996852874755859375">
        <ele>265</ele>
        <time>2022-01-07T09:31:00.000Z</time>
      </trkpt>
      <trkpt lat="41.4504318125545978546142578125" lon="2.1472077257931232452392578125">
        <ele>265.600006103515625</ele>
        <time>2022-01-07T09:31:01.000Z</time>
      </trkpt>
      <trkpt lat="41.4504016377031803131103515625" lon="2.1472228132188320159912109375">
        <ele>265.79998779296875</ele>
        <time>2022-01-07T09:31:02.000Z</time>
      </trkpt>
      <trkpt lat="41.45036836154758930206298828125" lon="2.1472370624542236328125">
        <ele>266.20001220703125</ele>
        <time>2022-01-07T09:31:03.000Z</time>
      </trkpt>
      <trkpt lat="41.4503409527242183685302734375" lon="2.14725173078477382659912109375">
        <ele>266.600006103515625</ele>
        <time>2022-01-07T09:31:04.000Z</time>
      </trkpt>
      <trkpt lat="41.45031605847179889678955078125" lon="2.14726732112467288970947265625">
        <ele>266.79998779296875</ele>
        <time>2022-01-07T09:31:05.000Z</time>
      </trkpt>
      <trkpt lat="41.45029560662806034088134765625" lon="2.14728333055973052978515625">
        <ele>266.79998779296875</ele>
        <time>2022-01-07T09:31:06.000Z</time>
      </trkpt>
      <trkpt lat="41.4502742327749729156494140625" lon="2.14729632250964641571044921875">
        <ele>267</ele>
        <time>2022-01-07T09:31:07.000Z</time>
      </trkpt>
      <trkpt lat="41.45024933852255344390869140625" lon="2.1473062969744205474853515625">
        <ele>267.20001220703125</ele>
        <time>2022-01-07T09:31:08.000Z</time>
      </trkpt>
      <trkpt lat="41.45022586919367313385009765625" lon="2.1473106555640697479248046875">
        <ele>267.20001220703125</ele>
        <time>2022-01-07T09:31:09.000Z</time>
      </trkpt>
      <trkpt lat="41.450199298560619354248046875" lon="2.14731308631598949432373046875">
        <ele>267.600006103515625</ele>
        <time>2022-01-07T09:31:10.000Z</time>
      </trkpt>
      <trkpt lat="41.45017524249851703643798828125" lon="2.1473183669149875640869140625">
        <ele>267.79998779296875</ele>
        <time>2022-01-07T09:31:11.000Z</time>
      </trkpt>
      <trkpt lat="41.4501511864364147186279296875" lon="2.1473228931427001953125">
        <ele>268</ele>
        <time>2022-01-07T09:31:12.000Z</time>
      </trkpt>
      <trkpt lat="41.45012629218399524688720703125" lon="2.1473284251987934112548828125">
        <ele>268.399993896484375</ele>
        <time>2022-01-07T09:31:13.000Z</time>
      </trkpt>
      <trkpt lat="41.4501019008457660675048828125" lon="2.147334627807140350341796875">
        <ele>268.600006103515625</ele>
        <time>2022-01-07T09:31:14.000Z</time>
      </trkpt>
      <trkpt lat="41.4500784315168857574462890625" lon="2.14734124951064586639404296875">
        <ele>269</ele>
        <time>2022-01-07T09:31:15.000Z</time>
      </trkpt>
      <trkpt lat="41.4500512741506099700927734375" lon="2.1473512239754199981689453125">
        <ele>269.20001220703125</ele>
        <time>2022-01-07T09:31:16.000Z</time>
      </trkpt>
      <trkpt lat="41.45002864301204681396484375" lon="2.147361449897289276123046875">
        <ele>269.600006103515625</ele>
        <time>2022-01-07T09:31:17.000Z</time>
      </trkpt>
      <trkpt lat="41.45000852644443511962890625" lon="2.14737259782850742340087890625">
        <ele>269.79998779296875</ele>
        <time>2022-01-07T09:31:18.000Z</time>
      </trkpt>
      <trkpt lat="41.44999067299067974090576171875" lon="2.147389613091945648193359375">
        <ele>270</ele>
        <time>2022-01-07T09:31:19.000Z</time>
      </trkpt>
      <trkpt lat="41.44996871240437030792236328125" lon="2.1473998390138149261474609375">
        <ele>270.399993896484375</ele>
        <time>2022-01-07T09:31:20.000Z</time>
      </trkpt>
      <trkpt lat="41.44994725473225116729736328125" lon="2.147403694689273834228515625">
        <ele>270.600006103515625</ele>
        <time>2022-01-07T09:31:21.000Z</time>
      </trkpt>
      <trkpt lat="41.44992730580270290374755859375" lon="2.1474129147827625274658203125">
        <ele>271</ele>
        <time>2022-01-07T09:31:22.000Z</time>
      </trkpt>
      <trkpt lat="41.4499072730541229248046875" lon="2.1474236436188220977783203125">
        <ele>271.20001220703125</ele>
        <time>2022-01-07T09:31:23.000Z</time>
      </trkpt>
      <trkpt lat="41.44988791085779666900634765625" lon="2.14743646793067455291748046875">
        <ele>271.600006103515625</ele>
        <time>2022-01-07T09:31:24.000Z</time>
      </trkpt>
      <trkpt lat="41.449868381023406982421875" lon="2.1474502980709075927734375">
        <ele>271.79998779296875</ele>
        <time>2022-01-07T09:31:25.000Z</time>
      </trkpt>
      <trkpt lat="41.449846923351287841796875" lon="2.147465050220489501953125">
        <ele>272</ele>
        <time>2022-01-07T09:31:26.000Z</time>
      </trkpt>
      <trkpt lat="41.4498259685933589935302734375" lon="2.1474771201610565185546875">
        <ele>272.20001220703125</ele>
        <time>2022-01-07T09:31:27.000Z</time>
      </trkpt>
      <trkpt lat="41.4498058520257472991943359375" lon="2.1474824845790863037109375">
        <ele>272.399993896484375</ele>
        <time>2022-01-07T09:31:28.000Z</time>
      </trkpt>
      <trkpt lat="41.44978431053459644317626953125" lon="2.14748307131230831146240234375">
        <ele>272.79998779296875</ele>
        <time>2022-01-07T09:31:29.000Z</time>
      </trkpt>
      <trkpt lat="41.44977576099336147308349609375" lon="2.1474824845790863037109375">
        <ele>273.20001220703125</ele>
        <time>2022-01-07T09:31:30.000Z</time>
      </trkpt>
      <trkpt lat="41.44977576099336147308349609375" lon="2.1474824845790863037109375">
        <ele>273.399993896484375</ele>
        <time>2022-01-07T09:31:31.000Z</time>
      </trkpt>
      <trkpt lat="41.44977576099336147308349609375" lon="2.1474824845790863037109375">
        <ele>273.399993896484375</ele>
        <time>2022-01-07T09:31:32.000Z</time>
      </trkpt>
      <trkpt lat="41.44975631497800350189208984375" lon="2.1474762819707393646240234375">
        <ele>274.399993896484375</ele>
        <time>2022-01-07T09:33:45.000Z</time>
      </trkpt>
      <trkpt lat="41.449741981923580169677734375" lon="2.14747183956205844879150390625">
        <ele>274.399993896484375</ele>
        <time>2022-01-07T09:33:46.000Z</time>
      </trkpt>
      <trkpt lat="41.44972748123109340667724609375" lon="2.1474705822765827178955078125">
        <ele>274.399993896484375</ele>
        <time>2022-01-07T09:33:47.000Z</time>
      </trkpt>
      <trkpt lat="41.449712477624416351318359375" lon="2.1474692411720752716064453125">
        <ele>274.399993896484375</ele>
        <time>2022-01-07T09:33:48.000Z</time>
      </trkpt>
      <trkpt lat="41.44969604909420013427734375" lon="2.1474675647914409637451171875">
        <ele>274.399993896484375</ele>
        <time>2022-01-07T09:33:49.000Z</time>
      </trkpt>
      <trkpt lat="41.449675597250461578369140625" lon="2.14746748097240924835205078125">
        <ele>274.399993896484375</ele>
        <time>2022-01-07T09:33:50.000Z</time>
      </trkpt>
      <trkpt lat="41.44965648651123046875" lon="2.147459350526332855224609375">
        <ele>274.399993896484375</ele>
        <time>2022-01-07T09:33:51.000Z</time>
      </trkpt>
      <trkpt lat="41.44963729195296764373779296875" lon="2.147449962794780731201171875">
        <ele>274.399993896484375</ele>
        <time>2022-01-07T09:33:52.000Z</time>
      </trkpt>
      <trkpt lat="41.44961424171924591064453125" lon="2.14744300581514835357666015625">
        <ele>274.399993896484375</ele>
        <time>2022-01-07T09:33:53.000Z</time>
      </trkpt>
      <trkpt lat="41.44959286786615848541259765625" lon="2.14743412099778652191162109375">
        <ele>274.79998779296875</ele>
        <time>2022-01-07T09:33:54.000Z</time>
      </trkpt>
      <trkpt lat="41.4495711587369441986083984375" lon="2.1474243141710758209228515625">
        <ele>274.79998779296875</ele>
        <time>2022-01-07T09:33:55.000Z</time>
      </trkpt>
      <trkpt lat="41.4495540596544742584228515625" lon="2.147411741316318511962890625">
        <ele>275</ele>
        <time>2022-01-07T09:33:56.000Z</time>
      </trkpt>
      <trkpt lat="41.44953419454395771026611328125" lon="2.14740025810897350311279296875">
        <ele>275.20001220703125</ele>
        <time>2022-01-07T09:33:57.000Z</time>
      </trkpt>
      <trkpt lat="41.4495151676237583160400390625" lon="2.14738391339778900146484375">
        <ele>275.20001220703125</ele>
        <time>2022-01-07T09:33:58.000Z</time>
      </trkpt>
      <trkpt lat="41.4494980685412883758544921875" lon="2.14736874215304851531982421875">
        <ele>275.600006103515625</ele>
        <time>2022-01-07T09:33:59.000Z</time>
      </trkpt>
      <trkpt lat="41.44947870634496212005615234375" lon="2.147356756031513214111328125">
        <ele>276</ele>
        <time>2022-01-07T09:34:00.000Z</time>
      </trkpt>
      <trkpt lat="41.44945741631090641021728515625" lon="2.14734225533902645111083984375">
        <ele>276.20001220703125</ele>
        <time>2022-01-07T09:34:01.000Z</time>
      </trkpt>
      <trkpt lat="41.44943428225815296173095703125" lon="2.14732063002884387969970703125">
        <ele>276.600006103515625</ele>
        <time>2022-01-07T09:34:02.000Z</time>
      </trkpt>
      <trkpt lat="41.44941584207117557525634765625" lon="2.14729481376707553863525390625">
        <ele>277</ele>
        <time>2022-01-07T09:34:03.000Z</time>
      </trkpt>
      <trkpt lat="41.4493941329419612884521484375" lon="2.1472684107720851898193359375">
        <ele>277.399993896484375</ele>
        <time>2022-01-07T09:34:04.000Z</time>
      </trkpt>
      <trkpt lat="41.4493750222027301788330078125" lon="2.14725005440413951873779296875">
        <ele>277.399993896484375</ele>
        <time>2022-01-07T09:34:05.000Z</time>
      </trkpt>
      <trkpt lat="41.4493545703589916229248046875" lon="2.1472345478832721710205078125">
        <ele>277.600006103515625</ele>
        <time>2022-01-07T09:34:06.000Z</time>
      </trkpt>
      <trkpt lat="41.44933386705815792083740234375" lon="2.14721686206758022308349609375">
        <ele>278</ele>
        <time>2022-01-07T09:34:07.000Z</time>
      </trkpt>
      <trkpt lat="41.4493145048618316650390625" lon="2.147196494042873382568359375">
        <ele>278.399993896484375</ele>
        <time>2022-01-07T09:34:08.000Z</time>
      </trkpt>
      <trkpt lat="41.4493015967309474945068359375" lon="2.14716891758143901824951171875">
        <ele>278.600006103515625</ele>
        <time>2022-01-07T09:34:09.000Z</time>
      </trkpt>
      <trkpt lat="41.44929246045649051666259765625" lon="2.1471418440341949462890625">
        <ele>278.79998779296875</ele>
        <time>2022-01-07T09:34:10.000Z</time>
      </trkpt>
      <trkpt lat="41.44928625784814357757568359375" lon="2.14712080545723438262939453125">
        <ele>279.20001220703125</ele>
        <time>2022-01-07T09:34:11.000Z</time>
      </trkpt>
      <trkpt lat="41.44927804358303546905517578125" lon="2.14710504747927188873291015625">
        <ele>279.399993896484375</ele>
        <time>2022-01-07T09:34:12.000Z</time>
      </trkpt>
      <trkpt lat="41.449268572032451629638671875" lon="2.1470873616635799407958984375">
        <ele>280</ele>
        <time>2022-01-07T09:34:13.000Z</time>
      </trkpt>
      <trkpt lat="41.449259184300899505615234375" lon="2.14706414379179477691650390625">
        <ele>280.399993896484375</ele>
        <time>2022-01-07T09:34:14.000Z</time>
      </trkpt>
      <trkpt lat="41.44925373606383800506591796875" lon="2.14703648351132869720458984375">
        <ele>280.79998779296875</ele>
        <time>2022-01-07T09:34:15.000Z</time>
      </trkpt>
      <trkpt lat="41.44924535416066646575927734375" lon="2.1469981782138347625732421875">
        <ele>281.20001220703125</ele>
        <time>2022-01-07T09:34:16.000Z</time>
      </trkpt>
      <trkpt lat="41.4492395706474781036376953125" lon="2.14696540497243404388427734375">
        <ele>281.600006103515625</ele>
        <time>2022-01-07T09:34:17.000Z</time>
      </trkpt>
      <trkpt lat="41.4492355473339557647705078125" lon="2.14693355374038219451904296875">
        <ele>281.79998779296875</ele>
        <time>2022-01-07T09:34:18.000Z</time>
      </trkpt>
      <trkpt lat="41.44923462532460689544677734375" lon="2.146904468536376953125">
        <ele>282.20001220703125</ele>
        <time>2022-01-07T09:34:19.000Z</time>
      </trkpt>
      <trkpt lat="41.44922825507819652557373046875" lon="2.14687622152268886566162109375">
        <ele>282.79998779296875</ele>
        <time>2022-01-07T09:34:20.000Z</time>
      </trkpt>
      <trkpt lat="41.4492177776992321014404296875" lon="2.1468533389270305633544921875">
        <ele>283.20001220703125</ele>
        <time>2022-01-07T09:34:21.000Z</time>
      </trkpt>
      <trkpt lat="41.44920788705348968505859375" lon="2.1468307077884674072265625">
        <ele>283.600006103515625</ele>
        <time>2022-01-07T09:34:22.000Z</time>
      </trkpt>
      <trkpt lat="41.449199505150318145751953125" lon="2.1468060649931430816650390625">
        <ele>284</ele>
        <time>2022-01-07T09:34:23.000Z</time>
      </trkpt>
      <trkpt lat="41.44919070415198802947998046875" lon="2.14677949436008930206298828125">
        <ele>284.20001220703125</ele>
        <time>2022-01-07T09:34:24.000Z</time>
      </trkpt>
      <trkpt lat="41.44917796365916728973388671875" lon="2.14675602503120899200439453125">
        <ele>284.79998779296875</ele>
        <time>2022-01-07T09:34:25.000Z</time>
      </trkpt>
      <trkpt lat="41.4491641335189342498779296875" lon="2.1467363275587558746337890625">
        <ele>285.399993896484375</ele>
        <time>2022-01-07T09:34:26.000Z</time>
      </trkpt>
      <trkpt lat="41.4491507224738597869873046875" lon="2.146714366972446441650390625">
        <ele>285.79998779296875</ele>
        <time>2022-01-07T09:34:27.000Z</time>
      </trkpt>
      <trkpt lat="41.44914259202778339385986328125" lon="2.14668980799615383148193359375">
        <ele>286.20001220703125</ele>
        <time>2022-01-07T09:34:28.000Z</time>
      </trkpt>
      <trkpt lat="41.44913270138204097747802734375" lon="2.14666767977178096771240234375">
        <ele>286.600006103515625</ele>
        <time>2022-01-07T09:34:29.000Z</time>
      </trkpt>
      <trkpt lat="41.44912331365048885345458984375" lon="2.1466484852135181427001953125">
        <ele>287</ele>
        <time>2022-01-07T09:34:30.000Z</time>
      </trkpt>
      <trkpt lat="41.4491094835102558135986328125" lon="2.14662828482687473297119140625">
        <ele>287.20001220703125</ele>
        <time>2022-01-07T09:34:31.000Z</time>
      </trkpt>
      <trkpt lat="41.4490947313606739044189453125" lon="2.1466069109737873077392578125">
        <ele>287.600006103515625</ele>
        <time>2022-01-07T09:34:32.000Z</time>
      </trkpt>
      <trkpt lat="41.44908182322978973388671875" lon="2.146584279835224151611328125">
        <ele>288</ele>
        <time>2022-01-07T09:34:33.000Z</time>
      </trkpt>
      <trkpt lat="41.4490679092705249786376953125" lon="2.1465624868869781494140625">
        <ele>288.399993896484375</ele>
        <time>2022-01-07T09:34:34.000Z</time>
      </trkpt>
      <trkpt lat="41.44905231893062591552734375" lon="2.14654278941452503204345703125">
        <ele>288.399993896484375</ele>
        <time>2022-01-07T09:34:35.000Z</time>
      </trkpt>
      <trkpt lat="41.44904033280909061431884765625" lon="2.14652317576110363006591796875">
        <ele>288.79998779296875</ele>
        <time>2022-01-07T09:34:36.000Z</time>
      </trkpt>
      <trkpt lat="41.44902742467820644378662109375" lon="2.1465049870312213897705078125">
        <ele>289.20001220703125</ele>
        <time>2022-01-07T09:34:37.000Z</time>
      </trkpt>
      <trkpt lat="41.44901384599506855010986328125" lon="2.14648931287229061126708984375">
        <ele>289.79998779296875</ele>
        <time>2022-01-07T09:34:38.000Z</time>
      </trkpt>
      <trkpt lat="41.44900026731193065643310546875" lon="2.146477662026882171630859375">
        <ele>290.20001220703125</ele>
        <time>2022-01-07T09:34:39.000Z</time>
      </trkpt>
      <trkpt lat="41.44898392260074615478515625" lon="2.14646567590534687042236328125">
        <ele>290.600006103515625</ele>
        <time>2022-01-07T09:34:40.000Z</time>
      </trkpt>
      <trkpt lat="41.448965482413768768310546875" lon="2.14645679108798503875732421875">
        <ele>291.20001220703125</ele>
        <time>2022-01-07T09:34:41.000Z</time>
      </trkpt>
      <trkpt lat="41.4489475451409816741943359375" lon="2.1464426256716251373291015625">
        <ele>291.600006103515625</ele>
        <time>2022-01-07T09:34:42.000Z</time>
      </trkpt>
      <trkpt lat="41.448929607868194580078125" lon="2.14642561040818691253662109375">
        <ele>292</ele>
        <time>2022-01-07T09:34:43.000Z</time>
      </trkpt>
      <trkpt lat="41.44891242496669292449951171875" lon="2.14641203172504901885986328125">
        <ele>292.399993896484375</ele>
        <time>2022-01-07T09:34:44.000Z</time>
      </trkpt>
      <trkpt lat="41.44889633171260356903076171875" lon="2.14640079997479915618896484375">
        <ele>292.79998779296875</ele>
        <time>2022-01-07T09:34:45.000Z</time>
      </trkpt>
      <trkpt lat="41.44888023845851421356201171875" lon="2.14639225043356418609619140625">
        <ele>293.20001220703125</ele>
        <time>2022-01-07T09:34:46.000Z</time>
      </trkpt>
      <trkpt lat="41.44886481575667858123779296875" lon="2.146381773054599761962890625">
        <ele>293.399993896484375</ele>
        <time>2022-01-07T09:34:47.000Z</time>
      </trkpt>
      <trkpt lat="41.44884847104549407958984375" lon="2.146368362009525299072265625">
        <ele>293.600006103515625</ele>
        <time>2022-01-07T09:34:48.000Z</time>
      </trkpt>
      <trkpt lat="41.44883112050592899322509765625" lon="2.14635537005960941314697265625">
        <ele>294</ele>
        <time>2022-01-07T09:34:49.000Z</time>
      </trkpt>
      <trkpt lat="41.44881670363247394561767578125" lon="2.14634128846228122711181640625">
        <ele>294.20001220703125</ele>
        <time>2022-01-07T09:34:50.000Z</time>
      </trkpt>
      <trkpt lat="41.44879977218806743621826171875" lon="2.146328128874301910400390625">
        <ele>294.399993896484375</ele>
        <time>2022-01-07T09:34:51.000Z</time>
      </trkpt>
      <trkpt lat="41.4487866126000881195068359375" lon="2.146314717829227447509765625">
        <ele>294.79998779296875</ele>
        <time>2022-01-07T09:34:52.000Z</time>
      </trkpt>
      <trkpt lat="41.448778398334980010986328125" lon="2.1463001333177089691162109375">
        <ele>295</ele>
        <time>2022-01-07T09:34:53.000Z</time>
      </trkpt>
      <trkpt lat="41.448777057230472564697265625" lon="2.1462863869965076446533203125">
        <ele>295.20001220703125</ele>
        <time>2022-01-07T09:34:54.000Z</time>
      </trkpt>
      <trkpt lat="41.44878149963915348052978515625" lon="2.1462773345410823822021484375">
        <ele>295.79998779296875</ele>
        <time>2022-01-07T09:34:55.000Z</time>
      </trkpt>
      <trkpt lat="41.44879021681845188140869140625" lon="2.14627423323690891265869140625">
        <ele>296</ele>
        <time>2022-01-07T09:34:56.000Z</time>
      </trkpt>
      <trkpt lat="41.44880061037838459014892578125" lon="2.14627423323690891265869140625">
        <ele>296.20001220703125</ele>
        <time>2022-01-07T09:34:57.000Z</time>
      </trkpt>
      <trkpt lat="41.44881133921444416046142578125" lon="2.14627691544592380523681640625">
        <ele>296.600006103515625</ele>
        <time>2022-01-07T09:34:58.000Z</time>
      </trkpt>
      <trkpt lat="41.44881536252796649932861328125" lon="2.14627976529300212860107421875">
        <ele>296.79998779296875</ele>
        <time>2022-01-07T09:34:59.000Z</time>
      </trkpt>
      <trkpt lat="41.44881536252796649932861328125" lon="2.14627976529300212860107421875">
        <ele>297</ele>
        <time>2022-01-07T09:35:00.000Z</time>
      </trkpt>
      <trkpt lat="41.4488436095416545867919921875" lon="2.14631463401019573211669921875">
        <ele>298.20001220703125</ele>
        <time>2022-01-07T09:35:11.000Z</time>
      </trkpt>
      <trkpt lat="41.44885517656803131103515625" lon="2.146330140531063079833984375">
        <ele>298.20001220703125</ele>
        <time>2022-01-07T09:35:12.000Z</time>
      </trkpt>
      <trkpt lat="41.44887168891727924346923828125" lon="2.14634447358548641204833984375">
        <ele>298.20001220703125</ele>
        <time>2022-01-07T09:35:13.000Z</time>
      </trkpt>
      <trkpt lat="41.4488871954381465911865234375" lon="2.14635453186929225921630859375">
        <ele>298.20001220703125</ele>
        <time>2022-01-07T09:35:14.000Z</time>
      </trkpt>
      <trkpt lat="41.44889884628355503082275390625" lon="2.14636106975376605987548828125">
        <ele>298.20001220703125</ele>
        <time>2022-01-07T09:35:15.000Z</time>
      </trkpt>
      <trkpt lat="41.4489041268825531005859375" lon="2.1463635005056858062744140625">
        <ele>298.20001220703125</ele>
        <time>2022-01-07T09:35:16.000Z</time>
      </trkpt>
      <trkpt lat="41.4489053003489971160888671875" lon="2.1463640034198760986328125">
        <ele>298.20001220703125</ele>
        <time>2022-01-07T09:35:17.000Z</time>
      </trkpt>
      <trkpt lat="41.4489053003489971160888671875" lon="2.1463640034198760986328125">
        <ele>298.20001220703125</ele>
        <time>2022-01-07T09:35:18.000Z</time>
      </trkpt>
      <trkpt lat="41.4489381574094295501708984375" lon="2.1463738940656185150146484375">
        <ele>298</ele>
        <time>2022-01-07T09:36:40.000Z</time>
      </trkpt>
      <trkpt lat="41.448954083025455474853515625" lon="2.14638076722621917724609375">
        <ele>298</ele>
        <time>2022-01-07T09:36:41.000Z</time>
      </trkpt>
      <trkpt lat="41.44897026009857654571533203125" lon="2.1463866345584392547607421875">
        <ele>298</ele>
        <time>2022-01-07T09:36:42.000Z</time>
      </trkpt>
      <trkpt lat="41.448988616466522216796875" lon="2.14639057405292987823486328125">
        <ele>298</ele>
        <time>2022-01-07T09:36:43.000Z</time>
      </trkpt>
      <trkpt lat="41.4490119181573390960693359375" lon="2.14639929123222827911376953125">
        <ele>298</ele>
        <time>2022-01-07T09:36:44.000Z</time>
      </trkpt>
      <trkpt lat="41.4490360580384731292724609375" lon="2.14640800841152667999267578125">
        <ele>298</ele>
        <time>2022-01-07T09:36:45.000Z</time>
      </trkpt>
      <trkpt lat="41.4490598626434803009033203125" lon="2.14642234146595001220703125">
        <ele>297.79998779296875</ele>
        <time>2022-01-07T09:36:46.000Z</time>
      </trkpt>
      <trkpt lat="41.44908341579139232635498046875" lon="2.1464409492909908294677734375">
        <ele>297.79998779296875</ele>
        <time>2022-01-07T09:36:47.000Z</time>
      </trkpt>
      <trkpt lat="41.44910805858671665191650390625" lon="2.1464603953063488006591796875">
        <ele>297.79998779296875</ele>
        <time>2022-01-07T09:36:48.000Z</time>
      </trkpt>
      <trkpt lat="41.44913018681108951568603515625" lon="2.14648361317813396453857421875">
        <ele>297.79998779296875</ele>
        <time>2022-01-07T09:36:49.000Z</time>
      </trkpt>
      <trkpt lat="41.449149884283542633056640625" lon="2.1465096808969974517822265625">
        <ele>297.79998779296875</ele>
        <time>2022-01-07T09:36:50.000Z</time>
      </trkpt>
      <trkpt lat="41.449168659746646881103515625" lon="2.146536000072956085205078125">
        <ele>297.79998779296875</ele>
        <time>2022-01-07T09:36:51.000Z</time>
      </trkpt>
      <trkpt lat="41.44918852485716342926025390625" lon="2.1465582959353923797607421875">
        <ele>297.600006103515625</ele>
        <time>2022-01-07T09:36:52.000Z</time>
      </trkpt>
      <trkpt lat="41.449208557605743408203125" lon="2.14657715521752834320068359375">
        <ele>297.600006103515625</ele>
        <time>2022-01-07T09:36:53.000Z</time>
      </trkpt>
      <trkpt lat="41.44922842271625995635986328125" lon="2.1465998701751232147216796875">
        <ele>297.399993896484375</ele>
        <time>2022-01-07T09:36:54.000Z</time>
      </trkpt>
      <trkpt lat="41.449248790740966796875" lon="2.146621160209178924560546875">
        <ele>297.399993896484375</ele>
        <time>2022-01-07T09:36:55.000Z</time>
      </trkpt>
      <trkpt lat="41.449265889823436737060546875" lon="2.14663851074874401092529296875">
        <ele>297.20001220703125</ele>
        <time>2022-01-07T09:36:56.000Z</time>
      </trkpt>
      <trkpt lat="41.44928022287786006927490234375" lon="2.14665577746927738189697265625">
        <ele>297.20001220703125</ele>
        <time>2022-01-07T09:36:57.000Z</time>
      </trkpt>
      <trkpt lat="41.44929237663745880126953125" lon="2.14667220599949359893798828125">
        <ele>297.20001220703125</ele>
        <time>2022-01-07T09:36:58.000Z</time>
      </trkpt>
      <trkpt lat="41.4493039436638355255126953125" lon="2.14668947272002696990966796875">
        <ele>297.20001220703125</ele>
        <time>2022-01-07T09:36:59.000Z</time>
      </trkpt>
      <trkpt lat="41.44931727088987827301025390625" lon="2.14670338667929172515869140625">
        <ele>297</ele>
        <time>2022-01-07T09:37:00.000Z</time>
      </trkpt>
      <trkpt lat="41.4493300952017307281494140625" lon="2.14671076275408267974853515625">
        <ele>297</ele>
        <time>2022-01-07T09:37:01.000Z</time>
      </trkpt>
      <trkpt lat="41.449337303638458251953125" lon="2.14671470224857330322265625">
        <ele>297</ele>
        <time>2022-01-07T09:37:02.000Z</time>
      </trkpt>
      <trkpt lat="41.449337303638458251953125" lon="2.14671470224857330322265625">
        <ele>297</ele>
        <time>2022-01-07T09:37:03.000Z</time>
      </trkpt>
      <trkpt lat="41.449337303638458251953125" lon="2.14671470224857330322265625">
        <ele>297</ele>
        <time>2022-01-07T09:37:04.000Z</time>
      </trkpt>
      <trkpt lat="41.449358761310577392578125" lon="2.14672769419848918914794921875">
        <ele>297</ele>
        <time>2022-01-07T09:37:18.000Z</time>
      </trkpt>
      <trkpt lat="41.4493797160685062408447265625" lon="2.14673892594873905181884765625">
        <ele>297</ele>
        <time>2022-01-07T09:37:19.000Z</time>
      </trkpt>
      <trkpt lat="41.44940176047384738922119140625" lon="2.14675166644155979156494140625">
        <ele>297</ele>
        <time>2022-01-07T09:37:20.000Z</time>
      </trkpt>
      <trkpt lat="41.44942539744079113006591796875" lon="2.14676373638212680816650390625">
        <ele>296.79998779296875</ele>
        <time>2022-01-07T09:37:21.000Z</time>
      </trkpt>
      <trkpt lat="41.44945037551224231719970703125" lon="2.1467748843133449554443359375">
        <ele>296.79998779296875</ele>
        <time>2022-01-07T09:37:22.000Z</time>
      </trkpt>
      <trkpt lat="41.44947535358369350433349609375" lon="2.146784104406833648681640625">
        <ele>297</ele>
        <time>2022-01-07T09:37:23.000Z</time>
      </trkpt>
      <trkpt lat="41.44950024783611297607421875" lon="2.1467986889183521270751953125">
        <ele>297</ele>
        <time>2022-01-07T09:37:24.000Z</time>
      </trkpt>
      <trkpt lat="41.44952396862208843231201171875" lon="2.14681704528629779815673828125">
        <ele>296.79998779296875</ele>
        <time>2022-01-07T09:37:25.000Z</time>
      </trkpt>
      <trkpt lat="41.44954458810389041900634765625" lon="2.1468375809490680694580078125">
        <ele>296.600006103515625</ele>
        <time>2022-01-07T09:37:26.000Z</time>
      </trkpt>
      <trkpt lat="41.449573002755641937255859375" lon="2.14685954153537750244140625">
        <ele>296.399993896484375</ele>
        <time>2022-01-07T09:37:27.000Z</time>
      </trkpt>
      <trkpt lat="41.44959538243710994720458984375" lon="2.1468736231327056884765625">
        <ele>296.20001220703125</ele>
        <time>2022-01-07T09:37:28.000Z</time>
      </trkpt>
      <trkpt lat="41.4496194384992122650146484375" lon="2.1468882076442241668701171875">
        <ele>296.20001220703125</ele>
        <time>2022-01-07T09:37:29.000Z</time>
      </trkpt>
      <trkpt lat="41.44964617677032947540283203125" lon="2.14690371416509151458740234375">
        <ele>296.20001220703125</ele>
        <time>2022-01-07T09:37:30.000Z</time>
      </trkpt>
      <trkpt lat="41.44967836327850818634033203125" lon="2.1469180472195148468017578125">
        <ele>296</ele>
        <time>2022-01-07T09:37:31.000Z</time>
      </trkpt>
      <trkpt lat="41.44971541129052639007568359375" lon="2.14692391455173492431640625">
        <ele>296</ele>
        <time>2022-01-07T09:37:32.000Z</time>
      </trkpt>
      <trkpt lat="41.4497548900544643402099609375" lon="2.1469180472195148468017578125">
        <ele>295.79998779296875</ele>
        <time>2022-01-07T09:37:33.000Z</time>
      </trkpt>
      <trkpt lat="41.449798308312892913818359375" lon="2.14690958149731159210205078125">
        <ele>295.600006103515625</ele>
        <time>2022-01-07T09:37:34.000Z</time>
      </trkpt>
      <trkpt lat="41.44984398968517780303955078125" lon="2.1468965895473957061767578125">
        <ele>295.600006103515625</ele>
        <time>2022-01-07T09:37:35.000Z</time>
      </trkpt>
      <trkpt lat="41.4498936943709850311279296875" lon="2.1468828432261943817138671875">
        <ele>295.399993896484375</ele>
        <time>2022-01-07T09:37:36.000Z</time>
      </trkpt>
      <trkpt lat="41.4499470032751560211181640625" lon="2.14687136001884937286376953125">
        <ele>295.399993896484375</ele>
        <time>2022-01-07T09:37:37.000Z</time>
      </trkpt>
      <trkpt lat="41.45000089891254901885986328125" lon="2.1468650735914707183837890625">
        <ele>295.20001220703125</ele>
        <time>2022-01-07T09:37:38.000Z</time>
      </trkpt>
      <trkpt lat="41.45005437545478343963623046875" lon="2.14685208164155483245849609375">
        <ele>294.79998779296875</ele>
        <time>2022-01-07T09:37:39.000Z</time>
      </trkpt>
      <trkpt lat="41.4501092769205570220947265625" lon="2.1468298695981502532958984375">
        <ele>294</ele>
        <time>2022-01-07T09:37:40.000Z</time>
      </trkpt>
      <trkpt lat="41.450163759291172027587890625" lon="2.1468131057918071746826171875">
        <ele>293.399993896484375</ele>
        <time>2022-01-07T09:37:41.000Z</time>
      </trkpt>
      <trkpt lat="41.4502205885946750640869140625" lon="2.146803550422191619873046875">
        <ele>292.600006103515625</ele>
        <time>2022-01-07T09:37:42.000Z</time>
      </trkpt>
      <trkpt lat="41.45028085447847843170166015625" lon="2.146796844899654388427734375">
        <ele>291.600006103515625</ele>
        <time>2022-01-07T09:37:43.000Z</time>
      </trkpt>
      <trkpt lat="41.45034153945744037628173828125" lon="2.14678787626326084136962890625">
        <ele>290.79998779296875</ele>
        <time>2022-01-07T09:37:44.000Z</time>
      </trkpt>
      <trkpt lat="41.4504002965986728668212890625" lon="2.14677597396075725555419921875">
        <ele>289.600006103515625</ele>
        <time>2022-01-07T09:37:45.000Z</time>
      </trkpt>
      <trkpt lat="41.45045922137796878814697265625" lon="2.1467618085443973541259765625">
        <ele>288.600006103515625</ele>
        <time>2022-01-07T09:37:46.000Z</time>
      </trkpt>
      <trkpt lat="41.45052082836627960205078125" lon="2.1467440389096736907958984375">
        <ele>288</ele>
        <time>2022-01-07T09:37:47.000Z</time>
      </trkpt>
      <trkpt lat="41.450584195554256439208984375" lon="2.1467182226479053497314453125">
        <ele>287.600006103515625</ele>
        <time>2022-01-07T09:37:48.000Z</time>
      </trkpt>
      <trkpt lat="41.4506448805332183837890625" lon="2.14668360538780689239501953125">
        <ele>287.399993896484375</ele>
        <time>2022-01-07T09:37:49.000Z</time>
      </trkpt>
      <trkpt lat="41.4507030509412288665771484375" lon="2.14664337225258350372314453125">
        <ele>286.79998779296875</ele>
        <time>2022-01-07T09:37:50.000Z</time>
      </trkpt>
      <trkpt lat="41.45075141452252864837646484375" lon="2.1466032229363918304443359375">
        <ele>285.79998779296875</ele>
        <time>2022-01-07T09:37:51.000Z</time>
      </trkpt>
      <trkpt lat="41.450790725648403167724609375" lon="2.14656625874340534210205078125">
        <ele>285.399993896484375</ele>
        <time>2022-01-07T09:37:52.000Z</time>
      </trkpt>
      <trkpt lat="41.4508183859288692474365234375" lon="2.1465437114238739013671875">
        <ele>285.20001220703125</ele>
        <time>2022-01-07T09:37:53.000Z</time>
      </trkpt>
      <trkpt lat="41.45084143616259098052978515625" lon="2.1465210802853107452392578125">
        <ele>284.79998779296875</ele>
        <time>2022-01-07T09:37:54.000Z</time>
      </trkpt>
      <trkpt lat="41.450859121978282928466796875" lon="2.146504819393157958984375">
        <ele>284.399993896484375</ele>
        <time>2022-01-07T09:37:55.000Z</time>
      </trkpt>
      <trkpt lat="41.45087647251784801483154296875" lon="2.1464949287474155426025390625">
        <ele>284.399993896484375</ele>
        <time>2022-01-07T09:37:56.000Z</time>
      </trkpt>
      <trkpt lat="41.45089960657060146331787109375" lon="2.14649149216711521148681640625">
        <ele>284.20001220703125</ele>
        <time>2022-01-07T09:37:57.000Z</time>
      </trkpt>
      <trkpt lat="41.450918130576610565185546875" lon="2.14648864232003688812255859375">
        <ele>284.20001220703125</ele>
        <time>2022-01-07T09:37:58.000Z</time>
      </trkpt>
      <trkpt lat="41.45094520412385463714599609375" lon="2.1464838646352291107177734375">
        <ele>284.20001220703125</ele>
        <time>2022-01-07T09:37:59.000Z</time>
      </trkpt>
      <trkpt lat="41.45096297375857830047607421875" lon="2.146479673683643341064453125">
        <ele>284</ele>
        <time>2022-01-07T09:38:00.000Z</time>
      </trkpt>
      <trkpt lat="41.45099264569580554962158203125" lon="2.1464627422392368316650390625">
        <ele>284</ele>
        <time>2022-01-07T09:38:01.000Z</time>
      </trkpt>
      <trkpt lat="41.45101460628211498260498046875" lon="2.146459557116031646728515625">
        <ele>283.79998779296875</ele>
        <time>2022-01-07T09:38:02.000Z</time>
      </trkpt>
      <trkpt lat="41.45103254355490207672119140625" lon="2.1464610658586025238037109375">
        <ele>283.79998779296875</ele>
        <time>2022-01-07T09:38:03.000Z</time>
      </trkpt>
      <trkpt lat="41.451055593788623809814453125" lon="2.14646601118147373199462890625">
        <ele>283.79998779296875</ele>
        <time>2022-01-07T09:38:04.000Z</time>
      </trkpt>
      <trkpt lat="41.451085768640041351318359375" lon="2.14646928012371063232421875">
        <ele>283.79998779296875</ele>
        <time>2022-01-07T09:38:05.000Z</time>
      </trkpt>
      <trkpt lat="41.45110731013119220733642578125" lon="2.1464758180081844329833984375">
        <ele>283.79998779296875</ele>
        <time>2022-01-07T09:38:06.000Z</time>
      </trkpt>
      <trkpt lat="41.4511389099061489105224609375" lon="2.14648880995810031890869140625">
        <ele>283.79998779296875</ele>
        <time>2022-01-07T09:38:07.000Z</time>
      </trkpt>
      <trkpt lat="41.4511590264737606048583984375" lon="2.14649937115609645843505859375">
        <ele>283.79998779296875</ele>
        <time>2022-01-07T09:38:08.000Z</time>
      </trkpt>
      <trkpt lat="41.451184339821338653564453125" lon="2.1465123631060123443603515625">
        <ele>283.79998779296875</ele>
        <time>2022-01-07T09:38:09.000Z</time>
      </trkpt>
      <trkpt lat="41.45120638422667980194091796875" lon="2.14652334339916706085205078125">
        <ele>283.79998779296875</ele>
        <time>2022-01-07T09:38:10.000Z</time>
      </trkpt>
      <trkpt lat="41.45123035646975040435791015625" lon="2.14653499424457550048828125">
        <ele>283.79998779296875</ele>
        <time>2022-01-07T09:38:11.000Z</time>
      </trkpt>
      <trkpt lat="41.45125533454120159149169921875" lon="2.14654798619449138641357421875">
        <ele>283.600006103515625</ele>
        <time>2022-01-07T09:38:12.000Z</time>
      </trkpt>
      <trkpt lat="41.45127343945205211639404296875" lon="2.146554775536060333251953125">
        <ele>283.600006103515625</ele>
        <time>2022-01-07T09:38:13.000Z</time>
      </trkpt>
      <trkpt lat="41.4512991718947887420654296875" lon="2.14656173251569271087646484375">
        <ele>283.399993896484375</ele>
        <time>2022-01-07T09:38:14.000Z</time>
      </trkpt>
      <trkpt lat="41.45132389850914478302001953125" lon="2.14656575582921504974365234375">
        <ele>283.399993896484375</ele>
        <time>2022-01-07T09:38:15.000Z</time>
      </trkpt>
      <trkpt lat="41.4513476192951202392578125" lon="2.1465705335140228271484375">
        <ele>283.20001220703125</ele>
        <time>2022-01-07T09:38:16.000Z</time>
      </trkpt>
      <trkpt lat="41.4513725973665714263916015625" lon="2.1465718746185302734375">
        <ele>283.20001220703125</ele>
        <time>2022-01-07T09:38:17.000Z</time>
      </trkpt>
      <trkpt lat="41.4513994194567203521728515625" lon="2.1465764008462429046630859375">
        <ele>283.20001220703125</ele>
        <time>2022-01-07T09:38:18.000Z</time>
      </trkpt>
      <trkpt lat="41.45143018104135990142822265625" lon="2.14657816104590892791748046875">
        <ele>283.20001220703125</ele>
        <time>2022-01-07T09:38:19.000Z</time>
      </trkpt>
      <trkpt lat="41.45146152935922145843505859375" lon="2.14657832868397235870361328125">
        <ele>283.20001220703125</ele>
        <time>2022-01-07T09:38:20.000Z</time>
      </trkpt>
      <trkpt lat="41.45149388350546360015869140625" lon="2.14657765813171863555908203125">
        <ele>283.20001220703125</ele>
        <time>2022-01-07T09:38:21.000Z</time>
      </trkpt>
      <trkpt lat="41.4515281654894351959228515625" lon="2.146578915417194366455078125">
        <ele>283</ele>
        <time>2022-01-07T09:38:22.000Z</time>
      </trkpt>
      <trkpt lat="41.45156177692115306854248046875" lon="2.14658084325492382049560546875">
        <ele>283</ele>
        <time>2022-01-07T09:38:23.000Z</time>
      </trkpt>
      <trkpt lat="41.45159446634352207183837890625" lon="2.14658302254974842071533203125">
        <ele>283</ele>
        <time>2022-01-07T09:38:24.000Z</time>
      </trkpt>
      <trkpt lat="41.45163201726973056793212890625" lon="2.14658386074006557464599609375">
        <ele>283</ele>
        <time>2022-01-07T09:38:25.000Z</time>
      </trkpt>
      <trkpt lat="41.45166370086371898651123046875" lon="2.146585285663604736328125">
        <ele>283</ele>
        <time>2022-01-07T09:38:26.000Z</time>
      </trkpt>
      <trkpt lat="41.45169354043900966644287109375" lon="2.14658796787261962890625">
        <ele>283</ele>
        <time>2022-01-07T09:38:27.000Z</time>
      </trkpt>
      <trkpt lat="41.45171650685369968414306640625" lon="2.1465918235480785369873046875">
        <ele>283</ele>
        <time>2022-01-07T09:38:28.000Z</time>
      </trkpt>
      <trkpt lat="41.45174349658191204071044921875" lon="2.1465921588242053985595703125">
        <ele>283</ele>
        <time>2022-01-07T09:38:29.000Z</time>
      </trkpt>
      <trkpt lat="41.45176897756755352020263671875" lon="2.14659391902387142181396484375">
        <ele>283</ele>
        <time>2022-01-07T09:38:30.000Z</time>
      </trkpt>
      <trkpt lat="41.4517990685999393463134765625" lon="2.146595008671283721923828125">
        <ele>283</ele>
        <time>2022-01-07T09:38:31.000Z</time>
      </trkpt>
      <trkpt lat="41.451820023357868194580078125" lon="2.14659509249031543731689453125">
        <ele>283</ele>
        <time>2022-01-07T09:38:32.000Z</time>
      </trkpt>
      <trkpt lat="41.451846174895763397216796875" lon="2.1465938352048397064208984375">
        <ele>283</ele>
        <time>2022-01-07T09:38:33.000Z</time>
      </trkpt>
      <trkpt lat="41.45187291316688060760498046875" lon="2.14659559540450572967529296875">
        <ele>283</ele>
        <time>2022-01-07T09:38:34.000Z</time>
      </trkpt>
      <trkpt lat="41.45191113464534282684326171875" lon="2.1465968526899814605712890625">
        <ele>283.20001220703125</ele>
        <time>2022-01-07T09:38:35.000Z</time>
      </trkpt>
      <trkpt lat="41.45194449461996555328369140625" lon="2.14659375138580799102783203125">
        <ele>283.399993896484375</ele>
        <time>2022-01-07T09:38:36.000Z</time>
      </trkpt>
      <trkpt lat="41.4519683830440044403076171875" lon="2.1465891413390636444091796875">
        <ele>283.399993896484375</ele>
        <time>2022-01-07T09:38:37.000Z</time>
      </trkpt>
      <trkpt lat="41.4520012401044368743896484375" lon="2.1465784125030040740966796875">
        <ele>283.399993896484375</ele>
        <time>2022-01-07T09:38:38.000Z</time>
      </trkpt>
      <trkpt lat="41.452043987810611724853515625" lon="2.146550752222537994384765625">
        <ele>283.399993896484375</ele>
        <time>2022-01-07T09:38:39.000Z</time>
      </trkpt>
      <trkpt lat="41.452083550393581390380859375" lon="2.1465244330465793609619140625">
        <ele>283.399993896484375</ele>
        <time>2022-01-07T09:38:40.000Z</time>
      </trkpt>
      <trkpt lat="41.45213962532579898834228515625" lon="2.14649073779582977294921875">
        <ele>283.399993896484375</ele>
        <time>2022-01-07T09:38:41.000Z</time>
      </trkpt>
      <trkpt lat="41.4522013999521732330322265625" lon="2.14644874446094036102294921875">
        <ele>283.399993896484375</ele>
        <time>2022-01-07T09:38:42.000Z</time>
      </trkpt>
      <trkpt lat="41.452271305024623870849609375" lon="2.146398536860942840576171875">
        <ele>283.399993896484375</ele>
        <time>2022-01-07T09:38:43.000Z</time>
      </trkpt>
      <trkpt lat="41.4523432217538356781005859375" lon="2.1463484130799770355224609375">
        <ele>283.399993896484375</ele>
        <time>2022-01-07T09:38:44.000Z</time>
      </trkpt>
      <trkpt lat="41.4524146355688571929931640625" lon="2.146294601261615753173828125">
        <ele>283.20001220703125</ele>
        <time>2022-01-07T09:38:45.000Z</time>
      </trkpt>
      <trkpt lat="41.45248529501259326934814453125" lon="2.146249674260616302490234375">
        <ele>283.20001220703125</ele>
        <time>2022-01-07T09:38:46.000Z</time>
      </trkpt>
      <trkpt lat="41.45255218259990215301513671875" lon="2.14621086604893207550048828125">
        <ele>282.600006103515625</ele>
        <time>2022-01-07T09:38:47.000Z</time>
      </trkpt>
      <trkpt lat="41.45261337049305438995361328125" lon="2.14616753160953521728515625">
        <ele>282.20001220703125</ele>
        <time>2022-01-07T09:38:48.000Z</time>
      </trkpt>
      <trkpt lat="41.45266391336917877197265625" lon="2.14612671174108982086181640625">
        <ele>281.79998779296875</ele>
        <time>2022-01-07T09:38:49.000Z</time>
      </trkpt>
      <trkpt lat="41.4527053199708461761474609375" lon="2.146100811660289764404296875">
        <ele>281.79998779296875</ele>
        <time>2022-01-07T09:38:50.000Z</time>
      </trkpt>
      <trkpt lat="41.45274748094379901885986328125" lon="2.14608580805361270904541015625">
        <ele>281.600006103515625</ele>
        <time>2022-01-07T09:38:51.000Z</time>
      </trkpt>
      <trkpt lat="41.45276893861591815948486328125" lon="2.14608262293040752410888671875">
        <ele>281.600006103515625</ele>
        <time>2022-01-07T09:38:52.000Z</time>
      </trkpt>
      <trkpt lat="41.4527911506593227386474609375" lon="2.14608128182590007781982421875">
        <ele>281.600006103515625</ele>
        <time>2022-01-07T09:38:53.000Z</time>
      </trkpt>
      <trkpt lat="41.45280766300857067108154296875" lon="2.146083377301692962646484375">
        <ele>281.600006103515625</ele>
        <time>2022-01-07T09:38:54.000Z</time>
      </trkpt>
      <trkpt lat="41.452826522290706634521484375" lon="2.14608698152005672454833984375">
        <ele>281.600006103515625</ele>
        <time>2022-01-07T09:38:55.000Z</time>
      </trkpt>
      <trkpt lat="41.4528468064963817596435546875" lon="2.1460862271487712860107421875">
        <ele>281.600006103515625</ele>
        <time>2022-01-07T09:38:56.000Z</time>
      </trkpt>
      <trkpt lat="41.4528706111013889312744140625" lon="2.14608438313007354736328125">
        <ele>281.600006103515625</ele>
        <time>2022-01-07T09:38:57.000Z</time>
      </trkpt>
      <trkpt lat="41.4528964273631572723388671875" lon="2.14608840644359588623046875">
        <ele>282.20001220703125</ele>
        <time>2022-01-07T09:38:58.000Z</time>
      </trkpt>
      <trkpt lat="41.45292341709136962890625" lon="2.14609787799417972564697265625">
        <ele>283</ele>
        <time>2022-01-07T09:38:59.000Z</time>
      </trkpt>
      <trkpt lat="41.45295149646699428558349609375" lon="2.1461090259253978729248046875">
        <ele>283.600006103515625</ele>
        <time>2022-01-07T09:39:00.000Z</time>
      </trkpt>
      <trkpt lat="41.45297714509069919586181640625" lon="2.1461190842092037200927734375">
        <ele>284</ele>
        <time>2022-01-07T09:39:01.000Z</time>
      </trkpt>
      <trkpt lat="41.4530052244663238525390625" lon="2.146131657063961029052734375">
        <ele>284.399993896484375</ele>
        <time>2022-01-07T09:39:02.000Z</time>
      </trkpt>
      <trkpt lat="41.453038752079010009765625" lon="2.14614766649901866912841796875">
        <ele>284.399993896484375</ele>
        <time>2022-01-07T09:39:03.000Z</time>
      </trkpt>
      <trkpt lat="41.45307253114879131317138671875" lon="2.14616258628666400909423828125">
        <ele>284.600006103515625</ele>
        <time>2022-01-07T09:39:04.000Z</time>
      </trkpt>
      <trkpt lat="41.45310924388468265533447265625" lon="2.1461777575314044952392578125">
        <ele>284.600006103515625</ele>
        <time>2022-01-07T09:39:05.000Z</time>
      </trkpt>
      <trkpt lat="41.45314780063927173614501953125" lon="2.1461931802332401275634765625">
        <ele>284.600006103515625</ele>
        <time>2022-01-07T09:39:06.000Z</time>
      </trkpt>
      <trkpt lat="41.4531884528696537017822265625" lon="2.14620633982121944427490234375">
        <ele>284.600006103515625</ele>
        <time>2022-01-07T09:39:07.000Z</time>
      </trkpt>
      <trkpt lat="41.45323715172708034515380859375" lon="2.1462149731814861297607421875">
        <ele>284.600006103515625</ele>
        <time>2022-01-07T09:39:08.000Z</time>
      </trkpt>
      <trkpt lat="41.453293897211551666259765625" lon="2.1462246961891651153564453125">
        <ele>284.600006103515625</ele>
        <time>2022-01-07T09:39:09.000Z</time>
      </trkpt>
      <trkpt lat="41.4533550851047039031982421875" lon="2.146236598491668701171875">
        <ele>284.600006103515625</ele>
        <time>2022-01-07T09:39:10.000Z</time>
      </trkpt>
      <trkpt lat="41.4534171111881732940673828125" lon="2.14624959044158458709716796875">
        <ele>284.600006103515625</ele>
        <time>2022-01-07T09:39:11.000Z</time>
      </trkpt>
      <trkpt lat="41.45347528159618377685546875" lon="2.1462652646005153656005859375">
        <ele>284.600006103515625</ele>
        <time>2022-01-07T09:39:12.000Z</time>
      </trkpt>
      <trkpt lat="41.453526578843593597412109375" lon="2.146279849112033843994140625">
        <ele>284.399993896484375</ele>
        <time>2022-01-07T09:39:13.000Z</time>
      </trkpt>
      <trkpt lat="41.45357720553874969482421875" lon="2.1462915837764739990234375">
        <ele>284.399993896484375</ele>
        <time>2022-01-07T09:39:14.000Z</time>
      </trkpt>
      <trkpt lat="41.45362590439617633819580078125" lon="2.1463014744222164154052734375">
        <ele>284</ele>
        <time>2022-01-07T09:39:15.000Z</time>
      </trkpt>
      <trkpt lat="41.45367301069200038909912109375" lon="2.14630843140184879302978515625">
        <ele>283.20001220703125</ele>
        <time>2022-01-07T09:39:16.000Z</time>
      </trkpt>
      <trkpt lat="41.45371668040752410888671875" lon="2.14631312526762485504150390625">
        <ele>282.79998779296875</ele>
        <time>2022-01-07T09:39:17.000Z</time>
      </trkpt>
      <trkpt lat="41.453756578266620635986328125" lon="2.14632033370435237884521484375">
        <ele>282.399993896484375</ele>
        <time>2022-01-07T09:39:18.000Z</time>
      </trkpt>
      <trkpt lat="41.45379287190735340118408203125" lon="2.1463319845497608184814453125">
        <ele>282.600006103515625</ele>
        <time>2022-01-07T09:39:19.000Z</time>
      </trkpt>
      <trkpt lat="41.45382690243422985076904296875" lon="2.14633894152939319610595703125">
        <ele>282.399993896484375</ele>
        <time>2022-01-07T09:39:20.000Z</time>
      </trkpt>
      <trkpt lat="41.4538680575788021087646484375" lon="2.1463423781096935272216796875">
        <ele>282</ele>
        <time>2022-01-07T09:39:21.000Z</time>
      </trkpt>
      <trkpt lat="41.45389747805893421173095703125" lon="2.1463383547961711883544921875">
        <ele>282</ele>
        <time>2022-01-07T09:39:22.000Z</time>
      </trkpt>
      <trkpt lat="41.45393435843288898468017578125" lon="2.14632578194141387939453125">
        <ele>281.79998779296875</ele>
        <time>2022-01-07T09:39:23.000Z</time>
      </trkpt>
      <trkpt lat="41.45396922715008258819580078125" lon="2.14630323462188243865966796875">
        <ele>282</ele>
        <time>2022-01-07T09:39:24.000Z</time>
      </trkpt>
      <trkpt lat="41.4540082029998302459716796875" lon="2.1462714672088623046875">
        <ele>282</ele>
        <time>2022-01-07T09:39:25.000Z</time>
      </trkpt>
      <trkpt lat="41.45405103452503681182861328125" lon="2.1462352573871612548828125">
        <ele>282</ele>
        <time>2022-01-07T09:39:26.000Z</time>
      </trkpt>
      <trkpt lat="41.4540970511734485626220703125" lon="2.1461955271661281585693359375">
        <ele>282</ele>
        <time>2022-01-07T09:39:27.000Z</time>
      </trkpt>
      <trkpt lat="41.45414507947862148284912109375" lon="2.14614381082355976104736328125">
        <ele>282</ele>
        <time>2022-01-07T09:39:28.000Z</time>
      </trkpt>
      <trkpt lat="41.4541988074779510498046875" lon="2.1460848860442638397216796875">
        <ele>282</ele>
        <time>2022-01-07T09:39:29.000Z</time>
      </trkpt>
      <trkpt lat="41.45426192320883274078369140625" lon="2.14601959101855754852294921875">
        <ele>281.79998779296875</ele>
        <time>2022-01-07T09:39:30.000Z</time>
      </trkpt>
      <trkpt lat="41.45432956516742706298828125" lon="2.14595555327832698822021484375">
        <ele>281.600006103515625</ele>
        <time>2022-01-07T09:39:31.000Z</time>
      </trkpt>
      <trkpt lat="41.45439703948795795440673828125" lon="2.1459021605551242828369140625">
        <ele>281</ele>
        <time>2022-01-07T09:39:32.000Z</time>
      </trkpt>
      <trkpt lat="41.4544604904949665069580078125" lon="2.14586167596280574798583984375">
        <ele>281</ele>
        <time>2022-01-07T09:39:33.000Z</time>
      </trkpt>
      <trkpt lat="41.4545179903507232666015625" lon="2.145834602415561676025390625">
        <ele>280.20001220703125</ele>
        <time>2022-01-07T09:39:34.000Z</time>
      </trkpt>
      <trkpt lat="41.454583704471588134765625" lon="2.1458237059414386749267578125">
        <ele>279.399993896484375</ele>
        <time>2022-01-07T09:39:35.000Z</time>
      </trkpt>
      <trkpt lat="41.45464246161282062530517578125" lon="2.14584072120487689971923828125">
        <ele>278.79998779296875</ele>
        <time>2022-01-07T09:39:36.000Z</time>
      </trkpt>
      <trkpt lat="41.4547099359333515167236328125" lon="2.14587391354143619537353515625">
        <ele>277.600006103515625</ele>
        <time>2022-01-07T09:39:37.000Z</time>
      </trkpt>
      <trkpt lat="41.454787887632846832275390625" lon="2.14591749943792819976806640625">
        <ele>276.399993896484375</ele>
        <time>2022-01-07T09:39:38.000Z</time>
      </trkpt>
      <trkpt lat="41.45487497560679912567138671875" lon="2.145965360105037689208984375">
        <ele>274.79998779296875</ele>
        <time>2022-01-07T09:39:39.000Z</time>
      </trkpt>
      <trkpt lat="41.4549731276929378509521484375" lon="2.14601171202957630157470703125">
        <ele>273.600006103515625</ele>
        <time>2022-01-07T09:39:40.000Z</time>
      </trkpt>
      <trkpt lat="41.45508519373834133148193359375" lon="2.1460533700883388519287109375">
        <ele>272.399993896484375</ele>
        <time>2022-01-07T09:39:41.000Z</time>
      </trkpt>
      <trkpt lat="41.45520773716270923614501953125" lon="2.146096788346767425537109375">
        <ele>271.399993896484375</ele>
        <time>2022-01-07T09:39:42.000Z</time>
      </trkpt>
      <trkpt lat="41.4553298614919185638427734375" lon="2.146137021481990814208984375">
        <ele>270.600006103515625</ele>
        <time>2022-01-07T09:39:43.000Z</time>
      </trkpt>
      <trkpt lat="41.45544536411762237548828125" lon="2.14617281220853328704833984375">
        <ele>269</ele>
        <time>2022-01-07T09:39:44.000Z</time>
      </trkpt>
      <trkpt lat="41.4555551670491695404052734375" lon="2.1462109498679637908935546875">
        <ele>267.20001220703125</ele>
        <time>2022-01-07T09:39:45.000Z</time>
      </trkpt>
      <trkpt lat="41.45566304214298725128173828125" lon="2.14624799787998199462890625">
        <ele>265.20001220703125</ele>
        <time>2022-01-07T09:39:46.000Z</time>
      </trkpt>
      <trkpt lat="41.45576915703713893890380859375" lon="2.1462702937424182891845703125">
        <ele>262.399993896484375</ele>
        <time>2022-01-07T09:39:47.000Z</time>
      </trkpt>
      <trkpt lat="41.45587359555065631866455078125" lon="2.14627305977046489715576171875">
        <ele>259.399993896484375</ele>
        <time>2022-01-07T09:39:48.000Z</time>
      </trkpt>
      <trkpt lat="41.45597216673195362091064453125" lon="2.1462746523320674896240234375">
        <ele>256</ele>
        <time>2022-01-07T09:39:49.000Z</time>
      </trkpt>
      <trkpt lat="41.45605967380106449127197265625" lon="2.1462830342352390289306640625">
        <ele>252.1999969482421875</ele>
        <time>2022-01-07T09:39:50.000Z</time>
      </trkpt>
      <trkpt lat="41.45613561384379863739013671875" lon="2.14628848247230052947998046875">
        <ele>249.600006103515625</ele>
        <time>2022-01-07T09:39:51.000Z</time>
      </trkpt>
      <trkpt lat="41.45619646646082401275634765625" lon="2.14629217050969600677490234375">
        <ele>247.600006103515625</ele>
        <time>2022-01-07T09:39:52.000Z</time>
      </trkpt>
      <trkpt lat="41.456254385411739349365234375" lon="2.146295942366123199462890625">
        <ele>246.600006103515625</ele>
        <time>2022-01-07T09:39:53.000Z</time>
      </trkpt>
      <trkpt lat="41.45631314255297183990478515625" lon="2.146300636231899261474609375">
        <ele>246</ele>
        <time>2022-01-07T09:39:54.000Z</time>
      </trkpt>
      <trkpt lat="41.4563685469329357147216796875" lon="2.14630943723022937774658203125">
        <ele>245.8000030517578125</ele>
        <time>2022-01-07T09:39:55.000Z</time>
      </trkpt>
      <trkpt lat="41.456423364579677581787109375" lon="2.146314047276973724365234375">
        <ele>245.600006103515625</ele>
        <time>2022-01-07T09:39:56.000Z</time>
      </trkpt>
      <trkpt lat="41.4564758352935314178466796875" lon="2.14631983079016208648681640625">
        <ele>245.399993896484375</ele>
        <time>2022-01-07T09:39:57.000Z</time>
      </trkpt>
      <trkpt lat="41.456524617969989776611328125" lon="2.14632469229400157928466796875">
        <ele>245.399993896484375</ele>
        <time>2022-01-07T09:39:58.000Z</time>
      </trkpt>
      <trkpt lat="41.45656728185713291168212890625" lon="2.14632687158882617950439453125">
        <ele>245.399993896484375</ele>
        <time>2022-01-07T09:39:59.000Z</time>
      </trkpt>
      <trkpt lat="41.456603072583675384521484375" lon="2.14632201008498668670654296875">
        <ele>245.399993896484375</ele>
        <time>2022-01-07T09:40:00.000Z</time>
      </trkpt>
      <trkpt lat="41.4566377736628055572509765625" lon="2.14631547220051288604736328125">
        <ele>245.399993896484375</ele>
        <time>2022-01-07T09:40:01.000Z</time>
      </trkpt>
      <trkpt lat="41.456670463085174560546875" lon="2.14630298316478729248046875">
        <ele>245.399993896484375</ele>
        <time>2022-01-07T09:40:02.000Z</time>
      </trkpt>
      <trkpt lat="41.45669921301305294036865234375" lon="2.14629066176712512969970703125">
        <ele>245.399993896484375</ele>
        <time>2022-01-07T09:40:03.000Z</time>
      </trkpt>
      <trkpt lat="41.45672771148383617401123046875" lon="2.1462736465036869049072265625">
        <ele>245.600006103515625</ele>
        <time>2022-01-07T09:40:04.000Z</time>
      </trkpt>
      <trkpt lat="41.45675822161138057708740234375" lon="2.14625176973640918731689453125">
        <ele>245.8000030517578125</ele>
        <time>2022-01-07T09:40:05.000Z</time>
      </trkpt>
      <trkpt lat="41.4567926712334156036376953125" lon="2.14623534120619297027587890625">
        <ele>245.8000030517578125</ele>
        <time>2022-01-07T09:40:06.000Z</time>
      </trkpt>
      <trkpt lat="41.45683332346379756927490234375" lon="2.14622385799884796142578125">
        <ele>245.8000030517578125</ele>
        <time>2022-01-07T09:40:07.000Z</time>
      </trkpt>
      <trkpt lat="41.456880010664463043212890625" lon="2.14619779027998447418212890625">
        <ele>245.8000030517578125</ele>
        <time>2022-01-07T09:40:08.000Z</time>
      </trkpt>
      <trkpt lat="41.456923596560955047607421875" lon="2.14614766649901866912841796875">
        <ele>245.8000030517578125</ele>
        <time>2022-01-07T09:40:09.000Z</time>
      </trkpt>
      <trkpt lat="41.4569623209536075592041015625" lon="2.14607943780720233917236328125">
        <ele>245.8000030517578125</ele>
        <time>2022-01-07T09:40:10.000Z</time>
      </trkpt>
      <trkpt lat="41.45699626766145229339599609375" lon="2.146003246307373046875">
        <ele>245.8000030517578125</ele>
        <time>2022-01-07T09:40:11.000Z</time>
      </trkpt>
      <trkpt lat="41.45702610723674297332763671875" lon="2.14592755772173404693603515625">
        <ele>245.8000030517578125</ele>
        <time>2022-01-07T09:40:12.000Z</time>
      </trkpt>
      <trkpt lat="41.45705477334558963775634765625" lon="2.14585547335445880889892578125">
        <ele>245.8000030517578125</ele>
        <time>2022-01-07T09:40:13.000Z</time>
      </trkpt>
      <trkpt lat="41.45708662457764148712158203125" lon="2.14579428546130657196044921875">
        <ele>245.8000030517578125</ele>
        <time>2022-01-07T09:40:14.000Z</time>
      </trkpt>
      <trkpt lat="41.4571250975131988525390625" lon="2.14575019665062427520751953125">
        <ele>245.399993896484375</ele>
        <time>2022-01-07T09:40:15.000Z</time>
      </trkpt>
      <trkpt lat="41.45716734230518341064453125" lon="2.14571784250438213348388671875">
        <ele>244.1999969482421875</ele>
        <time>2022-01-07T09:40:16.000Z</time>
      </trkpt>
      <trkpt lat="41.45720799453556537628173828125" lon="2.14568875730037689208984375">
        <ele>243.600006103515625</ele>
        <time>2022-01-07T09:40:17.000Z</time>
      </trkpt>
      <trkpt lat="41.45724923349916934967041015625" lon="2.14566729962825775146484375">
        <ele>243.1999969482421875</ele>
        <time>2022-01-07T09:40:18.000Z</time>
      </trkpt>
      <trkpt lat="41.45729030482470989227294921875" lon="2.1456510387361049652099609375">
        <ele>242.8000030517578125</ele>
        <time>2022-01-07T09:40:19.000Z</time>
      </trkpt>
      <trkpt lat="41.457326598465442657470703125" lon="2.14562513865530490875244140625">
        <ele>242.399993896484375</ele>
        <time>2022-01-07T09:40:20.000Z</time>
      </trkpt>
      <trkpt lat="41.4573592878878116607666015625" lon="2.14558892883360385894775390625">
        <ele>242.1999969482421875</ele>
        <time>2022-01-07T09:40:21.000Z</time>
      </trkpt>
      <trkpt lat="41.4573951624333858489990234375" lon="2.14553997851908206939697265625">
        <ele>242</ele>
        <time>2022-01-07T09:40:22.000Z</time>
      </trkpt>
      <trkpt lat="41.45743866451084613800048828125" lon="2.1454823948442935943603515625">
        <ele>241.8000030517578125</ele>
        <time>2022-01-07T09:40:23.000Z</time>
      </trkpt>
      <trkpt lat="41.4574880339205265045166015625" lon="2.14541961438953876495361328125">
        <ele>241.600006103515625</ele>
        <time>2022-01-07T09:40:24.000Z</time>
      </trkpt>
      <trkpt lat="41.4575327932834625244140625" lon="2.14535892941057682037353515625">
        <ele>241.399993896484375</ele>
        <time>2022-01-07T09:40:25.000Z</time>
      </trkpt>
      <trkpt lat="41.45757143385708332061767578125" lon="2.145292460918426513671875">
        <ele>241.1999969482421875</ele>
        <time>2022-01-07T09:40:26.000Z</time>
      </trkpt>
      <trkpt lat="41.4576080627739429473876953125" lon="2.14523538015782833099365234375">
        <ele>240.600006103515625</ele>
        <time>2022-01-07T09:40:27.000Z</time>
      </trkpt>
      <trkpt lat="41.4576409198343753814697265625" lon="2.14519464410841464996337890625">
        <ele>240.399993896484375</ele>
        <time>2022-01-07T09:40:28.000Z</time>
      </trkpt>
      <trkpt lat="41.457668244838714599609375" lon="2.1451555006206035614013671875">
        <ele>239.399993896484375</ele>
        <time>2022-01-07T09:40:29.000Z</time>
      </trkpt>
      <trkpt lat="41.45769297145307064056396484375" lon="2.1451166085898876190185546875">
        <ele>238.1999969482421875</ele>
        <time>2022-01-07T09:40:30.000Z</time>
      </trkpt>
      <trkpt lat="41.45771585404872894287109375" lon="2.14508886449038982391357421875">
        <ele>237.399993896484375</ele>
        <time>2022-01-07T09:40:31.000Z</time>
      </trkpt>
      <trkpt lat="41.45775399170815944671630859375" lon="2.14505097828805446624755859375">
        <ele>237.399993896484375</ele>
        <time>2022-01-07T09:40:32.000Z</time>
      </trkpt>
      <trkpt lat="41.4577927999198436737060546875" lon="2.14501761831343173980712890625">
        <ele>236.8000030517578125</ele>
        <time>2022-01-07T09:40:33.000Z</time>
      </trkpt>
      <trkpt lat="41.4578347094357013702392578125" lon="2.144974283874034881591796875">
        <ele>236.1999969482421875</ele>
        <time>2022-01-07T09:40:34.000Z</time>
      </trkpt>
      <trkpt lat="41.45787854678928852081298828125" lon="2.1449224837124347686767578125">
        <ele>236</ele>
        <time>2022-01-07T09:40:35.000Z</time>
      </trkpt>
      <trkpt lat="41.45792515017092227935791015625" lon="2.1448725275695323944091796875">
        <ele>235.8000030517578125</ele>
        <time>2022-01-07T09:40:36.000Z</time>
      </trkpt>
      <trkpt lat="41.4579711668193340301513671875" lon="2.14481913484632968902587890625">
        <ele>235.8000030517578125</ele>
        <time>2022-01-07T09:40:37.000Z</time>
      </trkpt>
      <trkpt lat="41.45801760256290435791015625" lon="2.14476607739925384521484375">
        <ele>235.600006103515625</ele>
        <time>2022-01-07T09:40:38.000Z</time>
      </trkpt>
      <trkpt lat="41.45806320011615753173828125" lon="2.14471419341862201690673828125">
        <ele>235.600006103515625</ele>
        <time>2022-01-07T09:40:39.000Z</time>
      </trkpt>
      <trkpt lat="41.458107791841030120849609375" lon="2.14466121979057788848876953125">
        <ele>235.399993896484375</ele>
        <time>2022-01-07T09:40:40.000Z</time>
      </trkpt>
      <trkpt lat="41.4581498689949512481689453125" lon="2.14460874907672405242919921875">
        <ele>235.1999969482421875</ele>
        <time>2022-01-07T09:40:41.000Z</time>
      </trkpt>
      <trkpt lat="41.4581904374063014984130859375" lon="2.144557535648345947265625">
        <ele>235</ele>
        <time>2022-01-07T09:40:42.000Z</time>
      </trkpt>
      <trkpt lat="41.45823611877858638763427734375" lon="2.14450716041028499603271484375">
        <ele>234.8000030517578125</ele>
        <time>2022-01-07T09:40:43.000Z</time>
      </trkpt>
      <trkpt lat="41.45828842185437679290771484375" lon="2.1444661729037761688232421875">
        <ele>234.600006103515625</ele>
        <time>2022-01-07T09:40:44.000Z</time>
      </trkpt>
      <trkpt lat="41.45833787508308887481689453125" lon="2.14443189091980457305908203125">
        <ele>234.399993896484375</ele>
        <time>2022-01-07T09:40:45.000Z</time>
      </trkpt>
      <trkpt lat="41.458388753235340118408203125" lon="2.14439920149743556976318359375">
        <ele>234.399993896484375</ele>
        <time>2022-01-07T09:40:46.000Z</time>
      </trkpt>
      <trkpt lat="41.4584439061582088470458984375" lon="2.14437020011246204376220703125">
        <ele>234.1999969482421875</ele>
        <time>2022-01-07T09:40:47.000Z</time>
      </trkpt>
      <trkpt lat="41.45850316621363162994384765625" lon="2.14433901943266391754150390625">
        <ele>234</ele>
        <time>2022-01-07T09:40:48.000Z</time>
      </trkpt>
      <trkpt lat="41.4585666172206401824951171875" lon="2.1443092636764049530029296875">
        <ele>233.8000030517578125</ele>
        <time>2022-01-07T09:40:49.000Z</time>
      </trkpt>
      <trkpt lat="41.45863157697021961212158203125" lon="2.144285626709461212158203125">
        <ele>233.600006103515625</ele>
        <time>2022-01-07T09:40:50.000Z</time>
      </trkpt>
      <trkpt lat="41.45869444124400615692138671875" lon="2.14426710270345211029052734375">
        <ele>233.399993896484375</ele>
        <time>2022-01-07T09:40:51.000Z</time>
      </trkpt>
      <trkpt lat="41.45875529386103153228759765625" lon="2.144247405230998992919921875">
        <ele>233.1999969482421875</ele>
        <time>2022-01-07T09:40:52.000Z</time>
      </trkpt>
      <trkpt lat="41.458819918334484100341796875" lon="2.14421899057924747467041015625">
        <ele>233</ele>
        <time>2022-01-07T09:40:53.000Z</time>
      </trkpt>
      <trkpt lat="41.4588858000934123992919921875" lon="2.14417741633951663970947265625">
        <ele>232.8000030517578125</ele>
        <time>2022-01-07T09:40:54.000Z</time>
      </trkpt>
      <trkpt lat="41.458945311605930328369140625" lon="2.1441117860376834869384765625">
        <ele>232.399993896484375</ele>
        <time>2022-01-07T09:40:55.000Z</time>
      </trkpt>
      <trkpt lat="41.45900893025100231170654296875" lon="2.144038192927837371826171875">
        <ele>231.600006103515625</ele>
        <time>2022-01-07T09:40:56.000Z</time>
      </trkpt>
      <trkpt lat="41.459080763161182403564453125" lon="2.14396401308476924896240234375">
        <ele>231</ele>
        <time>2022-01-07T09:40:57.000Z</time>
      </trkpt>
      <trkpt lat="41.45915444009006023406982421875" lon="2.14389544911682605743408203125">
        <ele>230</ele>
        <time>2022-01-07T09:40:58.000Z</time>
      </trkpt>
      <trkpt lat="41.4592143706977367401123046875" lon="2.14385018683969974517822265625">
        <ele>229</ele>
        <time>2022-01-07T09:40:59.000Z</time>
      </trkpt>
      <trkpt lat="41.4592898078262805938720703125" lon="2.1437972970306873321533203125">
        <ele>227.8000030517578125</ele>
        <time>2022-01-07T09:41:00.000Z</time>
      </trkpt>
      <trkpt lat="41.4593860320746898651123046875" lon="2.1437325887382030487060546875">
        <ele>225.8000030517578125</ele>
        <time>2022-01-07T09:41:01.000Z</time>
      </trkpt>
      <trkpt lat="41.4594701863825321197509765625" lon="2.14368070475757122039794921875">
        <ele>225.8000030517578125</ele>
        <time>2022-01-07T09:41:02.000Z</time>
      </trkpt>
      <trkpt lat="41.45954621024429798126220703125" lon="2.14362370781600475311279296875">
        <ele>224</ele>
        <time>2022-01-07T09:41:03.000Z</time>
      </trkpt>
      <trkpt lat="41.4596177078783512115478515625" lon="2.1435693092644214630126953125">
        <ele>222</ele>
        <time>2022-01-07T09:41:04.000Z</time>
      </trkpt>
      <trkpt lat="41.45969155244529247283935546875" lon="2.14351709000766277313232421875">
        <ele>220.1999969482421875</ele>
        <time>2022-01-07T09:41:05.000Z</time>
      </trkpt>
      <trkpt lat="41.45976967178285121917724609375" lon="2.1434767730534076690673828125">
        <ele>219</ele>
        <time>2022-01-07T09:41:06.000Z</time>
      </trkpt>
      <trkpt lat="41.459846198558807373046875" lon="2.1434579975903034210205078125">
        <ele>217.399993896484375</ele>
        <time>2022-01-07T09:41:07.000Z</time>
      </trkpt>
      <trkpt lat="41.45991400815546512603759765625" lon="2.14345741085708141326904296875">
        <ele>216.399993896484375</ele>
        <time>2022-01-07T09:41:08.000Z</time>
      </trkpt>
      <trkpt lat="41.4599717594683170318603515625" lon="2.1434761025011539459228515625">
        <ele>215.1999969482421875</ele>
        <time>2022-01-07T09:41:09.000Z</time>
      </trkpt>
      <trkpt lat="41.46001073531806468963623046875" lon="2.1435101330280303955078125">
        <ele>214.600006103515625</ele>
        <time>2022-01-07T09:41:10.000Z</time>
      </trkpt>
      <trkpt lat="41.46005465649068355560302734375" lon="2.1435475163161754608154296875">
        <ele>214</ele>
        <time>2022-01-07T09:41:11.000Z</time>
      </trkpt>
      <trkpt lat="41.4600974880158901214599609375" lon="2.1435817144811153411865234375">
        <ele>213.600006103515625</ele>
        <time>2022-01-07T09:41:12.000Z</time>
      </trkpt>
      <trkpt lat="41.4601461030542850494384765625" lon="2.143606357276439666748046875">
        <ele>213.399993896484375</ele>
        <time>2022-01-07T09:41:13.000Z</time>
      </trkpt>
      <trkpt lat="41.4602014236152172088623046875" lon="2.14362437836825847625732421875">
        <ele>213.1999969482421875</ele>
        <time>2022-01-07T09:41:14.000Z</time>
      </trkpt>
      <trkpt lat="41.460263617336750030517578125" lon="2.14364198036491870880126953125">
        <ele>213</ele>
        <time>2022-01-07T09:41:15.000Z</time>
      </trkpt>
      <trkpt lat="41.46032673306763172149658203125" lon="2.143653966486454010009765625">
        <ele>213</ele>
        <time>2022-01-07T09:41:16.000Z</time>
      </trkpt>
      <trkpt lat="41.46039345301687717437744140625" lon="2.1436625160276889801025390625">
        <ele>212.8000030517578125</ele>
        <time>2022-01-07T09:41:17.000Z</time>
      </trkpt>
      <trkpt lat="41.460468135774135589599609375" lon="2.1436648629605770111083984375">
        <ele>212.8000030517578125</ele>
        <time>2022-01-07T09:41:18.000Z</time>
      </trkpt>
      <trkpt lat="41.46054952405393123626708984375" lon="2.14366176165640354156494140625">
        <ele>212.600006103515625</ele>
        <time>2022-01-07T09:41:19.000Z</time>
      </trkpt>
      <trkpt lat="41.46064021624624729156494140625" lon="2.14366234838962554931640625">
        <ele>212.600006103515625</ele>
        <time>2022-01-07T09:41:20.000Z</time>
      </trkpt>
      <trkpt lat="41.46073333919048309326171875" lon="2.14366964064538478851318359375">
        <ele>212.399993896484375</ele>
        <time>2022-01-07T09:41:21.000Z</time>
      </trkpt>
      <trkpt lat="41.46082713268697261810302734375" lon="2.143668048083782196044921875">
        <ele>212</ele>
        <time>2022-01-07T09:41:22.000Z</time>
      </trkpt>
      <trkpt lat="41.4609272964298725128173828125" lon="2.1436638571321964263916015625">
        <ele>211</ele>
        <time>2022-01-07T09:41:23.000Z</time>
      </trkpt>
      <trkpt lat="41.46103098057210445404052734375" lon="2.1436735801398754119873046875">
        <ele>210.600006103515625</ele>
        <time>2022-01-07T09:41:24.000Z</time>
      </trkpt>
      <trkpt lat="41.46112904883921146392822265625" lon="2.14368724264204502105712890625">
        <ele>209.1999969482421875</ele>
        <time>2022-01-07T09:41:25.000Z</time>
      </trkpt>
      <trkpt lat="41.461219489574432373046875" lon="2.14370031841099262237548828125">
        <ele>207.8000030517578125</ele>
        <time>2022-01-07T09:41:26.000Z</time>
      </trkpt>
      <trkpt lat="41.46129651926457881927490234375" lon="2.14371121488511562347412109375">
        <ele>206.1999969482421875</ele>
        <time>2022-01-07T09:41:27.000Z</time>
      </trkpt>
      <trkpt lat="41.461355946958065032958984375" lon="2.1437248773872852325439453125">
        <ele>205</ele>
        <time>2022-01-07T09:41:28.000Z</time>
      </trkpt>
      <trkpt lat="41.46140657365322113037109375" lon="2.14374792762100696563720703125">
        <ele>203.1999969482421875</ele>
        <time>2022-01-07T09:41:29.000Z</time>
      </trkpt>
      <trkpt lat="41.4614466391503810882568359375" lon="2.1437783539295196533203125">
        <ele>202</ele>
        <time>2022-01-07T09:41:30.000Z</time>
      </trkpt>
      <trkpt lat="41.46148092113435268402099609375" lon="2.14380023069679737091064453125">
        <ele>202</ele>
        <time>2022-01-07T09:41:31.000Z</time>
      </trkpt>
      <trkpt lat="41.46150858141481876373291015625" lon="2.143809534609317779541015625">
        <ele>201.1999969482421875</ele>
        <time>2022-01-07T09:41:32.000Z</time>
      </trkpt>
      <trkpt lat="41.4615217410027980804443359375" lon="2.1438130550086498260498046875">
        <ele>201</ele>
        <time>2022-01-07T09:41:33.000Z</time>
      </trkpt>
      <trkpt lat="41.46152534522116184234619140625" lon="2.1438123844563961029052734375">
        <ele>200.8000030517578125</ele>
        <time>2022-01-07T09:41:34.000Z</time>
      </trkpt>
      <trkpt lat="41.46152534522116184234619140625" lon="2.1438123844563961029052734375">
        <ele>200.600006103515625</ele>
        <time>2022-01-07T09:41:35.000Z</time>
      </trkpt>
      <trkpt lat="41.46156750619411468505859375" lon="2.14380190707743167877197265625">
        <ele>200.399993896484375</ele>
        <time>2022-01-07T09:41:39.000Z</time>
      </trkpt>
      <trkpt lat="41.46158787421882152557373046875" lon="2.143785394728183746337890625">
        <ele>200.399993896484375</ele>
        <time>2022-01-07T09:41:40.000Z</time>
      </trkpt>
      <trkpt lat="41.46161117590963840484619140625" lon="2.1437661163508892059326171875">
        <ele>200.1999969482421875</ele>
        <time>2022-01-07T09:41:41.000Z</time>
      </trkpt>
      <trkpt lat="41.46164034493267536163330078125" lon="2.14375982992351055145263671875">
        <ele>200.1999969482421875</ele>
        <time>2022-01-07T09:41:42.000Z</time>
      </trkpt>
      <trkpt lat="41.46168007515370845794677734375" lon="2.14376184158027172088623046875">
        <ele>200</ele>
        <time>2022-01-07T09:41:43.000Z</time>
      </trkpt>
      <trkpt lat="41.46171829663217067718505859375" lon="2.14376670308411121368408203125">
        <ele>200</ele>
        <time>2022-01-07T09:41:44.000Z</time>
      </trkpt>
      <trkpt lat="41.46175031550228595733642578125" lon="2.14377659372985363006591796875">
        <ele>200</ele>
        <time>2022-01-07T09:41:45.000Z</time>
      </trkpt>
      <trkpt lat="41.461784429848194122314453125" lon="2.14378438889980316162109375">
        <ele>200</ele>
        <time>2022-01-07T09:41:46.000Z</time>
      </trkpt>
      <trkpt lat="41.461822651326656341552734375" lon="2.1437962912023067474365234375">
        <ele>200</ele>
        <time>2022-01-07T09:41:47.000Z</time>
      </trkpt>
      <trkpt lat="41.46186447702348232269287109375" lon="2.14380995370447635650634765625">
        <ele>200</ele>
        <time>2022-01-07T09:41:48.000Z</time>
      </trkpt>
      <trkpt lat="41.4619022794067859649658203125" lon="2.143829651176929473876953125">
        <ele>200</ele>
        <time>2022-01-07T09:41:49.000Z</time>
      </trkpt>
      <trkpt lat="41.46194242872297763824462890625" lon="2.14385270141065120697021484375">
        <ele>199.8000030517578125</ele>
        <time>2022-01-07T09:41:50.000Z</time>
      </trkpt>
      <trkpt lat="41.46198333241045475006103515625" lon="2.14387290179729461669921875">
        <ele>199.399993896484375</ele>
        <time>2022-01-07T09:41:51.000Z</time>
      </trkpt>
      <trkpt lat="41.4620229788124561309814453125" lon="2.143887318670749664306640625">
        <ele>198.600006103515625</ele>
        <time>2022-01-07T09:41:52.000Z</time>
      </trkpt>
      <trkpt lat="41.46206078119575977325439453125" lon="2.143903411924839019775390625">
        <ele>197.8000030517578125</ele>
        <time>2022-01-07T09:41:53.000Z</time>
      </trkpt>
      <trkpt lat="41.462093889713287353515625" lon="2.14392243884503841400146484375">
        <ele>197.1999969482421875</ele>
        <time>2022-01-07T09:41:54.000Z</time>
      </trkpt>
      <trkpt lat="41.4621181972324848175048828125" lon="2.14393635280430316925048828125">
        <ele>196</ele>
        <time>2022-01-07T09:41:55.000Z</time>
      </trkpt>
      <trkpt lat="41.4621396549046039581298828125" lon="2.1439418010413646697998046875">
        <ele>195</ele>
        <time>2022-01-07T09:41:56.000Z</time>
      </trkpt>
      <trkpt lat="41.4621634595096111297607421875" lon="2.1439357660710811614990234375">
        <ele>194</ele>
        <time>2022-01-07T09:41:57.000Z</time>
      </trkpt>
      <trkpt lat="41.4621943049132823944091796875" lon="2.143926881253719329833984375">
        <ele>193</ele>
        <time>2022-01-07T09:41:58.000Z</time>
      </trkpt>
      <trkpt lat="41.46222674287855625152587890625" lon="2.14391221292316913604736328125">
        <ele>192</ele>
        <time>2022-01-07T09:41:59.000Z</time>
      </trkpt>
      <trkpt lat="41.4622586779296398162841796875" lon="2.1438918448984622955322265625">
        <ele>191</ele>
        <time>2022-01-07T09:42:00.000Z</time>
      </trkpt>
      <trkpt lat="41.46228793077170848846435546875" lon="2.143868543207645416259765625">
        <ele>191</ele>
        <time>2022-01-07T09:42:01.000Z</time>
      </trkpt>
      <trkpt lat="41.4623178541660308837890625" lon="2.1438482590019702911376953125">
        <ele>190.1999969482421875</ele>
        <time>2022-01-07T09:42:02.000Z</time>
      </trkpt>
      <trkpt lat="41.4623495377600193023681640625" lon="2.14383711107075214385986328125">
        <ele>189.600006103515625</ele>
        <time>2022-01-07T09:42:03.000Z</time>
      </trkpt>
      <trkpt lat="41.46237552165985107421875" lon="2.1438346803188323974609375">
        <ele>189</ele>
        <time>2022-01-07T09:42:04.000Z</time>
      </trkpt>
      <trkpt lat="41.46240963600575923919677734375" lon="2.14384398423135280609130859375">
        <ele>188.600006103515625</ele>
        <time>2022-01-07T09:42:05.000Z</time>
      </trkpt>
      <trkpt lat="41.46245473064482212066650390625" lon="2.14386141858994960784912109375">
        <ele>188</ele>
        <time>2022-01-07T09:42:06.000Z</time>
      </trkpt>
      <trkpt lat="41.4624997414648532867431640625" lon="2.14387415908277034759521484375">
        <ele>187.399993896484375</ele>
        <time>2022-01-07T09:42:07.000Z</time>
      </trkpt>
      <trkpt lat="41.46255732513964176177978515625" lon="2.14388840831816196441650390625">
        <ele>186.600006103515625</ele>
        <time>2022-01-07T09:42:08.000Z</time>
      </trkpt>
      <trkpt lat="41.46261868067085742950439453125" lon="2.143896035850048065185546875">
        <ele>186</ele>
        <time>2022-01-07T09:42:09.000Z</time>
      </trkpt>
      <trkpt lat="41.46265447139739990234375" lon="2.143878601491451263427734375">
        <ele>185.1999969482421875</ele>
        <time>2022-01-07T09:42:10.000Z</time>
      </trkpt>
      <trkpt lat="41.4626801200211048126220703125" lon="2.143852449953556060791015625">
        <ele>184.8000030517578125</ele>
        <time>2022-01-07T09:42:11.000Z</time>
      </trkpt>
      <trkpt lat="41.46269277669489383697509765625" lon="2.14381732977926731109619140625">
        <ele>184.1999969482421875</ele>
        <time>2022-01-07T09:42:12.000Z</time>
      </trkpt>
      <trkpt lat="41.4626928605139255523681640625" lon="2.14377500116825103759765625">
        <ele>183.399993896484375</ele>
        <time>2022-01-07T09:42:13.000Z</time>
      </trkpt>
      <trkpt lat="41.46268825046718120574951171875" lon="2.14372127316892147064208984375">
        <ele>182.600006103515625</ele>
        <time>2022-01-07T09:42:14.000Z</time>
      </trkpt>
      <trkpt lat="41.4626888372004032135009765625" lon="2.14365673251450061798095703125">
        <ele>181.600006103515625</ele>
        <time>2022-01-07T09:42:15.000Z</time>
      </trkpt>
      <trkpt lat="41.46270476281642913818359375" lon="2.14359671808779239654541015625">
        <ele>180.600006103515625</ele>
        <time>2022-01-07T09:42:16.000Z</time>
      </trkpt>
      <trkpt lat="41.4627357758581638336181640625" lon="2.1435632742941379547119140625">
        <ele>179.600006103515625</ele>
        <time>2022-01-07T09:42:17.000Z</time>
      </trkpt>
      <trkpt lat="41.46276938728988170623779296875" lon="2.143570147454738616943359375">
        <ele>179</ele>
        <time>2022-01-07T09:42:18.000Z</time>
      </trkpt>
      <trkpt lat="41.46279134787619113922119140625" lon="2.14361079968512058258056640625">
        <ele>178.399993896484375</ele>
        <time>2022-01-07T09:42:19.000Z</time>
      </trkpt>
      <trkpt lat="41.4628212712705135345458984375" lon="2.14366972446441650390625">
        <ele>177.8000030517578125</ele>
        <time>2022-01-07T09:42:20.000Z</time>
      </trkpt>
      <trkpt lat="41.4628596603870391845703125" lon="2.14374004863202571868896484375">
        <ele>177.1999969482421875</ele>
        <time>2022-01-07T09:42:21.000Z</time>
      </trkpt>
      <trkpt lat="41.462894193828105926513671875" lon="2.1437983028590679168701171875">
        <ele>176.1999969482421875</ele>
        <time>2022-01-07T09:42:22.000Z</time>
      </trkpt>
      <trkpt lat="41.46294607780873775482177734375" lon="2.14388606138527393341064453125">
        <ele>175.399993896484375</ele>
        <time>2022-01-07T09:42:23.000Z</time>
      </trkpt>
      <trkpt lat="41.46299310028553009033203125" lon="2.143962085247039794921875">
        <ele>174.600006103515625</ele>
        <time>2022-01-07T09:42:24.000Z</time>
      </trkpt>
      <trkpt lat="41.4630500972270965576171875" lon="2.1440316550433635711669921875">
        <ele>173.8000030517578125</ele>
        <time>2022-01-07T09:42:25.000Z</time>
      </trkpt>
      <trkpt lat="41.46311589516699314117431640625" lon="2.14409695006906986236572265625">
        <ele>172.8000030517578125</ele>
        <time>2022-01-07T09:42:26.000Z</time>
      </trkpt>
      <trkpt lat="41.46318965591490268707275390625" lon="2.144152857363224029541015625">
        <ele>172</ele>
        <time>2022-01-07T09:42:27.000Z</time>
      </trkpt>
      <trkpt lat="41.46326475776731967926025390625" lon="2.14420021511614322662353515625">
        <ele>171</ele>
        <time>2022-01-07T09:42:28.000Z</time>
      </trkpt>
      <trkpt lat="41.4633332379162311553955078125" lon="2.14423106051981449127197265625">
        <ele>169.8000030517578125</ele>
        <time>2022-01-07T09:42:29.000Z</time>
      </trkpt>
      <trkpt lat="41.4633939228951930999755859375" lon="2.14425201527774333953857421875">
        <ele>168.600006103515625</ele>
        <time>2022-01-07T09:42:30.000Z</time>
      </trkpt>
      <trkpt lat="41.46344664506614208221435546875" lon="2.14427665807306766510009765625">
        <ele>168.600006103515625</ele>
        <time>2022-01-07T09:42:31.000Z</time>
      </trkpt>
      <trkpt lat="41.463494338095188140869140625" lon="2.14430498890578746795654296875">
        <ele>168</ele>
        <time>2022-01-07T09:42:32.000Z</time>
      </trkpt>
      <trkpt lat="41.46353700198233127593994140625" lon="2.14434421621263027191162109375">
        <ele>167.1999969482421875</ele>
        <time>2022-01-07T09:42:33.000Z</time>
      </trkpt>
      <trkpt lat="41.4635840244591236114501953125" lon="2.1443863771855831146240234375">
        <ele>166.1999969482421875</ele>
        <time>2022-01-07T09:42:34.000Z</time>
      </trkpt>
      <trkpt lat="41.46362735889852046966552734375" lon="2.144425772130489349365234375">
        <ele>165.1999969482421875</ele>
        <time>2022-01-07T09:42:35.000Z</time>
      </trkpt>
      <trkpt lat="41.46366742439568042755126953125" lon="2.14446365833282470703125">
        <ele>164.1999969482421875</ele>
        <time>2022-01-07T09:42:36.000Z</time>
      </trkpt>
      <trkpt lat="41.463718973100185394287109375" lon="2.144506238400936126708984375">
        <ele>163</ele>
        <time>2022-01-07T09:42:37.000Z</time>
      </trkpt>
      <trkpt lat="41.4637690968811511993408203125" lon="2.1445560269057750701904296875">
        <ele>162.1999969482421875</ele>
        <time>2022-01-07T09:42:38.000Z</time>
      </trkpt>
      <trkpt lat="41.46381008438766002655029296875" lon="2.14460782706737518310546875">
        <ele>161.600006103515625</ele>
        <time>2022-01-07T09:42:39.000Z</time>
      </trkpt>
      <trkpt lat="41.463848389685153961181640625" lon="2.1446532569825649261474609375">
        <ele>160.8000030517578125</ele>
        <time>2022-01-07T09:42:40.000Z</time>
      </trkpt>
      <trkpt lat="41.463889293372631072998046875" lon="2.14469944126904010772705078125">
        <ele>160</ele>
        <time>2022-01-07T09:42:41.000Z</time>
      </trkpt>
      <trkpt lat="41.46392558701336383819580078125" lon="2.14474068023264408111572265625">
        <ele>159</ele>
        <time>2022-01-07T09:42:42.000Z</time>
      </trkpt>
      <trkpt lat="41.46395810879766941070556640625" lon="2.14477823115885257720947265625">
        <ele>158</ele>
        <time>2022-01-07T09:42:43.000Z</time>
      </trkpt>
      <trkpt lat="41.4639977551996707916259765625" lon="2.144819386303424835205078125">
        <ele>156.600006103515625</ele>
        <time>2022-01-07T09:42:44.000Z</time>
      </trkpt>
      <trkpt lat="41.46403891034424304962158203125" lon="2.14486506767570972442626953125">
        <ele>155.600006103515625</ele>
        <time>2022-01-07T09:42:45.000Z</time>
      </trkpt>
      <trkpt lat="41.46408207714557647705078125" lon="2.1449060551822185516357421875">
        <ele>154.600006103515625</ele>
        <time>2022-01-07T09:42:46.000Z</time>
      </trkpt>
      <trkpt lat="41.4641214720904827117919921875" lon="2.1449348889291286468505859375">
        <ele>153.8000030517578125</ele>
        <time>2022-01-07T09:42:47.000Z</time>
      </trkpt>
      <trkpt lat="41.46415541879832744598388671875" lon="2.1449415944516658782958984375">
        <ele>152.8000030517578125</ele>
        <time>2022-01-07T09:42:48.000Z</time>
      </trkpt>
      <trkpt lat="41.4641831628978252410888671875" lon="2.14493237435817718505859375">
        <ele>152</ele>
        <time>2022-01-07T09:42:49.000Z</time>
      </trkpt>
      <trkpt lat="41.4642123319208621978759765625" lon="2.14491552673280239105224609375">
        <ele>150.399993896484375</ele>
        <time>2022-01-07T09:42:50.000Z</time>
      </trkpt>
      <trkpt lat="41.4642438478767871856689453125" lon="2.144893817603588104248046875">
        <ele>149.399993896484375</ele>
        <time>2022-01-07T09:42:51.000Z</time>
      </trkpt>
      <trkpt lat="41.46427653729915618896484375" lon="2.14486791752278804779052734375">
        <ele>148.399993896484375</ele>
        <time>2022-01-07T09:42:52.000Z</time>
      </trkpt>
      <trkpt lat="41.46431467495858669281005859375" lon="2.14484520256519317626953125">
        <ele>147.1999969482421875</ele>
        <time>2022-01-07T09:42:53.000Z</time>
      </trkpt>
      <trkpt lat="41.46435406990349292755126953125" lon="2.14484025724232196807861328125">
        <ele>146.1999969482421875</ele>
        <time>2022-01-07T09:42:54.000Z</time>
      </trkpt>
      <trkpt lat="41.46438005380332469940185546875" lon="2.1448661573231220245361328125">
        <ele>145.1999969482421875</ele>
        <time>2022-01-07T09:42:55.000Z</time>
      </trkpt>
      <trkpt lat="41.46439782343804836273193359375" lon="2.14491150341928005218505859375">
        <ele>144.399993896484375</ele>
        <time>2022-01-07T09:42:56.000Z</time>
      </trkpt>
      <trkpt lat="41.46441006101667881011962890625" lon="2.14495793916285037994384765625">
        <ele>143.8000030517578125</ele>
        <time>2022-01-07T09:42:57.000Z</time>
      </trkpt>
      <trkpt lat="41.4644259028136730194091796875" lon="2.1449754573404788970947265625">
        <ele>143.1999969482421875</ele>
        <time>2022-01-07T09:42:58.000Z</time>
      </trkpt>
      <trkpt lat="41.46445180289447307586669921875" lon="2.1449692547321319580078125">
        <ele>142.399993896484375</ele>
        <time>2022-01-07T09:42:59.000Z</time>
      </trkpt>
      <trkpt lat="41.4644580893218517303466796875" lon="2.144930697977542877197265625">
        <ele>141.600006103515625</ele>
        <time>2022-01-07T09:43:00.000Z</time>
      </trkpt>
      <trkpt lat="41.464453898370265960693359375" lon="2.14487847872078418731689453125">
        <ele>141.600006103515625</ele>
        <time>2022-01-07T09:43:01.000Z</time>
      </trkpt>
      <trkpt lat="41.46444551646709442138671875" lon="2.144818715751171112060546875">
        <ele>140.600006103515625</ele>
        <time>2022-01-07T09:43:02.000Z</time>
      </trkpt>
      <trkpt lat="41.464437134563922882080078125" lon="2.14475392363965511322021484375">
        <ele>139.600006103515625</ele>
        <time>2022-01-07T09:43:03.000Z</time>
      </trkpt>
      <trkpt lat="41.4644314348697662353515625" lon="2.14468971826136112213134765625">
        <ele>139</ele>
        <time>2022-01-07T09:43:04.000Z</time>
      </trkpt>
      <trkpt lat="41.46444241516292095184326171875" lon="2.14463691227138042449951171875">
        <ele>138</ele>
        <time>2022-01-07T09:43:05.000Z</time>
      </trkpt>
      <trkpt lat="41.46447242237627506256103515625" lon="2.1446063183248043060302734375">
        <ele>137.399993896484375</ele>
        <time>2022-01-07T09:43:06.000Z</time>
      </trkpt>
      <trkpt lat="41.46451382897794246673583984375" lon="2.1446066536009311676025390625">
        <ele>136.8000030517578125</ele>
        <time>2022-01-07T09:43:07.000Z</time>
      </trkpt>
      <trkpt lat="41.46455842070281505584716796875" lon="2.1446388401091098785400390625">
        <ele>136.399993896484375</ele>
        <time>2022-01-07T09:43:08.000Z</time>
      </trkpt>
      <trkpt lat="41.46460401825606822967529296875" lon="2.1446871198713779449462890625">
        <ele>135.8000030517578125</ele>
        <time>2022-01-07T09:43:09.000Z</time>
      </trkpt>
      <trkpt lat="41.46464609540998935699462890625" lon="2.14474269188940525054931640625">
        <ele>135.1999969482421875</ele>
        <time>2022-01-07T09:43:10.000Z</time>
      </trkpt>
      <trkpt lat="41.46469236351549625396728515625" lon="2.1447991020977497100830078125">
        <ele>134.399993896484375</ele>
        <time>2022-01-07T09:43:11.000Z</time>
      </trkpt>
      <trkpt lat="41.46473921835422515869140625" lon="2.14484863914549350738525390625">
        <ele>133.8000030517578125</ele>
        <time>2022-01-07T09:43:12.000Z</time>
      </trkpt>
      <trkpt lat="41.464784145355224609375" lon="2.14489214122295379638671875">
        <ele>133</ele>
        <time>2022-01-07T09:43:13.000Z</time>
      </trkpt>
      <trkpt lat="41.46482815034687519073486328125" lon="2.14493312872946262359619140625">
        <ele>132.1999969482421875</ele>
        <time>2022-01-07T09:43:14.000Z</time>
      </trkpt>
      <trkpt lat="41.464866958558559417724609375" lon="2.14497252367436885833740234375">
        <ele>131</ele>
        <time>2022-01-07T09:43:15.000Z</time>
      </trkpt>
      <trkpt lat="41.4649083651602268218994140625" lon="2.1450130082666873931884765625">
        <ele>129.8000030517578125</ele>
        <time>2022-01-07T09:43:16.000Z</time>
      </trkpt>
      <trkpt lat="41.46495639346539974212646484375" lon="2.14505014009773731231689453125">
        <ele>129</ele>
        <time>2022-01-07T09:43:17.000Z</time>
      </trkpt>
      <trkpt lat="41.46501439623534679412841796875" lon="2.1450871042907238006591796875">
        <ele>128</ele>
        <time>2022-01-07T09:43:18.000Z</time>
      </trkpt>
      <trkpt lat="41.46508329547941684722900390625" lon="2.14512306265532970428466796875">
        <ele>126.8000030517578125</ele>
        <time>2022-01-07T09:43:19.000Z</time>
      </trkpt>
      <trkpt lat="41.4651574753224849700927734375" lon="2.145160026848316192626953125">
        <ele>126</ele>
        <time>2022-01-07T09:43:20.000Z</time>
      </trkpt>
      <trkpt lat="41.46522260271012783050537109375" lon="2.14519129134714603424072265625">
        <ele>125</ele>
        <time>2022-01-07T09:43:21.000Z</time>
      </trkpt>
      <trkpt lat="41.46530742757022380828857421875" lon="2.1452299319207668304443359375">
        <ele>124</ele>
        <time>2022-01-07T09:43:22.000Z</time>
      </trkpt>
      <trkpt lat="41.46539929322898387908935546875" lon="2.14526941068470478057861328125">
        <ele>123.1999969482421875</ele>
        <time>2022-01-07T09:43:23.000Z</time>
      </trkpt>
      <trkpt lat="41.46549099124968051910400390625" lon="2.145303189754486083984375">
        <ele>122.1999969482421875</ele>
        <time>2022-01-07T09:43:24.000Z</time>
      </trkpt>
      <trkpt lat="41.46558034233748912811279296875" lon="2.14534048922359943389892578125">
        <ele>121</ele>
        <time>2022-01-07T09:43:25.000Z</time>
      </trkpt>
      <trkpt lat="41.46567505784332752227783203125" lon="2.14538575150072574615478515625">
        <ele>119.8000030517578125</ele>
        <time>2022-01-07T09:43:26.000Z</time>
      </trkpt>
      <trkpt lat="41.4657725393772125244140625" lon="2.14543755166232585906982421875">
        <ele>118.1999969482421875</ele>
        <time>2022-01-07T09:43:27.000Z</time>
      </trkpt>
      <trkpt lat="41.46586214192211627960205078125" lon="2.1454907767474651336669921875">
        <ele>116.8000030517578125</ele>
        <time>2022-01-07T09:43:28.000Z</time>
      </trkpt>
      <trkpt lat="41.465931795537471771240234375" lon="2.14554383419454097747802734375">
        <ele>114.8000030517578125</ele>
        <time>2022-01-07T09:43:29.000Z</time>
      </trkpt>
      <trkpt lat="41.465981416404247283935546875" lon="2.14560317806899547576904296875">
        <ele>114.8000030517578125</ele>
        <time>2022-01-07T09:43:30.000Z</time>
      </trkpt>
      <trkpt lat="41.46601184271275997161865234375" lon="2.14566604234278202056884765625">
        <ele>112.59999847412109375</ele>
        <time>2022-01-07T09:43:31.000Z</time>
      </trkpt>
      <trkpt lat="41.466025002300739288330078125" lon="2.1457331813871860504150390625">
        <ele>110.8000030517578125</ele>
        <time>2022-01-07T09:43:32.000Z</time>
      </trkpt>
      <trkpt lat="41.46602709777653217315673828125" lon="2.1458056010305881500244140625">
        <ele>109.8000030517578125</ele>
        <time>2022-01-07T09:43:33.000Z</time>
      </trkpt>
      <trkpt lat="41.46601435728371143341064453125" lon="2.1458887495100498199462890625">
        <ele>108.8000030517578125</ele>
        <time>2022-01-07T09:43:34.000Z</time>
      </trkpt>
      <trkpt lat="41.4660043828189373016357421875" lon="2.1459455788135528564453125">
        <ele>107.40000152587890625</ele>
        <time>2022-01-07T09:43:35.000Z</time>
      </trkpt>
      <trkpt lat="41.46600698120892047882080078125" lon="2.145987488329410552978515625">
        <ele>106.59999847412109375</ele>
        <time>2022-01-07T09:43:36.000Z</time>
      </trkpt>
      <trkpt lat="41.4660181291401386260986328125" lon="2.14602009393274784088134765625">
        <ele>105.8000030517578125</ele>
        <time>2022-01-07T09:43:37.000Z</time>
      </trkpt>
      <trkpt lat="41.46603045053780078887939453125" lon="2.14604507200419902801513671875">
        <ele>105.40000152587890625</ele>
        <time>2022-01-07T09:43:38.000Z</time>
      </trkpt>
      <trkpt lat="41.4660446159541606903076171875" lon="2.146067284047603607177734375">
        <ele>104.8000030517578125</ele>
        <time>2022-01-07T09:43:39.000Z</time>
      </trkpt>
      <trkpt lat="41.46605777554214000701904296875" lon="2.14609377086162567138671875">
        <ele>104</ele>
        <time>2022-01-07T09:43:40.000Z</time>
      </trkpt>
      <trkpt lat="41.4660731144249439239501953125" lon="2.1461199223995208740234375">
        <ele>103.59999847412109375</ele>
        <time>2022-01-07T09:43:41.000Z</time>
      </trkpt>
      <trkpt lat="41.46609683521091938018798828125" lon="2.14614297263324260711669921875">
        <ele>103.1999969482421875</ele>
        <time>2022-01-07T09:43:42.000Z</time>
      </trkpt>
      <trkpt lat="41.466124244034290313720703125" lon="2.14616392739117145538330078125">
        <ele>103.1999969482421875</ele>
        <time>2022-01-07T09:43:43.000Z</time>
      </trkpt>
      <trkpt lat="41.46615131758153438568115234375" lon="2.1461871452629566192626953125">
        <ele>103</ele>
        <time>2022-01-07T09:43:44.000Z</time>
      </trkpt>
      <trkpt lat="41.46618450991809368133544921875" lon="2.146213464438915252685546875">
        <ele>103</ele>
        <time>2022-01-07T09:43:45.000Z</time>
      </trkpt>
      <trkpt lat="41.46622776053845882415771484375" lon="2.14624791406095027923583984375">
        <ele>103</ele>
        <time>2022-01-07T09:43:46.000Z</time>
      </trkpt>
      <trkpt lat="41.46626765839755535125732421875" lon="2.14628362096846103668212890625">
        <ele>102.8000030517578125</ele>
        <time>2022-01-07T09:43:47.000Z</time>
      </trkpt>
      <trkpt lat="41.46630001254379749298095703125" lon="2.1463118679821491241455078125">
        <ele>102.59999847412109375</ele>
        <time>2022-01-07T09:43:48.000Z</time>
      </trkpt>
      <trkpt lat="41.46632499061524868011474609375" lon="2.14633273892104625701904296875">
        <ele>102.40000152587890625</ele>
        <time>2022-01-07T09:43:49.000Z</time>
      </trkpt>
      <trkpt lat="41.46633538417518138885498046875" lon="2.14634279720485210418701171875">
        <ele>102.1999969482421875</ele>
        <time>2022-01-07T09:43:50.000Z</time>
      </trkpt>
      <trkpt lat="41.46633538417518138885498046875" lon="2.14634279720485210418701171875">
        <ele>101.8000030517578125</ele>
        <time>2022-01-07T09:43:51.000Z</time>
      </trkpt>
      <trkpt lat="41.46633538417518138885498046875" lon="2.14634279720485210418701171875">
        <ele>101.59999847412109375</ele>
        <time>2022-01-07T09:43:52.000Z</time>
      </trkpt>
      <trkpt lat="41.46636907942593097686767578125" lon="2.14638789184391498565673828125">
        <ele>100.59999847412109375</ele>
        <time>2022-01-07T09:43:57.000Z</time>
      </trkpt>
      <trkpt lat="41.4663865976035594940185546875" lon="2.14640867896378040313720703125">
        <ele>100.59999847412109375</ele>
        <time>2022-01-07T09:43:58.000Z</time>
      </trkpt>
      <trkpt lat="41.4664060436189174652099609375" lon="2.146428041160106658935546875">
        <ele>100.59999847412109375</ele>
        <time>2022-01-07T09:43:59.000Z</time>
      </trkpt>
      <trkpt lat="41.46643328480422496795654296875" lon="2.146446146070957183837890625">
        <ele>100.59999847412109375</ele>
        <time>2022-01-07T09:44:00.000Z</time>
      </trkpt>
      <trkpt lat="41.4664660580456256866455078125" lon="2.1464667655527591705322265625">
        <ele>100.40000152587890625</ele>
        <time>2022-01-07T09:44:01.000Z</time>
      </trkpt>
      <trkpt lat="41.4664995856583118438720703125" lon="2.14648596011102199554443359375">
        <ele>100.1999969482421875</ele>
        <time>2022-01-07T09:44:02.000Z</time>
      </trkpt>
      <trkpt lat="41.46653654985129833221435546875" lon="2.146510183811187744140625">
        <ele>100.1999969482421875</ele>
        <time>2022-01-07T09:44:03.000Z</time>
      </trkpt>
      <trkpt lat="41.466576866805553436279296875" lon="2.14653306640684604644775390625">
        <ele>100.1999969482421875</ele>
        <time>2022-01-07T09:44:04.000Z</time>
      </trkpt>
      <trkpt lat="41.4666201174259185791015625" lon="2.1465606428682804107666015625">
        <ele>100.1999969482421875</ele>
        <time>2022-01-07T09:44:05.000Z</time>
      </trkpt>
      <trkpt lat="41.46666630171239376068115234375" lon="2.1465884707868099212646484375">
        <ele>100</ele>
        <time>2022-01-07T09:44:06.000Z</time>
      </trkpt>
      <trkpt lat="41.4667185209691524505615234375" lon="2.146618478000164031982421875">
        <ele>100</ele>
        <time>2022-01-07T09:44:07.000Z</time>
      </trkpt>
      <trkpt lat="41.46677099168300628662109375" lon="2.14665745384991168975830078125">
        <ele>99.59999847412109375</ele>
        <time>2022-01-07T09:44:08.000Z</time>
      </trkpt>
      <trkpt lat="41.4668083749711513519287109375" lon="2.146701626479625701904296875">
        <ele>99.40000152587890625</ele>
        <time>2022-01-07T09:44:09.000Z</time>
      </trkpt>
      <trkpt lat="41.46686679683625698089599609375" lon="2.146766670048236846923828125">
        <ele>99</ele>
        <time>2022-01-07T09:44:10.000Z</time>
      </trkpt>
      <trkpt lat="41.46692329086363315582275390625" lon="2.14681260287761688232421875">
        <ele>98.8000030517578125</ele>
        <time>2022-01-07T09:44:11.000Z</time>
      </trkpt>
      <trkpt lat="41.46697710268199443817138671875" lon="2.14685006998479366302490234375">
        <ele>98.1999969482421875</ele>
        <time>2022-01-07T09:44:12.000Z</time>
      </trkpt>
      <trkpt lat="41.4670353569090366363525390625" lon="2.14688695035874843597412109375">
        <ele>97.8000030517578125</ele>
        <time>2022-01-07T09:44:13.000Z</time>
      </trkpt>
      <trkpt lat="41.46709495224058628082275390625" lon="2.1469203941524028778076171875">
        <ele>97.1999969482421875</ele>
        <time>2022-01-07T09:44:14.000Z</time>
      </trkpt>
      <trkpt lat="41.46715094335377216339111328125" lon="2.1469495631754398345947265625">
        <ele>96.8000030517578125</ele>
        <time>2022-01-07T09:44:15.000Z</time>
      </trkpt>
      <trkpt lat="41.46719855256378650665283203125" lon="2.1469701826572418212890625">
        <ele>96.1999969482421875</ele>
        <time>2022-01-07T09:44:16.000Z</time>
      </trkpt>
      <trkpt lat="41.46724440157413482666015625" lon="2.1469887904822826385498046875">
        <ele>95.40000152587890625</ele>
        <time>2022-01-07T09:44:17.000Z</time>
      </trkpt>
      <trkpt lat="41.4672837965190410614013671875" lon="2.1470129303634166717529296875">
        <ele>94.40000152587890625</ele>
        <time>2022-01-07T09:44:18.000Z</time>
      </trkpt>
      <trkpt lat="41.46731858141720294952392578125" lon="2.14704327285289764404296875">
        <ele>93.8000030517578125</ele>
        <time>2022-01-07T09:44:19.000Z</time>
      </trkpt>
      <trkpt lat="41.46735060028731822967529296875" lon="2.14708174578845500946044921875">
        <ele>92.59999847412109375</ele>
        <time>2022-01-07T09:44:20.000Z</time>
      </trkpt>
      <trkpt lat="41.46738127805292606353759765625" lon="2.14712918736040592193603515625">
        <ele>91.40000152587890625</ele>
        <time>2022-01-07T09:44:21.000Z</time>
      </trkpt>
      <trkpt lat="41.467415392398834228515625" lon="2.14717797003686428070068359375">
        <ele>90</ele>
        <time>2022-01-07T09:44:22.000Z</time>
      </trkpt>
      <trkpt lat="41.467450596392154693603515625" lon="2.14722490869462490081787109375">
        <ele>88.8000030517578125</ele>
        <time>2022-01-07T09:44:23.000Z</time>
      </trkpt>
      <trkpt lat="41.4674893207848072052001953125" lon="2.147270254790782928466796875">
        <ele>88</ele>
        <time>2022-01-07T09:44:24.000Z</time>
      </trkpt>
      <trkpt lat="41.4675251953303813934326171875" lon="2.14731752872467041015625">
        <ele>87</ele>
        <time>2022-01-07T09:44:25.000Z</time>
      </trkpt>
      <trkpt lat="41.46755914203822612762451171875" lon="2.1473644673824310302734375">
        <ele>86.40000152587890625</ele>
        <time>2022-01-07T09:44:26.000Z</time>
      </trkpt>
      <trkpt lat="41.467585377395153045654296875" lon="2.14740294031798839569091796875">
        <ele>85.8000030517578125</ele>
        <time>2022-01-07T09:44:27.000Z</time>
      </trkpt>
      <trkpt lat="41.46762217395007610321044921875" lon="2.1474568359553813934326171875">
        <ele>85.40000152587890625</ele>
        <time>2022-01-07T09:44:28.000Z</time>
      </trkpt>
      <trkpt lat="41.46765285171568393707275390625" lon="2.14749111793935298919677734375">
        <ele>85.1999969482421875</ele>
        <time>2022-01-07T09:44:29.000Z</time>
      </trkpt>
      <trkpt lat="41.46768403239548206329345703125" lon="2.14751643128693103790283203125">
        <ele>85.1999969482421875</ele>
        <time>2022-01-07T09:44:30.000Z</time>
      </trkpt>
      <trkpt lat="41.46772007457911968231201171875" lon="2.14752917177975177764892578125">
        <ele>85</ele>
        <time>2022-01-07T09:44:31.000Z</time>
      </trkpt>
      <trkpt lat="41.46775796078145503997802734375" lon="2.1475299261510372161865234375">
        <ele>84.8000030517578125</ele>
        <time>2022-01-07T09:44:32.000Z</time>
      </trkpt>
      <trkpt lat="41.46779869683086872100830078125" lon="2.14752196334302425384521484375">
        <ele>84.8000030517578125</ele>
        <time>2022-01-07T09:44:33.000Z</time>
      </trkpt>
      <trkpt lat="41.4678447134792804718017578125" lon="2.147502601146697998046875">
        <ele>84.59999847412109375</ele>
        <time>2022-01-07T09:44:34.000Z</time>
      </trkpt>
      <trkpt lat="41.4678939990699291229248046875" lon="2.14748583734035491943359375">
        <ele>84.59999847412109375</ele>
        <time>2022-01-07T09:44:35.000Z</time>
      </trkpt>
      <trkpt lat="41.4679476432502269744873046875" lon="2.14746840298175811767578125">
        <ele>84.40000152587890625</ele>
        <time>2022-01-07T09:44:36.000Z</time>
      </trkpt>
      <trkpt lat="41.4680046401917934417724609375" lon="2.14744971133768558502197265625">
        <ele>84.40000152587890625</ele>
        <time>2022-01-07T09:44:37.000Z</time>
      </trkpt>
      <trkpt lat="41.46806205622851848602294921875" lon="2.14741869829595088958740234375">
        <ele>84.1999969482421875</ele>
        <time>2022-01-07T09:44:38.000Z</time>
      </trkpt>
      <trkpt lat="41.46812072955071926116943359375" lon="2.14739908464252948760986328125">
        <ele>84.1999969482421875</ele>
        <time>2022-01-07T09:44:39.000Z</time>
      </trkpt>
      <trkpt lat="41.4681806601583957672119140625" lon="2.1473767049610614776611328125">
        <ele>84</ele>
        <time>2022-01-07T09:44:40.000Z</time>
      </trkpt>
      <trkpt lat="41.46823883056640625" lon="2.14733705855906009674072265625">
        <ele>84</ele>
        <time>2022-01-07T09:44:41.000Z</time>
      </trkpt>
      <trkpt lat="41.4682936482131481170654296875" lon="2.14730336330831050872802734375">
        <ele>83.8000030517578125</ele>
        <time>2022-01-07T09:44:42.000Z</time>
      </trkpt>
      <trkpt lat="41.4683419279754161834716796875" lon="2.14726924896240234375">
        <ele>83.40000152587890625</ele>
        <time>2022-01-07T09:44:43.000Z</time>
      </trkpt>
      <trkpt lat="41.46838928572833538055419921875" lon="2.1472330391407012939453125">
        <ele>83</ele>
        <time>2022-01-07T09:44:44.000Z</time>
      </trkpt>
      <trkpt lat="41.46842918358743190765380859375" lon="2.14720018208026885986328125">
        <ele>82.59999847412109375</ele>
        <time>2022-01-07T09:44:45.000Z</time>
      </trkpt>
      <trkpt lat="41.468455083668231964111328125" lon="2.14718115516006946563720703125">
        <ele>82.40000152587890625</ele>
        <time>2022-01-07T09:44:46.000Z</time>
      </trkpt>
      <trkpt lat="41.4684793911874294281005859375" lon="2.1471607871353626251220703125">
        <ele>82.40000152587890625</ele>
        <time>2022-01-07T09:44:47.000Z</time>
      </trkpt>
      <trkpt lat="41.46849053911864757537841796875" lon="2.14715383015573024749755859375">
        <ele>82.40000152587890625</ele>
        <time>2022-01-07T09:44:48.000Z</time>
      </trkpt>
      <trkpt lat="41.46849674172699451446533203125" lon="2.1471498906612396240234375">
        <ele>82.1999969482421875</ele>
        <time>2022-01-07T09:44:49.000Z</time>
      </trkpt>
      <trkpt lat="41.4685018546879291534423828125" lon="2.1471369825303554534912109375">
        <ele>82.1999969482421875</ele>
        <time>2022-01-07T09:44:50.000Z</time>
      </trkpt>
      <trkpt lat="41.4685030281543731689453125" lon="2.14713471941649913787841796875">
        <ele>82.1999969482421875</ele>
        <time>2022-01-07T09:44:51.000Z</time>
      </trkpt>
      <trkpt lat="41.4685030281543731689453125" lon="2.14713471941649913787841796875">
        <ele>82.1999969482421875</ele>
        <time>2022-01-07T09:44:52.000Z</time>
      </trkpt>
      <trkpt lat="41.46838023327291011810302734375" lon="2.14707604609429836273193359375">
        <ele>82.59999847412109375</ele>
        <time>2022-01-07T09:45:52.000Z</time>
      </trkpt>
      <trkpt lat="41.4683623798191547393798828125" lon="2.1470883674919605255126953125">
        <ele>82.59999847412109375</ele>
        <time>2022-01-07T09:45:53.000Z</time>
      </trkpt>
      <trkpt lat="41.4683449454605579376220703125" lon="2.147100605070590972900390625">
        <ele>82.59999847412109375</ele>
        <time>2022-01-07T09:45:54.000Z</time>
      </trkpt>
      <trkpt lat="41.468329019844532012939453125" lon="2.1471148543059825897216796875">
        <ele>82.59999847412109375</ele>
        <time>2022-01-07T09:45:55.000Z</time>
      </trkpt>
      <trkpt lat="41.46831602789461612701416015625" lon="2.14713036082684993743896484375">
        <ele>82.8000030517578125</ele>
        <time>2022-01-07T09:45:56.000Z</time>
      </trkpt>
      <trkpt lat="41.46829624660313129425048828125" lon="2.147143185138702392578125">
        <ele>82.8000030517578125</ele>
        <time>2022-01-07T09:45:57.000Z</time>
      </trkpt>
      <trkpt lat="41.46827713586390018463134765625" lon="2.1471537463366985321044921875">
        <ele>82.8000030517578125</ele>
        <time>2022-01-07T09:45:58.000Z</time>
      </trkpt>
      <trkpt lat="41.4682584442198276519775390625" lon="2.1471654810011386871337890625">
        <ele>82.8000030517578125</ele>
        <time>2022-01-07T09:45:59.000Z</time>
      </trkpt>
      <trkpt lat="41.46823950111865997314453125" lon="2.14717604219913482666015625">
        <ele>82.8000030517578125</ele>
        <time>2022-01-07T09:46:00.000Z</time>
      </trkpt>
      <trkpt lat="41.4682202227413654327392578125" lon="2.14718216098845005035400390625">
        <ele>82.59999847412109375</ele>
        <time>2022-01-07T09:46:01.000Z</time>
      </trkpt>
      <trkpt lat="41.468200273811817169189453125" lon="2.14718735776841640472412109375">
        <ele>82.8000030517578125</ele>
        <time>2022-01-07T09:46:02.000Z</time>
      </trkpt>
      <trkpt lat="41.46818107925355434417724609375" lon="2.14718970470130443572998046875">
        <ele>83</ele>
        <time>2022-01-07T09:46:03.000Z</time>
      </trkpt>
      <trkpt lat="41.46816305816173553466796875" lon="2.14718819595873355865478515625">
        <ele>83</ele>
        <time>2022-01-07T09:46:04.000Z</time>
      </trkpt>
      <trkpt lat="41.46814570762217044830322265625" lon="2.14718735776841640472412109375">
        <ele>83.1999969482421875</ele>
        <time>2022-01-07T09:46:05.000Z</time>
      </trkpt>
      <trkpt lat="41.468129865825176239013671875" lon="2.14718685485422611236572265625">
        <ele>83.40000152587890625</ele>
        <time>2022-01-07T09:46:06.000Z</time>
      </trkpt>
      <trkpt lat="41.46811544895172119140625" lon="2.1471855975687503814697265625">
        <ele>83.59999847412109375</ele>
        <time>2022-01-07T09:46:07.000Z</time>
      </trkpt>
      <trkpt lat="41.468102373182773590087890625" lon="2.1471835859119892120361328125">
        <ele>84</ele>
        <time>2022-01-07T09:46:08.000Z</time>
      </trkpt>
      <trkpt lat="41.46809273399412631988525390625" lon="2.14718341827392578125">
        <ele>84.1999969482421875</ele>
        <time>2022-01-07T09:46:09.000Z</time>
      </trkpt>
      <trkpt lat="41.4680847711861133575439453125" lon="2.14718786068260669708251953125">
        <ele>84.40000152587890625</ele>
        <time>2022-01-07T09:46:10.000Z</time>
      </trkpt>
      <trkpt lat="41.468080915510654449462890625" lon="2.14719020761549472808837890625">
        <ele>84.59999847412109375</ele>
        <time>2022-01-07T09:46:11.000Z</time>
      </trkpt>
      <trkpt lat="41.468080915510654449462890625" lon="2.14719020761549472808837890625">
        <ele>85</ele>
        <time>2022-01-07T09:46:12.000Z</time>
      </trkpt>
      <trkpt lat="41.468080915510654449462890625" lon="2.14719020761549472808837890625">
        <ele>85.1999969482421875</ele>
        <time>2022-01-07T09:46:13.000Z</time>
      </trkpt>
      <trkpt lat="41.468080915510654449462890625" lon="2.14719020761549472808837890625">
        <ele>85.40000152587890625</ele>
        <time>2022-01-07T09:46:14.000Z</time>
      </trkpt>
      <trkpt lat="41.468080915510654449462890625" lon="2.14719020761549472808837890625">
        <ele>85.59999847412109375</ele>
        <time>2022-01-07T09:46:15.000Z</time>
      </trkpt>
      <trkpt lat="41.468080915510654449462890625" lon="2.14719020761549472808837890625">
        <ele>86</ele>
        <time>2022-01-07T09:46:16.000Z</time>
      </trkpt>
      <trkpt lat="41.4680267684161663055419921875" lon="2.14716070331633090972900390625">
        <ele>85.8000030517578125</ele>
        <time>2022-01-07T09:51:56.000Z</time>
      </trkpt>
      <trkpt lat="41.46800455637276172637939453125" lon="2.1471527405083179473876953125">
        <ele>85.8000030517578125</ele>
        <time>2022-01-07T09:51:57.000Z</time>
      </trkpt>
      <trkpt lat="41.46798125468194484710693359375" lon="2.147141508758068084716796875">
        <ele>85.8000030517578125</ele>
        <time>2022-01-07T09:51:58.000Z</time>
      </trkpt>
      <trkpt lat="41.467964909970760345458984375" lon="2.14713044464588165283203125">
        <ele>85.8000030517578125</ele>
        <time>2022-01-07T09:51:59.000Z</time>
      </trkpt>
      <trkpt lat="41.46794521249830722808837890625" lon="2.14711409993469715118408203125">
        <ele>85.8000030517578125</ele>
        <time>2022-01-07T09:52:00.000Z</time>
      </trkpt>
      <trkpt lat="41.46792710758745670318603515625" lon="2.1470913849771022796630859375">
        <ele>85.8000030517578125</ele>
        <time>2022-01-07T09:52:01.000Z</time>
      </trkpt>
      <trkpt lat="41.46791051141917705535888671875" lon="2.14706850238144397735595703125">
        <ele>85.8000030517578125</ele>
        <time>2022-01-07T09:52:02.000Z</time>
      </trkpt>
      <trkpt lat="41.46789827384054660797119140625" lon="2.14704453013837337493896484375">
        <ele>86</ele>
        <time>2022-01-07T09:52:03.000Z</time>
      </trkpt>
      <trkpt lat="41.46788234822452068328857421875" lon="2.1470179595053195953369140625">
        <ele>86</ele>
        <time>2022-01-07T09:52:04.000Z</time>
      </trkpt>
      <trkpt lat="41.467871367931365966796875" lon="2.146997340023517608642578125">
        <ele>86.1999969482421875</ele>
        <time>2022-01-07T09:52:05.000Z</time>
      </trkpt>
      <trkpt lat="41.46785519085824489593505859375" lon="2.146968506276607513427734375">
        <ele>86.40000152587890625</ele>
        <time>2022-01-07T09:52:06.000Z</time>
      </trkpt>
      <trkpt lat="41.46783725358545780181884765625" lon="2.14694310910999774932861328125">
        <ele>86.59999847412109375</ele>
        <time>2022-01-07T09:52:07.000Z</time>
      </trkpt>
      <trkpt lat="41.4678209088742733001708984375" lon="2.14691452682018280029296875">
        <ele>87</ele>
        <time>2022-01-07T09:52:08.000Z</time>
      </trkpt>
      <trkpt lat="41.46781110204756259918212890625" lon="2.1468821726739406585693359375">
        <ele>87</ele>
        <time>2022-01-07T09:52:09.000Z</time>
      </trkpt>
      <trkpt lat="41.46780841983854770660400390625" lon="2.14685258455574512481689453125">
        <ele>87.40000152587890625</ele>
        <time>2022-01-07T09:52:10.000Z</time>
      </trkpt>
      <trkpt lat="41.46781093440949916839599609375" lon="2.14682240970432758331298828125">
        <ele>87.8000030517578125</ele>
        <time>2022-01-07T09:52:11.000Z</time>
      </trkpt>
      <trkpt lat="41.46781277842819690704345703125" lon="2.14680279605090618133544921875">
        <ele>88.1999969482421875</ele>
        <time>2022-01-07T09:52:12.000Z</time>
      </trkpt>
      <trkpt lat="41.4678118564188480377197265625" lon="2.146767675876617431640625">
        <ele>88.59999847412109375</ele>
        <time>2022-01-07T09:52:13.000Z</time>
      </trkpt>
      <trkpt lat="41.46780774928629398345947265625" lon="2.14673750102519989013671875">
        <ele>89</ele>
        <time>2022-01-07T09:52:14.000Z</time>
      </trkpt>
      <trkpt lat="41.46780674345791339874267578125" lon="2.1467111818492412567138671875">
        <ele>89.8000030517578125</ele>
        <time>2022-01-07T09:52:15.000Z</time>
      </trkpt>
      <trkpt lat="41.46779517643153667449951171875" lon="2.1466870419681072235107421875">
        <ele>90.40000152587890625</ele>
        <time>2022-01-07T09:52:16.000Z</time>
      </trkpt>
      <trkpt lat="41.4677846990525722503662109375" lon="2.14665762148797512054443359375">
        <ele>90.8000030517578125</ele>
        <time>2022-01-07T09:52:17.000Z</time>
      </trkpt>
      <trkpt lat="41.46777941845357418060302734375" lon="2.1466402709484100341796875">
        <ele>91.40000152587890625</ele>
        <time>2022-01-07T09:52:18.000Z</time>
      </trkpt>
      <trkpt lat="41.46777153946459293365478515625" lon="2.14662224985659122467041015625">
        <ele>92</ele>
        <time>2022-01-07T09:52:19.000Z</time>
      </trkpt>
      <trkpt lat="41.467764414846897125244140625" lon="2.1466065756976604461669921875">
        <ele>92.40000152587890625</ele>
        <time>2022-01-07T09:52:20.000Z</time>
      </trkpt>
      <trkpt lat="41.467753015458583831787109375" lon="2.1465914882719516754150390625">
        <ele>92.8000030517578125</ele>
        <time>2022-01-07T09:52:21.000Z</time>
      </trkpt>
      <trkpt lat="41.46774035878479480743408203125" lon="2.1465780772268772125244140625">
        <ele>93.1999969482421875</ele>
        <time>2022-01-07T09:52:22.000Z</time>
      </trkpt>
      <trkpt lat="41.46772183477878570556640625" lon="2.14655905030667781829833984375">
        <ele>93.8000030517578125</ele>
        <time>2022-01-07T09:52:23.000Z</time>
      </trkpt>
      <trkpt lat="41.4677012152969837188720703125" lon="2.146531976759433746337890625">
        <ele>94.40000152587890625</ele>
        <time>2022-01-07T09:52:24.000Z</time>
      </trkpt>
      <trkpt lat="41.46768755279481410980224609375" lon="2.14650825597345829010009765625">
        <ele>94.8000030517578125</ele>
        <time>2022-01-07T09:52:25.000Z</time>
      </trkpt>
      <trkpt lat="41.467678584158420562744140625" lon="2.14648847468197345733642578125">
        <ele>95.40000152587890625</ele>
        <time>2022-01-07T09:52:26.000Z</time>
      </trkpt>
      <trkpt lat="41.46766844205558300018310546875" lon="2.14646483771502971649169921875">
        <ele>96</ele>
        <time>2022-01-07T09:52:27.000Z</time>
      </trkpt>
      <trkpt lat="41.46765134297311305999755859375" lon="2.146440781652927398681640625">
        <ele>96.40000152587890625</ele>
        <time>2022-01-07T09:52:28.000Z</time>
      </trkpt>
      <trkpt lat="41.46763843484222888946533203125" lon="2.14642376638948917388916015625">
        <ele>96.59999847412109375</ele>
        <time>2022-01-07T09:52:29.000Z</time>
      </trkpt>
      <trkpt lat="41.46762200631201267242431640625" lon="2.14640348218381404876708984375">
        <ele>97</ele>
        <time>2022-01-07T09:52:30.000Z</time>
      </trkpt>
      <trkpt lat="41.46761186420917510986328125" lon="2.14638638310134410858154296875">
        <ele>97</ele>
        <time>2022-01-07T09:52:31.000Z</time>
      </trkpt>
      <trkpt lat="41.46760390140116214752197265625" lon="2.1463665179908275604248046875">
        <ele>97</ele>
        <time>2022-01-07T09:52:32.000Z</time>
      </trkpt>
      <trkpt lat="41.46759669296443462371826171875" lon="2.14634053409099578857421875">
        <ele>97.1999969482421875</ele>
        <time>2022-01-07T09:52:33.000Z</time>
      </trkpt>
      <trkpt lat="41.467590071260929107666015625" lon="2.14632511138916015625">
        <ele>97.59999847412109375</ele>
        <time>2022-01-07T09:52:34.000Z</time>
      </trkpt>
      <trkpt lat="41.4675828628242015838623046875" lon="2.14630843140184879302978515625">
        <ele>98</ele>
        <time>2022-01-07T09:52:35.000Z</time>
      </trkpt>
      <trkpt lat="41.4675791747868061065673828125" lon="2.14629434980452060699462890625">
        <ele>98.1999969482421875</ele>
        <time>2022-01-07T09:52:36.000Z</time>
      </trkpt>
      <trkpt lat="41.4675734750926494598388671875" lon="2.14627775363624095916748046875">
        <ele>98.59999847412109375</ele>
        <time>2022-01-07T09:52:37.000Z</time>
      </trkpt>
      <trkpt lat="41.46756601519882678985595703125" lon="2.14625830762088298797607421875">
        <ele>99</ele>
        <time>2022-01-07T09:52:38.000Z</time>
      </trkpt>
      <trkpt lat="41.4675543643534183502197265625" lon="2.1462354250252246856689453125">
        <ele>99.1999969482421875</ele>
        <time>2022-01-07T09:52:39.000Z</time>
      </trkpt>
      <trkpt lat="41.46754480898380279541015625" lon="2.146217823028564453125">
        <ele>99.59999847412109375</ele>
        <time>2022-01-07T09:52:40.000Z</time>
      </trkpt>
      <trkpt lat="41.4675295539200305938720703125" lon="2.14619443751871585845947265625">
        <ele>99.8000030517578125</ele>
        <time>2022-01-07T09:52:41.000Z</time>
      </trkpt>
      <trkpt lat="41.4675101079046726226806640625" lon="2.14616660960018634796142578125">
        <ele>100.1999969482421875</ele>
        <time>2022-01-07T09:52:42.000Z</time>
      </trkpt>
      <trkpt lat="41.4674980379641056060791015625" lon="2.1461435593664646148681640625">
        <ele>100.40000152587890625</ele>
        <time>2022-01-07T09:52:43.000Z</time>
      </trkpt>
      <trkpt lat="41.4674782566726207733154296875" lon="2.14611346833407878875732421875">
        <ele>100.8000030517578125</ele>
        <time>2022-01-07T09:52:44.000Z</time>
      </trkpt>
      <trkpt lat="41.467461995780467987060546875" lon="2.14608346112072467803955078125">
        <ele>101</ele>
        <time>2022-01-07T09:52:45.000Z</time>
      </trkpt>
      <trkpt lat="41.467444896697998046875" lon="2.14605328626930713653564453125">
        <ele>101</ele>
        <time>2022-01-07T09:52:46.000Z</time>
      </trkpt>
      <trkpt lat="41.46742737852036952972412109375" lon="2.14602260850369930267333984375">
        <ele>101.1999969482421875</ele>
        <time>2022-01-07T09:52:47.000Z</time>
      </trkpt>
      <trkpt lat="41.4674058370292186737060546875" lon="2.14598036371171474456787109375">
        <ele>101.1999969482421875</ele>
        <time>2022-01-07T09:52:48.000Z</time>
      </trkpt>
      <trkpt lat="41.46738982759416103363037109375" lon="2.14594230987131595611572265625">
        <ele>101.1999969482421875</ele>
        <time>2022-01-07T09:52:49.000Z</time>
      </trkpt>
      <trkpt lat="41.46737717092037200927734375" lon="2.145913727581501007080078125">
        <ele>101.1999969482421875</ele>
        <time>2022-01-07T09:52:50.000Z</time>
      </trkpt>
      <trkpt lat="41.4673604071140289306640625" lon="2.145874835550785064697265625">
        <ele>101.1999969482421875</ele>
        <time>2022-01-07T09:52:51.000Z</time>
      </trkpt>
      <trkpt lat="41.46734104491770267486572265625" lon="2.145827896893024444580078125">
        <ele>101.1999969482421875</ele>
        <time>2022-01-07T09:52:52.000Z</time>
      </trkpt>
      <trkpt lat="41.4673236943781375885009765625" lon="2.14579110033810138702392578125">
        <ele>101.40000152587890625</ele>
        <time>2022-01-07T09:52:53.000Z</time>
      </trkpt>
      <trkpt lat="41.4673072658479213714599609375" lon="2.1457492746412754058837890625">
        <ele>101.40000152587890625</ele>
        <time>2022-01-07T09:52:54.000Z</time>
      </trkpt>
      <trkpt lat="41.46729142405092716217041015625" lon="2.14571465738117694854736328125">
        <ele>101.40000152587890625</ele>
        <time>2022-01-07T09:52:55.000Z</time>
      </trkpt>
      <trkpt lat="41.46726988255977630615234375" lon="2.1456666290760040283203125">
        <ele>101.1999969482421875</ele>
        <time>2022-01-07T09:52:56.000Z</time>
      </trkpt>
      <trkpt lat="41.46725504659116268157958984375" lon="2.14563486166298389434814453125">
        <ele>101.40000152587890625</ele>
        <time>2022-01-07T09:52:57.000Z</time>
      </trkpt>
      <trkpt lat="41.46722696721553802490234375" lon="2.145583815872669219970703125">
        <ele>101.8000030517578125</ele>
        <time>2022-01-07T09:52:58.000Z</time>
      </trkpt>
      <trkpt lat="41.46720693446695804595947265625" lon="2.145550958812236785888671875">
        <ele>102</ele>
        <time>2022-01-07T09:52:59.000Z</time>
      </trkpt>
      <trkpt lat="41.46718480624258518218994140625" lon="2.145512066781520843505859375">
        <ele>102.40000152587890625</ele>
        <time>2022-01-07T09:53:00.000Z</time>
      </trkpt>
      <trkpt lat="41.46716301329433917999267578125" lon="2.14547275565564632415771484375">
        <ele>102.40000152587890625</ele>
        <time>2022-01-07T09:53:01.000Z</time>
      </trkpt>
      <trkpt lat="41.4671399630606174468994140625" lon="2.1454359591007232666015625">
        <ele>102.8000030517578125</ele>
        <time>2022-01-07T09:53:02.000Z</time>
      </trkpt>
      <trkpt lat="41.46712177433073520660400390625" lon="2.145397402346134185791015625">
        <ele>103</ele>
        <time>2022-01-07T09:53:03.000Z</time>
      </trkpt>
      <trkpt lat="41.46710693836212158203125" lon="2.14535725302994251251220703125">
        <ele>103.1999969482421875</ele>
        <time>2022-01-07T09:53:04.000Z</time>
      </trkpt>
      <trkpt lat="41.4670906774699687957763671875" lon="2.14531903155148029327392578125">
        <ele>103.59999847412109375</ele>
        <time>2022-01-07T09:53:05.000Z</time>
      </trkpt>
      <trkpt lat="41.467072404921054840087890625" lon="2.1452812291681766510009765625">
        <ele>103.59999847412109375</ele>
        <time>2022-01-07T09:53:06.000Z</time>
      </trkpt>
      <trkpt lat="41.4670568145811557769775390625" lon="2.14524325914680957794189453125">
        <ele>104</ele>
        <time>2022-01-07T09:53:07.000Z</time>
      </trkpt>
      <trkpt lat="41.467039883136749267578125" lon="2.145201601088047027587890625">
        <ele>104</ele>
        <time>2022-01-07T09:53:08.000Z</time>
      </trkpt>
      <trkpt lat="41.4670169167220592498779296875" lon="2.14515902101993560791015625">
        <ele>104.40000152587890625</ele>
        <time>2022-01-07T09:53:09.000Z</time>
      </trkpt>
      <trkpt lat="41.467002332210540771484375" lon="2.1451169438660144805908203125">
        <ele>104.59999847412109375</ele>
        <time>2022-01-07T09:53:10.000Z</time>
      </trkpt>
      <trkpt lat="41.4669931121170520782470703125" lon="2.14507863856852054595947265625">
        <ele>104.8000030517578125</ele>
        <time>2022-01-07T09:53:11.000Z</time>
      </trkpt>
      <trkpt lat="41.4669837243854999542236328125" lon="2.1450277604162693023681640625">
        <ele>105</ele>
        <time>2022-01-07T09:53:12.000Z</time>
      </trkpt>
      <trkpt lat="41.4669763483107089996337890625" lon="2.1449855156242847442626953125">
        <ele>105</ele>
        <time>2022-01-07T09:53:13.000Z</time>
      </trkpt>
      <trkpt lat="41.46696888841688632965087890625" lon="2.144943773746490478515625">
        <ele>105.1999969482421875</ele>
        <time>2022-01-07T09:53:14.000Z</time>
      </trkpt>
      <trkpt lat="41.46696603856980800628662109375" lon="2.1449127607047557830810546875">
        <ele>105.59999847412109375</ele>
        <time>2022-01-07T09:53:15.000Z</time>
      </trkpt>
      <trkpt lat="41.4669609256088733673095703125" lon="2.14487059973180294036865234375">
        <ele>105.8000030517578125</ele>
        <time>2022-01-07T09:53:16.000Z</time>
      </trkpt>
      <trkpt lat="41.46695606410503387451171875" lon="2.144824080169200897216796875">
        <ele>105.8000030517578125</ele>
        <time>2022-01-07T09:53:17.000Z</time>
      </trkpt>
      <trkpt lat="41.46695472300052642822265625" lon="2.14477680623531341552734375">
        <ele>106.1999969482421875</ele>
        <time>2022-01-07T09:53:18.000Z</time>
      </trkpt>
      <trkpt lat="41.4669473469257354736328125" lon="2.1447293646633625030517578125">
        <ele>106.40000152587890625</ele>
        <time>2022-01-07T09:53:19.000Z</time>
      </trkpt>
      <trkpt lat="41.46694374270737171173095703125" lon="2.14468686841428279876708984375">
        <ele>106.8000030517578125</ele>
        <time>2022-01-07T09:53:20.000Z</time>
      </trkpt>
      <trkpt lat="41.46693997085094451904296875" lon="2.14464395307004451751708984375">
        <ele>107</ele>
        <time>2022-01-07T09:53:21.000Z</time>
      </trkpt>
      <trkpt lat="41.46693418733775615692138671875" lon="2.144601456820964813232421875">
        <ele>107.40000152587890625</ele>
        <time>2022-01-07T09:53:22.000Z</time>
      </trkpt>
      <trkpt lat="41.46693150512874126434326171875" lon="2.14456331916153430938720703125">
        <ele>107.59999847412109375</ele>
        <time>2022-01-07T09:53:23.000Z</time>
      </trkpt>
      <trkpt lat="41.46692899055778980255126953125" lon="2.14452694170176982879638671875">
        <ele>107.8000030517578125</ele>
        <time>2022-01-07T09:53:24.000Z</time>
      </trkpt>
      <trkpt lat="41.466928236186504364013671875" lon="2.1444883011281490325927734375">
        <ele>107.8000030517578125</ele>
        <time>2022-01-07T09:53:25.000Z</time>
      </trkpt>
      <trkpt lat="41.46692832000553607940673828125" lon="2.14445234276354312896728515625">
        <ele>108</ele>
        <time>2022-01-07T09:53:26.000Z</time>
      </trkpt>
      <trkpt lat="41.46692815236747264862060546875" lon="2.144416384398937225341796875">
        <ele>108</ele>
        <time>2022-01-07T09:53:27.000Z</time>
      </trkpt>
      <trkpt lat="41.466928906738758087158203125" lon="2.14437179267406463623046875">
        <ele>108.40000152587890625</ele>
        <time>2022-01-07T09:53:28.000Z</time>
      </trkpt>
      <trkpt lat="41.4669307507574558258056640625" lon="2.14434153400361537933349609375">
        <ele>108.8000030517578125</ele>
        <time>2022-01-07T09:53:29.000Z</time>
      </trkpt>
      <trkpt lat="41.466938294470310211181640625" lon="2.1443052403628826141357421875">
        <ele>109.40000152587890625</ele>
        <time>2022-01-07T09:53:30.000Z</time>
      </trkpt>
      <trkpt lat="41.4669532142579555511474609375" lon="2.14427967555820941925048828125">
        <ele>109.8000030517578125</ele>
        <time>2022-01-07T09:53:31.000Z</time>
      </trkpt>
      <trkpt lat="41.46697693504393100738525390625" lon="2.144264839589595794677734375">
        <ele>109.8000030517578125</ele>
        <time>2022-01-07T09:53:32.000Z</time>
      </trkpt>
      <trkpt lat="41.46700057201087474822998046875" lon="2.1442673541605472564697265625">
        <ele>110.40000152587890625</ele>
        <time>2022-01-07T09:53:33.000Z</time>
      </trkpt>
      <trkpt lat="41.46702454425394535064697265625" lon="2.1442759037017822265625">
        <ele>110.8000030517578125</ele>
        <time>2022-01-07T09:53:34.000Z</time>
      </trkpt>
      <trkpt lat="41.46704365499317646026611328125" lon="2.1442787535488605499267578125">
        <ele>111.1999969482421875</ele>
        <time>2022-01-07T09:53:35.000Z</time>
      </trkpt>
      <trkpt lat="41.46706737577915191650390625" lon="2.1442790888249874114990234375">
        <ele>111.59999847412109375</ele>
        <time>2022-01-07T09:53:36.000Z</time>
      </trkpt>
      <trkpt lat="41.46709629334509372711181640625" lon="2.14427523314952850341796875">
        <ele>112</ele>
        <time>2022-01-07T09:53:37.000Z</time>
      </trkpt>
      <trkpt lat="41.46712143905460834503173828125" lon="2.14427112601697444915771484375">
        <ele>112.59999847412109375</ele>
        <time>2022-01-07T09:53:38.000Z</time>
      </trkpt>
      <trkpt lat="41.46714323200285434722900390625" lon="2.14427330531179904937744140625">
        <ele>113.1999969482421875</ele>
        <time>2022-01-07T09:53:39.000Z</time>
      </trkpt>
      <trkpt lat="41.46716929972171783447265625" lon="2.1442790888249874114990234375">
        <ele>113.8000030517578125</ele>
        <time>2022-01-07T09:53:40.000Z</time>
      </trkpt>
      <trkpt lat="41.467203833162784576416015625" lon="2.144295014441013336181640625">
        <ele>114.59999847412109375</ele>
        <time>2022-01-07T09:53:41.000Z</time>
      </trkpt>
      <trkpt lat="41.4672328345477581024169921875" lon="2.1443049050867557525634765625">
        <ele>115.1999969482421875</ele>
        <time>2022-01-07T09:53:42.000Z</time>
      </trkpt>
      <trkpt lat="41.46726326085627079010009765625" lon="2.1443122811615467071533203125">
        <ele>115.8000030517578125</ele>
        <time>2022-01-07T09:53:43.000Z</time>
      </trkpt>
      <trkpt lat="41.46729075349867343902587890625" lon="2.1443176455795764923095703125">
        <ele>116.1999969482421875</ele>
        <time>2022-01-07T09:53:44.000Z</time>
      </trkpt>
      <trkpt lat="41.467325873672962188720703125" lon="2.14433197863399982452392578125">
        <ele>116.59999847412109375</ele>
        <time>2022-01-07T09:53:45.000Z</time>
      </trkpt>
      <trkpt lat="41.46736166439950466156005859375" lon="2.14436517097055912017822265625">
        <ele>117.1999969482421875</ele>
        <time>2022-01-07T09:53:46.000Z</time>
      </trkpt>
      <trkpt lat="41.46738580428063869476318359375" lon="2.1444028057157993316650390625">
        <ele>117.59999847412109375</ele>
        <time>2022-01-07T09:53:47.000Z</time>
      </trkpt>
      <trkpt lat="41.467401981353759765625" lon="2.14444823563098907470703125">
        <ele>118</ele>
        <time>2022-01-07T09:53:48.000Z</time>
      </trkpt>
      <trkpt lat="41.46740608848631381988525390625" lon="2.14448469690978527069091796875">
        <ele>118.59999847412109375</ele>
        <time>2022-01-07T09:53:49.000Z</time>
      </trkpt>
      <trkpt lat="41.4674060046672821044921875" lon="2.14452794753015041351318359375">
        <ele>119.1999969482421875</ele>
        <time>2022-01-07T09:53:50.000Z</time>
      </trkpt>
      <trkpt lat="41.46740801632404327392578125" lon="2.14457505382597446441650390625">
        <ele>119.59999847412109375</ele>
        <time>2022-01-07T09:53:51.000Z</time>
      </trkpt>
      <trkpt lat="41.46741128526628017425537109375" lon="2.14460472576320171356201171875">
        <ele>120</ele>
        <time>2022-01-07T09:53:52.000Z</time>
      </trkpt>
      <trkpt lat="41.46741799078881740570068359375" lon="2.14464009739458560943603515625">
        <ele>120.1999969482421875</ele>
        <time>2022-01-07T09:53:53.000Z</time>
      </trkpt>
      <trkpt lat="41.4674252830445766448974609375" lon="2.14467328973114490509033203125">
        <ele>120.1999969482421875</ele>
        <time>2022-01-07T09:53:54.000Z</time>
      </trkpt>
      <trkpt lat="41.46743140183389186859130859375" lon="2.144707404077053070068359375">
        <ele>120.1999969482421875</ele>
        <time>2022-01-07T09:53:55.000Z</time>
      </trkpt>
      <trkpt lat="41.467442214488983154296875" lon="2.14474596083164215087890625">
        <ele>120.59999847412109375</ele>
        <time>2022-01-07T09:53:56.000Z</time>
      </trkpt>
      <trkpt lat="41.46745361387729644775390625" lon="2.14477253146469593048095703125">
        <ele>120.8000030517578125</ele>
        <time>2022-01-07T09:53:57.000Z</time>
      </trkpt>
      <trkpt lat="41.4674685336649417877197265625" lon="2.14479683898389339447021484375">
        <ele>121.40000152587890625</ele>
        <time>2022-01-07T09:53:58.000Z</time>
      </trkpt>
      <trkpt lat="41.46748269908130168914794921875" lon="2.14482248760759830474853515625">
        <ele>121.8000030517578125</ele>
        <time>2022-01-07T09:53:59.000Z</time>
      </trkpt>
      <trkpt lat="41.46749778650701045989990234375" lon="2.14484813623130321502685546875">
        <ele>122.40000152587890625</ele>
        <time>2022-01-07T09:54:00.000Z</time>
      </trkpt>
      <trkpt lat="41.467516981065273284912109375" lon="2.1448780596256256103515625">
        <ele>123</ele>
        <time>2022-01-07T09:54:01.000Z</time>
      </trkpt>
      <trkpt lat="41.46753399632871150970458984375" lon="2.14490513317286968231201171875">
        <ele>123</ele>
        <time>2022-01-07T09:54:02.000Z</time>
      </trkpt>
      <trkpt lat="41.46754841320216655731201171875" lon="2.14492642320692539215087890625">
        <ele>123.59999847412109375</ele>
        <time>2022-01-07T09:54:03.000Z</time>
      </trkpt>
      <trkpt lat="41.467573642730712890625" lon="2.14495693333446979522705078125">
        <ele>124.1999969482421875</ele>
        <time>2022-01-07T09:54:04.000Z</time>
      </trkpt>
      <trkpt lat="41.4675909094512462615966796875" lon="2.14496950618922710418701171875">
        <ele>124.59999847412109375</ele>
        <time>2022-01-07T09:54:05.000Z</time>
      </trkpt>
      <trkpt lat="41.46761446259915828704833984375" lon="2.14498626999557018280029296875">
        <ele>125.1999969482421875</ele>
        <time>2022-01-07T09:54:06.000Z</time>
      </trkpt>
      <trkpt lat="41.467631645500659942626953125" lon="2.14499674737453460693359375">
        <ele>125.59999847412109375</ele>
        <time>2022-01-07T09:54:07.000Z</time>
      </trkpt>
      <trkpt lat="41.46765251643955707550048828125" lon="2.14501359499990940093994140625">
        <ele>126</ele>
        <time>2022-01-07T09:54:08.000Z</time>
      </trkpt>
      <trkpt lat="41.4676720462739467620849609375" lon="2.14503052644431591033935546875">
        <ele>126.40000152587890625</ele>
        <time>2022-01-07T09:54:09.000Z</time>
      </trkpt>
      <trkpt lat="41.4676930010318756103515625" lon="2.14504729025065898895263671875">
        <ele>126.8000030517578125</ele>
        <time>2022-01-07T09:54:10.000Z</time>
      </trkpt>
      <trkpt lat="41.46771487779915332794189453125" lon="2.14506304822862148284912109375">
        <ele>127.1999969482421875</ele>
        <time>2022-01-07T09:54:11.000Z</time>
      </trkpt>
      <trkpt lat="41.46773516200482845306396484375" lon="2.1450780518352985382080078125">
        <ele>127.8000030517578125</ele>
        <time>2022-01-07T09:54:12.000Z</time>
      </trkpt>
      <trkpt lat="41.46775695495307445526123046875" lon="2.14509121142327785491943359375">
        <ele>128.1999969482421875</ele>
        <time>2022-01-07T09:54:13.000Z</time>
      </trkpt>
      <trkpt lat="41.46777950227260589599609375" lon="2.14510210789740085601806640625">
        <ele>129</ele>
        <time>2022-01-07T09:54:14.000Z</time>
      </trkpt>
      <trkpt lat="41.46780473180115222930908203125" lon="2.145111076533794403076171875">
        <ele>129.399993896484375</ele>
        <time>2022-01-07T09:54:15.000Z</time>
      </trkpt>
      <trkpt lat="41.46783004514873027801513671875" lon="2.14511686004698276519775390625">
        <ele>130</ele>
        <time>2022-01-07T09:54:16.000Z</time>
      </trkpt>
      <trkpt lat="41.467854268848896026611328125" lon="2.14512188918888568878173828125">
        <ele>130.399993896484375</ele>
        <time>2022-01-07T09:54:17.000Z</time>
      </trkpt>
      <trkpt lat="41.46787983365356922149658203125" lon="2.1451270021498203277587890625">
        <ele>130.8000030517578125</ele>
        <time>2022-01-07T09:54:18.000Z</time>
      </trkpt>
      <trkpt lat="41.467896513640880584716796875" lon="2.14513647370040416717529296875">
        <ele>131.1999969482421875</ele>
        <time>2022-01-07T09:54:19.000Z</time>
      </trkpt>
      <trkpt lat="41.46791721694171428680419921875" lon="2.1451474539935588836669921875">
        <ele>131.600006103515625</ele>
        <time>2022-01-07T09:54:20.000Z</time>
      </trkpt>
      <trkpt lat="41.46793515421450138092041015625" lon="2.14515767991542816162109375">
        <ele>132.1999969482421875</ele>
        <time>2022-01-07T09:54:21.000Z</time>
      </trkpt>
      <trkpt lat="41.46795652806758880615234375" lon="2.1451665647327899932861328125">
        <ele>132.600006103515625</ele>
        <time>2022-01-07T09:54:22.000Z</time>
      </trkpt>
      <trkpt lat="41.467973291873931884765625" lon="2.14517184533178806304931640625">
        <ele>133</ele>
        <time>2022-01-07T09:54:23.000Z</time>
      </trkpt>
      <trkpt lat="41.467994414269924163818359375" lon="2.14517352171242237091064453125">
        <ele>133.399993896484375</ele>
        <time>2022-01-07T09:54:24.000Z</time>
      </trkpt>
      <trkpt lat="41.46801344119012355804443359375" lon="2.1451769582927227020263671875">
        <ele>134</ele>
        <time>2022-01-07T09:54:25.000Z</time>
      </trkpt>
      <trkpt lat="41.46803774870932102203369140625" lon="2.1451766230165958404541015625">
        <ele>134.600006103515625</ele>
        <time>2022-01-07T09:54:26.000Z</time>
      </trkpt>
      <trkpt lat="41.46805987693369388580322265625" lon="2.14516840875148773193359375">
        <ele>135</ele>
        <time>2022-01-07T09:54:27.000Z</time>
      </trkpt>
      <trkpt lat="41.46807697601616382598876953125" lon="2.1451623737812042236328125">
        <ele>135.600006103515625</ele>
        <time>2022-01-07T09:54:28.000Z</time>
      </trkpt>
      <trkpt lat="41.4680968411266803741455078125" lon="2.1451588533818721771240234375">
        <ele>136</ele>
        <time>2022-01-07T09:54:29.000Z</time>
      </trkpt>
      <trkpt lat="41.46811922080814838409423828125" lon="2.14515910483896732330322265625">
        <ele>136.600006103515625</ele>
        <time>2022-01-07T09:54:30.000Z</time>
      </trkpt>
      <trkpt lat="41.46814160048961639404296875" lon="2.14515675790607929229736328125">
        <ele>137.1999969482421875</ele>
        <time>2022-01-07T09:54:31.000Z</time>
      </trkpt>
      <trkpt lat="41.46816666238009929656982421875" lon="2.14514485560357570648193359375">
        <ele>137.1999969482421875</ele>
        <time>2022-01-07T09:54:32.000Z</time>
      </trkpt>
      <trkpt lat="41.46818426437675952911376953125" lon="2.14512540958821773529052734375">
        <ele>137.600006103515625</ele>
        <time>2022-01-07T09:54:33.000Z</time>
      </trkpt>
      <trkpt lat="41.46819734014570713043212890625" lon="2.1451092325150966644287109375">
        <ele>138</ele>
        <time>2022-01-07T09:54:34.000Z</time>
      </trkpt>
      <trkpt lat="41.4682094939053058624267578125" lon="2.145084254443645477294921875">
        <ele>138.1999969482421875</ele>
        <time>2022-01-07T09:54:35.000Z</time>
      </trkpt>
      <trkpt lat="41.46821510978043079376220703125" lon="2.145051397383213043212890625">
        <ele>138.600006103515625</ele>
        <time>2022-01-07T09:54:36.000Z</time>
      </trkpt>
      <trkpt lat="41.4682094939053058624267578125" lon="2.14502080343663692474365234375">
        <ele>139</ele>
        <time>2022-01-07T09:54:37.000Z</time>
      </trkpt>
      <trkpt lat="41.468200273811817169189453125" lon="2.144996412098407745361328125">
        <ele>139.600006103515625</ele>
        <time>2022-01-07T09:54:38.000Z</time>
      </trkpt>
      <trkpt lat="41.46818862296640872955322265625" lon="2.14496858417987823486328125">
        <ele>140</ele>
        <time>2022-01-07T09:54:39.000Z</time>
      </trkpt>
      <trkpt lat="41.468176804482936859130859375" lon="2.14494234882295131683349609375">
        <ele>140.600006103515625</ele>
        <time>2022-01-07T09:54:40.000Z</time>
      </trkpt>
      <trkpt lat="41.46815911866724491119384765625" lon="2.14491116814315319061279296875">
        <ele>141</ele>
        <time>2022-01-07T09:54:41.000Z</time>
      </trkpt>
      <trkpt lat="41.46814419887959957122802734375" lon="2.1448879502713680267333984375">
        <ele>141.600006103515625</ele>
        <time>2022-01-07T09:54:42.000Z</time>
      </trkpt>
      <trkpt lat="41.4681323803961277008056640625" lon="2.14487160556018352508544921875">
        <ele>142.399993896484375</ele>
        <time>2022-01-07T09:54:43.000Z</time>
      </trkpt>
      <trkpt lat="41.46812190301716327667236328125" lon="2.14484922587871551513671875">
        <ele>142.600006103515625</ele>
        <time>2022-01-07T09:54:44.000Z</time>
      </trkpt>
      <trkpt lat="41.46811435930430889129638671875" lon="2.14481930248439311981201171875">
        <ele>142.8000030517578125</ele>
        <time>2022-01-07T09:54:45.000Z</time>
      </trkpt>
      <trkpt lat="41.4681172929704189300537109375" lon="2.1447967551648616790771484375">
        <ele>143.1999969482421875</ele>
        <time>2022-01-07T09:54:46.000Z</time>
      </trkpt>
      <trkpt lat="41.46812592633068561553955078125" lon="2.1447675861418247222900390625">
        <ele>143.600006103515625</ele>
        <time>2022-01-07T09:54:47.000Z</time>
      </trkpt>
      <trkpt lat="41.468135900795459747314453125" lon="2.144752331078052520751953125">
        <ele>144.1999969482421875</ele>
        <time>2022-01-07T09:54:48.000Z</time>
      </trkpt>
      <trkpt lat="41.46815358661115169525146484375" lon="2.1447384171187877655029296875">
        <ele>145</ele>
        <time>2022-01-07T09:54:49.000Z</time>
      </trkpt>
      <trkpt lat="41.468171775341033935546875" lon="2.144737578928470611572265625">
        <ele>145.399993896484375</ele>
        <time>2022-01-07T09:54:50.000Z</time>
      </trkpt>
      <trkpt lat="41.46819046698510646820068359375" lon="2.1447461284697055816650390625">
        <ele>146.1999969482421875</ele>
        <time>2022-01-07T09:54:51.000Z</time>
      </trkpt>
      <trkpt lat="41.4682106673717498779296875" lon="2.144753672182559967041015625">
        <ele>146.600006103515625</ele>
        <time>2022-01-07T09:54:52.000Z</time>
      </trkpt>
      <trkpt lat="41.4682309515774250030517578125" lon="2.14475794695317745208740234375">
        <ele>147</ele>
        <time>2022-01-07T09:54:53.000Z</time>
      </trkpt>
      <trkpt lat="41.46825048141181468963623046875" lon="2.14475895278155803680419921875">
        <ele>147.399993896484375</ele>
        <time>2022-01-07T09:54:54.000Z</time>
      </trkpt>
      <trkpt lat="41.4682701788842678070068359375" lon="2.144758366048336029052734375">
        <ele>147.600006103515625</ele>
        <time>2022-01-07T09:54:55.000Z</time>
      </trkpt>
      <trkpt lat="41.46828778088092803955078125" lon="2.14475140906870365142822265625">
        <ele>148.600006103515625</ele>
        <time>2022-01-07T09:54:56.000Z</time>
      </trkpt>
      <trkpt lat="41.46831083111464977264404296875" lon="2.14473850093781948089599609375">
        <ele>149</ele>
        <time>2022-01-07T09:54:57.000Z</time>
      </trkpt>
      <trkpt lat="41.46832533180713653564453125" lon="2.14472793973982334136962890625">
        <ele>149.1999969482421875</ele>
        <time>2022-01-07T09:54:58.000Z</time>
      </trkpt>
      <trkpt lat="41.46834234707057476043701171875" lon="2.14471184648573398590087890625">
        <ele>149.8000030517578125</ele>
        <time>2022-01-07T09:54:59.000Z</time>
      </trkpt>
      <trkpt lat="41.46836279891431331634521484375" lon="2.1446903049945831298828125">
        <ele>150.1999969482421875</ele>
        <time>2022-01-07T09:55:00.000Z</time>
      </trkpt>
      <trkpt lat="41.46837403066456317901611328125" lon="2.1446649916470050811767578125">
        <ele>150.8000030517578125</ele>
        <time>2022-01-07T09:55:01.000Z</time>
      </trkpt>
      <trkpt lat="41.46838006563484668731689453125" lon="2.14464043267071247100830078125">
        <ele>150.8000030517578125</ele>
        <time>2022-01-07T09:55:02.000Z</time>
      </trkpt>
      <trkpt lat="41.46838945336639881134033203125" lon="2.14461042545735836029052734375">
        <ele>151.1999969482421875</ele>
        <time>2022-01-07T09:55:03.000Z</time>
      </trkpt>
      <trkpt lat="41.46839515306055545806884765625" lon="2.14458041824400424957275390625">
        <ele>151.399993896484375</ele>
        <time>2022-01-07T09:55:04.000Z</time>
      </trkpt>
      <trkpt lat="41.46839934401214122772216796875" lon="2.144543118774890899658203125">
        <ele>152</ele>
        <time>2022-01-07T09:55:05.000Z</time>
      </trkpt>
      <trkpt lat="41.4684022776782512664794921875" lon="2.14451269246637821197509765625">
        <ele>152.399993896484375</ele>
        <time>2022-01-07T09:55:06.000Z</time>
      </trkpt>
      <trkpt lat="41.4683999307453632354736328125" lon="2.14448335580527782440185546875">
        <ele>153</ele>
        <time>2022-01-07T09:55:07.000Z</time>
      </trkpt>
      <trkpt lat="41.46839465014636516571044921875" lon="2.14445821009576320648193359375">
        <ele>153.399993896484375</ele>
        <time>2022-01-07T09:55:08.000Z</time>
      </trkpt>
      <trkpt lat="41.4683875255286693572998046875" lon="2.14442468248307704925537109375">
        <ele>154</ele>
        <time>2022-01-07T09:55:09.000Z</time>
      </trkpt>
      <trkpt lat="41.4683814905583858489990234375" lon="2.14438922703266143798828125">
        <ele>154</ele>
        <time>2022-01-07T09:55:10.000Z</time>
      </trkpt>
      <trkpt lat="41.46837185136973857879638671875" lon="2.144348658621311187744140625">
        <ele>154.600006103515625</ele>
        <time>2022-01-07T09:55:11.000Z</time>
      </trkpt>
      <trkpt lat="41.46836129017174243927001953125" lon="2.14431420899927616119384765625">
        <ele>155.1999969482421875</ele>
        <time>2022-01-07T09:55:12.000Z</time>
      </trkpt>
      <trkpt lat="41.4683526568114757537841796875" lon="2.1442864648997783660888671875">
        <ele>155.399993896484375</ele>
        <time>2022-01-07T09:55:13.000Z</time>
      </trkpt>
      <trkpt lat="41.46834142506122589111328125" lon="2.14425201527774333953857421875">
        <ele>155.8000030517578125</ele>
        <time>2022-01-07T09:55:14.000Z</time>
      </trkpt>
      <trkpt lat="41.46833145059645175933837890625" lon="2.14421178214251995086669921875">
        <ele>156</ele>
        <time>2022-01-07T09:55:15.000Z</time>
      </trkpt>
      <trkpt lat="41.4683260023593902587890625" lon="2.14418403804302215576171875">
        <ele>156</ele>
        <time>2022-01-07T09:55:16.000Z</time>
      </trkpt>
      <trkpt lat="41.4683167822659015655517578125" lon="2.144142128527164459228515625">
        <ele>156</ele>
        <time>2022-01-07T09:55:17.000Z</time>
      </trkpt>
      <trkpt lat="41.46831016056239604949951171875" lon="2.14411564171314239501953125">
        <ele>156.1999969482421875</ele>
        <time>2022-01-07T09:55:18.000Z</time>
      </trkpt>
      <trkpt lat="41.468301527202129364013671875" lon="2.14408102445304393768310546875">
        <ele>156.1999969482421875</ele>
        <time>2022-01-07T09:55:19.000Z</time>
      </trkpt>
      <trkpt lat="41.468292139470577239990234375" lon="2.14404112659394741058349609375">
        <ele>156.1999969482421875</ele>
        <time>2022-01-07T09:55:20.000Z</time>
      </trkpt>
      <trkpt lat="41.46827839314937591552734375" lon="2.143993265926837921142578125">
        <ele>156.1999969482421875</ele>
        <time>2022-01-07T09:55:21.000Z</time>
      </trkpt>
      <trkpt lat="41.46826690994203090667724609375" lon="2.1439528651535511016845703125">
        <ele>156.1999969482421875</ele>
        <time>2022-01-07T09:55:22.000Z</time>
      </trkpt>
      <trkpt lat="41.46825685165822505950927734375" lon="2.1439169906079769134521484375">
        <ele>156.1999969482421875</ele>
        <time>2022-01-07T09:55:23.000Z</time>
      </trkpt>
      <trkpt lat="41.46824712865054607391357421875" lon="2.14386912994086742401123046875">
        <ele>156.1999969482421875</ele>
        <time>2022-01-07T09:55:24.000Z</time>
      </trkpt>
      <trkpt lat="41.468237154185771942138671875" lon="2.1438200958073139190673828125">
        <ele>156.1999969482421875</ele>
        <time>2022-01-07T09:55:25.000Z</time>
      </trkpt>
      <trkpt lat="41.4682255871593952178955078125" lon="2.1437698043882846832275390625">
        <ele>156.1999969482421875</ele>
        <time>2022-01-07T09:55:26.000Z</time>
      </trkpt>
      <trkpt lat="41.4682125113904476165771484375" lon="2.14372077025473117828369140625">
        <ele>156.1999969482421875</ele>
        <time>2022-01-07T09:55:27.000Z</time>
      </trkpt>
      <trkpt lat="41.4681957475841045379638671875" lon="2.14367601089179515838623046875">
        <ele>156.1999969482421875</ele>
        <time>2022-01-07T09:55:28.000Z</time>
      </trkpt>
      <trkpt lat="41.468182839453220367431640625" lon="2.14363225735723972320556640625">
        <ele>156.1999969482421875</ele>
        <time>2022-01-07T09:55:29.000Z</time>
      </trkpt>
      <trkpt lat="41.46817035041749477386474609375" lon="2.143590264022350311279296875">
        <ele>156.1999969482421875</ele>
        <time>2022-01-07T09:55:30.000Z</time>
      </trkpt>
      <trkpt lat="41.46815677173435688018798828125" lon="2.1435505338013172149658203125">
        <ele>156.1999969482421875</ele>
        <time>2022-01-07T09:55:31.000Z</time>
      </trkpt>
      <trkpt lat="41.468143947422504425048828125" lon="2.14351088739931583404541015625">
        <ele>156.1999969482421875</ele>
        <time>2022-01-07T09:55:32.000Z</time>
      </trkpt>
      <trkpt lat="41.468131877481937408447265625" lon="2.1434717439115047454833984375">
        <ele>156.1999969482421875</ele>
        <time>2022-01-07T09:55:33.000Z</time>
      </trkpt>
      <trkpt lat="41.46812223829329013824462890625" lon="2.1434355340898036956787109375">
        <ele>156.399993896484375</ele>
        <time>2022-01-07T09:55:34.000Z</time>
      </trkpt>
      <trkpt lat="41.4681119285523891448974609375" lon="2.14339823462069034576416015625">
        <ele>156.399993896484375</ele>
        <time>2022-01-07T09:55:35.000Z</time>
      </trkpt>
      <trkpt lat="41.46810295991599559783935546875" lon="2.14336202479898929595947265625">
        <ele>156.600006103515625</ele>
        <time>2022-01-07T09:55:36.000Z</time>
      </trkpt>
      <trkpt lat="41.46809441037476062774658203125" lon="2.143326066434383392333984375">
        <ele>157</ele>
        <time>2022-01-07T09:55:37.000Z</time>
      </trkpt>
      <trkpt lat="41.4680857770144939422607421875" lon="2.14329094626009464263916015625">
        <ele>157.1999969482421875</ele>
        <time>2022-01-07T09:55:38.000Z</time>
      </trkpt>
      <trkpt lat="41.468075551092624664306640625" lon="2.1432581730186939239501953125">
        <ele>157.600006103515625</ele>
        <time>2022-01-07T09:55:39.000Z</time>
      </trkpt>
      <trkpt lat="41.4680633135139942169189453125" lon="2.143219448626041412353515625">
        <ele>158</ele>
        <time>2022-01-07T09:55:40.000Z</time>
      </trkpt>
      <trkpt lat="41.46805417723953723907470703125" lon="2.1431894414126873016357421875">
        <ele>158.399993896484375</ele>
        <time>2022-01-07T09:55:41.000Z</time>
      </trkpt>
      <trkpt lat="41.4680431969463825225830078125" lon="2.1431614458560943603515625">
        <ele>158.8000030517578125</ele>
        <time>2022-01-07T09:55:42.000Z</time>
      </trkpt>
      <trkpt lat="41.46803657524287700653076171875" lon="2.143137641251087188720703125">
        <ele>159.399993896484375</ele>
        <time>2022-01-07T09:55:43.000Z</time>
      </trkpt>
      <trkpt lat="41.46802986972033977508544921875" lon="2.143108136951923370361328125">
        <ele>159.600006103515625</ele>
        <time>2022-01-07T09:55:44.000Z</time>
      </trkpt>
      <trkpt lat="41.46802090108394622802734375" lon="2.143073268234729766845703125">
        <ele>160</ele>
        <time>2022-01-07T09:55:45.000Z</time>
      </trkpt>
      <trkpt lat="41.4680135250091552734375" lon="2.14305038563907146453857421875">
        <ele>160.1999969482421875</ele>
        <time>2022-01-07T09:55:46.000Z</time>
      </trkpt>
      <trkpt lat="41.46799944341182708740234375" lon="2.14301652275025844573974609375">
        <ele>160.600006103515625</ele>
        <time>2022-01-07T09:55:47.000Z</time>
      </trkpt>
      <trkpt lat="41.46798712201416492462158203125" lon="2.1429973281919956207275390625">
        <ele>161</ele>
        <time>2022-01-07T09:55:48.000Z</time>
      </trkpt>
      <trkpt lat="41.46797538734972476959228515625" lon="2.142973355948925018310546875">
        <ele>161.399993896484375</ele>
        <time>2022-01-07T09:55:49.000Z</time>
      </trkpt>
      <trkpt lat="41.4679647423326969146728515625" lon="2.142939157783985137939453125">
        <ele>161.8000030517578125</ele>
        <time>2022-01-07T09:55:50.000Z</time>
      </trkpt>
      <trkpt lat="41.46795745007693767547607421875" lon="2.14290772564709186553955078125">
        <ele>162.1999969482421875</ele>
        <time>2022-01-07T09:55:51.000Z</time>
      </trkpt>
      <trkpt lat="41.46795342676341533660888671875" lon="2.142880819737911224365234375">
        <ele>162.399993896484375</ele>
        <time>2022-01-07T09:55:52.000Z</time>
      </trkpt>
      <trkpt lat="41.4679478108882904052734375" lon="2.14284670539200305938720703125">
        <ele>162.600006103515625</ele>
        <time>2022-01-07T09:55:53.000Z</time>
      </trkpt>
      <trkpt lat="41.46793951280415058135986328125" lon="2.14280982501804828643798828125">
        <ele>162.8000030517578125</ele>
        <time>2022-01-07T09:55:54.000Z</time>
      </trkpt>
      <trkpt lat="41.46792526356875896453857421875" lon="2.14276171289384365081787109375">
        <ele>163</ele>
        <time>2022-01-07T09:55:55.000Z</time>
      </trkpt>
      <trkpt lat="41.46791554056107997894287109375" lon="2.142727933824062347412109375">
        <ele>163</ele>
        <time>2022-01-07T09:55:56.000Z</time>
      </trkpt>
      <trkpt lat="41.4679060690104961395263671875" lon="2.14268744923174381256103515625">
        <ele>163.1999969482421875</ele>
        <time>2022-01-07T09:55:57.000Z</time>
      </trkpt>
      <trkpt lat="41.467895843088626861572265625" lon="2.14264738373458385467529296875">
        <ele>163.600006103515625</ele>
        <time>2022-01-07T09:55:58.000Z</time>
      </trkpt>
      <trkpt lat="41.4678839407861232757568359375" lon="2.14260815642774105072021484375">
        <ele>163.600006103515625</ele>
        <time>2022-01-07T09:55:59.000Z</time>
      </trkpt>
      <trkpt lat="41.46787094883620738983154296875" lon="2.1425688453018665313720703125">
        <ele>164</ele>
        <time>2022-01-07T09:56:00.000Z</time>
      </trkpt>
      <trkpt lat="41.46785753779113292694091796875" lon="2.14251746423542499542236328125">
        <ele>164.1999969482421875</ele>
        <time>2022-01-07T09:56:01.000Z</time>
      </trkpt>
      <trkpt lat="41.4678485691547393798828125" lon="2.14248410426080226898193359375">
        <ele>164.1999969482421875</ele>
        <time>2022-01-07T09:56:02.000Z</time>
      </trkpt>
      <trkpt lat="41.467834152281284332275390625" lon="2.14244504459202289581298828125">
        <ele>164.1999969482421875</ele>
        <time>2022-01-07T09:56:03.000Z</time>
      </trkpt>
      <trkpt lat="41.46781931631267070770263671875" lon="2.142407409846782684326171875">
        <ele>164.399993896484375</ele>
        <time>2022-01-07T09:56:04.000Z</time>
      </trkpt>
      <trkpt lat="41.46780355833470821380615234375" lon="2.142363488674163818359375">
        <ele>164.600006103515625</ele>
        <time>2022-01-07T09:56:05.000Z</time>
      </trkpt>
      <trkpt lat="41.46779132075607776641845703125" lon="2.142329625785350799560546875">
        <ele>164.600006103515625</ele>
        <time>2022-01-07T09:56:06.000Z</time>
      </trkpt>
      <trkpt lat="41.4677833579480648040771484375" lon="2.14230112731456756591796875">
        <ele>164.8000030517578125</ele>
        <time>2022-01-07T09:56:07.000Z</time>
      </trkpt>
      <trkpt lat="41.46777388639748096466064453125" lon="2.14226651005446910858154296875">
        <ele>165</ele>
        <time>2022-01-07T09:56:08.000Z</time>
      </trkpt>
      <trkpt lat="41.46776449866592884063720703125" lon="2.14223348535597324371337890625">
        <ele>165.1999969482421875</ele>
        <time>2022-01-07T09:56:09.000Z</time>
      </trkpt>
      <trkpt lat="41.467753015458583831787109375" lon="2.142202891409397125244140625">
        <ele>165.600006103515625</ele>
        <time>2022-01-07T09:56:10.000Z</time>
      </trkpt>
      <trkpt lat="41.467740274965763092041015625" lon="2.14216492138803005218505859375">
        <ele>166.1999969482421875</ele>
        <time>2022-01-07T09:56:11.000Z</time>
      </trkpt>
      <trkpt lat="41.4677345752716064453125" lon="2.1421395242214202880859375">
        <ele>166.399993896484375</ele>
        <time>2022-01-07T09:56:12.000Z</time>
      </trkpt>
      <trkpt lat="41.46772728301584720611572265625" lon="2.14210960082709789276123046875">
        <ele>166.8000030517578125</ele>
        <time>2022-01-07T09:56:13.000Z</time>
      </trkpt>
      <trkpt lat="41.467723846435546875" lon="2.142081521451473236083984375">
        <ele>167.1999969482421875</ele>
        <time>2022-01-07T09:56:14.000Z</time>
      </trkpt>
      <trkpt lat="41.46772074513137340545654296875" lon="2.14205075986683368682861328125">
        <ele>167.600006103515625</ele>
        <time>2022-01-07T09:56:15.000Z</time>
      </trkpt>
      <trkpt lat="41.4677122794091701507568359375" lon="2.1420159749686717987060546875">
        <ele>167.8000030517578125</ele>
        <time>2022-01-07T09:56:16.000Z</time>
      </trkpt>
      <trkpt lat="41.4677055738866329193115234375" lon="2.141993679106235504150390625">
        <ele>168.1999969482421875</ele>
        <time>2022-01-07T09:56:17.000Z</time>
      </trkpt>
      <trkpt lat="41.46769610233604907989501953125" lon="2.141966186463832855224609375">
        <ele>168.600006103515625</ele>
        <time>2022-01-07T09:56:18.000Z</time>
      </trkpt>
      <trkpt lat="41.46768285892903804779052734375" lon="2.1419378556311130523681640625">
        <ele>169</ele>
        <time>2022-01-07T09:56:19.000Z</time>
      </trkpt>
      <trkpt lat="41.46767078898847103118896484375" lon="2.1419076807796955108642578125">
        <ele>169.399993896484375</ele>
        <time>2022-01-07T09:56:20.000Z</time>
      </trkpt>
      <trkpt lat="41.467657797038555145263671875" lon="2.14186920784413814544677734375">
        <ele>169.8000030517578125</ele>
        <time>2022-01-07T09:56:21.000Z</time>
      </trkpt>
      <trkpt lat="41.467647068202495574951171875" lon="2.141842804849147796630859375">
        <ele>170.1999969482421875</ele>
        <time>2022-01-07T09:56:22.000Z</time>
      </trkpt>
      <trkpt lat="41.4676318131387233734130859375" lon="2.14180885814130306243896484375">
        <ele>170.399993896484375</ele>
        <time>2022-01-07T09:56:23.000Z</time>
      </trkpt>
      <trkpt lat="41.46761915646493434906005859375" lon="2.14177348650991916656494140625">
        <ele>170.600006103515625</ele>
        <time>2022-01-07T09:56:24.000Z</time>
      </trkpt>
      <trkpt lat="41.46760624833405017852783203125" lon="2.14174079708755016326904296875">
        <ele>170.600006103515625</ele>
        <time>2022-01-07T09:56:25.000Z</time>
      </trkpt>
      <trkpt lat="41.46759250201284885406494140625" lon="2.14170995168387889862060546875">
        <ele>170.8000030517578125</ele>
        <time>2022-01-07T09:56:26.000Z</time>
      </trkpt>
      <trkpt lat="41.4675761573016643524169921875" lon="2.1416817046701908111572265625">
        <ele>170.8000030517578125</ele>
        <time>2022-01-07T09:56:27.000Z</time>
      </trkpt>
      <trkpt lat="41.467559225857257843017578125" lon="2.1416572295129299163818359375">
        <ele>171</ele>
        <time>2022-01-07T09:56:28.000Z</time>
      </trkpt>
      <trkpt lat="41.4675446413457393646240234375" lon="2.14163183234632015228271484375">
        <ele>171</ele>
        <time>2022-01-07T09:56:29.000Z</time>
      </trkpt>
      <trkpt lat="41.4675320684909820556640625" lon="2.1416072733700275421142578125">
        <ele>171.1999969482421875</ele>
        <time>2022-01-07T09:56:30.000Z</time>
      </trkpt>
      <trkpt lat="41.46751689724624156951904296875" lon="2.1415737457573413848876953125">
        <ele>171.1999969482421875</ele>
        <time>2022-01-07T09:56:31.000Z</time>
      </trkpt>
      <trkpt lat="41.4675104431807994842529296875" lon="2.14154952205717563629150390625">
        <ele>171.1999969482421875</ele>
        <time>2022-01-07T09:56:32.000Z</time>
      </trkpt>
      <trkpt lat="41.46750013343989849090576171875" lon="2.1415194310247898101806640625">
        <ele>171.399993896484375</ele>
        <time>2022-01-07T09:56:33.000Z</time>
      </trkpt>
      <trkpt lat="41.467487476766109466552734375" lon="2.141492106020450592041015625">
        <ele>171.600006103515625</ele>
        <time>2022-01-07T09:56:34.000Z</time>
      </trkpt>
      <trkpt lat="41.46747616119682788848876953125" lon="2.1414641104638576507568359375">
        <ele>172</ele>
        <time>2022-01-07T09:56:35.000Z</time>
      </trkpt>
      <trkpt lat="41.46746576763689517974853515625" lon="2.14142739772796630859375">
        <ele>172.1999969482421875</ele>
        <time>2022-01-07T09:56:36.000Z</time>
      </trkpt>
      <trkpt lat="41.467458643019199371337890625" lon="2.1414030902087688446044921875">
        <ele>172.399993896484375</ele>
        <time>2022-01-07T09:56:37.000Z</time>
      </trkpt>
      <trkpt lat="41.4674487523734569549560546875" lon="2.14137668721377849578857421875">
        <ele>172.600006103515625</ele>
        <time>2022-01-07T09:56:38.000Z</time>
      </trkpt>
      <trkpt lat="41.4674407057464122772216796875" lon="2.1413524635136127471923828125">
        <ele>173</ele>
        <time>2022-01-07T09:56:39.000Z</time>
      </trkpt>
      <trkpt lat="41.4674336649477481842041015625" lon="2.1413263119757175445556640625">
        <ele>173</ele>
        <time>2022-01-07T09:56:40.000Z</time>
      </trkpt>
      <trkpt lat="41.46742385812103748321533203125" lon="2.14130057953298091888427734375">
        <ele>173.1999969482421875</ele>
        <time>2022-01-07T09:56:41.000Z</time>
      </trkpt>
      <trkpt lat="41.46741447038948535919189453125" lon="2.14127543382346630096435546875">
        <ele>173.1999969482421875</ele>
        <time>2022-01-07T09:56:42.000Z</time>
      </trkpt>
      <trkpt lat="41.4674006402492523193359375" lon="2.14124701917171478271484375">
        <ele>173.600006103515625</ele>
        <time>2022-01-07T09:56:43.000Z</time>
      </trkpt>
      <trkpt lat="41.46738178096711635589599609375" lon="2.141213826835155487060546875">
        <ele>173.600006103515625</ele>
        <time>2022-01-07T09:56:44.000Z</time>
      </trkpt>
      <trkpt lat="41.4673672802746295928955078125" lon="2.1411767788231372833251953125">
        <ele>173.600006103515625</ele>
        <time>2022-01-07T09:56:45.000Z</time>
      </trkpt>
      <trkpt lat="41.46735227666795253753662109375" lon="2.14113964699208736419677734375">
        <ele>173.600006103515625</ele>
        <time>2022-01-07T09:56:46.000Z</time>
      </trkpt>
      <trkpt lat="41.46733366884291172027587890625" lon="2.14109740220010280609130859375">
        <ele>173.600006103515625</ele>
        <time>2022-01-07T09:56:47.000Z</time>
      </trkpt>
      <trkpt lat="41.46731455810368061065673828125" lon="2.14105549268424510955810546875">
        <ele>173.600006103515625</ele>
        <time>2022-01-07T09:56:48.000Z</time>
      </trkpt>
      <trkpt lat="41.46729310043156147003173828125" lon="2.1410165168344974517822265625">
        <ele>173.600006103515625</ele>
        <time>2022-01-07T09:56:49.000Z</time>
      </trkpt>
      <trkpt lat="41.46727264858782291412353515625" lon="2.140978462994098663330078125">
        <ele>173.8000030517578125</ele>
        <time>2022-01-07T09:56:50.000Z</time>
      </trkpt>
      <trkpt lat="41.46725739352405071258544921875" lon="2.14094200171530246734619140625">
        <ele>173.8000030517578125</ele>
        <time>2022-01-07T09:56:51.000Z</time>
      </trkpt>
      <trkpt lat="41.46724314428865909576416015625" lon="2.1409092284739017486572265625">
        <ele>173.8000030517578125</ele>
        <time>2022-01-07T09:56:52.000Z</time>
      </trkpt>
      <trkpt lat="41.46722772158682346343994140625" lon="2.14088022708892822265625">
        <ele>174</ele>
        <time>2022-01-07T09:56:53.000Z</time>
      </trkpt>
      <trkpt lat="41.467212550342082977294921875" lon="2.140851728618144989013671875">
        <ele>174</ele>
        <time>2022-01-07T09:56:54.000Z</time>
      </trkpt>
      <trkpt lat="41.467198468744754791259765625" lon="2.14082431979477405548095703125">
        <ele>174.1999969482421875</ele>
        <time>2022-01-07T09:56:55.000Z</time>
      </trkpt>
      <trkpt lat="41.46718447096645832061767578125" lon="2.14079833589494228363037109375">
        <ele>174.1999969482421875</ele>
        <time>2022-01-07T09:56:56.000Z</time>
      </trkpt>
      <trkpt lat="41.46716929972171783447265625" lon="2.1407737769186496734619140625">
        <ele>174.1999969482421875</ele>
        <time>2022-01-07T09:56:57.000Z</time>
      </trkpt>
      <trkpt lat="41.46715588867664337158203125" lon="2.1407459490001201629638671875">
        <ele>174.1999969482421875</ele>
        <time>2022-01-07T09:56:58.000Z</time>
      </trkpt>
      <trkpt lat="41.4671419747173786163330078125" lon="2.14071703143417835235595703125">
        <ele>174.1999969482421875</ele>
        <time>2022-01-07T09:56:59.000Z</time>
      </trkpt>
      <trkpt lat="41.46712831221520900726318359375" lon="2.1406902931630611419677734375">
        <ele>174.1999969482421875</ele>
        <time>2022-01-07T09:57:00.000Z</time>
      </trkpt>
      <trkpt lat="41.46711624227464199066162109375" lon="2.140663973987102508544921875">
        <ele>174.1999969482421875</ele>
        <time>2022-01-07T09:57:01.000Z</time>
      </trkpt>
      <trkpt lat="41.46710718981921672821044921875" lon="2.14063421823084354400634765625">
        <ele>174.1999969482421875</ele>
        <time>2022-01-07T09:57:02.000Z</time>
      </trkpt>
      <trkpt lat="41.4671014063060283660888671875" lon="2.14060907252132892608642578125">
        <ele>174.1999969482421875</ele>
        <time>2022-01-07T09:57:03.000Z</time>
      </trkpt>
      <trkpt lat="41.4670948684215545654296875" lon="2.14058442972600460052490234375">
        <ele>174.399993896484375</ele>
        <time>2022-01-07T09:57:04.000Z</time>
      </trkpt>
      <trkpt lat="41.46708321757614612579345703125" lon="2.1405511535704135894775390625">
        <ele>174.399993896484375</ele>
        <time>2022-01-07T09:57:05.000Z</time>
      </trkpt>
      <trkpt lat="41.467077098786830902099609375" lon="2.14052894152700901031494140625">
        <ele>174.8000030517578125</ele>
        <time>2022-01-07T09:57:06.000Z</time>
      </trkpt>
      <trkpt lat="41.46706913597881793975830078125" lon="2.14050161652266979217529296875">
        <ele>175</ele>
        <time>2022-01-07T09:57:07.000Z</time>
      </trkpt>
      <trkpt lat="41.4670626819133758544921875" lon="2.1404763869941234588623046875">
        <ele>175</ele>
        <time>2022-01-07T09:57:08.000Z</time>
      </trkpt>
      <trkpt lat="41.4670591615140438079833984375" lon="2.14045199565589427947998046875">
        <ele>175</ele>
        <time>2022-01-07T09:57:09.000Z</time>
      </trkpt>
      <trkpt lat="41.46705740131437778472900390625" lon="2.14043087325990200042724609375">
        <ele>175.1999969482421875</ele>
        <time>2022-01-07T09:57:10.000Z</time>
      </trkpt>
      <trkpt lat="41.4670571498572826385498046875" lon="2.1404140256345272064208984375">
        <ele>175.1999969482421875</ele>
        <time>2022-01-07T09:57:11.000Z</time>
      </trkpt>
      <trkpt lat="41.46705740131437778472900390625" lon="2.14040002785623073577880859375">
        <ele>175.1999969482421875</ele>
        <time>2022-01-07T09:57:12.000Z</time>
      </trkpt>
      <trkpt lat="41.467061676084995269775390625" lon="2.14038343168795108795166015625">
        <ele>175.1999969482421875</ele>
        <time>2022-01-07T09:57:13.000Z</time>
      </trkpt>
      <trkpt lat="41.46706494502723217010498046875" lon="2.14037052355706691741943359375">
        <ele>175.1999969482421875</ele>
        <time>2022-01-07T09:57:14.000Z</time>
      </trkpt>
      <trkpt lat="41.46706460975110530853271484375" lon="2.140358872711658477783203125">
        <ele>175.1999969482421875</ele>
        <time>2022-01-07T09:57:15.000Z</time>
      </trkpt>
      <trkpt lat="41.46706460975110530853271484375" lon="2.140358872711658477783203125">
        <ele>175.1999969482421875</ele>
        <time>2022-01-07T09:57:16.000Z</time>
      </trkpt>
      <trkpt lat="41.46706460975110530853271484375" lon="2.140358872711658477783203125">
        <ele>175.1999969482421875</ele>
        <time>2022-01-07T09:57:17.000Z</time>
      </trkpt>
      <trkpt lat="41.4670762605965137481689453125" lon="2.14030330069363117218017578125">
        <ele>175.600006103515625</ele>
        <time>2022-01-07T09:57:33.000Z</time>
      </trkpt>
      <trkpt lat="41.467081122100353240966796875" lon="2.14027899317443370819091796875">
        <ele>175.600006103515625</ele>
        <time>2022-01-07T09:57:34.000Z</time>
      </trkpt>
      <trkpt lat="41.4670843072235584259033203125" lon="2.140249572694301605224609375">
        <ele>175.600006103515625</ele>
        <time>2022-01-07T09:57:35.000Z</time>
      </trkpt>
      <trkpt lat="41.46708489395678043365478515625" lon="2.14022400788962841033935546875">
        <ele>175.600006103515625</ele>
        <time>2022-01-07T09:57:36.000Z</time>
      </trkpt>
      <trkpt lat="41.46708707325160503387451171875" lon="2.14018561877310276031494140625">
        <ele>175.600006103515625</ele>
        <time>2022-01-07T09:57:37.000Z</time>
      </trkpt>
      <trkpt lat="41.46708883345127105712890625" lon="2.14013968594372272491455078125">
        <ele>175.600006103515625</ele>
        <time>2022-01-07T09:57:38.000Z</time>
      </trkpt>
      <trkpt lat="41.467089839279651641845703125" lon="2.1401032246649265289306640625">
        <ele>175.600006103515625</ele>
        <time>2022-01-07T09:57:39.000Z</time>
      </trkpt>
      <trkpt lat="41.46709076128900051116943359375" lon="2.14006743393838405609130859375">
        <ele>175.600006103515625</ele>
        <time>2022-01-07T09:57:40.000Z</time>
      </trkpt>
      <trkpt lat="41.46708615124225616455078125" lon="2.1400368399918079376220703125">
        <ele>175.600006103515625</ele>
        <time>2022-01-07T09:57:41.000Z</time>
      </trkpt>
      <trkpt lat="41.46708539687097072601318359375" lon="2.1400143764913082122802734375">
        <ele>175.8000030517578125</ele>
        <time>2022-01-07T09:57:42.000Z</time>
      </trkpt>
      <trkpt lat="41.46708388812839984893798828125" lon="2.1399801783263683319091796875">
        <ele>175.8000030517578125</ele>
        <time>2022-01-07T09:57:43.000Z</time>
      </trkpt>
      <trkpt lat="41.46708355285227298736572265625" lon="2.13995159603655338287353515625">
        <ele>176</ele>
        <time>2022-01-07T09:57:44.000Z</time>
      </trkpt>
      <trkpt lat="41.46708724088966846466064453125" lon="2.13992075063288211822509765625">
        <ele>176.1999969482421875</ele>
        <time>2022-01-07T09:57:45.000Z</time>
      </trkpt>
      <trkpt lat="41.4670866541564464569091796875" lon="2.13989141397178173065185546875">
        <ele>176.399993896484375</ele>
        <time>2022-01-07T09:57:46.000Z</time>
      </trkpt>
      <trkpt lat="41.4670883305370807647705078125" lon="2.13985905982553958892822265625">
        <ele>177</ele>
        <time>2022-01-07T09:57:47.000Z</time>
      </trkpt>
      <trkpt lat="41.4670896716415882110595703125" lon="2.13982134126126766204833984375">
        <ele>177.399993896484375</ele>
        <time>2022-01-07T09:57:48.000Z</time>
      </trkpt>
      <trkpt lat="41.46708942018449306488037109375" lon="2.13979535736143589019775390625">
        <ele>178.1999969482421875</ele>
        <time>2022-01-07T09:57:49.000Z</time>
      </trkpt>
      <trkpt lat="41.4670921862125396728515625" lon="2.1397716365754604339599609375">
        <ele>178.8000030517578125</ele>
        <time>2022-01-07T09:57:50.000Z</time>
      </trkpt>
      <trkpt lat="41.46709109656512737274169921875" lon="2.13974632322788238525390625">
        <ele>179.399993896484375</ele>
        <time>2022-01-07T09:57:51.000Z</time>
      </trkpt>
      <trkpt lat="41.46708883345127105712890625" lon="2.1397303976118564605712890625">
        <ele>179.8000030517578125</ele>
        <time>2022-01-07T09:57:52.000Z</time>
      </trkpt>
      <trkpt lat="41.46708858199417591094970703125" lon="2.13971304707229137420654296875">
        <ele>180.399993896484375</ele>
        <time>2022-01-07T09:57:53.000Z</time>
      </trkpt>
      <trkpt lat="41.46708858199417591094970703125" lon="2.13969536125659942626953125">
        <ele>181.1999969482421875</ele>
        <time>2022-01-07T09:57:54.000Z</time>
      </trkpt>
      <trkpt lat="41.46708288230001926422119140625" lon="2.13968371041119098663330078125">
        <ele>181.8000030517578125</ele>
        <time>2022-01-07T09:57:55.000Z</time>
      </trkpt>
      <trkpt lat="41.467075757682323455810546875" lon="2.13967013172805309295654296875">
        <ele>182.8000030517578125</ele>
        <time>2022-01-07T09:57:56.000Z</time>
      </trkpt>
      <trkpt lat="41.46706603467464447021484375" lon="2.1396504342555999755859375">
        <ele>183.600006103515625</ele>
        <time>2022-01-07T09:57:57.000Z</time>
      </trkpt>
      <trkpt lat="41.4670571498572826385498046875" lon="2.1396338380873203277587890625">
        <ele>184.600006103515625</ele>
        <time>2022-01-07T09:57:58.000Z</time>
      </trkpt>
      <trkpt lat="41.4670546352863311767578125" lon="2.13963031768798828125">
        <ele>185.399993896484375</ele>
        <time>2022-01-07T09:57:59.000Z</time>
      </trkpt>
      <trkpt lat="41.4670546352863311767578125" lon="2.13963031768798828125">
        <ele>186.1999969482421875</ele>
        <time>2022-01-07T09:58:00.000Z</time>
      </trkpt>
      <trkpt lat="41.4670546352863311767578125" lon="2.13963031768798828125">
        <ele>186.1999969482421875</ele>
        <time>2022-01-07T09:58:01.000Z</time>
      </trkpt>
      <trkpt lat="41.4670546352863311767578125" lon="2.13963031768798828125">
        <ele>187</ele>
        <time>2022-01-07T09:58:02.000Z</time>
      </trkpt>
      <trkpt lat="41.46702974103391170501708984375" lon="2.1393448300659656524658203125">
        <ele>197.8000030517578125</ele>
        <time>2022-01-07T09:59:50.000Z</time>
      </trkpt>
      <trkpt lat="41.46701985038816928863525390625" lon="2.139332592487335205078125">
        <ele>197.8000030517578125</ele>
        <time>2022-01-07T09:59:51.000Z</time>
      </trkpt>
      <trkpt lat="41.4670004881918430328369140625" lon="2.1393200196325778961181640625">
        <ele>197.8000030517578125</ele>
        <time>2022-01-07T09:59:52.000Z</time>
      </trkpt>
      <trkpt lat="41.46698414348065853118896484375" lon="2.13931088335812091827392578125">
        <ele>197.8000030517578125</ele>
        <time>2022-01-07T09:59:53.000Z</time>
      </trkpt>
      <trkpt lat="41.4669703133404254913330078125" lon="2.1393045969307422637939453125">
        <ele>198</ele>
        <time>2022-01-07T09:59:54.000Z</time>
      </trkpt>
      <trkpt lat="41.4669575728476047515869140625" lon="2.1392990648746490478515625">
        <ele>198</ele>
        <time>2022-01-07T09:59:55.000Z</time>
      </trkpt>
      <trkpt lat="41.4669424854218959808349609375" lon="2.139296047389507293701171875">
        <ele>198</ele>
        <time>2022-01-07T09:59:56.000Z</time>
      </trkpt>
      <trkpt lat="41.4669191837310791015625" lon="2.1392955444753170013427734375">
        <ele>198</ele>
        <time>2022-01-07T09:59:57.000Z</time>
      </trkpt>
      <trkpt lat="41.46689512766897678375244140625" lon="2.1392982266843318939208984375">
        <ele>198</ele>
        <time>2022-01-07T09:59:58.000Z</time>
      </trkpt>
      <trkpt lat="41.4668596722185611724853515625" lon="2.1393019147217273712158203125">
        <ele>198</ele>
        <time>2022-01-07T09:59:59.000Z</time>
      </trkpt>
      <trkpt lat="41.46682589314877986907958984375" lon="2.139308787882328033447265625">
        <ele>198</ele>
        <time>2022-01-07T10:00:00.000Z</time>
      </trkpt>
      <trkpt lat="41.46679789759218692779541015625" lon="2.1393123082816600799560546875">
        <ele>198</ele>
        <time>2022-01-07T10:00:01.000Z</time>
      </trkpt>
      <trkpt lat="41.4667622745037078857421875" lon="2.13931758888065814971923828125">
        <ele>198</ele>
        <time>2022-01-07T10:00:02.000Z</time>
      </trkpt>
      <trkpt lat="41.466729752719402313232421875" lon="2.13931423611938953399658203125">
        <ele>198</ele>
        <time>2022-01-07T10:00:03.000Z</time>
      </trkpt>
      <trkpt lat="41.4666940458118915557861328125" lon="2.13930887170135974884033203125">
        <ele>198</ele>
        <time>2022-01-07T10:00:04.000Z</time>
      </trkpt>
      <trkpt lat="41.46666898392140865325927734375" lon="2.1393056027591228485107421875">
        <ele>198</ele>
        <time>2022-01-07T10:00:05.000Z</time>
      </trkpt>
      <trkpt lat="41.466649957001209259033203125" lon="2.13930266909301280975341796875">
        <ele>198</ele>
        <time>2022-01-07T10:00:06.000Z</time>
      </trkpt>
      <trkpt lat="41.4666276611387729644775390625" lon="2.13930032216012477874755859375">
        <ele>198</ele>
        <time>2022-01-07T10:00:07.000Z</time>
      </trkpt>
      <trkpt lat="41.46660578437149524688720703125" lon="2.13929629884660243988037109375">
        <ele>198.1999969482421875</ele>
        <time>2022-01-07T10:00:08.000Z</time>
      </trkpt>
      <trkpt lat="41.4665837399661540985107421875" lon="2.1392905153334140777587890625">
        <ele>198.1999969482421875</ele>
        <time>2022-01-07T10:00:09.000Z</time>
      </trkpt>
      <trkpt lat="41.46656035445630550384521484375" lon="2.1392864920198917388916015625">
        <ele>198.1999969482421875</ele>
        <time>2022-01-07T10:00:10.000Z</time>
      </trkpt>
      <trkpt lat="41.46653705276548862457275390625" lon="2.13928305543959140777587890625">
        <ele>198.1999969482421875</ele>
        <time>2022-01-07T10:00:11.000Z</time>
      </trkpt>
      <trkpt lat="41.46651349961757659912109375" lon="2.13927702046930789947509765625">
        <ele>198.1999969482421875</ele>
        <time>2022-01-07T10:00:12.000Z</time>
      </trkpt>
      <trkpt lat="41.46648827008903026580810546875" lon="2.13927232660353183746337890625">
        <ele>198.1999969482421875</ele>
        <time>2022-01-07T10:00:13.000Z</time>
      </trkpt>
      <trkpt lat="41.466468907892704010009765625" lon="2.1392720751464366912841796875">
        <ele>198.1999969482421875</ele>
        <time>2022-01-07T10:00:14.000Z</time>
      </trkpt>
      <trkpt lat="41.4664489589631557464599609375" lon="2.1392717398703098297119140625">
        <ele>198.1999969482421875</ele>
        <time>2022-01-07T10:00:15.000Z</time>
      </trkpt>
      <trkpt lat="41.46643035113811492919921875" lon="2.13926914148032665252685546875">
        <ele>198.1999969482421875</ele>
        <time>2022-01-07T10:00:16.000Z</time>
      </trkpt>
      <trkpt lat="41.4664100669324398040771484375" lon="2.13926578871905803680419921875">
        <ele>198.600006103515625</ele>
        <time>2022-01-07T10:00:17.000Z</time>
      </trkpt>
      <trkpt lat="41.46638609468936920166015625" lon="2.1392579935491085052490234375">
        <ele>198.8000030517578125</ele>
        <time>2022-01-07T10:00:18.000Z</time>
      </trkpt>
      <trkpt lat="41.4663731865584850311279296875" lon="2.1392475999891757965087890625">
        <ele>199</ele>
        <time>2022-01-07T10:00:19.000Z</time>
      </trkpt>
      <trkpt lat="41.466354243457317352294921875" lon="2.1392268128693103790283203125">
        <ele>199.399993896484375</ele>
        <time>2022-01-07T10:00:20.000Z</time>
      </trkpt>
      <trkpt lat="41.4663396589457988739013671875" lon="2.13920996524393558502197265625">
        <ele>199.8000030517578125</ele>
        <time>2022-01-07T10:00:21.000Z</time>
      </trkpt>
      <trkpt lat="41.466314680874347686767578125" lon="2.139198817312717437744140625">
        <ele>200.1999969482421875</ele>
        <time>2022-01-07T10:00:22.000Z</time>
      </trkpt>
      <trkpt lat="41.466284506022930145263671875" lon="2.139197476208209991455078125">
        <ele>200.399993896484375</ele>
        <time>2022-01-07T10:00:23.000Z</time>
      </trkpt>
      <trkpt lat="41.46625307388603687286376953125" lon="2.1391949616372585296630859375">
        <ele>201</ele>
        <time>2022-01-07T10:00:24.000Z</time>
      </trkpt>
      <trkpt lat="41.4662213064730167388916015625" lon="2.1391810476779937744140625">
        <ele>201.1999969482421875</ele>
        <time>2022-01-07T10:00:25.000Z</time>
      </trkpt>
      <trkpt lat="41.4661988429725170135498046875" lon="2.13916537351906299591064453125">
        <ele>201.600006103515625</ele>
        <time>2022-01-07T10:00:26.000Z</time>
      </trkpt>
      <trkpt lat="41.46618031896650791168212890625" lon="2.1391543932259082794189453125">
        <ele>201.8000030517578125</ele>
        <time>2022-01-07T10:00:27.000Z</time>
      </trkpt>
      <trkpt lat="41.46615232340991497039794921875" lon="2.1391372941434383392333984375">
        <ele>202</ele>
        <time>2022-01-07T10:00:28.000Z</time>
      </trkpt>
      <trkpt lat="41.46612030453979969024658203125" lon="2.13911608792841434478759765625">
        <ele>202</ele>
        <time>2022-01-07T10:00:29.000Z</time>
      </trkpt>
      <trkpt lat="41.4660932309925556182861328125" lon="2.13909965939819812774658203125">
        <ele>202</ele>
        <time>2022-01-07T10:00:30.000Z</time>
      </trkpt>
      <trkpt lat="41.46607001312077045440673828125" lon="2.1390856616199016571044921875">
        <ele>202.1999969482421875</ele>
        <time>2022-01-07T10:00:31.000Z</time>
      </trkpt>
      <trkpt lat="41.46605324931442737579345703125" lon="2.13907266966998577117919921875">
        <ele>202.399993896484375</ele>
        <time>2022-01-07T10:00:32.000Z</time>
      </trkpt>
      <trkpt lat="41.46603145636618137359619140625" lon="2.13905674405395984649658203125">
        <ele>202.399993896484375</ele>
        <time>2022-01-07T10:00:33.000Z</time>
      </trkpt>
      <trkpt lat="41.46600966341793537139892578125" lon="2.1390410698950290679931640625">
        <ele>202.600006103515625</ele>
        <time>2022-01-07T10:00:34.000Z</time>
      </trkpt>
      <trkpt lat="41.465983092784881591796875" lon="2.13902338407933712005615234375">
        <ele>202.600006103515625</ele>
        <time>2022-01-07T10:00:35.000Z</time>
      </trkpt>
      <trkpt lat="41.46595987491309642791748046875" lon="2.13900729082524776458740234375">
        <ele>202.8000030517578125</ele>
        <time>2022-01-07T10:00:36.000Z</time>
      </trkpt>
      <trkpt lat="41.4659396745264530181884765625" lon="2.1389931254088878631591796875">
        <ele>202.8000030517578125</ele>
        <time>2022-01-07T10:00:37.000Z</time>
      </trkpt>
      <trkpt lat="41.46591461263597011566162109375" lon="2.13897594250738620758056640625">
        <ele>203</ele>
        <time>2022-01-07T10:00:38.000Z</time>
      </trkpt>
      <trkpt lat="41.46588158793747425079345703125" lon="2.13895197026431560516357421875">
        <ele>203.399993896484375</ele>
        <time>2022-01-07T10:00:39.000Z</time>
      </trkpt>
      <trkpt lat="41.4658565260469913482666015625" lon="2.1389280818402767181396484375">
        <ele>203.8000030517578125</ele>
        <time>2022-01-07T10:00:40.000Z</time>
      </trkpt>
      <trkpt lat="41.46583364345133304595947265625" lon="2.13890017010271549224853515625">
        <ele>204.1999969482421875</ele>
        <time>2022-01-07T10:00:41.000Z</time>
      </trkpt>
      <trkpt lat="41.4658162929117679595947265625" lon="2.13888156227767467498779296875">
        <ele>204.399993896484375</ele>
        <time>2022-01-07T10:00:42.000Z</time>
      </trkpt>
      <trkpt lat="41.46579558961093425750732421875" lon="2.13885474018752574920654296875">
        <ele>204.8000030517578125</ele>
        <time>2022-01-07T10:00:43.000Z</time>
      </trkpt>
      <trkpt lat="41.46577077917754650115966796875" lon="2.13881962001323699951171875">
        <ele>204.8000030517578125</ele>
        <time>2022-01-07T10:00:44.000Z</time>
      </trkpt>
      <trkpt lat="41.465749405324459075927734375" lon="2.13879170827567577362060546875">
        <ele>205</ele>
        <time>2022-01-07T10:00:45.000Z</time>
      </trkpt>
      <trkpt lat="41.4657277800142765045166015625" lon="2.13875968940556049346923828125">
        <ele>205</ele>
        <time>2022-01-07T10:00:46.000Z</time>
      </trkpt>
      <trkpt lat="41.4657130278646945953369140625" lon="2.1387358009815216064453125">
        <ele>205</ele>
        <time>2022-01-07T10:00:47.000Z</time>
      </trkpt>
      <trkpt lat="41.46569567732512950897216796875" lon="2.13870051316916942596435546875">
        <ele>205</ele>
        <time>2022-01-07T10:00:48.000Z</time>
      </trkpt>
      <trkpt lat="41.4656835235655307769775390625" lon="2.13867402635514736175537109375">
        <ele>205</ele>
        <time>2022-01-07T10:00:49.000Z</time>
      </trkpt>
      <trkpt lat="41.46567036397755146026611328125" lon="2.13864888064563274383544921875">
        <ele>205</ele>
        <time>2022-01-07T10:00:50.000Z</time>
      </trkpt>
      <trkpt lat="41.4656516723334789276123046875" lon="2.13862515985965728759765625">
        <ele>205</ele>
        <time>2022-01-07T10:00:51.000Z</time>
      </trkpt>
      <trkpt lat="41.46562493406236171722412109375" lon="2.13860034942626953125">
        <ele>205</ele>
        <time>2022-01-07T10:00:52.000Z</time>
      </trkpt>
      <trkpt lat="41.46559693850576877593994140625" lon="2.138573862612247467041015625">
        <ele>205</ele>
        <time>2022-01-07T10:00:53.000Z</time>
      </trkpt>
      <trkpt lat="41.46556173451244831085205078125" lon="2.1385441906750202178955078125">
        <ele>205</ele>
        <time>2022-01-07T10:00:54.000Z</time>
      </trkpt>
      <trkpt lat="41.465526111423969268798828125" lon="2.13851384818553924560546875">
        <ele>205</ele>
        <time>2022-01-07T10:00:55.000Z</time>
      </trkpt>
      <trkpt lat="41.46548093296587467193603515625" lon="2.13847084902226924896240234375">
        <ele>205</ele>
        <time>2022-01-07T10:00:56.000Z</time>
      </trkpt>
      <trkpt lat="41.465435586869716644287109375" lon="2.13842793367803096771240234375">
        <ele>205</ele>
        <time>2022-01-07T10:00:57.000Z</time>
      </trkpt>
      <trkpt lat="41.4653861336410045623779296875" lon="2.13837462477385997772216796875">
        <ele>204.8000030517578125</ele>
        <time>2022-01-07T10:00:58.000Z</time>
      </trkpt>
      <trkpt lat="41.4653519354760646820068359375" lon="2.1383309550583362579345703125">
        <ele>204.8000030517578125</ele>
        <time>2022-01-07T10:00:59.000Z</time>
      </trkpt>
      <trkpt lat="41.4653244428336620330810546875" lon="2.13829264976084232330322265625">
        <ele>204.8000030517578125</ele>
        <time>2022-01-07T10:01:00.000Z</time>
      </trkpt>
      <trkpt lat="41.46530357189476490020751953125" lon="2.1382659114897251129150390625">
        <ele>204.399993896484375</ele>
        <time>2022-01-07T10:01:01.000Z</time>
      </trkpt>
      <trkpt lat="41.46527725271880626678466796875" lon="2.1382315456867218017578125">
        <ele>203.399993896484375</ele>
        <time>2022-01-07T10:01:02.000Z</time>
      </trkpt>
      <trkpt lat="41.465245820581912994384765625" lon="2.13819927535951137542724609375">
        <ele>203</ele>
        <time>2022-01-07T10:01:03.000Z</time>
      </trkpt>
      <trkpt lat="41.46521287970244884490966796875" lon="2.13818117044866085052490234375">
        <ele>202.399993896484375</ele>
        <time>2022-01-07T10:01:04.000Z</time>
      </trkpt>
      <trkpt lat="41.46517884917557239532470703125" lon="2.1381616406142711639404296875">
        <ele>202</ele>
        <time>2022-01-07T10:01:05.000Z</time>
      </trkpt>
      <trkpt lat="41.46510542370378971099853515625" lon="2.138126604259014129638671875">
        <ele>201.8000030517578125</ele>
        <time>2022-01-07T10:01:06.000Z</time>
      </trkpt>
      <trkpt lat="41.46510542370378971099853515625" lon="2.138126604259014129638671875">
        <ele>201.600006103515625</ele>
        <time>2022-01-07T10:01:07.000Z</time>
      </trkpt>
      <trkpt lat="41.46502546034753322601318359375" lon="2.13808192871510982513427734375">
        <ele>201.399993896484375</ele>
        <time>2022-01-07T10:01:08.000Z</time>
      </trkpt>
      <trkpt lat="41.46502546034753322601318359375" lon="2.13808192871510982513427734375">
        <ele>201.1999969482421875</ele>
        <time>2022-01-07T10:01:09.000Z</time>
      </trkpt>
      <trkpt lat="41.46499863825738430023193359375" lon="2.13805259205400943756103515625">
        <ele>201</ele>
        <time>2022-01-07T10:01:10.000Z</time>
      </trkpt>
      <trkpt lat="41.46495237015187740325927734375" lon="2.1379950083792209625244140625">
        <ele>201</ele>
        <time>2022-01-07T10:01:11.000Z</time>
      </trkpt>
      <trkpt lat="41.46495237015187740325927734375" lon="2.1379950083792209625244140625">
        <ele>201</ele>
        <time>2022-01-07T10:01:12.000Z</time>
      </trkpt>
      <trkpt lat="41.4649066887795925140380859375" lon="2.1379279531538486480712890625">
        <ele>201</ele>
        <time>2022-01-07T10:01:13.000Z</time>
      </trkpt>
      <trkpt lat="41.4649066887795925140380859375" lon="2.1379279531538486480712890625">
        <ele>201.1999969482421875</ele>
        <time>2022-01-07T10:01:14.000Z</time>
      </trkpt>
      <trkpt lat="41.46487073041498661041259765625" lon="2.1378806792199611663818359375">
        <ele>201.1999969482421875</ele>
        <time>2022-01-07T10:01:15.000Z</time>
      </trkpt>
      <trkpt lat="41.46485589444637298583984375" lon="2.13786031119525432586669921875">
        <ele>201.1999969482421875</ele>
        <time>2022-01-07T10:01:16.000Z</time>
      </trkpt>
      <trkpt lat="41.46485589444637298583984375" lon="2.13786031119525432586669921875">
        <ele>201.399993896484375</ele>
        <time>2022-01-07T10:01:17.000Z</time>
      </trkpt>
      <trkpt lat="41.4648406393826007843017578125" lon="2.13783298619091510772705078125">
        <ele>201.399993896484375</ele>
        <time>2022-01-07T10:01:18.000Z</time>
      </trkpt>
      <trkpt lat="41.4648268930613994598388671875" lon="2.1378002129495143890380859375">
        <ele>201.600006103515625</ele>
        <time>2022-01-07T10:01:19.000Z</time>
      </trkpt>
      <trkpt lat="41.46480032242834568023681640625" lon="2.1377304755151271820068359375">
        <ele>201.8000030517578125</ele>
        <time>2022-01-07T10:01:20.000Z</time>
      </trkpt>
      <trkpt lat="41.464790515601634979248046875" lon="2.137705497443675994873046875">
        <ele>202</ele>
        <time>2022-01-07T10:01:21.000Z</time>
      </trkpt>
      <trkpt lat="41.464790515601634979248046875" lon="2.137705497443675994873046875">
        <ele>202</ele>
        <time>2022-01-07T10:01:22.000Z</time>
      </trkpt>
      <trkpt lat="41.464749611914157867431640625" lon="2.13763810694217681884765625">
        <ele>202.1999969482421875</ele>
        <time>2022-01-07T10:01:23.000Z</time>
      </trkpt>
      <trkpt lat="41.464726813137531280517578125" lon="2.13760868646204471588134765625">
        <ele>202.399993896484375</ele>
        <time>2022-01-07T10:01:24.000Z</time>
      </trkpt>
      <trkpt lat="41.46470476873219013214111328125" lon="2.13757934980094432830810546875">
        <ele>202.600006103515625</ele>
        <time>2022-01-07T10:01:25.000Z</time>
      </trkpt>
      <trkpt lat="41.464689262211322784423828125" lon="2.13755437172949314117431640625">
        <ele>202.8000030517578125</ele>
        <time>2022-01-07T10:01:26.000Z</time>
      </trkpt>
      <trkpt lat="41.464689262211322784423828125" lon="2.13755437172949314117431640625">
        <ele>203</ele>
        <time>2022-01-07T10:01:27.000Z</time>
      </trkpt>
      <trkpt lat="41.464669816195964813232421875" lon="2.1375165693461894989013671875">
        <ele>203.1999969482421875</ele>
        <time>2022-01-07T10:01:28.000Z</time>
      </trkpt>
      <trkpt lat="41.4646585844457149505615234375" lon="2.13748111389577388763427734375">
        <ele>203.1999969482421875</ele>
        <time>2022-01-07T10:01:29.000Z</time>
      </trkpt>
      <trkpt lat="41.4646394737064838409423828125" lon="2.13741590268909931182861328125">
        <ele>203.399993896484375</ele>
        <time>2022-01-07T10:01:30.000Z</time>
      </trkpt>
      <trkpt lat="41.4646394737064838409423828125" lon="2.13741590268909931182861328125">
        <ele>203.600006103515625</ele>
        <time>2022-01-07T10:01:31.000Z</time>
      </trkpt>
      <trkpt lat="41.46463167853653430938720703125" lon="2.137393690645694732666015625">
        <ele>204</ele>
        <time>2022-01-07T10:01:32.000Z</time>
      </trkpt>
      <trkpt lat="41.4646191895008087158203125" lon="2.1373656950891017913818359375">
        <ele>204.399993896484375</ele>
        <time>2022-01-07T10:01:33.000Z</time>
      </trkpt>
      <trkpt lat="41.4645865000784397125244140625" lon="2.137303166091442108154296875">
        <ele>204.600006103515625</ele>
        <time>2022-01-07T10:01:34.000Z</time>
      </trkpt>
      <trkpt lat="41.46457292139530181884765625" lon="2.1372718177735805511474609375">
        <ele>204.8000030517578125</ele>
        <time>2022-01-07T10:01:35.000Z</time>
      </trkpt>
      <trkpt lat="41.46457292139530181884765625" lon="2.1372718177735805511474609375">
        <ele>205</ele>
        <time>2022-01-07T10:01:36.000Z</time>
      </trkpt>
      <trkpt lat="41.46455758251249790191650390625" lon="2.1372366137802600860595703125">
        <ele>205.1999969482421875</ele>
        <time>2022-01-07T10:01:37.000Z</time>
      </trkpt>
      <trkpt lat="41.4645258150994777679443359375" lon="2.137165367603302001953125">
        <ele>205.600006103515625</ele>
        <time>2022-01-07T10:01:38.000Z</time>
      </trkpt>
      <trkpt lat="41.4645097218453884124755859375" lon="2.13713292963802814483642578125">
        <ele>206</ele>
        <time>2022-01-07T10:01:39.000Z</time>
      </trkpt>
      <trkpt lat="41.46449656225740909576416015625" lon="2.13709923438727855682373046875">
        <ele>206.399993896484375</ele>
        <time>2022-01-07T10:01:40.000Z</time>
      </trkpt>
      <trkpt lat="41.4644832350313663482666015625" lon="2.13706637732684612274169921875">
        <ele>206.8000030517578125</ele>
        <time>2022-01-07T10:01:41.000Z</time>
      </trkpt>
      <trkpt lat="41.46446831524372100830078125" lon="2.13704173453152179718017578125">
        <ele>207.1999969482421875</ele>
        <time>2022-01-07T10:01:42.000Z</time>
      </trkpt>
      <trkpt lat="41.4644470252096652984619140625" lon="2.13700711727142333984375">
        <ele>207.600006103515625</ele>
        <time>2022-01-07T10:01:43.000Z</time>
      </trkpt>
      <trkpt lat="41.4644470252096652984619140625" lon="2.13700711727142333984375">
        <ele>208</ele>
        <time>2022-01-07T10:01:44.000Z</time>
      </trkpt>
      <trkpt lat="41.464408971369266510009765625" lon="2.13696210645139217376708984375">
        <ele>208.1999969482421875</ele>
        <time>2022-01-07T10:01:45.000Z</time>
      </trkpt>
      <trkpt lat="41.464408971369266510009765625" lon="2.13696210645139217376708984375">
        <ele>208.399993896484375</ele>
        <time>2022-01-07T10:01:46.000Z</time>
      </trkpt>
      <trkpt lat="41.46438944153487682342529296875" lon="2.13694073259830474853515625">
        <ele>208.600006103515625</ele>
        <time>2022-01-07T10:01:47.000Z</time>
      </trkpt>
      <trkpt lat="41.464338563382625579833984375" lon="2.136894129216670989990234375">
        <ele>209</ele>
        <time>2022-01-07T10:01:48.000Z</time>
      </trkpt>
      <trkpt lat="41.46431618370115756988525390625" lon="2.136872000992298126220703125">
        <ele>209.1999969482421875</ele>
        <time>2022-01-07T10:01:49.000Z</time>
      </trkpt>
      <trkpt lat="41.46429321728646755218505859375" lon="2.136850543320178985595703125">
        <ele>209.399993896484375</ele>
        <time>2022-01-07T10:01:50.000Z</time>
      </trkpt>
      <trkpt lat="41.46427108906209468841552734375" lon="2.13683134876191616058349609375">
        <ele>209.8000030517578125</ele>
        <time>2022-01-07T10:01:51.000Z</time>
      </trkpt>
      <trkpt lat="41.46427108906209468841552734375" lon="2.13683134876191616058349609375">
        <ele>210</ele>
        <time>2022-01-07T10:01:52.000Z</time>
      </trkpt>
      <trkpt lat="41.4642535708844661712646484375" lon="2.1368138305842876434326171875">
        <ele>210.399993896484375</ele>
        <time>2022-01-07T10:01:53.000Z</time>
      </trkpt>
      <trkpt lat="41.46422247402369976043701171875" lon="2.1367668919265270233154296875">
        <ele>210.8000030517578125</ele>
        <time>2022-01-07T10:01:54.000Z</time>
      </trkpt>
      <trkpt lat="41.46422247402369976043701171875" lon="2.1367668919265270233154296875">
        <ele>211.1999969482421875</ele>
        <time>2022-01-07T10:01:55.000Z</time>
      </trkpt>
      <trkpt lat="41.46420638076961040496826171875" lon="2.1367427520453929901123046875">
        <ele>211.399993896484375</ele>
        <time>2022-01-07T10:01:56.000Z</time>
      </trkpt>
      <trkpt lat="41.4641761220991611480712890625" lon="2.13669388554990291595458984375">
        <ele>211.600006103515625</ele>
        <time>2022-01-07T10:01:57.000Z</time>
      </trkpt>
      <trkpt lat="41.46416195668280124664306640625" lon="2.1366787143051624298095703125">
        <ele>212</ele>
        <time>2022-01-07T10:01:58.000Z</time>
      </trkpt>
      <trkpt lat="41.4641442708671092987060546875" lon="2.13666304014623165130615234375">
        <ele>212</ele>
        <time>2022-01-07T10:01:59.000Z</time>
      </trkpt>
      <trkpt lat="41.4641248248517513275146484375" lon="2.13664711453020572662353515625">
        <ele>212.1999969482421875</ele>
        <time>2022-01-07T10:02:00.000Z</time>
      </trkpt>
      <trkpt lat="41.46410948596894741058349609375" lon="2.1366311050951480865478515625">
        <ele>212.399993896484375</ele>
        <time>2022-01-07T10:02:01.000Z</time>
      </trkpt>
      <trkpt lat="41.46410948596894741058349609375" lon="2.1366311050951480865478515625">
        <ele>212.600006103515625</ele>
        <time>2022-01-07T10:02:02.000Z</time>
      </trkpt>
      <trkpt lat="41.46408719010651111602783203125" lon="2.13658827356994152069091796875">
        <ele>213</ele>
        <time>2022-01-07T10:02:03.000Z</time>
      </trkpt>
      <trkpt lat="41.46408719010651111602783203125" lon="2.13658827356994152069091796875">
        <ele>213.600006103515625</ele>
        <time>2022-01-07T10:02:04.000Z</time>
      </trkpt>
      <trkpt lat="41.46406958810985088348388671875" lon="2.13655340485274791717529296875">
        <ele>213.8000030517578125</ele>
        <time>2022-01-07T10:02:05.000Z</time>
      </trkpt>
      <trkpt lat="41.4640570990741252899169921875" lon="2.1365378983318805694580078125">
        <ele>214.399993896484375</ele>
        <time>2022-01-07T10:02:06.000Z</time>
      </trkpt>
      <trkpt lat="41.4640570990741252899169921875" lon="2.1365378983318805694580078125">
        <ele>214.8000030517578125</ele>
        <time>2022-01-07T10:02:07.000Z</time>
      </trkpt>
      <trkpt lat="41.4640326239168643951416015625" lon="2.13651434518396854400634765625">
        <ele>215.1999969482421875</ele>
        <time>2022-01-07T10:02:08.000Z</time>
      </trkpt>
      <trkpt lat="41.4640148542821407318115234375" lon="2.13649875484406948089599609375">
        <ele>215.600006103515625</ele>
        <time>2022-01-07T10:02:09.000Z</time>
      </trkpt>
      <trkpt lat="41.46399767138063907623291015625" lon="2.136485092341899871826171875">
        <ele>216</ele>
        <time>2022-01-07T10:02:10.000Z</time>
      </trkpt>
      <trkpt lat="41.46399767138063907623291015625" lon="2.136485092341899871826171875">
        <ele>216.600006103515625</ele>
        <time>2022-01-07T10:02:11.000Z</time>
      </trkpt>
      <trkpt lat="41.4639860205352306365966796875" lon="2.136472351849079132080078125">
        <ele>217</ele>
        <time>2022-01-07T10:02:12.000Z</time>
      </trkpt>
      <trkpt lat="41.46396271884441375732421875" lon="2.13643857277929782867431640625">
        <ele>217.600006103515625</ele>
        <time>2022-01-07T10:02:13.000Z</time>
      </trkpt>
      <trkpt lat="41.46395341493189334869384765625" lon="2.136422060430049896240234375">
        <ele>218</ele>
        <time>2022-01-07T10:02:14.000Z</time>
      </trkpt>
      <trkpt lat="41.4639432728290557861328125" lon="2.1364068053662776947021484375">
        <ele>218.399993896484375</ele>
        <time>2022-01-07T10:02:15.000Z</time>
      </trkpt>
      <trkpt lat="41.4639432728290557861328125" lon="2.1364068053662776947021484375">
        <ele>218.8000030517578125</ele>
        <time>2022-01-07T10:02:16.000Z</time>
      </trkpt>
      <trkpt lat="41.4639363996684551239013671875" lon="2.1363933943212032318115234375">
        <ele>219.1999969482421875</ele>
        <time>2022-01-07T10:02:17.000Z</time>
      </trkpt>
      <trkpt lat="41.46391787566244602203369140625" lon="2.1363471262156963348388671875">
        <ele>219.600006103515625</ele>
        <time>2022-01-07T10:02:18.000Z</time>
      </trkpt>
      <trkpt lat="41.46390697918832302093505859375" lon="2.13632441125810146331787109375">
        <ele>220</ele>
        <time>2022-01-07T10:02:19.000Z</time>
      </trkpt>
      <trkpt lat="41.46389759145677089691162109375" lon="2.13630898855626583099365234375">
        <ele>220.399993896484375</ele>
        <time>2022-01-07T10:02:20.000Z</time>
      </trkpt>
      <trkpt lat="41.46389759145677089691162109375" lon="2.13630898855626583099365234375">
        <ele>220.8000030517578125</ele>
        <time>2022-01-07T10:02:21.000Z</time>
      </trkpt>
      <trkpt lat="41.46388225257396697998046875" lon="2.1362887881696224212646484375">
        <ele>221.1999969482421875</ele>
        <time>2022-01-07T10:02:22.000Z</time>
      </trkpt>
      <trkpt lat="41.46384696476161479949951171875" lon="2.1362472139298915863037109375">
        <ele>221.600006103515625</ele>
        <time>2022-01-07T10:02:23.000Z</time>
      </trkpt>
      <trkpt lat="41.46384696476161479949951171875" lon="2.1362472139298915863037109375">
        <ele>222</ele>
        <time>2022-01-07T10:02:24.000Z</time>
      </trkpt>
      <trkpt lat="41.463833637535572052001953125" lon="2.13622801937162876129150390625">
        <ele>222.1999969482421875</ele>
        <time>2022-01-07T10:02:25.000Z</time>
      </trkpt>
      <trkpt lat="41.46382651291787624359130859375" lon="2.13621041737496852874755859375">
        <ele>222.600006103515625</ele>
        <time>2022-01-07T10:02:26.000Z</time>
      </trkpt>
      <trkpt lat="41.46381645463407039642333984375" lon="2.13618644513189792633056640625">
        <ele>222.8000030517578125</ele>
        <time>2022-01-07T10:02:27.000Z</time>
      </trkpt>
      <trkpt lat="41.4638036303222179412841796875" lon="2.1361573599278926849365234375">
        <ele>222.8000030517578125</ele>
        <time>2022-01-07T10:02:28.000Z</time>
      </trkpt>
      <trkpt lat="41.4637801609933376312255859375" lon="2.13611234910786151885986328125">
        <ele>223</ele>
        <time>2022-01-07T10:02:29.000Z</time>
      </trkpt>
      <trkpt lat="41.4637657441198825836181640625" lon="2.13609240017831325531005859375">
        <ele>223.1999969482421875</ele>
        <time>2022-01-07T10:02:30.000Z</time>
      </trkpt>
      <trkpt lat="41.4637657441198825836181640625" lon="2.13609240017831325531005859375">
        <ele>223.399993896484375</ele>
        <time>2022-01-07T10:02:31.000Z</time>
      </trkpt>
      <trkpt lat="41.46375350654125213623046875" lon="2.1360792405903339385986328125">
        <ele>223.600006103515625</ele>
        <time>2022-01-07T10:02:32.000Z</time>
      </trkpt>
      <trkpt lat="41.46371603943407535552978515625" lon="2.13605887256562709808349609375">
        <ele>223.8000030517578125</ele>
        <time>2022-01-07T10:02:33.000Z</time>
      </trkpt>
      <trkpt lat="41.46371603943407535552978515625" lon="2.13605887256562709808349609375">
        <ele>224.1999969482421875</ele>
        <time>2022-01-07T10:02:34.000Z</time>
      </trkpt>
      <trkpt lat="41.46368402056396007537841796875" lon="2.1360376663506031036376953125">
        <ele>224.600006103515625</ele>
        <time>2022-01-07T10:02:35.000Z</time>
      </trkpt>
      <trkpt lat="41.46368402056396007537841796875" lon="2.1360376663506031036376953125">
        <ele>225</ele>
        <time>2022-01-07T10:02:36.000Z</time>
      </trkpt>
      <trkpt lat="41.4636742137372493743896484375" lon="2.13602609932422637939453125">
        <ele>225.399993896484375</ele>
        <time>2022-01-07T10:02:37.000Z</time>
      </trkpt>
      <trkpt lat="41.46365300752222537994384765625" lon="2.13598720729351043701171875">
        <ele>226</ele>
        <time>2022-01-07T10:02:38.000Z</time>
      </trkpt>
      <trkpt lat="41.4636410214006900787353515625" lon="2.13597052730619907379150390625">
        <ele>226.399993896484375</ele>
        <time>2022-01-07T10:02:39.000Z</time>
      </trkpt>
      <trkpt lat="41.4636410214006900787353515625" lon="2.13597052730619907379150390625">
        <ele>226.8000030517578125</ele>
        <time>2022-01-07T10:02:40.000Z</time>
      </trkpt>
      <trkpt lat="41.4636138640344142913818359375" lon="2.13595074601471424102783203125">
        <ele>227.1999969482421875</ele>
        <time>2022-01-07T10:02:41.000Z</time>
      </trkpt>
      <trkpt lat="41.46359416656196117401123046875" lon="2.1359474770724773406982421875">
        <ele>227.399993896484375</ele>
        <time>2022-01-07T10:02:42.000Z</time>
      </trkpt>
      <trkpt lat="41.46359416656196117401123046875" lon="2.1359474770724773406982421875">
        <ele>227.600006103515625</ele>
        <time>2022-01-07T10:02:43.000Z</time>
      </trkpt>
      <trkpt lat="41.463561393320560455322265625" lon="2.13594336993992328643798828125">
        <ele>228</ele>
        <time>2022-01-07T10:02:44.000Z</time>
      </trkpt>
      <trkpt lat="41.463542282581329345703125" lon="2.13593984954059123992919921875">
        <ele>228.399993896484375</ele>
        <time>2022-01-07T10:02:45.000Z</time>
      </trkpt>
      <trkpt lat="41.46352426148951053619384765625" lon="2.13593850843608379364013671875">
        <ele>228.8000030517578125</ele>
        <time>2022-01-07T10:02:46.000Z</time>
      </trkpt>
      <trkpt lat="41.46352426148951053619384765625" lon="2.13593850843608379364013671875">
        <ele>229.1999969482421875</ele>
        <time>2022-01-07T10:02:47.000Z</time>
      </trkpt>
      <trkpt lat="41.46350615657866001129150390625" lon="2.13593699969351291656494140625">
        <ele>229.600006103515625</ele>
        <time>2022-01-07T10:02:48.000Z</time>
      </trkpt>
      <trkpt lat="41.463466845452785491943359375" lon="2.1359424479305744171142578125">
        <ele>230</ele>
        <time>2022-01-07T10:02:49.000Z</time>
      </trkpt>
      <trkpt lat="41.4634552784264087677001953125" lon="2.1359458006918430328369140625">
        <ele>230.399993896484375</ele>
        <time>2022-01-07T10:02:50.000Z</time>
      </trkpt>
      <trkpt lat="41.4634390175342559814453125" lon="2.135950662195682525634765625">
        <ele>230.8000030517578125</ele>
        <time>2022-01-07T10:02:51.000Z</time>
      </trkpt>
      <trkpt lat="41.4634390175342559814453125" lon="2.135950662195682525634765625">
        <ele>231</ele>
        <time>2022-01-07T10:02:52.000Z</time>
      </trkpt>
      <trkpt lat="41.463419906795024871826171875" lon="2.13595770299434661865234375">
        <ele>231.1999969482421875</ele>
        <time>2022-01-07T10:02:53.000Z</time>
      </trkpt>
      <trkpt lat="41.4633976109325885772705078125" lon="2.13596348650753498077392578125">
        <ele>231.399993896484375</ele>
        <time>2022-01-07T10:02:54.000Z</time>
      </trkpt>
      <trkpt lat="41.463364921510219573974609375" lon="2.13595828972756862640380859375">
        <ele>231.8000030517578125</ele>
        <time>2022-01-07T10:02:55.000Z</time>
      </trkpt>
      <trkpt lat="41.46334740333259105682373046875" lon="2.13595041073858737945556640625">
        <ele>232</ele>
        <time>2022-01-07T10:02:56.000Z</time>
      </trkpt>
      <trkpt lat="41.46334740333259105682373046875" lon="2.13595041073858737945556640625">
        <ele>232.399993896484375</ele>
        <time>2022-01-07T10:02:57.000Z</time>
      </trkpt>
      <trkpt lat="41.4633275382220745086669921875" lon="2.13594219647347927093505859375">
        <ele>232.399993896484375</ele>
        <time>2022-01-07T10:02:58.000Z</time>
      </trkpt>
      <trkpt lat="41.46329493261873722076416015625" lon="2.1359451301395893096923828125">
        <ele>232.8000030517578125</ele>
        <time>2022-01-07T10:02:59.000Z</time>
      </trkpt>
      <trkpt lat="41.46329493261873722076416015625" lon="2.1359451301395893096923828125">
        <ele>233</ele>
        <time>2022-01-07T10:03:00.000Z</time>
      </trkpt>
      <trkpt lat="41.46327749826014041900634765625" lon="2.13595191948115825653076171875">
        <ele>233.399993896484375</ele>
        <time>2022-01-07T10:03:01.000Z</time>
      </trkpt>
      <trkpt lat="41.4632447250187397003173828125" lon="2.1359924040734767913818359375">
        <ele>233.8000030517578125</ele>
        <time>2022-01-07T10:03:02.000Z</time>
      </trkpt>
      <trkpt lat="41.46322838030755519866943359375" lon="2.13601226918399333953857421875">
        <ele>234.1999969482421875</ele>
        <time>2022-01-07T10:03:03.000Z</time>
      </trkpt>
      <trkpt lat="41.46322838030755519866943359375" lon="2.13601226918399333953857421875">
        <ele>234.600006103515625</ele>
        <time>2022-01-07T10:03:04.000Z</time>
      </trkpt>
      <trkpt lat="41.46319560706615447998046875" lon="2.1360348165035247802734375">
        <ele>235</ele>
        <time>2022-01-07T10:03:05.000Z</time>
      </trkpt>
      <trkpt lat="41.4631749875843524932861328125" lon="2.136045210063457489013671875">
        <ele>235.1999969482421875</ele>
        <time>2022-01-07T10:03:06.000Z</time>
      </trkpt>
      <trkpt lat="41.46315311081707477569580078125" lon="2.13605401106178760528564453125">
        <ele>235.600006103515625</ele>
        <time>2022-01-07T10:03:07.000Z</time>
      </trkpt>
      <trkpt lat="41.46315311081707477569580078125" lon="2.13605401106178760528564453125">
        <ele>236</ele>
        <time>2022-01-07T10:03:08.000Z</time>
      </trkpt>
      <trkpt lat="41.46311673335731029510498046875" lon="2.136055268347263336181640625">
        <ele>236.1999969482421875</ele>
        <time>2022-01-07T10:03:09.000Z</time>
      </trkpt>
      <trkpt lat="41.46310449577867984771728515625" lon="2.1360554359853267669677734375">
        <ele>236.399993896484375</ele>
        <time>2022-01-07T10:03:10.000Z</time>
      </trkpt>
      <trkpt lat="41.46308563649654388427734375" lon="2.13605551980435848236083984375">
        <ele>236.600006103515625</ele>
        <time>2022-01-07T10:03:11.000Z</time>
      </trkpt>
      <trkpt lat="41.46308563649654388427734375" lon="2.13605551980435848236083984375">
        <ele>236.600006103515625</ele>
        <time>2022-01-07T10:03:12.000Z</time>
      </trkpt>
      <trkpt lat="41.46304179914295673370361328125" lon="2.13607496581971645355224609375">
        <ele>236.8000030517578125</ele>
        <time>2022-01-07T10:03:13.000Z</time>
      </trkpt>
      <trkpt lat="41.46302000619471073150634765625" lon="2.13608443737030029296875">
        <ele>237</ele>
        <time>2022-01-07T10:03:14.000Z</time>
      </trkpt>
      <trkpt lat="41.4630036614835262298583984375" lon="2.13608887977898120880126953125">
        <ele>237.1999969482421875</ele>
        <time>2022-01-07T10:03:15.000Z</time>
      </trkpt>
      <trkpt lat="41.4629872329533100128173828125" lon="2.13609986007213592529296875">
        <ele>237.600006103515625</ele>
        <time>2022-01-07T10:03:16.000Z</time>
      </trkpt>
      <trkpt lat="41.4629872329533100128173828125" lon="2.13609986007213592529296875">
        <ele>237.8000030517578125</ele>
        <time>2022-01-07T10:03:17.000Z</time>
      </trkpt>
      <trkpt lat="41.4629535377025604248046875" lon="2.136133052408695220947265625">
        <ele>238</ele>
        <time>2022-01-07T10:03:18.000Z</time>
      </trkpt>
      <trkpt lat="41.4629535377025604248046875" lon="2.136133052408695220947265625">
        <ele>238.399993896484375</ele>
        <time>2022-01-07T10:03:19.000Z</time>
      </trkpt>
      <trkpt lat="41.4629245363175868988037109375" lon="2.1361587010324001312255859375">
        <ele>238.8000030517578125</ele>
        <time>2022-01-07T10:03:20.000Z</time>
      </trkpt>
      <trkpt lat="41.4629245363175868988037109375" lon="2.1361587010324001312255859375">
        <ele>239.1999969482421875</ele>
        <time>2022-01-07T10:03:21.000Z</time>
      </trkpt>
      <trkpt lat="41.4629106223583221435546875" lon="2.1361727826297283172607421875">
        <ele>239.600006103515625</ele>
        <time>2022-01-07T10:03:22.000Z</time>
      </trkpt>
      <trkpt lat="41.4628816209733486175537109375" lon="2.1362113393843173980712890625">
        <ele>239.8000030517578125</ele>
        <time>2022-01-07T10:03:23.000Z</time>
      </trkpt>
      <trkpt lat="41.4628816209733486175537109375" lon="2.1362113393843173980712890625">
        <ele>240.1999969482421875</ele>
        <time>2022-01-07T10:03:24.000Z</time>
      </trkpt>
      <trkpt lat="41.462857984006404876708984375" lon="2.13623799383640289306640625">
        <ele>240.399993896484375</ele>
        <time>2022-01-07T10:03:25.000Z</time>
      </trkpt>
      <trkpt lat="41.462857984006404876708984375" lon="2.13623799383640289306640625">
        <ele>240.600006103515625</ele>
        <time>2022-01-07T10:03:26.000Z</time>
      </trkpt>
      <trkpt lat="41.462847255170345306396484375" lon="2.13624109514057636260986328125">
        <ele>240.600006103515625</ele>
        <time>2022-01-07T10:03:27.000Z</time>
      </trkpt>
      <trkpt lat="41.46282537840306758880615234375" lon="2.13624662719666957855224609375">
        <ele>240.8000030517578125</ele>
        <time>2022-01-07T10:03:28.000Z</time>
      </trkpt>
      <trkpt lat="41.4628159068524837493896484375" lon="2.13624679483473300933837890625">
        <ele>241</ele>
        <time>2022-01-07T10:03:29.000Z</time>
      </trkpt>
      <trkpt lat="41.46280744113028049468994140625" lon="2.13624696247279644012451171875">
        <ele>241</ele>
        <time>2022-01-07T10:03:30.000Z</time>
      </trkpt>
      <trkpt lat="41.46280744113028049468994140625" lon="2.13624696247279644012451171875">
        <ele>241.1999969482421875</ele>
        <time>2022-01-07T10:03:31.000Z</time>
      </trkpt>
      <trkpt lat="41.4627957902848720550537109375" lon="2.13624763302505016326904296875">
        <ele>241.399993896484375</ele>
        <time>2022-01-07T10:03:32.000Z</time>
      </trkpt>
      <trkpt lat="41.4627830497920513153076171875" lon="2.13625048287212848663330078125">
        <ele>241.399993896484375</ele>
        <time>2022-01-07T10:03:33.000Z</time>
      </trkpt>
      <trkpt lat="41.46274826489388942718505859375" lon="2.13624897412955760955810546875">
        <ele>241.399993896484375</ele>
        <time>2022-01-07T10:03:34.000Z</time>
      </trkpt>
      <trkpt lat="41.46273619495332241058349609375" lon="2.1362405084073543548583984375">
        <ele>241.600006103515625</ele>
        <time>2022-01-07T10:03:35.000Z</time>
      </trkpt>
      <trkpt lat="41.46273619495332241058349609375" lon="2.1362405084073543548583984375">
        <ele>241.600006103515625</ele>
        <time>2022-01-07T10:03:36.000Z</time>
      </trkpt>
      <trkpt lat="41.4627230353653430938720703125" lon="2.13622751645743846893310546875">
        <ele>241.600006103515625</ele>
        <time>2022-01-07T10:03:37.000Z</time>
      </trkpt>
      <trkpt lat="41.462697722017765045166015625" lon="2.1362118422985076904296875">
        <ele>241.600006103515625</ele>
        <time>2022-01-07T10:03:38.000Z</time>
      </trkpt>
      <trkpt lat="41.46268389187753200531005859375" lon="2.13620522059500217437744140625">
        <ele>241.600006103515625</ele>
        <time>2022-01-07T10:03:39.000Z</time>
      </trkpt>
      <trkpt lat="41.46266696043312549591064453125" lon="2.13619968853890895843505859375">
        <ele>241.600006103515625</ele>
        <time>2022-01-07T10:03:40.000Z</time>
      </trkpt>
      <trkpt lat="41.46264977753162384033203125" lon="2.13619348593056201934814453125">
        <ele>241.399993896484375</ele>
        <time>2022-01-07T10:03:41.000Z</time>
      </trkpt>
      <trkpt lat="41.4626264758408069610595703125" lon="2.136175967752933502197265625">
        <ele>241.399993896484375</ele>
        <time>2022-01-07T10:03:42.000Z</time>
      </trkpt>
      <trkpt lat="41.46260677836835384368896484375" lon="2.136158533394336700439453125">
        <ele>241.1999969482421875</ele>
        <time>2022-01-07T10:03:43.000Z</time>
      </trkpt>
      <trkpt lat="41.46260677836835384368896484375" lon="2.136158533394336700439453125">
        <ele>241</ele>
        <time>2022-01-07T10:03:44.000Z</time>
      </trkpt>
      <trkpt lat="41.462587751448154449462890625" lon="2.1361447870731353759765625">
        <ele>241</ele>
        <time>2022-01-07T10:03:45.000Z</time>
      </trkpt>
      <trkpt lat="41.4625704847276210784912109375" lon="2.13613967411220073699951171875">
        <ele>240.8000030517578125</ele>
        <time>2022-01-07T10:03:46.000Z</time>
      </trkpt>
      <trkpt lat="41.46251709200441837310791015625" lon="2.1361231617629528045654296875">
        <ele>240.8000030517578125</ele>
        <time>2022-01-07T10:03:47.000Z</time>
      </trkpt>
      <trkpt lat="41.4624973945319652557373046875" lon="2.1361258439719676971435546875">
        <ele>240.600006103515625</ele>
        <time>2022-01-07T10:03:48.000Z</time>
      </trkpt>
      <trkpt lat="41.4624806307256221771240234375" lon="2.1361261792480945587158203125">
        <ele>240.600006103515625</ele>
        <time>2022-01-07T10:03:49.000Z</time>
      </trkpt>
      <trkpt lat="41.46247132681310176849365234375" lon="2.1361233294010162353515625">
        <ele>240.399993896484375</ele>
        <time>2022-01-07T10:03:50.000Z</time>
      </trkpt>
      <trkpt lat="41.46246696822345256805419921875" lon="2.13612156920135021209716796875">
        <ele>240.399993896484375</ele>
        <time>2022-01-07T10:03:51.000Z</time>
      </trkpt>
      <trkpt lat="41.46246696822345256805419921875" lon="2.13612156920135021209716796875">
        <ele>240.399993896484375</ele>
        <time>2022-01-07T10:03:52.000Z</time>
      </trkpt>
      <trkpt lat="41.46580765955150127410888671875" lon="2.12308108806610107421875">
        <ele>129.8000030517578125</ele>
        <time>2022-01-07T10:26:28.000Z</time>
      </trkpt>
      <trkpt lat="41.46580765955150127410888671875" lon="2.12308108806610107421875">
        <ele>155.1999969482421875</ele>
        <time>2022-01-07T10:26:29.000Z</time>
      </trkpt>
      <trkpt lat="41.46578234620392322540283203125" lon="2.1230755560100078582763671875">
        <ele>155.399993896484375</ele>
        <time>2022-01-07T10:28:18.000Z</time>
      </trkpt>
      <trkpt lat="41.46576155908405780792236328125" lon="2.12306926958262920379638671875">
        <ele>155.399993896484375</ele>
        <time>2022-01-07T10:28:19.000Z</time>
      </trkpt>
      <trkpt lat="41.4657364971935749053955078125" lon="2.1230542659759521484375">
        <ele>155.399993896484375</ele>
        <time>2022-01-07T10:28:20.000Z</time>
      </trkpt>
      <trkpt lat="41.46571210585534572601318359375" lon="2.123030461370944976806640625">
        <ele>155.399993896484375</ele>
        <time>2022-01-07T10:28:21.000Z</time>
      </trkpt>
      <trkpt lat="41.46569601260125637054443359375" lon="2.123010344803333282470703125">
        <ele>155.399993896484375</ele>
        <time>2022-01-07T10:28:22.000Z</time>
      </trkpt>
      <trkpt lat="41.46567790769040584564208984375" lon="2.1229907311499118804931640625">
        <ele>155.399993896484375</ele>
        <time>2022-01-07T10:28:23.000Z</time>
      </trkpt>
      <trkpt lat="41.46566097624599933624267578125" lon="2.12297606281936168670654296875">
        <ele>155.399993896484375</ele>
        <time>2022-01-07T10:28:24.000Z</time>
      </trkpt>
      <trkpt lat="41.4656352438032627105712890625" lon="2.12295896373689174652099609375">
        <ele>155.399993896484375</ele>
        <time>2022-01-07T10:28:25.000Z</time>
      </trkpt>
      <trkpt lat="41.465618647634983062744140625" lon="2.12295192293822765350341796875">
        <ele>155.399993896484375</ele>
        <time>2022-01-07T10:28:26.000Z</time>
      </trkpt>
      <trkpt lat="41.46559760905802249908447265625" lon="2.1229374222457408905029296875">
        <ele>155.399993896484375</ele>
        <time>2022-01-07T10:28:27.000Z</time>
      </trkpt>
      <trkpt lat="41.465583108365535736083984375" lon="2.1229233406484127044677734375">
        <ele>155.399993896484375</ele>
        <time>2022-01-07T10:28:28.000Z</time>
      </trkpt>
      <trkpt lat="41.46556944586336612701416015625" lon="2.1229142881929874420166015625">
        <ele>155.399993896484375</ele>
        <time>2022-01-07T10:28:29.000Z</time>
      </trkpt>
      <trkpt lat="41.4655474014580249786376953125" lon="2.12290473282337188720703125">
        <ele>155.399993896484375</ele>
        <time>2022-01-07T10:28:30.000Z</time>
      </trkpt>
      <trkpt lat="41.46552585996687412261962890625" lon="2.1228968538343906402587890625">
        <ele>155.600006103515625</ele>
        <time>2022-01-07T10:28:31.000Z</time>
      </trkpt>
      <trkpt lat="41.4655041508376598358154296875" lon="2.122890986502170562744140625">
        <ele>155.8000030517578125</ele>
        <time>2022-01-07T10:28:32.000Z</time>
      </trkpt>
      <trkpt lat="41.4654826931655406951904296875" lon="2.122886963188648223876953125">
        <ele>156.1999969482421875</ele>
        <time>2022-01-07T10:28:33.000Z</time>
      </trkpt>
      <trkpt lat="41.46546115167438983917236328125" lon="2.12288252077996730804443359375">
        <ele>156.399993896484375</ele>
        <time>2022-01-07T10:28:34.000Z</time>
      </trkpt>
      <trkpt lat="41.46543667651712894439697265625" lon="2.12287564761936664581298828125">
        <ele>156.399993896484375</ele>
        <time>2022-01-07T10:28:35.000Z</time>
      </trkpt>
      <trkpt lat="41.46541236899793148040771484375" lon="2.12286206893622875213623046875">
        <ele>156.600006103515625</ele>
        <time>2022-01-07T10:28:36.000Z</time>
      </trkpt>
      <trkpt lat="41.4653861336410045623779296875" lon="2.1228485740721225738525390625">
        <ele>157</ele>
        <time>2022-01-07T10:28:37.000Z</time>
      </trkpt>
      <trkpt lat="41.46535838954150676727294921875" lon="2.12283742614090442657470703125">
        <ele>157</ele>
        <time>2022-01-07T10:28:38.000Z</time>
      </trkpt>
      <trkpt lat="41.46533072926104068756103515625" lon="2.1228249371051788330078125">
        <ele>157.1999969482421875</ele>
        <time>2022-01-07T10:28:39.000Z</time>
      </trkpt>
      <trkpt lat="41.465303488075733184814453125" lon="2.12280750274658203125">
        <ele>157.1999969482421875</ele>
        <time>2022-01-07T10:28:40.000Z</time>
      </trkpt>
      <trkpt lat="41.465303488075733184814453125" lon="2.12280750274658203125">
        <ele>157.1999969482421875</ele>
        <time>2022-01-07T10:28:41.000Z</time>
      </trkpt>
      <trkpt lat="41.46524221636354923248291015625" lon="2.12276919744908809661865234375">
        <ele>157.399993896484375</ele>
        <time>2022-01-07T10:28:42.000Z</time>
      </trkpt>
      <trkpt lat="41.4652111195027828216552734375" lon="2.12274648249149322509765625">
        <ele>157.399993896484375</ele>
        <time>2022-01-07T10:28:43.000Z</time>
      </trkpt>
      <trkpt lat="41.4652111195027828216552734375" lon="2.12274648249149322509765625">
        <ele>157.399993896484375</ele>
        <time>2022-01-07T10:28:44.000Z</time>
      </trkpt>
      <trkpt lat="41.4651578105986118316650390625" lon="2.12269661016762256622314453125">
        <ele>157.399993896484375</ele>
        <time>2022-01-07T10:28:45.000Z</time>
      </trkpt>
      <trkpt lat="41.46513325162231922149658203125" lon="2.122669033706188201904296875">
        <ele>157.399993896484375</ele>
        <time>2022-01-07T10:28:46.000Z</time>
      </trkpt>
      <trkpt lat="41.46510802209377288818359375" lon="2.12263860739767551422119140625">
        <ele>157.399993896484375</ele>
        <time>2022-01-07T10:28:47.000Z</time>
      </trkpt>
      <trkpt lat="41.46508228965103626251220703125" lon="2.122604660689830780029296875">
        <ele>157.399993896484375</ele>
        <time>2022-01-07T10:28:48.000Z</time>
      </trkpt>
      <trkpt lat="41.4650592394173145294189453125" lon="2.1225701272487640380859375">
        <ele>157.600006103515625</ele>
        <time>2022-01-07T10:28:49.000Z</time>
      </trkpt>
      <trkpt lat="41.46503820084035396575927734375" lon="2.12253634817898273468017578125">
        <ele>157.600006103515625</ele>
        <time>2022-01-07T10:28:50.000Z</time>
      </trkpt>
      <trkpt lat="41.46501892246305942535400390625" lon="2.12250416167080402374267578125">
        <ele>157.8000030517578125</ele>
        <time>2022-01-07T10:28:51.000Z</time>
      </trkpt>
      <trkpt lat="41.46499997936189174652099609375" lon="2.12247365154325962066650390625">
        <ele>158</ele>
        <time>2022-01-07T10:28:52.000Z</time>
      </trkpt>
      <trkpt lat="41.46497969515621662139892578125" lon="2.12244397960603237152099609375">
        <ele>158.1999969482421875</ele>
        <time>2022-01-07T10:28:53.000Z</time>
      </trkpt>
      <trkpt lat="41.46495915949344635009765625" lon="2.12241497822105884552001953125">
        <ele>158.399993896484375</ele>
        <time>2022-01-07T10:28:54.000Z</time>
      </trkpt>
      <trkpt lat="41.46495915949344635009765625" lon="2.12241497822105884552001953125">
        <ele>158.600006103515625</ele>
        <time>2022-01-07T10:28:55.000Z</time>
      </trkpt>
      <trkpt lat="41.46492655389010906219482421875" lon="2.1223644353449344635009765625">
        <ele>158.8000030517578125</ele>
        <time>2022-01-07T10:28:56.000Z</time>
      </trkpt>
      <trkpt lat="41.4649144001305103302001953125" lon="2.12234356440603733062744140625">
        <ele>159</ele>
        <time>2022-01-07T10:28:57.000Z</time>
      </trkpt>
      <trkpt lat="41.4649046771228313446044921875" lon="2.12232780642807483673095703125">
        <ele>159.1999969482421875</ele>
        <time>2022-01-07T10:28:58.000Z</time>
      </trkpt>
      <trkpt lat="41.46489185281097888946533203125" lon="2.12230735458433628082275390625">
        <ele>159.399993896484375</ele>
        <time>2022-01-07T10:28:59.000Z</time>
      </trkpt>
      <trkpt lat="41.4648751728236675262451171875" lon="2.12228572927415370941162109375">
        <ele>159.8000030517578125</ele>
        <time>2022-01-07T10:29:00.000Z</time>
      </trkpt>
      <trkpt lat="41.46486167795956134796142578125" lon="2.1222564764320850372314453125">
        <ele>159.8000030517578125</ele>
        <time>2022-01-07T10:29:01.000Z</time>
      </trkpt>
      <trkpt lat="41.4648525416851043701171875" lon="2.122226469218730926513671875">
        <ele>160.1999969482421875</ele>
        <time>2022-01-07T10:29:02.000Z</time>
      </trkpt>
      <trkpt lat="41.46484315395355224609375" lon="2.122200317680835723876953125">
        <ele>160.399993896484375</ele>
        <time>2022-01-07T10:29:03.000Z</time>
      </trkpt>
      <trkpt lat="41.46483309566974639892578125" lon="2.1221763454377651214599609375">
        <ele>160.600006103515625</ele>
        <time>2022-01-07T10:29:04.000Z</time>
      </trkpt>
      <trkpt lat="41.46482261829078197479248046875" lon="2.1221543848514556884765625">
        <ele>160.600006103515625</ele>
        <time>2022-01-07T10:29:05.000Z</time>
      </trkpt>
      <trkpt lat="41.46481138654053211212158203125" lon="2.122128903865814208984375">
        <ele>160.8000030517578125</ele>
        <time>2022-01-07T10:29:06.000Z</time>
      </trkpt>
      <trkpt lat="41.46480132825672626495361328125" lon="2.1221025846898555755615234375">
        <ele>161.1999969482421875</ele>
        <time>2022-01-07T10:29:07.000Z</time>
      </trkpt>
      <trkpt lat="41.46479378454387187957763671875" lon="2.12207785807549953460693359375">
        <ele>161.399993896484375</ele>
        <time>2022-01-07T10:29:08.000Z</time>
      </trkpt>
      <trkpt lat="41.4647796191275119781494140625" lon="2.1220502816140651702880859375">
        <ele>161.399993896484375</ele>
        <time>2022-01-07T10:29:09.000Z</time>
      </trkpt>
      <trkpt lat="41.46476394496858119964599609375" lon="2.12202371098101139068603515625">
        <ele>161.600006103515625</ele>
        <time>2022-01-07T10:29:10.000Z</time>
      </trkpt>
      <trkpt lat="41.46476394496858119964599609375" lon="2.12202371098101139068603515625">
        <ele>161.8000030517578125</ele>
        <time>2022-01-07T10:29:11.000Z</time>
      </trkpt>
      <trkpt lat="41.46473293192684650421142578125" lon="2.1219627745449542999267578125">
        <ele>161.8000030517578125</ele>
        <time>2022-01-07T10:29:12.000Z</time>
      </trkpt>
      <trkpt lat="41.46471616812050342559814453125" lon="2.12192036211490631103515625">
        <ele>161.8000030517578125</ele>
        <time>2022-01-07T10:29:13.000Z</time>
      </trkpt>
      <trkpt lat="41.4647075347602367401123046875" lon="2.1218880079686641693115234375">
        <ele>161.8000030517578125</ele>
        <time>2022-01-07T10:29:14.000Z</time>
      </trkpt>
      <trkpt lat="41.46469672210514545440673828125" lon="2.121854983270168304443359375">
        <ele>162</ele>
        <time>2022-01-07T10:29:15.000Z</time>
      </trkpt>
      <trkpt lat="41.46468364633619785308837890625" lon="2.12182581424713134765625">
        <ele>162</ele>
        <time>2022-01-07T10:29:16.000Z</time>
      </trkpt>
      <trkpt lat="41.4646701514720916748046875" lon="2.12179320864379405975341796875">
        <ele>162</ele>
        <time>2022-01-07T10:29:17.000Z</time>
      </trkpt>
      <trkpt lat="41.46465606987476348876953125" lon="2.12175968103110790252685546875">
        <ele>162</ele>
        <time>2022-01-07T10:29:18.000Z</time>
      </trkpt>
      <trkpt lat="41.4646414853632450103759765625" lon="2.12172917090356349945068359375">
        <ele>162.1999969482421875</ele>
        <time>2022-01-07T10:29:19.000Z</time>
      </trkpt>
      <trkpt lat="41.4646327681839466094970703125" lon="2.12170000188052654266357421875">
        <ele>162.1999969482421875</ele>
        <time>2022-01-07T10:29:20.000Z</time>
      </trkpt>
      <trkpt lat="41.46462195552885532379150390625" lon="2.12167267687618732452392578125">
        <ele>162.1999969482421875</ele>
        <time>2022-01-07T10:29:21.000Z</time>
      </trkpt>
      <trkpt lat="41.4646082930266857147216796875" lon="2.12164971046149730682373046875">
        <ele>162.399993896484375</ele>
        <time>2022-01-07T10:29:22.000Z</time>
      </trkpt>
      <trkpt lat="41.464591361582279205322265625" lon="2.12162205018103122711181640625">
        <ele>162.399993896484375</ele>
        <time>2022-01-07T10:29:23.000Z</time>
      </trkpt>
      <trkpt lat="41.464575938880443572998046875" lon="2.12159313261508941650390625">
        <ele>162.8000030517578125</ele>
        <time>2022-01-07T10:29:24.000Z</time>
      </trkpt>
      <trkpt lat="41.46455959416925907135009765625" lon="2.12156019173562526702880859375">
        <ele>163.1999969482421875</ele>
        <time>2022-01-07T10:29:25.000Z</time>
      </trkpt>
      <trkpt lat="41.4645466022193431854248046875" lon="2.1215267479419708251953125">
        <ele>163.399993896484375</ele>
        <time>2022-01-07T10:29:26.000Z</time>
      </trkpt>
      <trkpt lat="41.4645466022193431854248046875" lon="2.1215267479419708251953125">
        <ele>163.600006103515625</ele>
        <time>2022-01-07T10:29:27.000Z</time>
      </trkpt>
      <trkpt lat="41.46452321670949459075927734375" lon="2.1214575134217739105224609375">
        <ele>163.399993896484375</ele>
        <time>2022-01-07T10:29:28.000Z</time>
      </trkpt>
      <trkpt lat="41.46451600827276706695556640625" lon="2.121422477066516876220703125">
        <ele>163.600006103515625</ele>
        <time>2022-01-07T10:29:29.000Z</time>
      </trkpt>
      <trkpt lat="41.464510224759578704833984375" lon="2.12138869799673557281494140625">
        <ele>163.8000030517578125</ele>
        <time>2022-01-07T10:29:30.000Z</time>
      </trkpt>
      <trkpt lat="41.46450343541800975799560546875" lon="2.1213576011359691619873046875">
        <ele>164</ele>
        <time>2022-01-07T10:29:31.000Z</time>
      </trkpt>
      <trkpt lat="41.4644996635615825653076171875" lon="2.12132767774164676666259765625">
        <ele>164</ele>
        <time>2022-01-07T10:29:32.000Z</time>
      </trkpt>
      <trkpt lat="41.4644944667816162109375" lon="2.1212982572615146636962890625">
        <ele>164</ele>
        <time>2022-01-07T10:29:33.000Z</time>
      </trkpt>
      <trkpt lat="41.46448650397360324859619140625" lon="2.12126716040074825286865234375">
        <ele>164.1999969482421875</ele>
        <time>2022-01-07T10:29:34.000Z</time>
      </trkpt>
      <trkpt lat="41.46448147483170032501220703125" lon="2.1212370693683624267578125">
        <ele>164.1999969482421875</ele>
        <time>2022-01-07T10:29:35.000Z</time>
      </trkpt>
      <trkpt lat="41.46447812207043170928955078125" lon="2.1212050504982471466064453125">
        <ele>164.399993896484375</ele>
        <time>2022-01-07T10:29:36.000Z</time>
      </trkpt>
      <trkpt lat="41.46447393111884593963623046875" lon="2.12117579765617847442626953125">
        <ele>164.600006103515625</ele>
        <time>2022-01-07T10:29:37.000Z</time>
      </trkpt>
      <trkpt lat="41.4644678123295307159423828125" lon="2.12112818844616413116455078125">
        <ele>164.8000030517578125</ele>
        <time>2022-01-07T10:29:38.000Z</time>
      </trkpt>
      <trkpt lat="41.46446202881634235382080078125" lon="2.121085859835147857666015625">
        <ele>165</ele>
        <time>2022-01-07T10:29:39.000Z</time>
      </trkpt>
      <trkpt lat="41.46445666439831256866455078125" lon="2.121048308908939361572265625">
        <ele>165</ele>
        <time>2022-01-07T10:29:40.000Z</time>
      </trkpt>
      <trkpt lat="41.46444928832352161407470703125" lon="2.1210008673369884490966796875">
        <ele>165.1999969482421875</ele>
        <time>2022-01-07T10:29:41.000Z</time>
      </trkpt>
      <trkpt lat="41.46444308571517467498779296875" lon="2.12094529531896114349365234375">
        <ele>165.1999969482421875</ele>
        <time>2022-01-07T10:29:42.000Z</time>
      </trkpt>
      <trkpt lat="41.46443822421133518218994140625" lon="2.12090120650827884674072265625">
        <ele>165.1999969482421875</ele>
        <time>2022-01-07T10:29:43.000Z</time>
      </trkpt>
      <trkpt lat="41.46442967467010021209716796875" lon="2.12085820734500885009765625">
        <ele>165.399993896484375</ele>
        <time>2022-01-07T10:29:44.000Z</time>
      </trkpt>
      <trkpt lat="41.46442330442368984222412109375" lon="2.1208241768181324005126953125">
        <ele>165.399993896484375</ele>
        <time>2022-01-07T10:29:45.000Z</time>
      </trkpt>
      <trkpt lat="41.4644158445298671722412109375" lon="2.120779417455196380615234375">
        <ele>165.399993896484375</ele>
        <time>2022-01-07T10:29:46.000Z</time>
      </trkpt>
      <trkpt lat="41.46441240794956684112548828125" lon="2.12072401307523250579833984375">
        <ele>165.600006103515625</ele>
        <time>2022-01-07T10:29:47.000Z</time>
      </trkpt>
      <trkpt lat="41.46441525779664516448974609375" lon="2.12068109773099422454833984375">
        <ele>165.600006103515625</ele>
        <time>2022-01-07T10:29:48.000Z</time>
      </trkpt>
      <trkpt lat="41.4644191972911357879638671875" lon="2.1206407807767391204833984375">
        <ele>165.600006103515625</ele>
        <time>2022-01-07T10:29:49.000Z</time>
      </trkpt>
      <trkpt lat="41.4644165150821208953857421875" lon="2.12060867808759212493896484375">
        <ele>165.8000030517578125</ele>
        <time>2022-01-07T10:29:50.000Z</time>
      </trkpt>
      <trkpt lat="41.4644207060337066650390625" lon="2.1205616556107997894287109375">
        <ele>165.8000030517578125</ele>
        <time>2022-01-07T10:29:51.000Z</time>
      </trkpt>
      <trkpt lat="41.464423723518848419189453125" lon="2.1205277927219867706298828125">
        <ele>166</ele>
        <time>2022-01-07T10:29:52.000Z</time>
      </trkpt>
      <trkpt lat="41.4644265733659267425537109375" lon="2.120476327836513519287109375">
        <ele>166.1999969482421875</ele>
        <time>2022-01-07T10:29:53.000Z</time>
      </trkpt>
      <trkpt lat="41.46443068049848079681396484375" lon="2.120433747768402099609375">
        <ele>166.1999969482421875</ele>
        <time>2022-01-07T10:29:54.000Z</time>
      </trkpt>
      <trkpt lat="41.4644342847168445587158203125" lon="2.120399214327335357666015625">
        <ele>166.1999969482421875</ele>
        <time>2022-01-07T10:29:55.000Z</time>
      </trkpt>
      <trkpt lat="41.4644394814968109130859375" lon="2.12035420350730419158935546875">
        <ele>166.399993896484375</ele>
        <time>2022-01-07T10:29:56.000Z</time>
      </trkpt>
      <trkpt lat="41.46444912068545818328857421875" lon="2.120300643146038055419921875">
        <ele>166.600006103515625</ele>
        <time>2022-01-07T10:29:57.000Z</time>
      </trkpt>
      <trkpt lat="41.46445616148412227630615234375" lon="2.12026032619178295135498046875">
        <ele>166.8000030517578125</ele>
        <time>2022-01-07T10:29:58.000Z</time>
      </trkpt>
      <trkpt lat="41.4644637890160083770751953125" lon="2.12023048661649227142333984375">
        <ele>166.8000030517578125</ele>
        <time>2022-01-07T10:29:59.000Z</time>
      </trkpt>
      <trkpt lat="41.464473344385623931884765625" lon="2.12019528262317180633544921875">
        <ele>167</ele>
        <time>2022-01-07T10:30:00.000Z</time>
      </trkpt>
      <trkpt lat="41.46448231302201747894287109375" lon="2.12015974335372447967529296875">
        <ele>167.1999969482421875</ele>
        <time>2022-01-07T10:30:01.000Z</time>
      </trkpt>
      <trkpt lat="41.4644939638674259185791015625" lon="2.12011716328561305999755859375">
        <ele>167.1999969482421875</ele>
        <time>2022-01-07T10:30:02.000Z</time>
      </trkpt>
      <trkpt lat="41.464502178132534027099609375" lon="2.1200812049210071563720703125">
        <ele>167.1999969482421875</ele>
        <time>2022-01-07T10:30:03.000Z</time>
      </trkpt>
      <trkpt lat="41.4645120687782764434814453125" lon="2.12004507891833782196044921875">
        <ele>167.399993896484375</ele>
        <time>2022-01-07T10:30:04.000Z</time>
      </trkpt>
      <trkpt lat="41.46452137269079685211181640625" lon="2.120018340647220611572265625">
        <ele>167.399993896484375</ele>
        <time>2022-01-07T10:30:05.000Z</time>
      </trkpt>
      <trkpt lat="41.46453159861266613006591796875" lon="2.1199876628816127777099609375">
        <ele>167.8000030517578125</ele>
        <time>2022-01-07T10:30:06.000Z</time>
      </trkpt>
      <trkpt lat="41.46454232744872570037841796875" lon="2.1199504472315311431884765625">
        <ele>168</ele>
        <time>2022-01-07T10:30:07.000Z</time>
      </trkpt>
      <trkpt lat="41.4645502902567386627197265625" lon="2.11991499178111553192138671875">
        <ele>168</ele>
        <time>2022-01-07T10:30:08.000Z</time>
      </trkpt>
      <trkpt lat="41.4645580016076564788818359375" lon="2.119873501360416412353515625">
        <ele>168.600006103515625</ele>
        <time>2022-01-07T10:30:09.000Z</time>
      </trkpt>
      <trkpt lat="41.46456210874021053314208984375" lon="2.11983720771968364715576171875">
        <ele>168.8000030517578125</ele>
        <time>2022-01-07T10:30:10.000Z</time>
      </trkpt>
      <trkpt lat="41.46456277929246425628662109375" lon="2.11978800594806671142578125">
        <ele>168.8000030517578125</ele>
        <time>2022-01-07T10:30:11.000Z</time>
      </trkpt>
      <trkpt lat="41.46455590613186359405517578125" lon="2.1197392232716083526611328125">
        <ele>169.1999969482421875</ele>
        <time>2022-01-07T10:30:12.000Z</time>
      </trkpt>
      <trkpt lat="41.46453897468745708465576171875" lon="2.119681052863597869873046875">
        <ele>169.600006103515625</ele>
        <time>2022-01-07T10:30:13.000Z</time>
      </trkpt>
      <trkpt lat="41.4645187743008136749267578125" lon="2.1196357905864715576171875">
        <ele>169.600006103515625</ele>
        <time>2022-01-07T10:30:14.000Z</time>
      </trkpt>
      <trkpt lat="41.4644969813525676727294921875" lon="2.1195890195667743682861328125">
        <ele>169.8000030517578125</ele>
        <time>2022-01-07T10:30:15.000Z</time>
      </trkpt>
      <trkpt lat="41.46447694860398769378662109375" lon="2.119548618793487548828125">
        <ele>169.8000030517578125</ele>
        <time>2022-01-07T10:30:16.000Z</time>
      </trkpt>
      <trkpt lat="41.46445699967443943023681640625" lon="2.11949556134641170501708984375">
        <ele>169.600006103515625</ele>
        <time>2022-01-07T10:30:17.000Z</time>
      </trkpt>
      <trkpt lat="41.464438140392303466796875" lon="2.11942984722554683685302734375">
        <ele>169.600006103515625</ele>
        <time>2022-01-07T10:30:18.000Z</time>
      </trkpt>
      <trkpt lat="41.464429087936878204345703125" lon="2.11938701570034027099609375">
        <ele>169.600006103515625</ele>
        <time>2022-01-07T10:30:19.000Z</time>
      </trkpt>
      <trkpt lat="41.46442313678562641143798828125" lon="2.1193206310272216796875">
        <ele>169.600006103515625</ele>
        <time>2022-01-07T10:30:20.000Z</time>
      </trkpt>
      <trkpt lat="41.46441995166242122650146484375" lon="2.11926539428532123565673828125">
        <ele>169.600006103515625</ele>
        <time>2022-01-07T10:30:21.000Z</time>
      </trkpt>
      <trkpt lat="41.46441609598696231842041015625" lon="2.1192093193531036376953125">
        <ele>169.8000030517578125</ele>
        <time>2022-01-07T10:30:22.000Z</time>
      </trkpt>
      <trkpt lat="41.46441257558763027191162109375" lon="2.1191518194973468780517578125">
        <ele>169.600006103515625</ele>
        <time>2022-01-07T10:30:23.000Z</time>
      </trkpt>
      <trkpt lat="41.46440402604639530181884765625" lon="2.11909758858382701873779296875">
        <ele>169.399993896484375</ele>
        <time>2022-01-07T10:30:24.000Z</time>
      </trkpt>
      <trkpt lat="41.46438893862068653106689453125" lon="2.11904293857514858245849609375">
        <ele>169.399993896484375</ele>
        <time>2022-01-07T10:30:25.000Z</time>
      </trkpt>
      <trkpt lat="41.46438893862068653106689453125" lon="2.11904293857514858245849609375">
        <ele>169.1999969482421875</ele>
        <time>2022-01-07T10:30:26.000Z</time>
      </trkpt>
      <trkpt lat="41.46435105241835117340087890625" lon="2.1189493127167224884033203125">
        <ele>169.1999969482421875</ele>
        <time>2022-01-07T10:30:27.000Z</time>
      </trkpt>
      <trkpt lat="41.46432573907077312469482421875" lon="2.11890757083892822265625">
        <ele>169.1999969482421875</ele>
        <time>2022-01-07T10:30:28.000Z</time>
      </trkpt>
      <trkpt lat="41.46429858170449733734130859375" lon="2.11887110956013202667236328125">
        <ele>169.1999969482421875</ele>
        <time>2022-01-07T10:30:29.000Z</time>
      </trkpt>
      <trkpt lat="41.4642706699669361114501953125" lon="2.11883607320487499237060546875">
        <ele>169.1999969482421875</ele>
        <time>2022-01-07T10:30:30.000Z</time>
      </trkpt>
      <trkpt lat="41.46424175240099430084228515625" lon="2.1188016235828399658203125">
        <ele>169.1999969482421875</ele>
        <time>2022-01-07T10:30:31.000Z</time>
      </trkpt>
      <trkpt lat="41.46421677432954311370849609375" lon="2.11876767687499523162841796875">
        <ele>169.1999969482421875</ele>
        <time>2022-01-07T10:30:32.000Z</time>
      </trkpt>
      <trkpt lat="41.4641905389726161956787109375" lon="2.11873523890972137451171875">
        <ele>169.1999969482421875</ele>
        <time>2022-01-07T10:30:33.000Z</time>
      </trkpt>
      <trkpt lat="41.4641653932631015777587890625" lon="2.1187018789350986480712890625">
        <ele>169.1999969482421875</ele>
        <time>2022-01-07T10:30:34.000Z</time>
      </trkpt>
      <trkpt lat="41.46414116956293582916259765625" lon="2.11866726167500019073486328125">
        <ele>169.1999969482421875</ele>
        <time>2022-01-07T10:30:35.000Z</time>
      </trkpt>
      <trkpt lat="41.4641204662621021270751953125" lon="2.1186341531574726104736328125">
        <ele>169.1999969482421875</ele>
        <time>2022-01-07T10:30:36.000Z</time>
      </trkpt>
      <trkpt lat="41.46409741602838039398193359375" lon="2.1185996197164058685302734375">
        <ele>169.1999969482421875</ele>
        <time>2022-01-07T10:30:37.000Z</time>
      </trkpt>
      <trkpt lat="41.464073695242404937744140625" lon="2.118566595017910003662109375">
        <ele>169.399993896484375</ele>
        <time>2022-01-07T10:30:38.000Z</time>
      </trkpt>
      <trkpt lat="41.46405165083706378936767578125" lon="2.1185349114239215850830078125">
        <ele>169.399993896484375</ele>
        <time>2022-01-07T10:30:39.000Z</time>
      </trkpt>
      <trkpt lat="41.4640329591929912567138671875" lon="2.1185003779828548431396484375">
        <ele>169.600006103515625</ele>
        <time>2022-01-07T10:30:40.000Z</time>
      </trkpt>
      <trkpt lat="41.464016027748584747314453125" lon="2.11846441961824893951416015625">
        <ele>169.8000030517578125</ele>
        <time>2022-01-07T10:30:41.000Z</time>
      </trkpt>
      <trkpt lat="41.4640009403228759765625" lon="2.1184262819588184356689453125">
        <ele>170</ele>
        <time>2022-01-07T10:30:42.000Z</time>
      </trkpt>
      <trkpt lat="41.46398442797362804412841796875" lon="2.11839082650840282440185546875">
        <ele>170.1999969482421875</ele>
        <time>2022-01-07T10:30:43.000Z</time>
      </trkpt>
      <trkpt lat="41.4639675803482532501220703125" lon="2.11835704743862152099609375">
        <ele>170.600006103515625</ele>
        <time>2022-01-07T10:30:44.000Z</time>
      </trkpt>
      <trkpt lat="41.46395140327513217926025390625" lon="2.1183210052549839019775390625">
        <ele>170.8000030517578125</ele>
        <time>2022-01-07T10:30:45.000Z</time>
      </trkpt>
      <trkpt lat="41.4639343880116939544677734375" lon="2.1182866394519805908203125">
        <ele>171</ele>
        <time>2022-01-07T10:30:46.000Z</time>
      </trkpt>
      <trkpt lat="41.46391980350017547607421875" lon="2.118251435458660125732421875">
        <ele>171.399993896484375</ele>
        <time>2022-01-07T10:30:47.000Z</time>
      </trkpt>
      <trkpt lat="41.46390764974057674407958984375" lon="2.118215896189212799072265625">
        <ele>171.600006103515625</ele>
        <time>2022-01-07T10:30:48.000Z</time>
      </trkpt>
      <trkpt lat="41.46389574743807315826416015625" lon="2.11818270385265350341796875">
        <ele>172</ele>
        <time>2022-01-07T10:30:49.000Z</time>
      </trkpt>
      <trkpt lat="41.4638830907642841339111328125" lon="2.11814842186868190765380859375">
        <ele>172.1999969482421875</ele>
        <time>2022-01-07T10:30:50.000Z</time>
      </trkpt>
      <trkpt lat="41.46386657841503620147705078125" lon="2.11811556480824947357177734375">
        <ele>172.600006103515625</ele>
        <time>2022-01-07T10:30:51.000Z</time>
      </trkpt>
      <trkpt lat="41.46385031752288341522216796875" lon="2.118081115186214447021484375">
        <ele>172.8000030517578125</ele>
        <time>2022-01-07T10:30:52.000Z</time>
      </trkpt>
      <trkpt lat="41.463832966983318328857421875" lon="2.11804725229740142822265625">
        <ele>173.1999969482421875</ele>
        <time>2022-01-07T10:30:53.000Z</time>
      </trkpt>
      <trkpt lat="41.4638177119195461273193359375" lon="2.11801229976117610931396484375">
        <ele>173.8000030517578125</ele>
        <time>2022-01-07T10:30:54.000Z</time>
      </trkpt>
      <trkpt lat="41.4638011157512664794921875" lon="2.1179783530533313751220703125">
        <ele>173.8000030517578125</ele>
        <time>2022-01-07T10:30:55.000Z</time>
      </trkpt>
      <trkpt lat="41.4637858606874942779541015625" lon="2.117943651974201202392578125">
        <ele>174.399993896484375</ele>
        <time>2022-01-07T10:30:56.000Z</time>
      </trkpt>
      <trkpt lat="41.46377404220402240753173828125" lon="2.11790911853313446044921875">
        <ele>174.600006103515625</ele>
        <time>2022-01-07T10:30:57.000Z</time>
      </trkpt>
      <trkpt lat="41.4637608826160430908203125" lon="2.117874585092067718505859375">
        <ele>175</ele>
        <time>2022-01-07T10:30:58.000Z</time>
      </trkpt>
      <trkpt lat="41.4637429453432559967041015625" lon="2.1178408898413181304931640625">
        <ele>175</ele>
        <time>2022-01-07T10:30:59.000Z</time>
      </trkpt>
      <trkpt lat="41.4637238346040248870849609375" lon="2.11780694313347339630126953125">
        <ele>175.1999969482421875</ele>
        <time>2022-01-07T10:31:00.000Z</time>
      </trkpt>
      <trkpt lat="41.46370430476963520050048828125" lon="2.11777375079691410064697265625">
        <ele>175.600006103515625</ele>
        <time>2022-01-07T10:31:01.000Z</time>
      </trkpt>
      <trkpt lat="41.46368251182138919830322265625" lon="2.11773837916553020477294921875">
        <ele>175.600006103515625</ele>
        <time>2022-01-07T10:31:02.000Z</time>
      </trkpt>
      <trkpt lat="41.46365703083574771881103515625" lon="2.11769764311611652374267578125">
        <ele>175.8000030517578125</ele>
        <time>2022-01-07T10:31:03.000Z</time>
      </trkpt>
      <trkpt lat="41.4636276103556156158447265625" lon="2.11765506304800510406494140625">
        <ele>175.8000030517578125</ele>
        <time>2022-01-07T10:31:04.000Z</time>
      </trkpt>
      <trkpt lat="41.46359835751354694366455078125" lon="2.11760560981929302215576171875">
        <ele>175.8000030517578125</ele>
        <time>2022-01-07T10:31:05.000Z</time>
      </trkpt>
      <trkpt lat="41.46356935612857341766357421875" lon="2.117552049458026885986328125">
        <ele>175.8000030517578125</ele>
        <time>2022-01-07T10:31:06.000Z</time>
      </trkpt>
      <trkpt lat="41.4635390974581241607666015625" lon="2.117499411106109619140625">
        <ele>175.8000030517578125</ele>
        <time>2022-01-07T10:31:07.000Z</time>
      </trkpt>
      <trkpt lat="41.463509090244770050048828125" lon="2.1174512989819049835205078125">
        <ele>175.8000030517578125</ele>
        <time>2022-01-07T10:31:08.000Z</time>
      </trkpt>
      <trkpt lat="41.463482268154621124267578125" lon="2.11741148494184017181396484375">
        <ele>176.1999969482421875</ele>
        <time>2022-01-07T10:31:09.000Z</time>
      </trkpt>
      <trkpt lat="41.46345418877899646759033203125" lon="2.1173748560249805450439453125">
        <ele>176.1999969482421875</ele>
        <time>2022-01-07T10:31:10.000Z</time>
      </trkpt>
      <trkpt lat="41.46342300809919834136962890625" lon="2.1173403225839138031005859375">
        <ele>176.399993896484375</ele>
        <time>2022-01-07T10:31:11.000Z</time>
      </trkpt>
      <trkpt lat="41.46338864229619503021240234375" lon="2.11730805225670337677001953125">
        <ele>176.399993896484375</ele>
        <time>2022-01-07T10:31:12.000Z</time>
      </trkpt>
      <trkpt lat="41.46335528232157230377197265625" lon="2.11728014051914215087890625">
        <ele>176.399993896484375</ele>
        <time>2022-01-07T10:31:13.000Z</time>
      </trkpt>
      <trkpt lat="41.4633236825466156005859375" lon="2.11725407280027866363525390625">
        <ele>176.399993896484375</ele>
        <time>2022-01-07T10:31:14.000Z</time>
      </trkpt>
      <trkpt lat="41.463293172419071197509765625" lon="2.11722272448241710662841796875">
        <ele>176.399993896484375</ele>
        <time>2022-01-07T10:31:15.000Z</time>
      </trkpt>
      <trkpt lat="41.46326266229152679443359375" lon="2.11719154380261898040771484375">
        <ele>176.1999969482421875</ele>
        <time>2022-01-07T10:31:16.000Z</time>
      </trkpt>
      <trkpt lat="41.463229469954967498779296875" lon="2.11716522462666034698486328125">
        <ele>176.1999969482421875</ele>
        <time>2022-01-07T10:31:17.000Z</time>
      </trkpt>
      <trkpt lat="41.4631951041519641876220703125" lon="2.11714343167841434478759765625">
        <ele>176.1999969482421875</ele>
        <time>2022-01-07T10:31:18.000Z</time>
      </trkpt>
      <trkpt lat="41.4631951041519641876220703125" lon="2.11714343167841434478759765625">
        <ele>176.1999969482421875</ele>
        <time>2022-01-07T10:31:19.000Z</time>
      </trkpt>
      <trkpt lat="41.46312545053660869598388671875" lon="2.1170962415635585784912109375">
        <ele>176.1999969482421875</ele>
        <time>2022-01-07T10:31:20.000Z</time>
      </trkpt>
      <trkpt lat="41.46308773197233676910400390625" lon="2.11707252077758312225341796875">
        <ele>176.1999969482421875</ele>
        <time>2022-01-07T10:31:21.000Z</time>
      </trkpt>
      <trkpt lat="41.46305068396031856536865234375" lon="2.11705148220062255859375">
        <ele>176.1999969482421875</ele>
        <time>2022-01-07T10:31:22.000Z</time>
      </trkpt>
      <trkpt lat="41.46301631815731525421142578125" lon="2.11703027598559856414794921875">
        <ele>176.399993896484375</ele>
        <time>2022-01-07T10:31:23.000Z</time>
      </trkpt>
      <trkpt lat="41.46301631815731525421142578125" lon="2.11703027598559856414794921875">
        <ele>176.399993896484375</ele>
        <time>2022-01-07T10:31:24.000Z</time>
      </trkpt>
      <trkpt lat="41.46294808946549892425537109375" lon="2.11698886938393115997314453125">
        <ele>176.399993896484375</ele>
        <time>2022-01-07T10:31:25.000Z</time>
      </trkpt>
      <trkpt lat="41.46291724406182765960693359375" lon="2.1169772185385227203369140625">
        <ele>176.399993896484375</ele>
        <time>2022-01-07T10:31:26.000Z</time>
      </trkpt>
      <trkpt lat="41.462882794439792633056640625" lon="2.1169651485979557037353515625">
        <ele>176.399993896484375</ele>
        <time>2022-01-07T10:31:27.000Z</time>
      </trkpt>
      <trkpt lat="41.4628489315509796142578125" lon="2.116949893534183502197265625">
        <ele>176.8000030517578125</ele>
        <time>2022-01-07T10:31:28.000Z</time>
      </trkpt>
      <trkpt lat="41.46281783469021320343017578125" lon="2.11693572811782360076904296875">
        <ele>176.8000030517578125</ele>
        <time>2022-01-07T10:31:29.000Z</time>
      </trkpt>
      <trkpt lat="41.462788917124271392822265625" lon="2.1169198863208293914794921875">
        <ele>177</ele>
        <time>2022-01-07T10:31:30.000Z</time>
      </trkpt>
      <trkpt lat="41.46275798790156841278076171875" lon="2.11690739728510379791259765625">
        <ele>177</ele>
        <time>2022-01-07T10:31:31.000Z</time>
      </trkpt>
      <trkpt lat="41.46272244863212108612060546875" lon="2.1168933995068073272705078125">
        <ele>177.1999969482421875</ele>
        <time>2022-01-07T10:31:32.000Z</time>
      </trkpt>
      <trkpt lat="41.4626874960958957672119140625" lon="2.11687671951949596405029296875">
        <ele>177.1999969482421875</ele>
        <time>2022-01-07T10:31:33.000Z</time>
      </trkpt>
      <trkpt lat="41.4626519568264484405517578125" lon="2.11685660295188426971435546875">
        <ele>177.1999969482421875</ele>
        <time>2022-01-07T10:31:34.000Z</time>
      </trkpt>
      <trkpt lat="41.46261633373796939849853515625" lon="2.11683883331716060638427734375">
        <ele>177.600006103515625</ele>
        <time>2022-01-07T10:31:35.000Z</time>
      </trkpt>
      <trkpt lat="41.46257928572595119476318359375" lon="2.11682190187275409698486328125">
        <ele>177.600006103515625</ele>
        <time>2022-01-07T10:31:36.000Z</time>
      </trkpt>
      <trkpt lat="41.46257928572595119476318359375" lon="2.11682190187275409698486328125">
        <ele>177.8000030517578125</ele>
        <time>2022-01-07T10:31:37.000Z</time>
      </trkpt>
      <trkpt lat="41.462509632110595703125" lon="2.11678267456591129302978515625">
        <ele>178.1999969482421875</ele>
        <time>2022-01-07T10:31:38.000Z</time>
      </trkpt>
      <trkpt lat="41.462477780878543853759765625" lon="2.11676188744604587554931640625">
        <ele>178.600006103515625</ele>
        <time>2022-01-07T10:31:39.000Z</time>
      </trkpt>
      <trkpt lat="41.46244618110358715057373046875" lon="2.116740681231021881103515625">
        <ele>178.8000030517578125</ele>
        <time>2022-01-07T10:31:40.000Z</time>
      </trkpt>
      <trkpt lat="41.46241533569991588592529296875" lon="2.11671830154955387115478515625">
        <ele>179</ele>
        <time>2022-01-07T10:31:41.000Z</time>
      </trkpt>
      <trkpt lat="41.46238683722913265228271484375" lon="2.1166987717151641845703125">
        <ele>179</ele>
        <time>2022-01-07T10:31:42.000Z</time>
      </trkpt>
      <trkpt lat="41.4623572491109371185302734375" lon="2.11667723022401332855224609375">
        <ele>179</ele>
        <time>2022-01-07T10:31:43.000Z</time>
      </trkpt>
      <trkpt lat="41.46232631988823413848876953125" lon="2.11665778420865535736083984375">
        <ele>179</ele>
        <time>2022-01-07T10:31:44.000Z</time>
      </trkpt>
      <trkpt lat="41.4622965641319751739501953125" lon="2.11663699708878993988037109375">
        <ele>179.1999969482421875</ele>
        <time>2022-01-07T10:31:45.000Z</time>
      </trkpt>
      <trkpt lat="41.46226680837571620941162109375" lon="2.11661671288311481475830078125">
        <ele>179.1999969482421875</ele>
        <time>2022-01-07T10:31:46.000Z</time>
      </trkpt>
      <trkpt lat="41.462238729000091552734375" lon="2.1165933273732662200927734375">
        <ele>179.1999969482421875</ele>
        <time>2022-01-07T10:31:47.000Z</time>
      </trkpt>
      <trkpt lat="41.4622132480144500732421875" lon="2.11656860075891017913818359375">
        <ele>179.1999969482421875</ele>
        <time>2022-01-07T10:31:48.000Z</time>
      </trkpt>
      <trkpt lat="41.46219111979007720947265625" lon="2.116542868316173553466796875">
        <ele>179.399993896484375</ele>
        <time>2022-01-07T10:31:49.000Z</time>
      </trkpt>
      <trkpt lat="41.46217209286987781524658203125" lon="2.11651462130248546600341796875">
        <ele>179.600006103515625</ele>
        <time>2022-01-07T10:31:50.000Z</time>
      </trkpt>
      <trkpt lat="41.46215759217739105224609375" lon="2.1164843626320362091064453125">
        <ele>179.8000030517578125</ele>
        <time>2022-01-07T10:31:51.000Z</time>
      </trkpt>
      <trkpt lat="41.46215046755969524383544921875" lon="2.11645494215190410614013671875">
        <ele>179.8000030517578125</ele>
        <time>2022-01-07T10:31:52.000Z</time>
      </trkpt>
      <trkpt lat="41.4621480368077754974365234375" lon="2.116430215537548065185546875">
        <ele>180</ele>
        <time>2022-01-07T10:31:53.000Z</time>
      </trkpt>
      <trkpt lat="41.46214342676103115081787109375" lon="2.1164055727422237396240234375">
        <ele>180.1999969482421875</ele>
        <time>2022-01-07T10:31:54.000Z</time>
      </trkpt>
      <trkpt lat="41.462134458124637603759765625" lon="2.11637749336659908294677734375">
        <ele>180.600006103515625</ele>
        <time>2022-01-07T10:31:55.000Z</time>
      </trkpt>
      <trkpt lat="41.4621238969266414642333984375" lon="2.116339020431041717529296875">
        <ele>180.8000030517578125</ele>
        <time>2022-01-07T10:31:56.000Z</time>
      </trkpt>
      <trkpt lat="41.46211308427155017852783203125" lon="2.116288729012012481689453125">
        <ele>181.1999969482421875</ele>
        <time>2022-01-07T10:31:57.000Z</time>
      </trkpt>
      <trkpt lat="41.46210839040577411651611328125" lon="2.11622812785208225250244140625">
        <ele>181.399993896484375</ele>
        <time>2022-01-07T10:31:58.000Z</time>
      </trkpt>
      <trkpt lat="41.46210688166320323944091796875" lon="2.1161765791475772857666015625">
        <ele>181.399993896484375</ele>
        <time>2022-01-07T10:31:59.000Z</time>
      </trkpt>
      <trkpt lat="41.46210084669291973114013671875" lon="2.11610005237162113189697265625">
        <ele>181.399993896484375</ele>
        <time>2022-01-07T10:32:00.000Z</time>
      </trkpt>
      <trkpt lat="41.46208978258073329925537109375" lon="2.11604741401970386505126953125">
        <ele>181.600006103515625</ele>
        <time>2022-01-07T10:32:01.000Z</time>
      </trkpt>
      <trkpt lat="41.46206715144217014312744140625" lon="2.11598153226077556610107421875">
        <ele>181.600006103515625</ele>
        <time>2022-01-07T10:32:02.000Z</time>
      </trkpt>
      <trkpt lat="41.46202557720243930816650390625" lon="2.1159096993505954742431640625">
        <ele>181.600006103515625</ele>
        <time>2022-01-07T10:32:03.000Z</time>
      </trkpt>
      <trkpt lat="41.46198936738073825836181640625" lon="2.11585362441837787628173828125">
        <ele>181.600006103515625</ele>
        <time>2022-01-07T10:32:04.000Z</time>
      </trkpt>
      <trkpt lat="41.46194946952164173126220703125" lon="2.1158054284751415252685546875">
        <ele>181.600006103515625</ele>
        <time>2022-01-07T10:32:05.000Z</time>
      </trkpt>
      <trkpt lat="41.4619155228137969970703125" lon="2.115767039358615875244140625">
        <ele>181.600006103515625</ele>
        <time>2022-01-07T10:32:06.000Z</time>
      </trkpt>
      <trkpt lat="41.461874954402446746826171875" lon="2.11572202853858470916748046875">
        <ele>181.600006103515625</ele>
        <time>2022-01-07T10:32:07.000Z</time>
      </trkpt>
      <trkpt lat="41.4618362300097942352294921875" lon="2.11568028666079044342041015625">
        <ele>181.399993896484375</ele>
        <time>2022-01-07T10:32:08.000Z</time>
      </trkpt>
      <trkpt lat="41.46180094219744205474853515625" lon="2.11563552729785442352294921875">
        <ele>181.1999969482421875</ele>
        <time>2022-01-07T10:32:09.000Z</time>
      </trkpt>
      <trkpt lat="41.461761295795440673828125" lon="2.115581296384334564208984375">
        <ele>181.1999969482421875</ele>
        <time>2022-01-07T10:32:10.000Z</time>
      </trkpt>
      <trkpt lat="41.46173623390495777130126953125" lon="2.11554282344877719879150390625">
        <ele>181</ele>
        <time>2022-01-07T10:32:11.000Z</time>
      </trkpt>
      <trkpt lat="41.46169952116906642913818359375" lon="2.115498147904872894287109375">
        <ele>181</ele>
        <time>2022-01-07T10:32:12.000Z</time>
      </trkpt>
      <trkpt lat="41.46165895275771617889404296875" lon="2.11545280180871486663818359375">
        <ele>180.8000030517578125</ele>
        <time>2022-01-07T10:32:13.000Z</time>
      </trkpt>
      <trkpt lat="41.46161922253668308258056640625" lon="2.11540066637098789215087890625">
        <ele>180.600006103515625</ele>
        <time>2022-01-07T10:32:14.000Z</time>
      </trkpt>
      <trkpt lat="41.461591310799121856689453125" lon="2.115337885916233062744140625">
        <ele>180.399993896484375</ele>
        <time>2022-01-07T10:32:15.000Z</time>
      </trkpt>
      <trkpt lat="41.461591310799121856689453125" lon="2.115337885916233062744140625">
        <ele>180.1999969482421875</ele>
        <time>2022-01-07T10:32:16.000Z</time>
      </trkpt>
      <trkpt lat="41.46157748065888881683349609375" lon="2.11517418734729290008544921875">
        <ele>180.1999969482421875</ele>
        <time>2022-01-07T10:32:17.000Z</time>
      </trkpt>
      <trkpt lat="41.4615716971457004547119140625" lon="2.115085758268833160400390625">
        <ele>180</ele>
        <time>2022-01-07T10:32:18.000Z</time>
      </trkpt>
      <trkpt lat="41.46155032329261302947998046875" lon="2.11499783210456371307373046875">
        <ele>180</ele>
        <time>2022-01-07T10:32:19.000Z</time>
      </trkpt>
      <trkpt lat="41.46152081899344921112060546875" lon="2.11491099558770656585693359375">
        <ele>179.8000030517578125</ele>
        <time>2022-01-07T10:32:20.000Z</time>
      </trkpt>
      <trkpt lat="41.46148092113435268402099609375" lon="2.11483220569789409637451171875">
        <ele>179.8000030517578125</ele>
        <time>2022-01-07T10:32:21.000Z</time>
      </trkpt>
      <trkpt lat="41.4614300429821014404296875" lon="2.114751823246479034423828125">
        <ele>179.399993896484375</ele>
        <time>2022-01-07T10:32:22.000Z</time>
      </trkpt>
      <trkpt lat="41.4613705314695835113525390625" lon="2.11467571556568145751953125">
        <ele>178.600006103515625</ele>
        <time>2022-01-07T10:32:23.000Z</time>
      </trkpt>
      <trkpt lat="41.46130473352968692779541015625" lon="2.1146071515977382659912109375">
        <ele>178.1999969482421875</ele>
        <time>2022-01-07T10:32:24.000Z</time>
      </trkpt>
      <trkpt lat="41.4612303860485553741455078125" lon="2.11454923264682292938232421875">
        <ele>177.600006103515625</ele>
        <time>2022-01-07T10:32:25.000Z</time>
      </trkpt>
      <trkpt lat="41.46115000359714031219482421875" lon="2.11450262926518917083740234375">
        <ele>177</ele>
        <time>2022-01-07T10:32:26.000Z</time>
      </trkpt>
      <trkpt lat="41.461070291697978973388671875" lon="2.1144660003483295440673828125">
        <ele>176.399993896484375</ele>
        <time>2022-01-07T10:32:27.000Z</time>
      </trkpt>
      <trkpt lat="41.460989825427532196044921875" lon="2.11443037725985050201416015625">
        <ele>175.8000030517578125</ele>
        <time>2022-01-07T10:32:28.000Z</time>
      </trkpt>
      <trkpt lat="41.460913382470607757568359375" lon="2.1143781580030918121337890625">
        <ele>175</ele>
        <time>2022-01-07T10:32:29.000Z</time>
      </trkpt>
      <trkpt lat="41.46084733307361602783203125" lon="2.11431093513965606689453125">
        <ele>174.1999969482421875</ele>
        <time>2022-01-07T10:32:30.000Z</time>
      </trkpt>
      <trkpt lat="41.460799388587474822998046875" lon="2.11421965621411800384521484375">
        <ele>173.1999969482421875</ele>
        <time>2022-01-07T10:32:31.000Z</time>
      </trkpt>
      <trkpt lat="41.460784971714019775390625" lon="2.11410633288323879241943359375">
        <ele>172.600006103515625</ele>
        <time>2022-01-07T10:32:32.000Z</time>
      </trkpt>
      <trkpt lat="41.460773907601833343505859375" lon="2.11397700011730194091796875">
        <ele>171.8000030517578125</ele>
        <time>2022-01-07T10:32:33.000Z</time>
      </trkpt>
      <trkpt lat="41.460746414959430694580078125" lon="2.1138688735663890838623046875">
        <ele>171.8000030517578125</ele>
        <time>2022-01-07T10:32:34.000Z</time>
      </trkpt>
      <trkpt lat="41.46070844493806362152099609375" lon="2.11374473758041858673095703125">
        <ele>171</ele>
        <time>2022-01-07T10:32:35.000Z</time>
      </trkpt>
      <trkpt lat="41.46066888235509395599365234375" lon="2.1136626787483692169189453125">
        <ele>170.1999969482421875</ele>
        <time>2022-01-07T10:32:36.000Z</time>
      </trkpt>
      <trkpt lat="41.460615657269954681396484375" lon="2.113560251891613006591796875">
        <ele>169.8000030517578125</ele>
        <time>2022-01-07T10:32:37.000Z</time>
      </trkpt>
      <trkpt lat="41.46056301891803741455078125" lon="2.11342605762183666229248046875">
        <ele>169.1999969482421875</ele>
        <time>2022-01-07T10:32:38.000Z</time>
      </trkpt>
      <trkpt lat="41.46053493954241275787353515625" lon="2.11330452002584934234619140625">
        <ele>168.600006103515625</ele>
        <time>2022-01-07T10:32:39.000Z</time>
      </trkpt>
      <trkpt lat="41.460513733327388763427734375" lon="2.1131842397153377532958984375">
        <ele>168.1999969482421875</ele>
        <time>2022-01-07T10:32:40.000Z</time>
      </trkpt>
      <trkpt lat="41.460503004491329193115234375" lon="2.11308742873370647430419921875">
        <ele>167.8000030517578125</ele>
        <time>2022-01-07T10:32:41.000Z</time>
      </trkpt>
      <trkpt lat="41.4605102129280567169189453125" lon="2.11293152533471584320068359375">
        <ele>167.1999969482421875</ele>
        <time>2022-01-07T10:32:42.000Z</time>
      </trkpt>
      <trkpt lat="41.4605315029621124267578125" lon="2.11280076764523983001708984375">
        <ele>166.8000030517578125</ele>
        <time>2022-01-07T10:32:43.000Z</time>
      </trkpt>
      <trkpt lat="41.4605581574141979217529296875" lon="2.11266749538481235504150390625">
        <ele>165.8000030517578125</ele>
        <time>2022-01-07T10:32:44.000Z</time>
      </trkpt>
      <trkpt lat="41.4605797827243804931640625" lon="2.1125338040292263031005859375">
        <ele>164.8000030517578125</ele>
        <time>2022-01-07T10:32:45.000Z</time>
      </trkpt>
      <trkpt lat="41.4605896733701229095458984375" lon="2.11242509074509143829345703125">
        <ele>164</ele>
        <time>2022-01-07T10:32:46.000Z</time>
      </trkpt>
      <trkpt lat="41.460582129657268524169921875" lon="2.112299613654613494873046875">
        <ele>163.399993896484375</ele>
        <time>2022-01-07T10:32:47.000Z</time>
      </trkpt>
      <trkpt lat="41.460546590387821197509765625" lon="2.11218059062957763671875">
        <ele>163</ele>
        <time>2022-01-07T10:32:48.000Z</time>
      </trkpt>
      <trkpt lat="41.4604921080172061920166015625" lon="2.11210037581622600555419921875">
        <ele>162.600006103515625</ele>
        <time>2022-01-07T10:32:49.000Z</time>
      </trkpt>
      <trkpt lat="41.46041440777480602264404296875" lon="2.11204539053142070770263671875">
        <ele>162.1999969482421875</ele>
        <time>2022-01-07T10:32:50.000Z</time>
      </trkpt>
      <trkpt lat="41.4603442512452602386474609375" lon="2.11200825870037078857421875">
        <ele>161.8000030517578125</ele>
        <time>2022-01-07T10:32:51.000Z</time>
      </trkpt>
      <trkpt lat="41.460257582366466522216796875" lon="2.11197079159319400787353515625">
        <ele>161</ele>
        <time>2022-01-07T10:32:52.000Z</time>
      </trkpt>
      <trkpt lat="41.46016764454543590545654296875" lon="2.11193407885730266571044921875">
        <ele>160</ele>
        <time>2022-01-07T10:32:53.000Z</time>
      </trkpt>
      <trkpt lat="41.46007343195378780364990234375" lon="2.111892588436603546142578125">
        <ele>159</ele>
        <time>2022-01-07T10:32:54.000Z</time>
      </trkpt>
      <trkpt lat="41.46001375280320644378662109375" lon="2.1118709631264209747314453125">
        <ele>158.1999969482421875</ele>
        <time>2022-01-07T10:32:55.000Z</time>
      </trkpt>
      <trkpt lat="41.45997201092541217803955078125" lon="2.11185663007199764251708984375">
        <ele>157.600006103515625</ele>
        <time>2022-01-07T10:32:56.000Z</time>
      </trkpt>
      <trkpt lat="41.4599482901394367218017578125" lon="2.11184556595981121063232421875">
        <ele>157</ele>
        <time>2022-01-07T10:32:57.000Z</time>
      </trkpt>
      <trkpt lat="41.4599211327731609344482421875" lon="2.11183114908635616302490234375">
        <ele>156.399993896484375</ele>
        <time>2022-01-07T10:32:58.000Z</time>
      </trkpt>
      <trkpt lat="41.4599038660526275634765625" lon="2.1118223480880260467529296875">
        <ele>155.8000030517578125</ele>
        <time>2022-01-07T10:32:59.000Z</time>
      </trkpt>
      <trkpt lat="41.4599038660526275634765625" lon="2.1118223480880260467529296875">
        <ele>155.399993896484375</ele>
        <time>2022-01-07T10:33:00.000Z</time>
      </trkpt>
      <trkpt lat="41.4598852582275867462158203125" lon="2.11179477162659168243408203125">
        <ele>155.399993896484375</ele>
        <time>2022-01-07T10:33:01.000Z</time>
      </trkpt>
      <trkpt lat="41.4598822407424449920654296875" lon="2.1117814444005489349365234375">
        <ele>155.1999969482421875</ele>
        <time>2022-01-07T10:33:02.000Z</time>
      </trkpt>
      <trkpt lat="41.45988148637115955352783203125" lon="2.1117747388780117034912109375">
        <ele>155.1999969482421875</ele>
        <time>2022-01-07T10:33:03.000Z</time>
      </trkpt>
      <trkpt lat="41.45988148637115955352783203125" lon="2.1117747388780117034912109375">
        <ele>155.1999969482421875</ele>
        <time>2022-01-07T10:33:04.000Z</time>
      </trkpt>
      <trkpt lat="41.45989037118852138519287109375" lon="2.1117495931684970855712890625">
        <ele>155.1999969482421875</ele>
        <time>2022-01-07T10:33:25.000Z</time>
      </trkpt>
      <trkpt lat="41.45990143530070781707763671875" lon="2.1117207594215869903564453125">
        <ele>155.1999969482421875</ele>
        <time>2022-01-07T10:33:26.000Z</time>
      </trkpt>
      <trkpt lat="41.4599137566983699798583984375" lon="2.1116969548165798187255859375">
        <ele>155.1999969482421875</ele>
        <time>2022-01-07T10:33:27.000Z</time>
      </trkpt>
      <trkpt lat="41.45992741920053958892822265625" lon="2.11167658679187297821044921875">
        <ele>155.1999969482421875</ele>
        <time>2022-01-07T10:33:28.000Z</time>
      </trkpt>
      <trkpt lat="41.459942422807216644287109375" lon="2.1116513572633266448974609375">
        <ele>155.1999969482421875</ele>
        <time>2022-01-07T10:33:29.000Z</time>
      </trkpt>
      <trkpt lat="41.4599513076245784759521484375" lon="2.11163685657083988189697265625">
        <ele>155.1999969482421875</ele>
        <time>2022-01-07T10:33:30.000Z</time>
      </trkpt>
      <trkpt lat="41.45996354520320892333984375" lon="2.11161975748836994171142578125">
        <ele>155.1999969482421875</ele>
        <time>2022-01-07T10:33:31.000Z</time>
      </trkpt>
      <trkpt lat="41.45997427403926849365234375" lon="2.1115990541875362396240234375">
        <ele>155.1999969482421875</ele>
        <time>2022-01-07T10:33:32.000Z</time>
      </trkpt>
      <trkpt lat="41.4599821530282497406005859375" lon="2.1115765906870365142822265625">
        <ele>155.1999969482421875</ele>
        <time>2022-01-07T10:33:33.000Z</time>
      </trkpt>
      <trkpt lat="41.45999036729335784912109375" lon="2.11155555211007595062255859375">
        <ele>155.1999969482421875</ele>
        <time>2022-01-07T10:33:34.000Z</time>
      </trkpt>
      <trkpt lat="41.46000620909035205841064453125" lon="2.1115373633801937103271484375">
        <ele>155.1999969482421875</ele>
        <time>2022-01-07T10:33:35.000Z</time>
      </trkpt>
      <trkpt lat="41.46002682857215404510498046875" lon="2.1115155704319477081298828125">
        <ele>155.1999969482421875</ele>
        <time>2022-01-07T10:33:36.000Z</time>
      </trkpt>
      <trkpt lat="41.46004912443459033966064453125" lon="2.11148522794246673583984375">
        <ele>155.600006103515625</ele>
        <time>2022-01-07T10:33:37.000Z</time>
      </trkpt>
      <trkpt lat="41.46007091738283634185791015625" lon="2.11144709028303623199462890625">
        <ele>155.600006103515625</ele>
        <time>2022-01-07T10:33:38.000Z</time>
      </trkpt>
      <trkpt lat="41.4600941352546215057373046875" lon="2.11140635423362255096435546875">
        <ele>155.8000030517578125</ele>
        <time>2022-01-07T10:33:39.000Z</time>
      </trkpt>
      <trkpt lat="41.4601211249828338623046875" lon="2.111356817185878753662109375">
        <ele>155.8000030517578125</ele>
        <time>2022-01-07T10:33:40.000Z</time>
      </trkpt>
      <trkpt lat="41.460138894617557525634765625" lon="2.11132236756384372711181640625">
        <ele>155.8000030517578125</ele>
        <time>2022-01-07T10:33:41.000Z</time>
      </trkpt>
      <trkpt lat="41.4601621963083744049072265625" lon="2.11127677001059055328369140625">
        <ele>155.8000030517578125</ele>
        <time>2022-01-07T10:33:42.000Z</time>
      </trkpt>
      <trkpt lat="41.460186503827571868896484375" lon="2.11123066954314708709716796875">
        <ele>155.8000030517578125</ele>
        <time>2022-01-07T10:33:43.000Z</time>
      </trkpt>
      <trkpt lat="41.460220701992511749267578125" lon="2.11117484606802463531494140625">
        <ele>155.8000030517578125</ele>
        <time>2022-01-07T10:33:44.000Z</time>
      </trkpt>
      <trkpt lat="41.4602523855865001678466796875" lon="2.1111269854009151458740234375">
        <ele>155.8000030517578125</ele>
        <time>2022-01-07T10:33:45.000Z</time>
      </trkpt>
      <trkpt lat="41.4602798782289028167724609375" lon="2.1110854111611843109130859375">
        <ele>155.8000030517578125</ele>
        <time>2022-01-07T10:33:46.000Z</time>
      </trkpt>
      <trkpt lat="41.46031483076512813568115234375" lon="2.111032269895076751708984375">
        <ele>155.8000030517578125</ele>
        <time>2022-01-07T10:33:47.000Z</time>
      </trkpt>
      <trkpt lat="41.46035246551036834716796875" lon="2.1109735965728759765625">
        <ele>155.8000030517578125</ele>
        <time>2022-01-07T10:33:48.000Z</time>
      </trkpt>
      <trkpt lat="41.46039194427430629730224609375" lon="2.11091366596519947052001953125">
        <ele>155.8000030517578125</ele>
        <time>2022-01-07T10:33:49.000Z</time>
      </trkpt>
      <trkpt lat="41.46043502725660800933837890625" lon="2.1108537353575229644775390625">
        <ele>155.8000030517578125</ele>
        <time>2022-01-07T10:33:50.000Z</time>
      </trkpt>
      <trkpt lat="41.4604854024946689605712890625" lon="2.110801599919795989990234375">
        <ele>155.399993896484375</ele>
        <time>2022-01-07T10:33:51.000Z</time>
      </trkpt>
      <trkpt lat="41.4605454169213771820068359375" lon="2.11076094768941402435302734375">
        <ele>155</ele>
        <time>2022-01-07T10:33:52.000Z</time>
      </trkpt>
      <trkpt lat="41.46062680520117282867431640625" lon="2.1107327006757259368896484375">
        <ele>154.600006103515625</ele>
        <time>2022-01-07T10:33:53.000Z</time>
      </trkpt>
      <trkpt lat="41.46069712936878204345703125" lon="2.11072909645736217498779296875">
        <ele>154.1999969482421875</ele>
        <time>2022-01-07T10:33:54.000Z</time>
      </trkpt>
      <trkpt lat="41.46076418459415435791015625" lon="2.1107273362576961517333984375">
        <ele>153.399993896484375</ele>
        <time>2022-01-07T10:33:55.000Z</time>
      </trkpt>
      <trkpt lat="41.46081447601318359375" lon="2.110724486410617828369140625">
        <ele>152.600006103515625</ele>
        <time>2022-01-07T10:33:56.000Z</time>
      </trkpt>
      <trkpt lat="41.460872478783130645751953125" lon="2.1107216365635395050048828125">
        <ele>152.1999969482421875</ele>
        <time>2022-01-07T10:33:57.000Z</time>
      </trkpt>
      <trkpt lat="41.46092855371534824371337890625" lon="2.1107229776680469512939453125">
        <ele>151.8000030517578125</ele>
        <time>2022-01-07T10:33:58.000Z</time>
      </trkpt>
      <trkpt lat="41.46099510602653026580810546875" lon="2.11073127575218677520751953125">
        <ele>151.399993896484375</ele>
        <time>2022-01-07T10:33:59.000Z</time>
      </trkpt>
      <trkpt lat="41.46104204468429088592529296875" lon="2.110741250216960906982421875">
        <ele>150.600006103515625</ele>
        <time>2022-01-07T10:34:00.000Z</time>
      </trkpt>
      <trkpt lat="41.46110407076776027679443359375" lon="2.1107484586536884307861328125">
        <ele>150.1999969482421875</ele>
        <time>2022-01-07T10:34:01.000Z</time>
      </trkpt>
      <trkpt lat="41.4611663483083248138427734375" lon="2.11075658909976482391357421875">
        <ele>150</ele>
        <time>2022-01-07T10:34:02.000Z</time>
      </trkpt>
      <trkpt lat="41.46123759448528289794921875" lon="2.1107729338109493255615234375">
        <ele>150</ele>
        <time>2022-01-07T10:34:03.000Z</time>
      </trkpt>
      <trkpt lat="41.4612984471023082733154296875" lon="2.1108027733862400054931640625">
        <ele>150</ele>
        <time>2022-01-07T10:34:04.000Z</time>
      </trkpt>
      <trkpt lat="41.46134622395038604736328125" lon="2.11081408895552158355712890625">
        <ele>150</ele>
        <time>2022-01-07T10:34:05.000Z</time>
      </trkpt>
      <trkpt lat="41.46140514872968196868896484375" lon="2.11081735789775848388671875">
        <ele>149.8000030517578125</ele>
        <time>2022-01-07T10:34:06.000Z</time>
      </trkpt>
      <trkpt lat="41.46146692335605621337890625" lon="2.11082465015351772308349609375">
        <ele>149.8000030517578125</ele>
        <time>2022-01-07T10:34:07.000Z</time>
      </trkpt>
      <trkpt lat="41.4615160413086414337158203125" lon="2.11083303205668926239013671875">
        <ele>149.8000030517578125</ele>
        <time>2022-01-07T10:34:08.000Z</time>
      </trkpt>
      <trkpt lat="41.46156289614737033843994140625" lon="2.11084292270243167877197265625">
        <ele>149.8000030517578125</ele>
        <time>2022-01-07T10:34:09.000Z</time>
      </trkpt>
      <trkpt lat="41.46160162054002285003662109375" lon="2.11085113696753978729248046875">
        <ele>149.8000030517578125</ele>
        <time>2022-01-07T10:34:10.000Z</time>
      </trkpt>
      <trkpt lat="41.4616501517593860626220703125" lon="2.11086161434650421142578125">
        <ele>149.8000030517578125</ele>
        <time>2022-01-07T10:34:11.000Z</time>
      </trkpt>
      <trkpt lat="41.46169759333133697509765625" lon="2.11087913252413272857666015625">
        <ele>149.8000030517578125</ele>
        <time>2022-01-07T10:34:12.000Z</time>
      </trkpt>
      <trkpt lat="41.46174428053200244903564453125" lon="2.110906541347503662109375">
        <ele>149.8000030517578125</ele>
        <time>2022-01-07T10:34:13.000Z</time>
      </trkpt>
      <trkpt lat="41.46179725416004657745361328125" lon="2.110951133072376251220703125">
        <ele>150</ele>
        <time>2022-01-07T10:34:14.000Z</time>
      </trkpt>
      <trkpt lat="41.461838744580745697021484375" lon="2.1110022626817226409912109375">
        <ele>150</ele>
        <time>2022-01-07T10:34:15.000Z</time>
      </trkpt>
      <trkpt lat="41.46187269128859043121337890625" lon="2.1110481955111026763916015625">
        <ele>150.1999969482421875</ele>
        <time>2022-01-07T10:34:16.000Z</time>
      </trkpt>
      <trkpt lat="41.46191845647990703582763671875" lon="2.11110209114849567413330078125">
        <ele>150.1999969482421875</ele>
        <time>2022-01-07T10:34:17.000Z</time>
      </trkpt>
      <trkpt lat="41.46196438930928707122802734375" lon="2.11115623824298381805419921875">
        <ele>150.399993896484375</ele>
        <time>2022-01-07T10:34:18.000Z</time>
      </trkpt>
      <trkpt lat="41.4620094001293182373046875" lon="2.1112136542797088623046875">
        <ele>150.399993896484375</ele>
        <time>2022-01-07T10:34:19.000Z</time>
      </trkpt>
      <trkpt lat="41.46205357275903224945068359375" lon="2.11127744056284427642822265625">
        <ele>150.399993896484375</ele>
        <time>2022-01-07T10:34:20.000Z</time>
      </trkpt>
      <trkpt lat="41.46209699101746082305908203125" lon="2.11134307086467742919921875">
        <ele>150.399993896484375</ele>
        <time>2022-01-07T10:34:21.000Z</time>
      </trkpt>
      <trkpt lat="41.462142169475555419921875" lon="2.1114059351384639739990234375">
        <ele>150.399993896484375</ele>
        <time>2022-01-07T10:34:22.000Z</time>
      </trkpt>
      <trkpt lat="41.4621998369693756103515625" lon="2.111478857696056365966796875">
        <ele>150.399993896484375</ele>
        <time>2022-01-07T10:34:23.000Z</time>
      </trkpt>
      <trkpt lat="41.46223805844783782958984375" lon="2.11152956821024417877197265625">
        <ele>150.399993896484375</ele>
        <time>2022-01-07T10:34:24.000Z</time>
      </trkpt>
      <trkpt lat="41.4622838236391544342041015625" lon="2.11159595288336277008056640625">
        <ele>150.399993896484375</ele>
        <time>2022-01-07T10:34:25.000Z</time>
      </trkpt>
      <trkpt lat="41.46233193576335906982421875" lon="2.11165764369070529937744140625">
        <ele>150.399993896484375</ele>
        <time>2022-01-07T10:34:26.000Z</time>
      </trkpt>
      <trkpt lat="41.4623810537159442901611328125" lon="2.1117133833467960357666015625">
        <ele>150.1999969482421875</ele>
        <time>2022-01-07T10:34:27.000Z</time>
      </trkpt>
      <trkpt lat="41.46242924965918064117431640625" lon="2.11176551878452301025390625">
        <ele>150</ele>
        <time>2022-01-07T10:34:28.000Z</time>
      </trkpt>
      <trkpt lat="41.46247786469757556915283203125" lon="2.11181052960455417633056640625">
        <ele>150</ele>
        <time>2022-01-07T10:34:29.000Z</time>
      </trkpt>
      <trkpt lat="41.46252916194498538970947265625" lon="2.11184254847466945648193359375">
        <ele>150</ele>
        <time>2022-01-07T10:34:30.000Z</time>
      </trkpt>
      <trkpt lat="41.46258004009723663330078125" lon="2.11187087930738925933837890625">
        <ele>150</ele>
        <time>2022-01-07T10:34:31.000Z</time>
      </trkpt>
      <trkpt lat="41.4626261405646800994873046875" lon="2.1118877269327640533447265625">
        <ele>150</ele>
        <time>2022-01-07T10:34:32.000Z</time>
      </trkpt>
      <trkpt lat="41.46267123520374298095703125" lon="2.11189024150371551513671875">
        <ele>150</ele>
        <time>2022-01-07T10:34:33.000Z</time>
      </trkpt>
      <trkpt lat="41.462694704532623291015625" lon="2.11188579909503459930419921875">
        <ele>150</ele>
        <time>2022-01-07T10:34:34.000Z</time>
      </trkpt>
      <trkpt lat="41.46272513084113597869873046875" lon="2.11187976412475109100341796875">
        <ele>150</ele>
        <time>2022-01-07T10:34:35.000Z</time>
      </trkpt>
      <trkpt lat="41.46272513084113597869873046875" lon="2.11187976412475109100341796875">
        <ele>150</ele>
        <time>2022-01-07T10:34:36.000Z</time>
      </trkpt>
      <trkpt lat="41.4627910964190959930419921875" lon="2.11184388957917690277099609375">
        <ele>150</ele>
        <time>2022-01-07T10:34:37.000Z</time>
      </trkpt>
      <trkpt lat="41.4627910964190959930419921875" lon="2.11184388957917690277099609375">
        <ele>150</ele>
        <time>2022-01-07T10:34:38.000Z</time>
      </trkpt>
      <trkpt lat="41.4628698863089084625244140625" lon="2.111800722777843475341796875">
        <ele>150.1999969482421875</ele>
        <time>2022-01-07T10:34:39.000Z</time>
      </trkpt>
      <trkpt lat="41.462908275425434112548828125" lon="2.11178689263761043548583984375">
        <ele>150.600006103515625</ele>
        <time>2022-01-07T10:34:40.000Z</time>
      </trkpt>
      <trkpt lat="41.4629419706761837005615234375" lon="2.111775577068328857421875">
        <ele>151</ele>
        <time>2022-01-07T10:34:41.000Z</time>
      </trkpt>
      <trkpt lat="41.46298027597367763519287109375" lon="2.11176912300288677215576171875">
        <ele>151.399993896484375</ele>
        <time>2022-01-07T10:34:42.000Z</time>
      </trkpt>
      <trkpt lat="41.4630140550434589385986328125" lon="2.11177800782024860382080078125">
        <ele>152</ele>
        <time>2022-01-07T10:34:43.000Z</time>
      </trkpt>
      <trkpt lat="41.463045068085193634033203125" lon="2.11178655736148357391357421875">
        <ele>152.399993896484375</ele>
        <time>2022-01-07T10:34:44.000Z</time>
      </trkpt>
      <trkpt lat="41.4630847983062267303466796875" lon="2.11180399172008037567138671875">
        <ele>152.399993896484375</ele>
        <time>2022-01-07T10:34:45.000Z</time>
      </trkpt>
      <trkpt lat="41.463112793862819671630859375" lon="2.11182410828769207000732421875">
        <ele>152.600006103515625</ele>
        <time>2022-01-07T10:34:46.000Z</time>
      </trkpt>
      <trkpt lat="41.46314908750355243682861328125" lon="2.111844979226589202880859375">
        <ele>152.8000030517578125</ele>
        <time>2022-01-07T10:34:47.000Z</time>
      </trkpt>
      <trkpt lat="41.46319082938134670257568359375" lon="2.11186702363193035125732421875">
        <ele>152.8000030517578125</ele>
        <time>2022-01-07T10:34:48.000Z</time>
      </trkpt>
      <trkpt lat="41.46322318352758884429931640625" lon="2.11188361980020999908447265625">
        <ele>153</ele>
        <time>2022-01-07T10:34:49.000Z</time>
      </trkpt>
      <trkpt lat="41.46325520239770412445068359375" lon="2.1118981204926967620849609375">
        <ele>153</ele>
        <time>2022-01-07T10:34:50.000Z</time>
      </trkpt>
      <trkpt lat="41.463285125792026519775390625" lon="2.11190390400588512420654296875">
        <ele>153</ele>
        <time>2022-01-07T10:34:51.000Z</time>
      </trkpt>
      <trkpt lat="41.46332443691790103912353515625" lon="2.11190876550972461700439453125">
        <ele>153</ele>
        <time>2022-01-07T10:34:52.000Z</time>
      </trkpt>
      <trkpt lat="41.46337036974728107452392578125" lon="2.1118987910449504852294921875">
        <ele>153</ele>
        <time>2022-01-07T10:34:53.000Z</time>
      </trkpt>
      <trkpt lat="41.4633989520370960235595703125" lon="2.1118788421154022216796875">
        <ele>153.1999969482421875</ele>
        <time>2022-01-07T10:34:54.000Z</time>
      </trkpt>
      <trkpt lat="41.4634390175342559814453125" lon="2.11184187792241573333740234375">
        <ele>153.1999969482421875</ele>
        <time>2022-01-07T10:34:55.000Z</time>
      </trkpt>
      <trkpt lat="41.4634390175342559814453125" lon="2.11184187792241573333740234375">
        <ele>153.1999969482421875</ele>
        <time>2022-01-07T10:34:56.000Z</time>
      </trkpt>
      <trkpt lat="41.46349509246647357940673828125" lon="2.1117811091244220733642578125">
        <ele>153.399993896484375</ele>
        <time>2022-01-07T10:34:57.000Z</time>
      </trkpt>
      <trkpt lat="41.46349509246647357940673828125" lon="2.1117811091244220733642578125">
        <ele>153.399993896484375</ele>
        <time>2022-01-07T10:34:58.000Z</time>
      </trkpt>
      <trkpt lat="41.46356315352022647857666015625" lon="2.11169569753110408782958984375">
        <ele>153.399993896484375</ele>
        <time>2022-01-07T10:34:59.000Z</time>
      </trkpt>
      <trkpt lat="41.46360053680837154388427734375" lon="2.1116436459124088287353515625">
        <ele>153.399993896484375</ele>
        <time>2022-01-07T10:35:00.000Z</time>
      </trkpt>
      <trkpt lat="41.463639177381992340087890625" lon="2.11158840917050838470458984375">
        <ele>153.399993896484375</ele>
        <time>2022-01-07T10:35:01.000Z</time>
      </trkpt>
      <trkpt lat="41.4636782370507717132568359375" lon="2.1115293167531490325927734375">
        <ele>153.399993896484375</ele>
        <time>2022-01-07T10:35:02.000Z</time>
      </trkpt>
      <trkpt lat="41.4637141115963459014892578125" lon="2.11147156544029712677001953125">
        <ele>153.399993896484375</ele>
        <time>2022-01-07T10:35:03.000Z</time>
      </trkpt>
      <trkpt lat="41.463743783533573150634765625" lon="2.11141909472644329071044921875">
        <ele>153.399993896484375</ele>
        <time>2022-01-07T10:35:04.000Z</time>
      </trkpt>
      <trkpt lat="41.4637697674334049224853515625" lon="2.11136830039322376251220703125">
        <ele>153.399993896484375</ele>
        <time>2022-01-07T10:35:05.000Z</time>
      </trkpt>
      <trkpt lat="41.4637929014861583709716796875" lon="2.11131163872778415679931640625">
        <ele>153.399993896484375</ele>
        <time>2022-01-07T10:35:06.000Z</time>
      </trkpt>
      <trkpt lat="41.46381075493991374969482421875" lon="2.11124860681593418121337890625">
        <ele>153.399993896484375</ele>
        <time>2022-01-07T10:35:07.000Z</time>
      </trkpt>
      <trkpt lat="41.4638224057853221893310546875" lon="2.11117736063897609710693359375">
        <ele>153.399993896484375</ele>
        <time>2022-01-07T10:35:08.000Z</time>
      </trkpt>
      <trkpt lat="41.4638333022594451904296875" lon="2.111109383404254913330078125">
        <ele>153</ele>
        <time>2022-01-07T10:35:09.000Z</time>
      </trkpt>
      <trkpt lat="41.4638549275696277618408203125" lon="2.11102849803864955902099609375">
        <ele>152.600006103515625</ele>
        <time>2022-01-07T10:35:10.000Z</time>
      </trkpt>
      <trkpt lat="41.46387697197496891021728515625" lon="2.11097451858222484588623046875">
        <ele>152.399993896484375</ele>
        <time>2022-01-07T10:35:11.000Z</time>
      </trkpt>
      <trkpt lat="41.46390060894191265106201171875" lon="2.11090981028974056243896484375">
        <ele>152.1999969482421875</ele>
        <time>2022-01-07T10:35:12.000Z</time>
      </trkpt>
      <trkpt lat="41.463926173746585845947265625" lon="2.11084174923598766326904296875">
        <ele>152</ele>
        <time>2022-01-07T10:35:13.000Z</time>
      </trkpt>
      <trkpt lat="41.4639548398554325103759765625" lon="2.11077444255352020263671875">
        <ele>152</ele>
        <time>2022-01-07T10:35:14.000Z</time>
      </trkpt>
      <trkpt lat="41.463973782956600189208984375" lon="2.11070537567138671875">
        <ele>152</ele>
        <time>2022-01-07T10:35:15.000Z</time>
      </trkpt>
      <trkpt lat="41.463987529277801513671875" lon="2.11063538677990436553955078125">
        <ele>151.8000030517578125</ele>
        <time>2022-01-07T10:35:16.000Z</time>
      </trkpt>
      <trkpt lat="41.46400965750217437744140625" lon="2.11056933738291263580322265625">
        <ele>151.600006103515625</ele>
        <time>2022-01-07T10:35:17.000Z</time>
      </trkpt>
      <trkpt lat="41.46402901969850063323974609375" lon="2.110499851405620574951171875">
        <ele>151.1999969482421875</ele>
        <time>2022-01-07T10:35:18.000Z</time>
      </trkpt>
      <trkpt lat="41.4640376530587673187255859375" lon="2.11042818613350391387939453125">
        <ele>150.8000030517578125</ele>
        <time>2022-01-07T10:35:19.000Z</time>
      </trkpt>
      <trkpt lat="41.46403840743005275726318359375" lon="2.110332548618316650390625">
        <ele>150.399993896484375</ele>
        <time>2022-01-07T10:35:20.000Z</time>
      </trkpt>
      <trkpt lat="41.46403220482170581817626953125" lon="2.1102747134864330291748046875">
        <ele>150.399993896484375</ele>
        <time>2022-01-07T10:35:21.000Z</time>
      </trkpt>
      <trkpt lat="41.46402533166110515594482421875" lon="2.11020715534687042236328125">
        <ele>150</ele>
        <time>2022-01-07T10:35:22.000Z</time>
      </trkpt>
      <trkpt lat="41.46401904523372650146484375" lon="2.1101456321775913238525390625">
        <ele>150</ele>
        <time>2022-01-07T10:35:23.000Z</time>
      </trkpt>
      <trkpt lat="41.46401292644441127777099609375" lon="2.110084779560565948486328125">
        <ele>149.8000030517578125</ele>
        <time>2022-01-07T10:35:24.000Z</time>
      </trkpt>
      <trkpt lat="41.46400772966444492340087890625" lon="2.110022418200969696044921875">
        <ele>149.8000030517578125</ele>
        <time>2022-01-07T10:35:25.000Z</time>
      </trkpt>
      <trkpt lat="41.46400655619800090789794921875" lon="2.109960727393627166748046875">
        <ele>149.600006103515625</ele>
        <time>2022-01-07T10:35:26.000Z</time>
      </trkpt>
      <trkpt lat="41.46400840021669864654541015625" lon="2.10989844985306262969970703125">
        <ele>149.600006103515625</ele>
        <time>2022-01-07T10:35:27.000Z</time>
      </trkpt>
      <trkpt lat="41.46401711739599704742431640625" lon="2.1098321489989757537841796875">
        <ele>149.600006103515625</ele>
        <time>2022-01-07T10:35:28.000Z</time>
      </trkpt>
      <trkpt lat="41.46402616985142230987548828125" lon="2.1097625792026519775390625">
        <ele>149.600006103515625</ele>
        <time>2022-01-07T10:35:29.000Z</time>
      </trkpt>
      <trkpt lat="41.46403606049716472625732421875" lon="2.10969426669180393218994140625">
        <ele>149.399993896484375</ele>
        <time>2022-01-07T10:35:30.000Z</time>
      </trkpt>
      <trkpt lat="41.4640456996858119964599609375" lon="2.10962469689548015594482421875">
        <ele>149.399993896484375</ele>
        <time>2022-01-07T10:35:31.000Z</time>
      </trkpt>
      <trkpt lat="41.46405450068414211273193359375" lon="2.10955546237528324127197265625">
        <ele>149.399993896484375</ele>
        <time>2022-01-07T10:35:32.000Z</time>
      </trkpt>
      <trkpt lat="41.46406388841569423675537109375" lon="2.109479270875453948974609375">
        <ele>149.399993896484375</ele>
        <time>2022-01-07T10:35:33.000Z</time>
      </trkpt>
      <trkpt lat="41.464080400764942169189453125" lon="2.10939721204340457916259765625">
        <ele>149.399993896484375</ele>
        <time>2022-01-07T10:35:34.000Z</time>
      </trkpt>
      <trkpt lat="41.46410563029348850250244140625" lon="2.1093175001442432403564453125">
        <ele>149.1999969482421875</ele>
        <time>2022-01-07T10:35:35.000Z</time>
      </trkpt>
      <trkpt lat="41.4641422592103481292724609375" lon="2.10925002582371234893798828125">
        <ele>149</ele>
        <time>2022-01-07T10:35:36.000Z</time>
      </trkpt>
      <trkpt lat="41.46418425254523754119873046875" lon="2.1091954596340656280517578125">
        <ele>149</ele>
        <time>2022-01-07T10:35:37.000Z</time>
      </trkpt>
      <trkpt lat="41.4642317779362201690673828125" lon="2.109154053032398223876953125">
        <ele>148.8000030517578125</ele>
        <time>2022-01-07T10:35:38.000Z</time>
      </trkpt>
      <trkpt lat="41.464277207851409912109375" lon="2.10911122150719165802001953125">
        <ele>148.600006103515625</ele>
        <time>2022-01-07T10:35:39.000Z</time>
      </trkpt>
      <trkpt lat="41.464277207851409912109375" lon="2.10911122150719165802001953125">
        <ele>148.600006103515625</ele>
        <time>2022-01-07T10:35:40.000Z</time>
      </trkpt>
      <trkpt lat="41.46435138769447803497314453125" lon="2.10903494618833065032958984375">
        <ele>148.600006103515625</ele>
        <time>2022-01-07T10:35:41.000Z</time>
      </trkpt>
      <trkpt lat="41.46438189782202243804931640625" lon="2.10899890400469303131103515625">
        <ele>148</ele>
        <time>2022-01-07T10:35:42.000Z</time>
      </trkpt>
      <trkpt lat="41.46440804935991764068603515625" lon="2.10895783267915248870849609375">
        <ele>147.399993896484375</ele>
        <time>2022-01-07T10:35:43.000Z</time>
      </trkpt>
      <trkpt lat="41.4644336141645908355712890625" lon="2.10892497561872005462646484375">
        <ele>146.8000030517578125</ele>
        <time>2022-01-07T10:35:44.000Z</time>
      </trkpt>
      <trkpt lat="41.4644336141645908355712890625" lon="2.10892497561872005462646484375">
        <ele>146.600006103515625</ele>
        <time>2022-01-07T10:35:45.000Z</time>
      </trkpt>
      <trkpt lat="41.46445917896926403045654296875" lon="2.10888423956930637359619140625">
        <ele>146.399993896484375</ele>
        <time>2022-01-07T10:35:46.000Z</time>
      </trkpt>
      <trkpt lat="41.4644741825759410858154296875" lon="2.10886605083942413330078125">
        <ele>146</ele>
        <time>2022-01-07T10:35:47.000Z</time>
      </trkpt>
      <trkpt lat="41.4644979871809482574462890625" lon="2.10882992483675479888916015625">
        <ele>145.1999969482421875</ele>
        <time>2022-01-07T10:35:48.000Z</time>
      </trkpt>
      <trkpt lat="41.464524306356906890869140625" lon="2.10878960788249969482421875">
        <ele>144.399993896484375</ele>
        <time>2022-01-07T10:35:49.000Z</time>
      </trkpt>
      <trkpt lat="41.46455389447510242462158203125" lon="2.10875649936497211456298828125">
        <ele>144</ele>
        <time>2022-01-07T10:35:50.000Z</time>
      </trkpt>
      <trkpt lat="41.4645843207836151123046875" lon="2.1087331138551235198974609375">
        <ele>143.600006103515625</ele>
        <time>2022-01-07T10:35:51.000Z</time>
      </trkpt>
      <trkpt lat="41.46461592055857181549072265625" lon="2.1087240613996982574462890625">
        <ele>143.1999969482421875</ele>
        <time>2022-01-07T10:35:52.000Z</time>
      </trkpt>
      <trkpt lat="41.464643664658069610595703125" lon="2.10872699506580829620361328125">
        <ele>143</ele>
        <time>2022-01-07T10:35:53.000Z</time>
      </trkpt>
      <trkpt lat="41.4646699838340282440185546875" lon="2.10873403586447238922119140625">
        <ele>142.8000030517578125</ele>
        <time>2022-01-07T10:35:54.000Z</time>
      </trkpt>
      <trkpt lat="41.4647078700363636016845703125" lon="2.108749039471149444580078125">
        <ele>142.600006103515625</ele>
        <time>2022-01-07T10:35:55.000Z</time>
      </trkpt>
      <trkpt lat="41.4647447504103183746337890625" lon="2.108764462172985076904296875">
        <ele>142</ele>
        <time>2022-01-07T10:35:56.000Z</time>
      </trkpt>
      <trkpt lat="41.4647779427468776702880859375" lon="2.1087674796581268310546875">
        <ele>141.600006103515625</ele>
        <time>2022-01-07T10:35:57.000Z</time>
      </trkpt>
      <trkpt lat="41.46481792442500591278076171875" lon="2.10875364951789379119873046875">
        <ele>141</ele>
        <time>2022-01-07T10:35:58.000Z</time>
      </trkpt>
      <trkpt lat="41.4648659527301788330078125" lon="2.1087250672280788421630859375">
        <ele>140.600006103515625</ele>
        <time>2022-01-07T10:35:59.000Z</time>
      </trkpt>
      <trkpt lat="41.4649003185331821441650390625" lon="2.10870034061372280120849609375">
        <ele>140</ele>
        <time>2022-01-07T10:36:00.000Z</time>
      </trkpt>
      <trkpt lat="41.464940719306468963623046875" lon="2.1086575090885162353515625">
        <ele>139.600006103515625</ele>
        <time>2022-01-07T10:36:01.000Z</time>
      </trkpt>
      <trkpt lat="41.46496930159628391265869140625" lon="2.10859623737633228302001953125">
        <ele>139.600006103515625</ele>
        <time>2022-01-07T10:36:02.000Z</time>
      </trkpt>
      <trkpt lat="41.46498455666005611419677734375" lon="2.10852398537099361419677734375">
        <ele>139.399993896484375</ele>
        <time>2022-01-07T10:36:03.000Z</time>
      </trkpt>
      <trkpt lat="41.46499880589544773101806640625" lon="2.1084407530725002288818359375">
        <ele>138.399993896484375</ele>
        <time>2022-01-07T10:36:04.000Z</time>
      </trkpt>
      <trkpt lat="41.46501573733985424041748046875" lon="2.10837160237133502960205078125">
        <ele>137.600006103515625</ele>
        <time>2022-01-07T10:36:05.000Z</time>
      </trkpt>
      <trkpt lat="41.46503551863133907318115234375" lon="2.1083007752895355224609375">
        <ele>136.8000030517578125</ele>
        <time>2022-01-07T10:36:06.000Z</time>
      </trkpt>
      <trkpt lat="41.46505211479961872100830078125" lon="2.1082452870905399322509765625">
        <ele>136.600006103515625</ele>
        <time>2022-01-07T10:36:07.000Z</time>
      </trkpt>
      <trkpt lat="41.4650753326714038848876953125" lon="2.10816658101975917816162109375">
        <ele>136.399993896484375</ele>
        <time>2022-01-07T10:36:08.000Z</time>
      </trkpt>
      <trkpt lat="41.46509067155420780181884765625" lon="2.1081048063933849334716796875">
        <ele>136</ele>
        <time>2022-01-07T10:36:09.000Z</time>
      </trkpt>
      <trkpt lat="41.46510039456188678741455078125" lon="2.1080441214144229888916015625">
        <ele>135.399993896484375</ele>
        <time>2022-01-07T10:36:10.000Z</time>
      </trkpt>
      <trkpt lat="41.46511246450245380401611328125" lon="2.10799005813896656036376953125">
        <ele>134.8000030517578125</ele>
        <time>2022-01-07T10:36:11.000Z</time>
      </trkpt>
      <trkpt lat="41.46512185223400592803955078125" lon="2.10794798098504543304443359375">
        <ele>134.399993896484375</ele>
        <time>2022-01-07T10:36:12.000Z</time>
      </trkpt>
      <trkpt lat="41.4651356823742389678955078125" lon="2.10790154524147510528564453125">
        <ele>134</ele>
        <time>2022-01-07T10:36:13.000Z</time>
      </trkpt>
      <trkpt lat="41.4651504345238208770751953125" lon="2.10785058327019214630126953125">
        <ele>133.8000030517578125</ele>
        <time>2022-01-07T10:36:14.000Z</time>
      </trkpt>
      <trkpt lat="41.4651504345238208770751953125" lon="2.10785058327019214630126953125">
        <ele>133.600006103515625</ele>
        <time>2022-01-07T10:36:15.000Z</time>
      </trkpt>
      <trkpt lat="41.46515361964702606201171875" lon="2.10777984000742435455322265625">
        <ele>133.399993896484375</ele>
        <time>2022-01-07T10:36:16.000Z</time>
      </trkpt>
      <trkpt lat="41.4651578105986118316650390625" lon="2.10773340426385402679443359375">
        <ele>133.399993896484375</ele>
        <time>2022-01-07T10:36:17.000Z</time>
      </trkpt>
      <trkpt lat="41.46517147310078144073486328125" lon="2.10766919888556003570556640625">
        <ele>133.399993896484375</ele>
        <time>2022-01-07T10:36:18.000Z</time>
      </trkpt>
      <trkpt lat="41.46517331711947917938232421875" lon="2.1076059155166149139404296875">
        <ele>133.1999969482421875</ele>
        <time>2022-01-07T10:36:19.000Z</time>
      </trkpt>
      <trkpt lat="41.4651561342179775238037109375" lon="2.10754514671862125396728515625">
        <ele>133.1999969482421875</ele>
        <time>2022-01-07T10:36:20.000Z</time>
      </trkpt>
      <trkpt lat="41.46513207815587520599365234375" lon="2.1074915863573551177978515625">
        <ele>133.1999969482421875</ele>
        <time>2022-01-07T10:36:21.000Z</time>
      </trkpt>
      <trkpt lat="41.465111710131168365478515625" lon="2.107445485889911651611328125">
        <ele>133</ele>
        <time>2022-01-07T10:36:22.000Z</time>
      </trkpt>
      <trkpt lat="41.465084217488765716552734375" lon="2.107370384037494659423828125">
        <ele>133</ele>
        <time>2022-01-07T10:36:23.000Z</time>
      </trkpt>
      <trkpt lat="41.4650676213204860687255859375" lon="2.1073068492114543914794921875">
        <ele>132.8000030517578125</ele>
        <time>2022-01-07T10:36:24.000Z</time>
      </trkpt>
      <trkpt lat="41.46504591219127178192138671875" lon="2.10724121890962123870849609375">
        <ele>132.8000030517578125</ele>
        <time>2022-01-07T10:36:25.000Z</time>
      </trkpt>
      <trkpt lat="41.46501548588275909423828125" lon="2.10717265494167804718017578125">
        <ele>132</ele>
        <time>2022-01-07T10:36:26.000Z</time>
      </trkpt>
      <trkpt lat="41.46498857997357845306396484375" lon="2.1071050129830837249755859375">
        <ele>131.399993896484375</ele>
        <time>2022-01-07T10:36:27.000Z</time>
      </trkpt>
      <trkpt lat="41.46497122943401336669921875" lon="2.10704206489026546478271484375">
        <ele>130.8000030517578125</ele>
        <time>2022-01-07T10:36:28.000Z</time>
      </trkpt>
      <trkpt lat="41.46496578119695186614990234375" lon="2.10698314011096954345703125">
        <ele>130.600006103515625</ele>
        <time>2022-01-07T10:36:29.000Z</time>
      </trkpt>
      <trkpt lat="41.4649730734527111053466796875" lon="2.106935866177082061767578125">
        <ele>130.399993896484375</ele>
        <time>2022-01-07T10:36:30.000Z</time>
      </trkpt>
      <trkpt lat="41.46499042399227619171142578125" lon="2.106899321079254150390625">
        <ele>130.1999969482421875</ele>
        <time>2022-01-07T10:36:31.000Z</time>
      </trkpt>
      <trkpt lat="41.465011127293109893798828125" lon="2.1068684756755828857421875">
        <ele>130.1999969482421875</ele>
        <time>2022-01-07T10:36:32.000Z</time>
      </trkpt>
      <trkpt lat="41.46503367461264133453369140625" lon="2.10684257559478282928466796875">
        <ele>130.1999969482421875</ele>
        <time>2022-01-07T10:36:33.000Z</time>
      </trkpt>
      <trkpt lat="41.46505974233150482177734375" lon="2.10682011209428310394287109375">
        <ele>130.1999969482421875</ele>
        <time>2022-01-07T10:36:34.000Z</time>
      </trkpt>
      <trkpt lat="41.46508983336389064788818359375" lon="2.1067942120134830474853515625">
        <ele>130.1999969482421875</ele>
        <time>2022-01-07T10:36:35.000Z</time>
      </trkpt>
      <trkpt lat="41.4651185832917690277099609375" lon="2.1067546494305133819580078125">
        <ele>130.1999969482421875</ele>
        <time>2022-01-07T10:36:36.000Z</time>
      </trkpt>
      <trkpt lat="41.4651500992476940155029296875" lon="2.10669890977442264556884765625">
        <ele>130.1999969482421875</ele>
        <time>2022-01-07T10:36:37.000Z</time>
      </trkpt>
      <trkpt lat="41.46518488414585590362548828125" lon="2.10663487203419208526611328125">
        <ele>130.1999969482421875</ele>
        <time>2022-01-07T10:36:38.000Z</time>
      </trkpt>
      <trkpt lat="41.46521924994885921478271484375" lon="2.10656873881816864013671875">
        <ele>130.1999969482421875</ele>
        <time>2022-01-07T10:36:39.000Z</time>
      </trkpt>
      <trkpt lat="41.4652439765632152557373046875" lon="2.10650168359279632568359375">
        <ele>130.399993896484375</ele>
        <time>2022-01-07T10:36:40.000Z</time>
      </trkpt>
      <trkpt lat="41.465265266597270965576171875" lon="2.10642867721617221832275390625">
        <ele>130.600006103515625</ele>
        <time>2022-01-07T10:36:41.000Z</time>
      </trkpt>
      <trkpt lat="41.46527566015720367431640625" lon="2.10635122843086719512939453125">
        <ele>130.8000030517578125</ele>
        <time>2022-01-07T10:36:42.000Z</time>
      </trkpt>
      <trkpt lat="41.46528664045035839080810546875" lon="2.1062775515019893646240234375">
        <ele>130.8000030517578125</ele>
        <time>2022-01-07T10:36:43.000Z</time>
      </trkpt>
      <trkpt lat="41.46529971621930599212646484375" lon="2.10621225647628307342529296875">
        <ele>131</ele>
        <time>2022-01-07T10:36:44.000Z</time>
      </trkpt>
      <trkpt lat="41.46531446836888790130615234375" lon="2.106147967278957366943359375">
        <ele>131</ele>
        <time>2022-01-07T10:36:45.000Z</time>
      </trkpt>
      <trkpt lat="41.46532796323299407958984375" lon="2.10608719848096370697021484375">
        <ele>131</ele>
        <time>2022-01-07T10:36:46.000Z</time>
      </trkpt>
      <trkpt lat="41.46533869206905364990234375" lon="2.1060237474739551544189453125">
        <ele>131.1999969482421875</ele>
        <time>2022-01-07T10:36:47.000Z</time>
      </trkpt>
      <trkpt lat="41.46535403095185756683349609375" lon="2.1059484779834747314453125">
        <ele>131.1999969482421875</ele>
        <time>2022-01-07T10:36:48.000Z</time>
      </trkpt>
      <trkpt lat="41.46538236178457736968994140625" lon="2.10587329231202602386474609375">
        <ele>131.1999969482421875</ele>
        <time>2022-01-07T10:36:49.000Z</time>
      </trkpt>
      <trkpt lat="41.4654196612536907196044921875" lon="2.1057934127748012542724609375">
        <ele>131.1999969482421875</ele>
        <time>2022-01-07T10:36:50.000Z</time>
      </trkpt>
      <trkpt lat="41.46545310504734516143798828125" lon="2.1057320572435855865478515625">
        <ele>131.1999969482421875</ele>
        <time>2022-01-07T10:36:51.000Z</time>
      </trkpt>
      <trkpt lat="41.4654893986880779266357421875" lon="2.10566173307597637176513671875">
        <ele>131.1999969482421875</ele>
        <time>2022-01-07T10:36:52.000Z</time>
      </trkpt>
      <trkpt lat="41.4655178971588611602783203125" lon="2.10559568367898464202880859375">
        <ele>131</ele>
        <time>2022-01-07T10:36:53.000Z</time>
      </trkpt>
      <trkpt lat="41.4655457250773906707763671875" lon="2.10552661679685115814208984375">
        <ele>131</ele>
        <time>2022-01-07T10:36:54.000Z</time>
      </trkpt>
      <trkpt lat="41.46557346917688846588134765625" lon="2.1054373495280742645263671875">
        <ele>130.8000030517578125</ele>
        <time>2022-01-07T10:36:55.000Z</time>
      </trkpt>
      <trkpt lat="41.46559827961027622222900390625" lon="2.1053615771234035491943359375">
        <ele>130.8000030517578125</ele>
        <time>2022-01-07T10:36:56.000Z</time>
      </trkpt>
      <trkpt lat="41.4656278677284717559814453125" lon="2.105288989841938018798828125">
        <ele>130.8000030517578125</ele>
        <time>2022-01-07T10:36:57.000Z</time>
      </trkpt>
      <trkpt lat="41.46565879695117473602294921875" lon="2.10521648637950420379638671875">
        <ele>130.8000030517578125</ele>
        <time>2022-01-07T10:36:58.000Z</time>
      </trkpt>
      <trkpt lat="41.46568796597421169281005859375" lon="2.10514373145997524261474609375">
        <ele>130.600006103515625</ele>
        <time>2022-01-07T10:36:59.000Z</time>
      </trkpt>
      <trkpt lat="41.46571679972112178802490234375" lon="2.1050698868930339813232421875">
        <ele>130.600006103515625</ele>
        <time>2022-01-07T10:37:00.000Z</time>
      </trkpt>
      <trkpt lat="41.46574437618255615234375" lon="2.10499403066933155059814453125">
        <ele>130.600006103515625</ele>
        <time>2022-01-07T10:37:01.000Z</time>
      </trkpt>
      <trkpt lat="41.4657710306346416473388671875" lon="2.104915492236614227294921875">
        <ele>130.600006103515625</ele>
        <time>2022-01-07T10:37:02.000Z</time>
      </trkpt>
      <trkpt lat="41.465796343982219696044921875" lon="2.10483209230005741119384765625">
        <ele>130.600006103515625</ele>
        <time>2022-01-07T10:37:03.000Z</time>
      </trkpt>
      <trkpt lat="41.46581604145467281341552734375" lon="2.10474357940256595611572265625">
        <ele>130.399993896484375</ele>
        <time>2022-01-07T10:37:04.000Z</time>
      </trkpt>
      <trkpt lat="41.46583531983196735382080078125" lon="2.10465271957218647003173828125">
        <ele>130.399993896484375</ele>
        <time>2022-01-07T10:37:05.000Z</time>
      </trkpt>
      <trkpt lat="41.4658508263528347015380859375" lon="2.10458063520491123199462890625">
        <ele>130.1999969482421875</ele>
        <time>2022-01-07T10:37:06.000Z</time>
      </trkpt>
      <trkpt lat="41.46587572060525417327880859375" lon="2.10448960773646831512451171875">
        <ele>130.1999969482421875</ele>
        <time>2022-01-07T10:37:07.000Z</time>
      </trkpt>
      <trkpt lat="41.4659118466079235076904296875" lon="2.104380391538143157958984375">
        <ele>130.1999969482421875</ele>
        <time>2022-01-07T10:37:08.000Z</time>
      </trkpt>
      <trkpt lat="41.46594126708805561065673828125" lon="2.10430906154215335845947265625">
        <ele>130.1999969482421875</ele>
        <time>2022-01-07T10:37:09.000Z</time>
      </trkpt>
      <trkpt lat="41.4659862779080867767333984375" lon="2.10420629940927028656005859375">
        <ele>130</ele>
        <time>2022-01-07T10:37:10.000Z</time>
      </trkpt>
      <trkpt lat="41.4660211466252803802490234375" lon="2.10414293222129344940185546875">
        <ele>130.1999969482421875</ele>
        <time>2022-01-07T10:37:11.000Z</time>
      </trkpt>
      <trkpt lat="41.46607437171041965484619140625" lon="2.1040736138820648193359375">
        <ele>130</ele>
        <time>2022-01-07T10:37:12.000Z</time>
      </trkpt>
      <trkpt lat="41.46613623015582561492919921875" lon="2.10402122698724269866943359375">
        <ele>129.8000030517578125</ele>
        <time>2022-01-07T10:37:13.000Z</time>
      </trkpt>
      <trkpt lat="41.46620236337184906005859375" lon="2.103986777365207672119140625">
        <ele>129.399993896484375</ele>
        <time>2022-01-07T10:37:14.000Z</time>
      </trkpt>
      <trkpt lat="41.46628308109939098358154296875" lon="2.1039440296590328216552734375">
        <ele>129.1999969482421875</ele>
        <time>2022-01-07T10:37:15.000Z</time>
      </trkpt>
      <trkpt lat="41.46632934920489788055419921875" lon="2.10390035994350910186767578125">
        <ele>128.8000030517578125</ele>
        <time>2022-01-07T10:37:16.000Z</time>
      </trkpt>
      <trkpt lat="41.466387771070003509521484375" lon="2.10381721146404743194580078125">
        <ele>128.600006103515625</ele>
        <time>2022-01-07T10:37:17.000Z</time>
      </trkpt>
      <trkpt lat="41.4664269983768463134765625" lon="2.103739343583583831787109375">
        <ele>128.1999969482421875</ele>
        <time>2022-01-07T10:37:18.000Z</time>
      </trkpt>
      <trkpt lat="41.4664576761424541473388671875" lon="2.1036603860557079315185546875">
        <ele>128</ele>
        <time>2022-01-07T10:37:19.000Z</time>
      </trkpt>
      <trkpt lat="41.46648508496582508087158203125" lon="2.10357396863400936126708984375">
        <ele>127.8000030517578125</ele>
        <time>2022-01-07T10:37:20.000Z</time>
      </trkpt>
      <trkpt lat="41.466512493789196014404296875" lon="2.10348956286907196044921875">
        <ele>127.59999847412109375</ele>
        <time>2022-01-07T10:37:21.000Z</time>
      </trkpt>
      <trkpt lat="41.466543674468994140625" lon="2.10340918041765689849853515625">
        <ele>127.59999847412109375</ele>
        <time>2022-01-07T10:37:22.000Z</time>
      </trkpt>
      <trkpt lat="41.4665693230926990509033203125" lon="2.10334581322968006134033203125">
        <ele>127.40000152587890625</ele>
        <time>2022-01-07T10:37:23.000Z</time>
      </trkpt>
      <trkpt lat="41.4666008390486240386962890625" lon="2.10327205248177051544189453125">
        <ele>127.1999969482421875</ele>
        <time>2022-01-07T10:37:24.000Z</time>
      </trkpt>
      <trkpt lat="41.46663662977516651153564453125" lon="2.10318647325038909912109375">
        <ele>127.1999969482421875</ele>
        <time>2022-01-07T10:37:25.000Z</time>
      </trkpt>
      <trkpt lat="41.46666043438017368316650390625" lon="2.10313157178461551666259765625">
        <ele>127.1999969482421875</ele>
        <time>2022-01-07T10:37:26.000Z</time>
      </trkpt>
      <trkpt lat="41.4666900224983692169189453125" lon="2.10306367836892604827880859375">
        <ele>127</ele>
        <time>2022-01-07T10:37:27.000Z</time>
      </trkpt>
      <trkpt lat="41.4667158387601375579833984375" lon="2.10299544967710971832275390625">
        <ele>127</ele>
        <time>2022-01-07T10:37:28.000Z</time>
      </trkpt>
      <trkpt lat="41.4667429961264133453369140625" lon="2.10292906500399112701416015625">
        <ele>127</ele>
        <time>2022-01-07T10:37:29.000Z</time>
      </trkpt>
      <trkpt lat="41.46678281016647815704345703125" lon="2.1028560586273670196533203125">
        <ele>127</ele>
        <time>2022-01-07T10:37:30.000Z</time>
      </trkpt>
      <trkpt lat="41.466810218989849090576171875" lon="2.10280668921768665313720703125">
        <ele>127</ele>
        <time>2022-01-07T10:37:31.000Z</time>
      </trkpt>
      <trkpt lat="41.46684265695512294769287109375" lon="2.1027407236397266387939453125">
        <ele>127</ele>
        <time>2022-01-07T10:37:32.000Z</time>
      </trkpt>
      <trkpt lat="41.46687023341655731201171875" lon="2.10266671143472194671630859375">
        <ele>126.8000030517578125</ele>
        <time>2022-01-07T10:37:33.000Z</time>
      </trkpt>
      <trkpt lat="41.4668968878686428070068359375" lon="2.1025868318974971771240234375">
        <ele>126.8000030517578125</ele>
        <time>2022-01-07T10:37:34.000Z</time>
      </trkpt>
      <trkpt lat="41.4669324271380901336669921875" lon="2.1024882607161998748779296875">
        <ele>126.59999847412109375</ele>
        <time>2022-01-07T10:37:35.000Z</time>
      </trkpt>
      <trkpt lat="41.4669498614966869354248046875" lon="2.102417685091495513916015625">
        <ele>126.59999847412109375</ele>
        <time>2022-01-07T10:37:36.000Z</time>
      </trkpt>
      <trkpt lat="41.4669672958552837371826171875" lon="2.10232741199433803558349609375">
        <ele>126.40000152587890625</ele>
        <time>2022-01-07T10:37:37.000Z</time>
      </trkpt>
      <trkpt lat="41.46698364056646823883056640625" lon="2.10224024020135402679443359375">
        <ele>126.40000152587890625</ele>
        <time>2022-01-07T10:37:38.000Z</time>
      </trkpt>
      <trkpt lat="41.46699772216379642486572265625" lon="2.10215516388416290283203125">
        <ele>126.40000152587890625</ele>
        <time>2022-01-07T10:37:39.000Z</time>
      </trkpt>
      <trkpt lat="41.467013061046600341796875" lon="2.10206991992890834808349609375">
        <ele>126.1999969482421875</ele>
        <time>2022-01-07T10:37:40.000Z</time>
      </trkpt>
      <trkpt lat="41.4670303277671337127685546875" lon="2.1019846759736537933349609375">
        <ele>125.8000030517578125</ele>
        <time>2022-01-07T10:37:41.000Z</time>
      </trkpt>
      <trkpt lat="41.467050611972808837890625" lon="2.10190479643642902374267578125">
        <ele>125.59999847412109375</ele>
        <time>2022-01-07T10:37:42.000Z</time>
      </trkpt>
      <trkpt lat="41.4670707285404205322265625" lon="2.10182793438434600830078125">
        <ele>125.1999969482421875</ele>
        <time>2022-01-07T10:37:43.000Z</time>
      </trkpt>
      <trkpt lat="41.46709277294576168060302734375" lon="2.1017503179609775543212890625">
        <ele>125</ele>
        <time>2022-01-07T10:37:44.000Z</time>
      </trkpt>
      <trkpt lat="41.467108614742755889892578125" lon="2.10167102515697479248046875">
        <ele>124.40000152587890625</ele>
        <time>2022-01-07T10:37:45.000Z</time>
      </trkpt>
      <trkpt lat="41.4671191759407520294189453125" lon="2.101589553058147430419921875">
        <ele>124</ele>
        <time>2022-01-07T10:37:46.000Z</time>
      </trkpt>
      <trkpt lat="41.46712831221520900726318359375" lon="2.1015048958361148834228515625">
        <ele>123.8000030517578125</ele>
        <time>2022-01-07T10:37:47.000Z</time>
      </trkpt>
      <trkpt lat="41.467136442661285400390625" lon="2.1014200709760189056396484375">
        <ele>123.59999847412109375</ele>
        <time>2022-01-07T10:37:48.000Z</time>
      </trkpt>
      <trkpt lat="41.46714490838348865509033203125" lon="2.10133432410657405853271484375">
        <ele>123.40000152587890625</ele>
        <time>2022-01-07T10:37:49.000Z</time>
      </trkpt>
      <trkpt lat="41.4671634323894977569580078125" lon="2.10122921504080295562744140625">
        <ele>123.40000152587890625</ele>
        <time>2022-01-07T10:37:50.000Z</time>
      </trkpt>
      <trkpt lat="41.4671761728823184967041015625" lon="2.10115411318838596343994140625">
        <ele>123.1999969482421875</ele>
        <time>2022-01-07T10:37:51.000Z</time>
      </trkpt>
      <trkpt lat="41.467190422117710113525390625" lon="2.1010599844157695770263671875">
        <ele>123.1999969482421875</ele>
        <time>2022-01-07T10:37:52.000Z</time>
      </trkpt>
      <trkpt lat="41.4672013185918331146240234375" lon="2.100963257253170013427734375">
        <ele>123</ele>
        <time>2022-01-07T10:37:53.000Z</time>
      </trkpt>
      <trkpt lat="41.46721221506595611572265625" lon="2.1008685417473316192626953125">
        <ele>123</ele>
        <time>2022-01-07T10:37:54.000Z</time>
      </trkpt>
      <trkpt lat="41.46722738631069660186767578125" lon="2.1007783524692058563232421875">
        <ele>122.8000030517578125</ele>
        <time>2022-01-07T10:37:55.000Z</time>
      </trkpt>
      <trkpt lat="41.46723861806094646453857421875" lon="2.10068422369658946990966796875">
        <ele>122.59999847412109375</ele>
        <time>2022-01-07T10:37:56.000Z</time>
      </trkpt>
      <trkpt lat="41.467249430716037750244140625" lon="2.1005932800471782684326171875">
        <ele>122.40000152587890625</ele>
        <time>2022-01-07T10:37:57.000Z</time>
      </trkpt>
      <trkpt lat="41.46725873462855815887451171875" lon="2.1005000732839107513427734375">
        <ele>122.40000152587890625</ele>
        <time>2022-01-07T10:37:58.000Z</time>
      </trkpt>
      <trkpt lat="41.46726828999817371368408203125" lon="2.1004078723490238189697265625">
        <ele>122.1999969482421875</ele>
        <time>2022-01-07T10:37:59.000Z</time>
      </trkpt>
      <trkpt lat="41.467282287776470184326171875" lon="2.1003183536231517791748046875">
        <ele>121.8000030517578125</ele>
        <time>2022-01-07T10:38:00.000Z</time>
      </trkpt>
      <trkpt lat="41.467306427657604217529296875" lon="2.10023545660078525543212890625">
        <ele>121.1999969482421875</ele>
        <time>2022-01-07T10:38:01.000Z</time>
      </trkpt>
      <trkpt lat="41.4673389494419097900390625" lon="2.10016362369060516357421875">
        <ele>121.1999969482421875</ele>
        <time>2022-01-07T10:38:02.000Z</time>
      </trkpt>
      <trkpt lat="41.4673765003681182861328125" lon="2.10009681992232799530029296875">
        <ele>121</ele>
        <time>2022-01-07T10:38:03.000Z</time>
      </trkpt>
      <trkpt lat="41.46741312928497791290283203125" lon="2.100025825202465057373046875">
        <ele>120.59999847412109375</ele>
        <time>2022-01-07T10:38:04.000Z</time>
      </trkpt>
      <trkpt lat="41.467450596392154693603515625" lon="2.0999532379209995269775390625">
        <ele>120.40000152587890625</ele>
        <time>2022-01-07T10:38:05.000Z</time>
      </trkpt>
      <trkpt lat="41.46749342791736125946044921875" lon="2.09988324902951717376708984375">
        <ele>120.40000152587890625</ele>
        <time>2022-01-07T10:38:06.000Z</time>
      </trkpt>
      <trkpt lat="41.46753408014774322509765625" lon="2.09981082938611507415771484375">
        <ele>120.1999969482421875</ele>
        <time>2022-01-07T10:38:07.000Z</time>
      </trkpt>
      <trkpt lat="41.46757028996944427490234375" lon="2.0997316204011440277099609375">
        <ele>120</ele>
        <time>2022-01-07T10:38:08.000Z</time>
      </trkpt>
      <trkpt lat="41.46760247647762298583984375" lon="2.099652327597141265869140625">
        <ele>119.8000030517578125</ele>
        <time>2022-01-07T10:38:09.000Z</time>
      </trkpt>
      <trkpt lat="41.467637680470943450927734375" lon="2.09957228042185306549072265625">
        <ele>119.8000030517578125</ele>
        <time>2022-01-07T10:38:10.000Z</time>
      </trkpt>
      <trkpt lat="41.46767112426459789276123046875" lon="2.09949114359915256500244140625">
        <ele>119.59999847412109375</ele>
        <time>2022-01-07T10:38:11.000Z</time>
      </trkpt>
      <trkpt lat="41.46770733408629894256591796875" lon="2.09941394627094268798828125">
        <ele>119.59999847412109375</ele>
        <time>2022-01-07T10:38:12.000Z</time>
      </trkpt>
      <trkpt lat="41.4677421189844608306884765625" lon="2.09933624602854251861572265625">
        <ele>119.40000152587890625</ele>
        <time>2022-01-07T10:38:13.000Z</time>
      </trkpt>
      <trkpt lat="41.4677753113210201263427734375" lon="2.0992565341293811798095703125">
        <ele>119.40000152587890625</ele>
        <time>2022-01-07T10:38:14.000Z</time>
      </trkpt>
      <trkpt lat="41.46780892275273799896240234375" lon="2.09917933680117130279541015625">
        <ele>119.1999969482421875</ele>
        <time>2022-01-07T10:38:15.000Z</time>
      </trkpt>
      <trkpt lat="41.4678460545837879180908203125" lon="2.09910825826227664947509765625">
        <ele>119</ele>
        <time>2022-01-07T10:38:16.000Z</time>
      </trkpt>
      <trkpt lat="41.4678862877190113067626953125" lon="2.09903801791369915008544921875">
        <ele>118.59999847412109375</ele>
        <time>2022-01-07T10:38:17.000Z</time>
      </trkpt>
      <trkpt lat="41.4679276943206787109375" lon="2.09897062741219997406005859375">
        <ele>118.40000152587890625</ele>
        <time>2022-01-07T10:38:18.000Z</time>
      </trkpt>
      <trkpt lat="41.4679707773029804229736328125" lon="2.0989055000245571136474609375">
        <ele>118.1999969482421875</ele>
        <time>2022-01-07T10:38:19.000Z</time>
      </trkpt>
      <trkpt lat="41.4680160395801067352294921875" lon="2.09884397685527801513671875">
        <ele>118.1999969482421875</ele>
        <time>2022-01-07T10:38:20.000Z</time>
      </trkpt>
      <trkpt lat="41.4680646546185016632080078125" lon="2.0987874828279018402099609375">
        <ele>118.1999969482421875</ele>
        <time>2022-01-07T10:38:21.000Z</time>
      </trkpt>
      <trkpt lat="41.46811746060848236083984375" lon="2.0987432263791561126708984375">
        <ele>118.1999969482421875</ele>
        <time>2022-01-07T10:38:22.000Z</time>
      </trkpt>
      <trkpt lat="41.46816917695105075836181640625" lon="2.098700813949108123779296875">
        <ele>118.1999969482421875</ele>
        <time>2022-01-07T10:38:23.000Z</time>
      </trkpt>
      <trkpt lat="41.4682172052562236785888671875" lon="2.098657898604869842529296875">
        <ele>118.1999969482421875</ele>
        <time>2022-01-07T10:38:24.000Z</time>
      </trkpt>
      <trkpt lat="41.468268334865570068359375" lon="2.09860115312039852142333984375">
        <ele>118.1999969482421875</ele>
        <time>2022-01-07T10:38:25.000Z</time>
      </trkpt>
      <trkpt lat="41.46829909645020961761474609375" lon="2.09856259636580944061279296875">
        <ele>118.1999969482421875</ele>
        <time>2022-01-07T10:38:26.000Z</time>
      </trkpt>
      <trkpt lat="41.46833228878676891326904296875" lon="2.09851515479385852813720703125">
        <ele>118.1999969482421875</ele>
        <time>2022-01-07T10:38:27.000Z</time>
      </trkpt>
      <trkpt lat="41.4683607034385204315185546875" lon="2.09846620447933673858642578125">
        <ele>118.1999969482421875</ele>
        <time>2022-01-07T10:38:28.000Z</time>
      </trkpt>
      <trkpt lat="41.46838543005287647247314453125" lon="2.09840954281389713287353515625">
        <ele>118.1999969482421875</ele>
        <time>2022-01-07T10:38:29.000Z</time>
      </trkpt>
      <trkpt lat="41.46841359324753284454345703125" lon="2.0983350276947021484375">
        <ele>118.1999969482421875</ele>
        <time>2022-01-07T10:38:30.000Z</time>
      </trkpt>
      <trkpt lat="41.46843303926289081573486328125" lon="2.09828146733343601226806640625">
        <ele>118.1999969482421875</ele>
        <time>2022-01-07T10:38:31.000Z</time>
      </trkpt>
      <trkpt lat="41.46845952607691287994384765625" lon="2.09821407683193683624267578125">
        <ele>118.1999969482421875</ele>
        <time>2022-01-07T10:38:32.000Z</time>
      </trkpt>
      <trkpt lat="41.4684911258518695831298828125" lon="2.098140902817249298095703125">
        <ele>118.1999969482421875</ele>
        <time>2022-01-07T10:38:33.000Z</time>
      </trkpt>
      <trkpt lat="41.46852247416973114013671875" lon="2.09806370548903942108154296875">
        <ele>118.1999969482421875</ele>
        <time>2022-01-07T10:38:34.000Z</time>
      </trkpt>
      <trkpt lat="41.4685608632862567901611328125" lon="2.09796764887869358062744140625">
        <ele>118.1999969482421875</ele>
        <time>2022-01-07T10:38:35.000Z</time>
      </trkpt>
      <trkpt lat="41.468586511909961700439453125" lon="2.0979043655097484588623046875">
        <ele>118.1999969482421875</ele>
        <time>2022-01-07T10:38:36.000Z</time>
      </trkpt>
      <trkpt lat="41.46862037479877471923828125" lon="2.0978262461721897125244140625">
        <ele>118.1999969482421875</ele>
        <time>2022-01-07T10:38:37.000Z</time>
      </trkpt>
      <trkpt lat="41.468656919896602630615234375" lon="2.097749300301074981689453125">
        <ele>118.1999969482421875</ele>
        <time>2022-01-07T10:38:38.000Z</time>
      </trkpt>
      <trkpt lat="41.4686926268041133880615234375" lon="2.09767361171543598175048828125">
        <ele>118.1999969482421875</ele>
        <time>2022-01-07T10:38:39.000Z</time>
      </trkpt>
      <trkpt lat="41.46872774697840213775634765625" lon="2.0975975878536701202392578125">
        <ele>118.1999969482421875</ele>
        <time>2022-01-07T10:38:40.000Z</time>
      </trkpt>
      <trkpt lat="41.4687645435333251953125" lon="2.09752441383898258209228515625">
        <ele>118.1999969482421875</ele>
        <time>2022-01-07T10:38:41.000Z</time>
      </trkpt>
      <trkpt lat="41.46879916079342365264892578125" lon="2.09745056927204132080078125">
        <ele>118.1999969482421875</ele>
        <time>2022-01-07T10:38:42.000Z</time>
      </trkpt>
      <trkpt lat="41.4688324369490146636962890625" lon="2.097373791038990020751953125">
        <ele>118</ele>
        <time>2022-01-07T10:38:43.000Z</time>
      </trkpt>
      <trkpt lat="41.46886571310460567474365234375" lon="2.09730061702430248260498046875">
        <ele>117.8000030517578125</ele>
        <time>2022-01-07T10:38:44.000Z</time>
      </trkpt>
      <trkpt lat="41.46889924071729183197021484375" lon="2.09723062813282012939453125">
        <ele>117.40000152587890625</ele>
        <time>2022-01-07T10:38:45.000Z</time>
      </trkpt>
      <trkpt lat="41.46893125958740711212158203125" lon="2.097159884870052337646484375">
        <ele>117.1999969482421875</ele>
        <time>2022-01-07T10:38:46.000Z</time>
      </trkpt>
      <trkpt lat="41.468963362276554107666015625" lon="2.09709383547306060791015625">
        <ele>117.1999969482421875</ele>
        <time>2022-01-07T10:38:47.000Z</time>
      </trkpt>
      <trkpt lat="41.46899194456636905670166015625" lon="2.09702535532414913177490234375">
        <ele>117</ele>
        <time>2022-01-07T10:38:48.000Z</time>
      </trkpt>
      <trkpt lat="41.46901893429458141326904296875" lon="2.09695880301296710968017578125">
        <ele>117</ele>
        <time>2022-01-07T10:38:49.000Z</time>
      </trkpt>
      <trkpt lat="41.46904391236603260040283203125" lon="2.0968992076814174652099609375">
        <ele>117</ele>
        <time>2022-01-07T10:38:50.000Z</time>
      </trkpt>
      <trkpt lat="41.46906889043748378753662109375" lon="2.09684573113918304443359375">
        <ele>117</ele>
        <time>2022-01-07T10:38:51.000Z</time>
      </trkpt>
      <trkpt lat="41.46909286268055438995361328125" lon="2.096798457205295562744140625">
        <ele>117</ele>
        <time>2022-01-07T10:38:52.000Z</time>
      </trkpt>
      <trkpt lat="41.469114907085895538330078125" lon="2.09675629623234272003173828125">
        <ele>117</ele>
        <time>2022-01-07T10:38:53.000Z</time>
      </trkpt>
      <trkpt lat="41.46913561038672924041748046875" lon="2.0967164821922779083251953125">
        <ele>117</ele>
        <time>2022-01-07T10:38:54.000Z</time>
      </trkpt>
      <trkpt lat="41.4691553078591823577880859375" lon="2.09666694514453411102294921875">
        <ele>117</ele>
        <time>2022-01-07T10:38:55.000Z</time>
      </trkpt>
      <trkpt lat="41.469166539609432220458984375" lon="2.09663274697959423065185546875">
        <ele>117</ele>
        <time>2022-01-07T10:38:56.000Z</time>
      </trkpt>
      <trkpt lat="41.46918389014899730682373046875" lon="2.09658958017826080322265625">
        <ele>117</ele>
        <time>2022-01-07T10:38:57.000Z</time>
      </trkpt>
      <trkpt lat="41.46920450963079929351806640625" lon="2.0965320803225040435791015625">
        <ele>117</ele>
        <time>2022-01-07T10:38:58.000Z</time>
      </trkpt>
      <trkpt lat="41.46921984851360321044921875" lon="2.0964901708066463470458984375">
        <ele>117</ele>
        <time>2022-01-07T10:38:59.000Z</time>
      </trkpt>
      <trkpt lat="41.4692384563386440277099609375" lon="2.09643459878861904144287109375">
        <ele>117</ele>
        <time>2022-01-07T10:39:00.000Z</time>
      </trkpt>
      <trkpt lat="41.4692498557269573211669921875" lon="2.0963748358190059661865234375">
        <ele>117</ele>
        <time>2022-01-07T10:39:01.000Z</time>
      </trkpt>
      <trkpt lat="41.46924910135567188262939453125" lon="2.09631373174488544464111328125">
        <ele>117</ele>
        <time>2022-01-07T10:39:02.000Z</time>
      </trkpt>
      <trkpt lat="41.469241641461849212646484375" lon="2.0962507836520671844482421875">
        <ele>117</ele>
        <time>2022-01-07T10:39:03.000Z</time>
      </trkpt>
      <trkpt lat="41.4692307449877262115478515625" lon="2.09618699736893177032470703125">
        <ele>117</ele>
        <time>2022-01-07T10:39:04.000Z</time>
      </trkpt>
      <trkpt lat="41.46920970641076564788818359375" lon="2.0961274020373821258544921875">
        <ele>117</ele>
        <time>2022-01-07T10:39:05.000Z</time>
      </trkpt>
      <trkpt lat="41.4691858179867267608642578125" lon="2.09607191383838653564453125">
        <ele>117</ele>
        <time>2022-01-07T10:39:06.000Z</time>
      </trkpt>
      <trkpt lat="41.469169221818447113037109375" lon="2.09601064212620258331298828125">
        <ele>117</ele>
        <time>2022-01-07T10:39:07.000Z</time>
      </trkpt>
      <trkpt lat="41.4691620133817195892333984375" lon="2.0959450118243694305419921875">
        <ele>116.8000030517578125</ele>
        <time>2022-01-07T10:39:08.000Z</time>
      </trkpt>
      <trkpt lat="41.46916410885751247406005859375" lon="2.0958767831325531005859375">
        <ele>116.59999847412109375</ele>
        <time>2022-01-07T10:39:09.000Z</time>
      </trkpt>
      <trkpt lat="41.469168551266193389892578125" lon="2.09580930881202220916748046875">
        <ele>116.40000152587890625</ele>
        <time>2022-01-07T10:39:10.000Z</time>
      </trkpt>
      <trkpt lat="41.4691767655313014984130859375" lon="2.09575247950851917266845703125">
        <ele>116.1999969482421875</ele>
        <time>2022-01-07T10:39:11.000Z</time>
      </trkpt>
      <trkpt lat="41.46918673999607563018798828125" lon="2.09570554085075855255126953125">
        <ele>116.1999969482421875</ele>
        <time>2022-01-07T10:39:12.000Z</time>
      </trkpt>
      <trkpt lat="41.46919227205216884613037109375" lon="2.09566262550652027130126953125">
        <ele>116.1999969482421875</ele>
        <time>2022-01-07T10:39:13.000Z</time>
      </trkpt>
      <trkpt lat="41.4691952057182788848876953125" lon="2.09562339819967746734619140625">
        <ele>116.1999969482421875</ele>
        <time>2022-01-07T10:39:14.000Z</time>
      </trkpt>
      <trkpt lat="41.4692029170691967010498046875" lon="2.09558852948248386383056640625">
        <ele>116.1999969482421875</ele>
        <time>2022-01-07T10:39:15.000Z</time>
      </trkpt>
      <trkpt lat="41.46921423263847827911376953125" lon="2.09556019864976406097412109375">
        <ele>116.1999969482421875</ele>
        <time>2022-01-07T10:39:16.000Z</time>
      </trkpt>
      <trkpt lat="41.46923284046351909637451171875" lon="2.095551230013370513916015625">
        <ele>116.1999969482421875</ele>
        <time>2022-01-07T10:39:17.000Z</time>
      </trkpt>
      <trkpt lat="41.4692501910030841827392578125" lon="2.0955513976514339447021484375">
        <ele>116.1999969482421875</ele>
        <time>2022-01-07T10:39:18.000Z</time>
      </trkpt>
      <trkpt lat="41.46926921792328357696533203125" lon="2.095559276640415191650390625">
        <ele>116.1999969482421875</ele>
        <time>2022-01-07T10:39:19.000Z</time>
      </trkpt>
      <trkpt lat="41.46929235197603702545166015625" lon="2.0955825783312320709228515625">
        <ele>116.59999847412109375</ele>
        <time>2022-01-07T10:39:20.000Z</time>
      </trkpt>
      <trkpt lat="41.46931867115199565887451171875" lon="2.09562339819967746734619140625">
        <ele>117.40000152587890625</ele>
        <time>2022-01-07T10:39:21.000Z</time>
      </trkpt>
      <trkpt lat="41.46934834308922290802001953125" lon="2.09566966630518436431884765625">
        <ele>118.40000152587890625</ele>
        <time>2022-01-07T10:39:22.000Z</time>
      </trkpt>
      <trkpt lat="41.4693839661777019500732421875" lon="2.095713503658771514892578125">
        <ele>119</ele>
        <time>2022-01-07T10:39:23.000Z</time>
      </trkpt>
      <trkpt lat="41.46942378021776676177978515625" lon="2.0957455225288867950439453125">
        <ele>119.59999847412109375</ele>
        <time>2022-01-07T10:39:24.000Z</time>
      </trkpt>
      <trkpt lat="41.46946384571492671966552734375" lon="2.09576689638197422027587890625">
        <ele>119.8000030517578125</ele>
        <time>2022-01-07T10:39:25.000Z</time>
      </trkpt>
      <trkpt lat="41.46950055845081806182861328125" lon="2.0957810617983341217041015625">
        <ele>120</ele>
        <time>2022-01-07T10:39:26.000Z</time>
      </trkpt>
      <trkpt lat="41.46953593008220195770263671875" lon="2.095789276063442230224609375">
        <ele>120</ele>
        <time>2022-01-07T10:39:27.000Z</time>
      </trkpt>
      <trkpt lat="41.46957213990390300750732421875" lon="2.09578902460634708404541015625">
        <ele>120</ele>
        <time>2022-01-07T10:39:28.000Z</time>
      </trkpt>
      <trkpt lat="41.46961069665849208831787109375" lon="2.09578030742704868316650390625">
        <ele>120.1999969482421875</ele>
        <time>2022-01-07T10:39:29.000Z</time>
      </trkpt>
      <trkpt lat="41.46964523009955883026123046875" lon="2.0957668125629425048828125">
        <ele>120.1999969482421875</ele>
        <time>2022-01-07T10:39:30.000Z</time>
      </trkpt>
      <trkpt lat="41.469676829874515533447265625" lon="2.0957518927752971649169921875">
        <ele>120.1999969482421875</ele>
        <time>2022-01-07T10:39:31.000Z</time>
      </trkpt>
      <trkpt lat="41.4697098545730113983154296875" lon="2.09573605097830295562744140625">
        <ele>120.1999969482421875</ele>
        <time>2022-01-07T10:39:32.000Z</time>
      </trkpt>
      <trkpt lat="41.46973977796733379364013671875" lon="2.09572901017963886260986328125">
        <ele>120.1999969482421875</ele>
        <time>2022-01-07T10:39:33.000Z</time>
      </trkpt>
      <trkpt lat="41.4697712101042270660400390625" lon="2.09573839791119098663330078125">
        <ele>120.1999969482421875</ele>
        <time>2022-01-07T10:39:34.000Z</time>
      </trkpt>
      <trkpt lat="41.46980280987918376922607421875" lon="2.09575516171753406524658203125">
        <ele>120.1999969482421875</ele>
        <time>2022-01-07T10:39:35.000Z</time>
      </trkpt>
      <trkpt lat="41.46983734332025051116943359375" lon="2.09577812813222408294677734375">
        <ele>120.1999969482421875</ele>
        <time>2022-01-07T10:39:36.000Z</time>
      </trkpt>
      <trkpt lat="41.469875983893871307373046875" lon="2.0958082191646099090576171875">
        <ele>120.1999969482421875</ele>
        <time>2022-01-07T10:39:37.000Z</time>
      </trkpt>
      <trkpt lat="41.46991361863911151885986328125" lon="2.0958383940160274505615234375">
        <ele>120.1999969482421875</ele>
        <time>2022-01-07T10:39:38.000Z</time>
      </trkpt>
      <trkpt lat="41.46995301358401775360107421875" lon="2.09586932323873043060302734375">
        <ele>120</ele>
        <time>2022-01-07T10:39:39.000Z</time>
      </trkpt>
      <trkpt lat="41.4699928276240825653076171875" lon="2.09590033628046512603759765625">
        <ele>120</ele>
        <time>2022-01-07T10:39:40.000Z</time>
      </trkpt>
      <trkpt lat="41.47003213874995708465576171875" lon="2.095929421484470367431640625">
        <ele>120</ele>
        <time>2022-01-07T10:39:41.000Z</time>
      </trkpt>
      <trkpt lat="41.47007622756063938140869140625" lon="2.09595951251685619354248046875">
        <ele>120</ele>
        <time>2022-01-07T10:39:42.000Z</time>
      </trkpt>
      <trkpt lat="41.47011763416230678558349609375" lon="2.0959922857582569122314453125">
        <ele>120</ele>
        <time>2022-01-07T10:39:43.000Z</time>
      </trkpt>
      <trkpt lat="41.4701606333255767822265625" lon="2.0960201136767864227294921875">
        <ele>120</ele>
        <time>2022-01-07T10:39:44.000Z</time>
      </trkpt>
      <trkpt lat="41.47020631469786167144775390625" lon="2.0960439182817935943603515625">
        <ele>119.8000030517578125</ele>
        <time>2022-01-07T10:39:45.000Z</time>
      </trkpt>
      <trkpt lat="41.470247805118560791015625" lon="2.09607166238129138946533203125">
        <ele>119.59999847412109375</ele>
        <time>2022-01-07T10:39:46.000Z</time>
      </trkpt>
      <trkpt lat="41.47028711624443531036376953125" lon="2.096102423965930938720703125">
        <ele>119.40000152587890625</ele>
        <time>2022-01-07T10:39:47.000Z</time>
      </trkpt>
      <trkpt lat="41.47032785229384899139404296875" lon="2.09613201208412647247314453125">
        <ele>119.1999969482421875</ele>
        <time>2022-01-07T10:39:48.000Z</time>
      </trkpt>
      <trkpt lat="41.47037009708583354949951171875" lon="2.0961584150791168212890625">
        <ele>119</ele>
        <time>2022-01-07T10:39:49.000Z</time>
      </trkpt>
      <trkpt lat="41.47041318006813526153564453125" lon="2.096184901893138885498046875">
        <ele>118.8000030517578125</ele>
        <time>2022-01-07T10:39:50.000Z</time>
      </trkpt>
      <trkpt lat="41.4704675786197185516357421875" lon="2.0962185971438884735107421875">
        <ele>118.59999847412109375</ele>
        <time>2022-01-07T10:39:51.000Z</time>
      </trkpt>
      <trkpt lat="41.4705044589936733245849609375" lon="2.0962429046630859375">
        <ele>118.40000152587890625</ele>
        <time>2022-01-07T10:39:52.000Z</time>
      </trkpt>
      <trkpt lat="41.47054963745176792144775390625" lon="2.0962745882570743560791015625">
        <ele>118.40000152587890625</ele>
        <time>2022-01-07T10:39:53.000Z</time>
      </trkpt>
      <trkpt lat="41.47059389390051364898681640625" lon="2.09630392491817474365234375">
        <ele>118.1999969482421875</ele>
        <time>2022-01-07T10:39:54.000Z</time>
      </trkpt>
      <trkpt lat="41.470637731254100799560546875" lon="2.0963332615792751312255859375">
        <ele>118.1999969482421875</ele>
        <time>2022-01-07T10:39:55.000Z</time>
      </trkpt>
      <trkpt lat="41.47069011814892292022705078125" lon="2.0963677950203418731689453125">
        <ele>118</ele>
        <time>2022-01-07T10:39:56.000Z</time>
      </trkpt>
      <trkpt lat="41.47072817198932170867919921875" lon="2.0963872410356998443603515625">
        <ele>118</ele>
        <time>2022-01-07T10:39:57.000Z</time>
      </trkpt>
      <trkpt lat="41.4707750268280506134033203125" lon="2.09641800262033939361572265625">
        <ele>118</ele>
        <time>2022-01-07T10:39:58.000Z</time>
      </trkpt>
      <trkpt lat="41.4708231389522552490234375" lon="2.09644381888210773468017578125">
        <ele>117.8000030517578125</ele>
        <time>2022-01-07T10:39:59.000Z</time>
      </trkpt>
      <trkpt lat="41.4708682335913181304931640625" lon="2.0964730717241764068603515625">
        <ele>117.8000030517578125</ele>
        <time>2022-01-07T10:40:00.000Z</time>
      </trkpt>
      <trkpt lat="41.4709151722490787506103515625" lon="2.09649897180497646331787109375">
        <ele>117.8000030517578125</ele>
        <time>2022-01-07T10:40:01.000Z</time>
      </trkpt>
      <trkpt lat="41.4709627814590930938720703125" lon="2.0965240336954593658447265625">
        <ele>117.8000030517578125</ele>
        <time>2022-01-07T10:40:02.000Z</time>
      </trkpt>
      <trkpt lat="41.4710073731839656829833984375" lon="2.0965526998043060302734375">
        <ele>117.8000030517578125</ele>
        <time>2022-01-07T10:40:03.000Z</time>
      </trkpt>
      <trkpt lat="41.4710538089275360107421875" lon="2.09658413194119930267333984375">
        <ele>117.59999847412109375</ele>
        <time>2022-01-07T10:40:04.000Z</time>
      </trkpt>
      <trkpt lat="41.47109831683337688446044921875" lon="2.09661548025906085968017578125">
        <ele>117.40000152587890625</ele>
        <time>2022-01-07T10:40:05.000Z</time>
      </trkpt>
      <trkpt lat="41.47114056162536144256591796875" lon="2.09664565511047840118408203125">
        <ele>117.1999969482421875</ele>
        <time>2022-01-07T10:40:06.000Z</time>
      </trkpt>
      <trkpt lat="41.47118414752185344696044921875" lon="2.09666996262967586517333984375">
        <ele>117.1999969482421875</ele>
        <time>2022-01-07T10:40:07.000Z</time>
      </trkpt>
      <trkpt lat="41.471225135028362274169921875" lon="2.09669762291014194488525390625">
        <ele>117</ele>
        <time>2022-01-07T10:40:08.000Z</time>
      </trkpt>
      <trkpt lat="41.47126746363937854766845703125" lon="2.09672494791448116302490234375">
        <ele>117</ele>
        <time>2022-01-07T10:40:09.000Z</time>
      </trkpt>
      <trkpt lat="41.4713081158697605133056640625" lon="2.09675260819494724273681640625">
        <ele>116.59999847412109375</ele>
        <time>2022-01-07T10:40:10.000Z</time>
      </trkpt>
      <trkpt lat="41.47134994156658649444580078125" lon="2.09678010083734989166259765625">
        <ele>116.40000152587890625</ele>
        <time>2022-01-07T10:40:11.000Z</time>
      </trkpt>
      <trkpt lat="41.47139512002468109130859375" lon="2.0968076772987842559814453125">
        <ele>116.1999969482421875</ele>
        <time>2022-01-07T10:40:12.000Z</time>
      </trkpt>
      <trkpt lat="41.47144080139696598052978515625" lon="2.09683894179761409759521484375">
        <ele>116</ele>
        <time>2022-01-07T10:40:13.000Z</time>
      </trkpt>
      <trkpt lat="41.47148891352117061614990234375" lon="2.09687263704836368560791015625">
        <ele>115.8000030517578125</ele>
        <time>2022-01-07T10:40:14.000Z</time>
      </trkpt>
      <trkpt lat="41.471538282930850982666015625" lon="2.0969052426517009735107421875">
        <ele>115.59999847412109375</ele>
        <time>2022-01-07T10:40:15.000Z</time>
      </trkpt>
      <trkpt lat="41.4715867303311824798583984375" lon="2.09693801589310169219970703125">
        <ele>115.59999847412109375</ele>
        <time>2022-01-07T10:40:16.000Z</time>
      </trkpt>
      <trkpt lat="41.47163517773151397705078125" lon="2.09697053767740726470947265625">
        <ele>115.59999847412109375</ele>
        <time>2022-01-07T10:40:17.000Z</time>
      </trkpt>
      <trkpt lat="41.4716853015124797821044921875" lon="2.09699970670044422149658203125">
        <ele>115.40000152587890625</ele>
        <time>2022-01-07T10:40:18.000Z</time>
      </trkpt>
      <trkpt lat="41.471735425293445587158203125" lon="2.09702770225703716278076171875">
        <ele>115.40000152587890625</ele>
        <time>2022-01-07T10:40:19.000Z</time>
      </trkpt>
      <trkpt lat="41.4717838726937770843505859375" lon="2.0970587991178035736083984375">
        <ele>115.1999969482421875</ele>
        <time>2022-01-07T10:40:20.000Z</time>
      </trkpt>
      <trkpt lat="41.4718334935605525970458984375" lon="2.09709308110177516937255859375">
        <ele>115.1999969482421875</ele>
        <time>2022-01-07T10:40:21.000Z</time>
      </trkpt>
      <trkpt lat="41.47188185714185237884521484375" lon="2.09712803363800048828125">
        <ele>115</ele>
        <time>2022-01-07T10:40:22.000Z</time>
      </trkpt>
      <trkpt lat="41.47192946635186672210693359375" lon="2.09716063924133777618408203125">
        <ele>115</ele>
        <time>2022-01-07T10:40:23.000Z</time>
      </trkpt>
      <trkpt lat="41.471976153552532196044921875" lon="2.09719500504434108734130859375">
        <ele>115</ele>
        <time>2022-01-07T10:40:24.000Z</time>
      </trkpt>
      <trkpt lat="41.4720220863819122314453125" lon="2.0972286164760589599609375">
        <ele>114.8000030517578125</ele>
        <time>2022-01-07T10:40:25.000Z</time>
      </trkpt>
      <trkpt lat="41.472068689763545989990234375" lon="2.0972629822790622711181640625">
        <ele>114.8000030517578125</ele>
        <time>2022-01-07T10:40:26.000Z</time>
      </trkpt>
      <trkpt lat="41.472114287316799163818359375" lon="2.0972929894924163818359375">
        <ele>114.8000030517578125</ele>
        <time>2022-01-07T10:40:27.000Z</time>
      </trkpt>
      <trkpt lat="41.4721603877842426300048828125" lon="2.09731956012547016143798828125">
        <ele>114.8000030517578125</ele>
        <time>2022-01-07T10:40:28.000Z</time>
      </trkpt>
      <trkpt lat="41.47220958955585956573486328125" lon="2.0973479747772216796875">
        <ele>114.8000030517578125</ele>
        <time>2022-01-07T10:40:29.000Z</time>
      </trkpt>
      <trkpt lat="41.47225937806069850921630859375" lon="2.09738074801862239837646484375">
        <ele>114.59999847412109375</ele>
        <time>2022-01-07T10:40:30.000Z</time>
      </trkpt>
      <trkpt lat="41.47230816073715686798095703125" lon="2.09741310216486454010009765625">
        <ele>114.59999847412109375</ele>
        <time>2022-01-07T10:40:31.000Z</time>
      </trkpt>
      <trkpt lat="41.47235794924199581146240234375" lon="2.09744713269174098968505859375">
        <ele>114.59999847412109375</ele>
        <time>2022-01-07T10:40:32.000Z</time>
      </trkpt>
      <trkpt lat="41.47240824066102504730224609375" lon="2.097482420504093170166015625">
        <ele>114.59999847412109375</ele>
        <time>2022-01-07T10:40:33.000Z</time>
      </trkpt>
      <trkpt lat="41.47245970554649829864501953125" lon="2.09751519374549388885498046875">
        <ele>114.59999847412109375</ele>
        <time>2022-01-07T10:40:34.000Z</time>
      </trkpt>
      <trkpt lat="41.472511589527130126953125" lon="2.0975459553301334381103515625">
        <ele>114.59999847412109375</ele>
        <time>2022-01-07T10:40:35.000Z</time>
      </trkpt>
      <trkpt lat="41.47256297059357166290283203125" lon="2.09757168777287006378173828125">
        <ele>114.59999847412109375</ele>
        <time>2022-01-07T10:40:36.000Z</time>
      </trkpt>
      <trkpt lat="41.472614519298076629638671875" lon="2.09759314544498920440673828125">
        <ele>114.40000152587890625</ele>
        <time>2022-01-07T10:40:37.000Z</time>
      </trkpt>
      <trkpt lat="41.47266439162194728851318359375" lon="2.09761326201260089874267578125">
        <ele>114.40000152587890625</ele>
        <time>2022-01-07T10:40:38.000Z</time>
      </trkpt>
      <trkpt lat="41.4727149344980716705322265625" lon="2.0976331271231174468994140625">
        <ele>114.40000152587890625</ele>
        <time>2022-01-07T10:40:39.000Z</time>
      </trkpt>
      <trkpt lat="41.47276799194514751434326171875" lon="2.0976488851010799407958984375">
        <ele>114.40000152587890625</ele>
        <time>2022-01-07T10:40:40.000Z</time>
      </trkpt>
      <trkpt lat="41.47282046265900135040283203125" lon="2.0976612903177738189697265625">
        <ele>114.40000152587890625</ele>
        <time>2022-01-07T10:40:41.000Z</time>
      </trkpt>
      <trkpt lat="41.47287645377218723297119140625" lon="2.09767176769673824310302734375">
        <ele>114.40000152587890625</ele>
        <time>2022-01-07T10:40:42.000Z</time>
      </trkpt>
      <trkpt lat="41.47293093614280223846435546875" lon="2.0976747013628482818603515625">
        <ele>114.40000152587890625</ele>
        <time>2022-01-07T10:40:43.000Z</time>
      </trkpt>
      <trkpt lat="41.47298441268503665924072265625" lon="2.0976743660867214202880859375">
        <ele>114.1999969482421875</ele>
        <time>2022-01-07T10:40:44.000Z</time>
      </trkpt>
      <trkpt lat="41.47303738631308078765869140625" lon="2.09767160005867481231689453125">
        <ele>114.1999969482421875</ele>
        <time>2022-01-07T10:40:45.000Z</time>
      </trkpt>
      <trkpt lat="41.47308818064630031585693359375" lon="2.09766740910708904266357421875">
        <ele>114</ele>
        <time>2022-01-07T10:40:46.000Z</time>
      </trkpt>
      <trkpt lat="41.47313897497951984405517578125" lon="2.09766321815550327301025390625">
        <ele>114</ele>
        <time>2022-01-07T10:40:47.000Z</time>
      </trkpt>
      <trkpt lat="41.47318658418953418731689453125" lon="2.0976599492132663726806640625">
        <ele>114</ele>
        <time>2022-01-07T10:40:48.000Z</time>
      </trkpt>
      <trkpt lat="41.47323100827634334564208984375" lon="2.09765181876718997955322265625">
        <ele>114</ele>
        <time>2022-01-07T10:40:49.000Z</time>
      </trkpt>
      <trkpt lat="41.47327492944896221160888671875" lon="2.097638659179210662841796875">
        <ele>114</ele>
        <time>2022-01-07T10:40:50.000Z</time>
      </trkpt>
      <trkpt lat="41.4733177609741687774658203125" lon="2.09762382321059703826904296875">
        <ele>114</ele>
        <time>2022-01-07T10:40:51.000Z</time>
      </trkpt>
      <trkpt lat="41.473358161747455596923828125" lon="2.0976089872419834136962890625">
        <ele>114</ele>
        <time>2022-01-07T10:40:52.000Z</time>
      </trkpt>
      <trkpt lat="41.47339395247399806976318359375" lon="2.0975959114730358123779296875">
        <ele>113.8000030517578125</ele>
        <time>2022-01-07T10:40:53.000Z</time>
      </trkpt>
      <trkpt lat="41.4734297432005405426025390625" lon="2.097583003342151641845703125">
        <ele>113.8000030517578125</ele>
        <time>2022-01-07T10:40:54.000Z</time>
      </trkpt>
      <trkpt lat="41.473466455936431884765625" lon="2.09756867028772830963134765625">
        <ele>113.8000030517578125</ele>
        <time>2022-01-07T10:40:55.000Z</time>
      </trkpt>
      <trkpt lat="41.4735095389187335968017578125" lon="2.09754888899624347686767578125">
        <ele>113.8000030517578125</ele>
        <time>2022-01-07T10:40:56.000Z</time>
      </trkpt>
      <trkpt lat="41.4735554717481136322021484375" lon="2.0975291915237903594970703125">
        <ele>113.8000030517578125</ele>
        <time>2022-01-07T10:40:57.000Z</time>
      </trkpt>
      <trkpt lat="41.47359897382557392120361328125" lon="2.09750748239457607269287109375">
        <ele>113.8000030517578125</ele>
        <time>2022-01-07T10:40:58.000Z</time>
      </trkpt>
      <trkpt lat="41.47364289499819278717041015625" lon="2.09748543798923492431640625">
        <ele>113.8000030517578125</ele>
        <time>2022-01-07T10:40:59.000Z</time>
      </trkpt>
      <trkpt lat="41.4736879058182239532470703125" lon="2.0974708534777164459228515625">
        <ele>113.8000030517578125</ele>
        <time>2022-01-07T10:41:00.000Z</time>
      </trkpt>
      <trkpt lat="41.47373409010469913482666015625" lon="2.09746272303164005279541015625">
        <ele>113.8000030517578125</ele>
        <time>2022-01-07T10:41:01.000Z</time>
      </trkpt>
      <trkpt lat="41.473792009055614471435546875" lon="2.09745752625167369842529296875">
        <ele>114</ele>
        <time>2022-01-07T10:41:02.000Z</time>
      </trkpt>
      <trkpt lat="41.473828889429569244384765625" lon="2.09745467640459537506103515625">
        <ele>114</ele>
        <time>2022-01-07T10:41:03.000Z</time>
      </trkpt>
      <trkpt lat="41.47387004457414150238037109375" lon="2.09745115600526332855224609375">
        <ele>113.8000030517578125</ele>
        <time>2022-01-07T10:41:04.000Z</time>
      </trkpt>
      <trkpt lat="41.4739095233380794525146484375" lon="2.09745593369007110595703125">
        <ele>113.8000030517578125</ele>
        <time>2022-01-07T10:41:05.000Z</time>
      </trkpt>
      <trkpt lat="41.4739505946636199951171875" lon="2.09746791981160640716552734375">
        <ele>113.8000030517578125</ele>
        <time>2022-01-07T10:41:06.000Z</time>
      </trkpt>
      <trkpt lat="41.47399418056011199951171875" lon="2.09748468361794948577880859375">
        <ele>113.8000030517578125</ele>
        <time>2022-01-07T10:41:07.000Z</time>
      </trkpt>
      <trkpt lat="41.47403902374207973480224609375" lon="2.09750060923397541046142578125">
        <ele>113.8000030517578125</ele>
        <time>2022-01-07T10:41:08.000Z</time>
      </trkpt>
      <trkpt lat="41.474082358181476593017578125" lon="2.09751150570809841156005859375">
        <ele>113.8000030517578125</ele>
        <time>2022-01-07T10:41:09.000Z</time>
      </trkpt>
      <trkpt lat="41.47412636317312717437744140625" lon="2.09752701222896575927734375">
        <ele>113.8000030517578125</ele>
        <time>2022-01-07T10:41:10.000Z</time>
      </trkpt>
      <trkpt lat="41.47417179308831691741943359375" lon="2.09755023010075092315673828125">
        <ele>113.8000030517578125</ele>
        <time>2022-01-07T10:41:11.000Z</time>
      </trkpt>
      <trkpt lat="41.474224515259265899658203125" lon="2.09757621400058269500732421875">
        <ele>113.8000030517578125</ele>
        <time>2022-01-07T10:41:12.000Z</time>
      </trkpt>
      <trkpt lat="41.47425862960517406463623046875" lon="2.0975868590176105499267578125">
        <ele>113.8000030517578125</ele>
        <time>2022-01-07T10:41:13.000Z</time>
      </trkpt>
      <trkpt lat="41.4743011258542537689208984375" lon="2.097598426043987274169921875">
        <ele>113.8000030517578125</ele>
        <time>2022-01-07T10:41:14.000Z</time>
      </trkpt>
      <trkpt lat="41.47434328682720661163330078125" lon="2.09761150181293487548828125">
        <ele>113.8000030517578125</ele>
        <time>2022-01-07T10:41:15.000Z</time>
      </trkpt>
      <trkpt lat="41.47438444197177886962890625" lon="2.09762197919189929962158203125">
        <ele>113.8000030517578125</ele>
        <time>2022-01-07T10:41:16.000Z</time>
      </trkpt>
      <trkpt lat="41.47443280555307865142822265625" lon="2.0976351387798786163330078125">
        <ele>114</ele>
        <time>2022-01-07T10:41:17.000Z</time>
      </trkpt>
      <trkpt lat="41.47446616552770137786865234375" lon="2.097645699977874755859375">
        <ele>114.1999969482421875</ele>
        <time>2022-01-07T10:41:18.000Z</time>
      </trkpt>
      <trkpt lat="41.47450958378612995147705078125" lon="2.0976532436907291412353515625">
        <ele>114.40000152587890625</ele>
        <time>2022-01-07T10:41:19.000Z</time>
      </trkpt>
      <trkpt lat="41.47455367259681224822998046875" lon="2.097674869000911712646484375">
        <ele>114.59999847412109375</ele>
        <time>2022-01-07T10:41:20.000Z</time>
      </trkpt>
      <trkpt lat="41.47459574975073337554931640625" lon="2.09769858978688716888427734375">
        <ele>114.8000030517578125</ele>
        <time>2022-01-07T10:41:21.000Z</time>
      </trkpt>
      <trkpt lat="41.47464637644588947296142578125" lon="2.09771501831710338592529296875">
        <ele>115</ele>
        <time>2022-01-07T10:41:22.000Z</time>
      </trkpt>
      <trkpt lat="41.47470270283520221710205078125" lon="2.097723148763179779052734375">
        <ele>115.1999969482421875</ele>
        <time>2022-01-07T10:41:23.000Z</time>
      </trkpt>
      <trkpt lat="41.47476037032902240753173828125" lon="2.09772541187703609466552734375">
        <ele>115.1999969482421875</ele>
        <time>2022-01-07T10:41:24.000Z</time>
      </trkpt>
      <trkpt lat="41.47481091320514678955078125" lon="2.097735889256000518798828125">
        <ele>115.1999969482421875</ele>
        <time>2022-01-07T10:41:25.000Z</time>
      </trkpt>
      <trkpt lat="41.474861539900302886962890625" lon="2.0977494679391384124755859375">
        <ele>115.1999969482421875</ele>
        <time>2022-01-07T10:41:26.000Z</time>
      </trkpt>
      <trkpt lat="41.47491241805255413055419921875" lon="2.0977625437080860137939453125">
        <ele>115.40000152587890625</ele>
        <time>2022-01-07T10:41:27.000Z</time>
      </trkpt>
      <trkpt lat="41.47496036253869533538818359375" lon="2.0977752842009067535400390625">
        <ele>115.40000152587890625</ele>
        <time>2022-01-07T10:41:28.000Z</time>
      </trkpt>
      <trkpt lat="41.47500629536807537078857421875" lon="2.09778877906501293182373046875">
        <ele>115.59999847412109375</ele>
        <time>2022-01-07T10:41:29.000Z</time>
      </trkpt>
      <trkpt lat="41.47504652850329875946044921875" lon="2.0978021062910556793212890625">
        <ele>115.59999847412109375</ele>
        <time>2022-01-07T10:41:30.000Z</time>
      </trkpt>
      <trkpt lat="41.47508575581014156341552734375" lon="2.097812332212924957275390625">
        <ele>115.59999847412109375</ele>
        <time>2022-01-07T10:41:31.000Z</time>
      </trkpt>
      <trkpt lat="41.4751280844211578369140625" lon="2.0978202112019062042236328125">
        <ele>115.59999847412109375</ele>
        <time>2022-01-07T10:41:32.000Z</time>
      </trkpt>
      <trkpt lat="41.4751822315156459808349609375" lon="2.09783613681793212890625">
        <ele>115.59999847412109375</ele>
        <time>2022-01-07T10:41:33.000Z</time>
      </trkpt>
      <trkpt lat="41.4752231352031230926513671875" lon="2.0978443510830402374267578125">
        <ele>115.59999847412109375</ele>
        <time>2022-01-07T10:41:34.000Z</time>
      </trkpt>
      <trkpt lat="41.47527619265019893646240234375" lon="2.09785231389105319976806640625">
        <ele>115.8000030517578125</ele>
        <time>2022-01-07T10:41:35.000Z</time>
      </trkpt>
      <trkpt lat="41.47532413713634014129638671875" lon="2.09786036051809787750244140625">
        <ele>115.8000030517578125</ele>
        <time>2022-01-07T10:41:36.000Z</time>
      </trkpt>
      <trkpt lat="41.475367806851863861083984375" lon="2.09786958061158657073974609375">
        <ele>115.8000030517578125</ele>
        <time>2022-01-07T10:41:37.000Z</time>
      </trkpt>
      <trkpt lat="41.475407369434833526611328125" lon="2.09787905216217041015625">
        <ele>115.8000030517578125</ele>
        <time>2022-01-07T10:41:38.000Z</time>
      </trkpt>
      <trkpt lat="41.47544282488524913787841796875" lon="2.09789388813078403472900390625">
        <ele>115.8000030517578125</ele>
        <time>2022-01-07T10:41:39.000Z</time>
      </trkpt>
      <trkpt lat="41.47547987289726734161376953125" lon="2.0979098975658416748046875">
        <ele>116</ele>
        <time>2022-01-07T10:41:40.000Z</time>
      </trkpt>
      <trkpt lat="41.4755165018141269683837890625" lon="2.09792657755315303802490234375">
        <ele>116</ele>
        <time>2022-01-07T10:41:41.000Z</time>
      </trkpt>
      <trkpt lat="41.47555363364517688751220703125" lon="2.09794853813946247100830078125">
        <ele>116</ele>
        <time>2022-01-07T10:41:42.000Z</time>
      </trkpt>
      <trkpt lat="41.47558330558240413665771484375" lon="2.09798835217952728271484375">
        <ele>116</ele>
        <time>2022-01-07T10:41:43.000Z</time>
      </trkpt>
      <trkpt lat="41.47560208104550838470458984375" lon="2.0980357937514781951904296875">
        <ele>116</ele>
        <time>2022-01-07T10:41:44.000Z</time>
      </trkpt>
      <trkpt lat="41.475618593394756317138671875" lon="2.09809035994112491607666015625">
        <ele>116</ele>
        <time>2022-01-07T10:41:45.000Z</time>
      </trkpt>
      <trkpt lat="41.4756377041339874267578125" lon="2.0981450937688350677490234375">
        <ele>116</ele>
        <time>2022-01-07T10:41:46.000Z</time>
      </trkpt>
      <trkpt lat="41.475658826529979705810546875" lon="2.09819513373076915740966796875">
        <ele>116</ele>
        <time>2022-01-07T10:41:47.000Z</time>
      </trkpt>
      <trkpt lat="41.4756833016872406005859375" lon="2.098235450685024261474609375">
        <ele>116</ele>
        <time>2022-01-07T10:41:48.000Z</time>
      </trkpt>
      <trkpt lat="41.47571213543415069580078125" lon="2.09827442653477191925048828125">
        <ele>116</ele>
        <time>2022-01-07T10:41:49.000Z</time>
      </trkpt>
      <trkpt lat="41.47574205882847309112548828125" lon="2.09831465966999530792236328125">
        <ele>116</ele>
        <time>2022-01-07T10:41:50.000Z</time>
      </trkpt>
      <trkpt lat="41.47577290423214435577392578125" lon="2.0983502827584743499755859375">
        <ele>116</ele>
        <time>2022-01-07T10:41:51.000Z</time>
      </trkpt>
      <trkpt lat="41.4758051745593547821044921875" lon="2.0983828045427799224853515625">
        <ele>116</ele>
        <time>2022-01-07T10:41:52.000Z</time>
      </trkpt>
      <trkpt lat="41.4758350141346454620361328125" lon="2.09841524250805377960205078125">
        <ele>116</ele>
        <time>2022-01-07T10:41:53.000Z</time>
      </trkpt>
      <trkpt lat="41.4758628420531749725341796875" lon="2.09844608791172504425048828125">
        <ele>116</ele>
        <time>2022-01-07T10:41:54.000Z</time>
      </trkpt>
      <trkpt lat="41.4758866466581821441650390625" lon="2.0984785258769989013671875">
        <ele>116</ele>
        <time>2022-01-07T10:41:55.000Z</time>
      </trkpt>
      <trkpt lat="41.47590919397771358489990234375" lon="2.09851264022290706634521484375">
        <ele>116</ele>
        <time>2022-01-07T10:41:56.000Z</time>
      </trkpt>
      <trkpt lat="41.4759272150695323944091796875" lon="2.0985430665314197540283203125">
        <ele>116.1999969482421875</ele>
        <time>2022-01-07T10:41:57.000Z</time>
      </trkpt>
      <trkpt lat="41.4759339205920696258544921875" lon="2.0985729061067104339599609375">
        <ele>116.1999969482421875</ele>
        <time>2022-01-07T10:41:58.000Z</time>
      </trkpt>
      <trkpt lat="41.47592604160308837890625" lon="2.0985987223684787750244140625">
        <ele>116.1999969482421875</ele>
        <time>2022-01-07T10:41:59.000Z</time>
      </trkpt>
      <trkpt lat="41.4759087748825550079345703125" lon="2.0986195094883441925048828125">
        <ele>116.1999969482421875</ele>
        <time>2022-01-07T10:42:00.000Z</time>
      </trkpt>
      <trkpt lat="41.4758899994194507598876953125" lon="2.098638117313385009765625">
        <ele>116.1999969482421875</ele>
        <time>2022-01-07T10:42:01.000Z</time>
      </trkpt>
      <trkpt lat="41.475872062146663665771484375" lon="2.09865831770002841949462890625">
        <ele>116.1999969482421875</ele>
        <time>2022-01-07T10:42:02.000Z</time>
      </trkpt>
      <trkpt lat="41.4758558012545108795166015625" lon="2.09868296049535274505615234375">
        <ele>116.1999969482421875</ele>
        <time>2022-01-07T10:42:03.000Z</time>
      </trkpt>
      <trkpt lat="41.47584197111427783966064453125" lon="2.0987103693187236785888671875">
        <ele>116.1999969482421875</ele>
        <time>2022-01-07T10:42:04.000Z</time>
      </trkpt>
      <trkpt lat="41.4758286438882350921630859375" lon="2.098737023770809173583984375">
        <ele>116.1999969482421875</ele>
        <time>2022-01-07T10:42:05.000Z</time>
      </trkpt>
      <trkpt lat="41.475815735757350921630859375" lon="2.09876745007932186126708984375">
        <ele>116.40000152587890625</ele>
        <time>2022-01-07T10:42:06.000Z</time>
      </trkpt>
      <trkpt lat="41.475802995264530181884765625" lon="2.09880315698683261871337890625">
        <ele>116.40000152587890625</ele>
        <time>2022-01-07T10:42:07.000Z</time>
      </trkpt>
      <trkpt lat="41.47579704411327838897705078125" lon="2.098844312131404876708984375">
        <ele>116.40000152587890625</ele>
        <time>2022-01-07T10:42:08.000Z</time>
      </trkpt>
      <trkpt lat="41.47579126060009002685546875" lon="2.098883874714374542236328125">
        <ele>116.40000152587890625</ele>
        <time>2022-01-07T10:42:09.000Z</time>
      </trkpt>
      <trkpt lat="41.475787572562694549560546875" lon="2.098921425640583038330078125">
        <ele>116.40000152587890625</ele>
        <time>2022-01-07T10:42:10.000Z</time>
      </trkpt>
      <trkpt lat="41.47578380070626735687255859375" lon="2.0989557914435863494873046875">
        <ele>116.40000152587890625</ele>
        <time>2022-01-07T10:42:11.000Z</time>
      </trkpt>
      <trkpt lat="41.47578011266887187957763671875" lon="2.0989863015711307525634765625">
        <ele>116.40000152587890625</ele>
        <time>2022-01-07T10:42:12.000Z</time>
      </trkpt>
      <trkpt lat="41.47577994503080844879150390625" lon="2.0990131236612796783447265625">
        <ele>116.59999847412109375</ele>
        <time>2022-01-07T10:42:13.000Z</time>
      </trkpt>
      <trkpt lat="41.47578497417271137237548828125" lon="2.0990386046469211578369140625">
        <ele>116.59999847412109375</ele>
        <time>2022-01-07T10:42:14.000Z</time>
      </trkpt>
      <trkpt lat="41.47578933276236057281494140625" lon="2.099062912166118621826171875">
        <ele>116.40000152587890625</ele>
        <time>2022-01-07T10:42:15.000Z</time>
      </trkpt>
      <trkpt lat="41.47579302079975605010986328125" lon="2.09908378310501575469970703125">
        <ele>116.40000152587890625</ele>
        <time>2022-01-07T10:42:16.000Z</time>
      </trkpt>
      <trkpt lat="41.47579503245651721954345703125" lon="2.09910188801586627960205078125">
        <ele>116.40000152587890625</ele>
        <time>2022-01-07T10:42:17.000Z</time>
      </trkpt>
      <trkpt lat="41.475793607532978057861328125" lon="2.09911513142287731170654296875">
        <ele>116.1999969482421875</ele>
        <time>2022-01-07T10:42:18.000Z</time>
      </trkpt>
      <trkpt lat="41.47579184733331203460693359375" lon="2.0991197414696216583251953125">
        <ele>116.1999969482421875</ele>
        <time>2022-01-07T10:42:19.000Z</time>
      </trkpt>
      <trkpt lat="41.47579134441912174224853515625" lon="2.0991204120218753814697265625">
        <ele>116</ele>
        <time>2022-01-07T10:42:20.000Z</time>
      </trkpt>
      <trkpt lat="41.475791595876216888427734375" lon="2.099126614630222320556640625">
        <ele>116</ele>
        <time>2022-01-07T10:42:21.000Z</time>
      </trkpt>
      <trkpt lat="41.4757920987904071807861328125" lon="2.09913055412471294403076171875">
        <ele>116</ele>
        <time>2022-01-07T10:42:22.000Z</time>
      </trkpt>
      <trkpt lat="41.4757900871336460113525390625" lon="2.0991318114101886749267578125">
        <ele>116</ele>
        <time>2022-01-07T10:42:23.000Z</time>
      </trkpt>
      <trkpt lat="41.47578849457204341888427734375" lon="2.09913474507629871368408203125">
        <ele>116</ele>
        <time>2022-01-07T10:42:24.000Z</time>
      </trkpt>
      <trkpt lat="41.47578933276236057281494140625" lon="2.09914044477045536041259765625">
        <ele>116</ele>
        <time>2022-01-07T10:42:25.000Z</time>
      </trkpt>
      <trkpt lat="41.475785560905933380126953125" lon="2.09914631210267543792724609375">
        <ele>116</ele>
        <time>2022-01-07T10:42:26.000Z</time>
      </trkpt>
      <trkpt lat="41.4757800288498401641845703125" lon="2.09915150888264179229736328125">
        <ele>116</ele>
        <time>2022-01-07T10:42:27.000Z</time>
      </trkpt>
      <trkpt lat="41.47577558644115924835205078125" lon="2.09915234707295894622802734375">
        <ele>116</ele>
        <time>2022-01-07T10:42:28.000Z</time>
      </trkpt>
      <trkpt lat="41.47577558644115924835205078125" lon="2.09915234707295894622802734375">
        <ele>116</ele>
        <time>2022-01-07T10:42:29.000Z</time>
      </trkpt>
      <trkpt lat="41.47577558644115924835205078125" lon="2.09915234707295894622802734375">
        <ele>116</ele>
        <time>2022-01-07T10:42:30.000Z</time>
      </trkpt>
      <trkpt lat="41.47582881152629852294921875" lon="2.0991971902549266815185546875">
        <ele>103.1999969482421875</ele>
        <time>2022-01-07T12:44:31.000Z</time>
      </trkpt>
      <trkpt lat="41.475829146802425384521484375" lon="2.09918201901018619537353515625">
        <ele>128.399993896484375</ele>
        <time>2022-01-07T12:44:32.000Z</time>
      </trkpt>
      <trkpt lat="41.47583149373531341552734375" lon="2.09916760213673114776611328125">
        <ele>128.399993896484375</ele>
        <time>2022-01-07T12:44:33.000Z</time>
      </trkpt>
      <trkpt lat="41.47583224810659885406494140625" lon="2.09915000014007091522216796875">
        <ele>128.399993896484375</ele>
        <time>2022-01-07T12:44:34.000Z</time>
      </trkpt>
      <trkpt lat="41.4758343435823917388916015625" lon="2.09912938065826892852783203125">
        <ele>128.399993896484375</ele>
        <time>2022-01-07T12:44:35.000Z</time>
      </trkpt>
      <trkpt lat="41.475835852324962615966796875" lon="2.09910859353840351104736328125">
        <ele>128.399993896484375</ele>
        <time>2022-01-07T12:44:36.000Z</time>
      </trkpt>
      <trkpt lat="41.475833170115947723388671875" lon="2.0990858785808086395263671875">
        <ele>128.399993896484375</ele>
        <time>2022-01-07T12:44:37.000Z</time>
      </trkpt>
      <trkpt lat="41.475828476250171661376953125" lon="2.09906467236578464508056640625">
        <ele>128.399993896484375</ele>
        <time>2022-01-07T12:44:38.000Z</time>
      </trkpt>
      <trkpt lat="41.4758162386715412139892578125" lon="2.09904639981687068939208984375">
        <ele>128.399993896484375</ele>
        <time>2022-01-07T12:44:39.000Z</time>
      </trkpt>
      <trkpt lat="41.47579972632229328155517578125" lon="2.09902636706829071044921875">
        <ele>128.399993896484375</ele>
        <time>2022-01-07T12:44:40.000Z</time>
      </trkpt>
      <trkpt lat="41.47578514181077480316162109375" lon="2.09900415502488613128662109375">
        <ele>128.399993896484375</ele>
        <time>2022-01-07T12:44:41.000Z</time>
      </trkpt>
      <trkpt lat="41.475782878696918487548828125" lon="2.09898118861019611358642578125">
        <ele>128.1999969482421875</ele>
        <time>2022-01-07T12:44:42.000Z</time>
      </trkpt>
      <trkpt lat="41.47578665055334568023681640625" lon="2.098963670432567596435546875">
        <ele>128.1999969482421875</ele>
        <time>2022-01-07T12:44:43.000Z</time>
      </trkpt>
      <trkpt lat="41.47579067386686801910400390625" lon="2.09894799627363681793212890625">
        <ele>128.1999969482421875</ele>
        <time>2022-01-07T12:44:44.000Z</time>
      </trkpt>
      <trkpt lat="41.47578991949558258056640625" lon="2.0989289693534374237060546875">
        <ele>128.1999969482421875</ele>
        <time>2022-01-07T12:44:45.000Z</time>
      </trkpt>
      <trkpt lat="41.47578991949558258056640625" lon="2.0989075116813182830810546875">
        <ele>128.1999969482421875</ele>
        <time>2022-01-07T12:44:46.000Z</time>
      </trkpt>
      <trkpt lat="41.475794613361358642578125" lon="2.0988853834569454193115234375">
        <ele>128.1999969482421875</ele>
        <time>2022-01-07T12:44:47.000Z</time>
      </trkpt>
      <trkpt lat="41.47580123506486415863037109375" lon="2.0988639257848262786865234375">
        <ele>128.1999969482421875</ele>
        <time>2022-01-07T12:44:48.000Z</time>
      </trkpt>
      <trkpt lat="41.47580710239708423614501953125" lon="2.098843641579151153564453125">
        <ele>128.1999969482421875</ele>
        <time>2022-01-07T12:44:49.000Z</time>
      </trkpt>
      <trkpt lat="41.47581196390092372894287109375" lon="2.09882310591638088226318359375">
        <ele>128.1999969482421875</ele>
        <time>2022-01-07T12:44:50.000Z</time>
      </trkpt>
      <trkpt lat="41.475816406309604644775390625" lon="2.098801396787166595458984375">
        <ele>128.1999969482421875</ele>
        <time>2022-01-07T12:44:51.000Z</time>
      </trkpt>
      <trkpt lat="41.4758262969553470611572265625" lon="2.098783962428569793701171875">
        <ele>128.1999969482421875</ele>
        <time>2022-01-07T12:44:52.000Z</time>
      </trkpt>
      <trkpt lat="41.47583794780075550079345703125" lon="2.09876862354576587677001953125">
        <ele>128.1999969482421875</ele>
        <time>2022-01-07T12:44:53.000Z</time>
      </trkpt>
      <trkpt lat="41.4758477546274662017822265625" lon="2.098748423159122467041015625">
        <ele>128.1999969482421875</ele>
        <time>2022-01-07T12:44:54.000Z</time>
      </trkpt>
      <trkpt lat="41.4758561365306377410888671875" lon="2.09872671402990818023681640625">
        <ele>128.1999969482421875</ele>
        <time>2022-01-07T12:44:55.000Z</time>
      </trkpt>
      <trkpt lat="41.4758628420531749725341796875" lon="2.09870374761521816253662109375">
        <ele>128.1999969482421875</ele>
        <time>2022-01-07T12:44:56.000Z</time>
      </trkpt>
      <trkpt lat="41.475868038833141326904296875" lon="2.098681032657623291015625">
        <ele>128.399993896484375</ele>
        <time>2022-01-07T12:44:57.000Z</time>
      </trkpt>
      <trkpt lat="41.475873403251171112060546875" lon="2.0986580662429332733154296875">
        <ele>128.399993896484375</ele>
        <time>2022-01-07T12:44:58.000Z</time>
      </trkpt>
      <trkpt lat="41.47588002495467662811279296875" lon="2.09863736294209957122802734375">
        <ele>128.399993896484375</ele>
        <time>2022-01-07T12:44:59.000Z</time>
      </trkpt>
      <trkpt lat="41.4758876524865627288818359375" lon="2.09861733019351959228515625">
        <ele>128.600006103515625</ele>
        <time>2022-01-07T12:45:00.000Z</time>
      </trkpt>
      <trkpt lat="41.47589762695133686065673828125" lon="2.09860048256814479827880859375">
        <ele>128.600006103515625</ele>
        <time>2022-01-07T12:45:01.000Z</time>
      </trkpt>
      <trkpt lat="41.47590793669223785400390625" lon="2.0985869877040386199951171875">
        <ele>128.600006103515625</ele>
        <time>2022-01-07T12:45:02.000Z</time>
      </trkpt>
      <trkpt lat="41.47591640241444110870361328125" lon="2.09857583977282047271728515625">
        <ele>128.600006103515625</ele>
        <time>2022-01-07T12:45:03.000Z</time>
      </trkpt>
      <trkpt lat="41.47592562250792980194091796875" lon="2.0985645242035388946533203125">
        <ele>128.8000030517578125</ele>
        <time>2022-01-07T12:45:04.000Z</time>
      </trkpt>
      <trkpt lat="41.47593199275434017181396484375" lon="2.09854968823492527008056640625">
        <ele>128.8000030517578125</ele>
        <time>2022-01-07T12:45:05.000Z</time>
      </trkpt>
      <trkpt lat="41.47593601606786251068115234375" lon="2.09853108040988445281982421875">
        <ele>128.8000030517578125</ele>
        <time>2022-01-07T12:45:06.000Z</time>
      </trkpt>
      <trkpt lat="41.47593744099140167236328125" lon="2.09850761108100414276123046875">
        <ele>128.8000030517578125</ele>
        <time>2022-01-07T12:45:07.000Z</time>
      </trkpt>
      <trkpt lat="41.4759352616965770721435546875" lon="2.09847894497215747833251953125">
        <ele>128.8000030517578125</ele>
        <time>2022-01-07T12:45:08.000Z</time>
      </trkpt>
      <trkpt lat="41.47593031637370586395263671875" lon="2.0984468422830104827880859375">
        <ele>128.8000030517578125</ele>
        <time>2022-01-07T12:45:09.000Z</time>
      </trkpt>
      <trkpt lat="41.47592545486986637115478515625" lon="2.0984106324613094329833984375">
        <ele>128.8000030517578125</ele>
        <time>2022-01-07T12:45:10.000Z</time>
      </trkpt>
      <trkpt lat="41.4759195037186145782470703125" lon="2.09837257862091064453125">
        <ele>128.8000030517578125</ele>
        <time>2022-01-07T12:45:11.000Z</time>
      </trkpt>
      <trkpt lat="41.4759107865393161773681640625" lon="2.098333351314067840576171875">
        <ele>128.8000030517578125</ele>
        <time>2022-01-07T12:45:12.000Z</time>
      </trkpt>
      <trkpt lat="41.4759040810167789459228515625" lon="2.0982892625033855438232421875">
        <ele>128.8000030517578125</ele>
        <time>2022-01-07T12:45:13.000Z</time>
      </trkpt>
      <trkpt lat="41.4759030751883983612060546875" lon="2.09824542514979839324951171875">
        <ele>128.8000030517578125</ele>
        <time>2022-01-07T12:45:14.000Z</time>
      </trkpt>
      <trkpt lat="41.475907601416110992431640625" lon="2.0982022583484649658203125">
        <ele>128.8000030517578125</ele>
        <time>2022-01-07T12:45:15.000Z</time>
      </trkpt>
      <trkpt lat="41.47591690532863140106201171875" lon="2.09816135466098785400390625">
        <ele>128.8000030517578125</ele>
        <time>2022-01-07T12:45:16.000Z</time>
      </trkpt>
      <trkpt lat="41.47593551315367221832275390625" lon="2.09812137298285961151123046875">
        <ele>128.8000030517578125</ele>
        <time>2022-01-07T12:45:17.000Z</time>
      </trkpt>
      <trkpt lat="41.4759594015777111053466796875" lon="2.098083905875682830810546875">
        <ele>128.8000030517578125</ele>
        <time>2022-01-07T12:45:18.000Z</time>
      </trkpt>
      <trkpt lat="41.475983373820781707763671875" lon="2.09804560057818889617919921875">
        <ele>128.600006103515625</ele>
        <time>2022-01-07T12:45:19.000Z</time>
      </trkpt>
      <trkpt lat="41.4760063402354717254638671875" lon="2.09800687618553638458251953125">
        <ele>128.600006103515625</ele>
        <time>2022-01-07T12:45:20.000Z</time>
      </trkpt>
      <trkpt lat="41.47603358142077922821044921875" lon="2.09797183983027935028076171875">
        <ele>128.399993896484375</ele>
        <time>2022-01-07T12:45:21.000Z</time>
      </trkpt>
      <trkpt lat="41.4760619960725307464599609375" lon="2.097939066588878631591796875">
        <ele>128.1999969482421875</ele>
        <time>2022-01-07T12:45:22.000Z</time>
      </trkpt>
      <trkpt lat="41.47609041072428226470947265625" lon="2.09790646098554134368896484375">
        <ele>128.1999969482421875</ele>
        <time>2022-01-07T12:45:23.000Z</time>
      </trkpt>
      <trkpt lat="41.4761178195476531982421875" lon="2.09787259809672832489013671875">
        <ele>128.1999969482421875</ele>
        <time>2022-01-07T12:45:24.000Z</time>
      </trkpt>
      <trkpt lat="41.4761464856564998626708984375" lon="2.09783789701759815216064453125">
        <ele>128.1999969482421875</ele>
        <time>2022-01-07T12:45:25.000Z</time>
      </trkpt>
      <trkpt lat="41.476173810660839080810546875" lon="2.097804285585880279541015625">
        <ele>128.1999969482421875</ele>
        <time>2022-01-07T12:45:26.000Z</time>
      </trkpt>
      <trkpt lat="41.47620323114097118377685546875" lon="2.0977722667157649993896484375">
        <ele>128.1999969482421875</ele>
        <time>2022-01-07T12:45:27.000Z</time>
      </trkpt>
      <trkpt lat="41.47623240016400814056396484375" lon="2.09773932583630084991455078125">
        <ele>128.1999969482421875</ele>
        <time>2022-01-07T12:45:28.000Z</time>
      </trkpt>
      <trkpt lat="41.476260311901569366455078125" lon="2.09770412184298038482666015625">
        <ele>128.1999969482421875</ele>
        <time>2022-01-07T12:45:29.000Z</time>
      </trkpt>
      <trkpt lat="41.476287804543972015380859375" lon="2.09767051041126251220703125">
        <ele>128.1999969482421875</ele>
        <time>2022-01-07T12:45:30.000Z</time>
      </trkpt>
      <trkpt lat="41.4763158001005649566650390625" lon="2.0976378209888935089111328125">
        <ele>128.1999969482421875</ele>
        <time>2022-01-07T12:45:31.000Z</time>
      </trkpt>
      <trkpt lat="41.47634237073361873626708984375" lon="2.0976032875478267669677734375">
        <ele>128.1999969482421875</ele>
        <time>2022-01-07T12:45:32.000Z</time>
      </trkpt>
      <trkpt lat="41.4763694442808628082275390625" lon="2.097568921744823455810546875">
        <ele>128.1999969482421875</ele>
        <time>2022-01-07T12:45:33.000Z</time>
      </trkpt>
      <trkpt lat="41.4763967692852020263671875" lon="2.0975343883037567138671875">
        <ele>128.399993896484375</ele>
        <time>2022-01-07T12:45:34.000Z</time>
      </trkpt>
      <trkpt lat="41.47642317228019237518310546875" lon="2.09750044159591197967529296875">
        <ele>128.399993896484375</ele>
        <time>2022-01-07T12:45:35.000Z</time>
      </trkpt>
      <trkpt lat="41.4764468930661678314208984375" lon="2.09746624343097209930419921875">
        <ele>128.399993896484375</ele>
        <time>2022-01-07T12:45:36.000Z</time>
      </trkpt>
      <trkpt lat="41.476472206413745880126953125" lon="2.0974349789321422576904296875">
        <ele>128.399993896484375</ele>
        <time>2022-01-07T12:45:37.000Z</time>
      </trkpt>
      <trkpt lat="41.47649525664746761322021484375" lon="2.09740228950977325439453125">
        <ele>128.399993896484375</ele>
        <time>2022-01-07T12:45:38.000Z</time>
      </trkpt>
      <trkpt lat="41.47651956416666507720947265625" lon="2.09737144410610198974609375">
        <ele>128.399993896484375</ele>
        <time>2022-01-07T12:45:39.000Z</time>
      </trkpt>
      <trkpt lat="41.4765474759042263031005859375" lon="2.0973444543778896331787109375">
        <ele>128.600006103515625</ele>
        <time>2022-01-07T12:45:40.000Z</time>
      </trkpt>
      <trkpt lat="41.47657555527985095977783203125" lon="2.09731956012547016143798828125">
        <ele>128.8000030517578125</ele>
        <time>2022-01-07T12:45:41.000Z</time>
      </trkpt>
      <trkpt lat="41.47660137154161930084228515625" lon="2.0972911454737186431884765625">
        <ele>129</ele>
        <time>2022-01-07T12:45:42.000Z</time>
      </trkpt>
      <trkpt lat="41.4766249246895313262939453125" lon="2.09726356901228427886962890625">
        <ele>129.1999969482421875</ele>
        <time>2022-01-07T12:45:43.000Z</time>
      </trkpt>
      <trkpt lat="41.47664831019937992095947265625" lon="2.0972361601889133453369140625">
        <ele>129.1999969482421875</ele>
        <time>2022-01-07T12:45:44.000Z</time>
      </trkpt>
      <trkpt lat="41.476670689880847930908203125" lon="2.09720891900360584259033203125">
        <ele>129.399993896484375</ele>
        <time>2022-01-07T12:45:45.000Z</time>
      </trkpt>
      <trkpt lat="41.4766899682581424713134765625" lon="2.09717907942831516265869140625">
        <ele>129.600006103515625</ele>
        <time>2022-01-07T12:45:46.000Z</time>
      </trkpt>
      <trkpt lat="41.476708911359310150146484375" lon="2.09714882075786590576171875">
        <ele>129.8000030517578125</ele>
        <time>2022-01-07T12:45:47.000Z</time>
      </trkpt>
      <trkpt lat="41.4767305366694927215576171875" lon="2.097122333943843841552734375">
        <ele>130.1999969482421875</ele>
        <time>2022-01-07T12:45:48.000Z</time>
      </trkpt>
      <trkpt lat="41.4767506532371044158935546875" lon="2.0970973558723926544189453125">
        <ele>130.399993896484375</ele>
        <time>2022-01-07T12:45:49.000Z</time>
      </trkpt>
      <trkpt lat="41.47677035070955753326416015625" lon="2.0970703661441802978515625">
        <ele>130.600006103515625</ele>
        <time>2022-01-07T12:45:50.000Z</time>
      </trkpt>
      <trkpt lat="41.4767897129058837890625" lon="2.09704278968274593353271484375">
        <ele>130.8000030517578125</ele>
        <time>2022-01-07T12:45:51.000Z</time>
      </trkpt>
      <trkpt lat="41.47681259550154209136962890625" lon="2.09701764397323131561279296875">
        <ele>131.1999969482421875</ele>
        <time>2022-01-07T12:45:52.000Z</time>
      </trkpt>
      <trkpt lat="41.47683740593492984771728515625" lon="2.0969930849969387054443359375">
        <ele>131.399993896484375</ele>
        <time>2022-01-07T12:45:53.000Z</time>
      </trkpt>
      <trkpt lat="41.47686037234961986541748046875" lon="2.0969682745635509490966796875">
        <ele>131.8000030517578125</ele>
        <time>2022-01-07T12:45:54.000Z</time>
      </trkpt>
      <trkpt lat="41.47687998600304126739501953125" lon="2.096939943730831146240234375">
        <ele>132</ele>
        <time>2022-01-07T12:45:55.000Z</time>
      </trkpt>
      <trkpt lat="41.476900018751621246337890625" lon="2.0969112776219844818115234375">
        <ele>132.399993896484375</ele>
        <time>2022-01-07T12:45:56.000Z</time>
      </trkpt>
      <trkpt lat="41.47692122496664524078369140625" lon="2.09688462316989898681640625">
        <ele>132.8000030517578125</ele>
        <time>2022-01-07T12:45:57.000Z</time>
      </trkpt>
      <trkpt lat="41.47694184444844722747802734375" lon="2.0968589745461940765380859375">
        <ele>133</ele>
        <time>2022-01-07T12:45:58.000Z</time>
      </trkpt>
      <trkpt lat="41.47696296684443950653076171875" lon="2.09683676250278949737548828125">
        <ele>133.1999969482421875</ele>
        <time>2022-01-07T12:45:59.000Z</time>
      </trkpt>
      <trkpt lat="41.4769788086414337158203125" lon="2.0968224294483661651611328125">
        <ele>133.399993896484375</ele>
        <time>2022-01-07T12:46:00.000Z</time>
      </trkpt>
      <trkpt lat="41.47700604982674121856689453125" lon="2.09680524654686450958251953125">
        <ele>133.600006103515625</ele>
        <time>2022-01-07T12:46:01.000Z</time>
      </trkpt>
      <trkpt lat="41.47702775895595550537109375" lon="2.09679384715855121612548828125">
        <ele>133.8000030517578125</ele>
        <time>2022-01-07T12:46:02.000Z</time>
      </trkpt>
      <trkpt lat="41.4770513959228992462158203125" lon="2.09678806364536285400390625">
        <ele>134</ele>
        <time>2022-01-07T12:46:03.000Z</time>
      </trkpt>
      <trkpt lat="41.47708115167915821075439453125" lon="2.09678445942699909210205078125">
        <ele>134</ele>
        <time>2022-01-07T12:46:04.000Z</time>
      </trkpt>
      <trkpt lat="41.4771134220063686370849609375" lon="2.096787393093109130859375">
        <ele>134.1999969482421875</ele>
        <time>2022-01-07T12:46:05.000Z</time>
      </trkpt>
      <trkpt lat="41.47714351303875446319580078125" lon="2.09680072031915187835693359375">
        <ele>134.399993896484375</ele>
        <time>2022-01-07T12:46:06.000Z</time>
      </trkpt>
      <trkpt lat="41.47716916166245937347412109375" lon="2.09682687185704708099365234375">
        <ele>134.399993896484375</ele>
        <time>2022-01-07T12:46:07.000Z</time>
      </trkpt>
      <trkpt lat="41.47719246335327625274658203125" lon="2.096856124699115753173828125">
        <ele>134.600006103515625</ele>
        <time>2022-01-07T12:46:08.000Z</time>
      </trkpt>
      <trkpt lat="41.47721878252923488616943359375" lon="2.09687649272382259368896484375">
        <ele>134.8000030517578125</ele>
        <time>2022-01-07T12:46:09.000Z</time>
      </trkpt>
      <trkpt lat="41.477248370647430419921875" lon="2.0968879759311676025390625">
        <ele>135</ele>
        <time>2022-01-07T12:46:10.000Z</time>
      </trkpt>
      <trkpt lat="41.4772792160511016845703125" lon="2.09689778275787830352783203125">
        <ele>135</ele>
        <time>2022-01-07T12:46:11.000Z</time>
      </trkpt>
      <trkpt lat="41.47731148637831211090087890625" lon="2.09691069088876247406005859375">
        <ele>135</ele>
        <time>2022-01-07T12:46:12.000Z</time>
      </trkpt>
      <trkpt lat="41.4773444272577762603759765625" lon="2.09692896343767642974853515625">
        <ele>135</ele>
        <time>2022-01-07T12:46:13.000Z</time>
      </trkpt>
      <trkpt lat="41.477374099195003509521484375" lon="2.0969469845294952392578125">
        <ele>135</ele>
        <time>2022-01-07T12:46:14.000Z</time>
      </trkpt>
      <trkpt lat="41.47740117274224758148193359375" lon="2.09696332924067974090576171875">
        <ele>135</ele>
        <time>2022-01-07T12:46:15.000Z</time>
      </trkpt>
      <trkpt lat="41.47743000648915767669677734375" lon="2.0969791710376739501953125">
        <ele>135</ele>
        <time>2022-01-07T12:46:16.000Z</time>
      </trkpt>
      <trkpt lat="41.4774587564170360565185546875" lon="2.09699819795787334442138671875">
        <ele>135.1999969482421875</ele>
        <time>2022-01-07T12:46:17.000Z</time>
      </trkpt>
      <trkpt lat="41.47748499177396297454833984375" lon="2.09702074527740478515625">
        <ele>135.1999969482421875</ele>
        <time>2022-01-07T12:46:18.000Z</time>
      </trkpt>
      <trkpt lat="41.477510891854763031005859375" lon="2.097044885158538818359375">
        <ele>135.1999969482421875</ele>
        <time>2022-01-07T12:46:19.000Z</time>
      </trkpt>
      <trkpt lat="41.477537713944911956787109375" lon="2.09707162342965602874755859375">
        <ele>135.399993896484375</ele>
        <time>2022-01-07T12:46:20.000Z</time>
      </trkpt>
      <trkpt lat="41.4775626920163631439208984375" lon="2.09710045717656612396240234375">
        <ele>135.399993896484375</ele>
        <time>2022-01-07T12:46:21.000Z</time>
      </trkpt>
      <trkpt lat="41.47759043611586093902587890625" lon="2.09712627343833446502685546875">
        <ele>135.399993896484375</ele>
        <time>2022-01-07T12:46:22.000Z</time>
      </trkpt>
      <trkpt lat="41.4776196889579296112060546875" lon="2.097148485481739044189453125">
        <ele>135.399993896484375</ele>
        <time>2022-01-07T12:46:23.000Z</time>
      </trkpt>
      <trkpt lat="41.4776488579809665679931640625" lon="2.097169943153858184814453125">
        <ele>135.399993896484375</ele>
        <time>2022-01-07T12:46:24.000Z</time>
      </trkpt>
      <trkpt lat="41.4776776917278766632080078125" lon="2.097194083034992218017578125">
        <ele>135.399993896484375</ele>
        <time>2022-01-07T12:46:25.000Z</time>
      </trkpt>
      <trkpt lat="41.477701663970947265625" lon="2.0972197316586971282958984375">
        <ele>135.399993896484375</ele>
        <time>2022-01-07T12:46:26.000Z</time>
      </trkpt>
      <trkpt lat="41.47772848606109619140625" lon="2.09725032560527324676513671875">
        <ele>135.399993896484375</ele>
        <time>2022-01-07T12:46:27.000Z</time>
      </trkpt>
      <trkpt lat="41.4777568168938159942626953125" lon="2.09728368557989597320556640625">
        <ele>135.399993896484375</ele>
        <time>2022-01-07T12:46:28.000Z</time>
      </trkpt>
      <trkpt lat="41.47778556682169437408447265625" lon="2.0973193086683750152587890625">
        <ele>135.399993896484375</ele>
        <time>2022-01-07T12:46:29.000Z</time>
      </trkpt>
      <trkpt lat="41.47781238891184329986572265625" lon="2.0973578654229640960693359375">
        <ele>135.399993896484375</ele>
        <time>2022-01-07T12:46:30.000Z</time>
      </trkpt>
      <trkpt lat="41.4778352715075016021728515625" lon="2.09739684127271175384521484375">
        <ele>135.399993896484375</ele>
        <time>2022-01-07T12:46:31.000Z</time>
      </trkpt>
      <trkpt lat="41.4778558909893035888671875" lon="2.09743506275117397308349609375">
        <ele>135.399993896484375</ele>
        <time>2022-01-07T12:46:32.000Z</time>
      </trkpt>
      <trkpt lat="41.47787860594689846038818359375" lon="2.097471691668033599853515625">
        <ele>135.399993896484375</ele>
        <time>2022-01-07T12:46:33.000Z</time>
      </trkpt>
      <trkpt lat="41.47789989598095417022705078125" lon="2.09751066751778125762939453125">
        <ele>135.399993896484375</ele>
        <time>2022-01-07T12:46:34.000Z</time>
      </trkpt>
      <trkpt lat="41.477922610938549041748046875" lon="2.0975523255765438079833984375">
        <ele>135.399993896484375</ele>
        <time>2022-01-07T12:46:35.000Z</time>
      </trkpt>
      <trkpt lat="41.477942727506160736083984375" lon="2.09759566001594066619873046875">
        <ele>135.399993896484375</ele>
        <time>2022-01-07T12:46:36.000Z</time>
      </trkpt>
      <trkpt lat="41.47796276025474071502685546875" lon="2.09764025174081325531005859375">
        <ele>135.399993896484375</ele>
        <time>2022-01-07T12:46:37.000Z</time>
      </trkpt>
      <trkpt lat="41.47798270918428897857666015625" lon="2.0976830832660198211669921875">
        <ele>135.1999969482421875</ele>
        <time>2022-01-07T12:46:38.000Z</time>
      </trkpt>
      <trkpt lat="41.4780019037425518035888671875" lon="2.0977290160953998565673828125">
        <ele>135.1999969482421875</ele>
        <time>2022-01-07T12:46:39.000Z</time>
      </trkpt>
      <trkpt lat="41.47802260704338550567626953125" lon="2.0977752842009067535400390625">
        <ele>135.1999969482421875</ele>
        <time>2022-01-07T12:46:40.000Z</time>
      </trkpt>
      <trkpt lat="41.47804372943937778472900390625" lon="2.097822390496730804443359375">
        <ele>135</ele>
        <time>2022-01-07T12:46:41.000Z</time>
      </trkpt>
      <trkpt lat="41.4780639298260211944580078125" lon="2.097869329154491424560546875">
        <ele>135</ele>
        <time>2022-01-07T12:46:42.000Z</time>
      </trkpt>
      <trkpt lat="41.478082872927188873291015625" lon="2.09791660308837890625">
        <ele>135</ele>
        <time>2022-01-07T12:46:43.000Z</time>
      </trkpt>
      <trkpt lat="41.47809988819062709808349609375" lon="2.09796345792710781097412109375">
        <ele>135</ele>
        <time>2022-01-07T12:46:44.000Z</time>
      </trkpt>
      <trkpt lat="41.47811162285506725311279296875" lon="2.0980116538703441619873046875">
        <ele>135</ele>
        <time>2022-01-07T12:46:45.000Z</time>
      </trkpt>
      <trkpt lat="41.47811296395957469940185546875" lon="2.0980626158416271209716796875">
        <ele>135</ele>
        <time>2022-01-07T12:46:46.000Z</time>
      </trkpt>
      <trkpt lat="41.4781128801405429840087890625" lon="2.09810444153845310211181640625">
        <ele>135</ele>
        <time>2022-01-07T12:46:47.000Z</time>
      </trkpt>
      <trkpt lat="41.4781195856630802154541015625" lon="2.09816361777484416961669921875">
        <ele>134.8000030517578125</ele>
        <time>2022-01-07T12:46:48.000Z</time>
      </trkpt>
      <trkpt lat="41.47814129479229450225830078125" lon="2.0981995761394500732421875">
        <ele>134.8000030517578125</ele>
        <time>2022-01-07T12:46:49.000Z</time>
      </trkpt>
      <trkpt lat="41.47816493175923824310302734375" lon="2.09822983480989933013916015625">
        <ele>134.8000030517578125</ele>
        <time>2022-01-07T12:46:50.000Z</time>
      </trkpt>
      <trkpt lat="41.478184126317501068115234375" lon="2.0982647873461246490478515625">
        <ele>134.8000030517578125</ele>
        <time>2022-01-07T12:46:51.000Z</time>
      </trkpt>
      <trkpt lat="41.47820055484771728515625" lon="2.09830611012876033782958984375">
        <ele>134.8000030517578125</ele>
        <time>2022-01-07T12:46:52.000Z</time>
      </trkpt>
      <trkpt lat="41.4782198332250118255615234375" lon="2.098349444568157196044921875">
        <ele>134.8000030517578125</ele>
        <time>2022-01-07T12:46:53.000Z</time>
      </trkpt>
      <trkpt lat="41.47824145853519439697265625" lon="2.09839462302625179290771484375">
        <ele>134.8000030517578125</ele>
        <time>2022-01-07T12:46:54.000Z</time>
      </trkpt>
      <trkpt lat="41.4782630838453769683837890625" lon="2.0984421484172344207763671875">
        <ele>134.8000030517578125</ele>
        <time>2022-01-07T12:46:55.000Z</time>
      </trkpt>
      <trkpt lat="41.478284709155559539794921875" lon="2.09848933853209018707275390625">
        <ele>134.8000030517578125</ele>
        <time>2022-01-07T12:46:56.000Z</time>
      </trkpt>
      <trkpt lat="41.4783046580851078033447265625" lon="2.09853895939886569976806640625">
        <ele>134.600006103515625</ele>
        <time>2022-01-07T12:46:57.000Z</time>
      </trkpt>
      <trkpt lat="41.47832670249044895172119140625" lon="2.09858992137014865875244140625">
        <ele>134.600006103515625</ele>
        <time>2022-01-07T12:46:58.000Z</time>
      </trkpt>
      <trkpt lat="41.4783492498099803924560546875" lon="2.09864105097949504852294921875">
        <ele>134.600006103515625</ele>
        <time>2022-01-07T12:46:59.000Z</time>
      </trkpt>
      <trkpt lat="41.47837297059595584869384765625" lon="2.098694108426570892333984375">
        <ele>134.600006103515625</ele>
        <time>2022-01-07T12:47:00.000Z</time>
      </trkpt>
      <trkpt lat="41.4783958531916141510009765625" lon="2.09874766878783702850341796875">
        <ele>134.399993896484375</ele>
        <time>2022-01-07T12:47:01.000Z</time>
      </trkpt>
      <trkpt lat="41.47841990925371646881103515625" lon="2.09880282171070575714111328125">
        <ele>134.399993896484375</ele>
        <time>2022-01-07T12:47:02.000Z</time>
      </trkpt>
      <trkpt lat="41.4784444682300090789794921875" lon="2.098857723176479339599609375">
        <ele>134.399993896484375</ele>
        <time>2022-01-07T12:47:03.000Z</time>
      </trkpt>
      <trkpt lat="41.47847020067274570465087890625" lon="2.09891530685126781463623046875">
        <ele>134.1999969482421875</ele>
        <time>2022-01-07T12:47:04.000Z</time>
      </trkpt>
      <trkpt lat="41.47849685512483119964599609375" lon="2.0989728905260562896728515625">
        <ele>134.1999969482421875</ele>
        <time>2022-01-07T12:47:05.000Z</time>
      </trkpt>
      <trkpt lat="41.47852174937725067138671875" lon="2.0990312285721302032470703125">
        <ele>134.1999969482421875</ele>
        <time>2022-01-07T12:47:06.000Z</time>
      </trkpt>
      <trkpt lat="41.47854857146739959716796875" lon="2.0990919135510921478271484375">
        <ele>134.1999969482421875</ele>
        <time>2022-01-07T12:47:07.000Z</time>
      </trkpt>
      <trkpt lat="41.47857799194753170013427734375" lon="2.09915435872972011566162109375">
        <ele>134</ele>
        <time>2022-01-07T12:47:08.000Z</time>
      </trkpt>
      <trkpt lat="41.4786080829799175262451171875" lon="2.0992196537554264068603515625">
        <ele>133.8000030517578125</ele>
        <time>2022-01-07T12:47:09.000Z</time>
      </trkpt>
      <trkpt lat="41.478636078536510467529296875" lon="2.09928411059081554412841796875">
        <ele>133.399993896484375</ele>
        <time>2022-01-07T12:47:10.000Z</time>
      </trkpt>
      <trkpt lat="41.47866499610245227813720703125" lon="2.099347226321697235107421875">
        <ele>133.399993896484375</ele>
        <time>2022-01-07T12:47:11.000Z</time>
      </trkpt>
      <trkpt lat="41.478693746030330657958984375" lon="2.09940724074840545654296875">
        <ele>133.1999969482421875</ele>
        <time>2022-01-07T12:47:12.000Z</time>
      </trkpt>
      <trkpt lat="41.47872014902532100677490234375" lon="2.09946616552770137786865234375">
        <ele>133.1999969482421875</ele>
        <time>2022-01-07T12:47:13.000Z</time>
      </trkpt>
      <trkpt lat="41.47874160669744014739990234375" lon="2.0995103381574153900146484375">
        <ele>133</ele>
        <time>2022-01-07T12:47:14.000Z</time>
      </trkpt>
      <trkpt lat="41.47876809351146221160888671875" lon="2.099566496908664703369140625">
        <ele>132.600006103515625</ele>
        <time>2022-01-07T12:47:15.000Z</time>
      </trkpt>
      <trkpt lat="41.47879692725837230682373046875" lon="2.09963547997176647186279296875">
        <ele>132.399993896484375</ele>
        <time>2022-01-07T12:47:16.000Z</time>
      </trkpt>
      <trkpt lat="41.47882341407239437103271484375" lon="2.09969281218945980072021484375">
        <ele>132.1999969482421875</ele>
        <time>2022-01-07T12:47:17.000Z</time>
      </trkpt>
      <trkpt lat="41.47884872741997241973876953125" lon="2.09975215606391429901123046875">
        <ele>132</ele>
        <time>2022-01-07T12:47:18.000Z</time>
      </trkpt>
      <trkpt lat="41.47886909544467926025390625" lon="2.09979892708361148834228515625">
        <ele>131.8000030517578125</ele>
        <time>2022-01-07T12:47:19.000Z</time>
      </trkpt>
      <trkpt lat="41.47889499552547931671142578125" lon="2.09985860623419284820556640625">
        <ele>131.8000030517578125</ele>
        <time>2022-01-07T12:47:20.000Z</time>
      </trkpt>
      <trkpt lat="41.47892768494784832000732421875" lon="2.099929265677928924560546875">
        <ele>131.8000030517578125</ele>
        <time>2022-01-07T12:47:21.000Z</time>
      </trkpt>
      <trkpt lat="41.47895500995218753814697265625" lon="2.09998735226690769195556640625">
        <ele>131.600006103515625</ele>
        <time>2022-01-07T12:47:22.000Z</time>
      </trkpt>
      <trkpt lat="41.47898384369909763336181640625" lon="2.10004619322717189788818359375">
        <ele>131.600006103515625</ele>
        <time>2022-01-07T12:47:23.000Z</time>
      </trkpt>
      <trkpt lat="41.47901049815118312835693359375" lon="2.10010687820613384246826171875">
        <ele>131.600006103515625</ele>
        <time>2022-01-07T12:47:24.000Z</time>
      </trkpt>
      <trkpt lat="41.47903732024133205413818359375" lon="2.10016739554703235626220703125">
        <ele>131.600006103515625</ele>
        <time>2022-01-07T12:47:25.000Z</time>
      </trkpt>
      <trkpt lat="41.4790655672550201416015625" lon="2.10022774524986743927001953125">
        <ele>131.600006103515625</ele>
        <time>2022-01-07T12:47:26.000Z</time>
      </trkpt>
      <trkpt lat="41.4790928922593593597412109375" lon="2.10028700530529022216796875">
        <ele>131.399993896484375</ele>
        <time>2022-01-07T12:47:27.000Z</time>
      </trkpt>
      <trkpt lat="41.47912264801561832427978515625" lon="2.1003458462655544281005859375">
        <ele>131.399993896484375</ele>
        <time>2022-01-07T12:47:28.000Z</time>
      </trkpt>
      <trkpt lat="41.47915299050509929656982421875" lon="2.10040309466421604156494140625">
        <ele>131.1999969482421875</ele>
        <time>2022-01-07T12:47:29.000Z</time>
      </trkpt>
      <trkpt lat="41.47918249480426311492919921875" lon="2.10046176798641681671142578125">
        <ele>131.1999969482421875</ele>
        <time>2022-01-07T12:47:30.000Z</time>
      </trkpt>
      <trkpt lat="41.47921216674149036407470703125" lon="2.10051977075636386871337890625">
        <ele>131</ele>
        <time>2022-01-07T12:47:31.000Z</time>
      </trkpt>
      <trkpt lat="41.4792424254119396209716796875" lon="2.100577019155025482177734375">
        <ele>131</ele>
        <time>2022-01-07T12:47:32.000Z</time>
      </trkpt>
      <trkpt lat="41.47927368991076946258544921875" lon="2.10063292644917964935302734375">
        <ele>131</ele>
        <time>2022-01-07T12:47:33.000Z</time>
      </trkpt>
      <trkpt lat="41.4793051220476627349853515625" lon="2.10068807937204837799072265625">
        <ele>131</ele>
        <time>2022-01-07T12:47:34.000Z</time>
      </trkpt>
      <trkpt lat="41.4793306030333042144775390625" lon="2.10073082707822322845458984375">
        <ele>131</ele>
        <time>2022-01-07T12:47:35.000Z</time>
      </trkpt>
      <trkpt lat="41.47937192581593990325927734375" lon="2.10079620592296123504638671875">
        <ele>131</ele>
        <time>2022-01-07T12:47:36.000Z</time>
      </trkpt>
      <trkpt lat="41.47940595634281635284423828125" lon="2.10085001774132251739501953125">
        <ele>131</ele>
        <time>2022-01-07T12:47:37.000Z</time>
      </trkpt>
      <trkpt lat="41.47944149561226367950439453125" lon="2.1009032428264617919921875">
        <ele>131</ele>
        <time>2022-01-07T12:47:38.000Z</time>
      </trkpt>
      <trkpt lat="41.47947686724364757537841796875" lon="2.1009563840925693511962890625">
        <ele>131</ele>
        <time>2022-01-07T12:47:39.000Z</time>
      </trkpt>
      <trkpt lat="41.47951022721827030181884765625" lon="2.1010093577206134796142578125">
        <ele>130.8000030517578125</ele>
        <time>2022-01-07T12:47:40.000Z</time>
      </trkpt>
      <trkpt lat="41.479546017944812774658203125" lon="2.101063169538974761962890625">
        <ele>130.8000030517578125</ele>
        <time>2022-01-07T12:47:41.000Z</time>
      </trkpt>
      <trkpt lat="41.47958532907068729400634765625" lon="2.10111538879573345184326171875">
        <ele>130.8000030517578125</ele>
        <time>2022-01-07T12:47:42.000Z</time>
      </trkpt>
      <trkpt lat="41.4796236343681812286376953125" lon="2.10116400383412837982177734375">
        <ele>130.8000030517578125</ele>
        <time>2022-01-07T12:47:43.000Z</time>
      </trkpt>
      <trkpt lat="41.479661352932453155517578125" lon="2.1012118645012378692626953125">
        <ele>130.8000030517578125</ele>
        <time>2022-01-07T12:47:44.000Z</time>
      </trkpt>
      <trkpt lat="41.479698903858661651611328125" lon="2.10126123391091823577880859375">
        <ele>130.8000030517578125</ele>
        <time>2022-01-07T12:47:45.000Z</time>
      </trkpt>
      <trkpt lat="41.4797352813184261322021484375" lon="2.101310603320598602294921875">
        <ele>130.600006103515625</ele>
        <time>2022-01-07T12:47:46.000Z</time>
      </trkpt>
      <trkpt lat="41.479772664606571197509765625" lon="2.101358212530612945556640625">
        <ele>130.600006103515625</ele>
        <time>2022-01-07T12:47:47.000Z</time>
      </trkpt>
      <trkpt lat="41.47981197573244571685791015625" lon="2.1014021337032318115234375">
        <ele>130.600006103515625</ele>
        <time>2022-01-07T12:47:48.000Z</time>
      </trkpt>
      <trkpt lat="41.4798519574105739593505859375" lon="2.1014463901519775390625">
        <ele>130.600006103515625</ele>
        <time>2022-01-07T12:47:49.000Z</time>
      </trkpt>
      <trkpt lat="41.47988657467067241668701171875" lon="2.101495005190372467041015625">
        <ele>130.600006103515625</ele>
        <time>2022-01-07T12:47:50.000Z</time>
      </trkpt>
      <trkpt lat="41.47992052137851715087890625" lon="2.1015434525907039642333984375">
        <ele>130.399993896484375</ele>
        <time>2022-01-07T12:47:51.000Z</time>
      </trkpt>
      <trkpt lat="41.47995832376182079315185546875" lon="2.101583182811737060546875">
        <ele>130.399993896484375</ele>
        <time>2022-01-07T12:47:52.000Z</time>
      </trkpt>
      <trkpt lat="41.479999311268329620361328125" lon="2.10161780007183551788330078125">
        <ele>130.399993896484375</ele>
        <time>2022-01-07T12:47:53.000Z</time>
      </trkpt>
      <trkpt lat="41.48003325797617435455322265625" lon="2.1016596257686614990234375">
        <ele>130.399993896484375</ele>
        <time>2022-01-07T12:47:54.000Z</time>
      </trkpt>
      <trkpt lat="41.48006728850305080413818359375" lon="2.101704217493534088134765625">
        <ele>130.1999969482421875</ele>
        <time>2022-01-07T12:47:55.000Z</time>
      </trkpt>
      <trkpt lat="41.4801035821437835693359375" lon="2.1017439477145671844482421875">
        <ele>130.1999969482421875</ele>
        <time>2022-01-07T12:47:56.000Z</time>
      </trkpt>
      <trkpt lat="41.48013836704194545745849609375" lon="2.1017838455736637115478515625">
        <ele>130</ele>
        <time>2022-01-07T12:47:57.000Z</time>
      </trkpt>
      <trkpt lat="41.48017373867332935333251953125" lon="2.10182013921439647674560546875">
        <ele>130</ele>
        <time>2022-01-07T12:47:58.000Z</time>
      </trkpt>
      <trkpt lat="41.48020659573376178741455078125" lon="2.10185986943542957305908203125">
        <ele>130</ele>
        <time>2022-01-07T12:47:59.000Z</time>
      </trkpt>
      <trkpt lat="41.48023844696581363677978515625" lon="2.1018964983522891998291015625">
        <ele>130</ele>
        <time>2022-01-07T12:48:00.000Z</time>
      </trkpt>
      <trkpt lat="41.480270884931087493896484375" lon="2.101931869983673095703125">
        <ele>130</ele>
        <time>2022-01-07T12:48:01.000Z</time>
      </trkpt>
      <trkpt lat="41.4803045801818370819091796875" lon="2.1019675768911838531494140625">
        <ele>130</ele>
        <time>2022-01-07T12:48:02.000Z</time>
      </trkpt>
      <trkpt lat="41.480338610708713531494140625" lon="2.10200118832290172576904296875">
        <ele>130</ele>
        <time>2022-01-07T12:48:03.000Z</time>
      </trkpt>
      <trkpt lat="41.48037113249301910400390625" lon="2.1020403318107128143310546875">
        <ele>130</ele>
        <time>2022-01-07T12:48:04.000Z</time>
      </trkpt>
      <trkpt lat="41.4803932607173919677734375" lon="2.10208886303007602691650390625">
        <ele>129.8000030517578125</ele>
        <time>2022-01-07T12:48:05.000Z</time>
      </trkpt>
      <trkpt lat="41.48040600121021270751953125" lon="2.1021469496190547943115234375">
        <ele>129.8000030517578125</ele>
        <time>2022-01-07T12:48:06.000Z</time>
      </trkpt>
      <trkpt lat="41.48041161708533763885498046875" lon="2.10220671258866786956787109375">
        <ele>129.8000030517578125</ele>
        <time>2022-01-07T12:48:07.000Z</time>
      </trkpt>
      <trkpt lat="41.48041128180921077728271484375" lon="2.10226890631020069122314453125">
        <ele>129.8000030517578125</ele>
        <time>2022-01-07T12:48:08.000Z</time>
      </trkpt>
      <trkpt lat="41.480411030352115631103515625" lon="2.10233218967914581298828125">
        <ele>129.600006103515625</ele>
        <time>2022-01-07T12:48:09.000Z</time>
      </trkpt>
      <trkpt lat="41.48041748441755771636962890625" lon="2.10239446721971035003662109375">
        <ele>129.600006103515625</ele>
        <time>2022-01-07T12:48:10.000Z</time>
      </trkpt>
      <trkpt lat="41.480429470539093017578125" lon="2.1024550683796405792236328125">
        <ele>129.600006103515625</ele>
        <time>2022-01-07T12:48:11.000Z</time>
      </trkpt>
      <trkpt lat="41.48044514469802379608154296875" lon="2.10251047275960445404052734375">
        <ele>129.600006103515625</ele>
        <time>2022-01-07T12:48:12.000Z</time>
      </trkpt>
      <trkpt lat="41.48046509362757205963134765625" lon="2.1025566570460796356201171875">
        <ele>129.399993896484375</ele>
        <time>2022-01-07T12:48:13.000Z</time>
      </trkpt>
      <trkpt lat="41.48048378527164459228515625" lon="2.10259429179131984710693359375">
        <ele>129.1999969482421875</ele>
        <time>2022-01-07T12:48:14.000Z</time>
      </trkpt>
      <trkpt lat="41.4804997108876705169677734375" lon="2.10263150744140148162841796875">
        <ele>129</ele>
        <time>2022-01-07T12:48:15.000Z</time>
      </trkpt>
      <trkpt lat="41.48050800897181034088134765625" lon="2.1026756800711154937744140625">
        <ele>129</ele>
        <time>2022-01-07T12:48:16.000Z</time>
      </trkpt>
      <trkpt lat="41.4805111102759838104248046875" lon="2.102721445262432098388671875">
        <ele>128.8000030517578125</ele>
        <time>2022-01-07T12:48:17.000Z</time>
      </trkpt>
      <trkpt lat="41.48052209056913852691650390625" lon="2.1027541346848011016845703125">
        <ele>128.600006103515625</ele>
        <time>2022-01-07T12:48:18.000Z</time>
      </trkpt>
      <trkpt lat="41.48054120130836963653564453125" lon="2.10276444442570209503173828125">
        <ele>128.399993896484375</ele>
        <time>2022-01-07T12:48:19.000Z</time>
      </trkpt>
      <trkpt lat="41.4805650897324085235595703125" lon="2.10275740362703800201416015625">
        <ele>128.399993896484375</ele>
        <time>2022-01-07T12:48:20.000Z</time>
      </trkpt>
      <trkpt lat="41.48058964870870113372802734375" lon="2.10274483077228069305419921875">
        <ele>128.399993896484375</ele>
        <time>2022-01-07T12:48:21.000Z</time>
      </trkpt>
      <trkpt lat="41.48061110638082027435302734375" lon="2.10273795761168003082275390625">
        <ele>128.399993896484375</ele>
        <time>2022-01-07T12:48:22.000Z</time>
      </trkpt>
      <trkpt lat="41.480634324252605438232421875" lon="2.10273762233555316925048828125">
        <ele>128.399993896484375</ele>
        <time>2022-01-07T12:48:23.000Z</time>
      </trkpt>
      <trkpt lat="41.48065854795277118682861328125" lon="2.1027437411248683929443359375">
        <ele>128.399993896484375</ele>
        <time>2022-01-07T12:48:24.000Z</time>
      </trkpt>
      <trkpt lat="41.480686962604522705078125" lon="2.1027531288564205169677734375">
        <ele>128.399993896484375</ele>
        <time>2022-01-07T12:48:25.000Z</time>
      </trkpt>
      <trkpt lat="41.48071889765560626983642578125" lon="2.10276176221668720245361328125">
        <ele>128.399993896484375</ele>
        <time>2022-01-07T12:48:26.000Z</time>
      </trkpt>
      <trkpt lat="41.480753682553768157958984375" lon="2.10276980884373188018798828125">
        <ele>128.399993896484375</ele>
        <time>2022-01-07T12:48:27.000Z</time>
      </trkpt>
      <trkpt lat="41.4807957597076892852783203125" lon="2.10277651436626911163330078125">
        <ele>128.399993896484375</ele>
        <time>2022-01-07T12:48:28.000Z</time>
      </trkpt>
      <trkpt lat="41.48083649575710296630859375" lon="2.10278011858463287353515625">
        <ele>128.399993896484375</ele>
        <time>2022-01-07T12:48:29.000Z</time>
      </trkpt>
      <trkpt lat="41.48087806999683380126953125" lon="2.102773077785968780517578125">
        <ele>128.399993896484375</ele>
        <time>2022-01-07T12:48:30.000Z</time>
      </trkpt>
      <trkpt lat="41.4809136092662811279296875" lon="2.10276528261601924896240234375">
        <ele>128.399993896484375</ele>
        <time>2022-01-07T12:48:31.000Z</time>
      </trkpt>
      <trkpt lat="41.48094370029866695404052734375" lon="2.1027531288564205169677734375">
        <ele>128.399993896484375</ele>
        <time>2022-01-07T12:48:32.000Z</time>
      </trkpt>
      <trkpt lat="41.48096348159015178680419921875" lon="2.102740220725536346435546875">
        <ele>128.399993896484375</ele>
        <time>2022-01-07T12:48:33.000Z</time>
      </trkpt>
      <trkpt lat="41.48096859455108642578125" lon="2.10273460485041141510009765625">
        <ele>128.399993896484375</ele>
        <time>2022-01-07T12:48:34.000Z</time>
      </trkpt>
      <trkpt lat="41.48096859455108642578125" lon="2.10273460485041141510009765625">
        <ele>128.399993896484375</ele>
        <time>2022-01-07T12:48:35.000Z</time>
      </trkpt>
      <trkpt lat="41.48096859455108642578125" lon="2.10273460485041141510009765625">
        <ele>128.399993896484375</ele>
        <time>2022-01-07T12:48:36.000Z</time>
      </trkpt>
      <trkpt lat="41.4810240827500820159912109375" lon="2.10269956849515438079833984375">
        <ele>129</ele>
        <time>2022-01-07T12:48:50.000Z</time>
      </trkpt>
      <trkpt lat="41.48103489540517330169677734375" lon="2.10267274640500545501708984375">
        <ele>129</ele>
        <time>2022-01-07T12:48:51.000Z</time>
      </trkpt>
      <trkpt lat="41.4810445345938205718994140625" lon="2.1026374585926532745361328125">
        <ele>129</ele>
        <time>2022-01-07T12:48:52.000Z</time>
      </trkpt>
      <trkpt lat="41.48105719126760959625244140625" lon="2.1025978960096836090087890625">
        <ele>129</ele>
        <time>2022-01-07T12:48:53.000Z</time>
      </trkpt>
      <trkpt lat="41.4810747094452381134033203125" lon="2.10256679914891719818115234375">
        <ele>129</ele>
        <time>2022-01-07T12:48:54.000Z</time>
      </trkpt>
      <trkpt lat="41.48110069334506988525390625" lon="2.10252262651920318603515625">
        <ele>129</ele>
        <time>2022-01-07T12:48:55.000Z</time>
      </trkpt>
      <trkpt lat="41.4811182953417301177978515625" lon="2.10248080082237720489501953125">
        <ele>129</ele>
        <time>2022-01-07T12:48:56.000Z</time>
      </trkpt>
      <trkpt lat="41.48113246075809001922607421875" lon="2.1024352870881557464599609375">
        <ele>129</ele>
        <time>2022-01-07T12:48:57.000Z</time>
      </trkpt>
      <trkpt lat="41.481143943965435028076171875" lon="2.10238642059266567230224609375">
        <ele>129</ele>
        <time>2022-01-07T12:48:58.000Z</time>
      </trkpt>
      <trkpt lat="41.4811504818499088287353515625" lon="2.1023336984217166900634765625">
        <ele>129</ele>
        <time>2022-01-07T12:48:59.000Z</time>
      </trkpt>
      <trkpt lat="41.4811528287827968597412109375" lon="2.10228013806045055389404296875">
        <ele>128.8000030517578125</ele>
        <time>2022-01-07T12:49:00.000Z</time>
      </trkpt>
      <trkpt lat="41.48115341551601886749267578125" lon="2.102226912975311279296875">
        <ele>129</ele>
        <time>2022-01-07T12:49:01.000Z</time>
      </trkpt>
      <trkpt lat="41.4811511524021625518798828125" lon="2.10217586718499660491943359375">
        <ele>128.8000030517578125</ele>
        <time>2022-01-07T12:49:02.000Z</time>
      </trkpt>
      <trkpt lat="41.4811451174318790435791015625" lon="2.10212767124176025390625">
        <ele>128.8000030517578125</ele>
        <time>2022-01-07T12:49:03.000Z</time>
      </trkpt>
      <trkpt lat="41.4811353944242000579833984375" lon="2.10208006203174591064453125">
        <ele>129</ele>
        <time>2022-01-07T12:49:04.000Z</time>
      </trkpt>
      <trkpt lat="41.48113179020583629608154296875" lon="2.1020316146314144134521484375">
        <ele>129</ele>
        <time>2022-01-07T12:49:05.000Z</time>
      </trkpt>
      <trkpt lat="41.4811362326145172119140625" lon="2.10198459215462207794189453125">
        <ele>129</ele>
        <time>2022-01-07T12:49:06.000Z</time>
      </trkpt>
      <trkpt lat="41.48114738054573535919189453125" lon="2.10194150917232036590576171875">
        <ele>129</ele>
        <time>2022-01-07T12:49:07.000Z</time>
      </trkpt>
      <trkpt lat="41.48116297088563442230224609375" lon="2.1019025333225727081298828125">
        <ele>129</ele>
        <time>2022-01-07T12:49:08.000Z</time>
      </trkpt>
      <trkpt lat="41.481180153787136077880859375" lon="2.10186489857733249664306640625">
        <ele>129</ele>
        <time>2022-01-07T12:49:09.000Z</time>
      </trkpt>
      <trkpt lat="41.4811980910599231719970703125" lon="2.10182868875563144683837890625">
        <ele>129.1999969482421875</ele>
        <time>2022-01-07T12:49:10.000Z</time>
      </trkpt>
      <trkpt lat="41.481221057474613189697265625" lon="2.10179708898067474365234375">
        <ele>129.1999969482421875</ele>
        <time>2022-01-07T12:49:11.000Z</time>
      </trkpt>
      <trkpt lat="41.48124863393604755401611328125" lon="2.10176532156765460968017578125">
        <ele>129.399993896484375</ele>
        <time>2022-01-07T12:49:12.000Z</time>
      </trkpt>
      <trkpt lat="41.48127227090299129486083984375" lon="2.10174210369586944580078125">
        <ele>129.399993896484375</ele>
        <time>2022-01-07T12:49:13.000Z</time>
      </trkpt>
      <trkpt lat="41.48130982182919979095458984375" lon="2.10171486251056194305419921875">
        <ele>129.600006103515625</ele>
        <time>2022-01-07T12:49:14.000Z</time>
      </trkpt>
      <trkpt lat="41.48134410381317138671875" lon="2.10169650614261627197265625">
        <ele>129.600006103515625</ele>
        <time>2022-01-07T12:49:15.000Z</time>
      </trkpt>
      <trkpt lat="41.48137964308261871337890625" lon="2.1016768924891948699951171875">
        <ele>129.8000030517578125</ele>
        <time>2022-01-07T12:49:16.000Z</time>
      </trkpt>
      <trkpt lat="41.48141585290431976318359375" lon="2.101651914417743682861328125">
        <ele>129.8000030517578125</ele>
        <time>2022-01-07T12:49:17.000Z</time>
      </trkpt>
      <trkpt lat="41.48145080544054508209228515625" lon="2.10162551142275333404541015625">
        <ele>130</ele>
        <time>2022-01-07T12:49:18.000Z</time>
      </trkpt>
      <trkpt lat="41.4814874343574047088623046875" lon="2.10160019807517528533935546875">
        <ele>130</ele>
        <time>2022-01-07T12:49:19.000Z</time>
      </trkpt>
      <trkpt lat="41.4815246500074863433837890625" lon="2.10157438181340694427490234375">
        <ele>130</ele>
        <time>2022-01-07T12:49:20.000Z</time>
      </trkpt>
      <trkpt lat="41.481562368571758270263671875" lon="2.1015474759042263031005859375">
        <ele>130</ele>
        <time>2022-01-07T12:49:21.000Z</time>
      </trkpt>
      <trkpt lat="41.481599919497966766357421875" lon="2.1015189774334430694580078125">
        <ele>130</ele>
        <time>2022-01-07T12:49:22.000Z</time>
      </trkpt>
      <trkpt lat="41.48163856007158756256103515625" lon="2.10149173624813556671142578125">
        <ele>130.1999969482421875</ele>
        <time>2022-01-07T12:49:23.000Z</time>
      </trkpt>
      <trkpt lat="41.48167778737843036651611328125" lon="2.10146374069154262542724609375">
        <ele>130.1999969482421875</ele>
        <time>2022-01-07T12:49:24.000Z</time>
      </trkpt>
      <trkpt lat="41.48171701468527317047119140625" lon="2.10143440403044223785400390625">
        <ele>130.1999969482421875</ele>
        <time>2022-01-07T12:49:25.000Z</time>
      </trkpt>
      <trkpt lat="41.4817569963634014129638671875" lon="2.1014046482741832733154296875">
        <ele>130.1999969482421875</ele>
        <time>2022-01-07T12:49:26.000Z</time>
      </trkpt>
      <trkpt lat="41.4817987382411956787109375" lon="2.10137472487986087799072265625">
        <ele>130.399993896484375</ele>
        <time>2022-01-07T12:49:27.000Z</time>
      </trkpt>
      <trkpt lat="41.481839306652545928955078125" lon="2.1013456396758556365966796875">
        <ele>130.600006103515625</ele>
        <time>2022-01-07T12:49:28.000Z</time>
      </trkpt>
      <trkpt lat="41.48188012652099132537841796875" lon="2.1013168059289455413818359375">
        <ele>130.600006103515625</ele>
        <time>2022-01-07T12:49:29.000Z</time>
      </trkpt>
      <trkpt lat="41.48192237131297588348388671875" lon="2.10129006765782833099365234375">
        <ele>130.600006103515625</ele>
        <time>2022-01-07T12:49:30.000Z</time>
      </trkpt>
      <trkpt lat="41.48196377791464328765869140625" lon="2.10126257501542568206787109375">
        <ele>130.8000030517578125</ele>
        <time>2022-01-07T12:49:31.000Z</time>
      </trkpt>
      <trkpt lat="41.48200602270662784576416015625" lon="2.1012343280017375946044921875">
        <ele>130.8000030517578125</ele>
        <time>2022-01-07T12:49:32.000Z</time>
      </trkpt>
      <trkpt lat="41.4820481836795806884765625" lon="2.1012051589787006378173828125">
        <ele>130.8000030517578125</ele>
        <time>2022-01-07T12:49:33.000Z</time>
      </trkpt>
      <trkpt lat="41.48208967410027980804443359375" lon="2.10117372684180736541748046875">
        <ele>130.8000030517578125</ele>
        <time>2022-01-07T12:49:34.000Z</time>
      </trkpt>
      <trkpt lat="41.4821294881403446197509765625" lon="2.10114061832427978515625">
        <ele>131</ele>
        <time>2022-01-07T12:49:35.000Z</time>
      </trkpt>
      <trkpt lat="41.48216729052364826202392578125" lon="2.101109437644481658935546875">
        <ele>131.1999969482421875</ele>
        <time>2022-01-07T12:49:36.000Z</time>
      </trkpt>
      <trkpt lat="41.48220417089760303497314453125" lon="2.1010760776698589324951171875">
        <ele>131.1999969482421875</ele>
        <time>2022-01-07T12:49:37.000Z</time>
      </trkpt>
      <trkpt lat="41.4822387881577014923095703125" lon="2.10104112513363361358642578125">
        <ele>131.1999969482421875</ele>
        <time>2022-01-07T12:49:38.000Z</time>
      </trkpt>
      <trkpt lat="41.48227340541779994964599609375" lon="2.10100315511226654052734375">
        <ele>131.399993896484375</ele>
        <time>2022-01-07T12:49:39.000Z</time>
      </trkpt>
      <trkpt lat="41.482306681573390960693359375" lon="2.10096669383347034454345703125">
        <ele>131.399993896484375</ele>
        <time>2022-01-07T12:49:40.000Z</time>
      </trkpt>
      <trkpt lat="41.48233844898641109466552734375" lon="2.10092847235500812530517578125">
        <ele>131.399993896484375</ele>
        <time>2022-01-07T12:49:41.000Z</time>
      </trkpt>
      <trkpt lat="41.48236778564751148223876953125" lon="2.1008869819343090057373046875">
        <ele>131.399993896484375</ele>
        <time>2022-01-07T12:49:42.000Z</time>
      </trkpt>
      <trkpt lat="41.48239511065185070037841796875" lon="2.100843898952007293701171875">
        <ele>131.600006103515625</ele>
        <time>2022-01-07T12:49:43.000Z</time>
      </trkpt>
      <trkpt lat="41.48242142982780933380126953125" lon="2.10080006159842014312744140625">
        <ele>131.8000030517578125</ele>
        <time>2022-01-07T12:49:44.000Z</time>
      </trkpt>
      <trkpt lat="41.4824443124234676361083984375" lon="2.10075647570192813873291015625">
        <ele>132</ele>
        <time>2022-01-07T12:49:45.000Z</time>
      </trkpt>
      <trkpt lat="41.4824666082859039306640625" lon="2.10071272216737270355224609375">
        <ele>132.399993896484375</ele>
        <time>2022-01-07T12:49:46.000Z</time>
      </trkpt>
      <trkpt lat="41.48248848505318164825439453125" lon="2.10067030973732471466064453125">
        <ele>132.600006103515625</ele>
        <time>2022-01-07T12:49:47.000Z</time>
      </trkpt>
      <trkpt lat="41.48251153528690338134765625" lon="2.10062840022146701812744140625">
        <ele>132.8000030517578125</ele>
        <time>2022-01-07T12:49:48.000Z</time>
      </trkpt>
      <trkpt lat="41.48253274150192737579345703125" lon="2.1005852334201335906982421875">
        <ele>132.8000030517578125</ele>
        <time>2022-01-07T12:49:49.000Z</time>
      </trkpt>
      <trkpt lat="41.48255470208823680877685546875" lon="2.100540809333324432373046875">
        <ele>133</ele>
        <time>2022-01-07T12:49:50.000Z</time>
      </trkpt>
      <trkpt lat="41.48257800377905368804931640625" lon="2.10050082765519618988037109375">
        <ele>133.399993896484375</ele>
        <time>2022-01-07T12:49:51.000Z</time>
      </trkpt>
      <trkpt lat="41.4825985394418239593505859375" lon="2.10045523010194301605224609375">
        <ele>133.600006103515625</ele>
        <time>2022-01-07T12:49:52.000Z</time>
      </trkpt>
      <trkpt lat="41.48261790163815021514892578125" lon="2.10041030310094356536865234375">
        <ele>133.600006103515625</ele>
        <time>2022-01-07T12:49:53.000Z</time>
      </trkpt>
      <trkpt lat="41.482635922729969024658203125" lon="2.1003652922809123992919921875">
        <ele>133.8000030517578125</ele>
        <time>2022-01-07T12:49:54.000Z</time>
      </trkpt>
      <trkpt lat="41.482655368745326995849609375" lon="2.1003230474889278411865234375">
        <ele>134.1999969482421875</ele>
        <time>2022-01-07T12:49:55.000Z</time>
      </trkpt>
      <trkpt lat="41.4826783351600170135498046875" lon="2.10027937777340412139892578125">
        <ele>134.399993896484375</ele>
        <time>2022-01-07T12:49:56.000Z</time>
      </trkpt>
      <trkpt lat="41.48270222358405590057373046875" lon="2.1002328582108020782470703125">
        <ele>134.8000030517578125</ele>
        <time>2022-01-07T12:49:57.000Z</time>
      </trkpt>
      <trkpt lat="41.4827215857803821563720703125" lon="2.10018717683851718902587890625">
        <ele>135</ele>
        <time>2022-01-07T12:49:58.000Z</time>
      </trkpt>
      <trkpt lat="41.4827413670718669891357421875" lon="2.1001426689326763153076171875">
        <ele>135.1999969482421875</ele>
        <time>2022-01-07T12:49:59.000Z</time>
      </trkpt>
      <trkpt lat="41.48276089690625667572021484375" lon="2.1000994183123111724853515625">
        <ele>135.600006103515625</ele>
        <time>2022-01-07T12:50:00.000Z</time>
      </trkpt>
      <trkpt lat="41.482780091464519500732421875" lon="2.1000575087964534759521484375">
        <ele>135.8000030517578125</ele>
        <time>2022-01-07T12:50:01.000Z</time>
      </trkpt>
      <trkpt lat="41.482800208032131195068359375" lon="2.10001450963318347930908203125">
        <ele>136</ele>
        <time>2022-01-07T12:50:02.000Z</time>
      </trkpt>
      <trkpt lat="41.482816301286220550537109375" lon="2.09996857680380344390869140625">
        <ele>136.1999969482421875</ele>
        <time>2022-01-07T12:50:03.000Z</time>
      </trkpt>
      <trkpt lat="41.482830047607421875" lon="2.0999220572412014007568359375">
        <ele>136.399993896484375</ele>
        <time>2022-01-07T12:50:04.000Z</time>
      </trkpt>
      <trkpt lat="41.48284840397536754608154296875" lon="2.099878303706645965576171875">
        <ele>136.600006103515625</ele>
        <time>2022-01-07T12:50:05.000Z</time>
      </trkpt>
      <trkpt lat="41.48287036456167697906494140625" lon="2.0998357236385345458984375">
        <ele>137</ele>
        <time>2022-01-07T12:50:06.000Z</time>
      </trkpt>
      <trkpt lat="41.482891738414764404296875" lon="2.0997943170368671417236328125">
        <ele>137.1999969482421875</ele>
        <time>2022-01-07T12:50:07.000Z</time>
      </trkpt>
      <trkpt lat="41.48291294462978839874267578125" lon="2.0997514016926288604736328125">
        <ele>137.399993896484375</ele>
        <time>2022-01-07T12:50:08.000Z</time>
      </trkpt>
      <trkpt lat="41.48293264210224151611328125" lon="2.09970924071967601776123046875">
        <ele>137.8000030517578125</ele>
        <time>2022-01-07T12:50:09.000Z</time>
      </trkpt>
      <trkpt lat="41.4829495735466480255126953125" lon="2.09966649301350116729736328125">
        <ele>138</ele>
        <time>2022-01-07T12:50:10.000Z</time>
      </trkpt>
      <trkpt lat="41.48296876810491085052490234375" lon="2.09962575696408748626708984375">
        <ele>138.399993896484375</ele>
        <time>2022-01-07T12:50:11.000Z</time>
      </trkpt>
      <trkpt lat="41.482989303767681121826171875" lon="2.0995867811143398284912109375">
        <ele>138.8000030517578125</ele>
        <time>2022-01-07T12:50:12.000Z</time>
      </trkpt>
      <trkpt lat="41.48300514556467533111572265625" lon="2.09955501370131969451904296875">
        <ele>139</ele>
        <time>2022-01-07T12:50:13.000Z</time>
      </trkpt>
      <trkpt lat="41.4830273576080799102783203125" lon="2.09950572811067104339599609375">
        <ele>139.1999969482421875</ele>
        <time>2022-01-07T12:50:14.000Z</time>
      </trkpt>
      <trkpt lat="41.4830454625189304351806640625" lon="2.09946415387094020843505859375">
        <ele>139.399993896484375</ele>
        <time>2022-01-07T12:50:15.000Z</time>
      </trkpt>
      <trkpt lat="41.48306616581976413726806640625" lon="2.0994211547076702117919921875">
        <ele>139.8000030517578125</ele>
        <time>2022-01-07T12:50:16.000Z</time>
      </trkpt>
      <trkpt lat="41.48308661766350269317626953125" lon="2.09937681443989276885986328125">
        <ele>140</ele>
        <time>2022-01-07T12:50:17.000Z</time>
      </trkpt>
      <trkpt lat="41.483107320964336395263671875" lon="2.0993349887430667877197265625">
        <ele>140.399993896484375</ele>
        <time>2022-01-07T12:50:18.000Z</time>
      </trkpt>
      <trkpt lat="41.4831264317035675048828125" lon="2.09929266013205051422119140625">
        <ele>140.600006103515625</ele>
        <time>2022-01-07T12:50:19.000Z</time>
      </trkpt>
      <trkpt lat="41.48314545862376689910888671875" lon="2.0992510020732879638671875">
        <ele>140.8000030517578125</ele>
        <time>2022-01-07T12:50:20.000Z</time>
      </trkpt>
      <trkpt lat="41.48316465318202972412109375" lon="2.099209092557430267333984375">
        <ele>140.8000030517578125</ele>
        <time>2022-01-07T12:50:21.000Z</time>
      </trkpt>
      <trkpt lat="41.48318200372159481048583984375" lon="2.09916776977479457855224609375">
        <ele>141</ele>
        <time>2022-01-07T12:50:22.000Z</time>
      </trkpt>
      <trkpt lat="41.48320220410823822021484375" lon="2.099126279354095458984375">
        <ele>141.1999969482421875</ele>
        <time>2022-01-07T12:50:23.000Z</time>
      </trkpt>
      <trkpt lat="41.48322190158069133758544921875" lon="2.09908344782888889312744140625">
        <ele>141.399993896484375</ele>
        <time>2022-01-07T12:50:24.000Z</time>
      </trkpt>
      <trkpt lat="41.4832412637770175933837890625" lon="2.0990419574081897735595703125">
        <ele>141.8000030517578125</ele>
        <time>2022-01-07T12:50:25.000Z</time>
      </trkpt>
      <trkpt lat="41.48326255381107330322265625" lon="2.099000550806522369384765625">
        <ele>142</ele>
        <time>2022-01-07T12:50:26.000Z</time>
      </trkpt>
      <trkpt lat="41.483283005654811859130859375" lon="2.09895755164325237274169921875">
        <ele>142</ele>
        <time>2022-01-07T12:50:27.000Z</time>
      </trkpt>
      <trkpt lat="41.48330144584178924560546875" lon="2.0989148877561092376708984375">
        <ele>142.399993896484375</ele>
        <time>2022-01-07T12:50:28.000Z</time>
      </trkpt>
      <trkpt lat="41.48332424461841583251953125" lon="2.09887557663023471832275390625">
        <ele>142.600006103515625</ele>
        <time>2022-01-07T12:50:29.000Z</time>
      </trkpt>
      <trkpt lat="41.483347378671169281005859375" lon="2.09883668459951877593994140625">
        <ele>143.1999969482421875</ele>
        <time>2022-01-07T12:50:30.000Z</time>
      </trkpt>
      <trkpt lat="41.48337160237133502960205078125" lon="2.0987982116639614105224609375">
        <ele>143.600006103515625</ele>
        <time>2022-01-07T12:50:31.000Z</time>
      </trkpt>
      <trkpt lat="41.48339490406215190887451171875" lon="2.098759151995182037353515625">
        <ele>144</ele>
        <time>2022-01-07T12:50:32.000Z</time>
      </trkpt>
      <trkpt lat="41.48341904394328594207763671875" lon="2.09872151724994182586669921875">
        <ele>144</ele>
        <time>2022-01-07T12:50:33.000Z</time>
      </trkpt>
      <trkpt lat="41.48344486020505428314208984375" lon="2.09868371486663818359375">
        <ele>144.1999969482421875</ele>
        <time>2022-01-07T12:50:34.000Z</time>
      </trkpt>
      <trkpt lat="41.48347252048552036285400390625" lon="2.0986476726830005645751953125">
        <ele>144.600006103515625</ele>
        <time>2022-01-07T12:50:35.000Z</time>
      </trkpt>
      <trkpt lat="41.483498923480510711669921875" lon="2.0986180007457733154296875">
        <ele>144.8000030517578125</ele>
        <time>2022-01-07T12:50:36.000Z</time>
      </trkpt>
      <trkpt lat="41.48353018797934055328369140625" lon="2.09858606569468975067138671875">
        <ele>145</ele>
        <time>2022-01-07T12:50:37.000Z</time>
      </trkpt>
      <trkpt lat="41.4835634641349315643310546875" lon="2.098553963005542755126953125">
        <ele>145</ele>
        <time>2022-01-07T12:50:38.000Z</time>
      </trkpt>
      <trkpt lat="41.48359556682407855987548828125" lon="2.09852621890604496002197265625">
        <ele>145.399993896484375</ele>
        <time>2022-01-07T12:50:39.000Z</time>
      </trkpt>
      <trkpt lat="41.48362892679870128631591796875" lon="2.0985001511871814727783203125">
        <ele>145.399993896484375</ele>
        <time>2022-01-07T12:50:40.000Z</time>
      </trkpt>
      <trkpt lat="41.48366195149719715118408203125" lon="2.09847391583025455474853515625">
        <ele>145.600006103515625</ele>
        <time>2022-01-07T12:50:41.000Z</time>
      </trkpt>
      <trkpt lat="41.48369464091956615447998046875" lon="2.09844592027366161346435546875">
        <ele>145.8000030517578125</ele>
        <time>2022-01-07T12:50:42.000Z</time>
      </trkpt>
      <trkpt lat="41.48372716270387172698974609375" lon="2.09841725416481494903564453125">
        <ele>146</ele>
        <time>2022-01-07T12:50:43.000Z</time>
      </trkpt>
      <trkpt lat="41.48376052267849445343017578125" lon="2.098391354084014892578125">
        <ele>146.1999969482421875</ele>
        <time>2022-01-07T12:50:44.000Z</time>
      </trkpt>
      <trkpt lat="41.48379497230052947998046875" lon="2.0983643643558025360107421875">
        <ele>146.1999969482421875</ele>
        <time>2022-01-07T12:50:45.000Z</time>
      </trkpt>
      <trkpt lat="41.483831517398357391357421875" lon="2.09833863191306591033935546875">
        <ele>146.399993896484375</ele>
        <time>2022-01-07T12:50:46.000Z</time>
      </trkpt>
      <trkpt lat="41.48386747576296329498291015625" lon="2.09830946289002895355224609375">
        <ele>146.600006103515625</ele>
        <time>2022-01-07T12:50:47.000Z</time>
      </trkpt>
      <trkpt lat="41.4839041046798229217529296875" lon="2.09828331135213375091552734375">
        <ele>147</ele>
        <time>2022-01-07T12:50:48.000Z</time>
      </trkpt>
      <trkpt lat="41.48393981158733367919921875" lon="2.09825699217617511749267578125">
        <ele>147</ele>
        <time>2022-01-07T12:50:49.000Z</time>
      </trkpt>
      <trkpt lat="41.48397560231387615203857421875" lon="2.0982309244573116302490234375">
        <ele>147.1999969482421875</ele>
        <time>2022-01-07T12:50:50.000Z</time>
      </trkpt>
      <trkpt lat="41.48401197977364063262939453125" lon="2.09820468910038471221923828125">
        <ele>147.399993896484375</ele>
        <time>2022-01-07T12:50:51.000Z</time>
      </trkpt>
      <trkpt lat="41.4840496145188808441162109375" lon="2.098178453743457794189453125">
        <ele>147.600006103515625</ele>
        <time>2022-01-07T12:50:52.000Z</time>
      </trkpt>
      <trkpt lat="41.484086327254772186279296875" lon="2.09815154783427715301513671875">
        <ele>148</ele>
        <time>2022-01-07T12:50:53.000Z</time>
      </trkpt>
      <trkpt lat="41.48412295617163181304931640625" lon="2.09812288172543048858642578125">
        <ele>148.1999969482421875</ele>
        <time>2022-01-07T12:50:54.000Z</time>
      </trkpt>
      <trkpt lat="41.4841617643833160400390625" lon="2.09809438325464725494384765625">
        <ele>148.399993896484375</ele>
        <time>2022-01-07T12:50:55.000Z</time>
      </trkpt>
      <trkpt lat="41.48420057259500026702880859375" lon="2.09806504659354686737060546875">
        <ele>148.399993896484375</ele>
        <time>2022-01-07T12:50:56.000Z</time>
      </trkpt>
      <trkpt lat="41.48423728533089160919189453125" lon="2.0980364643037319183349609375">
        <ele>148.600006103515625</ele>
        <time>2022-01-07T12:50:57.000Z</time>
      </trkpt>
      <trkpt lat="41.484273411333560943603515625" lon="2.0980086363852024078369140625">
        <ele>148.600006103515625</ele>
        <time>2022-01-07T12:50:58.000Z</time>
      </trkpt>
      <trkpt lat="41.48431037552654743194580078125" lon="2.09798139519989490509033203125">
        <ele>148.8000030517578125</ele>
        <time>2022-01-07T12:50:59.000Z</time>
      </trkpt>
      <trkpt lat="41.48434842936694622039794921875" lon="2.09795557893812656402587890625">
        <ele>149</ele>
        <time>2022-01-07T12:51:00.000Z</time>
      </trkpt>
      <trkpt lat="41.48438497446477413177490234375" lon="2.0979264937341213226318359375">
        <ele>149.1999969482421875</ele>
        <time>2022-01-07T12:51:01.000Z</time>
      </trkpt>
      <trkpt lat="41.484422273933887481689453125" lon="2.09789355285465717315673828125">
        <ele>149.399993896484375</ele>
        <time>2022-01-07T12:51:02.000Z</time>
      </trkpt>
      <trkpt lat="41.48446041159331798553466796875" lon="2.09785868413746356964111328125">
        <ele>149.600006103515625</ele>
        <time>2022-01-07T12:51:03.000Z</time>
      </trkpt>
      <trkpt lat="41.4844997227191925048828125" lon="2.09782834164798259735107421875">
        <ele>149.8000030517578125</ele>
        <time>2022-01-07T12:51:04.000Z</time>
      </trkpt>
      <trkpt lat="41.48453802801668643951416015625" lon="2.09779732860624790191650390625">
        <ele>149.8000030517578125</ele>
        <time>2022-01-07T12:51:05.000Z</time>
      </trkpt>
      <trkpt lat="41.4845775067806243896484375" lon="2.097765393555164337158203125">
        <ele>149.8000030517578125</ele>
        <time>2022-01-07T12:51:06.000Z</time>
      </trkpt>
      <trkpt lat="41.484619416296482086181640625" lon="2.097735218703746795654296875">
        <ele>150</ele>
        <time>2022-01-07T12:51:07.000Z</time>
      </trkpt>
      <trkpt lat="41.4846628345549106597900390625" lon="2.09770663641393184661865234375">
        <ele>150.399993896484375</ele>
        <time>2022-01-07T12:51:08.000Z</time>
      </trkpt>
      <trkpt lat="41.48470365442335605621337890625" lon="2.09767444990575313568115234375">
        <ele>150.8000030517578125</ele>
        <time>2022-01-07T12:51:09.000Z</time>
      </trkpt>
      <trkpt lat="41.48474472574889659881591796875" lon="2.0976408384740352630615234375">
        <ele>151.1999969482421875</ele>
        <time>2022-01-07T12:51:10.000Z</time>
      </trkpt>
      <trkpt lat="41.48478697054088115692138671875" lon="2.097610495984554290771484375">
        <ele>151.399993896484375</ele>
        <time>2022-01-07T12:51:11.000Z</time>
      </trkpt>
      <trkpt lat="41.484827287495136260986328125" lon="2.09758074022829532623291015625">
        <ele>151.600006103515625</ele>
        <time>2022-01-07T12:51:12.000Z</time>
      </trkpt>
      <trkpt lat="41.48486643098294734954833984375" lon="2.09754821844398975372314453125">
        <ele>151.8000030517578125</ele>
        <time>2022-01-07T12:51:13.000Z</time>
      </trkpt>
      <trkpt lat="41.48490783758461475372314453125" lon="2.0975177921354770660400390625">
        <ele>151.8000030517578125</ele>
        <time>2022-01-07T12:51:14.000Z</time>
      </trkpt>
      <trkpt lat="41.48494966328144073486328125" lon="2.09748736582696437835693359375">
        <ele>152</ele>
        <time>2022-01-07T12:51:15.000Z</time>
      </trkpt>
      <trkpt lat="41.48499081842601299285888671875" lon="2.0974557660520076751708984375">
        <ele>152</ele>
        <time>2022-01-07T12:51:16.000Z</time>
      </trkpt>
      <trkpt lat="41.4850316382944583892822265625" lon="2.09742416627705097198486328125">
        <ele>152</ele>
        <time>2022-01-07T12:51:17.000Z</time>
      </trkpt>
      <trkpt lat="41.485069692134857177734375" lon="2.0973940752446651458740234375">
        <ele>152.1999969482421875</ele>
        <time>2022-01-07T12:51:18.000Z</time>
      </trkpt>
      <trkpt lat="41.48510925471782684326171875" lon="2.0973645709455013275146484375">
        <ele>152.1999969482421875</ele>
        <time>2022-01-07T12:51:19.000Z</time>
      </trkpt>
      <trkpt lat="41.4851493202149868011474609375" lon="2.0973354019224643707275390625">
        <ele>152.399993896484375</ele>
        <time>2022-01-07T12:51:20.000Z</time>
      </trkpt>
      <trkpt lat="41.4851902239024639129638671875" lon="2.097305394709110260009765625">
        <ele>152.399993896484375</ele>
        <time>2022-01-07T12:51:21.000Z</time>
      </trkpt>
      <trkpt lat="41.48522987030446529388427734375" lon="2.0972747169435024261474609375">
        <ele>152.399993896484375</ele>
        <time>2022-01-07T12:51:22.000Z</time>
      </trkpt>
      <trkpt lat="41.4852680079638957977294921875" lon="2.09724244661629199981689453125">
        <ele>152.399993896484375</ele>
        <time>2022-01-07T12:51:23.000Z</time>
      </trkpt>
      <trkpt lat="41.4853065647184848785400390625" lon="2.09721185266971588134765625">
        <ele>152.600006103515625</ele>
        <time>2022-01-07T12:51:24.000Z</time>
      </trkpt>
      <trkpt lat="41.48534621112048625946044921875" lon="2.09718209691345691680908203125">
        <ele>152.600006103515625</ele>
        <time>2022-01-07T12:51:25.000Z</time>
      </trkpt>
      <trkpt lat="41.4853866957128047943115234375" lon="2.0971540175378322601318359375">
        <ele>152.600006103515625</ele>
        <time>2022-01-07T12:51:26.000Z</time>
      </trkpt>
      <trkpt lat="41.48542634211480617523193359375" lon="2.09712627343833446502685546875">
        <ele>152.600006103515625</ele>
        <time>2022-01-07T12:51:27.000Z</time>
      </trkpt>
      <trkpt lat="41.48546389304101467132568359375" lon="2.097096852958202362060546875">
        <ele>152.600006103515625</ele>
        <time>2022-01-07T12:51:28.000Z</time>
      </trkpt>
      <trkpt lat="41.4855033718049526214599609375" lon="2.09706642664968967437744140625">
        <ele>152.8000030517578125</ele>
        <time>2022-01-07T12:51:29.000Z</time>
      </trkpt>
      <trkpt lat="41.48554553277790546417236328125" lon="2.09703658707439899444580078125">
        <ele>152.8000030517578125</ele>
        <time>2022-01-07T12:51:30.000Z</time>
      </trkpt>
      <trkpt lat="41.48558476008474826812744140625" lon="2.097006998956203460693359375">
        <ele>152.8000030517578125</ele>
        <time>2022-01-07T12:51:31.000Z</time>
      </trkpt>
      <trkpt lat="41.48562331683933734893798828125" lon="2.0969769917428493499755859375">
        <ele>152.8000030517578125</ele>
        <time>2022-01-07T12:51:32.000Z</time>
      </trkpt>
      <trkpt lat="41.48566178977489471435546875" lon="2.09694673307240009307861328125">
        <ele>153</ele>
        <time>2022-01-07T12:51:33.000Z</time>
      </trkpt>
      <trkpt lat="41.48570110090076923370361328125" lon="2.09691823460161685943603515625">
        <ele>153</ele>
        <time>2022-01-07T12:51:34.000Z</time>
      </trkpt>
      <trkpt lat="41.4857404120266437530517578125" lon="2.0968908257782459259033203125">
        <ele>153</ele>
        <time>2022-01-07T12:51:35.000Z</time>
      </trkpt>
      <trkpt lat="41.485782153904438018798828125" lon="2.096863500773906707763671875">
        <ele>153.1999969482421875</ele>
        <time>2022-01-07T12:51:36.000Z</time>
      </trkpt>
      <trkpt lat="41.48582314141094684600830078125" lon="2.096836008131504058837890625">
        <ele>153.399993896484375</ele>
        <time>2022-01-07T12:51:37.000Z</time>
      </trkpt>
      <trkpt lat="41.48586538620293140411376953125" lon="2.09680952131748199462890625">
        <ele>153.600006103515625</ele>
        <time>2022-01-07T12:51:38.000Z</time>
      </trkpt>
      <trkpt lat="41.48590779863297939300537109375" lon="2.096785046160221099853515625">
        <ele>153.600006103515625</ele>
        <time>2022-01-07T12:51:39.000Z</time>
      </trkpt>
      <trkpt lat="41.48595004342496395111083984375" lon="2.09676325321197509765625">
        <ele>153.600006103515625</ele>
        <time>2022-01-07T12:51:40.000Z</time>
      </trkpt>
      <trkpt lat="41.48599379695951938629150390625" lon="2.09674514830112457275390625">
        <ele>153.8000030517578125</ele>
        <time>2022-01-07T12:51:41.000Z</time>
      </trkpt>
      <trkpt lat="41.486036963760852813720703125" lon="2.09672612138092517852783203125">
        <ele>153.8000030517578125</ele>
        <time>2022-01-07T12:51:42.000Z</time>
      </trkpt>
      <trkpt lat="41.48607962764799594879150390625" lon="2.09670818410813808441162109375">
        <ele>153.8000030517578125</ele>
        <time>2022-01-07T12:51:43.000Z</time>
      </trkpt>
      <trkpt lat="41.48612254299223423004150390625" lon="2.09669460542500019073486328125">
        <ele>153.8000030517578125</ele>
        <time>2022-01-07T12:51:44.000Z</time>
      </trkpt>
      <trkpt lat="41.486166380345821380615234375" lon="2.09668270312249660491943359375">
        <ele>154</ele>
        <time>2022-01-07T12:51:45.000Z</time>
      </trkpt>
      <trkpt lat="41.4862108044326305389404296875" lon="2.09666778333485126495361328125">
        <ele>154.1999969482421875</ele>
        <time>2022-01-07T12:51:46.000Z</time>
      </trkpt>
      <trkpt lat="41.4862547256052494049072265625" lon="2.0966546237468719482421875">
        <ele>154.399993896484375</ele>
        <time>2022-01-07T12:51:47.000Z</time>
      </trkpt>
      <trkpt lat="41.4863003231585025787353515625" lon="2.09664951078593730926513671875">
        <ele>154.600006103515625</ele>
        <time>2022-01-07T12:51:48.000Z</time>
      </trkpt>
      <trkpt lat="41.486346758902072906494140625" lon="2.096646912395954132080078125">
        <ele>154.8000030517578125</ele>
        <time>2022-01-07T12:51:49.000Z</time>
      </trkpt>
      <trkpt lat="41.4863928593695163726806640625" lon="2.09664397872984409332275390625">
        <ele>155</ele>
        <time>2022-01-07T12:51:50.000Z</time>
      </trkpt>
      <trkpt lat="41.48643828928470611572265625" lon="2.09664188325405120849609375">
        <ele>155.1999969482421875</ele>
        <time>2022-01-07T12:51:51.000Z</time>
      </trkpt>
      <trkpt lat="41.4864850603044033050537109375" lon="2.09663794375956058502197265625">
        <ele>155.1999969482421875</ele>
        <time>2022-01-07T12:51:52.000Z</time>
      </trkpt>
      <trkpt lat="41.48652973584830760955810546875" lon="2.09663274697959423065185546875">
        <ele>155.399993896484375</ele>
        <time>2022-01-07T12:51:53.000Z</time>
      </trkpt>
      <trkpt lat="41.48657382465898990631103515625" lon="2.0966269634664058685302734375">
        <ele>155.600006103515625</ele>
        <time>2022-01-07T12:51:54.000Z</time>
      </trkpt>
      <trkpt lat="41.48661858402192592620849609375" lon="2.0966232754290103912353515625">
        <ele>155.8000030517578125</ele>
        <time>2022-01-07T12:51:55.000Z</time>
      </trkpt>
      <trkpt lat="41.48666434921324253082275390625" lon="2.096620090305805206298828125">
        <ele>156</ele>
        <time>2022-01-07T12:51:56.000Z</time>
      </trkpt>
      <trkpt lat="41.4867110364139080047607421875" lon="2.0966148935258388519287109375">
        <ele>156.1999969482421875</ele>
        <time>2022-01-07T12:51:57.000Z</time>
      </trkpt>
      <trkpt lat="41.4867562986910343170166015625" lon="2.0966088585555553436279296875">
        <ele>156.1999969482421875</ele>
        <time>2022-01-07T12:51:58.000Z</time>
      </trkpt>
      <trkpt lat="41.4868032373487949371337890625" lon="2.0966055057942867279052734375">
        <ele>156.399993896484375</ele>
        <time>2022-01-07T12:51:59.000Z</time>
      </trkpt>
      <trkpt lat="41.48685076273977756500244140625" lon="2.0966011472046375274658203125">
        <ele>156.600006103515625</ele>
        <time>2022-01-07T12:52:00.000Z</time>
      </trkpt>
      <trkpt lat="41.48689694702625274658203125" lon="2.0965967886149883270263671875">
        <ele>156.600006103515625</ele>
        <time>2022-01-07T12:52:01.000Z</time>
      </trkpt>
      <trkpt lat="41.4869427122175693511962890625" lon="2.09659159183502197265625">
        <ele>156.8000030517578125</ele>
        <time>2022-01-07T12:52:02.000Z</time>
      </trkpt>
      <trkpt lat="41.486989147961139678955078125" lon="2.09658681415021419525146484375">
        <ele>157</ele>
        <time>2022-01-07T12:52:03.000Z</time>
      </trkpt>
      <trkpt lat="41.4870382659137248992919921875" lon="2.0965803600847721099853515625">
        <ele>157.1999969482421875</ele>
        <time>2022-01-07T12:52:04.000Z</time>
      </trkpt>
      <trkpt lat="41.48708495311439037322998046875" lon="2.09657558239996433258056640625">
        <ele>157.399993896484375</ele>
        <time>2022-01-07T12:52:05.000Z</time>
      </trkpt>
      <trkpt lat="41.4871318079531192779541015625" lon="2.09657105617225170135498046875">
        <ele>157.600006103515625</ele>
        <time>2022-01-07T12:52:06.000Z</time>
      </trkpt>
      <trkpt lat="41.4871774055063724517822265625" lon="2.096567787230014801025390625">
        <ele>157.600006103515625</ele>
        <time>2022-01-07T12:52:07.000Z</time>
      </trkpt>
      <trkpt lat="41.4872219972312450408935546875" lon="2.09656250663101673126220703125">
        <ele>157.8000030517578125</ele>
        <time>2022-01-07T12:52:08.000Z</time>
      </trkpt>
      <trkpt lat="41.48726315237581729888916015625" lon="2.09655814804136753082275390625">
        <ele>157.8000030517578125</ele>
        <time>2022-01-07T12:52:09.000Z</time>
      </trkpt>
      <trkpt lat="41.48730036802589893341064453125" lon="2.096555717289447784423828125">
        <ele>158</ele>
        <time>2022-01-07T12:52:10.000Z</time>
      </trkpt>
      <trkpt lat="41.48733406327664852142333984375" lon="2.0965528674423694610595703125">
        <ele>158</ele>
        <time>2022-01-07T12:52:11.000Z</time>
      </trkpt>
      <trkpt lat="41.4873661659657955169677734375" lon="2.09654808975756168365478515625">
        <ele>158</ele>
        <time>2022-01-07T12:52:12.000Z</time>
      </trkpt>
      <trkpt lat="41.48739407770335674285888671875" lon="2.09654523991048336029052734375">
        <ele>158.1999969482421875</ele>
        <time>2022-01-07T12:52:13.000Z</time>
      </trkpt>
      <trkpt lat="41.4874171279370784759521484375" lon="2.096544317901134490966796875">
        <ele>158.1999969482421875</ele>
        <time>2022-01-07T12:52:14.000Z</time>
      </trkpt>
      <trkpt lat="41.48743783123791217803955078125" lon="2.0965448208153247833251953125">
        <ele>158.399993896484375</ele>
        <time>2022-01-07T12:52:15.000Z</time>
      </trkpt>
      <trkpt lat="41.4874553494155406951904296875" lon="2.0965473353862762451171875">
        <ele>158.399993896484375</ele>
        <time>2022-01-07T12:52:16.000Z</time>
      </trkpt>
      <trkpt lat="41.48746867664158344268798828125" lon="2.09655295126140117645263671875">
        <ele>158.600006103515625</ele>
        <time>2022-01-07T12:52:17.000Z</time>
      </trkpt>
      <trkpt lat="41.48747856728732585906982421875" lon="2.0965642668306827545166015625">
        <ele>158.600006103515625</ele>
        <time>2022-01-07T12:52:18.000Z</time>
      </trkpt>
      <trkpt lat="41.48748292587697505950927734375" lon="2.09657072089612483978271484375">
        <ele>158.8000030517578125</ele>
        <time>2022-01-07T12:52:19.000Z</time>
      </trkpt>
      <trkpt lat="41.48748292587697505950927734375" lon="2.09657072089612483978271484375">
        <ele>159</ele>
        <time>2022-01-07T12:52:20.000Z</time>
      </trkpt>
      <trkpt lat="41.48748929612338542938232421875" lon="2.09660491906106472015380859375">
        <ele>159.600006103515625</ele>
        <time>2022-01-07T12:53:13.000Z</time>
      </trkpt>
      <trkpt lat="41.48750044405460357666015625" lon="2.09664263762533664703369140625">
        <ele>159.600006103515625</ele>
        <time>2022-01-07T12:53:14.000Z</time>
      </trkpt>
      <trkpt lat="41.48750983178615570068359375" lon="2.09668672643601894378662109375">
        <ele>159.600006103515625</ele>
        <time>2022-01-07T12:53:15.000Z</time>
      </trkpt>
      <trkpt lat="41.487521566450595855712890625" lon="2.0967377722263336181640625">
        <ele>159.600006103515625</ele>
        <time>2022-01-07T12:53:16.000Z</time>
      </trkpt>
      <trkpt lat="41.48753254674375057220458984375" lon="2.0967932604253292083740234375">
        <ele>159.600006103515625</ele>
        <time>2022-01-07T12:53:17.000Z</time>
      </trkpt>
      <trkpt lat="41.4875421859323978424072265625" lon="2.09685101173818111419677734375">
        <ele>159.600006103515625</ele>
        <time>2022-01-07T12:53:18.000Z</time>
      </trkpt>
      <trkpt lat="41.487549729645252227783203125" lon="2.09690934978425502777099609375">
        <ele>159.600006103515625</ele>
        <time>2022-01-07T12:53:19.000Z</time>
      </trkpt>
      <trkpt lat="41.48756104521453380584716796875" lon="2.096966765820980072021484375">
        <ele>159.399993896484375</ele>
        <time>2022-01-07T12:53:20.000Z</time>
      </trkpt>
      <trkpt lat="41.4875773899257183074951171875" lon="2.0970259420573711395263671875">
        <ele>159.399993896484375</ele>
        <time>2022-01-07T12:53:21.000Z</time>
      </trkpt>
      <trkpt lat="41.4875931479036808013916015625" lon="2.097080089151859283447265625">
        <ele>159.399993896484375</ele>
        <time>2022-01-07T12:53:22.000Z</time>
      </trkpt>
      <trkpt lat="41.4876030385494232177734375" lon="2.0971325598657131195068359375">
        <ele>159.399993896484375</ele>
        <time>2022-01-07T12:53:23.000Z</time>
      </trkpt>
      <trkpt lat="41.4876156114041805267333984375" lon="2.09718327037990093231201171875">
        <ele>159.399993896484375</ele>
        <time>2022-01-07T12:53:24.000Z</time>
      </trkpt>
      <trkpt lat="41.48762784898281097412109375" lon="2.0972331427037715911865234375">
        <ele>159.1999969482421875</ele>
        <time>2022-01-07T12:53:25.000Z</time>
      </trkpt>
      <trkpt lat="41.48763832636177539825439453125" lon="2.09728066809475421905517578125">
        <ele>159</ele>
        <time>2022-01-07T12:53:26.000Z</time>
      </trkpt>
      <trkpt lat="41.48765140213072299957275390625" lon="2.097330205142498016357421875">
        <ele>158.8000030517578125</ele>
        <time>2022-01-07T12:53:27.000Z</time>
      </trkpt>
      <trkpt lat="41.487663052976131439208984375" lon="2.09738058038055896759033203125">
        <ele>158.600006103515625</ele>
        <time>2022-01-07T12:53:28.000Z</time>
      </trkpt>
      <trkpt lat="41.48767386563122272491455078125" lon="2.0974333025515079498291015625">
        <ele>158.399993896484375</ele>
        <time>2022-01-07T12:53:29.000Z</time>
      </trkpt>
      <trkpt lat="41.48768610320985317230224609375" lon="2.097489796578884124755859375">
        <ele>158.1999969482421875</ele>
        <time>2022-01-07T12:53:30.000Z</time>
      </trkpt>
      <trkpt lat="41.4876954071223735809326171875" lon="2.097548805177211761474609375">
        <ele>158.1999969482421875</ele>
        <time>2022-01-07T12:53:31.000Z</time>
      </trkpt>
      <trkpt lat="41.4877058006823062896728515625" lon="2.097610495984554290771484375">
        <ele>158</ele>
        <time>2022-01-07T12:53:32.000Z</time>
      </trkpt>
      <trkpt lat="41.4877188764512538909912109375" lon="2.0976720191538333892822265625">
        <ele>157.8000030517578125</ele>
        <time>2022-01-07T12:53:33.000Z</time>
      </trkpt>
      <trkpt lat="41.4877346344292163848876953125" lon="2.097737230360507965087890625">
        <ele>157.600006103515625</ele>
        <time>2022-01-07T12:53:34.000Z</time>
      </trkpt>
      <trkpt lat="41.4877503924071788787841796875" lon="2.09780369885265827178955078125">
        <ele>157.1999969482421875</ele>
        <time>2022-01-07T12:53:35.000Z</time>
      </trkpt>
      <trkpt lat="41.48776573128998279571533203125" lon="2.0978715084493160247802734375">
        <ele>157.1999969482421875</ele>
        <time>2022-01-07T12:53:36.000Z</time>
      </trkpt>
      <trkpt lat="41.48778383620083332061767578125" lon="2.09793898276984691619873046875">
        <ele>156.8000030517578125</ele>
        <time>2022-01-07T12:53:37.000Z</time>
      </trkpt>
      <trkpt lat="41.48780344985425472259521484375" lon="2.0979992486536502838134765625">
        <ele>156.399993896484375</ele>
        <time>2022-01-07T12:53:38.000Z</time>
      </trkpt>
      <trkpt lat="41.48782432079315185546875" lon="2.098041661083698272705078125">
        <ele>156.1999969482421875</ele>
        <time>2022-01-07T12:53:39.000Z</time>
      </trkpt>
      <trkpt lat="41.48784351535141468048095703125" lon="2.098078541457653045654296875">
        <ele>156</ele>
        <time>2022-01-07T12:53:40.000Z</time>
      </trkpt>
      <trkpt lat="41.48785910569131374359130859375" lon="2.098116762936115264892578125">
        <ele>155.600006103515625</ele>
        <time>2022-01-07T12:53:41.000Z</time>
      </trkpt>
      <trkpt lat="41.48787369020283222198486328125" lon="2.09816194139420986175537109375">
        <ele>155.399993896484375</ele>
        <time>2022-01-07T12:53:42.000Z</time>
      </trkpt>
      <trkpt lat="41.48788844235241413116455078125" lon="2.09821558557450771331787109375">
        <ele>155.1999969482421875</ele>
        <time>2022-01-07T12:53:43.000Z</time>
      </trkpt>
      <trkpt lat="41.4879049547016620635986328125" lon="2.09827593527734279632568359375">
        <ele>155</ele>
        <time>2022-01-07T12:53:44.000Z</time>
      </trkpt>
      <trkpt lat="41.48792146705090999603271484375" lon="2.09833812899887561798095703125">
        <ele>154</ele>
        <time>2022-01-07T12:53:45.000Z</time>
      </trkpt>
      <trkpt lat="41.48794074542820453643798828125" lon="2.098399735987186431884765625">
        <ele>153.600006103515625</ele>
        <time>2022-01-07T12:53:46.000Z</time>
      </trkpt>
      <trkpt lat="41.48795985616743564605712890625" lon="2.09846444427967071533203125">
        <ele>153.399993896484375</ele>
        <time>2022-01-07T12:53:47.000Z</time>
      </trkpt>
      <trkpt lat="41.48797309957444667816162109375" lon="2.09853325970470905303955078125">
        <ele>153.1999969482421875</ele>
        <time>2022-01-07T12:53:48.000Z</time>
      </trkpt>
      <trkpt lat="41.4879850856959819793701171875" lon="2.09860651753842830657958984375">
        <ele>153.1999969482421875</ele>
        <time>2022-01-07T12:53:49.000Z</time>
      </trkpt>
      <trkpt lat="41.48799774236977100372314453125" lon="2.0986783504486083984375">
        <ele>152.8000030517578125</ele>
        <time>2022-01-07T12:53:50.000Z</time>
      </trkpt>
      <trkpt lat="41.48801199160516262054443359375" lon="2.098749093711376190185546875">
        <ele>152.600006103515625</ele>
        <time>2022-01-07T12:53:51.000Z</time>
      </trkpt>
      <trkpt lat="41.488024480640888214111328125" lon="2.09881036542356014251708984375">
        <ele>152.1999969482421875</ele>
        <time>2022-01-07T12:53:52.000Z</time>
      </trkpt>
      <trkpt lat="41.488034538924694061279296875" lon="2.09886216558516025543212890625">
        <ele>151.1999969482421875</ele>
        <time>2022-01-07T12:53:53.000Z</time>
      </trkpt>
      <trkpt lat="41.48803864605724811553955078125" lon="2.09889871068298816680908203125">
        <ele>150.600006103515625</ele>
        <time>2022-01-07T12:53:54.000Z</time>
      </trkpt>
      <trkpt lat="41.48805163800716400146484375" lon="2.09891849197447299957275390625">
        <ele>149.8000030517578125</ele>
        <time>2022-01-07T12:53:55.000Z</time>
      </trkpt>
      <trkpt lat="41.48806613869965076446533203125" lon="2.09894062019884586334228515625">
        <ele>148.8000030517578125</ele>
        <time>2022-01-07T12:53:56.000Z</time>
      </trkpt>
      <trkpt lat="41.48807871155440807342529296875" lon="2.09896794520318508148193359375">
        <ele>148.399993896484375</ele>
        <time>2022-01-07T12:53:57.000Z</time>
      </trkpt>
      <trkpt lat="41.48808742873370647430419921875" lon="2.0989966951310634613037109375">
        <ele>148.1999969482421875</ele>
        <time>2022-01-07T12:53:58.000Z</time>
      </trkpt>
      <trkpt lat="41.48809832520782947540283203125" lon="2.09902561269700527191162109375">
        <ele>148</ele>
        <time>2022-01-07T12:53:59.000Z</time>
      </trkpt>
      <trkpt lat="41.48811106570065021514892578125" lon="2.09905922412872314453125">
        <ele>148</ele>
        <time>2022-01-07T12:54:00.000Z</time>
      </trkpt>
      <trkpt lat="41.48812062107026576995849609375" lon="2.0990771614015102386474609375">
        <ele>148</ele>
        <time>2022-01-07T12:54:01.000Z</time>
      </trkpt>
      <trkpt lat="41.48813202045857906341552734375" lon="2.099100463092327117919921875">
        <ele>148</ele>
        <time>2022-01-07T12:54:02.000Z</time>
      </trkpt>
      <trkpt lat="41.4881403185427188873291015625" lon="2.0991222560405731201171875">
        <ele>148</ele>
        <time>2022-01-07T12:54:03.000Z</time>
      </trkpt>
      <trkpt lat="41.48814710788428783416748046875" lon="2.099144719541072845458984375">
        <ele>148</ele>
        <time>2022-01-07T12:54:04.000Z</time>
      </trkpt>
      <trkpt lat="41.488153897225856781005859375" lon="2.09916357882320880889892578125">
        <ele>148</ele>
        <time>2022-01-07T12:54:05.000Z</time>
      </trkpt>
      <trkpt lat="41.48816035129129886627197265625" lon="2.09917833097279071807861328125">
        <ele>148</ele>
        <time>2022-01-07T12:54:06.000Z</time>
      </trkpt>
      <trkpt lat="41.4881627820432186126708984375" lon="2.09918771870434284210205078125">
        <ele>148</ele>
        <time>2022-01-07T12:54:07.000Z</time>
      </trkpt>
      <trkpt lat="41.4881627820432186126708984375" lon="2.09918771870434284210205078125">
        <ele>148</ele>
        <time>2022-01-07T12:54:08.000Z</time>
      </trkpt>
      <trkpt lat="41.4881627820432186126708984375" lon="2.09918771870434284210205078125">
        <ele>148.1999969482421875</ele>
        <time>2022-01-07T12:54:09.000Z</time>
      </trkpt>
      <trkpt lat="41.488211564719676971435546875" lon="2.09928142838180065155029296875">
        <ele>150.8000030517578125</ele>
        <time>2022-01-07T12:54:46.000Z</time>
      </trkpt>
      <trkpt lat="41.48822338320314884185791015625" lon="2.09930774755775928497314453125">
        <ele>150.8000030517578125</ele>
        <time>2022-01-07T12:54:47.000Z</time>
      </trkpt>
      <trkpt lat="41.48823712952435016632080078125" lon="2.09933641366660594940185546875">
        <ele>150.8000030517578125</ele>
        <time>2022-01-07T12:54:48.000Z</time>
      </trkpt>
      <trkpt lat="41.488250792026519775390625" lon="2.0993621461093425750732421875">
        <ele>150.8000030517578125</ele>
        <time>2022-01-07T12:54:49.000Z</time>
      </trkpt>
      <trkpt lat="41.4882680587470531463623046875" lon="2.09939659573137760162353515625">
        <ele>150.8000030517578125</ele>
        <time>2022-01-07T12:54:50.000Z</time>
      </trkpt>
      <trkpt lat="41.488280631601810455322265625" lon="2.09942677058279514312744140625">
        <ele>150.8000030517578125</ele>
        <time>2022-01-07T12:54:51.000Z</time>
      </trkpt>
      <trkpt lat="41.4882950484752655029296875" lon="2.09945728071033954620361328125">
        <ele>151</ele>
        <time>2022-01-07T12:54:52.000Z</time>
      </trkpt>
      <trkpt lat="41.488308124244213104248046875" lon="2.09948225878179073333740234375">
        <ele>151</ele>
        <time>2022-01-07T12:54:53.000Z</time>
      </trkpt>
      <trkpt lat="41.48832254111766815185546875" lon="2.09951025433838367462158203125">
        <ele>151.1999969482421875</ele>
        <time>2022-01-07T12:54:54.000Z</time>
      </trkpt>
      <trkpt lat="41.4883351139724254608154296875" lon="2.0995391719043254852294921875">
        <ele>151.1999969482421875</ele>
        <time>2022-01-07T12:54:55.000Z</time>
      </trkpt>
      <trkpt lat="41.4883475191891193389892578125" lon="2.09956624545156955718994140625">
        <ele>151.399993896484375</ele>
        <time>2022-01-07T12:54:56.000Z</time>
      </trkpt>
      <trkpt lat="41.4883619360625743865966796875" lon="2.0995924808084964752197265625">
        <ele>151.600006103515625</ele>
        <time>2022-01-07T12:54:57.000Z</time>
      </trkpt>
      <trkpt lat="41.48837442509829998016357421875" lon="2.09961469285190105438232421875">
        <ele>151.8000030517578125</ele>
        <time>2022-01-07T12:54:58.000Z</time>
      </trkpt>
      <trkpt lat="41.488389261066913604736328125" lon="2.099646292626857757568359375">
        <ele>151.8000030517578125</ele>
        <time>2022-01-07T12:54:59.000Z</time>
      </trkpt>
      <trkpt lat="41.488399319350719451904296875" lon="2.09967303089797496795654296875">
        <ele>151.8000030517578125</ele>
        <time>2022-01-07T12:55:00.000Z</time>
      </trkpt>
      <trkpt lat="41.48840895853936672210693359375" lon="2.09970094263553619384765625">
        <ele>152</ele>
        <time>2022-01-07T12:55:01.000Z</time>
      </trkpt>
      <trkpt lat="41.48842169903218746185302734375" lon="2.09973103366792201995849609375">
        <ele>152.1999969482421875</ele>
        <time>2022-01-07T12:55:02.000Z</time>
      </trkpt>
      <trkpt lat="41.48843309842050075531005859375" lon="2.0997550897300243377685546875">
        <ele>152.399993896484375</ele>
        <time>2022-01-07T12:55:03.000Z</time>
      </trkpt>
      <trkpt lat="41.48844994604587554931640625" lon="2.09978367201983928680419921875">
        <ele>152.600006103515625</ele>
        <time>2022-01-07T12:55:04.000Z</time>
      </trkpt>
      <trkpt lat="41.48846830241382122039794921875" lon="2.0998194627463817596435546875">
        <ele>152.8000030517578125</ele>
        <time>2022-01-07T12:55:05.000Z</time>
      </trkpt>
      <trkpt lat="41.4884826354682445526123046875" lon="2.09985039196908473968505859375">
        <ele>153</ele>
        <time>2022-01-07T12:55:06.000Z</time>
      </trkpt>
      <trkpt lat="41.48849294520914554595947265625" lon="2.09987587295472621917724609375">
        <ele>153.1999969482421875</ele>
        <time>2022-01-07T12:55:07.000Z</time>
      </trkpt>
      <trkpt lat="41.488506607711315155029296875" lon="2.09990873001515865325927734375">
        <ele>153.600006103515625</ele>
        <time>2022-01-07T12:55:08.000Z</time>
      </trkpt>
      <trkpt lat="41.48852580226957798004150390625" lon="2.099946029484272003173828125">
        <ele>153.8000030517578125</ele>
        <time>2022-01-07T12:55:09.000Z</time>
      </trkpt>
      <trkpt lat="41.48854407481849193572998046875" lon="2.09997310303151607513427734375">
        <ele>154</ele>
        <time>2022-01-07T12:55:10.000Z</time>
      </trkpt>
      <trkpt lat="41.4885607548058032989501953125" lon="2.100000679492950439453125">
        <ele>154.399993896484375</ele>
        <time>2022-01-07T12:55:11.000Z</time>
      </trkpt>
      <trkpt lat="41.48857542313635349273681640625" lon="2.10003345273435115814208984375">
        <ele>154.600006103515625</ele>
        <time>2022-01-07T12:55:12.000Z</time>
      </trkpt>
      <trkpt lat="41.4885872416198253631591796875" lon="2.10006169974803924560546875">
        <ele>154.8000030517578125</ele>
        <time>2022-01-07T12:55:13.000Z</time>
      </trkpt>
      <trkpt lat="41.48860911838710308074951171875" lon="2.1001057885587215423583984375">
        <ele>155</ele>
        <time>2022-01-07T12:55:14.000Z</time>
      </trkpt>
      <trkpt lat="41.4886303246021270751953125" lon="2.10014426149427890777587890625">
        <ele>155.1999969482421875</ele>
        <time>2022-01-07T12:55:15.000Z</time>
      </trkpt>
      <trkpt lat="41.48865303955972194671630859375" lon="2.1001862548291683197021484375">
        <ele>155.399993896484375</ele>
        <time>2022-01-07T12:55:16.000Z</time>
      </trkpt>
      <trkpt lat="41.48866963572800159454345703125" lon="2.10022388957440853118896484375">
        <ele>155.600006103515625</ele>
        <time>2022-01-07T12:55:17.000Z</time>
      </trkpt>
      <trkpt lat="41.4886921830475330352783203125" lon="2.10027988068759441375732421875">
        <ele>155.8000030517578125</ele>
        <time>2022-01-07T12:55:18.000Z</time>
      </trkpt>
      <trkpt lat="41.48870944976806640625" lon="2.1003200300037860870361328125">
        <ele>156</ele>
        <time>2022-01-07T12:55:19.000Z</time>
      </trkpt>
      <trkpt lat="41.48872755467891693115234375" lon="2.10035749711096286773681640625">
        <ele>156.1999969482421875</ele>
        <time>2022-01-07T12:55:20.000Z</time>
      </trkpt>
      <trkpt lat="41.48874540813267230987548828125" lon="2.100395299494266510009765625">
        <ele>156.600006103515625</ele>
        <time>2022-01-07T12:55:21.000Z</time>
      </trkpt>
      <trkpt lat="41.48876351304352283477783203125" lon="2.10043343715369701385498046875">
        <ele>156.600006103515625</ele>
        <time>2022-01-07T12:55:22.000Z</time>
      </trkpt>
      <trkpt lat="41.4887803606688976287841796875" lon="2.10047182627022266387939453125">
        <ele>156.8000030517578125</ele>
        <time>2022-01-07T12:55:23.000Z</time>
      </trkpt>
      <trkpt lat="41.488797962665557861328125" lon="2.1005101315677165985107421875">
        <ele>157</ele>
        <time>2022-01-07T12:55:24.000Z</time>
      </trkpt>
      <trkpt lat="41.4888158999383449554443359375" lon="2.1005493588745594024658203125">
        <ele>157.1999969482421875</ele>
        <time>2022-01-07T12:55:25.000Z</time>
      </trkpt>
      <trkpt lat="41.48883375339210033416748046875" lon="2.10058967582881450653076171875">
        <ele>157.1999969482421875</ele>
        <time>2022-01-07T12:55:26.000Z</time>
      </trkpt>
      <trkpt lat="41.48884951137006282806396484375" lon="2.10062940604984760284423828125">
        <ele>157.1999969482421875</ele>
        <time>2022-01-07T12:55:27.000Z</time>
      </trkpt>
      <trkpt lat="41.488859988749027252197265625" lon="2.10066176019608974456787109375">
        <ele>157.1999969482421875</ele>
        <time>2022-01-07T12:55:28.000Z</time>
      </trkpt>
      <trkpt lat="41.48887834511697292327880859375" lon="2.100703753530979156494140625">
        <ele>157.1999969482421875</ele>
        <time>2022-01-07T12:55:29.000Z</time>
      </trkpt>
      <trkpt lat="41.488891504704952239990234375" lon="2.1007337607443332672119140625">
        <ele>157.1999969482421875</ele>
        <time>2022-01-07T12:55:30.000Z</time>
      </trkpt>
      <trkpt lat="41.488899551331996917724609375" lon="2.1007557213306427001953125">
        <ele>157.399993896484375</ele>
        <time>2022-01-07T12:55:31.000Z</time>
      </trkpt>
      <trkpt lat="41.4889151416718959808349609375" lon="2.10078782401978969573974609375">
        <ele>157.399993896484375</ele>
        <time>2022-01-07T12:55:32.000Z</time>
      </trkpt>
      <trkpt lat="41.4889302290976047515869140625" lon="2.10081615485250949859619140625">
        <ele>157.399993896484375</ele>
        <time>2022-01-07T12:55:33.000Z</time>
      </trkpt>
      <trkpt lat="41.4889443106949329376220703125" lon="2.1008410491049289703369140625">
        <ele>157.399993896484375</ele>
        <time>2022-01-07T12:55:34.000Z</time>
      </trkpt>
      <trkpt lat="41.488949842751026153564453125" lon="2.10085622034966945648193359375">
        <ele>157.399993896484375</ele>
        <time>2022-01-07T12:55:35.000Z</time>
      </trkpt>
      <trkpt lat="41.4889516867697238922119140625" lon="2.10086409933865070343017578125">
        <ele>157.399993896484375</ele>
        <time>2022-01-07T12:55:36.000Z</time>
      </trkpt>
      <trkpt lat="41.4889516867697238922119140625" lon="2.10086409933865070343017578125">
        <ele>157.600006103515625</ele>
        <time>2022-01-07T12:55:37.000Z</time>
      </trkpt>
      <trkpt lat="41.4889516867697238922119140625" lon="2.10086409933865070343017578125">
        <ele>157.600006103515625</ele>
        <time>2022-01-07T12:55:38.000Z</time>
      </trkpt>
      <trkpt lat="41.488965936005115509033203125" lon="2.10136181674897670745849609375">
        <ele>157.8000030517578125</ele>
        <time>2022-01-07T13:00:32.000Z</time>
      </trkpt>
      <trkpt lat="41.48895596154034137725830078125" lon="2.101373970508575439453125">
        <ele>157.8000030517578125</ele>
        <time>2022-01-07T13:00:33.000Z</time>
      </trkpt>
      <trkpt lat="41.4889443106949329376220703125" lon="2.10138536989688873291015625">
        <ele>157.8000030517578125</ele>
        <time>2022-01-07T13:00:34.000Z</time>
      </trkpt>
      <trkpt lat="41.48893517442047595977783203125" lon="2.10140003822743892669677734375">
        <ele>157.8000030517578125</ele>
        <time>2022-01-07T13:00:35.000Z</time>
      </trkpt>
      <trkpt lat="41.48892427794635295867919921875" lon="2.10141495801508426666259765625">
        <ele>157.600006103515625</ele>
        <time>2022-01-07T13:00:36.000Z</time>
      </trkpt>
      <trkpt lat="41.48891287855803966522216796875" lon="2.101429291069507598876953125">
        <ele>157.600006103515625</ele>
        <time>2022-01-07T13:00:37.000Z</time>
      </trkpt>
      <trkpt lat="41.4889024011790752410888671875" lon="2.10144496522843837738037109375">
        <ele>157.600006103515625</ele>
        <time>2022-01-07T13:00:38.000Z</time>
      </trkpt>
      <trkpt lat="41.48889108560979366302490234375" lon="2.10146156139671802520751953125">
        <ele>157.399993896484375</ele>
        <time>2022-01-07T13:00:39.000Z</time>
      </trkpt>
      <trkpt lat="41.488882116973400115966796875" lon="2.10147514007985591888427734375">
        <ele>157.399993896484375</ele>
        <time>2022-01-07T13:00:40.000Z</time>
      </trkpt>
      <trkpt lat="41.48887348361313343048095703125" lon="2.1014881320297718048095703125">
        <ele>157.399993896484375</ele>
        <time>2022-01-07T13:00:41.000Z</time>
      </trkpt>
      <trkpt lat="41.48886610753834247589111328125" lon="2.10150179453194141387939453125">
        <ele>157.1999969482421875</ele>
        <time>2022-01-07T13:00:42.000Z</time>
      </trkpt>
      <trkpt lat="41.48886107839643955230712890625" lon="2.101516462862491607666015625">
        <ele>157</ele>
        <time>2022-01-07T13:00:43.000Z</time>
      </trkpt>
      <trkpt lat="41.488855294883251190185546875" lon="2.1015300415456295013427734375">
        <ele>157</ele>
        <time>2022-01-07T13:00:44.000Z</time>
      </trkpt>
      <trkpt lat="41.48885135538876056671142578125" lon="2.10154253058135509490966796875">
        <ele>156.8000030517578125</ele>
        <time>2022-01-07T13:00:45.000Z</time>
      </trkpt>
      <trkpt lat="41.48884515278041362762451171875" lon="2.1015548519790172576904296875">
        <ele>156.8000030517578125</ele>
        <time>2022-01-07T13:00:46.000Z</time>
      </trkpt>
      <trkpt lat="41.4888376928865909576416015625" lon="2.10156532935798168182373046875">
        <ele>156.600006103515625</ele>
        <time>2022-01-07T13:00:47.000Z</time>
      </trkpt>
      <trkpt lat="41.48883023299276828765869140625" lon="2.1015763096511363983154296875">
        <ele>156.399993896484375</ele>
        <time>2022-01-07T13:00:48.000Z</time>
      </trkpt>
      <trkpt lat="41.48882285691797733306884765625" lon="2.10158946923911571502685546875">
        <ele>156.399993896484375</ele>
        <time>2022-01-07T13:00:49.000Z</time>
      </trkpt>
      <trkpt lat="41.4888165704905986785888671875" lon="2.1016011200845241546630859375">
        <ele>156.399993896484375</ele>
        <time>2022-01-07T13:00:50.000Z</time>
      </trkpt>
      <trkpt lat="41.4888108707964420318603515625" lon="2.10161327384412288665771484375">
        <ele>156.1999969482421875</ele>
        <time>2022-01-07T13:00:51.000Z</time>
      </trkpt>
      <trkpt lat="41.48880475200712680816650390625" lon="2.101624421775341033935546875">
        <ele>156.1999969482421875</ele>
        <time>2022-01-07T13:00:52.000Z</time>
      </trkpt>
      <trkpt lat="41.48879905231297016143798828125" lon="2.10163741372525691986083984375">
        <ele>156.1999969482421875</ele>
        <time>2022-01-07T13:00:53.000Z</time>
      </trkpt>
      <trkpt lat="41.48879100568592548370361328125" lon="2.10164931602776050567626953125">
        <ele>156</ele>
        <time>2022-01-07T13:00:54.000Z</time>
      </trkpt>
      <trkpt lat="41.48878262378275394439697265625" lon="2.10166029632091522216796875">
        <ele>155.8000030517578125</ele>
        <time>2022-01-07T13:00:55.000Z</time>
      </trkpt>
      <trkpt lat="41.488776169717311859130859375" lon="2.1016725338995456695556640625">
        <ele>155.8000030517578125</ele>
        <time>2022-01-07T13:00:56.000Z</time>
      </trkpt>
      <trkpt lat="41.48876904509961605072021484375" lon="2.10168250836431980133056640625">
        <ele>155.8000030517578125</ele>
        <time>2022-01-07T13:00:57.000Z</time>
      </trkpt>
      <trkpt lat="41.48876116611063480377197265625" lon="2.10169239901006221771240234375">
        <ele>155.600006103515625</ele>
        <time>2022-01-07T13:00:58.000Z</time>
      </trkpt>
      <trkpt lat="41.4887518621981143951416015625" lon="2.1017013676464557647705078125">
        <ele>155.600006103515625</ele>
        <time>2022-01-07T13:00:59.000Z</time>
      </trkpt>
      <trkpt lat="41.48874222300946712493896484375" lon="2.10170924663543701171875">
        <ele>155.399993896484375</ele>
        <time>2022-01-07T13:01:00.000Z</time>
      </trkpt>
      <trkpt lat="41.48873417638242244720458984375" lon="2.1017184667289257049560546875">
        <ele>155.399993896484375</ele>
        <time>2022-01-07T13:01:01.000Z</time>
      </trkpt>
      <trkpt lat="41.48872545920312404632568359375" lon="2.10172869265079498291015625">
        <ele>155.399993896484375</ele>
        <time>2022-01-07T13:01:02.000Z</time>
      </trkpt>
      <trkpt lat="41.4887169934809207916259765625" lon="2.10173900239169597625732421875">
        <ele>155.399993896484375</ele>
        <time>2022-01-07T13:01:03.000Z</time>
      </trkpt>
      <trkpt lat="41.48871003650128841400146484375" lon="2.101749479770660400390625">
        <ele>155.399993896484375</ele>
        <time>2022-01-07T13:01:04.000Z</time>
      </trkpt>
      <trkpt lat="41.488704420626163482666015625" lon="2.1017600409686565399169921875">
        <ele>155.1999969482421875</ele>
        <time>2022-01-07T13:01:05.000Z</time>
      </trkpt>
      <trkpt lat="41.48869670927524566650390625" lon="2.1017714403569698333740234375">
        <ele>155.1999969482421875</ele>
        <time>2022-01-07T13:01:06.000Z</time>
      </trkpt>
      <trkpt lat="41.488688327372074127197265625" lon="2.10178376175463199615478515625">
        <ele>155.1999969482421875</ele>
        <time>2022-01-07T13:01:07.000Z</time>
      </trkpt>
      <trkpt lat="41.4886812865734100341796875" lon="2.1017942391335964202880859375">
        <ele>155.1999969482421875</ele>
        <time>2022-01-07T13:01:08.000Z</time>
      </trkpt>
      <trkpt lat="41.4886737428605556488037109375" lon="2.10180371068418025970458984375">
        <ele>155.1999969482421875</ele>
        <time>2022-01-07T13:01:09.000Z</time>
      </trkpt>
      <trkpt lat="41.4886663667857646942138671875" lon="2.10181360132992267608642578125">
        <ele>155</ele>
        <time>2022-01-07T13:01:10.000Z</time>
      </trkpt>
      <trkpt lat="41.48866125382483005523681640625" lon="2.1018220670521259307861328125">
        <ele>154.8000030517578125</ele>
        <time>2022-01-07T13:01:11.000Z</time>
      </trkpt>
      <trkpt lat="41.48865840397775173187255859375" lon="2.101826258003711700439453125">
        <ele>154.8000030517578125</ele>
        <time>2022-01-07T13:01:12.000Z</time>
      </trkpt>
      <trkpt lat="41.48865840397775173187255859375" lon="2.101826258003711700439453125">
        <ele>154.8000030517578125</ele>
        <time>2022-01-07T13:01:13.000Z</time>
      </trkpt>
      <trkpt lat="41.48865840397775173187255859375" lon="2.101826258003711700439453125">
        <ele>154.600006103515625</ele>
        <time>2022-01-07T13:01:14.000Z</time>
      </trkpt>
      <trkpt lat="41.4886154048144817352294921875" lon="2.1018773876130580902099609375">
        <ele>154.1999969482421875</ele>
        <time>2022-01-07T13:01:22.000Z</time>
      </trkpt>
      <trkpt lat="41.48859470151364803314208984375" lon="2.10190412588417530059814453125">
        <ele>154.1999969482421875</ele>
        <time>2022-01-07T13:01:23.000Z</time>
      </trkpt>
      <trkpt lat="41.4885718189179897308349609375" lon="2.10193656384944915771484375">
        <ele>154.1999969482421875</ele>
        <time>2022-01-07T13:01:24.000Z</time>
      </trkpt>
      <trkpt lat="41.48854692466557025909423828125" lon="2.1019739471375942230224609375">
        <ele>154.1999969482421875</ele>
        <time>2022-01-07T13:01:25.000Z</time>
      </trkpt>
      <trkpt lat="41.488524712622165679931640625" lon="2.1020151861011981964111328125">
        <ele>154.1999969482421875</ele>
        <time>2022-01-07T13:01:26.000Z</time>
      </trkpt>
      <trkpt lat="41.4885017462074756622314453125" lon="2.10205784998834133148193359375">
        <ele>154.1999969482421875</ele>
        <time>2022-01-07T13:01:27.000Z</time>
      </trkpt>
      <trkpt lat="41.48847685195505619049072265625" lon="2.10209942422807216644287109375">
        <ele>154.1999969482421875</ele>
        <time>2022-01-07T13:01:28.000Z</time>
      </trkpt>
      <trkpt lat="41.488448269665241241455078125" lon="2.10213814862072467803955078125">
        <ele>154</ele>
        <time>2022-01-07T13:01:29.000Z</time>
      </trkpt>
      <trkpt lat="41.4884185977280139923095703125" lon="2.10217905230820178985595703125">
        <ele>154</ele>
        <time>2022-01-07T13:01:30.000Z</time>
      </trkpt>
      <trkpt lat="41.4883900992572307586669921875" lon="2.10222213529050350189208984375">
        <ele>154</ele>
        <time>2022-01-07T13:01:31.000Z</time>
      </trkpt>
      <trkpt lat="41.48836612701416015625" lon="2.1022683195769786834716796875">
        <ele>153.8000030517578125</ele>
        <time>2022-01-07T13:01:32.000Z</time>
      </trkpt>
      <trkpt lat="41.48834056220948696136474609375" lon="2.102311737835407257080078125">
        <ele>153.600006103515625</ele>
        <time>2022-01-07T13:01:33.000Z</time>
      </trkpt>
      <trkpt lat="41.48831558413803577423095703125" lon="2.102350629866123199462890625">
        <ele>153.1999969482421875</ele>
        <time>2022-01-07T13:01:34.000Z</time>
      </trkpt>
      <trkpt lat="41.48829177953302860260009765625" lon="2.10239446721971035003662109375">
        <ele>153</ele>
        <time>2022-01-07T13:01:35.000Z</time>
      </trkpt>
      <trkpt lat="41.48826797492802143096923828125" lon="2.10244224406778812408447265625">
        <ele>152.8000030517578125</ele>
        <time>2022-01-07T13:01:36.000Z</time>
      </trkpt>
      <trkpt lat="41.4882452599704265594482421875" lon="2.10249152965843677520751953125">
        <ele>152.399993896484375</ele>
        <time>2022-01-07T13:01:37.000Z</time>
      </trkpt>
      <trkpt lat="41.488225646317005157470703125" lon="2.10254098288714885711669921875">
        <ele>152</ele>
        <time>2022-01-07T13:01:38.000Z</time>
      </trkpt>
      <trkpt lat="41.48820494301617145538330078125" lon="2.10258825682103633880615234375">
        <ele>151.8000030517578125</ele>
        <time>2022-01-07T13:01:39.000Z</time>
      </trkpt>
      <trkpt lat="41.488180048763751983642578125" lon="2.1026334352791309356689453125">
        <ele>151.600006103515625</ele>
        <time>2022-01-07T13:01:40.000Z</time>
      </trkpt>
      <trkpt lat="41.48815364576876163482666015625" lon="2.10267442278563976287841796875">
        <ele>151.600006103515625</ele>
        <time>2022-01-07T13:01:41.000Z</time>
      </trkpt>
      <trkpt lat="41.48812648840248584747314453125" lon="2.102717421948909759521484375">
        <ele>151.600006103515625</ele>
        <time>2022-01-07T13:01:42.000Z</time>
      </trkpt>
      <trkpt lat="41.4880992472171783447265625" lon="2.10275908000767230987548828125">
        <ele>151.399993896484375</ele>
        <time>2022-01-07T13:01:43.000Z</time>
      </trkpt>
      <trkpt lat="41.4880719222128391265869140625" lon="2.102800905704498291015625">
        <ele>151.399993896484375</ele>
        <time>2022-01-07T13:01:44.000Z</time>
      </trkpt>
      <trkpt lat="41.488048620522022247314453125" lon="2.10284558124840259552001953125">
        <ele>151.1999969482421875</ele>
        <time>2022-01-07T13:01:45.000Z</time>
      </trkpt>
      <trkpt lat="41.48802615702152252197265625" lon="2.10289277136325836181640625">
        <ele>151.1999969482421875</ele>
        <time>2022-01-07T13:01:46.000Z</time>
      </trkpt>
      <trkpt lat="41.48800780065357685089111328125" lon="2.1029428951442241668701171875">
        <ele>151</ele>
        <time>2022-01-07T13:01:47.000Z</time>
      </trkpt>
      <trkpt lat="41.4879981614649295806884765625" lon="2.1029931865632534027099609375">
        <ele>150.8000030517578125</ele>
        <time>2022-01-07T13:01:48.000Z</time>
      </trkpt>
      <trkpt lat="41.4879988320171833038330078125" lon="2.1030384488403797149658203125">
        <ele>150.600006103515625</ele>
        <time>2022-01-07T13:01:49.000Z</time>
      </trkpt>
      <trkpt lat="41.488005705177783966064453125" lon="2.1030763350427150726318359375">
        <ele>150.399993896484375</ele>
        <time>2022-01-07T13:01:50.000Z</time>
      </trkpt>
      <trkpt lat="41.48801802657544612884521484375" lon="2.10310743190348148345947265625">
        <ele>150.1999969482421875</ele>
        <time>2022-01-07T13:01:51.000Z</time>
      </trkpt>
      <trkpt lat="41.4880333654582500457763671875" lon="2.1031266264617443084716796875">
        <ele>150.1999969482421875</ele>
        <time>2022-01-07T13:01:52.000Z</time>
      </trkpt>
      <trkpt lat="41.488041244447231292724609375" lon="2.10313257761299610137939453125">
        <ele>150</ele>
        <time>2022-01-07T13:01:53.000Z</time>
      </trkpt>
      <trkpt lat="41.488041244447231292724609375" lon="2.10313257761299610137939453125">
        <ele>149.8000030517578125</ele>
        <time>2022-01-07T13:01:54.000Z</time>
      </trkpt>
      <trkpt lat="41.48804350756108760833740234375" lon="2.10313157178461551666259765625">
        <ele>149.8000030517578125</ele>
        <time>2022-01-07T13:01:55.000Z</time>
      </trkpt>
      <trkpt lat="41.48810821585357189178466796875" lon="2.10315554402768611907958984375">
        <ele>149.600006103515625</ele>
        <time>2022-01-07T13:01:59.000Z</time>
      </trkpt>
      <trkpt lat="41.4881329424679279327392578125" lon="2.10316945798695087432861328125">
        <ele>149.600006103515625</ele>
        <time>2022-01-07T13:02:00.000Z</time>
      </trkpt>
      <trkpt lat="41.4881609380245208740234375" lon="2.1031829528510570526123046875">
        <ele>149.600006103515625</ele>
        <time>2022-01-07T13:02:01.000Z</time>
      </trkpt>
      <trkpt lat="41.488190107047557830810546875" lon="2.103195525705814361572265625">
        <ele>149.600006103515625</ele>
        <time>2022-01-07T13:02:02.000Z</time>
      </trkpt>
      <trkpt lat="41.488218270242214202880859375" lon="2.10320650599896907806396484375">
        <ele>149.600006103515625</ele>
        <time>2022-01-07T13:02:03.000Z</time>
      </trkpt>
      <trkpt lat="41.48824735544621944427490234375" lon="2.103218324482440948486328125">
        <ele>149.600006103515625</ele>
        <time>2022-01-07T13:02:04.000Z</time>
      </trkpt>
      <trkpt lat="41.48827250115573406219482421875" lon="2.1032340824604034423828125">
        <ele>149.600006103515625</ele>
        <time>2022-01-07T13:02:05.000Z</time>
      </trkpt>
      <trkpt lat="41.48829630576074123382568359375" lon="2.10325377993285655975341796875">
        <ele>149.600006103515625</ele>
        <time>2022-01-07T13:02:06.000Z</time>
      </trkpt>
      <trkpt lat="41.48832044564187526702880859375" lon="2.10327724926173686981201171875">
        <ele>149.600006103515625</ele>
        <time>2022-01-07T13:02:07.000Z</time>
      </trkpt>
      <trkpt lat="41.488351039588451385498046875" lon="2.103295437991619110107421875">
        <ele>149.8000030517578125</ele>
        <time>2022-01-07T13:02:08.000Z</time>
      </trkpt>
      <trkpt lat="41.48838347755372524261474609375" lon="2.10331463254988193511962890625">
        <ele>149.8000030517578125</ele>
        <time>2022-01-07T13:02:09.000Z</time>
      </trkpt>
      <trkpt lat="41.48841449059545993804931640625" lon="2.10333256982266902923583984375">
        <ele>150</ele>
        <time>2022-01-07T13:02:10.000Z</time>
      </trkpt>
      <trkpt lat="41.4884450845420360565185546875" lon="2.10335251875221729278564453125">
        <ele>150.1999969482421875</ele>
        <time>2022-01-07T13:02:11.000Z</time>
      </trkpt>
      <trkpt lat="41.488473750650882720947265625" lon="2.1033740602433681488037109375">
        <ele>150.1999969482421875</ele>
        <time>2022-01-07T13:02:12.000Z</time>
      </trkpt>
      <trkpt lat="41.488505266606807708740234375" lon="2.10339694283902645111083984375">
        <ele>150.399993896484375</ele>
        <time>2022-01-07T13:02:13.000Z</time>
      </trkpt>
      <trkpt lat="41.4885396324098110198974609375" lon="2.1034203283488750457763671875">
        <ele>150.600006103515625</ele>
        <time>2022-01-07T13:02:14.000Z</time>
      </trkpt>
      <trkpt lat="41.48857307620346546173095703125" lon="2.1034411154687404632568359375">
        <ele>150.600006103515625</ele>
        <time>2022-01-07T13:02:15.000Z</time>
      </trkpt>
      <trkpt lat="41.48860475979745388031005859375" lon="2.10346198640763759613037109375">
        <ele>150.8000030517578125</ele>
        <time>2022-01-07T13:02:16.000Z</time>
      </trkpt>
      <trkpt lat="41.48863543756306171417236328125" lon="2.10348243825137615203857421875">
        <ele>150.8000030517578125</ele>
        <time>2022-01-07T13:02:17.000Z</time>
      </trkpt>
      <trkpt lat="41.488660834729671478271484375" lon="2.1034996211528778076171875">
        <ele>151</ele>
        <time>2022-01-07T13:02:18.000Z</time>
      </trkpt>
      <trkpt lat="41.48868153803050518035888671875" lon="2.1035178937017917633056640625">
        <ele>151.1999969482421875</ele>
        <time>2022-01-07T13:02:19.000Z</time>
      </trkpt>
      <trkpt lat="41.48869402706623077392578125" lon="2.1035390160977840423583984375">
        <ele>151.1999969482421875</ele>
        <time>2022-01-07T13:02:20.000Z</time>
      </trkpt>
      <trkpt lat="41.4886987209320068359375" lon="2.10354932583868503570556640625">
        <ele>151.399993896484375</ele>
        <time>2022-01-07T13:02:21.000Z</time>
      </trkpt>
      <trkpt lat="41.4886987209320068359375" lon="2.10354932583868503570556640625">
        <ele>151.600006103515625</ele>
        <time>2022-01-07T13:02:22.000Z</time>
      </trkpt>
      <trkpt lat="41.4886987209320068359375" lon="2.10354932583868503570556640625">
        <ele>151.8000030517578125</ele>
        <time>2022-01-07T13:02:23.000Z</time>
      </trkpt>
      <trkpt lat="41.4891531877219676971435546875" lon="2.1043359674513339996337890625">
        <ele>136.399993896484375</ele>
        <time>2022-01-07T13:09:39.000Z</time>
      </trkpt>
      <trkpt lat="41.48916534148156642913818359375" lon="2.104286849498748779296875">
        <ele>130.600006103515625</ele>
        <time>2022-01-07T13:09:40.000Z</time>
      </trkpt>
      <trkpt lat="41.4891169779002666473388671875" lon="2.104350216686725616455078125">
        <ele>130.600006103515625</ele>
        <time>2022-01-07T13:10:11.000Z</time>
      </trkpt>
      <trkpt lat="41.48910147137939929962158203125" lon="2.1043785475194454193115234375">
        <ele>130.600006103515625</ele>
        <time>2022-01-07T13:10:12.000Z</time>
      </trkpt>
      <trkpt lat="41.48908697068691253662109375" lon="2.104410566389560699462890625">
        <ele>130.600006103515625</ele>
        <time>2022-01-07T13:10:13.000Z</time>
      </trkpt>
      <trkpt lat="41.4890728890895843505859375" lon="2.10444585420191287994384765625">
        <ele>130.600006103515625</ele>
        <time>2022-01-07T13:10:14.000Z</time>
      </trkpt>
      <trkpt lat="41.4890566281974315643310546875" lon="2.104482315480709075927734375">
        <ele>130.600006103515625</ele>
        <time>2022-01-07T13:10:15.000Z</time>
      </trkpt>
      <trkpt lat="41.4890405349433422088623046875" lon="2.10451793856918811798095703125">
        <ele>130.399993896484375</ele>
        <time>2022-01-07T13:10:16.000Z</time>
      </trkpt>
      <trkpt lat="41.48902636952698230743408203125" lon="2.104555070400238037109375">
        <ele>130.399993896484375</ele>
        <time>2022-01-07T13:10:17.000Z</time>
      </trkpt>
      <trkpt lat="41.4890184067189693450927734375" lon="2.10459404624998569488525390625">
        <ele>130.399993896484375</ele>
        <time>2022-01-07T13:10:18.000Z</time>
      </trkpt>
      <trkpt lat="41.48901111446321010589599609375" lon="2.1046320162713527679443359375">
        <ele>130.1999969482421875</ele>
        <time>2022-01-07T13:10:19.000Z</time>
      </trkpt>
      <trkpt lat="41.48900474421679973602294921875" lon="2.1046705730259418487548828125">
        <ele>130.1999969482421875</ele>
        <time>2022-01-07T13:10:20.000Z</time>
      </trkpt>
      <trkpt lat="41.4889942668378353118896484375" lon="2.1047092974185943603515625">
        <ele>130</ele>
        <time>2022-01-07T13:10:21.000Z</time>
      </trkpt>
      <trkpt lat="41.488986052572727203369140625" lon="2.1047507040202617645263671875">
        <ele>129.8000030517578125</ele>
        <time>2022-01-07T13:10:22.000Z</time>
      </trkpt>
      <trkpt lat="41.48898730985820293426513671875" lon="2.1047937870025634765625">
        <ele>129.600006103515625</ele>
        <time>2022-01-07T13:10:23.000Z</time>
      </trkpt>
      <trkpt lat="41.48899175226688385009765625" lon="2.10484273731708526611328125">
        <ele>129.399993896484375</ele>
        <time>2022-01-07T13:10:24.000Z</time>
      </trkpt>
      <trkpt lat="41.4889895729720592498779296875" lon="2.1048908494412899017333984375">
        <ele>129.1999969482421875</ele>
        <time>2022-01-07T13:10:25.000Z</time>
      </trkpt>
      <trkpt lat="41.48898479528725147247314453125" lon="2.104934938251972198486328125">
        <ele>129</ele>
        <time>2022-01-07T13:10:26.000Z</time>
      </trkpt>
      <trkpt lat="41.4889808557927608489990234375" lon="2.10497089661657810211181640625">
        <ele>129</ele>
        <time>2022-01-07T13:10:27.000Z</time>
      </trkpt>
      <trkpt lat="41.4889791794121265411376953125" lon="2.10499872453510761260986328125">
        <ele>129</ele>
        <time>2022-01-07T13:10:28.000Z</time>
      </trkpt>
      <trkpt lat="41.48898370563983917236328125" lon="2.1050192601978778839111328125">
        <ele>128.8000030517578125</ele>
        <time>2022-01-07T13:10:29.000Z</time>
      </trkpt>
      <trkpt lat="41.4889862202107906341552734375" lon="2.1050350181758403778076171875">
        <ele>128.8000030517578125</ele>
        <time>2022-01-07T13:10:30.000Z</time>
      </trkpt>
      <trkpt lat="41.48898613639175891876220703125" lon="2.10505354218184947967529296875">
        <ele>128.399993896484375</ele>
        <time>2022-01-07T13:10:31.000Z</time>
      </trkpt>
      <trkpt lat="41.48898395709693431854248046875" lon="2.10507717914879322052001953125">
        <ele>128.399993896484375</ele>
        <time>2022-01-07T13:10:32.000Z</time>
      </trkpt>
      <trkpt lat="41.4889855496585369110107421875" lon="2.10510936565697193145751953125">
        <ele>128.1999969482421875</ele>
        <time>2022-01-07T13:10:33.000Z</time>
      </trkpt>
      <trkpt lat="41.4889924228191375732421875" lon="2.10514104925096035003662109375">
        <ele>128</ele>
        <time>2022-01-07T13:10:34.000Z</time>
      </trkpt>
      <trkpt lat="41.489003486931324005126953125" lon="2.105175666511058807373046875">
        <ele>127.8000030517578125</ele>
        <time>2022-01-07T13:10:35.000Z</time>
      </trkpt>
      <trkpt lat="41.48901429958641529083251953125" lon="2.1052127145230770111083984375">
        <ele>127.59999847412109375</ele>
        <time>2022-01-07T13:10:36.000Z</time>
      </trkpt>
      <trkpt lat="41.48902670480310916900634765625" lon="2.105251438915729522705078125">
        <ele>127.40000152587890625</ele>
        <time>2022-01-07T13:10:37.000Z</time>
      </trkpt>
      <trkpt lat="41.4890442229807376861572265625" lon="2.10528605617582798004150390625">
        <ele>127.1999969482421875</ele>
        <time>2022-01-07T13:10:38.000Z</time>
      </trkpt>
      <trkpt lat="41.4890653453767299652099609375" lon="2.10531287826597690582275390625">
        <ele>127.1999969482421875</ele>
        <time>2022-01-07T13:10:39.000Z</time>
      </trkpt>
      <trkpt lat="41.48909023962914943695068359375" lon="2.1053293906152248382568359375">
        <ele>127.1999969482421875</ele>
        <time>2022-01-07T13:10:40.000Z</time>
      </trkpt>
      <trkpt lat="41.48911773227155208587646484375" lon="2.1053387783467769622802734375">
        <ele>127</ele>
        <time>2022-01-07T13:10:41.000Z</time>
      </trkpt>
      <trkpt lat="41.48914321325719356536865234375" lon="2.10534590296447277069091796875">
        <ele>126.8000030517578125</ele>
        <time>2022-01-07T13:10:42.000Z</time>
      </trkpt>
      <trkpt lat="41.48916986770927906036376953125" lon="2.1053491719067096710205078125">
        <ele>126.59999847412109375</ele>
        <time>2022-01-07T13:10:43.000Z</time>
      </trkpt>
      <trkpt lat="41.489196605980396270751953125" lon="2.10534699261188507080078125">
        <ele>126.40000152587890625</ele>
        <time>2022-01-07T13:10:44.000Z</time>
      </trkpt>
      <trkpt lat="41.48922066204249858856201171875" lon="2.105338610708713531494140625">
        <ele>126.1999969482421875</ele>
        <time>2022-01-07T13:10:45.000Z</time>
      </trkpt>
      <trkpt lat="41.48924346081912517547607421875" lon="2.10532695986330509185791015625">
        <ele>126</ele>
        <time>2022-01-07T13:10:46.000Z</time>
      </trkpt>
      <trkpt lat="41.489269025623798370361328125" lon="2.10531254298985004425048828125">
        <ele>126</ele>
        <time>2022-01-07T13:10:47.000Z</time>
      </trkpt>
      <trkpt lat="41.4892943389713764190673828125" lon="2.10529527626931667327880859375">
        <ele>125.8000030517578125</ele>
        <time>2022-01-07T13:10:48.000Z</time>
      </trkpt>
      <trkpt lat="41.4893184788525104522705078125" lon="2.105273902416229248046875">
        <ele>125.8000030517578125</ele>
        <time>2022-01-07T13:10:49.000Z</time>
      </trkpt>
      <trkpt lat="41.48934756405651569366455078125" lon="2.105254121124744415283203125">
        <ele>125.8000030517578125</ele>
        <time>2022-01-07T13:10:50.000Z</time>
      </trkpt>
      <trkpt lat="41.48936952464282512664794921875" lon="2.10523031651973724365234375">
        <ele>125.8000030517578125</ele>
        <time>2022-01-07T13:10:51.000Z</time>
      </trkpt>
      <trkpt lat="41.4893976040184497833251953125" lon="2.1052083559334278106689453125">
        <ele>125.8000030517578125</ele>
        <time>2022-01-07T13:10:52.000Z</time>
      </trkpt>
      <trkpt lat="41.48942065425217151641845703125" lon="2.10518446750938892364501953125">
        <ele>125.8000030517578125</ele>
        <time>2022-01-07T13:10:53.000Z</time>
      </trkpt>
      <trkpt lat="41.48944345302879810333251953125" lon="2.10516032762825489044189453125">
        <ele>125.8000030517578125</ele>
        <time>2022-01-07T13:10:54.000Z</time>
      </trkpt>
      <trkpt lat="41.48946876637637615203857421875" lon="2.1051459945738315582275390625">
        <ele>125.8000030517578125</ele>
        <time>2022-01-07T13:10:55.000Z</time>
      </trkpt>
      <trkpt lat="41.4894966781139373779296875" lon="2.10513819940388202667236328125">
        <ele>125.8000030517578125</ele>
        <time>2022-01-07T13:10:56.000Z</time>
      </trkpt>
      <trkpt lat="41.4895253442227840423583984375" lon="2.10512529127299785614013671875">
        <ele>125.8000030517578125</ele>
        <time>2022-01-07T13:10:57.000Z</time>
      </trkpt>
      <trkpt lat="41.48955191485583782196044921875" lon="2.105102576315402984619140625">
        <ele>125.8000030517578125</ele>
        <time>2022-01-07T13:10:58.000Z</time>
      </trkpt>
      <trkpt lat="41.48957756347954273223876953125" lon="2.10507340729236602783203125">
        <ele>125.8000030517578125</ele>
        <time>2022-01-07T13:10:59.000Z</time>
      </trkpt>
      <trkpt lat="41.48960036225616931915283203125" lon="2.10504482500255107879638671875">
        <ele>125.8000030517578125</ele>
        <time>2022-01-07T13:11:00.000Z</time>
      </trkpt>
      <trkpt lat="41.4896227419376373291015625" lon="2.105019092559814453125">
        <ele>125.8000030517578125</ele>
        <time>2022-01-07T13:11:01.000Z</time>
      </trkpt>
      <trkpt lat="41.48964545689523220062255859375" lon="2.1049964614212512969970703125">
        <ele>126</ele>
        <time>2022-01-07T13:11:02.000Z</time>
      </trkpt>
      <trkpt lat="41.48966968059539794921875" lon="2.10497877560555934906005859375">
        <ele>126</ele>
        <time>2022-01-07T13:11:03.000Z</time>
      </trkpt>
      <trkpt lat="41.48969775997102260589599609375" lon="2.1049646101891994476318359375">
        <ele>126</ele>
        <time>2022-01-07T13:11:04.000Z</time>
      </trkpt>
      <trkpt lat="41.489726342260837554931640625" lon="2.10495312698185443878173828125">
        <ele>126</ele>
        <time>2022-01-07T13:11:05.000Z</time>
      </trkpt>
      <trkpt lat="41.489726342260837554931640625" lon="2.10495312698185443878173828125">
        <ele>126</ele>
        <time>2022-01-07T13:11:06.000Z</time>
      </trkpt>
      <trkpt lat="41.48977604694664478302001953125" lon="2.1049156598746776580810546875">
        <ele>126.1999969482421875</ele>
        <time>2022-01-07T13:11:07.000Z</time>
      </trkpt>
      <trkpt lat="41.4897985942661762237548828125" lon="2.1048908494412899017333984375">
        <ele>126.1999969482421875</ele>
        <time>2022-01-07T13:11:08.000Z</time>
      </trkpt>
      <trkpt lat="41.4897985942661762237548828125" lon="2.1048908494412899017333984375">
        <ele>126.1999969482421875</ele>
        <time>2022-01-07T13:11:09.000Z</time>
      </trkpt>
      <trkpt lat="41.4898384921252727508544921875" lon="2.1048392169177532196044921875">
        <ele>126.1999969482421875</ele>
        <time>2022-01-07T13:11:10.000Z</time>
      </trkpt>
      <trkpt lat="41.4898579381406307220458984375" lon="2.10482035763561725616455078125">
        <ele>126.40000152587890625</ele>
        <time>2022-01-07T13:11:11.000Z</time>
      </trkpt>
      <trkpt lat="41.4898579381406307220458984375" lon="2.10482035763561725616455078125">
        <ele>126.40000152587890625</ele>
        <time>2022-01-07T13:11:12.000Z</time>
      </trkpt>
      <trkpt lat="41.4898968301713466644287109375" lon="2.10477392189204692840576171875">
        <ele>126.59999847412109375</ele>
        <time>2022-01-07T13:11:13.000Z</time>
      </trkpt>
      <trkpt lat="41.48991309106349945068359375" lon="2.10474550724029541015625">
        <ele>126.59999847412109375</ele>
        <time>2022-01-07T13:11:14.000Z</time>
      </trkpt>
      <trkpt lat="41.48992407135665416717529296875" lon="2.10471692495048046112060546875">
        <ele>126.8000030517578125</ele>
        <time>2022-01-07T13:11:15.000Z</time>
      </trkpt>
      <trkpt lat="41.48993723094463348388671875" lon="2.1046937070786952972412109375">
        <ele>126.8000030517578125</ele>
        <time>2022-01-07T13:11:16.000Z</time>
      </trkpt>
      <trkpt lat="41.4899561740458011627197265625" lon="2.10467753000557422637939453125">
        <ele>126.8000030517578125</ele>
        <time>2022-01-07T13:11:17.000Z</time>
      </trkpt>
      <trkpt lat="41.4899561740458011627197265625" lon="2.10467753000557422637939453125">
        <ele>127</ele>
        <time>2022-01-07T13:11:18.000Z</time>
      </trkpt>
      <trkpt lat="41.48999565280973911285400390625" lon="2.10465758107602596282958984375">
        <ele>127.1999969482421875</ele>
        <time>2022-01-07T13:11:19.000Z</time>
      </trkpt>
      <trkpt lat="41.4900138415396213531494140625" lon="2.1046444214880466461181640625">
        <ele>127.40000152587890625</ele>
        <time>2022-01-07T13:11:20.000Z</time>
      </trkpt>
      <trkpt lat="41.490031778812408447265625" lon="2.1046261489391326904296875">
        <ele>127.59999847412109375</ele>
        <time>2022-01-07T13:11:21.000Z</time>
      </trkpt>
      <trkpt lat="41.49004426784813404083251953125" lon="2.104605697095394134521484375">
        <ele>127.8000030517578125</ele>
        <time>2022-01-07T13:11:22.000Z</time>
      </trkpt>
      <trkpt lat="41.490051560103893280029296875" lon="2.10458901710808277130126953125">
        <ele>127.8000030517578125</ele>
        <time>2022-01-07T13:11:23.000Z</time>
      </trkpt>
      <trkpt lat="41.49005918763577938079833984375" lon="2.10457610897719860076904296875">
        <ele>128</ele>
        <time>2022-01-07T13:11:24.000Z</time>
      </trkpt>
      <trkpt lat="41.49006723426282405853271484375" lon="2.10456454195082187652587890625">
        <ele>128.1999969482421875</ele>
        <time>2022-01-07T13:11:25.000Z</time>
      </trkpt>
      <trkpt lat="41.49006974883377552032470703125" lon="2.10454995743930339813232421875">
        <ele>128.1999969482421875</ele>
        <time>2022-01-07T13:11:26.000Z</time>
      </trkpt>
      <trkpt lat="41.49007561616599559783935546875" lon="2.10453118197619915008544921875">
        <ele>128.399993896484375</ele>
        <time>2022-01-07T13:11:27.000Z</time>
      </trkpt>
      <trkpt lat="41.49008802138268947601318359375" lon="2.104512490332126617431640625">
        <ele>128.399993896484375</ele>
        <time>2022-01-07T13:11:28.000Z</time>
      </trkpt>
      <trkpt lat="41.49010679684579372406005859375" lon="2.10449329577386379241943359375">
        <ele>128.600006103515625</ele>
        <time>2022-01-07T13:11:29.000Z</time>
      </trkpt>
      <trkpt lat="41.49012473411858081817626953125" lon="2.104473598301410675048828125">
        <ele>128.600006103515625</ele>
        <time>2022-01-07T13:11:30.000Z</time>
      </trkpt>
      <trkpt lat="41.490142084658145904541015625" lon="2.1044539846479892730712890625">
        <ele>128.600006103515625</ele>
        <time>2022-01-07T13:11:31.000Z</time>
      </trkpt>
      <trkpt lat="41.4901613630354404449462890625" lon="2.10443495772778987884521484375">
        <ele>128.600006103515625</ele>
        <time>2022-01-07T13:11:32.000Z</time>
      </trkpt>
      <trkpt lat="41.490180976688861846923828125" lon="2.10441735573112964630126953125">
        <ele>128.600006103515625</ele>
        <time>2022-01-07T13:11:33.000Z</time>
      </trkpt>
      <trkpt lat="41.49020100943744182586669921875" lon="2.10440109483897686004638671875">
        <ele>128.600006103515625</ele>
        <time>2022-01-07T13:11:34.000Z</time>
      </trkpt>
      <trkpt lat="41.49022095836699008941650390625" lon="2.1043822355568408966064453125">
        <ele>128.600006103515625</ele>
        <time>2022-01-07T13:11:35.000Z</time>
      </trkpt>
      <trkpt lat="41.49023939855396747589111328125" lon="2.1043637953698635101318359375">
        <ele>128.600006103515625</ele>
        <time>2022-01-07T13:11:36.000Z</time>
      </trkpt>
      <trkpt lat="41.49025683291256427764892578125" lon="2.10434325970709323883056640625">
        <ele>128.600006103515625</ele>
        <time>2022-01-07T13:11:37.000Z</time>
      </trkpt>
      <trkpt lat="41.4902745187282562255859375" lon="2.1043249033391475677490234375">
        <ele>128.8000030517578125</ele>
        <time>2022-01-07T13:11:38.000Z</time>
      </trkpt>
      <trkpt lat="41.490294300019741058349609375" lon="2.1043165214359760284423828125">
        <ele>128.8000030517578125</ele>
        <time>2022-01-07T13:11:39.000Z</time>
      </trkpt>
      <trkpt lat="41.4903174340724945068359375" lon="2.10431057028472423553466796875">
        <ele>128.8000030517578125</ele>
        <time>2022-01-07T13:11:40.000Z</time>
      </trkpt>
      <trkpt lat="41.49034048430621623992919921875" lon="2.10430017672479152679443359375">
        <ele>128.8000030517578125</ele>
        <time>2022-01-07T13:11:41.000Z</time>
      </trkpt>
      <trkpt lat="41.49035892449319362640380859375" lon="2.10428617894649505615234375">
        <ele>128.8000030517578125</ele>
        <time>2022-01-07T13:11:42.000Z</time>
      </trkpt>
      <trkpt lat="41.4903739280998706817626953125" lon="2.10427419282495975494384765625">
        <ele>128.8000030517578125</ele>
        <time>2022-01-07T13:11:43.000Z</time>
      </trkpt>
      <trkpt lat="41.49038407020270824432373046875" lon="2.104267738759517669677734375">
        <ele>128.8000030517578125</ele>
        <time>2022-01-07T13:11:44.000Z</time>
      </trkpt>
      <trkpt lat="41.49038608185946941375732421875" lon="2.10426564328372478485107421875">
        <ele>128.8000030517578125</ele>
        <time>2022-01-07T13:11:45.000Z</time>
      </trkpt>
      <trkpt lat="41.49038641713559627532958984375" lon="2.10426648147404193878173828125">
        <ele>128.8000030517578125</ele>
        <time>2022-01-07T13:11:46.000Z</time>
      </trkpt>
      <trkpt lat="41.4904247224330902099609375" lon="2.10425759665668010711669921875">
        <ele>129.399993896484375</ele>
        <time>2022-01-07T13:13:01.000Z</time>
      </trkpt>
      <trkpt lat="41.4904500357806682586669921875" lon="2.1042521484196186065673828125">
        <ele>129.399993896484375</ele>
        <time>2022-01-07T13:13:02.000Z</time>
      </trkpt>
      <trkpt lat="41.49047375656664371490478515625" lon="2.1042451076209545135498046875">
        <ele>129.399993896484375</ele>
        <time>2022-01-07T13:13:03.000Z</time>
      </trkpt>
      <trkpt lat="41.49049806408584117889404296875" lon="2.10423781536519527435302734375">
        <ele>129.399993896484375</ele>
        <time>2022-01-07T13:13:04.000Z</time>
      </trkpt>
      <trkpt lat="41.49052304215729236602783203125" lon="2.10423094220459461212158203125">
        <ele>129.399993896484375</ele>
        <time>2022-01-07T13:13:05.000Z</time>
      </trkpt>
      <trkpt lat="41.49054785259068012237548828125" lon="2.1042270027101039886474609375">
        <ele>129.399993896484375</ele>
        <time>2022-01-07T13:13:06.000Z</time>
      </trkpt>
      <trkpt lat="41.490571908652782440185546875" lon="2.1042290143668651580810546875">
        <ele>129.399993896484375</ele>
        <time>2022-01-07T13:13:07.000Z</time>
      </trkpt>
      <trkpt lat="41.49059579707682132720947265625" lon="2.1042384020984172821044921875">
        <ele>129.399993896484375</ele>
        <time>2022-01-07T13:13:08.000Z</time>
      </trkpt>
      <trkpt lat="41.49061759002506732940673828125" lon="2.104254662990570068359375">
        <ele>129.600006103515625</ele>
        <time>2022-01-07T13:13:09.000Z</time>
      </trkpt>
      <trkpt lat="41.49064189754426479339599609375" lon="2.10427218116819858551025390625">
        <ele>129.600006103515625</ele>
        <time>2022-01-07T13:13:10.000Z</time>
      </trkpt>
      <trkpt lat="41.49066679179668426513671875" lon="2.10429095663130283355712890625">
        <ele>129.600006103515625</ele>
        <time>2022-01-07T13:13:11.000Z</time>
      </trkpt>
      <trkpt lat="41.4906927756965160369873046875" lon="2.10431031882762908935546875">
        <ele>129.600006103515625</ele>
        <time>2022-01-07T13:13:12.000Z</time>
      </trkpt>
      <trkpt lat="41.4906927756965160369873046875" lon="2.10431031882762908935546875">
        <ele>129.600006103515625</ele>
        <time>2022-01-07T13:13:13.000Z</time>
      </trkpt>
      <trkpt lat="41.4907454140484333038330078125" lon="2.1043540723621845245361328125">
        <ele>129.600006103515625</ele>
        <time>2022-01-07T13:13:14.000Z</time>
      </trkpt>
      <trkpt lat="41.4907725714147090911865234375" lon="2.1043778769671916961669921875">
        <ele>129.600006103515625</ele>
        <time>2022-01-07T13:13:15.000Z</time>
      </trkpt>
      <trkpt lat="41.49079763330519199371337890625" lon="2.10440193302929401397705078125">
        <ele>129.8000030517578125</ele>
        <time>2022-01-07T13:13:16.000Z</time>
      </trkpt>
      <trkpt lat="41.4908161573112010955810546875" lon="2.10442104376852512359619140625">
        <ele>129.8000030517578125</ele>
        <time>2022-01-07T13:13:17.000Z</time>
      </trkpt>
      <trkpt lat="41.49084524251520633697509765625" lon="2.10444937460124492645263671875">
        <ele>130</ele>
        <time>2022-01-07T13:13:18.000Z</time>
      </trkpt>
      <trkpt lat="41.4908691309392452239990234375" lon="2.10447619669139385223388671875">
        <ele>130</ele>
        <time>2022-01-07T13:13:19.000Z</time>
      </trkpt>
      <trkpt lat="41.4908941090106964111328125" lon="2.10450218059122562408447265625">
        <ele>130</ele>
        <time>2022-01-07T13:13:20.000Z</time>
      </trkpt>
      <trkpt lat="41.4909187518060207366943359375" lon="2.104528248310089111328125">
        <ele>130</ele>
        <time>2022-01-07T13:13:21.000Z</time>
      </trkpt>
      <trkpt lat="41.4909422211349010467529296875" lon="2.10455708205699920654296875">
        <ele>130</ele>
        <time>2022-01-07T13:13:22.000Z</time>
      </trkpt>
      <trkpt lat="41.49096560664474964141845703125" lon="2.10458633489906787872314453125">
        <ele>130</ele>
        <time>2022-01-07T13:13:23.000Z</time>
      </trkpt>
      <trkpt lat="41.4909891597926616668701171875" lon="2.10461533628404140472412109375">
        <ele>130</ele>
        <time>2022-01-07T13:13:24.000Z</time>
      </trkpt>
      <trkpt lat="41.49101137183606624603271484375" lon="2.10464534349739551544189453125">
        <ele>130.1999969482421875</ele>
        <time>2022-01-07T13:13:25.000Z</time>
      </trkpt>
      <trkpt lat="41.491029225289821624755859375" lon="2.10467702709138393402099609375">
        <ele>130.1999969482421875</ele>
        <time>2022-01-07T13:13:26.000Z</time>
      </trkpt>
      <trkpt lat="41.491029225289821624755859375" lon="2.10467702709138393402099609375">
        <ele>130.1999969482421875</ele>
        <time>2022-01-07T13:13:27.000Z</time>
      </trkpt>
      <trkpt lat="41.49105914868414402008056640625" lon="2.10475799627602100372314453125">
        <ele>130.1999969482421875</ele>
        <time>2022-01-07T13:13:28.000Z</time>
      </trkpt>
      <trkpt lat="41.49107373319566249847412109375" lon="2.10479252971708774566650390625">
        <ele>130.1999969482421875</ele>
        <time>2022-01-07T13:13:29.000Z</time>
      </trkpt>
      <trkpt lat="41.49109569378197193145751953125" lon="2.104830332100391387939453125">
        <ele>130.1999969482421875</ele>
        <time>2022-01-07T13:13:30.000Z</time>
      </trkpt>
      <trkpt lat="41.4911148883402347564697265625" lon="2.1048650331795215606689453125">
        <ele>130.399993896484375</ele>
        <time>2022-01-07T13:13:31.000Z</time>
      </trkpt>
      <trkpt lat="41.4911363460123538970947265625" lon="2.10489864461123943328857421875">
        <ele>130.399993896484375</ele>
        <time>2022-01-07T13:13:32.000Z</time>
      </trkpt>
      <trkpt lat="41.4911584742367267608642578125" lon="2.10492949001491069793701171875">
        <ele>130.399993896484375</ele>
        <time>2022-01-07T13:13:33.000Z</time>
      </trkpt>
      <trkpt lat="41.4911836199462413787841796875" lon="2.10496620275080204010009765625">
        <ele>130.399993896484375</ele>
        <time>2022-01-07T13:13:34.000Z</time>
      </trkpt>
      <trkpt lat="41.49119929410517215728759765625" lon="2.1049907617270946502685546875">
        <ele>130.600006103515625</ele>
        <time>2022-01-07T13:13:35.000Z</time>
      </trkpt>
      <trkpt lat="41.49121907539665699005126953125" lon="2.10502269677817821502685546875">
        <ele>130.600006103515625</ele>
        <time>2022-01-07T13:13:36.000Z</time>
      </trkpt>
      <trkpt lat="41.4912416227161884307861328125" lon="2.10506242699921131134033203125">
        <ele>130.600006103515625</ele>
        <time>2022-01-07T13:13:37.000Z</time>
      </trkpt>
      <trkpt lat="41.4912587217986583709716796875" lon="2.10509997792541980743408203125">
        <ele>130.600006103515625</ele>
        <time>2022-01-07T13:13:38.000Z</time>
      </trkpt>
      <trkpt lat="41.49127137847244739532470703125" lon="2.10513266734778881072998046875">
        <ele>130.600006103515625</ele>
        <time>2022-01-07T13:13:39.000Z</time>
      </trkpt>
      <trkpt lat="41.4912865497171878814697265625" lon="2.1051738224923610687255859375">
        <ele>130.600006103515625</ele>
        <time>2022-01-07T13:13:40.000Z</time>
      </trkpt>
      <trkpt lat="41.49130272679030895233154296875" lon="2.1052147261798381805419921875">
        <ele>130.600006103515625</ele>
        <time>2022-01-07T13:13:41.000Z</time>
      </trkpt>
      <trkpt lat="41.49131848476827144622802734375" lon="2.10525403730571269989013671875">
        <ele>130.600006103515625</ele>
        <time>2022-01-07T13:13:42.000Z</time>
      </trkpt>
      <trkpt lat="41.49133407510817050933837890625" lon="2.10529393516480922698974609375">
        <ele>130.600006103515625</ele>
        <time>2022-01-07T13:13:43.000Z</time>
      </trkpt>
      <trkpt lat="41.491349078714847564697265625" lon="2.10533450357615947723388671875">
        <ele>130.8000030517578125</ele>
        <time>2022-01-07T13:13:44.000Z</time>
      </trkpt>
      <trkpt lat="41.49136190302670001983642578125" lon="2.1053759939968585968017578125">
        <ele>131</ele>
        <time>2022-01-07T13:13:45.000Z</time>
      </trkpt>
      <trkpt lat="41.491375900804996490478515625" lon="2.10542687214910984039306640625">
        <ele>131</ele>
        <time>2022-01-07T13:13:46.000Z</time>
      </trkpt>
      <trkpt lat="41.49138621054589748382568359375" lon="2.10545956157147884368896484375">
        <ele>131.1999969482421875</ele>
        <time>2022-01-07T13:13:47.000Z</time>
      </trkpt>
      <trkpt lat="41.49140230379998683929443359375" lon="2.10550884716212749481201171875">
        <ele>131.399993896484375</ele>
        <time>2022-01-07T13:13:48.000Z</time>
      </trkpt>
      <trkpt lat="41.491414122283458709716796875" lon="2.10553986020386219024658203125">
        <ele>131.399993896484375</ele>
        <time>2022-01-07T13:13:49.000Z</time>
      </trkpt>
      <trkpt lat="41.49142577312886714935302734375" lon="2.1055781655013561248779296875">
        <ele>131.399993896484375</ele>
        <time>2022-01-07T13:13:50.000Z</time>
      </trkpt>
      <trkpt lat="41.49143449030816555023193359375" lon="2.10561797954142093658447265625">
        <ele>131.600006103515625</ele>
        <time>2022-01-07T13:13:51.000Z</time>
      </trkpt>
      <trkpt lat="41.49144203402101993560791015625" lon="2.105658464133739471435546875">
        <ele>131.8000030517578125</ele>
        <time>2022-01-07T13:13:52.000Z</time>
      </trkpt>
      <trkpt lat="41.4914498291909694671630859375" lon="2.1057012118399143218994140625">
        <ele>131.8000030517578125</ele>
        <time>2022-01-07T13:13:53.000Z</time>
      </trkpt>
      <trkpt lat="41.491458714008331298828125" lon="2.105743624269962310791015625">
        <ele>131.8000030517578125</ele>
        <time>2022-01-07T13:13:54.000Z</time>
      </trkpt>
      <trkpt lat="41.491458714008331298828125" lon="2.105743624269962310791015625">
        <ele>132</ele>
        <time>2022-01-07T13:13:55.000Z</time>
      </trkpt>
      <trkpt lat="41.49147941730916500091552734375" lon="2.10582819767296314239501953125">
        <ele>132</ele>
        <time>2022-01-07T13:13:56.000Z</time>
      </trkpt>
      <trkpt lat="41.49148997850716114044189453125" lon="2.10587061010301113128662109375">
        <ele>132.1999969482421875</ele>
        <time>2022-01-07T13:13:57.000Z</time>
      </trkpt>
      <trkpt lat="41.49150003679096698760986328125" lon="2.10591251961886882781982421875">
        <ele>132.399993896484375</ele>
        <time>2022-01-07T13:13:58.000Z</time>
      </trkpt>
      <trkpt lat="41.4915061555802822113037109375" lon="2.105956189334392547607421875">
        <ele>132.600006103515625</ele>
        <time>2022-01-07T13:13:59.000Z</time>
      </trkpt>
      <trkpt lat="41.49151009507477283477783203125" lon="2.1060021221637725830078125">
        <ele>132.8000030517578125</ele>
        <time>2022-01-07T13:14:00.000Z</time>
      </trkpt>
      <trkpt lat="41.4915152080357074737548828125" lon="2.10604780353605747222900390625">
        <ele>133</ele>
        <time>2022-01-07T13:14:01.000Z</time>
      </trkpt>
      <trkpt lat="41.4915279485285282135009765625" lon="2.10610312409698963165283203125">
        <ele>133.1999969482421875</ele>
        <time>2022-01-07T13:14:02.000Z</time>
      </trkpt>
      <trkpt lat="41.4915373362600803375244140625" lon="2.10613782517611980438232421875">
        <ele>133.399993896484375</ele>
        <time>2022-01-07T13:14:03.000Z</time>
      </trkpt>
      <trkpt lat="41.4915373362600803375244140625" lon="2.10613782517611980438232421875">
        <ele>133.600006103515625</ele>
        <time>2022-01-07T13:14:04.000Z</time>
      </trkpt>
      <trkpt lat="41.491555273532867431640625" lon="2.106235139071941375732421875">
        <ele>133.600006103515625</ele>
        <time>2022-01-07T13:14:05.000Z</time>
      </trkpt>
      <trkpt lat="41.49156088940799236297607421875" lon="2.10627964697778224945068359375">
        <ele>133.600006103515625</ele>
        <time>2022-01-07T13:14:06.000Z</time>
      </trkpt>
      <trkpt lat="41.49156868457794189453125" lon="2.10632574744522571563720703125">
        <ele>133.8000030517578125</ele>
        <time>2022-01-07T13:14:07.000Z</time>
      </trkpt>
      <trkpt lat="41.49158184416592121124267578125" lon="2.10637184791266918182373046875">
        <ele>133.8000030517578125</ele>
        <time>2022-01-07T13:14:08.000Z</time>
      </trkpt>
      <trkpt lat="41.49159676395356655120849609375" lon="2.10641962476074695587158203125">
        <ele>133.8000030517578125</ele>
        <time>2022-01-07T13:14:09.000Z</time>
      </trkpt>
      <trkpt lat="41.49159676395356655120849609375" lon="2.10641962476074695587158203125">
        <ele>133.8000030517578125</ele>
        <time>2022-01-07T13:14:10.000Z</time>
      </trkpt>
      <trkpt lat="41.49162526242434978485107421875" lon="2.1065199561417102813720703125">
        <ele>134</ele>
        <time>2022-01-07T13:14:11.000Z</time>
      </trkpt>
      <trkpt lat="41.4916429482400417327880859375" lon="2.10656932555139064788818359375">
        <ele>134</ele>
        <time>2022-01-07T13:14:12.000Z</time>
      </trkpt>
      <trkpt lat="41.4916639029979705810546875" lon="2.10661727003753185272216796875">
        <ele>134</ele>
        <time>2022-01-07T13:14:13.000Z</time>
      </trkpt>
      <trkpt lat="41.4916878752410411834716796875" lon="2.106664292514324188232421875">
        <ele>134</ele>
        <time>2022-01-07T13:14:14.000Z</time>
      </trkpt>
      <trkpt lat="41.49171209894120693206787109375" lon="2.10670913569629192352294921875">
        <ele>134.1999969482421875</ele>
        <time>2022-01-07T13:14:15.000Z</time>
      </trkpt>
      <trkpt lat="41.49173724465072154998779296875" lon="2.1067590080201625823974609375">
        <ele>134.1999969482421875</ele>
        <time>2022-01-07T13:14:16.000Z</time>
      </trkpt>
      <trkpt lat="41.4917656593024730682373046875" lon="2.10681089200079441070556640625">
        <ele>134</ele>
        <time>2022-01-07T13:14:17.000Z</time>
      </trkpt>
      <trkpt lat="41.49179734289646148681640625" lon="2.106862105429172515869140625">
        <ele>134</ele>
        <time>2022-01-07T13:14:18.000Z</time>
      </trkpt>
      <trkpt lat="41.49183330126106739044189453125" lon="2.10690946318209171295166015625">
        <ele>134</ele>
        <time>2022-01-07T13:14:19.000Z</time>
      </trkpt>
      <trkpt lat="41.49186867289245128631591796875" lon="2.10695874877274036407470703125">
        <ele>134</ele>
        <time>2022-01-07T13:14:20.000Z</time>
      </trkpt>
      <trkpt lat="41.49190555326640605926513671875" lon="2.10700971074402332305908203125">
        <ele>134</ele>
        <time>2022-01-07T13:14:21.000Z</time>
      </trkpt>
      <trkpt lat="41.49194695986807346343994140625" lon="2.1070584096014499664306640625">
        <ele>133.8000030517578125</ele>
        <time>2022-01-07T13:14:22.000Z</time>
      </trkpt>
      <trkpt lat="41.4919884502887725830078125" lon="2.1071053482592105865478515625">
        <ele>133.600006103515625</ele>
        <time>2022-01-07T13:14:23.000Z</time>
      </trkpt>
      <trkpt lat="41.492029018700122833251953125" lon="2.107152454555034637451171875">
        <ele>133.399993896484375</ele>
        <time>2022-01-07T13:14:24.000Z</time>
      </trkpt>
      <trkpt lat="41.4920707605779170989990234375" lon="2.10719880647957324981689453125">
        <ele>133</ele>
        <time>2022-01-07T13:14:25.000Z</time>
      </trkpt>
      <trkpt lat="41.4921109937131404876708984375" lon="2.10724440403282642364501953125">
        <ele>132.600006103515625</ele>
        <time>2022-01-07T13:14:26.000Z</time>
      </trkpt>
      <trkpt lat="41.49215147830545902252197265625" lon="2.10729025304317474365234375">
        <ele>132.1999969482421875</ele>
        <time>2022-01-07T13:14:27.000Z</time>
      </trkpt>
      <trkpt lat="41.4921961538493633270263671875" lon="2.10733174346387386322021484375">
        <ele>131.8000030517578125</ele>
        <time>2022-01-07T13:14:28.000Z</time>
      </trkpt>
      <trkpt lat="41.49224149994552135467529296875" lon="2.10736745037138462066650390625">
        <ele>131.399993896484375</ele>
        <time>2022-01-07T13:14:29.000Z</time>
      </trkpt>
      <trkpt lat="41.49228760041296482086181640625" lon="2.10740366019308567047119140625">
        <ele>131.1999969482421875</ele>
        <time>2022-01-07T13:14:30.000Z</time>
      </trkpt>
      <trkpt lat="41.49233512580394744873046875" lon="2.1074397861957550048828125">
        <ele>131</ele>
        <time>2022-01-07T13:14:31.000Z</time>
      </trkpt>
      <trkpt lat="41.49233512580394744873046875" lon="2.1074397861957550048828125">
        <ele>130.8000030517578125</ele>
        <time>2022-01-07T13:14:32.000Z</time>
      </trkpt>
      <trkpt lat="41.49243495427072048187255859375" lon="2.10749720223248004913330078125">
        <ele>130.1999969482421875</ele>
        <time>2022-01-07T13:14:33.000Z</time>
      </trkpt>
      <trkpt lat="41.492491029202938079833984375" lon="2.1075214259326457977294921875">
        <ele>130</ele>
        <time>2022-01-07T13:14:34.000Z</time>
      </trkpt>
      <trkpt lat="41.49254676885902881622314453125" lon="2.1075465716421604156494140625">
        <ele>129.8000030517578125</ele>
        <time>2022-01-07T13:14:35.000Z</time>
      </trkpt>
      <trkpt lat="41.4926015026867389678955078125" lon="2.10757079534232616424560546875">
        <ele>129.399993896484375</ele>
        <time>2022-01-07T13:14:36.000Z</time>
      </trkpt>
      <trkpt lat="41.49265422485768795013427734375" lon="2.107594348490238189697265625">
        <ele>129.399993896484375</ele>
        <time>2022-01-07T13:14:37.000Z</time>
      </trkpt>
      <trkpt lat="41.492694206535816192626953125" lon="2.10762016475200653076171875">
        <ele>129</ele>
        <time>2022-01-07T13:14:38.000Z</time>
      </trkpt>
      <trkpt lat="41.49271910078823566436767578125" lon="2.10765578784048557281494140625">
        <ele>128.8000030517578125</ele>
        <time>2022-01-07T13:14:39.000Z</time>
      </trkpt>
      <trkpt lat="41.49273469112813472747802734375" lon="2.1077004633843898773193359375">
        <ele>128.600006103515625</ele>
        <time>2022-01-07T13:14:40.000Z</time>
      </trkpt>
      <trkpt lat="41.49274324066936969757080078125" lon="2.1077507548034191131591796875">
        <ele>128</ele>
        <time>2022-01-07T13:14:41.000Z</time>
      </trkpt>
      <trkpt lat="41.4927456714212894439697265625" lon="2.1078094281256198883056640625">
        <ele>127.59999847412109375</ele>
        <time>2022-01-07T13:14:42.000Z</time>
      </trkpt>
      <trkpt lat="41.49275346659123897552490234375" lon="2.10787455551326274871826171875">
        <ele>127.1999969482421875</ele>
        <time>2022-01-07T13:14:43.000Z</time>
      </trkpt>
      <trkpt lat="41.49276419542729854583740234375" lon="2.10794094018638134002685546875">
        <ele>126.8000030517578125</ele>
        <time>2022-01-07T13:14:44.000Z</time>
      </trkpt>
      <trkpt lat="41.4927756786346435546875" lon="2.10801185108721256256103515625">
        <ele>126.40000152587890625</ele>
        <time>2022-01-07T13:14:45.000Z</time>
      </trkpt>
      <trkpt lat="41.49278732948005199432373046875" lon="2.10808284580707550048828125">
        <ele>126.1999969482421875</ele>
        <time>2022-01-07T13:14:46.000Z</time>
      </trkpt>
      <trkpt lat="41.49279889650642871856689453125" lon="2.10815015248954296112060546875">
        <ele>126</ele>
        <time>2022-01-07T13:14:47.000Z</time>
      </trkpt>
      <trkpt lat="41.49281180463731288909912109375" lon="2.108210586011409759521484375">
        <ele>125.8000030517578125</ele>
        <time>2022-01-07T13:14:48.000Z</time>
      </trkpt>
      <trkpt lat="41.4928288199007511138916015625" lon="2.10826791822910308837890625">
        <ele>125.8000030517578125</ele>
        <time>2022-01-07T13:14:49.000Z</time>
      </trkpt>
      <trkpt lat="41.49284332059323787689208984375" lon="2.10832667537033557891845703125">
        <ele>125.59999847412109375</ele>
        <time>2022-01-07T13:14:50.000Z</time>
      </trkpt>
      <trkpt lat="41.49284952320158481597900390625" lon="2.108392976224422454833984375">
        <ele>125.59999847412109375</ele>
        <time>2022-01-07T13:14:51.000Z</time>
      </trkpt>
      <trkpt lat="41.49284130893647670745849609375" lon="2.10845961235463619232177734375">
        <ele>125.40000152587890625</ele>
        <time>2022-01-07T13:14:52.000Z</time>
      </trkpt>
      <trkpt lat="41.49282806552946567535400390625" lon="2.10852549411356449127197265625">
        <ele>125.40000152587890625</ele>
        <time>2022-01-07T13:14:53.000Z</time>
      </trkpt>
      <trkpt lat="41.492811553180217742919921875" lon="2.1085931360721588134765625">
        <ele>125.40000152587890625</ele>
        <time>2022-01-07T13:14:54.000Z</time>
      </trkpt>
      <trkpt lat="41.49278565309941768646240234375" lon="2.10865549743175506591796875">
        <ele>125.1999969482421875</ele>
        <time>2022-01-07T13:14:55.000Z</time>
      </trkpt>
      <trkpt lat="41.49276168085634708404541015625" lon="2.10872380994260311126708984375">
        <ele>125.1999969482421875</ele>
        <time>2022-01-07T13:14:56.000Z</time>
      </trkpt>
      <trkpt lat="41.49274374358355998992919921875" lon="2.1087897755205631256103515625">
        <ele>125.1999969482421875</ele>
        <time>2022-01-07T13:14:57.000Z</time>
      </trkpt>
      <trkpt lat="41.49274374358355998992919921875" lon="2.1087897755205631256103515625">
        <ele>125</ele>
        <time>2022-01-07T13:14:58.000Z</time>
      </trkpt>
      <trkpt lat="41.49273955263197422027587890625" lon="2.10890033282339572906494140625">
        <ele>125</ele>
        <time>2022-01-07T13:14:59.000Z</time>
      </trkpt>
      <trkpt lat="41.49275799281895160675048828125" lon="2.108953893184661865234375">
        <ele>125</ele>
        <time>2022-01-07T13:15:00.000Z</time>
      </trkpt>
      <trkpt lat="41.49275799281895160675048828125" lon="2.108953893184661865234375">
        <ele>124.8000030517578125</ele>
        <time>2022-01-07T13:15:01.000Z</time>
      </trkpt>
      <trkpt lat="41.4928318373858928680419921875" lon="2.10902522318065166473388671875">
        <ele>124.40000152587890625</ele>
        <time>2022-01-07T13:15:02.000Z</time>
      </trkpt>
      <trkpt lat="41.49287500418722629547119140625" lon="2.109042070806026458740234375">
        <ele>124.1999969482421875</ele>
        <time>2022-01-07T13:15:03.000Z</time>
      </trkpt>
      <trkpt lat="41.49287500418722629547119140625" lon="2.109042070806026458740234375">
        <ele>124.1999969482421875</ele>
        <time>2022-01-07T13:15:04.000Z</time>
      </trkpt>
      <trkpt lat="41.49296502582728862762451171875" lon="2.10907853208482265472412109375">
        <ele>124</ele>
        <time>2022-01-07T13:15:05.000Z</time>
      </trkpt>
      <trkpt lat="41.49300827644765377044677734375" lon="2.10910954512655735015869140625">
        <ele>123.8000030517578125</ele>
        <time>2022-01-07T13:15:06.000Z</time>
      </trkpt>
      <trkpt lat="41.49300827644765377044677734375" lon="2.10910954512655735015869140625">
        <ele>123.8000030517578125</ele>
        <time>2022-01-07T13:15:07.000Z</time>
      </trkpt>
      <trkpt lat="41.49309025146067142486572265625" lon="2.10917442105710506439208984375">
        <ele>123.8000030517578125</ele>
        <time>2022-01-07T13:15:08.000Z</time>
      </trkpt>
      <trkpt lat="41.493124030530452728271484375" lon="2.10921205580234527587890625">
        <ele>123.59999847412109375</ele>
        <time>2022-01-07T13:15:09.000Z</time>
      </trkpt>
      <trkpt lat="41.49315990507602691650390625" lon="2.109247259795665740966796875">
        <ele>123.59999847412109375</ele>
        <time>2022-01-07T13:15:10.000Z</time>
      </trkpt>
      <trkpt lat="41.4931946061551570892333984375" lon="2.1092812903225421905517578125">
        <ele>123.59999847412109375</ele>
        <time>2022-01-07T13:15:11.000Z</time>
      </trkpt>
      <trkpt lat="41.49322536773979663848876953125" lon="2.109312303364276885986328125">
        <ele>123.59999847412109375</ele>
        <time>2022-01-07T13:15:12.000Z</time>
      </trkpt>
      <trkpt lat="41.49322536773979663848876953125" lon="2.109312303364276885986328125">
        <ele>123.59999847412109375</ele>
        <time>2022-01-07T13:15:13.000Z</time>
      </trkpt>
      <trkpt lat="41.49329292587935924530029296875" lon="2.10936100222170352935791015625">
        <ele>123.40000152587890625</ele>
        <time>2022-01-07T13:15:14.000Z</time>
      </trkpt>
      <trkpt lat="41.49331857450306415557861328125" lon="2.10940408520400524139404296875">
        <ele>123.40000152587890625</ele>
        <time>2022-01-07T13:15:15.000Z</time>
      </trkpt>
      <trkpt lat="41.49333802051842212677001953125" lon="2.10946041159331798553466796875">
        <ele>123.40000152587890625</ele>
        <time>2022-01-07T13:15:16.000Z</time>
      </trkpt>
      <trkpt lat="41.4933518506586551666259765625" lon="2.1095211803913116455078125">
        <ele>123.40000152587890625</ele>
        <time>2022-01-07T13:15:17.000Z</time>
      </trkpt>
      <trkpt lat="41.493365764617919921875" lon="2.10958295501768589019775390625">
        <ele>123.40000152587890625</ele>
        <time>2022-01-07T13:15:18.000Z</time>
      </trkpt>
      <trkpt lat="41.49338923394680023193359375" lon="2.1096386946737766265869140625">
        <ele>123.40000152587890625</ele>
        <time>2022-01-07T13:15:19.000Z</time>
      </trkpt>
      <trkpt lat="41.4934209175407886505126953125" lon="2.10967817343771457672119140625">
        <ele>123.40000152587890625</ele>
        <time>2022-01-07T13:15:20.000Z</time>
      </trkpt>
      <trkpt lat="41.49346609599888324737548828125" lon="2.1096822805702686309814453125">
        <ele>123.40000152587890625</ele>
        <time>2022-01-07T13:15:21.000Z</time>
      </trkpt>
      <trkpt lat="41.493517644703388214111328125" lon="2.1096661873161792755126953125">
        <ele>123.40000152587890625</ele>
        <time>2022-01-07T13:15:22.000Z</time>
      </trkpt>
      <trkpt lat="41.49356894195079803466796875" lon="2.10965252481400966644287109375">
        <ele>123.40000152587890625</ele>
        <time>2022-01-07T13:15:23.000Z</time>
      </trkpt>
      <trkpt lat="41.49361730553209781646728515625" lon="2.1096418797969818115234375">
        <ele>123.40000152587890625</ele>
        <time>2022-01-07T13:15:24.000Z</time>
      </trkpt>
      <trkpt lat="41.493666507303714752197265625" lon="2.1096303127706050872802734375">
        <ele>123.40000152587890625</ele>
        <time>2022-01-07T13:15:25.000Z</time>
      </trkpt>
      <trkpt lat="41.49371403269469738006591796875" lon="2.109616063535213470458984375">
        <ele>123.40000152587890625</ele>
        <time>2022-01-07T13:15:26.000Z</time>
      </trkpt>
      <trkpt lat="41.49376080371439456939697265625" lon="2.10960566997528076171875">
        <ele>123.40000152587890625</ele>
        <time>2022-01-07T13:15:27.000Z</time>
      </trkpt>
      <trkpt lat="41.4938071556389331817626953125" lon="2.10959468968212604522705078125">
        <ele>123.40000152587890625</ele>
        <time>2022-01-07T13:15:28.000Z</time>
      </trkpt>
      <trkpt lat="41.49385392665863037109375" lon="2.1095853857696056365966796875">
        <ele>123.40000152587890625</ele>
        <time>2022-01-07T13:15:29.000Z</time>
      </trkpt>
      <trkpt lat="41.4939003624022006988525390625" lon="2.10957624949514865875244140625">
        <ele>123.40000152587890625</ele>
        <time>2022-01-07T13:15:30.000Z</time>
      </trkpt>
      <trkpt lat="41.49394721724092960357666015625" lon="2.10956937633454799652099609375">
        <ele>123.40000152587890625</ele>
        <time>2022-01-07T13:15:31.000Z</time>
      </trkpt>
      <trkpt lat="41.493994407355785369873046875" lon="2.10956149734556674957275390625">
        <ele>123.40000152587890625</ele>
        <time>2022-01-07T13:15:32.000Z</time>
      </trkpt>
      <trkpt lat="41.49404126219451427459716796875" lon="2.10955127142369747161865234375">
        <ele>123.40000152587890625</ele>
        <time>2022-01-07T13:15:33.000Z</time>
      </trkpt>
      <trkpt lat="41.494088284671306610107421875" lon="2.10954389534890651702880859375">
        <ele>123.40000152587890625</ele>
        <time>2022-01-07T13:15:34.000Z</time>
      </trkpt>
      <trkpt lat="41.49413413368165493011474609375" lon="2.10953467525541782379150390625">
        <ele>123.59999847412109375</ele>
        <time>2022-01-07T13:15:35.000Z</time>
      </trkpt>
      <trkpt lat="41.49418191052973270416259765625" lon="2.10952159948647022247314453125">
        <ele>123.59999847412109375</ele>
        <time>2022-01-07T13:15:36.000Z</time>
      </trkpt>
      <trkpt lat="41.49422683753073215484619140625" lon="2.1095109544694423675537109375">
        <ele>123.8000030517578125</ele>
        <time>2022-01-07T13:15:37.000Z</time>
      </trkpt>
      <trkpt lat="41.494272686541080474853515625" lon="2.10950198583304882049560546875">
        <ele>124</ele>
        <time>2022-01-07T13:15:38.000Z</time>
      </trkpt>
      <trkpt lat="41.4943197928369045257568359375" lon="2.10949712432920932769775390625">
        <ele>124.1999969482421875</ele>
        <time>2022-01-07T13:15:39.000Z</time>
      </trkpt>
      <trkpt lat="41.49436564184725284576416015625" lon="2.109489999711513519287109375">
        <ele>124.1999969482421875</ele>
        <time>2022-01-07T13:15:40.000Z</time>
      </trkpt>
      <trkpt lat="41.49440906010568141937255859375" lon="2.109472565352916717529296875">
        <ele>124.40000152587890625</ele>
        <time>2022-01-07T13:15:41.000Z</time>
      </trkpt>
      <trkpt lat="41.494446694850921630859375" lon="2.1094526164233684539794921875">
        <ele>124.40000152587890625</ele>
        <time>2022-01-07T13:15:42.000Z</time>
      </trkpt>
      <trkpt lat="41.49448231793940067291259765625" lon="2.10943962447345256805419921875">
        <ele>124.59999847412109375</ele>
        <time>2022-01-07T13:15:43.000Z</time>
      </trkpt>
      <trkpt lat="41.4945196174085140228271484375" lon="2.109428979456424713134765625">
        <ele>124.59999847412109375</ele>
        <time>2022-01-07T13:15:44.000Z</time>
      </trkpt>
      <trkpt lat="41.49455708451569080352783203125" lon="2.10941866971552371978759765625">
        <ele>124.8000030517578125</ele>
        <time>2022-01-07T13:15:45.000Z</time>
      </trkpt>
      <trkpt lat="41.49459379725158214569091796875" lon="2.109414897859096527099609375">
        <ele>124.8000030517578125</ele>
        <time>2022-01-07T13:15:46.000Z</time>
      </trkpt>
      <trkpt lat="41.494632102549076080322265625" lon="2.1094123832881450653076171875">
        <ele>124.8000030517578125</ele>
        <time>2022-01-07T13:15:47.000Z</time>
      </trkpt>
      <trkpt lat="41.49467057548463344573974609375" lon="2.10940919816493988037109375">
        <ele>125</ele>
        <time>2022-01-07T13:15:48.000Z</time>
      </trkpt>
      <trkpt lat="41.4947097189724445343017578125" lon="2.1094016544520854949951171875">
        <ele>125</ele>
        <time>2022-01-07T13:15:49.000Z</time>
      </trkpt>
      <trkpt lat="41.4947496168315410614013671875" lon="2.10939117707312107086181640625">
        <ele>125</ele>
        <time>2022-01-07T13:15:50.000Z</time>
      </trkpt>
      <trkpt lat="41.49478808976709842681884765625" lon="2.10937877185642719268798828125">
        <ele>125</ele>
        <time>2022-01-07T13:15:51.000Z</time>
      </trkpt>
      <trkpt lat="41.49482647888362407684326171875" lon="2.10936619900166988372802734375">
        <ele>125</ele>
        <time>2022-01-07T13:15:52.000Z</time>
      </trkpt>
      <trkpt lat="41.49486579000949859619140625" lon="2.1093548834323883056640625">
        <ele>125</ele>
        <time>2022-01-07T13:15:53.000Z</time>
      </trkpt>
      <trkpt lat="41.49490728043019771575927734375" lon="2.109345830976963043212890625">
        <ele>125</ele>
        <time>2022-01-07T13:15:54.000Z</time>
      </trkpt>
      <trkpt lat="41.494950614869594573974609375" lon="2.1093372814357280731201171875">
        <ele>125</ele>
        <time>2022-01-07T13:15:55.000Z</time>
      </trkpt>
      <trkpt lat="41.4949960447847843170166015625" lon="2.1093345992267131805419921875">
        <ele>125</ele>
        <time>2022-01-07T13:15:56.000Z</time>
      </trkpt>
      <trkpt lat="41.4950426481664180755615234375" lon="2.10932982154190540313720703125">
        <ele>124.8000030517578125</ele>
        <time>2022-01-07T13:15:57.000Z</time>
      </trkpt>
      <trkpt lat="41.49508975446224212646484375" lon="2.1093218587338924407958984375">
        <ele>124.59999847412109375</ele>
        <time>2022-01-07T13:15:58.000Z</time>
      </trkpt>
      <trkpt lat="41.49514096789062023162841796875" lon="2.10932110436260700225830078125">
        <ele>124.59999847412109375</ele>
        <time>2022-01-07T13:15:59.000Z</time>
      </trkpt>
      <trkpt lat="41.49519310332834720611572265625" lon="2.10930886678397655487060546875">
        <ele>124.1999969482421875</ele>
        <time>2022-01-07T13:16:00.000Z</time>
      </trkpt>
      <trkpt lat="41.4952464960515499114990234375" lon="2.1092943660914897918701171875">
        <ele>124</ele>
        <time>2022-01-07T13:16:01.000Z</time>
      </trkpt>
      <trkpt lat="41.49530391208827495574951171875" lon="2.10928120650351047515869140625">
        <ele>124</ele>
        <time>2022-01-07T13:16:02.000Z</time>
      </trkpt>
      <trkpt lat="41.495365686714649200439453125" lon="2.1092618443071842193603515625">
        <ele>123.8000030517578125</ele>
        <time>2022-01-07T13:16:03.000Z</time>
      </trkpt>
      <trkpt lat="41.49543014355003833770751953125" lon="2.109253965318202972412109375">
        <ele>123.8000030517578125</ele>
        <time>2022-01-07T13:16:04.000Z</time>
      </trkpt>
      <trkpt lat="41.49549317546188831329345703125" lon="2.10924558341503143310546875">
        <ele>123.8000030517578125</ele>
        <time>2022-01-07T13:16:05.000Z</time>
      </trkpt>
      <trkpt lat="41.4955552853643894195556640625" lon="2.10923887789249420166015625">
        <ele>123.59999847412109375</ele>
        <time>2022-01-07T13:16:06.000Z</time>
      </trkpt>
      <trkpt lat="41.4956206642091274261474609375" lon="2.1092346869409084320068359375">
        <ele>123.1999969482421875</ele>
        <time>2022-01-07T13:16:07.000Z</time>
      </trkpt>
      <trkpt lat="41.4956206642091274261474609375" lon="2.1092346869409084320068359375">
        <ele>123</ele>
        <time>2022-01-07T13:16:08.000Z</time>
      </trkpt>
      <trkpt lat="41.4957571215927600860595703125" lon="2.1092152409255504608154296875">
        <ele>122.59999847412109375</ele>
        <time>2022-01-07T13:16:09.000Z</time>
      </trkpt>
      <trkpt lat="41.4958288706839084625244140625" lon="2.10920560173690319061279296875">
        <ele>122.40000152587890625</ele>
        <time>2022-01-07T13:16:10.000Z</time>
      </trkpt>
      <trkpt lat="41.49590455926954746246337890625" lon="2.10918850265443325042724609375">
        <ele>121.8000030517578125</ele>
        <time>2022-01-07T13:16:11.000Z</time>
      </trkpt>
      <trkpt lat="41.4959703572094440460205078125" lon="2.10918397642672061920166015625">
        <ele>121.1999969482421875</ele>
        <time>2022-01-07T13:16:12.000Z</time>
      </trkpt>
      <trkpt lat="41.4960186369717121124267578125" lon="2.1092035062611103057861328125">
        <ele>120.59999847412109375</ele>
        <time>2022-01-07T13:16:13.000Z</time>
      </trkpt>
      <trkpt lat="41.49603816680610179901123046875" lon="2.1092323400080204010009765625">
        <ele>120</ele>
        <time>2022-01-07T13:16:14.000Z</time>
      </trkpt>
      <trkpt lat="41.4960407651960849761962890625" lon="2.1092635206878185272216796875">
        <ele>119.59999847412109375</ele>
        <time>2022-01-07T13:16:15.000Z</time>
      </trkpt>
      <trkpt lat="41.496039591729640960693359375" lon="2.1093097887933254241943359375">
        <ele>119.40000152587890625</ele>
        <time>2022-01-07T13:16:16.000Z</time>
      </trkpt>
      <trkpt lat="41.49602450430393218994140625" lon="2.10938028059899806976318359375">
        <ele>119</ele>
        <time>2022-01-07T13:16:17.000Z</time>
      </trkpt>
      <trkpt lat="41.496000699698925018310546875" lon="2.109449766576290130615234375">
        <ele>118.59999847412109375</ele>
        <time>2022-01-07T13:16:18.000Z</time>
      </trkpt>
      <trkpt lat="41.495966501533985137939453125" lon="2.109502069652080535888671875">
        <ele>118.1999969482421875</ele>
        <time>2022-01-07T13:16:19.000Z</time>
      </trkpt>
      <trkpt lat="41.4959339797496795654296875" lon="2.1095357649028301239013671875">
        <ele>118</ele>
        <time>2022-01-07T13:16:20.000Z</time>
      </trkpt>
      <trkpt lat="41.49590757675468921661376953125" lon="2.1095605753362178802490234375">
        <ele>117.59999847412109375</ele>
        <time>2022-01-07T13:16:21.000Z</time>
      </trkpt>
      <trkpt lat="41.49590757675468921661376953125" lon="2.1095605753362178802490234375">
        <ele>117.40000152587890625</ele>
        <time>2022-01-07T13:16:22.000Z</time>
      </trkpt>
      <trkpt lat="41.495856530964374542236328125" lon="2.10960541851818561553955078125">
        <ele>117.1999969482421875</ele>
        <time>2022-01-07T13:16:23.000Z</time>
      </trkpt>
      <trkpt lat="41.49583398364484310150146484375" lon="2.10962670855224132537841796875">
        <ele>117</ele>
        <time>2022-01-07T13:16:24.000Z</time>
      </trkpt>
      <trkpt lat="41.49582778103649616241455078125" lon="2.109636180102825164794921875">
        <ele>115.8000030517578125</ele>
        <time>2022-01-07T13:16:25.000Z</time>
      </trkpt>
      <trkpt lat="41.49582778103649616241455078125" lon="2.109636180102825164794921875">
        <ele>115.8000030517578125</ele>
        <time>2022-01-07T13:16:26.000Z</time>
      </trkpt>
      <trkpt lat="41.49575519375503063201904296875" lon="2.1097121201455593109130859375">
        <ele>112</ele>
        <time>2022-01-07T13:16:39.000Z</time>
      </trkpt>
      <trkpt lat="41.49572669528424739837646484375" lon="2.1097459830343723297119140625">
        <ele>112</ele>
        <time>2022-01-07T13:16:40.000Z</time>
      </trkpt>
      <trkpt lat="41.49569836445152759552001953125" lon="2.1097650937736034393310546875">
        <ele>112</ele>
        <time>2022-01-07T13:16:41.000Z</time>
      </trkpt>
      <trkpt lat="41.49568520486354827880859375" lon="2.10975947789847850799560546875">
        <ele>112</ele>
        <time>2022-01-07T13:16:42.000Z</time>
      </trkpt>
      <trkpt lat="41.495682857930660247802734375" lon="2.10974237881600856781005859375">
        <ele>112</ele>
        <time>2022-01-07T13:16:43.000Z</time>
      </trkpt>
      <trkpt lat="41.49568176828324794769287109375" lon="2.1097382716834545135498046875">
        <ele>112</ele>
        <time>2022-01-07T13:16:44.000Z</time>
      </trkpt>
      <trkpt lat="41.49568176828324794769287109375" lon="2.1097382716834545135498046875">
        <ele>112</ele>
        <time>2022-01-07T13:16:45.000Z</time>
      </trkpt>
      <trkpt lat="41.4956818521022796630859375" lon="2.1097396127879619598388671875">
        <ele>112</ele>
        <time>2022-01-07T13:16:46.000Z</time>
      </trkpt>
      <trkpt lat="41.4956163056194782257080078125" lon="2.10967448540031909942626953125">
        <ele>109.8000030517578125</ele>
        <time>2022-01-07T13:17:48.000Z</time>
      </trkpt>
      <trkpt lat="41.49560348130762577056884765625" lon="2.10964397527277469635009765625">
        <ele>109.8000030517578125</ele>
        <time>2022-01-07T13:17:49.000Z</time>
      </trkpt>
      <trkpt lat="41.49559325538575649261474609375" lon="2.1096096932888031005859375">
        <ele>109.8000030517578125</ele>
        <time>2022-01-07T13:17:50.000Z</time>
      </trkpt>
      <trkpt lat="41.49558328092098236083984375" lon="2.10957105271518230438232421875">
        <ele>109.8000030517578125</ele>
        <time>2022-01-07T13:17:51.000Z</time>
      </trkpt>
      <trkpt lat="41.49556945078074932098388671875" lon="2.1095307357609272003173828125">
        <ele>109.8000030517578125</ele>
        <time>2022-01-07T13:17:52.000Z</time>
      </trkpt>
      <trkpt lat="41.4955479092895984649658203125" lon="2.10949142463505268096923828125">
        <ele>109.8000030517578125</ele>
        <time>2022-01-07T13:17:53.000Z</time>
      </trkpt>
      <trkpt lat="41.49552888236939907073974609375" lon="2.10945353843271732330322265625">
        <ele>109.8000030517578125</ele>
        <time>2022-01-07T13:17:54.000Z</time>
      </trkpt>
      <trkpt lat="41.4955123700201511383056640625" lon="2.10941431112587451934814453125">
        <ele>109.8000030517578125</ele>
        <time>2022-01-07T13:17:55.000Z</time>
      </trkpt>
      <trkpt lat="41.49549401365220546722412109375" lon="2.10937567055225372314453125">
        <ele>109.8000030517578125</ele>
        <time>2022-01-07T13:17:56.000Z</time>
      </trkpt>
      <trkpt lat="41.49548211134970188140869140625" lon="2.1093413047492504119873046875">
        <ele>109.8000030517578125</ele>
        <time>2022-01-07T13:17:57.000Z</time>
      </trkpt>
      <trkpt lat="41.49547171778976917266845703125" lon="2.109308280050754547119140625">
        <ele>109.8000030517578125</ele>
        <time>2022-01-07T13:17:58.000Z</time>
      </trkpt>
      <trkpt lat="41.4954600669443607330322265625" lon="2.1092770993709564208984375">
        <ele>109.59999847412109375</ele>
        <time>2022-01-07T13:17:59.000Z</time>
      </trkpt>
      <trkpt lat="41.4954520203173160552978515625" lon="2.1092434041202068328857421875">
        <ele>109.59999847412109375</ele>
        <time>2022-01-07T13:18:00.000Z</time>
      </trkpt>
      <trkpt lat="41.4954486675560474395751953125" lon="2.10920727811753749847412109375">
        <ele>109.59999847412109375</ele>
        <time>2022-01-07T13:18:01.000Z</time>
      </trkpt>
      <trkpt lat="41.49544472806155681610107421875" lon="2.1091683022677898406982421875">
        <ele>109.40000152587890625</ele>
        <time>2022-01-07T13:18:02.000Z</time>
      </trkpt>
      <trkpt lat="41.4954345859587192535400390625" lon="2.10913360118865966796875">
        <ele>109.40000152587890625</ele>
        <time>2022-01-07T13:18:03.000Z</time>
      </trkpt>
      <trkpt lat="41.495422683656215667724609375" lon="2.1091025881469249725341796875">
        <ele>109.40000152587890625</ele>
        <time>2022-01-07T13:18:04.000Z</time>
      </trkpt>
      <trkpt lat="41.4954091049730777740478515625" lon="2.1090717427432537078857421875">
        <ele>109.1999969482421875</ele>
        <time>2022-01-07T13:18:05.000Z</time>
      </trkpt>
      <trkpt lat="41.49539326317608356475830078125" lon="2.1090455912053585052490234375">
        <ele>109.1999969482421875</ele>
        <time>2022-01-07T13:18:06.000Z</time>
      </trkpt>
      <trkpt lat="41.49537834338843822479248046875" lon="2.1090113930404186248779296875">
        <ele>109.1999969482421875</ele>
        <time>2022-01-07T13:18:07.000Z</time>
      </trkpt>
      <trkpt lat="41.49536644108593463897705078125" lon="2.10897727869451045989990234375">
        <ele>109.1999969482421875</ele>
        <time>2022-01-07T13:18:08.000Z</time>
      </trkpt>
      <trkpt lat="41.49535587988793849945068359375" lon="2.10894509218633174896240234375">
        <ele>109.1999969482421875</ele>
        <time>2022-01-07T13:18:09.000Z</time>
      </trkpt>
      <trkpt lat="41.495344229042530059814453125" lon="2.10890737362205982208251953125">
        <ele>109.1999969482421875</ele>
        <time>2022-01-07T13:18:10.000Z</time>
      </trkpt>
      <trkpt lat="41.4953291416168212890625" lon="2.10886848159134387969970703125">
        <ele>109</ele>
        <time>2022-01-07T13:18:11.000Z</time>
      </trkpt>
      <trkpt lat="41.4953170716762542724609375" lon="2.108831517398357391357421875">
        <ele>109</ele>
        <time>2022-01-07T13:18:12.000Z</time>
      </trkpt>
      <trkpt lat="41.4953036606311798095703125" lon="2.1087944693863391876220703125">
        <ele>109</ele>
        <time>2022-01-07T13:18:13.000Z</time>
      </trkpt>
      <trkpt lat="41.495287232100963592529296875" lon="2.10874862037599086761474609375">
        <ele>108.8000030517578125</ele>
        <time>2022-01-07T13:18:14.000Z</time>
      </trkpt>
      <trkpt lat="41.49527692236006259918212890625" lon="2.108695395290851593017578125">
        <ele>108.8000030517578125</ele>
        <time>2022-01-07T13:18:15.000Z</time>
      </trkpt>
      <trkpt lat="41.49526284076273441314697265625" lon="2.10864166729152202606201171875">
        <ele>108.8000030517578125</ele>
        <time>2022-01-07T13:18:16.000Z</time>
      </trkpt>
      <trkpt lat="41.4952481724321842193603515625" lon="2.1085879392921924591064453125">
        <ele>108.8000030517578125</ele>
        <time>2022-01-07T13:18:17.000Z</time>
      </trkpt>
      <trkpt lat="41.49522847495973110198974609375" lon="2.10853479802608489990234375">
        <ele>108.59999847412109375</ele>
        <time>2022-01-07T13:18:18.000Z</time>
      </trkpt>
      <trkpt lat="41.49520785547792911529541015625" lon="2.10848140530288219451904296875">
        <ele>108.59999847412109375</ele>
        <time>2022-01-07T13:18:19.000Z</time>
      </trkpt>
      <trkpt lat="41.49519192986190319061279296875" lon="2.10842340253293514251708984375">
        <ele>108.59999847412109375</ele>
        <time>2022-01-07T13:18:20.000Z</time>
      </trkpt>
      <trkpt lat="41.4951827935874462127685546875" lon="2.108374871313571929931640625">
        <ele>108.59999847412109375</ele>
        <time>2022-01-07T13:18:21.000Z</time>
      </trkpt>
      <trkpt lat="41.49517315439879894256591796875" lon="2.10830421186983585357666015625">
        <ele>108.40000152587890625</ele>
        <time>2022-01-07T13:18:22.000Z</time>
      </trkpt>
      <trkpt lat="41.4951646886765956878662109375" lon="2.10824302397668361663818359375">
        <ele>108.1999969482421875</ele>
        <time>2022-01-07T13:18:23.000Z</time>
      </trkpt>
      <trkpt lat="41.4951534569263458251953125" lon="2.1081825904548168182373046875">
        <ele>108</ele>
        <time>2022-01-07T13:18:24.000Z</time>
      </trkpt>
      <trkpt lat="41.49514163844287395477294921875" lon="2.10812333039939403533935546875">
        <ele>107.8000030517578125</ele>
        <time>2022-01-07T13:18:25.000Z</time>
      </trkpt>
      <trkpt lat="41.49512738920748233795166015625" lon="2.1080672554671764373779296875">
        <ele>107.59999847412109375</ele>
        <time>2022-01-07T13:18:26.000Z</time>
      </trkpt>
      <trkpt lat="41.49511112831532955169677734375" lon="2.10801252163946628570556640625">
        <ele>107.59999847412109375</ele>
        <time>2022-01-07T13:18:27.000Z</time>
      </trkpt>
      <trkpt lat="41.4950919337570667266845703125" lon="2.1079589612782001495361328125">
        <ele>107.59999847412109375</ele>
        <time>2022-01-07T13:18:28.000Z</time>
      </trkpt>
      <trkpt lat="41.49506821297109127044677734375" lon="2.107902467250823974609375">
        <ele>107.59999847412109375</ele>
        <time>2022-01-07T13:18:29.000Z</time>
      </trkpt>
      <trkpt lat="41.49504415690898895263671875" lon="2.10784144699573516845703125">
        <ele>107.59999847412109375</ele>
        <time>2022-01-07T13:18:30.000Z</time>
      </trkpt>
      <trkpt lat="41.49502177722752094268798828125" lon="2.107779085636138916015625">
        <ele>107.40000152587890625</ele>
        <time>2022-01-07T13:18:31.000Z</time>
      </trkpt>
      <trkpt lat="41.49499990046024322509765625" lon="2.1077172271907329559326171875">
        <ele>107.40000152587890625</ele>
        <time>2022-01-07T13:18:32.000Z</time>
      </trkpt>
      <trkpt lat="41.49499990046024322509765625" lon="2.1077172271907329559326171875">
        <ele>107.40000152587890625</ele>
        <time>2022-01-07T13:18:33.000Z</time>
      </trkpt>
      <trkpt lat="41.4949618466198444366455078125" lon="2.10758621804416179656982421875">
        <ele>107.40000152587890625</ele>
        <time>2022-01-07T13:18:34.000Z</time>
      </trkpt>
      <trkpt lat="41.49494768120348453521728515625" lon="2.1075130440294742584228515625">
        <ele>107.1999969482421875</ele>
        <time>2022-01-07T13:18:35.000Z</time>
      </trkpt>
      <trkpt lat="41.49494768120348453521728515625" lon="2.1075130440294742584228515625">
        <ele>107.1999969482421875</ele>
        <time>2022-01-07T13:18:36.000Z</time>
      </trkpt>
      <trkpt lat="41.49492873810231685638427734375" lon="2.1073611639440059661865234375">
        <ele>107.1999969482421875</ele>
        <time>2022-01-07T13:18:37.000Z</time>
      </trkpt>
      <trkpt lat="41.4949165843427181243896484375" lon="2.1072900854051113128662109375">
        <ele>107.1999969482421875</ele>
        <time>2022-01-07T13:18:38.000Z</time>
      </trkpt>
      <trkpt lat="41.494903005659580230712890625" lon="2.10721808485686779022216796875">
        <ele>107</ele>
        <time>2022-01-07T13:18:39.000Z</time>
      </trkpt>
      <trkpt lat="41.49488615803420543670654296875" lon="2.10714675486087799072265625">
        <ele>107</ele>
        <time>2022-01-07T13:18:40.000Z</time>
      </trkpt>
      <trkpt lat="41.49487140588462352752685546875" lon="2.10707592777907848358154296875">
        <ele>107</ele>
        <time>2022-01-07T13:18:41.000Z</time>
      </trkpt>
      <trkpt lat="41.49486117996275424957275390625" lon="2.10700887255370616912841796875">
        <ele>107.1999969482421875</ele>
        <time>2022-01-07T13:18:42.000Z</time>
      </trkpt>
      <trkpt lat="41.49485380388796329498291015625" lon="2.10694466717541217803955078125">
        <ele>107.1999969482421875</ele>
        <time>2022-01-07T13:18:43.000Z</time>
      </trkpt>
      <trkpt lat="41.4948491938412189483642578125" lon="2.1068810485303401947021484375">
        <ele>107.40000152587890625</ele>
        <time>2022-01-07T13:18:44.000Z</time>
      </trkpt>
      <trkpt lat="41.49484626017510890960693359375" lon="2.10681893862783908843994140625">
        <ele>107.40000152587890625</ele>
        <time>2022-01-07T13:18:45.000Z</time>
      </trkpt>
      <trkpt lat="41.494843661785125732421875" lon="2.1067559905350208282470703125">
        <ele>107.40000152587890625</ele>
        <time>2022-01-07T13:18:46.000Z</time>
      </trkpt>
      <trkpt lat="41.49484139867126941680908203125" lon="2.106689773499965667724609375">
        <ele>107.40000152587890625</ele>
        <time>2022-01-07T13:18:47.000Z</time>
      </trkpt>
      <trkpt lat="41.49483762681484222412109375" lon="2.10661928169429302215576171875">
        <ele>107.40000152587890625</ele>
        <time>2022-01-07T13:18:48.000Z</time>
      </trkpt>
      <trkpt lat="41.4948361180722713470458984375" lon="2.10654334165155887603759765625">
        <ele>107.40000152587890625</ele>
        <time>2022-01-07T13:18:49.000Z</time>
      </trkpt>
      <trkpt lat="41.49483754299581050872802734375" lon="2.10646136663854122161865234375">
        <ele>107.1999969482421875</ele>
        <time>2022-01-07T13:18:50.000Z</time>
      </trkpt>
      <trkpt lat="41.4948381297290325164794921875" lon="2.1063777990639209747314453125">
        <ele>107.1999969482421875</ele>
        <time>2022-01-07T13:18:51.000Z</time>
      </trkpt>
      <trkpt lat="41.49484039284288883209228515625" lon="2.10629708133637905120849609375">
        <ele>107.1999969482421875</ele>
        <time>2022-01-07T13:18:52.000Z</time>
      </trkpt>
      <trkpt lat="41.49483955465257167816162109375" lon="2.106217704713344573974609375">
        <ele>107.1999969482421875</ele>
        <time>2022-01-07T13:18:53.000Z</time>
      </trkpt>
      <trkpt lat="41.4948388002812862396240234375" lon="2.10614101029932498931884765625">
        <ele>107.1999969482421875</ele>
        <time>2022-01-07T13:18:54.000Z</time>
      </trkpt>
      <trkpt lat="41.49483435787260532379150390625" lon="2.1060669980943202972412109375">
        <ele>107.1999969482421875</ele>
        <time>2022-01-07T13:18:55.000Z</time>
      </trkpt>
      <trkpt lat="41.49482748471200466156005859375" lon="2.10599432699382305145263671875">
        <ele>107.1999969482421875</ele>
        <time>2022-01-07T13:18:56.000Z</time>
      </trkpt>
      <trkpt lat="41.4948206953704357147216796875" lon="2.10592232644557952880859375">
        <ele>107.40000152587890625</ele>
        <time>2022-01-07T13:18:57.000Z</time>
      </trkpt>
      <trkpt lat="41.4948129840195178985595703125" lon="2.1058483980596065521240234375">
        <ele>107.40000152587890625</ele>
        <time>2022-01-07T13:18:58.000Z</time>
      </trkpt>
      <trkpt lat="41.4948076196014881134033203125" lon="2.10577539168298244476318359375">
        <ele>107.40000152587890625</ele>
        <time>2022-01-07T13:18:59.000Z</time>
      </trkpt>
      <trkpt lat="41.49480217136442661285400390625" lon="2.105702050030231475830078125">
        <ele>107.40000152587890625</ele>
        <time>2022-01-07T13:19:00.000Z</time>
      </trkpt>
      <trkpt lat="41.49479412473738193511962890625" lon="2.10562988184392452239990234375">
        <ele>107.40000152587890625</ele>
        <time>2022-01-07T13:19:01.000Z</time>
      </trkpt>
      <trkpt lat="41.49478892795741558074951171875" lon="2.10555620491504669189453125">
        <ele>107.40000152587890625</ele>
        <time>2022-01-07T13:19:02.000Z</time>
      </trkpt>
      <trkpt lat="41.49478658102452754974365234375" lon="2.10548378527164459228515625">
        <ele>107.40000152587890625</ele>
        <time>2022-01-07T13:19:03.000Z</time>
      </trkpt>
      <trkpt lat="41.494787000119686126708984375" lon="2.10541597567498683929443359375">
        <ele>107.40000152587890625</ele>
        <time>2022-01-07T13:19:04.000Z</time>
      </trkpt>
      <trkpt lat="41.49478859268128871917724609375" lon="2.10535059683024883270263671875">
        <ele>107.40000152587890625</ele>
        <time>2022-01-07T13:19:05.000Z</time>
      </trkpt>
      <trkpt lat="41.49478842504322528839111328125" lon="2.10528957657516002655029296875">
        <ele>107.40000152587890625</ele>
        <time>2022-01-07T13:19:06.000Z</time>
      </trkpt>
      <trkpt lat="41.49478423409163951873779296875" lon="2.1052378602325916290283203125">
        <ele>107.40000152587890625</ele>
        <time>2022-01-07T13:19:07.000Z</time>
      </trkpt>
      <trkpt lat="41.49477669037878513336181640625" lon="2.1051956154406070709228515625">
        <ele>107.59999847412109375</ele>
        <time>2022-01-07T13:19:08.000Z</time>
      </trkpt>
      <trkpt lat="41.49477216415107250213623046875" lon="2.10515680722892284393310546875">
        <ele>107.8000030517578125</ele>
        <time>2022-01-07T13:19:09.000Z</time>
      </trkpt>
      <trkpt lat="41.49477032013237476348876953125" lon="2.1051174961030483245849609375">
        <ele>107.8000030517578125</ele>
        <time>2022-01-07T13:19:10.000Z</time>
      </trkpt>
      <trkpt lat="41.49477367289364337921142578125" lon="2.10507734678685665130615234375">
        <ele>107.8000030517578125</ele>
        <time>2022-01-07T13:19:11.000Z</time>
      </trkpt>
      <trkpt lat="41.494780294597148895263671875" lon="2.10503342561423778533935546875">
        <ele>108</ele>
        <time>2022-01-07T13:19:12.000Z</time>
      </trkpt>
      <trkpt lat="41.4947885088622570037841796875" lon="2.10498430766165256500244140625">
        <ele>108.40000152587890625</ele>
        <time>2022-01-07T13:19:13.000Z</time>
      </trkpt>
      <trkpt lat="41.494795046746730804443359375" lon="2.10493083111941814422607421875">
        <ele>109</ele>
        <time>2022-01-07T13:19:14.000Z</time>
      </trkpt>
      <trkpt lat="41.49479865096509456634521484375" lon="2.10487718693912029266357421875">
        <ele>110</ele>
        <time>2022-01-07T13:19:15.000Z</time>
      </trkpt>
      <trkpt lat="41.4947952143847942352294921875" lon="2.10482287220656871795654296875">
        <ele>110.59999847412109375</ele>
        <time>2022-01-07T13:19:16.000Z</time>
      </trkpt>
      <trkpt lat="41.4947965554893016815185546875" lon="2.10476763546466827392578125">
        <ele>111.1999969482421875</ele>
        <time>2022-01-07T13:19:17.000Z</time>
      </trkpt>
      <trkpt lat="41.4947982318699359893798828125" lon="2.1047155000269412994384765625">
        <ele>111.8000030517578125</ele>
        <time>2022-01-07T13:19:18.000Z</time>
      </trkpt>
      <trkpt lat="41.49480451829731464385986328125" lon="2.1046585030853748321533203125">
        <ele>112.1999969482421875</ele>
        <time>2022-01-07T13:19:19.000Z</time>
      </trkpt>
      <trkpt lat="41.49481256492435932159423828125" lon="2.10459857247769832611083984375">
        <ele>112.59999847412109375</ele>
        <time>2022-01-07T13:19:20.000Z</time>
      </trkpt>
      <trkpt lat="41.4948183484375476837158203125" lon="2.1045398153364658355712890625">
        <ele>112.59999847412109375</ele>
        <time>2022-01-07T13:19:21.000Z</time>
      </trkpt>
      <trkpt lat="41.4948180131614208221435546875" lon="2.10447938181459903717041015625">
        <ele>112.8000030517578125</ele>
        <time>2022-01-07T13:19:22.000Z</time>
      </trkpt>
      <trkpt lat="41.4948210306465625762939453125" lon="2.1044147573411464691162109375">
        <ele>113</ele>
        <time>2022-01-07T13:19:23.000Z</time>
      </trkpt>
      <trkpt lat="41.49482396431267261505126953125" lon="2.1043503843247890472412109375">
        <ele>113.40000152587890625</ele>
        <time>2022-01-07T13:19:24.000Z</time>
      </trkpt>
      <trkpt lat="41.4948289096355438232421875" lon="2.1042816527187824249267578125">
        <ele>113.59999847412109375</ele>
        <time>2022-01-07T13:19:25.000Z</time>
      </trkpt>
      <trkpt lat="41.49483670480549335479736328125" lon="2.10421032272279262542724609375">
        <ele>113.8000030517578125</ele>
        <time>2022-01-07T13:19:26.000Z</time>
      </trkpt>
      <trkpt lat="41.4948384650051593780517578125" lon="2.10413455031812191009521484375">
        <ele>114.40000152587890625</ele>
        <time>2022-01-07T13:19:27.000Z</time>
      </trkpt>
      <trkpt lat="41.4948421530425548553466796875" lon="2.104061879217624664306640625">
        <ele>114.59999847412109375</ele>
        <time>2022-01-07T13:19:28.000Z</time>
      </trkpt>
      <trkpt lat="41.4948342740535736083984375" lon="2.10399222560226917266845703125">
        <ele>114.8000030517578125</ele>
        <time>2022-01-07T13:19:29.000Z</time>
      </trkpt>
      <trkpt lat="41.494823880493640899658203125" lon="2.103924416005611419677734375">
        <ele>115</ele>
        <time>2022-01-07T13:19:30.000Z</time>
      </trkpt>
      <trkpt lat="41.49482128210365772247314453125" lon="2.10385845042765140533447265625">
        <ele>115</ele>
        <time>2022-01-07T13:19:31.000Z</time>
      </trkpt>
      <trkpt lat="41.49481457658112049102783203125" lon="2.10379675962030887603759765625">
        <ele>115.1999969482421875</ele>
        <time>2022-01-07T13:19:32.000Z</time>
      </trkpt>
      <trkpt lat="41.49480485357344150543212890625" lon="2.10373842157423496246337890625">
        <ele>115.1999969482421875</ele>
        <time>2022-01-07T13:19:33.000Z</time>
      </trkpt>
      <trkpt lat="41.49479647167026996612548828125" lon="2.1036808378994464874267578125">
        <ele>115.40000152587890625</ele>
        <time>2022-01-07T13:19:34.000Z</time>
      </trkpt>
      <trkpt lat="41.49479697458446025848388671875" lon="2.10361830890178680419921875">
        <ele>115.40000152587890625</ele>
        <time>2022-01-07T13:19:35.000Z</time>
      </trkpt>
      <trkpt lat="41.49479697458446025848388671875" lon="2.10361830890178680419921875">
        <ele>115.40000152587890625</ele>
        <time>2022-01-07T13:19:36.000Z</time>
      </trkpt>
      <trkpt lat="41.49479337036609649658203125" lon="2.10348327644169330596923828125">
        <ele>115.40000152587890625</ele>
        <time>2022-01-07T13:19:37.000Z</time>
      </trkpt>
      <trkpt lat="41.49478138424456119537353515625" lon="2.10340783931314945220947265625">
        <ele>115.40000152587890625</ele>
        <time>2022-01-07T13:19:38.000Z</time>
      </trkpt>
      <trkpt lat="41.49477233178913593292236328125" lon="2.10332930088043212890625">
        <ele>115.40000152587890625</ele>
        <time>2022-01-07T13:19:39.000Z</time>
      </trkpt>
      <trkpt lat="41.49476948194205760955810546875" lon="2.103245817124843597412109375">
        <ele>115.40000152587890625</ele>
        <time>2022-01-07T13:19:40.000Z</time>
      </trkpt>
      <trkpt lat="41.4947693981230258941650390625" lon="2.1031588129699230194091796875">
        <ele>115.40000152587890625</ele>
        <time>2022-01-07T13:19:41.000Z</time>
      </trkpt>
      <trkpt lat="41.49478171952068805694580078125" lon="2.1030780114233493804931640625">
        <ele>115.40000152587890625</ele>
        <time>2022-01-07T13:19:42.000Z</time>
      </trkpt>
      <trkpt lat="41.49480368010699748992919921875" lon="2.103003077208995819091796875">
        <ele>115.40000152587890625</ele>
        <time>2022-01-07T13:19:43.000Z</time>
      </trkpt>
      <trkpt lat="41.494832597672939300537109375" lon="2.102935351431369781494140625">
        <ele>115.40000152587890625</ele>
        <time>2022-01-07T13:19:44.000Z</time>
      </trkpt>
      <trkpt lat="41.4948609285056591033935546875" lon="2.10288715548813343048095703125">
        <ele>115.1999969482421875</ele>
        <time>2022-01-07T13:19:45.000Z</time>
      </trkpt>
      <trkpt lat="41.49489906616508960723876953125" lon="2.10283200256526470184326171875">
        <ele>115.1999969482421875</ele>
        <time>2022-01-07T13:19:46.000Z</time>
      </trkpt>
      <trkpt lat="41.49494759738445281982421875" lon="2.1027719043195247650146484375">
        <ele>115</ele>
        <time>2022-01-07T13:19:47.000Z</time>
      </trkpt>
      <trkpt lat="41.49499244056642055511474609375" lon="2.1027216129004955291748046875">
        <ele>115</ele>
        <time>2022-01-07T13:19:48.000Z</time>
      </trkpt>
      <trkpt lat="41.49504340253770351409912109375" lon="2.10267023183405399322509765625">
        <ele>115</ele>
        <time>2022-01-07T13:19:49.000Z</time>
      </trkpt>
      <trkpt lat="41.495083384215831756591796875" lon="2.10262614302337169647216796875">
        <ele>115</ele>
        <time>2022-01-07T13:19:50.000Z</time>
      </trkpt>
      <trkpt lat="41.4951360225677490234375" lon="2.1025586687028408050537109375">
        <ele>115</ele>
        <time>2022-01-07T13:19:51.000Z</time>
      </trkpt>
      <trkpt lat="41.495175920426845550537109375" lon="2.1025016717612743377685546875">
        <ele>115</ele>
        <time>2022-01-07T13:19:52.000Z</time>
      </trkpt>
      <trkpt lat="41.495209448039531707763671875" lon="2.102447859942913055419921875">
        <ele>115</ele>
        <time>2022-01-07T13:19:53.000Z</time>
      </trkpt>
      <trkpt lat="41.49523618631064891815185546875" lon="2.1023886837065219879150390625">
        <ele>115</ele>
        <time>2022-01-07T13:19:54.000Z</time>
      </trkpt>
      <trkpt lat="41.49525395594537258148193359375" lon="2.1023261547088623046875">
        <ele>115</ele>
        <time>2022-01-07T13:19:55.000Z</time>
      </trkpt>
      <trkpt lat="41.49526409804821014404296875" lon="2.10226505063474178314208984375">
        <ele>115</ele>
        <time>2022-01-07T13:19:56.000Z</time>
      </trkpt>
      <trkpt lat="41.495278179645538330078125" lon="2.1022019349038600921630859375">
        <ele>115.1999969482421875</ele>
        <time>2022-01-07T13:19:57.000Z</time>
      </trkpt>
      <trkpt lat="41.495288908481597900390625" lon="2.10213647224009037017822265625">
        <ele>115.40000152587890625</ele>
        <time>2022-01-07T13:19:58.000Z</time>
      </trkpt>
      <trkpt lat="41.49530324153602123260498046875" lon="2.102066315710544586181640625">
        <ele>115.40000152587890625</ele>
        <time>2022-01-07T13:19:59.000Z</time>
      </trkpt>
      <trkpt lat="41.49532604031264781951904296875" lon="2.10199582390487194061279296875">
        <ele>116.1999969482421875</ele>
        <time>2022-01-07T13:20:00.000Z</time>
      </trkpt>
      <trkpt lat="41.49534950964152812957763671875" lon="2.10192474536597728729248046875">
        <ele>116.8000030517578125</ele>
        <time>2022-01-07T13:20:01.000Z</time>
      </trkpt>
      <trkpt lat="41.4953722245991230010986328125" lon="2.101859115064144134521484375">
        <ele>117.1999969482421875</ele>
        <time>2022-01-07T13:20:02.000Z</time>
      </trkpt>
      <trkpt lat="41.49539661593735218048095703125" lon="2.10179843008518218994140625">
        <ele>117.40000152587890625</ele>
        <time>2022-01-07T13:20:03.000Z</time>
      </trkpt>
      <trkpt lat="41.49541757069528102874755859375" lon="2.10173715837299823760986328125">
        <ele>117.59999847412109375</ele>
        <time>2022-01-07T13:20:04.000Z</time>
      </trkpt>
      <trkpt lat="41.49543902836740016937255859375" lon="2.10167706012725830078125">
        <ele>117.59999847412109375</ele>
        <time>2022-01-07T13:20:05.000Z</time>
      </trkpt>
      <trkpt lat="41.49546098895370960235595703125" lon="2.10161780007183551788330078125">
        <ele>117.8000030517578125</ele>
        <time>2022-01-07T13:20:06.000Z</time>
      </trkpt>
      <trkpt lat="41.4954775013029575347900390625" lon="2.10155711509287357330322265625">
        <ele>117.8000030517578125</ele>
        <time>2022-01-07T13:20:07.000Z</time>
      </trkpt>
      <trkpt lat="41.49549652822315692901611328125" lon="2.10148754529654979705810546875">
        <ele>118</ele>
        <time>2022-01-07T13:20:08.000Z</time>
      </trkpt>
      <trkpt lat="41.49551362730562686920166015625" lon="2.10141613148152828216552734375">
        <ele>118</ele>
        <time>2022-01-07T13:20:09.000Z</time>
      </trkpt>
      <trkpt lat="41.495528630912303924560546875" lon="2.10134186781942844390869140625">
        <ele>118</ele>
        <time>2022-01-07T13:20:10.000Z</time>
      </trkpt>
      <trkpt lat="41.49554095230996608734130859375" lon="2.1012658439576625823974609375">
        <ele>118</ele>
        <time>2022-01-07T13:20:11.000Z</time>
      </trkpt>
      <trkpt lat="41.4955465681850910186767578125" lon="2.10118286311626434326171875">
        <ele>118</ele>
        <time>2022-01-07T13:20:12.000Z</time>
      </trkpt>
      <trkpt lat="41.49555184878408908843994140625" lon="2.10109896026551723480224609375">
        <ele>118</ele>
        <time>2022-01-07T13:20:13.000Z</time>
      </trkpt>
      <trkpt lat="41.4955626614391803741455078125" lon="2.101017571985721588134765625">
        <ele>118</ele>
        <time>2022-01-07T13:20:14.000Z</time>
      </trkpt>
      <trkpt lat="41.49557121098041534423828125" lon="2.1009407937526702880859375">
        <ele>118</ele>
        <time>2022-01-07T13:20:15.000Z</time>
      </trkpt>
      <trkpt lat="41.495573557913303375244140625" lon="2.10086577571928501129150390625">
        <ele>118</ele>
        <time>2022-01-07T13:20:16.000Z</time>
      </trkpt>
      <trkpt lat="41.495573222637176513671875" lon="2.100789248943328857421875">
        <ele>118</ele>
        <time>2022-01-07T13:20:17.000Z</time>
      </trkpt>
      <trkpt lat="41.495582275092601776123046875" lon="2.1007153205573558807373046875">
        <ele>118</ele>
        <time>2022-01-07T13:20:18.000Z</time>
      </trkpt>
      <trkpt lat="41.4956028945744037628173828125" lon="2.100646086037158966064453125">
        <ele>118.1999969482421875</ele>
        <time>2022-01-07T13:20:19.000Z</time>
      </trkpt>
      <trkpt lat="41.49562577717006206512451171875" lon="2.10057576186954975128173828125">
        <ele>118.1999969482421875</ele>
        <time>2022-01-07T13:20:20.000Z</time>
      </trkpt>
      <trkpt lat="41.49564631283283233642578125" lon="2.1005024202167987823486328125">
        <ele>118.1999969482421875</ele>
        <time>2022-01-07T13:20:21.000Z</time>
      </trkpt>
      <trkpt lat="41.49566240608692169189453125" lon="2.10044257342815399169921875">
        <ele>118.1999969482421875</ele>
        <time>2022-01-07T13:20:22.000Z</time>
      </trkpt>
      <trkpt lat="41.49568160064518451690673828125" lon="2.10037208162248134613037109375">
        <ele>118.1999969482421875</ele>
        <time>2022-01-07T13:20:23.000Z</time>
      </trkpt>
      <trkpt lat="41.49569836445152759552001953125" lon="2.10030435584485530853271484375">
        <ele>118.1999969482421875</ele>
        <time>2022-01-07T13:20:24.000Z</time>
      </trkpt>
      <trkpt lat="41.4957128651440143585205078125" lon="2.1002398990094661712646484375">
        <ele>118.1999969482421875</ele>
        <time>2022-01-07T13:20:25.000Z</time>
      </trkpt>
      <trkpt lat="41.4957396872341632843017578125" lon="2.10017024539411067962646484375">
        <ele>118.1999969482421875</ele>
        <time>2022-01-07T13:20:26.000Z</time>
      </trkpt>
      <trkpt lat="41.49576676078140735626220703125" lon="2.10013202391564846038818359375">
        <ele>118.1999969482421875</ele>
        <time>2022-01-07T13:20:27.000Z</time>
      </trkpt>
      <trkpt lat="41.4957986958324909210205078125" lon="2.10008810274302959442138671875">
        <ele>118.1999969482421875</ele>
        <time>2022-01-07T13:20:28.000Z</time>
      </trkpt>
      <trkpt lat="41.49584152735769748687744140625" lon="2.100034542381763458251953125">
        <ele>118.40000152587890625</ele>
        <time>2022-01-07T13:20:29.000Z</time>
      </trkpt>
      <trkpt lat="41.4958815090358257293701171875" lon="2.099989615380764007568359375">
        <ele>118.59999847412109375</ele>
        <time>2022-01-07T13:20:30.000Z</time>
      </trkpt>
      <trkpt lat="41.49592266418039798736572265625" lon="2.09994477219879627227783203125">
        <ele>118.8000030517578125</ele>
        <time>2022-01-07T13:20:31.000Z</time>
      </trkpt>
      <trkpt lat="41.4959629811346530914306640625" lon="2.0998985879123210906982421875">
        <ele>119</ele>
        <time>2022-01-07T13:20:32.000Z</time>
      </trkpt>
      <trkpt lat="41.49599256925284862518310546875" lon="2.0998610369861125946044921875">
        <ele>119</ele>
        <time>2022-01-07T13:20:33.000Z</time>
      </trkpt>
      <trkpt lat="41.49603531695902347564697265625" lon="2.099796496331691741943359375">
        <ele>119.1999969482421875</ele>
        <time>2022-01-07T13:20:34.000Z</time>
      </trkpt>
      <trkpt lat="41.49607052095234394073486328125" lon="2.09974008612334728240966796875">
        <ele>120</ele>
        <time>2022-01-07T13:20:35.000Z</time>
      </trkpt>
      <trkpt lat="41.4961064793169498443603515625" lon="2.09968342445790767669677734375">
        <ele>120.1999969482421875</ele>
        <time>2022-01-07T13:20:36.000Z</time>
      </trkpt>
      <trkpt lat="41.49614428170025348663330078125" lon="2.0996283553540706634521484375">
        <ele>120.40000152587890625</ele>
        <time>2022-01-07T13:20:37.000Z</time>
      </trkpt>
      <trkpt lat="41.4961822517216205596923828125" lon="2.0995747111737728118896484375">
        <ele>120.59999847412109375</ele>
        <time>2022-01-07T13:20:38.000Z</time>
      </trkpt>
      <trkpt lat="41.496217958629131317138671875" lon="2.099519558250904083251953125">
        <ele>120.59999847412109375</ele>
        <time>2022-01-07T13:20:39.000Z</time>
      </trkpt>
      <trkpt lat="41.49624922312796115875244140625" lon="2.09946298040449619293212890625">
        <ele>120.8000030517578125</ele>
        <time>2022-01-07T13:20:40.000Z</time>
      </trkpt>
      <trkpt lat="41.4962727762758731842041015625" lon="2.0994027145206928253173828125">
        <ele>121</ele>
        <time>2022-01-07T13:20:41.000Z</time>
      </trkpt>
      <trkpt lat="41.49629783816635608673095703125" lon="2.09934228099882602691650390625">
        <ele>121</ele>
        <time>2022-01-07T13:20:42.000Z</time>
      </trkpt>
      <trkpt lat="41.4963247440755367279052734375" lon="2.0992796681821346282958984375">
        <ele>121.1999969482421875</ele>
        <time>2022-01-07T13:20:43.000Z</time>
      </trkpt>
      <trkpt lat="41.49634812958538532257080078125" lon="2.09921319968998432159423828125">
        <ele>121.1999969482421875</ele>
        <time>2022-01-07T13:20:44.000Z</time>
      </trkpt>
      <trkpt lat="41.49637662805616855621337890625" lon="2.09915251471102237701416015625">
        <ele>121.1999969482421875</ele>
        <time>2022-01-07T13:20:45.000Z</time>
      </trkpt>
      <trkpt lat="41.49641015566885471343994140625" lon="2.09909551776945590972900390625">
        <ele>121.1999969482421875</ele>
        <time>2022-01-07T13:20:46.000Z</time>
      </trkpt>
      <trkpt lat="41.4964430965483188629150390625" lon="2.09903935901820659637451171875">
        <ele>121.1999969482421875</ele>
        <time>2022-01-07T13:20:47.000Z</time>
      </trkpt>
      <trkpt lat="41.49647804908454418182373046875" lon="2.09898789413273334503173828125">
        <ele>121.1999969482421875</ele>
        <time>2022-01-07T13:20:48.000Z</time>
      </trkpt>
      <trkpt lat="41.49647804908454418182373046875" lon="2.09898789413273334503173828125">
        <ele>121.40000152587890625</ele>
        <time>2022-01-07T13:20:49.000Z</time>
      </trkpt>
      <trkpt lat="41.49654711596667766571044921875" lon="2.09889401681721210479736328125">
        <ele>121.40000152587890625</ele>
        <time>2022-01-07T13:20:50.000Z</time>
      </trkpt>
      <trkpt lat="41.4965802244842052459716796875" lon="2.09885361604392528533935546875">
        <ele>121.40000152587890625</ele>
        <time>2022-01-07T13:20:51.000Z</time>
      </trkpt>
      <trkpt lat="41.49661283008754253387451171875" lon="2.0988075993955135345458984375">
        <ele>121.59999847412109375</ele>
        <time>2022-01-07T13:20:52.000Z</time>
      </trkpt>
      <trkpt lat="41.49664401076734066009521484375" lon="2.09875454194843769073486328125">
        <ele>121.59999847412109375</ele>
        <time>2022-01-07T13:20:53.000Z</time>
      </trkpt>
      <trkpt lat="41.4966667257249355316162109375" lon="2.0986932702362537384033203125">
        <ele>121.8000030517578125</ele>
        <time>2022-01-07T13:20:54.000Z</time>
      </trkpt>
      <trkpt lat="41.49668005295097827911376953125" lon="2.0986272208392620086669921875">
        <ele>122</ele>
        <time>2022-01-07T13:20:55.000Z</time>
      </trkpt>
      <trkpt lat="41.4966824837028980255126953125" lon="2.0985616743564605712890625">
        <ele>122.1999969482421875</ele>
        <time>2022-01-07T13:20:56.000Z</time>
      </trkpt>
      <trkpt lat="41.4966809749603271484375" lon="2.09850626997649669647216796875">
        <ele>122.40000152587890625</ele>
        <time>2022-01-07T13:20:57.000Z</time>
      </trkpt>
      <trkpt lat="41.49667921476066112518310546875" lon="2.0984401367604732513427734375">
        <ele>122.59999847412109375</ele>
        <time>2022-01-07T13:20:58.000Z</time>
      </trkpt>
      <trkpt lat="41.49667368270456790924072265625" lon="2.09836243651807308197021484375">
        <ele>122.59999847412109375</ele>
        <time>2022-01-07T13:20:59.000Z</time>
      </trkpt>
      <trkpt lat="41.49666664190590381622314453125" lon="2.098299153149127960205078125">
        <ele>122.8000030517578125</ele>
        <time>2022-01-07T13:21:00.000Z</time>
      </trkpt>
      <trkpt lat="41.496661193668842315673828125" lon="2.0982523821294307708740234375">
        <ele>122.8000030517578125</ele>
        <time>2022-01-07T13:21:01.000Z</time>
      </trkpt>
      <trkpt lat="41.496659182012081146240234375" lon="2.09819731302559375762939453125">
        <ele>123</ele>
        <time>2022-01-07T13:21:02.000Z</time>
      </trkpt>
      <trkpt lat="41.496662199497222900390625" lon="2.09812874905765056610107421875">
        <ele>123</ele>
        <time>2022-01-07T13:21:03.000Z</time>
      </trkpt>
      <trkpt lat="41.49666689336299896240234375" lon="2.09806881844997406005859375">
        <ele>123.1999969482421875</ele>
        <time>2022-01-07T13:21:04.000Z</time>
      </trkpt>
      <trkpt lat="41.49667636491358280181884765625" lon="2.09800955839455127716064453125">
        <ele>123.1999969482421875</ele>
        <time>2022-01-07T13:21:05.000Z</time>
      </trkpt>
      <trkpt lat="41.49669078178703784942626953125" lon="2.09795339964330196380615234375">
        <ele>123.40000152587890625</ele>
        <time>2022-01-07T13:21:06.000Z</time>
      </trkpt>
      <trkpt lat="41.496707461774349212646484375" lon="2.09789992310106754302978515625">
        <ele>123.40000152587890625</ele>
        <time>2022-01-07T13:21:07.000Z</time>
      </trkpt>
      <trkpt lat="41.49672481231391429901123046875" lon="2.09784686565399169921875">
        <ele>123.59999847412109375</ele>
        <time>2022-01-07T13:21:08.000Z</time>
      </trkpt>
      <trkpt lat="41.49674735963344573974609375" lon="2.0977940596640110015869140625">
        <ele>123.8000030517578125</ele>
        <time>2022-01-07T13:21:09.000Z</time>
      </trkpt>
      <trkpt lat="41.49677007459104061126708984375" lon="2.09774150513112545013427734375">
        <ele>124</ele>
        <time>2022-01-07T13:21:10.000Z</time>
      </trkpt>
      <trkpt lat="41.49679027497768402099609375" lon="2.0976844243705272674560546875">
        <ele>124.1999969482421875</ele>
        <time>2022-01-07T13:21:11.000Z</time>
      </trkpt>
      <trkpt lat="41.49681039154529571533203125" lon="2.09762499667704105377197265625">
        <ele>124.1999969482421875</ele>
        <time>2022-01-07T13:21:12.000Z</time>
      </trkpt>
      <trkpt lat="41.49682958610355854034423828125" lon="2.09756481461226940155029296875">
        <ele>124.40000152587890625</ele>
        <time>2022-01-07T13:21:13.000Z</time>
      </trkpt>
      <trkpt lat="41.49685204960405826568603515625" lon="2.097505889832973480224609375">
        <ele>124.59999847412109375</ele>
        <time>2022-01-07T13:21:14.000Z</time>
      </trkpt>
      <trkpt lat="41.49687367491424083709716796875" lon="2.09746062755584716796875">
        <ele>124.59999847412109375</ele>
        <time>2022-01-07T13:21:15.000Z</time>
      </trkpt>
      <trkpt lat="41.49689530022442340850830078125" lon="2.09740187041461467742919921875">
        <ele>124.8000030517578125</ele>
        <time>2022-01-07T13:21:16.000Z</time>
      </trkpt>
      <trkpt lat="41.496911980211734771728515625" lon="2.09733984433114528656005859375">
        <ele>124.8000030517578125</ele>
        <time>2022-01-07T13:21:17.000Z</time>
      </trkpt>
      <trkpt lat="41.4969352819025516510009765625" lon="2.0972696878015995025634765625">
        <ele>125</ele>
        <time>2022-01-07T13:21:18.000Z</time>
      </trkpt>
      <trkpt lat="41.49696470238268375396728515625" lon="2.09721855819225311279296875">
        <ele>125</ele>
        <time>2022-01-07T13:21:19.000Z</time>
      </trkpt>
      <trkpt lat="41.49699253030121326446533203125" lon="2.09716768004000186920166015625">
        <ele>125</ele>
        <time>2022-01-07T13:21:20.000Z</time>
      </trkpt>
      <trkpt lat="41.497015245258808135986328125" lon="2.09712040610611438751220703125">
        <ele>125</ele>
        <time>2022-01-07T13:21:21.000Z</time>
      </trkpt>
      <trkpt lat="41.4970338530838489532470703125" lon="2.09708654321730136871337890625">
        <ele>125.1999969482421875</ele>
        <time>2022-01-07T13:21:22.000Z</time>
      </trkpt>
      <trkpt lat="41.4970589987933635711669921875" lon="2.0970373414456844329833984375">
        <ele>125.1999969482421875</ele>
        <time>2022-01-07T13:21:23.000Z</time>
      </trkpt>
      <trkpt lat="41.49707861244678497314453125" lon="2.09700088016688823699951171875">
        <ele>125.1999969482421875</ele>
        <time>2022-01-07T13:21:24.000Z</time>
      </trkpt>
      <trkpt lat="41.49709847755730152130126953125" lon="2.096970118582248687744140625">
        <ele>125.59999847412109375</ele>
        <time>2022-01-07T13:21:25.000Z</time>
      </trkpt>
      <trkpt lat="41.497117169201374053955078125" lon="2.09693851880729198455810546875">
        <ele>125.59999847412109375</ele>
        <time>2022-01-07T13:21:26.000Z</time>
      </trkpt>
      <trkpt lat="41.497117169201374053955078125" lon="2.09693851880729198455810546875">
        <ele>126.1999969482421875</ele>
        <time>2022-01-07T13:21:27.000Z</time>
      </trkpt>
      <trkpt lat="41.49715212173759937286376953125" lon="2.096884958446025848388671875">
        <ele>126.40000152587890625</ele>
        <time>2022-01-07T13:21:28.000Z</time>
      </trkpt>
      <trkpt lat="41.497169472277164459228515625" lon="2.096854113042354583740234375">
        <ele>126.40000152587890625</ele>
        <time>2022-01-07T13:21:29.000Z</time>
      </trkpt>
      <trkpt lat="41.4971833862364292144775390625" lon="2.09681966342031955718994140625">
        <ele>126.40000152587890625</ele>
        <time>2022-01-07T13:21:30.000Z</time>
      </trkpt>
      <trkpt lat="41.49719797074794769287109375" lon="2.09678445942699909210205078125">
        <ele>127</ele>
        <time>2022-01-07T13:21:31.000Z</time>
      </trkpt>
      <trkpt lat="41.4972187578678131103515625" lon="2.0967520214617252349853515625">
        <ele>127.40000152587890625</ele>
        <time>2022-01-07T13:21:32.000Z</time>
      </trkpt>
      <trkpt lat="41.49724113754928112030029296875" lon="2.09671874530613422393798828125">
        <ele>127.8000030517578125</ele>
        <time>2022-01-07T13:21:33.000Z</time>
      </trkpt>
      <trkpt lat="41.49726510979235172271728515625" lon="2.0966749079525470733642578125">
        <ele>128.1999969482421875</ele>
        <time>2022-01-07T13:21:34.000Z</time>
      </trkpt>
      <trkpt lat="41.497291512787342071533203125" lon="2.09662310779094696044921875">
        <ele>128.8000030517578125</ele>
        <time>2022-01-07T13:21:35.000Z</time>
      </trkpt>
      <trkpt lat="41.49731674231588840484619140625" lon="2.09657005034387111663818359375">
        <ele>129.1999969482421875</ele>
        <time>2022-01-07T13:21:36.000Z</time>
      </trkpt>
      <trkpt lat="41.497343815863132476806640625" lon="2.09652244113385677337646484375">
        <ele>129.399993896484375</ele>
        <time>2022-01-07T13:21:37.000Z</time>
      </trkpt>
      <trkpt lat="41.49737407453358173370361328125" lon="2.09648371674120426177978515625">
        <ele>129.600006103515625</ele>
        <time>2022-01-07T13:21:38.000Z</time>
      </trkpt>
      <trkpt lat="41.49740005843341350555419921875" lon="2.09644197486340999603271484375">
        <ele>129.600006103515625</ele>
        <time>2022-01-07T13:21:39.000Z</time>
      </trkpt>
      <trkpt lat="41.49742419831454753875732421875" lon="2.0963917672634124755859375">
        <ele>129.600006103515625</ele>
        <time>2022-01-07T13:21:40.000Z</time>
      </trkpt>
      <trkpt lat="41.49744071066379547119140625" lon="2.096347846090793609619140625">
        <ele>129.600006103515625</ele>
        <time>2022-01-07T13:21:41.000Z</time>
      </trkpt>
      <trkpt lat="41.49745755828917026519775390625" lon="2.09627576172351837158203125">
        <ele>129.600006103515625</ele>
        <time>2022-01-07T13:21:42.000Z</time>
      </trkpt>
      <trkpt lat="41.49747113697230815887451171875" lon="2.09621130488812923431396484375">
        <ele>129.600006103515625</ele>
        <time>2022-01-07T13:21:43.000Z</time>
      </trkpt>
      <trkpt lat="41.4974816143512725830078125" lon="2.0961468480527400970458984375">
        <ele>129.600006103515625</ele>
        <time>2022-01-07T13:21:44.000Z</time>
      </trkpt>
      <trkpt lat="41.49748588912189006805419921875" lon="2.09607752971351146697998046875">
        <ele>129.600006103515625</ele>
        <time>2022-01-07T13:21:45.000Z</time>
      </trkpt>
      <trkpt lat="41.4974868111312389373779296875" lon="2.09601902402937412261962890625">
        <ele>129.600006103515625</ele>
        <time>2022-01-07T13:21:46.000Z</time>
      </trkpt>
      <trkpt lat="41.497481279075145721435546875" lon="2.0959342829883098602294921875">
        <ele>129.399993896484375</ele>
        <time>2022-01-07T13:21:47.000Z</time>
      </trkpt>
      <trkpt lat="41.497481279075145721435546875" lon="2.0959342829883098602294921875">
        <ele>129.399993896484375</ele>
        <time>2022-01-07T13:21:48.000Z</time>
      </trkpt>
      <trkpt lat="41.497449763119220733642578125" lon="2.09579765796661376953125">
        <ele>129.1999969482421875</ele>
        <time>2022-01-07T13:21:49.000Z</time>
      </trkpt>
      <trkpt lat="41.497439034283161163330078125" lon="2.09574661217629909515380859375">
        <ele>129.1999969482421875</ele>
        <time>2022-01-07T13:21:50.000Z</time>
      </trkpt>
      <trkpt lat="41.49742872454226016998291015625" lon="2.09567955695092678070068359375">
        <ele>129</ele>
        <time>2022-01-07T13:21:51.000Z</time>
      </trkpt>
      <trkpt lat="41.4974167384207248687744140625" lon="2.09559917449951171875">
        <ele>129</ele>
        <time>2022-01-07T13:21:52.000Z</time>
      </trkpt>
      <trkpt lat="41.4974167384207248687744140625" lon="2.09559917449951171875">
        <ele>128.8000030517578125</ele>
        <time>2022-01-07T13:21:53.000Z</time>
      </trkpt>
      <trkpt lat="41.49740424938499927520751953125" lon="2.095460034906864166259765625">
        <ele>128.600006103515625</ele>
        <time>2022-01-07T13:21:54.000Z</time>
      </trkpt>
      <trkpt lat="41.49740391410887241363525390625" lon="2.0954018644988536834716796875">
        <ele>128.600006103515625</ele>
        <time>2022-01-07T13:21:55.000Z</time>
      </trkpt>
      <trkpt lat="41.4974056743085384368896484375" lon="2.09531662054359912872314453125">
        <ele>128.399993896484375</ele>
        <time>2022-01-07T13:21:56.000Z</time>
      </trkpt>
      <trkpt lat="41.49740776978433132171630859375" lon="2.09524705074727535247802734375">
        <ele>128.399993896484375</ele>
        <time>2022-01-07T13:21:57.000Z</time>
      </trkpt>
      <trkpt lat="41.49740776978433132171630859375" lon="2.09524705074727535247802734375">
        <ele>128.399993896484375</ele>
        <time>2022-01-07T13:21:58.000Z</time>
      </trkpt>
      <trkpt lat="41.49741933681070804595947265625" lon="2.09510975517332553863525390625">
        <ele>128.399993896484375</ele>
        <time>2022-01-07T13:21:59.000Z</time>
      </trkpt>
      <trkpt lat="41.49742738343775272369384765625" lon="2.09504068829119205474853515625">
        <ele>128.399993896484375</ele>
        <time>2022-01-07T13:22:00.000Z</time>
      </trkpt>
      <trkpt lat="41.49742738343775272369384765625" lon="2.09504068829119205474853515625">
        <ele>128.399993896484375</ele>
        <time>2022-01-07T13:22:01.000Z</time>
      </trkpt>
      <trkpt lat="41.4974381960928440093994140625" lon="2.09488998167216777801513671875">
        <ele>128.399993896484375</ele>
        <time>2022-01-07T13:22:02.000Z</time>
      </trkpt>
      <trkpt lat="41.49744699709117412567138671875" lon="2.094814963638782501220703125">
        <ele>128.399993896484375</ele>
        <time>2022-01-07T13:22:03.000Z</time>
      </trkpt>
      <trkpt lat="41.49744699709117412567138671875" lon="2.094814963638782501220703125">
        <ele>128.399993896484375</ele>
        <time>2022-01-07T13:22:04.000Z</time>
      </trkpt>
      <trkpt lat="41.49746619164943695068359375" lon="2.0946609042584896087646484375">
        <ele>128.399993896484375</ele>
        <time>2022-01-07T13:22:05.000Z</time>
      </trkpt>
      <trkpt lat="41.49747901596128940582275390625" lon="2.09458974190056324005126953125">
        <ele>128.600006103515625</ele>
        <time>2022-01-07T13:22:06.000Z</time>
      </trkpt>
      <trkpt lat="41.49749896489083766937255859375" lon="2.09452335722744464874267578125">
        <ele>128.8000030517578125</ele>
        <time>2022-01-07T13:22:07.000Z</time>
      </trkpt>
      <trkpt lat="41.4975226856768131256103515625" lon="2.094461917877197265625">
        <ele>129</ele>
        <time>2022-01-07T13:22:08.000Z</time>
      </trkpt>
      <trkpt lat="41.497547328472137451171875" lon="2.094405256211757659912109375">
        <ele>129</ele>
        <time>2022-01-07T13:22:09.000Z</time>
      </trkpt>
      <trkpt lat="41.49757356382906436920166015625" lon="2.09434926509857177734375">
        <ele>129.1999969482421875</ele>
        <time>2022-01-07T13:22:10.000Z</time>
      </trkpt>
      <trkpt lat="41.4975996315479278564453125" lon="2.09428782574832439422607421875">
        <ele>129.1999969482421875</ele>
        <time>2022-01-07T13:22:11.000Z</time>
      </trkpt>
      <trkpt lat="41.4976210892200469970703125" lon="2.094224207103252410888671875">
        <ele>129.1999969482421875</ele>
        <time>2022-01-07T13:22:12.000Z</time>
      </trkpt>
      <trkpt lat="41.49764363653957843780517578125" lon="2.0941610075533390045166015625">
        <ele>129.600006103515625</ele>
        <time>2022-01-07T13:22:13.000Z</time>
      </trkpt>
      <trkpt lat="41.497663669288158416748046875" lon="2.094098143279552459716796875">
        <ele>130</ele>
        <time>2022-01-07T13:22:14.000Z</time>
      </trkpt>
      <trkpt lat="41.49768068455159664154052734375" lon="2.09403150714933872222900390625">
        <ele>130.1999969482421875</ele>
        <time>2022-01-07T13:22:15.000Z</time>
      </trkpt>
      <trkpt lat="41.4976909942924976348876953125" lon="2.09396378137171268463134765625">
        <ele>130.399993896484375</ele>
        <time>2022-01-07T13:22:16.000Z</time>
      </trkpt>
      <trkpt lat="41.4976909942924976348876953125" lon="2.09396378137171268463134765625">
        <ele>131</ele>
        <time>2022-01-07T13:22:17.000Z</time>
      </trkpt>
      <trkpt lat="41.49768923409283161163330078125" lon="2.09383687935769557952880859375">
        <ele>131.399993896484375</ele>
        <time>2022-01-07T13:22:18.000Z</time>
      </trkpt>
      <trkpt lat="41.49768923409283161163330078125" lon="2.09377652965486049652099609375">
        <ele>131.600006103515625</ele>
        <time>2022-01-07T13:22:19.000Z</time>
      </trkpt>
      <trkpt lat="41.49769552052021026611328125" lon="2.0937160961329936981201171875">
        <ele>131.8000030517578125</ele>
        <time>2022-01-07T13:22:20.000Z</time>
      </trkpt>
      <trkpt lat="41.497707255184650421142578125" lon="2.09365792572498321533203125">
        <ele>132</ele>
        <time>2022-01-07T13:22:21.000Z</time>
      </trkpt>
      <trkpt lat="41.49772100150585174560546875" lon="2.09359581582248210906982421875">
        <ele>132.1999969482421875</ele>
        <time>2022-01-07T13:22:22.000Z</time>
      </trkpt>
      <trkpt lat="41.4977396093308925628662109375" lon="2.09353261627256870269775390625">
        <ele>132.8000030517578125</ele>
        <time>2022-01-07T13:22:23.000Z</time>
      </trkpt>
      <trkpt lat="41.497758887708187103271484375" lon="2.09346841089427471160888671875">
        <ele>133.1999969482421875</ele>
        <time>2022-01-07T13:22:24.000Z</time>
      </trkpt>
      <trkpt lat="41.49778126738965511322021484375" lon="2.093408145010471343994140625">
        <ele>133.1999969482421875</ele>
        <time>2022-01-07T13:22:25.000Z</time>
      </trkpt>
      <trkpt lat="41.49780557490885257720947265625" lon="2.0933539979159832000732421875">
        <ele>133.600006103515625</ele>
        <time>2022-01-07T13:22:26.000Z</time>
      </trkpt>
      <trkpt lat="41.49782937951385974884033203125" lon="2.0932980068027973175048828125">
        <ele>133.8000030517578125</ele>
        <time>2022-01-07T13:22:27.000Z</time>
      </trkpt>
      <trkpt lat="41.4978499151766300201416015625" lon="2.093235813081264495849609375">
        <ele>134.1999969482421875</ele>
        <time>2022-01-07T13:22:28.000Z</time>
      </trkpt>
      <trkpt lat="41.497863829135894775390625" lon="2.09316976368427276611328125">
        <ele>134.399993896484375</ele>
        <time>2022-01-07T13:22:29.000Z</time>
      </trkpt>
      <trkpt lat="41.49787656962871551513671875" lon="2.0930998586118221282958984375">
        <ele>134.600006103515625</ele>
        <time>2022-01-07T13:22:30.000Z</time>
      </trkpt>
      <trkpt lat="41.4978919923305511474609375" lon="2.0930317975580692291259765625">
        <ele>134.8000030517578125</ele>
        <time>2022-01-07T13:22:31.000Z</time>
      </trkpt>
      <trkpt lat="41.4979116059839725494384765625" lon="2.09296868182718753814697265625">
        <ele>135</ele>
        <time>2022-01-07T13:22:32.000Z</time>
      </trkpt>
      <trkpt lat="41.49793281219899654388427734375" lon="2.09290682338178157806396484375">
        <ele>135.1999969482421875</ele>
        <time>2022-01-07T13:22:33.000Z</time>
      </trkpt>
      <trkpt lat="41.497957371175289154052734375" lon="2.0928460545837879180908203125">
        <ele>135.1999969482421875</ele>
        <time>2022-01-07T13:22:34.000Z</time>
      </trkpt>
      <trkpt lat="41.4979833550751209259033203125" lon="2.0927863754332065582275390625">
        <ele>135.1999969482421875</ele>
        <time>2022-01-07T13:22:35.000Z</time>
      </trkpt>
      <trkpt lat="41.49801202118396759033203125" lon="2.092730216681957244873046875">
        <ele>135.399993896484375</ele>
        <time>2022-01-07T13:22:36.000Z</time>
      </trkpt>
      <trkpt lat="41.49804429151117801666259765625" lon="2.09267833270132541656494140625">
        <ele>135.399993896484375</ele>
        <time>2022-01-07T13:22:37.000Z</time>
      </trkpt>
      <trkpt lat="41.4980768971145153045654296875" lon="2.0926287956535816192626953125">
        <ele>135.600006103515625</ele>
        <time>2022-01-07T13:22:38.000Z</time>
      </trkpt>
      <trkpt lat="41.49810698814690113067626953125" lon="2.09257699549198150634765625">
        <ele>135.600006103515625</ele>
        <time>2022-01-07T13:22:39.000Z</time>
      </trkpt>
      <trkpt lat="41.4981385879218578338623046875" lon="2.09252712316811084747314453125">
        <ele>135.8000030517578125</ele>
        <time>2022-01-07T13:22:40.000Z</time>
      </trkpt>
      <trkpt lat="41.49818024598062038421630859375" lon="2.0924873091280460357666015625">
        <ele>135.8000030517578125</ele>
        <time>2022-01-07T13:22:41.000Z</time>
      </trkpt>
      <trkpt lat="41.49822349660098552703857421875" lon="2.09245889447629451751708984375">
        <ele>135.8000030517578125</ele>
        <time>2022-01-07T13:22:42.000Z</time>
      </trkpt>
      <trkpt lat="41.498265825212001800537109375" lon="2.09244229830801486968994140625">
        <ele>136</ele>
        <time>2022-01-07T13:22:43.000Z</time>
      </trkpt>
      <trkpt lat="41.49831108748912811279296875" lon="2.09244011901319026947021484375">
        <ele>136.1999969482421875</ele>
        <time>2022-01-07T13:22:44.000Z</time>
      </trkpt>
      <trkpt lat="41.4983467943966388702392578125" lon="2.092449255287647247314453125">
        <ele>136.8000030517578125</ele>
        <time>2022-01-07T13:22:45.000Z</time>
      </trkpt>
      <trkpt lat="41.49839314632117748260498046875" lon="2.09247230552136898040771484375">
        <ele>137.1999969482421875</ele>
        <time>2022-01-07T13:22:46.000Z</time>
      </trkpt>
      <trkpt lat="41.4984249137341976165771484375" lon="2.0924933440983295440673828125">
        <ele>137.399993896484375</ele>
        <time>2022-01-07T13:22:47.000Z</time>
      </trkpt>
      <trkpt lat="41.49845416657626628875732421875" lon="2.0925064198672771453857421875">
        <ele>137.399993896484375</ele>
        <time>2022-01-07T13:22:48.000Z</time>
      </trkpt>
      <trkpt lat="41.4984842576086521148681640625" lon="2.09251304157078266143798828125">
        <ele>137.600006103515625</ele>
        <time>2022-01-07T13:22:49.000Z</time>
      </trkpt>
      <trkpt lat="41.49851216934621334075927734375" lon="2.0925194956362247467041015625">
        <ele>137.600006103515625</ele>
        <time>2022-01-07T13:22:50.000Z</time>
      </trkpt>
      <trkpt lat="41.4985379017889499664306640625" lon="2.0925272069871425628662109375">
        <ele>137.8000030517578125</ele>
        <time>2022-01-07T13:22:51.000Z</time>
      </trkpt>
      <trkpt lat="41.4985643886029720306396484375" lon="2.09253231994807720184326171875">
        <ele>138</ele>
        <time>2022-01-07T13:22:52.000Z</time>
      </trkpt>
      <trkpt lat="41.49859179742634296417236328125" lon="2.09253609180450439453125">
        <ele>138.1999969482421875</ele>
        <time>2022-01-07T13:22:53.000Z</time>
      </trkpt>
      <trkpt lat="41.49861476384103298187255859375" lon="2.0925349183380603790283203125">
        <ele>138.1999969482421875</ele>
        <time>2022-01-07T13:22:54.000Z</time>
      </trkpt>
      <trkpt lat="41.4986361376941204071044921875" lon="2.09252695553004741668701171875">
        <ele>138.600006103515625</ele>
        <time>2022-01-07T13:22:55.000Z</time>
      </trkpt>
      <trkpt lat="41.49865843355655670166015625" lon="2.0925111137330532073974609375">
        <ele>139.1999969482421875</ele>
        <time>2022-01-07T13:22:56.000Z</time>
      </trkpt>
      <trkpt lat="41.49868282489478588104248046875" lon="2.092494852840900421142578125">
        <ele>139.8000030517578125</ele>
        <time>2022-01-07T13:22:57.000Z</time>
      </trkpt>
      <trkpt lat="41.49870579130947589874267578125" lon="2.09248839877545833587646484375">
        <ele>140.1999969482421875</ele>
        <time>2022-01-07T13:22:58.000Z</time>
      </trkpt>
      <trkpt lat="41.4987246505916118621826171875" lon="2.0924856327474117279052734375">
        <ele>140.8000030517578125</ele>
        <time>2022-01-07T13:22:59.000Z</time>
      </trkpt>
      <trkpt lat="41.498743593692779541015625" lon="2.09248471073806285858154296875">
        <ele>141.399993896484375</ele>
        <time>2022-01-07T13:23:00.000Z</time>
      </trkpt>
      <trkpt lat="41.49876111187040805816650390625" lon="2.092481441795825958251953125">
        <ele>142</ele>
        <time>2022-01-07T13:23:01.000Z</time>
      </trkpt>
      <trkpt lat="41.49877846240997314453125" lon="2.09247482009232044219970703125">
        <ele>142.600006103515625</ele>
        <time>2022-01-07T13:23:02.000Z</time>
      </trkpt>
      <trkpt lat="41.49879992008209228515625" lon="2.09246509708464145660400390625">
        <ele>143.399993896484375</ele>
        <time>2022-01-07T13:23:03.000Z</time>
      </trkpt>
      <trkpt lat="41.49882380850613117218017578125" lon="2.0924591459333896636962890625">
        <ele>144.1999969482421875</ele>
        <time>2022-01-07T13:23:04.000Z</time>
      </trkpt>
      <trkpt lat="41.49884878657758235931396484375" lon="2.09246241487562656402587890625">
        <ele>144.8000030517578125</ele>
        <time>2022-01-07T13:23:05.000Z</time>
      </trkpt>
      <trkpt lat="41.49887829087674617767333984375" lon="2.09246308542788028717041015625">
        <ele>145.399993896484375</ele>
        <time>2022-01-07T13:23:06.000Z</time>
      </trkpt>
      <trkpt lat="41.49890712462365627288818359375" lon="2.09246241487562656402587890625">
        <ele>145.8000030517578125</ele>
        <time>2022-01-07T13:23:07.000Z</time>
      </trkpt>
      <trkpt lat="41.49893294088542461395263671875" lon="2.092462666332721710205078125">
        <ele>146.1999969482421875</ele>
        <time>2022-01-07T13:23:08.000Z</time>
      </trkpt>
      <trkpt lat="41.4989586733281612396240234375" lon="2.0924621634185314178466796875">
        <ele>146.8000030517578125</ele>
        <time>2022-01-07T13:23:09.000Z</time>
      </trkpt>
      <trkpt lat="41.4989851601421833038330078125" lon="2.0924635045230388641357421875">
        <ele>147.399993896484375</ele>
        <time>2022-01-07T13:23:10.000Z</time>
      </trkpt>
      <trkpt lat="41.49901156313717365264892578125" lon="2.0924661867320537567138671875">
        <ele>147.8000030517578125</ele>
        <time>2022-01-07T13:23:11.000Z</time>
      </trkpt>
      <trkpt lat="41.49903922341763973236083984375" lon="2.0924685336649417877197265625">
        <ele>148</ele>
        <time>2022-01-07T13:23:12.000Z</time>
      </trkpt>
      <trkpt lat="41.49906705133616924285888671875" lon="2.092469036579132080078125">
        <ele>148.399993896484375</ele>
        <time>2022-01-07T13:23:13.000Z</time>
      </trkpt>
      <trkpt lat="41.4990921132266521453857421875" lon="2.0924655161798000335693359375">
        <ele>148.8000030517578125</ele>
        <time>2022-01-07T13:23:14.000Z</time>
      </trkpt>
      <trkpt lat="41.49911348707973957061767578125" lon="2.0924601517617702484130859375">
        <ele>149.1999969482421875</ele>
        <time>2022-01-07T13:23:15.000Z</time>
      </trkpt>
      <trkpt lat="41.49913745932281017303466796875" lon="2.09245084784924983978271484375">
        <ele>149.8000030517578125</ele>
        <time>2022-01-07T13:23:16.000Z</time>
      </trkpt>
      <trkpt lat="41.4991660416126251220703125" lon="2.092431150376796722412109375">
        <ele>150.600006103515625</ele>
        <time>2022-01-07T13:23:17.000Z</time>
      </trkpt>
      <trkpt lat="41.49919428862631320953369140625" lon="2.0924011431634426116943359375">
        <ele>151</ele>
        <time>2022-01-07T13:23:18.000Z</time>
      </trkpt>
      <trkpt lat="41.49922127835452556610107421875" lon="2.09237021394073963165283203125">
        <ele>151.1999969482421875</ele>
        <time>2022-01-07T13:23:19.000Z</time>
      </trkpt>
      <trkpt lat="41.4992503635585308074951171875" lon="2.09234305657446384429931640625">
        <ele>151.399993896484375</ele>
        <time>2022-01-07T13:23:20.000Z</time>
      </trkpt>
      <trkpt lat="41.499279029667377471923828125" lon="2.09231556393206119537353515625">
        <ele>152</ele>
        <time>2022-01-07T13:23:21.000Z</time>
      </trkpt>
      <trkpt lat="41.499305181205272674560546875" lon="2.09228404797613620758056640625">
        <ele>152</ele>
        <time>2022-01-07T13:23:22.000Z</time>
      </trkpt>
      <trkpt lat="41.499326638877391815185546875" lon="2.09224934689700603485107421875">
        <ele>152.399993896484375</ele>
        <time>2022-01-07T13:23:23.000Z</time>
      </trkpt>
      <trkpt lat="41.49934734217822551727294921875" lon="2.0922137238085269927978515625">
        <ele>153</ele>
        <time>2022-01-07T13:23:24.000Z</time>
      </trkpt>
      <trkpt lat="41.49936921894550323486328125" lon="2.09217474795877933502197265625">
        <ele>153.1999969482421875</ele>
        <time>2022-01-07T13:23:25.000Z</time>
      </trkpt>
      <trkpt lat="41.49939377792179584503173828125" lon="2.09213183261454105377197265625">
        <ele>153.399993896484375</ele>
        <time>2022-01-07T13:23:26.000Z</time>
      </trkpt>
      <trkpt lat="41.49941992945969104766845703125" lon="2.09208774380385875701904296875">
        <ele>153.600006103515625</ele>
        <time>2022-01-07T13:23:27.000Z</time>
      </trkpt>
      <trkpt lat="41.4994451589882373809814453125" lon="2.09204348735511302947998046875">
        <ele>153.600006103515625</ele>
        <time>2022-01-07T13:23:28.000Z</time>
      </trkpt>
      <trkpt lat="41.499467790126800537109375" lon="2.09200409241020679473876953125">
        <ele>153.8000030517578125</ele>
        <time>2022-01-07T13:23:29.000Z</time>
      </trkpt>
      <trkpt lat="41.49948899634182453155517578125" lon="2.09196838550269603729248046875">
        <ele>153.8000030517578125</ele>
        <time>2022-01-07T13:23:30.000Z</time>
      </trkpt>
      <trkpt lat="41.49950877763330936431884765625" lon="2.0919334329664707183837890625">
        <ele>153.8000030517578125</ele>
        <time>2022-01-07T13:23:31.000Z</time>
      </trkpt>
      <trkpt lat="41.4995308220386505126953125" lon="2.091899402439594268798828125">
        <ele>153.8000030517578125</ele>
        <time>2022-01-07T13:23:32.000Z</time>
      </trkpt>
      <trkpt lat="41.49955990724265575408935546875" lon="2.0918667130172252655029296875">
        <ele>154</ele>
        <time>2022-01-07T13:23:33.000Z</time>
      </trkpt>
      <trkpt lat="41.49959175847470760345458984375" lon="2.09183670580387115478515625">
        <ele>154</ele>
        <time>2022-01-07T13:23:34.000Z</time>
      </trkpt>
      <trkpt lat="41.49962662719190120697021484375" lon="2.091816253960132598876953125">
        <ele>154</ele>
        <time>2022-01-07T13:23:35.000Z</time>
      </trkpt>
      <trkpt lat="41.49966116063296794891357421875" lon="2.0917999930679798126220703125">
        <ele>154.1999969482421875</ele>
        <time>2022-01-07T13:23:36.000Z</time>
      </trkpt>
      <trkpt lat="41.4996979571878910064697265625" lon="2.09178465418517589569091796875">
        <ele>154.1999969482421875</ele>
        <time>2022-01-07T13:23:37.000Z</time>
      </trkpt>
      <trkpt lat="41.49973341263830661773681640625" lon="2.09176965057849884033203125">
        <ele>154.1999969482421875</ele>
        <time>2022-01-07T13:23:38.000Z</time>
      </trkpt>
      <trkpt lat="41.49977155029773712158203125" lon="2.091751880943775177001953125">
        <ele>154.1999969482421875</ele>
        <time>2022-01-07T13:23:39.000Z</time>
      </trkpt>
      <trkpt lat="41.4998082630336284637451171875" lon="2.09173084236681461334228515625">
        <ele>154.1999969482421875</ele>
        <time>2022-01-07T13:23:40.000Z</time>
      </trkpt>
      <trkpt lat="41.49984220974147319793701171875" lon="2.091707289218902587890625">
        <ele>154.1999969482421875</ele>
        <time>2022-01-07T13:23:41.000Z</time>
      </trkpt>
      <trkpt lat="41.49987473152577877044677734375" lon="2.0916843228042125701904296875">
        <ele>154.399993896484375</ele>
        <time>2022-01-07T13:23:42.000Z</time>
      </trkpt>
      <trkpt lat="41.4999068342149257659912109375" lon="2.09165909327566623687744140625">
        <ele>154.600006103515625</ele>
        <time>2022-01-07T13:23:43.000Z</time>
      </trkpt>
      <trkpt lat="41.4999386854469776153564453125" lon="2.09162824787199497222900390625">
        <ele>154.600006103515625</ele>
        <time>2022-01-07T13:23:44.000Z</time>
      </trkpt>
      <trkpt lat="41.49996978230774402618408203125" lon="2.09159220568835735321044921875">
        <ele>155</ele>
        <time>2022-01-07T13:23:45.000Z</time>
      </trkpt>
      <trkpt lat="41.50000297464430332183837890625" lon="2.09155909717082977294921875">
        <ele>155.1999969482421875</ele>
        <time>2022-01-07T13:23:46.000Z</time>
      </trkpt>
      <trkpt lat="41.5000352449715137481689453125" lon="2.09152598865330219268798828125">
        <ele>155.399993896484375</ele>
        <time>2022-01-07T13:23:47.000Z</time>
      </trkpt>
      <trkpt lat="41.500066928565502166748046875" lon="2.09149111993610858917236328125">
        <ele>155.600006103515625</ele>
        <time>2022-01-07T13:23:48.000Z</time>
      </trkpt>
      <trkpt lat="41.50009836070239543914794921875" lon="2.0914590172469615936279296875">
        <ele>155.8000030517578125</ele>
        <time>2022-01-07T13:23:49.000Z</time>
      </trkpt>
      <trkpt lat="41.50012451224029064178466796875" lon="2.09142423234879970550537109375">
        <ele>156.1999969482421875</ele>
        <time>2022-01-07T13:23:50.000Z</time>
      </trkpt>
      <trkpt lat="41.5001477301120758056640625" lon="2.0913921296596527099609375">
        <ele>156.1999969482421875</ele>
        <time>2022-01-07T13:23:51.000Z</time>
      </trkpt>
      <trkpt lat="41.5001713670790195465087890625" lon="2.09136069752275943756103515625">
        <ele>156.600006103515625</ele>
        <time>2022-01-07T13:23:52.000Z</time>
      </trkpt>
      <trkpt lat="41.50019793771207332611083984375" lon="2.09133320488035678863525390625">
        <ele>156.8000030517578125</ele>
        <time>2022-01-07T13:23:53.000Z</time>
      </trkpt>
      <trkpt lat="41.50022484362125396728515625" lon="2.091306634247303009033203125">
        <ele>157.1999969482421875</ele>
        <time>2022-01-07T13:23:54.000Z</time>
      </trkpt>
      <trkpt lat="41.50024739094078540802001953125" lon="2.0912793092429637908935546875">
        <ele>157.600006103515625</ele>
        <time>2022-01-07T13:23:55.000Z</time>
      </trkpt>
      <trkpt lat="41.50026641786098480224609375" lon="2.09125273860991001129150390625">
        <ele>157.8000030517578125</ele>
        <time>2022-01-07T13:23:56.000Z</time>
      </trkpt>
      <trkpt lat="41.50028494186699390411376953125" lon="2.0912243239581584930419921875">
        <ele>158</ele>
        <time>2022-01-07T13:23:57.000Z</time>
      </trkpt>
      <trkpt lat="41.5003031305968761444091796875" lon="2.0911995135247707366943359375">
        <ele>158.1999969482421875</ele>
        <time>2022-01-07T13:23:58.000Z</time>
      </trkpt>
      <trkpt lat="41.5003031305968761444091796875" lon="2.0911995135247707366943359375">
        <ele>158.600006103515625</ele>
        <time>2022-01-07T13:23:59.000Z</time>
      </trkpt>
      <trkpt lat="41.5003222413361072540283203125" lon="2.09117285907268524169921875">
        <ele>159.1999969482421875</ele>
        <time>2022-01-07T13:24:00.000Z</time>
      </trkpt>
      <trkpt lat="41.5003597922623157501220703125" lon="2.09112332202494144439697265625">
        <ele>159.399993896484375</ele>
        <time>2022-01-07T13:24:01.000Z</time>
      </trkpt>
      <trkpt lat="41.50037278421223163604736328125" lon="2.09111125208437442779541015625">
        <ele>159.8000030517578125</ele>
        <time>2022-01-07T13:24:02.000Z</time>
      </trkpt>
      <trkpt lat="41.50038175284862518310546875" lon="2.09109775722026824951171875">
        <ele>160.1999969482421875</ele>
        <time>2022-01-07T13:24:03.000Z</time>
      </trkpt>
      <trkpt lat="41.50038845837116241455078125" lon="2.09108166396617889404296875">
        <ele>160.600006103515625</ele>
        <time>2022-01-07T13:24:04.000Z</time>
      </trkpt>
      <trkpt lat="41.5003956668078899383544921875" lon="2.09106649272143840789794921875">
        <ele>160.8000030517578125</ele>
        <time>2022-01-07T13:24:05.000Z</time>
      </trkpt>
      <trkpt lat="41.50040530599653720855712890625" lon="2.091057859361171722412109375">
        <ele>161</ele>
        <time>2022-01-07T13:24:06.000Z</time>
      </trkpt>
      <trkpt lat="41.500417627394199371337890625" lon="2.091059200465679168701171875">
        <ele>161.399993896484375</ele>
        <time>2022-01-07T13:24:07.000Z</time>
      </trkpt>
      <trkpt lat="41.50043531320989131927490234375" lon="2.0910643972456455230712890625">
        <ele>161.600006103515625</ele>
        <time>2022-01-07T13:24:08.000Z</time>
      </trkpt>
      <trkpt lat="41.50045811198651790618896484375" lon="2.0910654030740261077880859375">
        <ele>161.8000030517578125</ele>
        <time>2022-01-07T13:24:09.000Z</time>
      </trkpt>
      <trkpt lat="41.500487364828586578369140625" lon="2.09106146357953548431396484375">
        <ele>162.1999969482421875</ele>
        <time>2022-01-07T13:24:10.000Z</time>
      </trkpt>
      <trkpt lat="41.50051259435713291168212890625" lon="2.09105886518955230712890625">
        <ele>162.600006103515625</ele>
        <time>2022-01-07T13:24:11.000Z</time>
      </trkpt>
      <trkpt lat="41.5005441941320896148681640625" lon="2.09105391986668109893798828125">
        <ele>162.8000030517578125</ele>
        <time>2022-01-07T13:24:12.000Z</time>
      </trkpt>
      <trkpt lat="41.50057026185095310211181640625" lon="2.09104386158287525177001953125">
        <ele>163</ele>
        <time>2022-01-07T13:24:13.000Z</time>
      </trkpt>
      <trkpt lat="41.50057026185095310211181640625" lon="2.09104386158287525177001953125">
        <ele>163.1999969482421875</ele>
        <time>2022-01-07T13:24:14.000Z</time>
      </trkpt>
      <trkpt lat="41.5006082318723201751708984375" lon="2.0910352282226085662841796875">
        <ele>163.1999969482421875</ele>
        <time>2022-01-07T13:24:15.000Z</time>
      </trkpt>
      <trkpt lat="41.50063010863959789276123046875" lon="2.09104956127703189849853515625">
        <ele>163.399993896484375</ele>
        <time>2022-01-07T13:24:16.000Z</time>
      </trkpt>
      <trkpt lat="41.5006538294255733489990234375" lon="2.09107629954814910888671875">
        <ele>163.399993896484375</ele>
        <time>2022-01-07T13:24:17.000Z</time>
      </trkpt>
      <trkpt lat="41.50067805312573909759521484375" lon="2.091107480227947235107421875">
        <ele>163.399993896484375</ele>
        <time>2022-01-07T13:24:18.000Z</time>
      </trkpt>
      <trkpt lat="41.5007081441581249237060546875" lon="2.09113933145999908447265625">
        <ele>163.399993896484375</ele>
        <time>2022-01-07T13:24:19.000Z</time>
      </trkpt>
      <trkpt lat="41.5007399953901767730712890625" lon="2.091165147721767425537109375">
        <ele>163.600006103515625</ele>
        <time>2022-01-07T13:24:20.000Z</time>
      </trkpt>
      <trkpt lat="41.50077444501221179962158203125" lon="2.09118367172777652740478515625">
        <ele>163.8000030517578125</ele>
        <time>2022-01-07T13:24:21.000Z</time>
      </trkpt>
      <trkpt lat="41.500810571014881134033203125" lon="2.091195993125438690185546875">
        <ele>164</ele>
        <time>2022-01-07T13:24:22.000Z</time>
      </trkpt>
      <trkpt lat="41.500846445560455322265625" lon="2.0912068895995616912841796875">
        <ele>164.399993896484375</ele>
        <time>2022-01-07T13:24:23.000Z</time>
      </trkpt>
      <trkpt lat="41.5008791349828243255615234375" lon="2.0912159420549869537353515625">
        <ele>164.600006103515625</ele>
        <time>2022-01-07T13:24:24.000Z</time>
      </trkpt>
      <trkpt lat="41.50091174058616161346435546875" lon="2.09121971391141414642333984375">
        <ele>164.8000030517578125</ele>
        <time>2022-01-07T13:24:25.000Z</time>
      </trkpt>
      <trkpt lat="41.5009525604546070098876953125" lon="2.0912162773311138153076171875">
        <ele>164.8000030517578125</ele>
        <time>2022-01-07T13:24:26.000Z</time>
      </trkpt>
      <trkpt lat="41.50097787380218505859375" lon="2.09120102226734161376953125">
        <ele>165</ele>
        <time>2022-01-07T13:24:27.000Z</time>
      </trkpt>
      <trkpt lat="41.5010082162916660308837890625" lon="2.091176211833953857421875">
        <ele>165</ele>
        <time>2022-01-07T13:24:28.000Z</time>
      </trkpt>
      <trkpt lat="41.50103311054408550262451171875" lon="2.0911495573818683624267578125">
        <ele>165</ele>
        <time>2022-01-07T13:24:29.000Z</time>
      </trkpt>
      <trkpt lat="41.50106303393840789794921875" lon="2.09112600423395633697509765625">
        <ele>165</ele>
        <time>2022-01-07T13:24:30.000Z</time>
      </trkpt>
      <trkpt lat="41.50108792819082736968994140625" lon="2.09111519157886505126953125">
        <ele>165.1999969482421875</ele>
        <time>2022-01-07T13:24:31.000Z</time>
      </trkpt>
      <trkpt lat="41.50111491791903972625732421875" lon="2.09111276082694530487060546875">
        <ele>165.1999969482421875</ele>
        <time>2022-01-07T13:24:32.000Z</time>
      </trkpt>
      <trkpt lat="41.5011362917721271514892578125" lon="2.09111862815916538238525390625">
        <ele>165.1999969482421875</ele>
        <time>2022-01-07T13:24:33.000Z</time>
      </trkpt>
      <trkpt lat="41.50115967728197574615478515625" lon="2.09113019518554210662841796875">
        <ele>165.1999969482421875</ele>
        <time>2022-01-07T13:24:34.000Z</time>
      </trkpt>
      <trkpt lat="41.5011842362582683563232421875" lon="2.0911448635160923004150390625">
        <ele>165.1999969482421875</ele>
        <time>2022-01-07T13:24:35.000Z</time>
      </trkpt>
      <trkpt lat="41.50121164508163928985595703125" lon="2.09116389043629169464111328125">
        <ele>165.399993896484375</ele>
        <time>2022-01-07T13:24:36.000Z</time>
      </trkpt>
      <trkpt lat="41.5012415684759616851806640625" lon="2.09118518047034740447998046875">
        <ele>165.600006103515625</ele>
        <time>2022-01-07T13:24:37.000Z</time>
      </trkpt>
      <trkpt lat="41.50127534754574298858642578125" lon="2.09120571613311767578125">
        <ele>165.8000030517578125</ele>
        <time>2022-01-07T13:24:38.000Z</time>
      </trkpt>
      <trkpt lat="41.5013116411864757537841796875" lon="2.091230191290378570556640625">
        <ele>166.600006103515625</ele>
        <time>2022-01-07T13:24:39.000Z</time>
      </trkpt>
      <trkpt lat="41.50134894065558910369873046875" lon="2.09125961177051067352294921875">
        <ele>167</ele>
        <time>2022-01-07T13:24:40.000Z</time>
      </trkpt>
      <trkpt lat="41.5013894252479076385498046875" lon="2.09129045717418193817138671875">
        <ele>167.1999969482421875</ele>
        <time>2022-01-07T13:24:41.000Z</time>
      </trkpt>
      <trkpt lat="41.50143527425825595855712890625" lon="2.09132432006299495697021484375">
        <ele>167.399993896484375</ele>
        <time>2022-01-07T13:24:42.000Z</time>
      </trkpt>
      <trkpt lat="41.50146326981484889984130859375" lon="2.09134778939187526702880859375">
        <ele>167.399993896484375</ele>
        <time>2022-01-07T13:24:43.000Z</time>
      </trkpt>
      <trkpt lat="41.50149579159915447235107421875" lon="2.09137897007167339324951171875">
        <ele>167.600006103515625</ele>
        <time>2022-01-07T13:24:44.000Z</time>
      </trkpt>
      <trkpt lat="41.5015285648405551910400390625" lon="2.09141065366566181182861328125">
        <ele>167.600006103515625</ele>
        <time>2022-01-07T13:24:45.000Z</time>
      </trkpt>
      <trkpt lat="41.501559913158416748046875" lon="2.09144317544996738433837890625">
        <ele>167.600006103515625</ele>
        <time>2022-01-07T13:24:46.000Z</time>
      </trkpt>
      <trkpt lat="41.50159277021884918212890625" lon="2.0914777927100658416748046875">
        <ele>167.8000030517578125</ele>
        <time>2022-01-07T13:24:47.000Z</time>
      </trkpt>
      <trkpt lat="41.50162604637444019317626953125" lon="2.09150956012308597564697265625">
        <ele>167.8000030517578125</ele>
        <time>2022-01-07T13:24:48.000Z</time>
      </trkpt>
      <trkpt lat="41.50165907107293605804443359375" lon="2.09153898060321807861328125">
        <ele>167.8000030517578125</ele>
        <time>2022-01-07T13:24:49.000Z</time>
      </trkpt>
      <trkpt lat="41.50169544853270053863525390625" lon="2.0915616117417812347412109375">
        <ele>167.8000030517578125</ele>
        <time>2022-01-07T13:24:50.000Z</time>
      </trkpt>
      <trkpt lat="41.50173165835440158843994140625" lon="2.0915827341377735137939453125">
        <ele>168</ele>
        <time>2022-01-07T13:24:51.000Z</time>
      </trkpt>
      <trkpt lat="41.5017672814428806304931640625" lon="2.0916078798472881317138671875">
        <ele>168</ele>
        <time>2022-01-07T13:24:52.000Z</time>
      </trkpt>
      <trkpt lat="41.50180206634104251861572265625" lon="2.091631852090358734130859375">
        <ele>168</ele>
        <time>2022-01-07T13:24:53.000Z</time>
      </trkpt>
      <trkpt lat="41.5018363483250141143798828125" lon="2.0916588418185710906982421875">
        <ele>168</ele>
        <time>2022-01-07T13:24:54.000Z</time>
      </trkpt>
      <trkpt lat="41.50187037885189056396484375" lon="2.09168490953743457794189453125">
        <ele>168.1999969482421875</ele>
        <time>2022-01-07T13:24:55.000Z</time>
      </trkpt>
      <trkpt lat="41.50190784595906734466552734375" lon="2.0917098037898540496826171875">
        <ele>168.1999969482421875</ele>
        <time>2022-01-07T13:24:56.000Z</time>
      </trkpt>
      <trkpt lat="41.5019474923610687255859375" lon="2.0917436666786670684814453125">
        <ele>168.1999969482421875</ele>
        <time>2022-01-07T13:24:57.000Z</time>
      </trkpt>
      <trkpt lat="41.50197372771799564361572265625" lon="2.09176696836948394775390625">
        <ele>168.399993896484375</ele>
        <time>2022-01-07T13:24:58.000Z</time>
      </trkpt>
      <trkpt lat="41.50200448930263519287109375" lon="2.091794796288013458251953125">
        <ele>168.600006103515625</ele>
        <time>2022-01-07T13:24:59.000Z</time>
      </trkpt>
      <trkpt lat="41.50204514153301715850830078125" lon="2.09182756952941417694091796875">
        <ele>168.8000030517578125</ele>
        <time>2022-01-07T13:25:00.000Z</time>
      </trkpt>
      <trkpt lat="41.50204514153301715850830078125" lon="2.09182756952941417694091796875">
        <ele>169</ele>
        <time>2022-01-07T13:25:01.000Z</time>
      </trkpt>
      <trkpt lat="41.5021018870174884796142578125" lon="2.09187719039618968963623046875">
        <ele>169.399993896484375</ele>
        <time>2022-01-07T13:25:02.000Z</time>
      </trkpt>
      <trkpt lat="41.50213365443050861358642578125" lon="2.0919044315814971923828125">
        <ele>169.8000030517578125</ele>
        <time>2022-01-07T13:25:03.000Z</time>
      </trkpt>
      <trkpt lat="41.50216517038643360137939453125" lon="2.09192999638617038726806640625">
        <ele>169.8000030517578125</ele>
        <time>2022-01-07T13:25:04.000Z</time>
      </trkpt>
      <trkpt lat="41.50219568051397800445556640625" lon="2.09195866249501705169677734375">
        <ele>170.1999969482421875</ele>
        <time>2022-01-07T13:25:05.000Z</time>
      </trkpt>
      <trkpt lat="41.50222174823284149169921875" lon="2.09199034608900547027587890625">
        <ele>170.399993896484375</ele>
        <time>2022-01-07T13:25:06.000Z</time>
      </trkpt>
      <trkpt lat="41.50224949233233928680419921875" lon="2.09202085621654987335205078125">
        <ele>170.600006103515625</ele>
        <time>2022-01-07T13:25:07.000Z</time>
      </trkpt>
      <trkpt lat="41.5022745542228221893310546875" lon="2.0920564793050289154052734375">
        <ele>170.8000030517578125</ele>
        <time>2022-01-07T13:25:08.000Z</time>
      </trkpt>
      <trkpt lat="41.50230162777006626129150390625" lon="2.09209092892706394195556640625">
        <ele>171</ele>
        <time>2022-01-07T13:25:09.000Z</time>
      </trkpt>
      <trkpt lat="41.5023335628211498260498046875" lon="2.0921201817691326141357421875">
        <ele>171.1999969482421875</ele>
        <time>2022-01-07T13:25:10.000Z</time>
      </trkpt>
      <trkpt lat="41.50236968882381916046142578125" lon="2.0921476744115352630615234375">
        <ele>171.399993896484375</ele>
        <time>2022-01-07T13:25:11.000Z</time>
      </trkpt>
      <trkpt lat="41.5024061501026153564453125" lon="2.09218002855777740478515625">
        <ele>171.399993896484375</ele>
        <time>2022-01-07T13:25:12.000Z</time>
      </trkpt>
      <trkpt lat="41.50244160555303096771240234375" lon="2.09221816621720790863037109375">
        <ele>171.600006103515625</ele>
        <time>2022-01-07T13:25:13.000Z</time>
      </trkpt>
      <trkpt lat="41.50247580371797084808349609375" lon="2.09225990809500217437744140625">
        <ele>171.8000030517578125</ele>
        <time>2022-01-07T13:25:14.000Z</time>
      </trkpt>
      <trkpt lat="41.50251117534935474395751953125" lon="2.09229896776378154754638671875">
        <ele>172</ele>
        <time>2022-01-07T13:25:15.000Z</time>
      </trkpt>
      <trkpt lat="41.50255057029426097869873046875" lon="2.09233224391937255859375">
        <ele>172</ele>
        <time>2022-01-07T13:25:16.000Z</time>
      </trkpt>
      <trkpt lat="41.50258795358240604400634765625" lon="2.0923629216849803924560546875">
        <ele>172.1999969482421875</ele>
        <time>2022-01-07T13:25:17.000Z</time>
      </trkpt>
      <trkpt lat="41.5026242472231388092041015625" lon="2.09239217452704906463623046875">
        <ele>172.1999969482421875</ele>
        <time>2022-01-07T13:25:18.000Z</time>
      </trkpt>
      <trkpt lat="41.5026569366455078125" lon="2.09242251701653003692626953125">
        <ele>172.399993896484375</ele>
        <time>2022-01-07T13:25:19.000Z</time>
      </trkpt>
      <trkpt lat="41.50269306264817714691162109375" lon="2.0924591459333896636962890625">
        <ele>172.600006103515625</ele>
        <time>2022-01-07T13:25:20.000Z</time>
      </trkpt>
      <trkpt lat="41.5027117542922496795654296875" lon="2.0924849621951580047607421875">
        <ele>172.600006103515625</ele>
        <time>2022-01-07T13:25:21.000Z</time>
      </trkpt>
      <trkpt lat="41.50274033658206462860107421875" lon="2.09251957945525646209716796875">
        <ele>172.8000030517578125</ele>
        <time>2022-01-07T13:25:22.000Z</time>
      </trkpt>
      <trkpt lat="41.50276380591094493865966796875" lon="2.09254740737378597259521484375">
        <ele>172.8000030517578125</ele>
        <time>2022-01-07T13:25:23.000Z</time>
      </trkpt>
      <trkpt lat="41.50279364548623561859130859375" lon="2.09257020615041255950927734375">
        <ele>172.8000030517578125</ele>
        <time>2022-01-07T13:25:24.000Z</time>
      </trkpt>
      <trkpt lat="41.50282792747020721435546875" lon="2.0925717987120151519775390625">
        <ele>172.8000030517578125</ele>
        <time>2022-01-07T13:25:25.000Z</time>
      </trkpt>
      <trkpt lat="41.50285852141678333282470703125" lon="2.09255285561084747314453125">
        <ele>173</ele>
        <time>2022-01-07T13:25:26.000Z</time>
      </trkpt>
      <trkpt lat="41.50285852141678333282470703125" lon="2.09255285561084747314453125">
        <ele>173.1999969482421875</ele>
        <time>2022-01-07T13:25:27.000Z</time>
      </trkpt>
      <trkpt lat="41.5029119141399860382080078125" lon="2.09248303435742855072021484375">
        <ele>173.600006103515625</ele>
        <time>2022-01-07T13:25:28.000Z</time>
      </trkpt>
      <trkpt lat="41.50294192135334014892578125" lon="2.0924467407166957855224609375">
        <ele>174</ele>
        <time>2022-01-07T13:25:29.000Z</time>
      </trkpt>
      <trkpt lat="41.50297519750893115997314453125" lon="2.092417068779468536376953125">
        <ele>174.399993896484375</ele>
        <time>2022-01-07T13:25:30.000Z</time>
      </trkpt>
      <trkpt lat="41.50301626883447170257568359375" lon="2.09239636547863483428955078125">
        <ele>174.600006103515625</ele>
        <time>2022-01-07T13:25:31.000Z</time>
      </trkpt>
      <trkpt lat="41.50306756608188152313232421875" lon="2.0923872292041778564453125">
        <ele>174.8000030517578125</ele>
        <time>2022-01-07T13:25:32.000Z</time>
      </trkpt>
      <trkpt lat="41.50312925688922405242919921875" lon="2.092386893928050994873046875">
        <ele>174.8000030517578125</ele>
        <time>2022-01-07T13:25:33.000Z</time>
      </trkpt>
      <trkpt lat="41.50318424217402935028076171875" lon="2.0923900790512561798095703125">
        <ele>174.8000030517578125</ele>
        <time>2022-01-07T13:25:34.000Z</time>
      </trkpt>
      <trkpt lat="41.50322799570858478546142578125" lon="2.09238496609032154083251953125">
        <ele>174.8000030517578125</ele>
        <time>2022-01-07T13:25:35.000Z</time>
      </trkpt>
      <trkpt lat="41.50326370261609554290771484375" lon="2.09237624891102313995361328125">
        <ele>174.8000030517578125</ele>
        <time>2022-01-07T13:25:36.000Z</time>
      </trkpt>
      <trkpt lat="41.50329370982944965362548828125" lon="2.09236769936978816986083984375">
        <ele>174.8000030517578125</ele>
        <time>2022-01-07T13:25:37.000Z</time>
      </trkpt>
      <trkpt lat="41.50331852026283740997314453125" lon="2.0923639275133609771728515625">
        <ele>174.8000030517578125</ele>
        <time>2022-01-07T13:25:38.000Z</time>
      </trkpt>
      <trkpt lat="41.5033377148211002349853515625" lon="2.0923689566552639007568359375">
        <ele>174.8000030517578125</ele>
        <time>2022-01-07T13:25:39.000Z</time>
      </trkpt>
      <trkpt lat="41.50335372425615787506103515625" lon="2.0923796854913234710693359375">
        <ele>174.600006103515625</ele>
        <time>2022-01-07T13:25:40.000Z</time>
      </trkpt>
      <trkpt lat="41.503374092280864715576171875" lon="2.092390246689319610595703125">
        <ele>174.399993896484375</ele>
        <time>2022-01-07T13:25:41.000Z</time>
      </trkpt>
      <trkpt lat="41.50339898653328418731689453125" lon="2.09240189753472805023193359375">
        <ele>174</ele>
        <time>2022-01-07T13:25:42.000Z</time>
      </trkpt>
      <trkpt lat="41.5034268982708454132080078125" lon="2.092412374913692474365234375">
        <ele>174</ele>
        <time>2022-01-07T13:25:43.000Z</time>
      </trkpt>
      <trkpt lat="41.5034597553312778472900390625" lon="2.09242067299783229827880859375">
        <ele>173.8000030517578125</ele>
        <time>2022-01-07T13:25:44.000Z</time>
      </trkpt>
      <trkpt lat="41.50349839590489864349365234375" lon="2.09242955781519412994384765625">
        <ele>173.8000030517578125</ele>
        <time>2022-01-07T13:25:45.000Z</time>
      </trkpt>
      <trkpt lat="41.50353829376399517059326171875" lon="2.092445231974124908447265625">
        <ele>173.8000030517578125</ele>
        <time>2022-01-07T13:25:46.000Z</time>
      </trkpt>
      <trkpt lat="41.5035764314234256744384765625" lon="2.092464677989482879638671875">
        <ele>173.600006103515625</ele>
        <time>2022-01-07T13:25:47.000Z</time>
      </trkpt>
      <trkpt lat="41.5036159940063953399658203125" lon="2.092481441795825958251953125">
        <ele>173.600006103515625</ele>
        <time>2022-01-07T13:25:48.000Z</time>
      </trkpt>
      <trkpt lat="41.503655053675174713134765625" lon="2.09249460138380527496337890625">
        <ele>173.399993896484375</ele>
        <time>2022-01-07T13:25:49.000Z</time>
      </trkpt>
      <trkpt lat="41.50369268842041492462158203125" lon="2.09250952117145061492919921875">
        <ele>173.399993896484375</ele>
        <time>2022-01-07T13:25:50.000Z</time>
      </trkpt>
      <trkpt lat="41.50373040698468685150146484375" lon="2.0925278775393962860107421875">
        <ele>173.1999969482421875</ele>
        <time>2022-01-07T13:25:51.000Z</time>
      </trkpt>
      <trkpt lat="41.50376812554895877838134765625" lon="2.09254941903054714202880859375">
        <ele>173.1999969482421875</ele>
        <time>2022-01-07T13:25:52.000Z</time>
      </trkpt>
      <trkpt lat="41.50380668230354785919189453125" lon="2.0925717987120151519775390625">
        <ele>173.1999969482421875</ele>
        <time>2022-01-07T13:25:53.000Z</time>
      </trkpt>
      <trkpt lat="41.5038491785526275634765625" lon="2.09259199909865856170654296875">
        <ele>173.1999969482421875</ele>
        <time>2022-01-07T13:25:54.000Z</time>
      </trkpt>
      <trkpt lat="41.5038922615349292755126953125" lon="2.0926106907427310943603515625">
        <ele>173.1999969482421875</ele>
        <time>2022-01-07T13:25:55.000Z</time>
      </trkpt>
      <trkpt lat="41.5038922615349292755126953125" lon="2.0926106907427310943603515625">
        <ele>173.1999969482421875</ele>
        <time>2022-01-07T13:25:56.000Z</time>
      </trkpt>
      <trkpt lat="41.50397079996764659881591796875" lon="2.092645056545734405517578125">
        <ele>173.1999969482421875</ele>
        <time>2022-01-07T13:25:57.000Z</time>
      </trkpt>
      <trkpt lat="41.50400835089385509490966796875" lon="2.09266156889498233795166015625">
        <ele>173.1999969482421875</ele>
        <time>2022-01-07T13:25:58.000Z</time>
      </trkpt>
      <trkpt lat="41.50400835089385509490966796875" lon="2.09266156889498233795166015625">
        <ele>173.1999969482421875</ele>
        <time>2022-01-07T13:25:59.000Z</time>
      </trkpt>
      <trkpt lat="41.5040914155542850494384765625" lon="2.0926975272595882415771484375">
        <ele>173.1999969482421875</ele>
        <time>2022-01-07T13:26:00.000Z</time>
      </trkpt>
      <trkpt lat="41.50413558818399906158447265625" lon="2.092715799808502197265625">
        <ele>173.1999969482421875</ele>
        <time>2022-01-07T13:26:01.000Z</time>
      </trkpt>
      <trkpt lat="41.50417707860469818115234375" lon="2.0927340723574161529541015625">
        <ele>173.1999969482421875</ele>
        <time>2022-01-07T13:26:02.000Z</time>
      </trkpt>
      <trkpt lat="41.50422158651053905487060546875" lon="2.0927493274211883544921875">
        <ele>173.1999969482421875</ele>
        <time>2022-01-07T13:26:03.000Z</time>
      </trkpt>
      <trkpt lat="41.504270620644092559814453125" lon="2.09276072680950164794921875">
        <ele>173.1999969482421875</ele>
        <time>2022-01-07T13:26:04.000Z</time>
      </trkpt>
      <trkpt lat="41.5043214149773120880126953125" lon="2.0927749760448932647705078125">
        <ele>173.1999969482421875</ele>
        <time>2022-01-07T13:26:05.000Z</time>
      </trkpt>
      <trkpt lat="41.5043673478066921234130859375" lon="2.0927914045751094818115234375">
        <ele>173.1999969482421875</ele>
        <time>2022-01-07T13:26:06.000Z</time>
      </trkpt>
      <trkpt lat="41.5044132806360721588134765625" lon="2.092810012400150299072265625">
        <ele>173</ele>
        <time>2022-01-07T13:26:07.000Z</time>
      </trkpt>
      <trkpt lat="41.50445795617997646331787109375" lon="2.09283205680549144744873046875">
        <ele>173</ele>
        <time>2022-01-07T13:26:08.000Z</time>
      </trkpt>
      <trkpt lat="41.50450271554291248321533203125" lon="2.09285259246826171875">
        <ele>173</ele>
        <time>2022-01-07T13:26:09.000Z</time>
      </trkpt>
      <trkpt lat="41.50455015711486339569091796875" lon="2.0928671769797801971435546875">
        <ele>173</ele>
        <time>2022-01-07T13:26:10.000Z</time>
      </trkpt>
      <trkpt lat="41.50459684431552886962890625" lon="2.09287581034004688262939453125">
        <ele>173</ele>
        <time>2022-01-07T13:26:11.000Z</time>
      </trkpt>
      <trkpt lat="41.50464068166911602020263671875" lon="2.092888467013835906982421875">
        <ele>173</ele>
        <time>2022-01-07T13:26:12.000Z</time>
      </trkpt>
      <trkpt lat="41.50468728505074977874755859375" lon="2.09290020167827606201171875">
        <ele>173</ele>
        <time>2022-01-07T13:26:13.000Z</time>
      </trkpt>
      <trkpt lat="41.50473640300333499908447265625" lon="2.0929104276001453399658203125">
        <ele>173.1999969482421875</ele>
        <time>2022-01-07T13:26:14.000Z</time>
      </trkpt>
      <trkpt lat="41.50478116236627101898193359375" lon="2.09293029271066188812255859375">
        <ele>173.1999969482421875</ele>
        <time>2022-01-07T13:26:15.000Z</time>
      </trkpt>
      <trkpt lat="41.50482474826276302337646484375" lon="2.0929590426385402679443359375">
        <ele>173.1999969482421875</ele>
        <time>2022-01-07T13:26:16.000Z</time>
      </trkpt>
      <trkpt lat="41.504876799881458282470703125" lon="2.0929744653403759002685546875">
        <ele>173.1999969482421875</ele>
        <time>2022-01-07T13:26:17.000Z</time>
      </trkpt>
      <trkpt lat="41.50493220426142215728759765625" lon="2.092983014881610870361328125">
        <ele>173.1999969482421875</ele>
        <time>2022-01-07T13:26:18.000Z</time>
      </trkpt>
      <trkpt lat="41.50498132221400737762451171875" lon="2.0929754711687564849853515625">
        <ele>173.1999969482421875</ele>
        <time>2022-01-07T13:26:19.000Z</time>
      </trkpt>
      <trkpt lat="41.50502792559564113616943359375" lon="2.0929761417210102081298828125">
        <ele>173.1999969482421875</ele>
        <time>2022-01-07T13:26:20.000Z</time>
      </trkpt>
      <trkpt lat="41.5050737746059894561767578125" lon="2.0929805003106594085693359375">
        <ele>173.399993896484375</ele>
        <time>2022-01-07T13:26:21.000Z</time>
      </trkpt>
      <trkpt lat="41.50511878542602062225341796875" lon="2.0929811708629131317138671875">
        <ele>173.399993896484375</ele>
        <time>2022-01-07T13:26:22.000Z</time>
      </trkpt>
      <trkpt lat="41.50511878542602062225341796875" lon="2.0929811708629131317138671875">
        <ele>173.399993896484375</ele>
        <time>2022-01-07T13:26:23.000Z</time>
      </trkpt>
      <trkpt lat="41.50520746596157550811767578125" lon="2.0929888822138309478759765625">
        <ele>173.399993896484375</ele>
        <time>2022-01-07T13:26:24.000Z</time>
      </trkpt>
      <trkpt lat="41.50525155477225780487060546875" lon="2.09299550391733646392822265625">
        <ele>173.600006103515625</ele>
        <time>2022-01-07T13:26:25.000Z</time>
      </trkpt>
      <trkpt lat="41.50525155477225780487060546875" lon="2.09299550391733646392822265625">
        <ele>173.600006103515625</ele>
        <time>2022-01-07T13:26:26.000Z</time>
      </trkpt>
      <trkpt lat="41.5053366310894489288330078125" lon="2.093017883598804473876953125">
        <ele>173.8000030517578125</ele>
        <time>2022-01-07T13:26:27.000Z</time>
      </trkpt>
      <trkpt lat="41.50538113899528980255126953125" lon="2.09302492439746856689453125">
        <ele>173.8000030517578125</ele>
        <time>2022-01-07T13:26:28.000Z</time>
      </trkpt>
      <trkpt lat="41.50538113899528980255126953125" lon="2.09302492439746856689453125">
        <ele>174</ele>
        <time>2022-01-07T13:26:29.000Z</time>
      </trkpt>
      <trkpt lat="41.50548524223268032073974609375" lon="2.0930405147373676300048828125">
        <ele>174</ele>
        <time>2022-01-07T13:26:30.000Z</time>
      </trkpt>
      <trkpt lat="41.505538634955883026123046875" lon="2.09304546006023883819580078125">
        <ele>174.1999969482421875</ele>
        <time>2022-01-07T13:26:31.000Z</time>
      </trkpt>
      <trkpt lat="41.50559001602232456207275390625" lon="2.09304780699312686920166015625">
        <ele>174.600006103515625</ele>
        <time>2022-01-07T13:26:32.000Z</time>
      </trkpt>
      <trkpt lat="41.50563946925103664398193359375" lon="2.09305174648761749267578125">
        <ele>174.8000030517578125</ele>
        <time>2022-01-07T13:26:33.000Z</time>
      </trkpt>
      <trkpt lat="41.50569059886038303375244140625" lon="2.0930576138198375701904296875">
        <ele>174.8000030517578125</ele>
        <time>2022-01-07T13:26:34.000Z</time>
      </trkpt>
      <trkpt lat="41.5057426504790782928466796875" lon="2.09306658245623111724853515625">
        <ele>175</ele>
        <time>2022-01-07T13:26:35.000Z</time>
      </trkpt>
      <trkpt lat="41.5057956241071224212646484375" lon="2.093069516122341156005859375">
        <ele>175</ele>
        <time>2022-01-07T13:26:36.000Z</time>
      </trkpt>
      <trkpt lat="41.50584868155419826507568359375" lon="2.09307010285556316375732421875">
        <ele>175</ele>
        <time>2022-01-07T13:26:37.000Z</time>
      </trkpt>
      <trkpt lat="41.5059012360870838165283203125" lon="2.09307110868394374847412109375">
        <ele>175</ele>
        <time>2022-01-07T13:26:38.000Z</time>
      </trkpt>
      <trkpt lat="41.50595538318157196044921875" lon="2.0930706895887851715087890625">
        <ele>175</ele>
        <time>2022-01-07T13:26:39.000Z</time>
      </trkpt>
      <trkpt lat="41.5060091949999332427978515625" lon="2.09306876175105571746826171875">
        <ele>175</ele>
        <time>2022-01-07T13:26:40.000Z</time>
      </trkpt>
      <trkpt lat="41.506066359579563140869140625" lon="2.09306356497108936309814453125">
        <ele>175</ele>
        <time>2022-01-07T13:26:41.000Z</time>
      </trkpt>
      <trkpt lat="41.50612209923565387725830078125" lon="2.093057446181774139404296875">
        <ele>175</ele>
        <time>2022-01-07T13:26:42.000Z</time>
      </trkpt>
      <trkpt lat="41.50617557577788829803466796875" lon="2.0930576138198375701904296875">
        <ele>175</ele>
        <time>2022-01-07T13:26:43.000Z</time>
      </trkpt>
      <trkpt lat="41.506229974329471588134765625" lon="2.0930639840662479400634765625">
        <ele>175.1999969482421875</ele>
        <time>2022-01-07T13:26:44.000Z</time>
      </trkpt>
      <trkpt lat="41.50628571398556232452392578125" lon="2.09306607954204082489013671875">
        <ele>175.1999969482421875</ele>
        <time>2022-01-07T13:26:45.000Z</time>
      </trkpt>
      <trkpt lat="41.50634019635617733001708984375" lon="2.09306390024721622467041015625">
        <ele>175.1999969482421875</ele>
        <time>2022-01-07T13:26:46.000Z</time>
      </trkpt>
      <trkpt lat="41.5063904039561748504638671875" lon="2.093057446181774139404296875">
        <ele>175.1999969482421875</ele>
        <time>2022-01-07T13:26:47.000Z</time>
      </trkpt>
      <trkpt lat="41.506441868841648101806640625" lon="2.09305535070598125457763671875">
        <ele>175</ele>
        <time>2022-01-07T13:26:48.000Z</time>
      </trkpt>
      <trkpt lat="41.50649861432611942291259765625" lon="2.09305870346724987030029296875">
        <ele>175</ele>
        <time>2022-01-07T13:26:49.000Z</time>
      </trkpt>
      <trkpt lat="41.506555862724781036376953125" lon="2.0930639840662479400634765625">
        <ele>175</ele>
        <time>2022-01-07T13:26:50.000Z</time>
      </trkpt>
      <trkpt lat="41.506611518561840057373046875" lon="2.0930676721036434173583984375">
        <ele>175</ele>
        <time>2022-01-07T13:26:51.000Z</time>
      </trkpt>
      <trkpt lat="41.5066670067608356475830078125" lon="2.09305970929563045501708984375">
        <ele>175</ele>
        <time>2022-01-07T13:26:52.000Z</time>
      </trkpt>
      <trkpt lat="41.50672224350273609161376953125" lon="2.093050070106983184814453125">
        <ele>175</ele>
        <time>2022-01-07T13:26:53.000Z</time>
      </trkpt>
      <trkpt lat="41.5067759715020656585693359375" lon="2.09304311312735080718994140625">
        <ele>175</ele>
        <time>2022-01-07T13:26:54.000Z</time>
      </trkpt>
      <trkpt lat="41.5068265981972217559814453125" lon="2.093036659061908721923828125">
        <ele>175</ele>
        <time>2022-01-07T13:26:55.000Z</time>
      </trkpt>
      <trkpt lat="41.50688476860523223876953125" lon="2.0930328033864498138427734375">
        <ele>175</ele>
        <time>2022-01-07T13:26:56.000Z</time>
      </trkpt>
      <trkpt lat="41.5069377422332763671875" lon="2.0930334739387035369873046875">
        <ele>175.1999969482421875</ele>
        <time>2022-01-07T13:26:57.000Z</time>
      </trkpt>
      <trkpt lat="41.5069932304322719573974609375" lon="2.093040682375431060791015625">
        <ele>175.1999969482421875</ele>
        <time>2022-01-07T13:26:58.000Z</time>
      </trkpt>
      <trkpt lat="41.507049389183521270751953125" lon="2.09304034709930419921875">
        <ele>175.1999969482421875</ele>
        <time>2022-01-07T13:26:59.000Z</time>
      </trkpt>
      <trkpt lat="41.50710202753543853759765625" lon="2.0930314622819423675537109375">
        <ele>175.1999969482421875</ele>
        <time>2022-01-07T13:27:00.000Z</time>
      </trkpt>
      <trkpt lat="41.5071558393537998199462890625" lon="2.09302383475005626678466796875">
        <ele>175.1999969482421875</ele>
        <time>2022-01-07T13:27:01.000Z</time>
      </trkpt>
      <trkpt lat="41.5072098188102245330810546875" lon="2.0930183865129947662353515625">
        <ele>175.1999969482421875</ele>
        <time>2022-01-07T13:27:02.000Z</time>
      </trkpt>
      <trkpt lat="41.50726472027599811553955078125" lon="2.0930120162665843963623046875">
        <ele>175.1999969482421875</ele>
        <time>2022-01-07T13:27:03.000Z</time>
      </trkpt>
      <trkpt lat="41.50731802918016910552978515625" lon="2.09300606511533260345458984375">
        <ele>175.1999969482421875</ele>
        <time>2022-01-07T13:27:04.000Z</time>
      </trkpt>
      <trkpt lat="41.5073744393885135650634765625" lon="2.09299634210765361785888671875">
        <ele>175.1999969482421875</ele>
        <time>2022-01-07T13:27:05.000Z</time>
      </trkpt>
      <trkpt lat="41.50743319652974605560302734375" lon="2.092993743717670440673828125">
        <ele>175.1999969482421875</ele>
        <time>2022-01-07T13:27:06.000Z</time>
      </trkpt>
      <trkpt lat="41.50747795589268207550048828125" lon="2.09299365989863872528076171875">
        <ele>175.1999969482421875</ele>
        <time>2022-01-07T13:27:07.000Z</time>
      </trkpt>
      <trkpt lat="41.50753176771104335784912109375" lon="2.09299064241349697113037109375">
        <ele>175.1999969482421875</ele>
        <time>2022-01-07T13:27:08.000Z</time>
      </trkpt>
      <trkpt lat="41.5075870044529438018798828125" lon="2.09298762492835521697998046875">
        <ele>175.1999969482421875</ele>
        <time>2022-01-07T13:27:09.000Z</time>
      </trkpt>
      <trkpt lat="41.512675993144512176513671875" lon="2.0925724692642688751220703125">
        <ele>166.399993896484375</ele>
        <time>2022-01-07T13:28:35.000Z</time>
      </trkpt>
      <trkpt lat="41.51277129538357257843017578125" lon="2.0926837809383869171142578125">
        <ele>164.1999969482421875</ele>
        <time>2022-01-07T13:28:37.000Z</time>
      </trkpt>
      <trkpt lat="41.512821502983570098876953125" lon="2.09269526414573192596435546875">
        <ele>164.1999969482421875</ele>
        <time>2022-01-07T13:28:38.000Z</time>
      </trkpt>
      <trkpt lat="41.51287372224032878875732421875" lon="2.0926945097744464874267578125">
        <ele>164.1999969482421875</ele>
        <time>2022-01-07T13:28:39.000Z</time>
      </trkpt>
      <trkpt lat="41.51294094510376453399658203125" lon="2.092686630785465240478515625">
        <ele>164</ele>
        <time>2022-01-07T13:28:40.000Z</time>
      </trkpt>
      <trkpt lat="41.51299794204533100128173828125" lon="2.09268285892903804779052734375">
        <ele>164.1999969482421875</ele>
        <time>2022-01-07T13:28:41.000Z</time>
      </trkpt>
      <trkpt lat="41.513064242899417877197265625" lon="2.09268118254840373992919921875">
        <ele>164.1999969482421875</ele>
        <time>2022-01-07T13:28:42.000Z</time>
      </trkpt>
      <trkpt lat="41.5131282806396484375" lon="2.09267715923488140106201171875">
        <ele>164.1999969482421875</ele>
        <time>2022-01-07T13:28:43.000Z</time>
      </trkpt>
      <trkpt lat="41.5131911449134349822998046875" lon="2.0926629938185214996337890625">
        <ele>164.1999969482421875</ele>
        <time>2022-01-07T13:28:44.000Z</time>
      </trkpt>
      <trkpt lat="41.5132521651685237884521484375" lon="2.0926554501056671142578125">
        <ele>163.600006103515625</ele>
        <time>2022-01-07T13:28:45.000Z</time>
      </trkpt>
      <trkpt lat="41.51330941356718540191650390625" lon="2.09265268407762050628662109375">
        <ele>163.600006103515625</ele>
        <time>2022-01-07T13:28:46.000Z</time>
      </trkpt>
      <trkpt lat="41.51336624287068843841552734375" lon="2.09265318699181079864501953125">
        <ele>163.399993896484375</ele>
        <time>2022-01-07T13:28:47.000Z</time>
      </trkpt>
      <trkpt lat="41.51341552846133708953857421875" lon="2.09265285171568393707275390625">
        <ele>163.399993896484375</ele>
        <time>2022-01-07T13:28:48.000Z</time>
      </trkpt>
      <trkpt lat="41.5134647302329540252685546875" lon="2.0926539413630962371826171875">
        <ele>163.399993896484375</ele>
        <time>2022-01-07T13:28:49.000Z</time>
      </trkpt>
      <trkpt lat="41.51351443491876125335693359375" lon="2.09265000186860561370849609375">
        <ele>163.600006103515625</ele>
        <time>2022-01-07T13:28:50.000Z</time>
      </trkpt>
      <trkpt lat="41.51355969719588756561279296875" lon="2.0926408655941486358642578125">
        <ele>163.399993896484375</ele>
        <time>2022-01-07T13:28:51.000Z</time>
      </trkpt>
      <trkpt lat="41.51360160671174526214599609375" lon="2.09262334741652011871337890625">
        <ele>163</ele>
        <time>2022-01-07T13:28:52.000Z</time>
      </trkpt>
      <trkpt lat="41.5136233158409595489501953125" lon="2.09259803406894207000732421875">
        <ele>162.399993896484375</ele>
        <time>2022-01-07T13:28:53.000Z</time>
      </trkpt>
      <trkpt lat="41.51363848708570003509521484375" lon="2.09255880676209926605224609375">
        <ele>162.399993896484375</ele>
        <time>2022-01-07T13:28:54.000Z</time>
      </trkpt>
      <trkpt lat="41.51363949291408061981201171875" lon="2.0925121195614337921142578125">
        <ele>161.600006103515625</ele>
        <time>2022-01-07T13:28:55.000Z</time>
      </trkpt>
      <trkpt lat="41.513613760471343994140625" lon="2.0924591459333896636962890625">
        <ele>162.600006103515625</ele>
        <time>2022-01-07T13:28:56.000Z</time>
      </trkpt>
      <trkpt lat="41.51357964612543582916259765625" lon="2.0924028195440769195556640625">
        <ele>163</ele>
        <time>2022-01-07T13:28:57.000Z</time>
      </trkpt>
      <trkpt lat="41.5135525725781917572021484375" lon="2.09236820228397846221923828125">
        <ele>163.1999969482421875</ele>
        <time>2022-01-07T13:28:58.000Z</time>
      </trkpt>
      <trkpt lat="41.51352994143962860107421875" lon="2.09234624169766902923583984375">
        <ele>163.1999969482421875</ele>
        <time>2022-01-07T13:28:59.000Z</time>
      </trkpt>
      <trkpt lat="41.5135066397488117218017578125" lon="2.0923327468335628509521484375">
        <ele>163.1999969482421875</ele>
        <time>2022-01-07T13:29:00.000Z</time>
      </trkpt>
      <trkpt lat="41.5134836733341217041015625" lon="2.09232931025326251983642578125">
        <ele>163.1999969482421875</ele>
        <time>2022-01-07T13:29:01.000Z</time>
      </trkpt>
      <trkpt lat="41.5134503133594989776611328125" lon="2.0923230238258838653564453125">
        <ele>163</ele>
        <time>2022-01-07T13:29:02.000Z</time>
      </trkpt>
      <trkpt lat="41.51342106051743030548095703125" lon="2.092302404344081878662109375">
        <ele>162.600006103515625</ele>
        <time>2022-01-07T13:29:03.000Z</time>
      </trkpt>
      <trkpt lat="41.5133949927985668182373046875" lon="2.0922799408435821533203125">
        <ele>162.399993896484375</ele>
        <time>2022-01-07T13:29:04.000Z</time>
      </trkpt>
      <trkpt lat="41.513365320861339569091796875" lon="2.09224867634475231170654296875">
        <ele>162.1999969482421875</ele>
        <time>2022-01-07T13:29:05.000Z</time>
      </trkpt>
      <trkpt lat="41.51334227062761783599853515625" lon="2.09221330471336841583251953125">
        <ele>162.1999969482421875</ele>
        <time>2022-01-07T13:29:06.000Z</time>
      </trkpt>
      <trkpt lat="41.51332818903028964996337890625" lon="2.09217374213039875030517578125">
        <ele>162.1999969482421875</ele>
        <time>2022-01-07T13:29:07.000Z</time>
      </trkpt>
      <trkpt lat="41.513319723308086395263671875" lon="2.092122696340084075927734375">
        <ele>162.1999969482421875</ele>
        <time>2022-01-07T13:29:08.000Z</time>
      </trkpt>
      <trkpt lat="41.513306312263011932373046875" lon="2.09207584150135517120361328125">
        <ele>162</ele>
        <time>2022-01-07T13:29:09.000Z</time>
      </trkpt>
      <trkpt lat="41.51328720152378082275390625" lon="2.09203510545194149017333984375">
        <ele>162</ele>
        <time>2022-01-07T13:29:10.000Z</time>
      </trkpt>
      <trkpt lat="41.5132578648626804351806640625" lon="2.09197291173040866851806640625">
        <ele>162</ele>
        <time>2022-01-07T13:29:11.000Z</time>
      </trkpt>
      <trkpt lat="41.5132347308099269866943359375" lon="2.0919166691601276397705078125">
        <ele>162</ele>
        <time>2022-01-07T13:29:12.000Z</time>
      </trkpt>
      <trkpt lat="41.51320866309106349945068359375" lon="2.09185003302991390228271484375">
        <ele>162</ele>
        <time>2022-01-07T13:29:13.000Z</time>
      </trkpt>
      <trkpt lat="41.51318251155316829681396484375" lon="2.09178934805095195770263671875">
        <ele>162</ele>
        <time>2022-01-07T13:29:14.000Z</time>
      </trkpt>
      <trkpt lat="41.513145379722118377685546875" lon="2.09171894006431102752685546875">
        <ele>162</ele>
        <time>2022-01-07T13:29:15.000Z</time>
      </trkpt>
      <trkpt lat="41.51310070417821407318115234375" lon="2.0916534774005413055419921875">
        <ele>162</ele>
        <time>2022-01-07T13:29:16.000Z</time>
      </trkpt>
      <trkpt lat="41.51305854320526123046875" lon="2.0915894396603107452392578125">
        <ele>162</ele>
        <time>2022-01-07T13:29:17.000Z</time>
      </trkpt>
      <trkpt lat="41.51302627287805080413818359375" lon="2.09152556955814361572265625">
        <ele>161.8000030517578125</ele>
        <time>2022-01-07T13:29:18.000Z</time>
      </trkpt>
      <trkpt lat="41.51300095953047275543212890625" lon="2.09146262146532535552978515625">
        <ele>161.8000030517578125</ele>
        <time>2022-01-07T13:29:19.000Z</time>
      </trkpt>
      <trkpt lat="41.5129856206476688385009765625" lon="2.09140746854245662689208984375">
        <ele>161.8000030517578125</ele>
        <time>2022-01-07T13:29:20.000Z</time>
      </trkpt>
      <trkpt lat="41.51298453100025653839111328125" lon="2.09136706776916980743408203125">
        <ele>161.8000030517578125</ele>
        <time>2022-01-07T13:29:21.000Z</time>
      </trkpt>
      <trkpt lat="41.51299341581761837005615234375" lon="2.0913406647741794586181640625">
        <ele>161.8000030517578125</ele>
        <time>2022-01-07T13:29:22.000Z</time>
      </trkpt>
      <trkpt lat="41.51300934143364429473876953125" lon="2.09132842719554901123046875">
        <ele>161.8000030517578125</ele>
        <time>2022-01-07T13:29:23.000Z</time>
      </trkpt>
      <trkpt lat="41.5130258537828922271728515625" lon="2.0913252420723438262939453125">
        <ele>161.8000030517578125</ele>
        <time>2022-01-07T13:29:24.000Z</time>
      </trkpt>
      <trkpt lat="41.51303834281861782073974609375" lon="2.0913228951394557952880859375">
        <ele>161.8000030517578125</ele>
        <time>2022-01-07T13:29:25.000Z</time>
      </trkpt>
      <trkpt lat="41.51304990984499454498291015625" lon="2.091321051120758056640625">
        <ele>161.8000030517578125</ele>
        <time>2022-01-07T13:29:26.000Z</time>
      </trkpt>
      <trkpt lat="41.5130644105374813079833984375" lon="2.09132549352943897247314453125">
        <ele>161.8000030517578125</ele>
        <time>2022-01-07T13:29:27.000Z</time>
      </trkpt>
      <trkpt lat="41.51308712549507617950439453125" lon="2.091332785785198211669921875">
        <ele>161.8000030517578125</ele>
        <time>2022-01-07T13:29:28.000Z</time>
      </trkpt>
      <trkpt lat="41.51311428286135196685791015625" lon="2.09134326316416263580322265625">
        <ele>161.8000030517578125</ele>
        <time>2022-01-07T13:29:29.000Z</time>
      </trkpt>
      <trkpt lat="41.5131428651511669158935546875" lon="2.0913523994386196136474609375">
        <ele>162.1999969482421875</ele>
        <time>2022-01-07T13:29:30.000Z</time>
      </trkpt>
      <trkpt lat="41.5131725370883941650390625" lon="2.0913644693791866302490234375">
        <ele>162.600006103515625</ele>
        <time>2022-01-07T13:29:31.000Z</time>
      </trkpt>
      <trkpt lat="41.51320463977754116058349609375" lon="2.0913758687674999237060546875">
        <ele>162.8000030517578125</ele>
        <time>2022-01-07T13:29:32.000Z</time>
      </trkpt>
      <trkpt lat="41.513237245380878448486328125" lon="2.09138475358486175537109375">
        <ele>163</ele>
        <time>2022-01-07T13:29:33.000Z</time>
      </trkpt>
      <trkpt lat="41.5132679231464862823486328125" lon="2.09139338694512844085693359375">
        <ele>163.1999969482421875</ele>
        <time>2022-01-07T13:29:34.000Z</time>
      </trkpt>
      <trkpt lat="41.51329650543630123138427734375" lon="2.0914047025144100189208984375">
        <ele>163.399993896484375</ele>
        <time>2022-01-07T13:29:35.000Z</time>
      </trkpt>
      <trkpt lat="41.51332072913646697998046875" lon="2.0914216339588165283203125">
        <ele>163.600006103515625</ele>
        <time>2022-01-07T13:29:36.000Z</time>
      </trkpt>
      <trkpt lat="41.51334143243730068206787109375" lon="2.0914412476122379302978515625">
        <ele>163.600006103515625</ele>
        <time>2022-01-07T13:29:37.000Z</time>
      </trkpt>
      <trkpt lat="41.51336171664297580718994140625" lon="2.0914717577397823333740234375">
        <ele>163.8000030517578125</ele>
        <time>2022-01-07T13:29:38.000Z</time>
      </trkpt>
      <trkpt lat="41.51337571442127227783203125" lon="2.09151752293109893798828125">
        <ele>164.1999969482421875</ele>
        <time>2022-01-07T13:29:39.000Z</time>
      </trkpt>
      <trkpt lat="41.51337898336350917816162109375" lon="2.09157259203493595123291015625">
        <ele>164.600006103515625</ele>
        <time>2022-01-07T13:29:40.000Z</time>
      </trkpt>
      <trkpt lat="41.51336967945098876953125" lon="2.09162539802491664886474609375">
        <ele>164.8000030517578125</ele>
        <time>2022-01-07T13:29:41.000Z</time>
      </trkpt>
      <trkpt lat="41.51336473412811756134033203125" lon="2.09167770110070705413818359375">
        <ele>165.1999969482421875</ele>
        <time>2022-01-07T13:29:42.000Z</time>
      </trkpt>
      <trkpt lat="41.51336607523262500762939453125" lon="2.09172782488167285919189453125">
        <ele>165.399993896484375</ele>
        <time>2022-01-07T13:29:43.000Z</time>
      </trkpt>
      <trkpt lat="41.51337479241192340850830078125" lon="2.09177509881556034088134765625">
        <ele>165.600006103515625</ele>
        <time>2022-01-07T13:29:44.000Z</time>
      </trkpt>
      <trkpt lat="41.51338267140090465545654296875" lon="2.09181935526430606842041015625">
        <ele>165.8000030517578125</ele>
        <time>2022-01-07T13:29:45.000Z</time>
      </trkpt>
      <trkpt lat="41.51339407078921794891357421875" lon="2.09186084568500518798828125">
        <ele>166</ele>
        <time>2022-01-07T13:29:46.000Z</time>
      </trkpt>
      <trkpt lat="41.513406224548816680908203125" lon="2.09189848043024539947509765625">
        <ele>166</ele>
        <time>2022-01-07T13:29:47.000Z</time>
      </trkpt>
      <trkpt lat="41.51342265307903289794921875" lon="2.09192362613976001739501953125">
        <ele>166.1999969482421875</ele>
        <time>2022-01-07T13:29:48.000Z</time>
      </trkpt>
      <trkpt lat="41.513447128236293792724609375" lon="2.09195715375244617462158203125">
        <ele>166.399993896484375</ele>
        <time>2022-01-07T13:29:49.000Z</time>
      </trkpt>
      <trkpt lat="41.51346732862293720245361328125" lon="2.0919850654900074005126953125">
        <ele>166.399993896484375</ele>
        <time>2022-01-07T13:29:50.000Z</time>
      </trkpt>
      <trkpt lat="41.51348828338086605072021484375" lon="2.09201448597013950347900390625">
        <ele>166.399993896484375</ele>
        <time>2022-01-07T13:29:51.000Z</time>
      </trkpt>
      <trkpt lat="41.5135103277862071990966796875" lon="2.0920407213270664215087890625">
        <ele>166.8000030517578125</ele>
        <time>2022-01-07T13:29:52.000Z</time>
      </trkpt>
      <trkpt lat="41.51352994143962860107421875" lon="2.09206645376980304718017578125">
        <ele>167.1999969482421875</ele>
        <time>2022-01-07T13:29:53.000Z</time>
      </trkpt>
      <trkpt lat="41.5135492198169231414794921875" lon="2.09209025837481021881103515625">
        <ele>167.600006103515625</ele>
        <time>2022-01-07T13:29:54.000Z</time>
      </trkpt>
      <trkpt lat="41.513571180403232574462890625" lon="2.09211087785661220550537109375">
        <ele>168</ele>
        <time>2022-01-07T13:29:55.000Z</time>
      </trkpt>
      <trkpt lat="41.5135961584746837615966796875" lon="2.0921295695006847381591796875">
        <ele>168.399993896484375</ele>
        <time>2022-01-07T13:29:56.000Z</time>
      </trkpt>
      <trkpt lat="41.51361803524196147918701171875" lon="2.09214608184993267059326171875">
        <ele>168.399993896484375</ele>
        <time>2022-01-07T13:29:57.000Z</time>
      </trkpt>
      <trkpt lat="41.5136454440653324127197265625" lon="2.0921654440462589263916015625">
        <ele>168.600006103515625</ele>
        <time>2022-01-07T13:29:58.000Z</time>
      </trkpt>
      <trkpt lat="41.51367872022092342376708984375" lon="2.09218966774642467498779296875">
        <ele>169</ele>
        <time>2022-01-07T13:29:59.000Z</time>
      </trkpt>
      <trkpt lat="41.51370738632977008819580078125" lon="2.0922048389911651611328125">
        <ele>169.1999969482421875</ele>
        <time>2022-01-07T13:30:00.000Z</time>
      </trkpt>
      <trkpt lat="41.5137366391718387603759765625" lon="2.09221783094108104705810546875">
        <ele>169.399993896484375</ele>
        <time>2022-01-07T13:30:01.000Z</time>
      </trkpt>
      <trkpt lat="41.51376555673778057098388671875" lon="2.092230655252933502197265625">
        <ele>169.600006103515625</ele>
        <time>2022-01-07T13:30:02.000Z</time>
      </trkpt>
      <trkpt lat="41.51379439048469066619873046875" lon="2.0922428928315639495849609375">
        <ele>169.8000030517578125</ele>
        <time>2022-01-07T13:30:03.000Z</time>
      </trkpt>
      <trkpt lat="41.51382121257483959197998046875" lon="2.09225638769567012786865234375">
        <ele>170</ele>
        <time>2022-01-07T13:30:04.000Z</time>
      </trkpt>
      <trkpt lat="41.5138499625027179718017578125" lon="2.09226946346461772918701171875">
        <ele>170.399993896484375</ele>
        <time>2022-01-07T13:30:05.000Z</time>
      </trkpt>
      <trkpt lat="41.51388105936348438262939453125" lon="2.09228388033807277679443359375">
        <ele>170.600006103515625</ele>
        <time>2022-01-07T13:30:06.000Z</time>
      </trkpt>
      <trkpt lat="41.51391307823359966278076171875" lon="2.0923029072582721710205078125">
        <ele>171</ele>
        <time>2022-01-07T13:30:07.000Z</time>
      </trkpt>
      <trkpt lat="41.51394358836114406585693359375" lon="2.0923257060348987579345703125">
        <ele>171</ele>
        <time>2022-01-07T13:30:08.000Z</time>
      </trkpt>
      <trkpt lat="41.5139766968786716461181640625" lon="2.09234707988798618316650390625">
        <ele>171.399993896484375</ele>
        <time>2022-01-07T13:30:09.000Z</time>
      </trkpt>
      <trkpt lat="41.51401139795780181884765625" lon="2.0923716388642787933349609375">
        <ele>171.600006103515625</ele>
        <time>2022-01-07T13:30:10.000Z</time>
      </trkpt>
      <trkpt lat="41.51404417119920253753662109375" lon="2.0924034900963306427001953125">
        <ele>172</ele>
        <time>2022-01-07T13:30:11.000Z</time>
      </trkpt>
      <trkpt lat="41.51407442986965179443359375" lon="2.09244020283222198486328125">
        <ele>172</ele>
        <time>2022-01-07T13:30:12.000Z</time>
      </trkpt>
      <trkpt lat="41.5141046047210693359375" lon="2.0924829505383968353271484375">
        <ele>172.1999969482421875</ele>
        <time>2022-01-07T13:30:13.000Z</time>
      </trkpt>
      <trkpt lat="41.5141322650015354156494140625" lon="2.09253600798547267913818359375">
        <ele>172.1999969482421875</ele>
        <time>2022-01-07T13:30:14.000Z</time>
      </trkpt>
      <trkpt lat="41.514163278043270111083984375" lon="2.09259317256510257720947265625">
        <ele>172.1999969482421875</ele>
        <time>2022-01-07T13:30:15.000Z</time>
      </trkpt>
      <trkpt lat="41.5142006613314151763916015625" lon="2.092653103172779083251953125">
        <ele>172.1999969482421875</ele>
        <time>2022-01-07T13:30:16.000Z</time>
      </trkpt>
      <trkpt lat="41.51424852199852466583251953125" lon="2.092710770666599273681640625">
        <ele>172.1999969482421875</ele>
        <time>2022-01-07T13:30:17.000Z</time>
      </trkpt>
      <trkpt lat="41.51430920697748661041259765625" lon="2.09275729022920131683349609375">
        <ele>172.1999969482421875</ele>
        <time>2022-01-07T13:30:18.000Z</time>
      </trkpt>
      <trkpt lat="41.5143820457160472869873046875" lon="2.0927843637764453887939453125">
        <ele>172.1999969482421875</ele>
        <time>2022-01-07T13:30:19.000Z</time>
      </trkpt>
      <trkpt lat="41.5144626796245574951171875" lon="2.09279383532702922821044921875">
        <ele>172.1999969482421875</ele>
        <time>2022-01-07T13:30:20.000Z</time>
      </trkpt>
      <trkpt lat="41.5145520307123661041259765625" lon="2.0927964337170124053955078125">
        <ele>172.1999969482421875</ele>
        <time>2022-01-07T13:30:21.000Z</time>
      </trkpt>
      <trkpt lat="41.5146477520465850830078125" lon="2.0927971042692661285400390625">
        <ele>172</ele>
        <time>2022-01-07T13:30:22.000Z</time>
      </trkpt>
      <trkpt lat="41.51474774815142154693603515625" lon="2.0927893929183483123779296875">
        <ele>171.8000030517578125</ele>
        <time>2022-01-07T13:30:23.000Z</time>
      </trkpt>
      <trkpt lat="41.5148504264652729034423828125" lon="2.0927850343286991119384765625">
        <ele>171.399993896484375</ele>
        <time>2022-01-07T13:30:24.000Z</time>
      </trkpt>
      <trkpt lat="41.5149597264826297760009765625" lon="2.0927830226719379425048828125">
        <ele>170.600006103515625</ele>
        <time>2022-01-07T13:30:25.000Z</time>
      </trkpt>
      <trkpt lat="41.51507564820349216461181640625" lon="2.09277723915874958038330078125">
        <ele>169.600006103515625</ele>
        <time>2022-01-07T13:30:26.000Z</time>
      </trkpt>
      <trkpt lat="41.5151924081146717071533203125" lon="2.09277941845357418060302734375">
        <ele>168.600006103515625</ele>
        <time>2022-01-07T13:30:27.000Z</time>
      </trkpt>
      <trkpt lat="41.51530967094004154205322265625" lon="2.092799954116344451904296875">
        <ele>167.1999969482421875</ele>
        <time>2022-01-07T13:30:28.000Z</time>
      </trkpt>
      <trkpt lat="41.51542651467025279998779296875" lon="2.09282451309263706207275390625">
        <ele>165.600006103515625</ele>
        <time>2022-01-07T13:30:29.000Z</time>
      </trkpt>
      <trkpt lat="41.51554168201982975006103515625" lon="2.09285737015306949615478515625">
        <ele>164.1999969482421875</ele>
        <time>2022-01-07T13:30:30.000Z</time>
      </trkpt>
      <trkpt lat="41.5156524069607257843017578125" lon="2.09290397353470325469970703125">
        <ele>162.600006103515625</ele>
        <time>2022-01-07T13:30:31.000Z</time>
      </trkpt>
      <trkpt lat="41.51575726456940174102783203125" lon="2.09295694716274738311767578125">
        <ele>161.1999969482421875</ele>
        <time>2022-01-07T13:30:32.000Z</time>
      </trkpt>
      <trkpt lat="41.51585969142615795135498046875" lon="2.09301193244755268096923828125">
        <ele>160</ele>
        <time>2022-01-07T13:30:33.000Z</time>
      </trkpt>
      <trkpt lat="41.5159615315496921539306640625" lon="2.09305920638144016265869140625">
        <ele>158.1999969482421875</ele>
        <time>2022-01-07T13:30:34.000Z</time>
      </trkpt>
      <trkpt lat="41.51606169529259204864501953125" lon="2.0930980145931243896484375">
        <ele>156.1999969482421875</ele>
        <time>2022-01-07T13:30:35.000Z</time>
      </trkpt>
      <trkpt lat="41.516163535416126251220703125" lon="2.09312341175973415374755859375">
        <ele>154.8000030517578125</ele>
        <time>2022-01-07T13:30:36.000Z</time>
      </trkpt>
      <trkpt lat="41.51626403443515300750732421875" lon="2.09312953054904937744140625">
        <ele>153.8000030517578125</ele>
        <time>2022-01-07T13:30:37.000Z</time>
      </trkpt>
      <trkpt lat="41.51635908521711826324462890625" lon="2.09313380531966686248779296875">
        <ele>153</ele>
        <time>2022-01-07T13:30:38.000Z</time>
      </trkpt>
      <trkpt lat="41.51645229198038578033447265625" lon="2.09313078783452510833740234375">
        <ele>152.399993896484375</ele>
        <time>2022-01-07T13:30:39.000Z</time>
      </trkpt>
      <trkpt lat="41.5165435709059238433837890625" lon="2.093120478093624114990234375">
        <ele>152.1999969482421875</ele>
        <time>2022-01-07T13:30:40.000Z</time>
      </trkpt>
      <trkpt lat="41.5166327543556690216064453125" lon="2.0931139402091503143310546875">
        <ele>152</ele>
        <time>2022-01-07T13:30:41.000Z</time>
      </trkpt>
      <trkpt lat="41.51671615429222583770751953125" lon="2.09311922080814838409423828125">
        <ele>152</ele>
        <time>2022-01-07T13:30:42.000Z</time>
      </trkpt>
      <trkpt lat="41.5167960338294506072998046875" lon="2.09312391467392444610595703125">
        <ele>151.8000030517578125</ele>
        <time>2022-01-07T13:30:43.000Z</time>
      </trkpt>
      <trkpt lat="41.5168721415102481842041015625" lon="2.0931355655193328857421875">
        <ele>151.8000030517578125</ele>
        <time>2022-01-07T13:30:44.000Z</time>
      </trkpt>
      <trkpt lat="41.516951434314250946044921875" lon="2.093149982392787933349609375">
        <ele>151.600006103515625</ele>
        <time>2022-01-07T13:30:45.000Z</time>
      </trkpt>
      <trkpt lat="41.5170320682227611541748046875" lon="2.0931736193597316741943359375">
        <ele>151.399993896484375</ele>
        <time>2022-01-07T13:30:46.000Z</time>
      </trkpt>
      <trkpt lat="41.51711462996900081634521484375" lon="2.09320672787725925445556640625">
        <ele>151.399993896484375</ele>
        <time>2022-01-07T13:30:47.000Z</time>
      </trkpt>
      <trkpt lat="41.517198868095874786376953125" lon="2.0932463742792606353759765625">
        <ele>151.399993896484375</ele>
        <time>2022-01-07T13:30:48.000Z</time>
      </trkpt>
      <trkpt lat="41.51728159748017787933349609375" lon="2.093302868306636810302734375">
        <ele>151.1999969482421875</ele>
        <time>2022-01-07T13:30:49.000Z</time>
      </trkpt>
      <trkpt lat="41.5173606388270854949951171875" lon="2.09336757659912109375">
        <ele>151.1999969482421875</ele>
        <time>2022-01-07T13:30:50.000Z</time>
      </trkpt>
      <trkpt lat="41.517444960772991180419921875" lon="2.09343186579644680023193359375">
        <ele>151</ele>
        <time>2022-01-07T13:30:52.000Z</time>
      </trkpt>
      <trkpt lat="41.51753355748951435089111328125" lon="2.09350395016372203826904296875">
        <ele>151</ele>
        <time>2022-01-07T13:30:53.000Z</time>
      </trkpt>
      <trkpt lat="41.51763665489852428436279296875" lon="2.09359715692698955535888671875">
        <ele>150.8000030517578125</ele>
        <time>2022-01-07T13:30:54.000Z</time>
      </trkpt>
      <trkpt lat="41.51771108619868755340576171875" lon="2.09365666843950748443603515625">
        <ele>150.600006103515625</ele>
        <time>2022-01-07T13:30:55.000Z</time>
      </trkpt>
      <trkpt lat="41.517806388437747955322265625" lon="2.0937310159206390380859375">
        <ele>150.399993896484375</ele>
        <time>2022-01-07T13:30:56.000Z</time>
      </trkpt>
      <trkpt lat="41.51789884082973003387451171875" lon="2.093809135258197784423828125">
        <ele>149.8000030517578125</ele>
        <time>2022-01-07T13:30:57.000Z</time>
      </trkpt>
      <trkpt lat="41.5179825760424137115478515625" lon="2.09389655850827693939208984375">
        <ele>148.8000030517578125</ele>
        <time>2022-01-07T13:30:58.000Z</time>
      </trkpt>
      <trkpt lat="41.51806329376995563507080078125" lon="2.09398440085351467132568359375">
        <ele>148</ele>
        <time>2022-01-07T13:30:59.000Z</time>
      </trkpt>
      <trkpt lat="41.51814526878297328948974609375" lon="2.0940671302378177642822265625">
        <ele>146.8000030517578125</ele>
        <time>2022-01-07T13:31:00.000Z</time>
      </trkpt>
      <trkpt lat="41.5182283334434032440185546875" lon="2.09413829259574413299560546875">
        <ele>145.600006103515625</ele>
        <time>2022-01-07T13:31:01.000Z</time>
      </trkpt>
      <trkpt lat="41.5183098055422306060791015625" lon="2.0942012406885623931884765625">
        <ele>144.399993896484375</ele>
        <time>2022-01-07T13:31:02.000Z</time>
      </trkpt>
      <trkpt lat="41.51839320547878742218017578125" lon="2.09425714798271656036376953125">
        <ele>142.600006103515625</ele>
        <time>2022-01-07T13:31:03.000Z</time>
      </trkpt>
      <trkpt lat="41.518476940691471099853515625" lon="2.09430190734565258026123046875">
        <ele>141.399993896484375</ele>
        <time>2022-01-07T13:31:04.000Z</time>
      </trkpt>
      <trkpt lat="41.51856335811316967010498046875" lon="2.09433107636868953704833984375">
        <ele>140.1999969482421875</ele>
        <time>2022-01-07T13:31:05.000Z</time>
      </trkpt>
      <trkpt lat="41.5186514519155025482177734375" lon="2.09434926509857177734375">
        <ele>139.8000030517578125</ele>
        <time>2022-01-07T13:31:06.000Z</time>
      </trkpt>
      <trkpt lat="41.51873937807977199554443359375" lon="2.09436577744781970977783203125">
        <ele>139.399993896484375</ele>
        <time>2022-01-07T13:31:07.000Z</time>
      </trkpt>
      <trkpt lat="41.51882353238761425018310546875" lon="2.0943936891853809356689453125">
        <ele>139.1999969482421875</ele>
        <time>2022-01-07T13:31:08.000Z</time>
      </trkpt>
      <trkpt lat="41.51890215463936328887939453125" lon="2.094435431063175201416015625">
        <ele>139</ele>
        <time>2022-01-07T13:31:09.000Z</time>
      </trkpt>
      <trkpt lat="41.5189756639301776885986328125" lon="2.09448547102510929107666015625">
        <ele>139</ele>
        <time>2022-01-07T13:31:10.000Z</time>
      </trkpt>
      <trkpt lat="41.51904364116489887237548828125" lon="2.09454766474664211273193359375">
        <ele>138.8000030517578125</ele>
        <time>2022-01-07T13:31:11.000Z</time>
      </trkpt>
      <trkpt lat="41.51910650543868541717529296875" lon="2.09462159313261508941650390625">
        <ele>138.399993896484375</ele>
        <time>2022-01-07T13:31:12.000Z</time>
      </trkpt>
      <trkpt lat="41.5191674418747425079345703125" lon="2.09470474161207675933837890625">
        <ele>138.399993896484375</ele>
        <time>2022-01-07T13:31:13.000Z</time>
      </trkpt>
      <trkpt lat="41.5192251093685626983642578125" lon="2.09479811601340770721435546875">
        <ele>138</ele>
        <time>2022-01-07T13:31:14.000Z</time>
      </trkpt>
      <trkpt lat="41.51928135193884372711181640625" lon="2.0948966033756732940673828125">
        <ele>137.600006103515625</ele>
        <time>2022-01-07T13:31:15.000Z</time>
      </trkpt>
      <trkpt lat="41.51933650486171245574951171875" lon="2.09498855285346508026123046875">
        <ele>137.399993896484375</ele>
        <time>2022-01-07T13:31:16.000Z</time>
      </trkpt>
      <trkpt lat="41.51939031668007373809814453125" lon="2.09506415762007236480712890625">
        <ele>136.8000030517578125</ele>
        <time>2022-01-07T13:31:17.000Z</time>
      </trkpt>
      <trkpt lat="41.519443206489086151123046875" lon="2.0951168797910213470458984375">
        <ele>136.8000030517578125</ele>
        <time>2022-01-07T13:31:18.000Z</time>
      </trkpt>
      <trkpt lat="41.51949794031679630279541015625" lon="2.09514294750988483428955078125">
        <ele>136.399993896484375</ele>
        <time>2022-01-07T13:31:19.000Z</time>
      </trkpt>
      <trkpt lat="41.51955015957355499267578125" lon="2.0951400138437747955322265625">
        <ele>136</ele>
        <time>2022-01-07T13:31:20.000Z</time>
      </trkpt>
      <trkpt lat="41.51959986425936222076416015625" lon="2.09511226974427700042724609375">
        <ele>135.600006103515625</ele>
        <time>2022-01-07T13:31:21.000Z</time>
      </trkpt>
      <trkpt lat="41.5196465514600276947021484375" lon="2.09507010877132415771484375">
        <ele>135.399993896484375</ele>
        <time>2022-01-07T13:31:22.000Z</time>
      </trkpt>
      <trkpt lat="41.51968485675752162933349609375" lon="2.09502224810421466827392578125">
        <ele>134.399993896484375</ele>
        <time>2022-01-07T13:31:23.000Z</time>
      </trkpt>
      <trkpt lat="41.519718803465366363525390625" lon="2.09497313015162944793701171875">
        <ele>134</ele>
        <time>2022-01-07T13:31:24.000Z</time>
      </trkpt>
      <trkpt lat="41.51975266635417938232421875" lon="2.09492719732224941253662109375">
        <ele>133.399993896484375</ele>
        <time>2022-01-07T13:31:25.000Z</time>
      </trkpt>
      <trkpt lat="41.5197866968810558319091796875" lon="2.094888389110565185546875">
        <ele>133.1999969482421875</ele>
        <time>2022-01-07T13:31:26.000Z</time>
      </trkpt>
      <trkpt lat="41.51982584036886692047119140625" lon="2.0948536880314350128173828125">
        <ele>133</ele>
        <time>2022-01-07T13:31:27.000Z</time>
      </trkpt>
      <trkpt lat="41.519860960543155670166015625" lon="2.09481798112392425537109375">
        <ele>133</ele>
        <time>2022-01-07T13:31:28.000Z</time>
      </trkpt>
      <trkpt lat="41.51989348232746124267578125" lon="2.09478202275931835174560546875">
        <ele>133</ele>
        <time>2022-01-07T13:31:29.000Z</time>
      </trkpt>
      <trkpt lat="41.519924663007259368896484375" lon="2.0947467349469661712646484375">
        <ele>133</ele>
        <time>2022-01-07T13:31:30.000Z</time>
      </trkpt>
      <trkpt lat="41.519954502582550048828125" lon="2.09471094422042369842529296875">
        <ele>133</ele>
        <time>2022-01-07T13:31:31.000Z</time>
      </trkpt>
      <trkpt lat="41.519986689090728759765625" lon="2.09467641077935695648193359375">
        <ele>133</ele>
        <time>2022-01-07T13:31:32.000Z</time>
      </trkpt>
      <trkpt lat="41.52001862414181232452392578125" lon="2.09464154206216335296630859375">
        <ele>133</ele>
        <time>2022-01-07T13:31:33.000Z</time>
      </trkpt>
      <trkpt lat="41.52005416341125965118408203125" lon="2.09460650570690631866455078125">
        <ele>133</ele>
        <time>2022-01-07T13:31:34.000Z</time>
      </trkpt>
      <trkpt lat="41.52010269463062286376953125" lon="2.0945760793983936309814453125">
        <ele>133.1999969482421875</ele>
        <time>2022-01-07T13:31:35.000Z</time>
      </trkpt>
      <trkpt lat="41.5201454423367977142333984375" lon="2.0945785939693450927734375">
        <ele>133.399993896484375</ele>
        <time>2022-01-07T13:31:36.000Z</time>
      </trkpt>
      <trkpt lat="41.5201850049197673797607421875" lon="2.0946042425930500030517578125">
        <ele>133.600006103515625</ele>
        <time>2022-01-07T13:31:37.000Z</time>
      </trkpt>
      <trkpt lat="41.52021677233278751373291015625" lon="2.09463131614029407501220703125">
        <ele>134</ele>
        <time>2022-01-07T13:31:38.000Z</time>
      </trkpt>
      <trkpt lat="41.52026052586734294891357421875" lon="2.09466383792459964752197265625">
        <ele>134.1999969482421875</ele>
        <time>2022-01-07T13:31:39.000Z</time>
      </trkpt>
      <trkpt lat="41.520310901105403900146484375" lon="2.0946947671473026275634765625">
        <ele>134.1999969482421875</ele>
        <time>2022-01-07T13:31:40.000Z</time>
      </trkpt>
      <trkpt lat="41.5203627012670040130615234375" lon="2.094723768532276153564453125">
        <ele>134.399993896484375</ele>
        <time>2022-01-07T13:31:41.000Z</time>
      </trkpt>
      <trkpt lat="41.52041626162827014923095703125" lon="2.09475486539304256439208984375">
        <ele>134.399993896484375</ele>
        <time>2022-01-07T13:31:42.000Z</time>
      </trkpt>
      <trkpt lat="41.52046906761825084686279296875" lon="2.09478713572025299072265625">
        <ele>134.399993896484375</ele>
        <time>2022-01-07T13:31:43.000Z</time>
      </trkpt>
      <trkpt lat="41.52052321471273899078369140625" lon="2.0948211662471294403076171875">
        <ele>134.399993896484375</ele>
        <time>2022-01-07T13:31:44.000Z</time>
      </trkpt>
      <trkpt lat="41.52057853527367115020751953125" lon="2.094857208430767059326171875">
        <ele>134.399993896484375</ele>
        <time>2022-01-07T13:31:45.000Z</time>
      </trkpt>
      <trkpt lat="41.52063368819653987884521484375" lon="2.0948942564427852630615234375">
        <ele>134.399993896484375</ele>
        <time>2022-01-07T13:31:46.000Z</time>
      </trkpt>
      <trkpt lat="41.52069018222391605377197265625" lon="2.094932980835437774658203125">
        <ele>134.399993896484375</ele>
        <time>2022-01-07T13:31:47.000Z</time>
      </trkpt>
      <trkpt lat="41.52074784971773624420166015625" lon="2.094974219799041748046875">
        <ele>134.399993896484375</ele>
        <time>2022-01-07T13:31:48.000Z</time>
      </trkpt>
      <trkpt lat="41.52080618776381015777587890625" lon="2.09501805715262889862060546875">
        <ele>134.1999969482421875</ele>
        <time>2022-01-07T13:31:49.000Z</time>
      </trkpt>
      <trkpt lat="41.520864777266979217529296875" lon="2.095061726868152618408203125">
        <ele>134</ele>
        <time>2022-01-07T13:31:50.000Z</time>
      </trkpt>
      <trkpt lat="41.5209232829511165618896484375" lon="2.095107994973659515380859375">
        <ele>133.8000030517578125</ele>
        <time>2022-01-07T13:31:51.000Z</time>
      </trkpt>
      <trkpt lat="41.5209843032062053680419921875" lon="2.09515317343175411224365234375">
        <ele>133.600006103515625</ele>
        <time>2022-01-07T13:31:52.000Z</time>
      </trkpt>
      <trkpt lat="41.521041803061962127685546875" lon="2.09519944153726100921630859375">
        <ele>133.1999969482421875</ele>
        <time>2022-01-07T13:31:53.000Z</time>
      </trkpt>
      <trkpt lat="41.5210972912609577178955078125" lon="2.09524847567081451416015625">
        <ele>132.600006103515625</ele>
        <time>2022-01-07T13:31:54.000Z</time>
      </trkpt>
      <trkpt lat="41.5211626701056957244873046875" lon="2.0953063108026981353759765625">
        <ele>132</ele>
        <time>2022-01-07T13:31:55.000Z</time>
      </trkpt>
      <trkpt lat="41.52120483107864856719970703125" lon="2.09534226916730403900146484375">
        <ele>131.8000030517578125</ele>
        <time>2022-01-07T13:31:56.000Z</time>
      </trkpt>
      <trkpt lat="41.52125897817313671112060546875" lon="2.095381915569305419921875">
        <ele>131.399993896484375</ele>
        <time>2022-01-07T13:31:57.000Z</time>
      </trkpt>
      <trkpt lat="41.521313376724720001220703125" lon="2.0954223163425922393798828125">
        <ele>131.1999969482421875</ele>
        <time>2022-01-07T13:31:58.000Z</time>
      </trkpt>
      <trkpt lat="41.52136358432471752166748046875" lon="2.09546531550586223602294921875">
        <ele>130.8000030517578125</ele>
        <time>2022-01-07T13:31:59.000Z</time>
      </trkpt>
      <trkpt lat="41.52141219936311244964599609375" lon="2.09551074542105197906494140625">
        <ele>130.600006103515625</ele>
        <time>2022-01-07T13:32:00.000Z</time>
      </trkpt>
      <trkpt lat="41.5214600600302219390869140625" lon="2.09556003101170063018798828125">
        <ele>130.399993896484375</ele>
        <time>2022-01-07T13:32:01.000Z</time>
      </trkpt>
      <trkpt lat="41.52151085436344146728515625" lon="2.09560378454625606536865234375">
        <ele>130.1999969482421875</ele>
        <time>2022-01-07T13:32:02.000Z</time>
      </trkpt>
      <trkpt lat="41.521564163267612457275390625" lon="2.0956452749669551849365234375">
        <ele>129.8000030517578125</ele>
        <time>2022-01-07T13:32:03.000Z</time>
      </trkpt>
      <trkpt lat="41.52161680161952972412109375" lon="2.0956863462924957275390625">
        <ele>129.399993896484375</ele>
        <time>2022-01-07T13:32:04.000Z</time>
      </trkpt>
      <trkpt lat="41.52166751213371753692626953125" lon="2.09572800435125827789306640625">
        <ele>129</ele>
        <time>2022-01-07T13:32:05.000Z</time>
      </trkpt>
      <trkpt lat="41.5217195637524127960205078125" lon="2.09577142260968685150146484375">
        <ele>128.8000030517578125</ele>
        <time>2022-01-07T13:32:06.000Z</time>
      </trkpt>
      <trkpt lat="41.52176943607628345489501953125" lon="2.0958204567432403564453125">
        <ele>128.600006103515625</ele>
        <time>2022-01-07T13:32:07.000Z</time>
      </trkpt>
      <trkpt lat="41.52182760648429393768310546875" lon="2.0958843268454074859619140625">
        <ele>128.399993896484375</ele>
        <time>2022-01-07T13:32:08.000Z</time>
      </trkpt>
      <trkpt lat="41.5218778140842914581298828125" lon="2.09593101404607295989990234375">
        <ele>128.600006103515625</ele>
        <time>2022-01-07T13:32:09.000Z</time>
      </trkpt>
      <trkpt lat="41.52192902751266956329345703125" lon="2.095970995724201202392578125">
        <ele>128.399993896484375</ele>
        <time>2022-01-07T13:32:10.000Z</time>
      </trkpt>
      <trkpt lat="41.52196926064789295196533203125" lon="2.09600175730884075164794921875">
        <ele>128.1999969482421875</ele>
        <time>2022-01-07T13:32:11.000Z</time>
      </trkpt>
      <trkpt lat="41.5220280177891254425048828125" lon="2.0960459299385547637939453125">
        <ele>128.1999969482421875</ele>
        <time>2022-01-07T13:32:12.000Z</time>
      </trkpt>
      <trkpt lat="41.52208006940782070159912109375" lon="2.096077613532543182373046875">
        <ele>128</ele>
        <time>2022-01-07T13:32:13.000Z</time>
      </trkpt>
      <trkpt lat="41.52213488705456256866455078125" lon="2.0961015857756137847900390625">
        <ele>128</ele>
        <time>2022-01-07T13:32:14.000Z</time>
      </trkpt>
      <trkpt lat="41.52217738330364227294921875" lon="2.0961230434477329254150390625">
        <ele>128</ele>
        <time>2022-01-07T13:32:15.000Z</time>
      </trkpt>
      <trkpt lat="41.52223094366490840911865234375" lon="2.0961522124707698822021484375">
        <ele>128.1999969482421875</ele>
        <time>2022-01-07T13:32:16.000Z</time>
      </trkpt>
      <trkpt lat="41.52229397557675838470458984375" lon="2.09619202651083469390869140625">
        <ele>127.8000030517578125</ele>
        <time>2022-01-07T13:32:17.000Z</time>
      </trkpt>
      <trkpt lat="41.5223465301096439361572265625" lon="2.096227146685123443603515625">
        <ele>127.8000030517578125</ele>
        <time>2022-01-07T13:32:18.000Z</time>
      </trkpt>
      <trkpt lat="41.5223884396255016326904296875" lon="2.0962544716894626617431640625">
        <ele>127.8000030517578125</ele>
        <time>2022-01-07T13:32:19.000Z</time>
      </trkpt>
      <trkpt lat="41.5224400721490383148193359375" lon="2.09628791548311710357666015625">
        <ele>127.8000030517578125</ele>
        <time>2022-01-07T13:32:20.000Z</time>
      </trkpt>
      <trkpt lat="41.52250570245087146759033203125" lon="2.09631926380097866058349609375">
        <ele>127.8000030517578125</ele>
        <time>2022-01-07T13:32:21.000Z</time>
      </trkpt>
      <trkpt lat="41.52256085537374019622802734375" lon="2.09633602760732173919677734375">
        <ele>127.8000030517578125</ele>
        <time>2022-01-07T13:32:22.000Z</time>
      </trkpt>
      <trkpt lat="41.5226184390485286712646484375" lon="2.09634373895823955535888671875">
        <ele>127.8000030517578125</ele>
        <time>2022-01-07T13:32:23.000Z</time>
      </trkpt>
      <trkpt lat="41.5226648747920989990234375" lon="2.09634072147309780120849609375">
        <ele>127.8000030517578125</ele>
        <time>2022-01-07T13:32:24.000Z</time>
      </trkpt>
      <trkpt lat="41.52272044681012630462646484375" lon="2.0963300764560699462890625">
        <ele>127.8000030517578125</ele>
        <time>2022-01-07T13:32:25.000Z</time>
      </trkpt>
      <trkpt lat="41.52278758585453033447265625" lon="2.0963005721569061279296875">
        <ele>127.8000030517578125</ele>
        <time>2022-01-07T13:32:26.000Z</time>
      </trkpt>
      <trkpt lat="41.52284433133900165557861328125" lon="2.09626897238194942474365234375">
        <ele>127.8000030517578125</ele>
        <time>2022-01-07T13:32:27.000Z</time>
      </trkpt>
      <trkpt lat="41.52289948426187038421630859375" lon="2.09624223411083221435546875">
        <ele>127.8000030517578125</ele>
        <time>2022-01-07T13:32:28.000Z</time>
      </trkpt>
      <trkpt lat="41.52294206432998180389404296875" lon="2.09621767513453960418701171875">
        <ele>128</ele>
        <time>2022-01-07T13:32:29.000Z</time>
      </trkpt>
      <trkpt lat="41.52300526387989521026611328125" lon="2.09618062712252140045166015625">
        <ele>128</ele>
        <time>2022-01-07T13:32:30.000Z</time>
      </trkpt>
      <trkpt lat="41.523046754300594329833984375" lon="2.09615598432719707489013671875">
        <ele>128.1999969482421875</ele>
        <time>2022-01-07T13:32:31.000Z</time>
      </trkpt>
      <trkpt lat="41.523110456764698028564453125" lon="2.09612153470516204833984375">
        <ele>128.399993896484375</ele>
        <time>2022-01-07T13:32:32.000Z</time>
      </trkpt>
      <trkpt lat="41.52315345592796802520751953125" lon="2.09610007703304290771484375">
        <ele>128.8000030517578125</ele>
        <time>2022-01-07T13:32:33.000Z</time>
      </trkpt>
      <trkpt lat="41.5232071839272975921630859375" lon="2.0960747636854648590087890625">
        <ele>129.1999969482421875</ele>
        <time>2022-01-07T13:32:34.000Z</time>
      </trkpt>
      <trkpt lat="41.52326191775500774383544921875" lon="2.09605322219431400299072265625">
        <ele>129.600006103515625</ele>
        <time>2022-01-07T13:32:35.000Z</time>
      </trkpt>
      <trkpt lat="41.5233178250491619110107421875" lon="2.09603528492152690887451171875">
        <ele>130</ele>
        <time>2022-01-07T13:32:36.000Z</time>
      </trkpt>
      <trkpt lat="41.5233744867146015167236328125" lon="2.0960204489529132843017578125">
        <ele>130.1999969482421875</ele>
        <time>2022-01-07T13:32:37.000Z</time>
      </trkpt>
      <trkpt lat="41.52342972345650196075439453125" lon="2.09600527770817279815673828125">
        <ele>130.600006103515625</ele>
        <time>2022-01-07T13:32:38.000Z</time>
      </trkpt>
      <trkpt lat="41.52348722331225872039794921875" lon="2.09598583169281482696533203125">
        <ele>131</ele>
        <time>2022-01-07T13:32:39.000Z</time>
      </trkpt>
      <trkpt lat="41.52354354970157146453857421875" lon="2.09596437402069568634033203125">
        <ele>131.399993896484375</ele>
        <time>2022-01-07T13:32:40.000Z</time>
      </trkpt>
      <trkpt lat="41.52359937317669391632080078125" lon="2.0959419943392276763916015625">
        <ele>131.600006103515625</ele>
        <time>2022-01-07T13:32:41.000Z</time>
      </trkpt>
      <trkpt lat="41.52365368790924549102783203125" lon="2.09591827355325222015380859375">
        <ele>132</ele>
        <time>2022-01-07T13:32:42.000Z</time>
      </trkpt>
      <trkpt lat="41.52370867319405078887939453125" lon="2.095891535282135009765625">
        <ele>132.399993896484375</ele>
        <time>2022-01-07T13:32:43.000Z</time>
      </trkpt>
      <trkpt lat="41.5237637422978878021240234375" lon="2.095864377915859222412109375">
        <ele>132.399993896484375</ele>
        <time>2022-01-07T13:32:44.000Z</time>
      </trkpt>
      <trkpt lat="41.52381964959204196929931640625" lon="2.09584099240601062774658203125">
        <ele>132.600006103515625</ele>
        <time>2022-01-07T13:32:45.000Z</time>
      </trkpt>
      <trkpt lat="41.523876897990703582763671875" lon="2.09581651724874973297119140625">
        <ele>133.1999969482421875</ele>
        <time>2022-01-07T13:32:46.000Z</time>
      </trkpt>
      <trkpt lat="41.52393481694161891937255859375" lon="2.095792628824710845947265625">
        <ele>133.600006103515625</ele>
        <time>2022-01-07T13:32:47.000Z</time>
      </trkpt>
      <trkpt lat="41.52399457991123199462890625" lon="2.09576806984841823577880859375">
        <ele>134</ele>
        <time>2022-01-07T13:32:48.000Z</time>
      </trkpt>
      <trkpt lat="41.5240550972521305084228515625" lon="2.09574912674725055694580078125">
        <ele>134.1999969482421875</ele>
        <time>2022-01-07T13:32:49.000Z</time>
      </trkpt>
      <trkpt lat="41.52411636896431446075439453125" lon="2.09573797881603240966796875">
        <ele>134.8000030517578125</ele>
        <time>2022-01-07T13:32:50.000Z</time>
      </trkpt>
      <trkpt lat="41.524177305400371551513671875" lon="2.09572968073189258575439453125">
        <ele>135.399993896484375</ele>
        <time>2022-01-07T13:32:51.000Z</time>
      </trkpt>
      <trkpt lat="41.52423757128417491912841796875" lon="2.0957200415432453155517578125">
        <ele>135.8000030517578125</ele>
        <time>2022-01-07T13:32:52.000Z</time>
      </trkpt>
      <trkpt lat="41.5242969989776611328125" lon="2.095706462860107421875">
        <ele>136.1999969482421875</ele>
        <time>2022-01-07T13:32:53.000Z</time>
      </trkpt>
      <trkpt lat="41.52435324154794216156005859375" lon="2.09568969905376434326171875">
        <ele>136.399993896484375</ele>
        <time>2022-01-07T13:32:54.000Z</time>
      </trkpt>
      <trkpt lat="41.5244098193943500518798828125" lon="2.0956650562584400177001953125">
        <ele>136.399993896484375</ele>
        <time>2022-01-07T13:32:55.000Z</time>
      </trkpt>
      <trkpt lat="41.52446438558399677276611328125" lon="2.09563513286411762237548828125">
        <ele>136.600006103515625</ele>
        <time>2022-01-07T13:32:56.000Z</time>
      </trkpt>
      <trkpt lat="41.52452238835394382476806640625" lon="2.095606215298175811767578125">
        <ele>136.600006103515625</ele>
        <time>2022-01-07T13:32:57.000Z</time>
      </trkpt>
      <trkpt lat="41.52458005584776401519775390625" lon="2.0955855958163738250732421875">
        <ele>136.8000030517578125</ele>
        <time>2022-01-07T13:32:58.000Z</time>
      </trkpt>
      <trkpt lat="41.524635963141918182373046875" lon="2.09555885754525661468505859375">
        <ele>136.8000030517578125</ele>
        <time>2022-01-07T13:32:59.000Z</time>
      </trkpt>
      <trkpt lat="41.5246914513409137725830078125" lon="2.09553010761737823486328125">
        <ele>137</ele>
        <time>2022-01-07T13:33:00.000Z</time>
      </trkpt>
      <trkpt lat="41.524746604263782501220703125" lon="2.09550705738365650177001953125">
        <ele>137</ele>
        <time>2022-01-07T13:33:01.000Z</time>
      </trkpt>
      <trkpt lat="41.5248051099479198455810546875" lon="2.095489203929901123046875">
        <ele>137</ele>
        <time>2022-01-07T13:33:02.000Z</time>
      </trkpt>
      <trkpt lat="41.5248641185462474822998046875" lon="2.0954702608287334442138671875">
        <ele>137</ele>
        <time>2022-01-07T13:33:03.000Z</time>
      </trkpt>
      <trkpt lat="41.52492119930684566497802734375" lon="2.09544360637664794921875">
        <ele>137.1999969482421875</ele>
        <time>2022-01-07T13:33:04.000Z</time>
      </trkpt>
      <trkpt lat="41.524986661970615386962890625" lon="2.0954032056033611297607421875">
        <ele>137.600006103515625</ele>
        <time>2022-01-07T13:33:05.000Z</time>
      </trkpt>
      <trkpt lat="41.52503033168613910675048828125" lon="2.095380909740924835205078125">
        <ele>137.8000030517578125</ele>
        <time>2022-01-07T13:33:06.000Z</time>
      </trkpt>
      <trkpt lat="41.52508649043738842010498046875" lon="2.09535215981304645538330078125">
        <ele>138</ele>
        <time>2022-01-07T13:33:07.000Z</time>
      </trkpt>
      <trkpt lat="41.525155641138553619384765625" lon="2.09531527943909168243408203125">
        <ele>138</ele>
        <time>2022-01-07T13:33:08.000Z</time>
      </trkpt>
      <trkpt lat="41.52520232833921909332275390625" lon="2.09529348649084568023681640625">
        <ele>138.1999969482421875</ele>
        <time>2022-01-07T13:33:09.000Z</time>
      </trkpt>
      <trkpt lat="41.525264270603656768798828125" lon="2.09526817314326763153076171875">
        <ele>138.399993896484375</ele>
        <time>2022-01-07T13:33:10.000Z</time>
      </trkpt>
      <trkpt lat="41.525323949754238128662109375" lon="2.09524151869118213653564453125">
        <ele>138.399993896484375</ele>
        <time>2022-01-07T13:33:11.000Z</time>
      </trkpt>
      <trkpt lat="41.5253801085054874420166015625" lon="2.0952137745916843414306640625">
        <ele>138.600006103515625</ele>
        <time>2022-01-07T13:33:12.000Z</time>
      </trkpt>
      <trkpt lat="41.5254371054470539093017578125" lon="2.09518804214894771575927734375">
        <ele>138.600006103515625</ele>
        <time>2022-01-07T13:33:13.000Z</time>
      </trkpt>
      <trkpt lat="41.52549351565539836883544921875" lon="2.09516189061105251312255859375">
        <ele>138.8000030517578125</ele>
        <time>2022-01-07T13:33:14.000Z</time>
      </trkpt>
      <trkpt lat="41.5255500935018062591552734375" lon="2.09513221867382526397705078125">
        <ele>139</ele>
        <time>2022-01-07T13:33:15.000Z</time>
      </trkpt>
      <trkpt lat="41.52560633607208728790283203125" lon="2.09510254673659801483154296875">
        <ele>139.399993896484375</ele>
        <time>2022-01-07T13:33:16.000Z</time>
      </trkpt>
      <trkpt lat="41.52566132135689258575439453125" lon="2.0950722880661487579345703125">
        <ele>139.399993896484375</ele>
        <time>2022-01-07T13:33:17.000Z</time>
      </trkpt>
      <trkpt lat="41.525714881718158721923828125" lon="2.09503951482474803924560546875">
        <ele>139.600006103515625</ele>
        <time>2022-01-07T13:33:18.000Z</time>
      </trkpt>
      <trkpt lat="41.52576676569879055023193359375" lon="2.09500883705914020538330078125">
        <ele>139.8000030517578125</ele>
        <time>2022-01-07T13:33:19.000Z</time>
      </trkpt>
      <trkpt lat="41.52581487782299518585205078125" lon="2.0949847809970378875732421875">
        <ele>140</ele>
        <time>2022-01-07T13:33:20.000Z</time>
      </trkpt>
      <trkpt lat="41.525860391557216644287109375" lon="2.09496374242007732391357421875">
        <ele>140.1999969482421875</ele>
        <time>2022-01-07T13:33:21.000Z</time>
      </trkpt>
      <trkpt lat="41.5259021334350109100341796875" lon="2.09494764916598796844482421875">
        <ele>140.1999969482421875</ele>
        <time>2022-01-07T13:33:22.000Z</time>
      </trkpt>
      <trkpt lat="41.5259420312941074371337890625" lon="2.09493004716932773590087890625">
        <ele>140.600006103515625</ele>
        <time>2022-01-07T13:33:23.000Z</time>
      </trkpt>
      <trkpt lat="41.52598435990512371063232421875" lon="2.0949080027639865875244140625">
        <ele>140.8000030517578125</ele>
        <time>2022-01-07T13:33:24.000Z</time>
      </trkpt>
      <trkpt lat="41.52603012509644031524658203125" lon="2.0948831923305988311767578125">
        <ele>141</ele>
        <time>2022-01-07T13:33:25.000Z</time>
      </trkpt>
      <trkpt lat="41.52607597410678863525390625" lon="2.0948560349643230438232421875">
        <ele>141.1999969482421875</ele>
        <time>2022-01-07T13:33:26.000Z</time>
      </trkpt>
      <trkpt lat="41.5261224098503589630126953125" lon="2.0948282070457935333251953125">
        <ele>141.1999969482421875</ele>
        <time>2022-01-07T13:33:27.000Z</time>
      </trkpt>
      <trkpt lat="41.52617077343165874481201171875" lon="2.09480322897434234619140625">
        <ele>141.600006103515625</ele>
        <time>2022-01-07T13:33:28.000Z</time>
      </trkpt>
      <trkpt lat="41.526221148669719696044921875" lon="2.0947792567312717437744140625">
        <ele>141.600006103515625</ele>
        <time>2022-01-07T13:33:29.000Z</time>
      </trkpt>
      <trkpt lat="41.5262712724506855010986328125" lon="2.09475402720272541046142578125">
        <ele>141.8000030517578125</ele>
        <time>2022-01-07T13:33:30.000Z</time>
      </trkpt>
      <trkpt lat="41.5263215638697147369384765625" lon="2.09472670219838619232177734375">
        <ele>142</ele>
        <time>2022-01-07T13:33:31.000Z</time>
      </trkpt>
      <trkpt lat="41.52637093327939510345458984375" lon="2.09469635970890522003173828125">
        <ele>142.1999969482421875</ele>
        <time>2022-01-07T13:33:32.000Z</time>
      </trkpt>
      <trkpt lat="41.52642256580293178558349609375" lon="2.0946642570197582244873046875">
        <ele>142.399993896484375</ele>
        <time>2022-01-07T13:33:33.000Z</time>
      </trkpt>
      <trkpt lat="41.52647294104099273681640625" lon="2.09463332779705524444580078125">
        <ele>142.399993896484375</ele>
        <time>2022-01-07T13:33:34.000Z</time>
      </trkpt>
      <trkpt lat="41.52652398683130741119384765625" lon="2.094601057469844818115234375">
        <ele>142.399993896484375</ele>
        <time>2022-01-07T13:33:35.000Z</time>
      </trkpt>
      <trkpt lat="41.52657444588840007781982421875" lon="2.0945687033236026763916015625">
        <ele>142.600006103515625</ele>
        <time>2022-01-07T13:33:36.000Z</time>
      </trkpt>
      <trkpt lat="41.526633203029632568359375" lon="2.09453308023512363433837890625">
        <ele>142.600006103515625</ele>
        <time>2022-01-07T13:33:37.000Z</time>
      </trkpt>
      <trkpt lat="41.5266722626984119415283203125" lon="2.094512879848480224609375">
        <ele>142.8000030517578125</ele>
        <time>2022-01-07T13:33:38.000Z</time>
      </trkpt>
      <trkpt lat="41.52671911753714084625244140625" lon="2.09448664449155330657958984375">
        <ele>143</ele>
        <time>2022-01-07T13:33:39.000Z</time>
      </trkpt>
      <trkpt lat="41.5267681516706943511962890625" lon="2.09446418099105358123779296875">
        <ele>143.1999969482421875</ele>
        <time>2022-01-07T13:33:40.000Z</time>
      </trkpt>
      <trkpt lat="41.5268160961568355560302734375" lon="2.09443970583379268646240234375">
        <ele>143.1999969482421875</ele>
        <time>2022-01-07T13:33:41.000Z</time>
      </trkpt>
      <trkpt lat="41.52686563320457935333251953125" lon="2.094418667256832122802734375">
        <ele>143.399993896484375</ele>
        <time>2022-01-07T13:33:42.000Z</time>
      </trkpt>
      <trkpt lat="41.526915170252323150634765625" lon="2.09440064616501331329345703125">
        <ele>143.399993896484375</ele>
        <time>2022-01-07T13:33:43.000Z</time>
      </trkpt>
      <trkpt lat="41.5269644558429718017578125" lon="2.0943779312074184417724609375">
        <ele>143.600006103515625</ele>
        <time>2022-01-07T13:33:44.000Z</time>
      </trkpt>
      <trkpt lat="41.5270135737955570220947265625" lon="2.09435069002211093902587890625">
        <ele>143.600006103515625</ele>
        <time>2022-01-07T13:33:45.000Z</time>
      </trkpt>
      <trkpt lat="41.52706210501492023468017578125" lon="2.09431950934231281280517578125">
        <ele>144</ele>
        <time>2022-01-07T13:33:46.000Z</time>
      </trkpt>
      <trkpt lat="41.52711189351975917816162109375" lon="2.09429218433797359466552734375">
        <ele>144.1999969482421875</ele>
        <time>2022-01-07T13:33:47.000Z</time>
      </trkpt>
      <trkpt lat="41.52716184966266155242919921875" lon="2.0942656137049198150634765625">
        <ele>144.399993896484375</ele>
        <time>2022-01-07T13:33:48.000Z</time>
      </trkpt>
      <trkpt lat="41.5272100456058979034423828125" lon="2.094235606491565704345703125">
        <ele>144.600006103515625</ele>
        <time>2022-01-07T13:33:49.000Z</time>
      </trkpt>
      <trkpt lat="41.5272559784352779388427734375" lon="2.09420568309724330902099609375">
        <ele>144.8000030517578125</ele>
        <time>2022-01-07T13:33:50.000Z</time>
      </trkpt>
      <trkpt lat="41.5273029170930385589599609375" lon="2.09417701698839664459228515625">
        <ele>145</ele>
        <time>2022-01-07T13:33:51.000Z</time>
      </trkpt>
      <trkpt lat="41.52735396288335323333740234375" lon="2.09415136836469173431396484375">
        <ele>145.399993896484375</ele>
        <time>2022-01-07T13:33:52.000Z</time>
      </trkpt>
      <trkpt lat="41.52740442194044589996337890625" lon="2.0941264741122722625732421875">
        <ele>145.600006103515625</ele>
        <time>2022-01-07T13:33:53.000Z</time>
      </trkpt>
      <trkpt lat="41.52745454572141170501708984375" lon="2.094101496040821075439453125">
        <ele>145.600006103515625</ele>
        <time>2022-01-07T13:33:54.000Z</time>
      </trkpt>
      <trkpt lat="41.52750081382691860198974609375" lon="2.09408112801611423492431640625">
        <ele>145.8000030517578125</ele>
        <time>2022-01-07T13:33:55.000Z</time>
      </trkpt>
      <trkpt lat="41.5275438129901885986328125" lon="2.09407291375100612640380859375">
        <ele>145.8000030517578125</ele>
        <time>2022-01-07T13:33:56.000Z</time>
      </trkpt>
      <trkpt lat="41.52757910080254077911376953125" lon="2.094085402786731719970703125">
        <ele>145.8000030517578125</ele>
        <time>2022-01-07T13:33:57.000Z</time>
      </trkpt>
      <trkpt lat="41.5276056714355945587158203125" lon="2.094111554324626922607421875">
        <ele>146</ele>
        <time>2022-01-07T13:33:58.000Z</time>
      </trkpt>
      <trkpt lat="41.527627296745777130126953125" lon="2.09414684213697910308837890625">
        <ele>146.399993896484375</ele>
        <time>2022-01-07T13:33:59.000Z</time>
      </trkpt>
      <trkpt lat="41.52764833532273769378662109375" lon="2.0941911824047565460205078125">
        <ele>146.600006103515625</ele>
        <time>2022-01-07T13:34:00.000Z</time>
      </trkpt>
      <trkpt lat="41.5276717208325862884521484375" lon="2.0942451618611812591552734375">
        <ele>146.8000030517578125</ele>
        <time>2022-01-07T13:34:01.000Z</time>
      </trkpt>
      <trkpt lat="41.5276998840272426605224609375" lon="2.0942998118698596954345703125">
        <ele>147</ele>
        <time>2022-01-07T13:34:02.000Z</time>
      </trkpt>
      <trkpt lat="41.527729220688343048095703125" lon="2.0943541266024112701416015625">
        <ele>147</ele>
        <time>2022-01-07T13:34:03.000Z</time>
      </trkpt>
      <trkpt lat="41.527764089405536651611328125" lon="2.09441942162811756134033203125">
        <ele>147</ele>
        <time>2022-01-07T13:34:04.000Z</time>
      </trkpt>
      <trkpt lat="41.52779233641922473907470703125" lon="2.0944741554558277130126953125">
        <ele>147.1999969482421875</ele>
        <time>2022-01-07T13:34:05.000Z</time>
      </trkpt>
      <trkpt lat="41.52788571082055568695068359375" lon="2.0950042270123958587646484375">
        <ele>147.600006103515625</ele>
        <time>2022-01-07T13:34:16.000Z</time>
      </trkpt>
      <trkpt lat="41.52790448628365993499755859375" lon="2.09502224810421466827392578125">
        <ele>147.600006103515625</ele>
        <time>2022-01-07T13:34:17.000Z</time>
      </trkpt>
      <trkpt lat="41.52792728506028652191162109375" lon="2.09501805715262889862060546875">
        <ele>147.600006103515625</ele>
        <time>2022-01-07T13:34:18.000Z</time>
      </trkpt>
      <trkpt lat="41.52795142494142055511474609375" lon="2.0949916541576385498046875">
        <ele>147.600006103515625</ele>
        <time>2022-01-07T13:34:19.000Z</time>
      </trkpt>
      <trkpt lat="41.527980007231235504150390625" lon="2.0949636586010456085205078125">
        <ele>147.8000030517578125</ele>
        <time>2022-01-07T13:34:20.000Z</time>
      </trkpt>
      <trkpt lat="41.52800674550235271453857421875" lon="2.0949428714811801910400390625">
        <ele>147.8000030517578125</ele>
        <time>2022-01-07T13:34:21.000Z</time>
      </trkpt>
      <trkpt lat="41.5280375070869922637939453125" lon="2.09492920897901058197021484375">
        <ele>147.8000030517578125</ele>
        <time>2022-01-07T13:34:22.000Z</time>
      </trkpt>
      <trkpt lat="41.5280794166028499603271484375" lon="2.0949016325175762176513671875">
        <ele>147.8000030517578125</ele>
        <time>2022-01-07T13:34:23.000Z</time>
      </trkpt>
      <trkpt lat="41.5281233377754688262939453125" lon="2.094884030520915985107421875">
        <ele>147.8000030517578125</ele>
        <time>2022-01-07T13:34:24.000Z</time>
      </trkpt>
      <trkpt lat="41.52816851623356342315673828125" lon="2.09486785344779491424560546875">
        <ele>147.8000030517578125</ele>
        <time>2022-01-07T13:34:25.000Z</time>
      </trkpt>
      <trkpt lat="41.52821528725326061248779296875" lon="2.09484673105180263519287109375">
        <ele>147.8000030517578125</ele>
        <time>2022-01-07T13:34:26.000Z</time>
      </trkpt>
      <trkpt lat="41.52826440520584583282470703125" lon="2.09481798112392425537109375">
        <ele>148</ele>
        <time>2022-01-07T13:34:27.000Z</time>
      </trkpt>
      <trkpt lat="41.52831025421619415283203125" lon="2.09479023702442646026611328125">
        <ele>148</ele>
        <time>2022-01-07T13:34:28.000Z</time>
      </trkpt>
      <trkpt lat="41.52835459448397159576416015625" lon="2.094761319458484649658203125">
        <ele>148.1999969482421875</ele>
        <time>2022-01-07T13:34:29.000Z</time>
      </trkpt>
      <trkpt lat="41.5284022875130176544189453125" lon="2.094733826816082000732421875">
        <ele>148.1999969482421875</ele>
        <time>2022-01-07T13:34:30.000Z</time>
      </trkpt>
      <trkpt lat="41.5284539200365543365478515625" lon="2.09471513517200946807861328125">
        <ele>148.1999969482421875</ele>
        <time>2022-01-07T13:34:31.000Z</time>
      </trkpt>
      <trkpt lat="41.52850664220750331878662109375" lon="2.09469082765281200408935546875">
        <ele>148.1999969482421875</ele>
        <time>2022-01-07T13:34:32.000Z</time>
      </trkpt>
      <trkpt lat="41.5285591967403888702392578125" lon="2.0946669392287731170654296875">
        <ele>148.1999969482421875</ele>
        <time>2022-01-07T13:34:33.000Z</time>
      </trkpt>
      <trkpt lat="41.5286141820251941680908203125" lon="2.09463986568152904510498046875">
        <ele>148.1999969482421875</ele>
        <time>2022-01-07T13:34:34.000Z</time>
      </trkpt>
      <trkpt lat="41.5286705084145069122314453125" lon="2.09461212158203125">
        <ele>148.1999969482421875</ele>
        <time>2022-01-07T13:34:35.000Z</time>
      </trkpt>
      <trkpt lat="41.528730355203151702880859375" lon="2.0945904962718486785888671875">
        <ele>148.1999969482421875</ele>
        <time>2022-01-07T13:34:36.000Z</time>
      </trkpt>
      <trkpt lat="41.5287915430963039398193359375" lon="2.09456610493361949920654296875">
        <ele>148.1999969482421875</ele>
        <time>2022-01-07T13:34:37.000Z</time>
      </trkpt>
      <trkpt lat="41.5288512222468852996826171875" lon="2.0945368520915508270263671875">
        <ele>148.1999969482421875</ele>
        <time>2022-01-07T13:34:38.000Z</time>
      </trkpt>
      <trkpt lat="41.528910063207149505615234375" lon="2.09450609050691127777099609375">
        <ele>148.1999969482421875</ele>
        <time>2022-01-07T13:34:39.000Z</time>
      </trkpt>
      <trkpt lat="41.5289678983390331268310546875" lon="2.09447105415165424346923828125">
        <ele>148.399993896484375</ele>
        <time>2022-01-07T13:34:40.000Z</time>
      </trkpt>
      <trkpt lat="41.5290252305567264556884765625" lon="2.09443601779639720916748046875">
        <ele>148.399993896484375</ele>
        <time>2022-01-07T13:34:41.000Z</time>
      </trkpt>
      <trkpt lat="41.52907996438443660736083984375" lon="2.0944044180214405059814453125">
        <ele>148.399993896484375</ele>
        <time>2022-01-07T13:34:42.000Z</time>
      </trkpt>
      <trkpt lat="41.52913494966924190521240234375" lon="2.09437273442745208740234375">
        <ele>148.399993896484375</ele>
        <time>2022-01-07T13:34:43.000Z</time>
      </trkpt>
      <trkpt lat="41.52919135987758636474609375" lon="2.09434314630925655364990234375">
        <ele>148.399993896484375</ele>
        <time>2022-01-07T13:34:44.000Z</time>
      </trkpt>
      <trkpt lat="41.5292491950094699859619140625" lon="2.09431481547653675079345703125">
        <ele>148.600006103515625</ele>
        <time>2022-01-07T13:34:45.000Z</time>
      </trkpt>
      <trkpt lat="41.5293088741600513458251953125" lon="2.09429620765149593353271484375">
        <ele>148.600006103515625</ele>
        <time>2022-01-07T13:34:46.000Z</time>
      </trkpt>
      <trkpt lat="41.529368720948696136474609375" lon="2.09429704584181308746337890625">
        <ele>148.8000030517578125</ele>
        <time>2022-01-07T13:34:47.000Z</time>
      </trkpt>
      <trkpt lat="41.5294359438121318817138671875" lon="2.09432638250291347503662109375">
        <ele>148.8000030517578125</ele>
        <time>2022-01-07T13:34:48.000Z</time>
      </trkpt>
      <trkpt lat="41.52947475202381610870361328125" lon="2.0943666994571685791015625">
        <ele>149.1999969482421875</ele>
        <time>2022-01-07T13:34:49.000Z</time>
      </trkpt>
      <trkpt lat="41.529516242444515228271484375" lon="2.09442981518805027008056640625">
        <ele>149.399993896484375</ele>
        <time>2022-01-07T13:34:50.000Z</time>
      </trkpt>
      <trkpt lat="41.52954918332397937774658203125" lon="2.09450324065983295440673828125">
        <ele>149.399993896484375</ele>
        <time>2022-01-07T13:34:51.000Z</time>
      </trkpt>
      <trkpt lat="41.5295781008899211883544921875" lon="2.09458270110189914703369140625">
        <ele>149.399993896484375</ele>
        <time>2022-01-07T13:34:52.000Z</time>
      </trkpt>
      <trkpt lat="41.52960333041846752166748046875" lon="2.09466383792459964752197265625">
        <ele>149.600006103515625</ele>
        <time>2022-01-07T13:34:53.000Z</time>
      </trkpt>
      <trkpt lat="41.52962587773799896240234375" lon="2.09474581293761730194091796875">
        <ele>149.600006103515625</ele>
        <time>2022-01-07T13:34:54.000Z</time>
      </trkpt>
      <trkpt lat="41.529646329581737518310546875" lon="2.0948292128741741180419921875">
        <ele>149.399993896484375</ele>
        <time>2022-01-07T13:34:55.000Z</time>
      </trkpt>
      <trkpt lat="41.52966971509158611297607421875" lon="2.0949085056781768798828125">
        <ele>149.600006103515625</ele>
        <time>2022-01-07T13:34:56.000Z</time>
      </trkpt>
      <trkpt lat="41.52969620190560817718505859375" lon="2.09498603828251361846923828125">
        <ele>149.600006103515625</ele>
        <time>2022-01-07T13:34:57.000Z</time>
      </trkpt>
      <trkpt lat="41.5297205932438373565673828125" lon="2.09506482817232608795166015625">
        <ele>149.600006103515625</ele>
        <time>2022-01-07T13:34:58.000Z</time>
      </trkpt>
      <trkpt lat="41.52974188327789306640625" lon="2.095144875347614288330078125">
        <ele>149.399993896484375</ele>
        <time>2022-01-07T13:34:59.000Z</time>
      </trkpt>
      <trkpt lat="41.5297645144164562225341796875" lon="2.09522492252290248870849609375">
        <ele>149.1999969482421875</ele>
        <time>2022-01-07T13:35:00.000Z</time>
      </trkpt>
      <trkpt lat="41.52978622354567050933837890625" lon="2.09530605934560298919677734375">
        <ele>149.1999969482421875</ele>
        <time>2022-01-07T13:35:01.000Z</time>
      </trkpt>
      <trkpt lat="41.52980516664683818817138671875" lon="2.09539038129150867462158203125">
        <ele>149.1999969482421875</ele>
        <time>2022-01-07T13:35:02.000Z</time>
      </trkpt>
      <trkpt lat="41.52982226572930812835693359375" lon="2.09547671489417552947998046875">
        <ele>149.1999969482421875</ele>
        <time>2022-01-07T13:35:03.000Z</time>
      </trkpt>
      <trkpt lat="41.529843471944332122802734375" lon="2.09556229412555694580078125">
        <ele>149.1999969482421875</ele>
        <time>2022-01-07T13:35:04.000Z</time>
      </trkpt>
      <trkpt lat="41.52986853383481502532958984375" lon="2.09564669989049434661865234375">
        <ele>149</ele>
        <time>2022-01-07T13:35:05.000Z</time>
      </trkpt>
      <trkpt lat="41.5298956073820590972900390625" lon="2.095730267465114593505859375">
        <ele>149</ele>
        <time>2022-01-07T13:35:06.000Z</time>
      </trkpt>
      <trkpt lat="41.5299264527857303619384765625" lon="2.09582976065576076507568359375">
        <ele>149</ele>
        <time>2022-01-07T13:35:07.000Z</time>
      </trkpt>
      <trkpt lat="41.52994715608656406402587890625" lon="2.09589430131018161773681640625">
        <ele>149</ele>
        <time>2022-01-07T13:35:08.000Z</time>
      </trkpt>
      <trkpt lat="41.52997330762445926666259765625" lon="2.095973007380962371826171875">
        <ele>148.600006103515625</ele>
        <time>2022-01-07T13:35:09.000Z</time>
      </trkpt>
      <trkpt lat="41.52999736368656158447265625" lon="2.0960538089275360107421875">
        <ele>148.399993896484375</ele>
        <time>2022-01-07T13:35:10.000Z</time>
      </trkpt>
      <trkpt lat="41.5300179831683635711669921875" lon="2.09612832404673099517822265625">
        <ele>148.399993896484375</ele>
        <time>2022-01-07T13:35:11.000Z</time>
      </trkpt>
      <trkpt lat="41.53003181330859661102294921875" lon="2.09619470871984958648681640625">
        <ele>148.1999969482421875</ele>
        <time>2022-01-07T13:35:12.000Z</time>
      </trkpt>
      <trkpt lat="41.53004321269690990447998046875" lon="2.09626327268779277801513671875">
        <ele>148</ele>
        <time>2022-01-07T13:35:13.000Z</time>
      </trkpt>
      <trkpt lat="41.5300543606281280517578125" lon="2.0963356085121631622314453125">
        <ele>147.8000030517578125</ele>
        <time>2022-01-07T13:35:14.000Z</time>
      </trkpt>
      <trkpt lat="41.5300679393112659454345703125" lon="2.09641397930681705474853515625">
        <ele>147.8000030517578125</ele>
        <time>2022-01-07T13:35:15.000Z</time>
      </trkpt>
      <trkpt lat="41.53008612804114818572998046875" lon="2.0964958705008029937744140625">
        <ele>147.600006103515625</ele>
        <time>2022-01-07T13:35:16.000Z</time>
      </trkpt>
      <trkpt lat="41.53010708279907703399658203125" lon="2.0965796895325183868408203125">
        <ele>147.399993896484375</ele>
        <time>2022-01-07T13:35:17.000Z</time>
      </trkpt>
      <trkpt lat="41.53012619353830814361572265625" lon="2.09666510112583637237548828125">
        <ele>147.399993896484375</ele>
        <time>2022-01-07T13:35:18.000Z</time>
      </trkpt>
      <trkpt lat="41.53014077804982662200927734375" lon="2.09675051271915435791015625">
        <ele>147.1999969482421875</ele>
        <time>2022-01-07T13:35:19.000Z</time>
      </trkpt>
      <trkpt lat="41.5301507525146007537841796875" lon="2.09683642722666263580322265625">
        <ele>147.1999969482421875</ele>
        <time>2022-01-07T13:35:20.000Z</time>
      </trkpt>
      <trkpt lat="41.53015770949423313140869140625" lon="2.0969228446483612060546875">
        <ele>147.1999969482421875</ele>
        <time>2022-01-07T13:35:21.000Z</time>
      </trkpt>
      <trkpt lat="41.530168019235134124755859375" lon="2.09701160900294780731201171875">
        <ele>147</ele>
        <time>2022-01-07T13:35:22.000Z</time>
      </trkpt>
      <trkpt lat="41.53018402867019176483154296875" lon="2.09709777496755123138427734375">
        <ele>147</ele>
        <time>2022-01-07T13:35:23.000Z</time>
      </trkpt>
      <trkpt lat="41.53020389378070831298828125" lon="2.09718327037990093231201171875">
        <ele>147</ele>
        <time>2022-01-07T13:35:24.000Z</time>
      </trkpt>
      <trkpt lat="41.5302228368818759918212890625" lon="2.09727111272513866424560546875">
        <ele>146.600006103515625</ele>
        <time>2022-01-07T13:35:25.000Z</time>
      </trkpt>
      <trkpt lat="41.5302389301359653472900390625" lon="2.09736029617488384246826171875">
        <ele>146.1999969482421875</ele>
        <time>2022-01-07T13:35:26.000Z</time>
      </trkpt>
      <trkpt lat="41.5302530117332935333251953125" lon="2.09744931198656558990478515625">
        <ele>146</ele>
        <time>2022-01-07T13:35:27.000Z</time>
      </trkpt>
      <trkpt lat="41.530269943177700042724609375" lon="2.0975385792553424835205078125">
        <ele>146</ele>
        <time>2022-01-07T13:35:28.000Z</time>
      </trkpt>
      <trkpt lat="41.53028829954564571380615234375" lon="2.09762767888605594635009765625">
        <ele>145.8000030517578125</ele>
        <time>2022-01-07T13:35:29.000Z</time>
      </trkpt>
      <trkpt lat="41.530306823551654815673828125" lon="2.0977135933935642242431640625">
        <ele>145.8000030517578125</ele>
        <time>2022-01-07T13:35:30.000Z</time>
      </trkpt>
      <trkpt lat="41.53032115660607814788818359375" lon="2.0978004299104213714599609375">
        <ele>145.8000030517578125</ele>
        <time>2022-01-07T13:35:31.000Z</time>
      </trkpt>
      <trkpt lat="41.5303297899663448333740234375" lon="2.09788684733211994171142578125">
        <ele>145.600006103515625</ele>
        <time>2022-01-07T13:35:32.000Z</time>
      </trkpt>
      <trkpt lat="41.53033993206918239593505859375" lon="2.097973264753818511962890625">
        <ele>145.600006103515625</ele>
        <time>2022-01-07T13:35:33.000Z</time>
      </trkpt>
      <trkpt lat="41.53035736642777919769287109375" lon="2.0980549044907093048095703125">
        <ele>145.399993896484375</ele>
        <time>2022-01-07T13:35:34.000Z</time>
      </trkpt>
      <trkpt lat="41.5303773991763591766357421875" lon="2.0981325209140777587890625">
        <ele>145.1999969482421875</ele>
        <time>2022-01-07T13:35:35.000Z</time>
      </trkpt>
      <trkpt lat="41.53039860539138317108154296875" lon="2.098209299147129058837890625">
        <ele>145.1999969482421875</ele>
        <time>2022-01-07T13:35:36.000Z</time>
      </trkpt>
      <trkpt lat="41.53042140416800975799560546875" lon="2.09828783757984638214111328125">
        <ele>145</ele>
        <time>2022-01-07T13:35:37.000Z</time>
      </trkpt>
      <trkpt lat="41.5304459631443023681640625" lon="2.09836629219353199005126953125">
        <ele>144.8000030517578125</ele>
        <time>2022-01-07T13:35:38.000Z</time>
      </trkpt>
      <trkpt lat="41.5304706059396266937255859375" lon="2.09844508208334445953369140625">
        <ele>144.600006103515625</ele>
        <time>2022-01-07T13:35:39.000Z</time>
      </trkpt>
      <trkpt lat="41.53049650602042675018310546875" lon="2.09852387197315692901611328125">
        <ele>144.399993896484375</ele>
        <time>2022-01-07T13:35:40.000Z</time>
      </trkpt>
      <trkpt lat="41.53052064590156078338623046875" lon="2.0986047573387622833251953125">
        <ele>144.399993896484375</ele>
        <time>2022-01-07T13:35:41.000Z</time>
      </trkpt>
      <trkpt lat="41.53054361231625080108642578125" lon="2.09868631325662136077880859375">
        <ele>144.1999969482421875</ele>
        <time>2022-01-07T13:35:42.000Z</time>
      </trkpt>
      <trkpt lat="41.53056465089321136474609375" lon="2.0987693779170513153076171875">
        <ele>144.1999969482421875</ele>
        <time>2022-01-07T13:35:43.000Z</time>
      </trkpt>
      <trkpt lat="41.5305862762033939361572265625" lon="2.09885328076779842376708984375">
        <ele>144.1999969482421875</ele>
        <time>2022-01-07T13:35:44.000Z</time>
      </trkpt>
      <trkpt lat="41.530609242618083953857421875" lon="2.0989350043237209320068359375">
        <ele>144.1999969482421875</ele>
        <time>2022-01-07T13:35:45.000Z</time>
      </trkpt>
      <trkpt lat="41.530633382499217987060546875" lon="2.09901622496545314788818359375">
        <ele>144.1999969482421875</ele>
        <time>2022-01-07T13:35:46.000Z</time>
      </trkpt>
      <trkpt lat="41.53066062368452548980712890625" lon="2.0990954339504241943359375">
        <ele>144.1999969482421875</ele>
        <time>2022-01-07T13:35:47.000Z</time>
      </trkpt>
      <trkpt lat="41.53068660758435726165771484375" lon="2.09917665459215641021728515625">
        <ele>144.1999969482421875</ele>
        <time>2022-01-07T13:35:48.000Z</time>
      </trkpt>
      <trkpt lat="41.5307136811316013336181640625" lon="2.09925628267228603363037109375">
        <ele>144.1999969482421875</ele>
        <time>2022-01-07T13:35:49.000Z</time>
      </trkpt>
      <trkpt lat="41.53073824010789394378662109375" lon="2.09933339618146419525146484375">
        <ele>144.1999969482421875</ele>
        <time>2022-01-07T13:35:50.000Z</time>
      </trkpt>
      <trkpt lat="41.530762128531932830810546875" lon="2.09940916858613491058349609375">
        <ele>144.1999969482421875</ele>
        <time>2022-01-07T13:35:51.000Z</time>
      </trkpt>
      <trkpt lat="41.530785597860813140869140625" lon="2.09948276169598102569580078125">
        <ele>144.399993896484375</ele>
        <time>2022-01-07T13:35:52.000Z</time>
      </trkpt>
      <trkpt lat="41.53080898337066173553466796875" lon="2.09955769591033458709716796875">
        <ele>144.600006103515625</ele>
        <time>2022-01-07T13:35:53.000Z</time>
      </trkpt>
      <trkpt lat="41.5308313630521297454833984375" lon="2.09963212721049785614013671875">
        <ele>145</ele>
        <time>2022-01-07T13:35:54.000Z</time>
      </trkpt>
      <trkpt lat="41.53085256926715373992919921875" lon="2.09970773197710514068603515625">
        <ele>145.1999969482421875</ele>
        <time>2022-01-07T13:35:55.000Z</time>
      </trkpt>
      <trkpt lat="41.530873775482177734375" lon="2.0997845940291881561279296875">
        <ele>145.1999969482421875</ele>
        <time>2022-01-07T13:35:56.000Z</time>
      </trkpt>
      <trkpt lat="41.530894897878170013427734375" lon="2.099861204624176025390625">
        <ele>145.399993896484375</ele>
        <time>2022-01-07T13:35:57.000Z</time>
      </trkpt>
      <trkpt lat="41.53091602027416229248046875" lon="2.099937982857227325439453125">
        <ele>145.399993896484375</ele>
        <time>2022-01-07T13:35:58.000Z</time>
      </trkpt>
      <trkpt lat="41.5309399925172328948974609375" lon="2.1000132523477077484130859375">
        <ele>145.399993896484375</ele>
        <time>2022-01-07T13:35:59.000Z</time>
      </trkpt>
      <trkpt lat="41.53096136637032032012939453125" lon="2.100088186562061309814453125">
        <ele>145.600006103515625</ele>
        <time>2022-01-07T13:36:00.000Z</time>
      </trkpt>
      <trkpt lat="41.53098307549953460693359375" lon="2.10016270168125629425048828125">
        <ele>145.600006103515625</ele>
        <time>2022-01-07T13:36:01.000Z</time>
      </trkpt>
      <trkpt lat="41.5310057066380977630615234375" lon="2.10023696534335613250732421875">
        <ele>146</ele>
        <time>2022-01-07T13:36:02.000Z</time>
      </trkpt>
      <trkpt lat="41.53102741576731204986572265625" lon="2.1003106422722339630126953125">
        <ele>146.399993896484375</ele>
        <time>2022-01-07T13:36:03.000Z</time>
      </trkpt>
      <trkpt lat="41.53104786761105060577392578125" lon="2.1003828942775726318359375">
        <ele>146.8000030517578125</ele>
        <time>2022-01-07T13:36:04.000Z</time>
      </trkpt>
      <trkpt lat="41.53106614015996456146240234375" lon="2.10045254789292812347412109375">
        <ele>146.8000030517578125</ele>
        <time>2022-01-07T13:36:05.000Z</time>
      </trkpt>
      <trkpt lat="41.53107988648116588592529296875" lon="2.10051608271896839141845703125">
        <ele>147.1999969482421875</ele>
        <time>2022-01-07T13:36:06.000Z</time>
      </trkpt>
      <trkpt lat="41.531096734106540679931640625" lon="2.10057173855602741241455078125">
        <ele>147.1999969482421875</ele>
        <time>2022-01-07T13:36:07.000Z</time>
      </trkpt>
      <trkpt lat="41.5311213769018650054931640625" lon="2.10062228143215179443359375">
        <ele>147.399993896484375</ele>
        <time>2022-01-07T13:36:08.000Z</time>
      </trkpt>
      <trkpt lat="41.53115180321037769317626953125" lon="2.10065790452063083648681640625">
        <ele>147.399993896484375</ele>
        <time>2022-01-07T13:36:09.000Z</time>
      </trkpt>
      <trkpt lat="41.5311914496123790740966796875" lon="2.10067634470760822296142578125">
        <ele>147.399993896484375</ele>
        <time>2022-01-07T13:36:10.000Z</time>
      </trkpt>
      <trkpt lat="41.53124014846980571746826171875" lon="2.10067969746887683868408203125">
        <ele>147.399993896484375</ele>
        <time>2022-01-07T13:36:11.000Z</time>
      </trkpt>
      <trkpt lat="41.5312943793833255767822265625" lon="2.10067667998373508453369140625">
        <ele>147.600006103515625</ele>
        <time>2022-01-07T13:36:12.000Z</time>
      </trkpt>
      <trkpt lat="41.531354896724224090576171875" lon="2.1006727404892444610595703125">
        <ele>147.8000030517578125</ele>
        <time>2022-01-07T13:36:13.000Z</time>
      </trkpt>
      <trkpt lat="41.5314217843115329742431640625" lon="2.10066930390894412994384765625">
        <ele>147.8000030517578125</ele>
        <time>2022-01-07T13:36:14.000Z</time>
      </trkpt>
      <trkpt lat="41.5314885042607784271240234375" lon="2.1006569825112819671630859375">
        <ele>148</ele>
        <time>2022-01-07T13:36:15.000Z</time>
      </trkpt>
      <trkpt lat="41.531552374362945556640625" lon="2.10063728503882884979248046875">
        <ele>148</ele>
        <time>2022-01-07T13:36:16.000Z</time>
      </trkpt>
      <trkpt lat="41.5316159091889858245849609375" lon="2.10061113350093364715576171875">
        <ele>148.1999969482421875</ele>
        <time>2022-01-07T13:36:17.000Z</time>
      </trkpt>
      <trkpt lat="41.53168254531919956207275390625" lon="2.1005813777446746826171875">
        <ele>148.1999969482421875</ele>
        <time>2022-01-07T13:36:18.000Z</time>
      </trkpt>
      <trkpt lat="41.53174809180200099945068359375" lon="2.1005453355610370635986328125">
        <ele>148.1999969482421875</ele>
        <time>2022-01-07T13:36:19.000Z</time>
      </trkpt>
      <trkpt lat="41.53181078843772411346435546875" lon="2.10050669498741626739501953125">
        <ele>148.1999969482421875</ele>
        <time>2022-01-07T13:36:20.000Z</time>
      </trkpt>
      <trkpt lat="41.53187130577862262725830078125" lon="2.10046478547155857086181640625">
        <ele>148.1999969482421875</ele>
        <time>2022-01-07T13:36:21.000Z</time>
      </trkpt>
      <trkpt lat="41.5319310687482357025146484375" lon="2.1004229597747325897216796875">
        <ele>148.1999969482421875</ele>
        <time>2022-01-07T13:36:22.000Z</time>
      </trkpt>
      <trkpt lat="41.531991250813007354736328125" lon="2.10038348101079463958740234375">
        <ele>148.1999969482421875</ele>
        <time>2022-01-07T13:36:23.000Z</time>
      </trkpt>
      <trkpt lat="41.53205201961100101470947265625" lon="2.1003441698849201202392578125">
        <ele>148.1999969482421875</ele>
        <time>2022-01-07T13:36:24.000Z</time>
      </trkpt>
      <trkpt lat="41.5321114473044872283935546875" lon="2.10030821152031421661376953125">
        <ele>148.1999969482421875</ele>
        <time>2022-01-07T13:36:25.000Z</time>
      </trkpt>
      <trkpt lat="41.53216869570314884185791015625" lon="2.1002809703350067138671875">
        <ele>148</ele>
        <time>2022-01-07T13:36:26.000Z</time>
      </trkpt>
      <trkpt lat="41.53222787193953990936279296875" lon="2.1002590097486972808837890625">
        <ele>148</ele>
        <time>2022-01-07T13:36:27.000Z</time>
      </trkpt>
      <trkpt lat="41.5322886407375335693359375" lon="2.100237049162387847900390625">
        <ele>148</ele>
        <time>2022-01-07T13:36:28.000Z</time>
      </trkpt>
      <trkpt lat="41.53234924189746379852294921875" lon="2.10021433420479297637939453125">
        <ele>148</ele>
        <time>2022-01-07T13:36:29.000Z</time>
      </trkpt>
      <trkpt lat="41.53240892104804515838623046875" lon="2.1001886017620563507080078125">
        <ele>147.8000030517578125</ele>
        <time>2022-01-07T13:36:30.000Z</time>
      </trkpt>
      <trkpt lat="41.53246658854186534881591796875" lon="2.1001604385673999786376953125">
        <ele>147.8000030517578125</ele>
        <time>2022-01-07T13:36:31.000Z</time>
      </trkpt>
      <trkpt lat="41.53252325020730495452880859375" lon="2.10013017989695072174072265625">
        <ele>147.8000030517578125</ele>
        <time>2022-01-07T13:36:32.000Z</time>
      </trkpt>
      <trkpt lat="41.53258024714887142181396484375" lon="2.1001000888645648956298828125">
        <ele>147.8000030517578125</ele>
        <time>2022-01-07T13:36:33.000Z</time>
      </trkpt>
      <trkpt lat="41.532636992633342742919921875" lon="2.10007217712700366973876953125">
        <ele>147.8000030517578125</ele>
        <time>2022-01-07T13:36:34.000Z</time>
      </trkpt>
      <trkpt lat="41.532693989574909210205078125" lon="2.10004820488393306732177734375">
        <ele>147.8000030517578125</ele>
        <time>2022-01-07T13:36:35.000Z</time>
      </trkpt>
      <trkpt lat="41.53275090269744396209716796875" lon="2.100028507411479949951171875">
        <ele>147.8000030517578125</ele>
        <time>2022-01-07T13:36:36.000Z</time>
      </trkpt>
      <trkpt lat="41.53280639089643955230712890625" lon="2.10001300089061260223388671875">
        <ele>147.8000030517578125</ele>
        <time>2022-01-07T13:36:37.000Z</time>
      </trkpt>
      <trkpt lat="41.5328638069331645965576171875" lon="2.10000671446323394775390625">
        <ele>147.8000030517578125</ele>
        <time>2022-01-07T13:36:38.000Z</time>
      </trkpt>
      <trkpt lat="41.53292373754084110260009765625" lon="2.1000073850154876708984375">
        <ele>147.8000030517578125</ele>
        <time>2022-01-07T13:36:39.000Z</time>
      </trkpt>
      <trkpt lat="41.53298140503466129302978515625" lon="2.100045271217823028564453125">
        <ele>147.8000030517578125</ele>
        <time>2022-01-07T13:36:40.000Z</time>
      </trkpt>
      <trkpt lat="41.53302717022597789764404296875" lon="2.10009832866489887237548828125">
        <ele>147.8000030517578125</ele>
        <time>2022-01-07T13:36:41.000Z</time>
      </trkpt>
      <trkpt lat="41.53305851854383945465087890625" lon="2.100172005593776702880859375">
        <ele>148</ele>
        <time>2022-01-07T13:36:42.000Z</time>
      </trkpt>
      <trkpt lat="41.5330720134079456329345703125" lon="2.10025456734001636505126953125">
        <ele>148</ele>
        <time>2022-01-07T13:36:43.000Z</time>
      </trkpt>
      <trkpt lat="41.53307544998824596405029296875" lon="2.1003371290862560272216796875">
        <ele>148.1999969482421875</ele>
        <time>2022-01-07T13:36:44.000Z</time>
      </trkpt>
      <trkpt lat="41.53307251632213592529296875" lon="2.10041432641446590423583984375">
        <ele>148.399993896484375</ele>
        <time>2022-01-07T13:36:45.000Z</time>
      </trkpt>
      <trkpt lat="41.533067487180233001708984375" lon="2.1004916913807392120361328125">
        <ele>148.399993896484375</ele>
        <time>2022-01-07T13:36:46.000Z</time>
      </trkpt>
      <trkpt lat="41.533061452209949493408203125" lon="2.10057266056537628173828125">
        <ele>148.600006103515625</ele>
        <time>2022-01-07T13:36:47.000Z</time>
      </trkpt>
      <trkpt lat="41.53305315412580966949462890625" lon="2.10065538994967937469482421875">
        <ele>148.600006103515625</ele>
        <time>2022-01-07T13:36:48.000Z</time>
      </trkpt>
      <trkpt lat="41.53304108418524265289306640625" lon="2.1007381193339824676513671875">
        <ele>148.8000030517578125</ele>
        <time>2022-01-07T13:36:49.000Z</time>
      </trkpt>
      <trkpt lat="41.533030606806278228759765625" lon="2.10081900469958782196044921875">
        <ele>149</ele>
        <time>2022-01-07T13:36:50.000Z</time>
      </trkpt>
      <trkpt lat="41.53301895596086978912353515625" lon="2.10090123116970062255859375">
        <ele>149.1999969482421875</ele>
        <time>2022-01-07T13:36:51.000Z</time>
      </trkpt>
      <trkpt lat="41.53300604782998561859130859375" lon="2.1009837090969085693359375">
        <ele>149.1999969482421875</ele>
        <time>2022-01-07T13:36:52.000Z</time>
      </trkpt>
      <trkpt lat="41.5329928882420063018798828125" lon="2.101066522300243377685546875">
        <ele>149.1999969482421875</ele>
        <time>2022-01-07T13:36:53.000Z</time>
      </trkpt>
      <trkpt lat="41.53298224322497844696044921875" lon="2.10114858113229274749755859375">
        <ele>149.399993896484375</ele>
        <time>2022-01-07T13:36:54.000Z</time>
      </trkpt>
      <trkpt lat="41.53297302313148975372314453125" lon="2.101232819259166717529296875">
        <ele>149.8000030517578125</ele>
        <time>2022-01-07T13:36:55.000Z</time>
      </trkpt>
      <trkpt lat="41.53296246193349361419677734375" lon="2.10131588391959667205810546875">
        <ele>150</ele>
        <time>2022-01-07T13:36:56.000Z</time>
      </trkpt>
      <trkpt lat="41.5329511463642120361328125" lon="2.1013976074755191802978515625">
        <ele>150</ele>
        <time>2022-01-07T13:36:57.000Z</time>
      </trkpt>
      <trkpt lat="41.53293706476688385009765625" lon="2.101479582488536834716796875">
        <ele>150.1999969482421875</ele>
        <time>2022-01-07T13:36:58.000Z</time>
      </trkpt>
      <trkpt lat="41.5329184569418430328369140625" lon="2.101562060415744781494140625">
        <ele>150.399993896484375</ele>
        <time>2022-01-07T13:36:59.000Z</time>
      </trkpt>
      <trkpt lat="41.532904207706451416015625" lon="2.1016450412571430206298828125">
        <ele>150.399993896484375</ele>
        <time>2022-01-07T13:37:00.000Z</time>
      </trkpt>
      <trkpt lat="41.53289322741329669952392578125" lon="2.10173003375530242919921875">
        <ele>150.600006103515625</ele>
        <time>2022-01-07T13:37:01.000Z</time>
      </trkpt>
      <trkpt lat="41.5328894555568695068359375" lon="2.1018133498728275299072265625">
        <ele>150.600006103515625</ele>
        <time>2022-01-07T13:37:02.000Z</time>
      </trkpt>
      <trkpt lat="41.532885096967220306396484375" lon="2.1018956601619720458984375">
        <ele>150.600006103515625</ele>
        <time>2022-01-07T13:37:03.000Z</time>
      </trkpt>
      <trkpt lat="41.53287696652114391326904296875" lon="2.10197746753692626953125">
        <ele>150.8000030517578125</ele>
        <time>2022-01-07T13:37:04.000Z</time>
      </trkpt>
      <trkpt lat="41.5328658185899257659912109375" lon="2.10205935873091220855712890625">
        <ele>151</ele>
        <time>2022-01-07T13:37:05.000Z</time>
      </trkpt>
      <trkpt lat="41.5328530780971050262451171875" lon="2.10213999263942241668701171875">
        <ele>151.1999969482421875</ele>
        <time>2022-01-07T13:37:06.000Z</time>
      </trkpt>
      <trkpt lat="41.53283916413784027099609375" lon="2.10221953690052032470703125">
        <ele>151.399993896484375</ele>
        <time>2022-01-07T13:37:07.000Z</time>
      </trkpt>
      <trkpt lat="41.5328225679695606231689453125" lon="2.1022984944283962249755859375">
        <ele>151.600006103515625</ele>
        <time>2022-01-07T13:37:08.000Z</time>
      </trkpt>
      <trkpt lat="41.53280806727707386016845703125" lon="2.1023762784898281097412109375">
        <ele>151.600006103515625</ele>
        <time>2022-01-07T13:37:09.000Z</time>
      </trkpt>
      <trkpt lat="41.532791219651699066162109375" lon="2.102453894913196563720703125">
        <ele>151.8000030517578125</ele>
        <time>2022-01-07T13:37:10.000Z</time>
      </trkpt>
      <trkpt lat="41.5327727794647216796875" lon="2.1025335229933261871337890625">
        <ele>151.8000030517578125</ele>
        <time>2022-01-07T13:37:11.000Z</time>
      </trkpt>
      <trkpt lat="41.5327545069158077239990234375" lon="2.10261072032153606414794921875">
        <ele>152</ele>
        <time>2022-01-07T13:37:12.000Z</time>
      </trkpt>
      <trkpt lat="41.532736904919147491455078125" lon="2.10268867202103137969970703125">
        <ele>152</ele>
        <time>2022-01-07T13:37:13.000Z</time>
      </trkpt>
      <trkpt lat="41.53272642754018306732177734375" lon="2.10276880301535129547119140625">
        <ele>152</ele>
        <time>2022-01-07T13:37:14.000Z</time>
      </trkpt>
      <trkpt lat="41.53272810392081737518310546875" lon="2.1028486825525760650634765625">
        <ele>152</ele>
        <time>2022-01-07T13:37:15.000Z</time>
      </trkpt>
      <trkpt lat="41.5327421016991138458251953125" lon="2.1029257960617542266845703125">
        <ele>152</ele>
        <time>2022-01-07T13:37:16.000Z</time>
      </trkpt>
      <trkpt lat="41.53277018107473850250244140625" lon="2.10299662314355373382568359375">
        <ele>152.1999969482421875</ele>
        <time>2022-01-07T13:37:17.000Z</time>
      </trkpt>
      <trkpt lat="41.5328047983348369598388671875" lon="2.10305906832218170166015625">
        <ele>152.1999969482421875</ele>
        <time>2022-01-07T13:37:18.000Z</time>
      </trkpt>
      <trkpt lat="41.5328423492610454559326171875" lon="2.10311547853052616119384765625">
        <ele>152.1999969482421875</ele>
        <time>2022-01-07T13:37:19.000Z</time>
      </trkpt>
      <trkpt lat="41.53287847526371479034423828125" lon="2.10317079909145832061767578125">
        <ele>152.1999969482421875</ele>
        <time>2022-01-07T13:37:20.000Z</time>
      </trkpt>
      <trkpt lat="41.5329147689044475555419921875" lon="2.10322544910013675689697265625">
        <ele>152.1999969482421875</ele>
        <time>2022-01-07T13:37:21.000Z</time>
      </trkpt>
      <trkpt lat="41.5329493023455142974853515625" lon="2.10328127257525920867919921875">
        <ele>152.1999969482421875</ele>
        <time>2022-01-07T13:37:22.000Z</time>
      </trkpt>
      <trkpt lat="41.532984673976898193359375" lon="2.10333533585071563720703125">
        <ele>152.1999969482421875</ele>
        <time>2022-01-07T13:37:23.000Z</time>
      </trkpt>
      <trkpt lat="41.5330230630934238433837890625" lon="2.103385962545871734619140625">
        <ele>152.399993896484375</ele>
        <time>2022-01-07T13:37:24.000Z</time>
      </trkpt>
      <trkpt lat="41.533065475523471832275390625" lon="2.1034313924610614776611328125">
        <ele>152.399993896484375</ele>
        <time>2022-01-07T13:37:25.000Z</time>
      </trkpt>
      <trkpt lat="41.53311367146670818328857421875" lon="2.103465087711811065673828125">
        <ele>152.399993896484375</ele>
        <time>2022-01-07T13:37:26.000Z</time>
      </trkpt>
      <trkpt lat="41.5331645496189594268798828125" lon="2.10348847322165966033935546875">
        <ele>153</ele>
        <time>2022-01-07T13:37:27.000Z</time>
      </trkpt>
      <trkpt lat="41.53321375139057636260986328125" lon="2.1035088412463665008544921875">
        <ele>153.399993896484375</ele>
        <time>2022-01-07T13:37:28.000Z</time>
      </trkpt>
      <trkpt lat="41.5332614444196224212646484375" lon="2.103527449071407318115234375">
        <ele>153.8000030517578125</ele>
        <time>2022-01-07T13:37:29.000Z</time>
      </trkpt>
      <trkpt lat="41.5333057008683681488037109375" lon="2.10354999639093875885009765625">
        <ele>154.1999969482421875</ele>
        <time>2022-01-07T13:37:30.000Z</time>
      </trkpt>
      <trkpt lat="41.53334886766970157623291015625" lon="2.1035701967775821685791015625">
        <ele>154.1999969482421875</ele>
        <time>2022-01-07T13:37:31.000Z</time>
      </trkpt>
      <trkpt lat="41.53338968753814697265625" lon="2.1035934984683990478515625">
        <ele>154.399993896484375</ele>
        <time>2022-01-07T13:37:32.000Z</time>
      </trkpt>
      <trkpt lat="41.5334233827888965606689453125" lon="2.10363331250846385955810546875">
        <ele>154.399993896484375</ele>
        <time>2022-01-07T13:37:33.000Z</time>
      </trkpt>
      <trkpt lat="41.5334527194499969482421875" lon="2.10368460975587368011474609375">
        <ele>154.600006103515625</ele>
        <time>2022-01-07T13:37:34.000Z</time>
      </trkpt>
      <trkpt lat="41.533475853502750396728515625" lon="2.10373925976455211639404296875">
        <ele>154.600006103515625</ele>
        <time>2022-01-07T13:37:35.000Z</time>
      </trkpt>
      <trkpt lat="41.5334991551935672760009765625" lon="2.10379290394484996795654296875">
        <ele>155</ele>
        <time>2022-01-07T13:37:36.000Z</time>
      </trkpt>
      <trkpt lat="41.53353578411042690277099609375" lon="2.103833220899105072021484375">
        <ele>155</ele>
        <time>2022-01-07T13:37:37.000Z</time>
      </trkpt>
      <trkpt lat="41.53358389623463153839111328125" lon="2.10386062972247600555419921875">
        <ele>155.600006103515625</ele>
        <time>2022-01-07T13:37:38.000Z</time>
      </trkpt>
      <trkpt lat="41.533637456595897674560546875" lon="2.10388393141329288482666015625">
        <ele>155.8000030517578125</ele>
        <time>2022-01-07T13:37:39.000Z</time>
      </trkpt>
      <trkpt lat="41.53369353152811527252197265625" lon="2.1039037965238094329833984375">
        <ele>156</ele>
        <time>2022-01-07T13:37:40.000Z</time>
      </trkpt>
      <trkpt lat="41.53375052846968173980712890625" lon="2.1039245836436748504638671875">
        <ele>156.1999969482421875</ele>
        <time>2022-01-07T13:37:41.000Z</time>
      </trkpt>
      <trkpt lat="41.5338089503347873687744140625" lon="2.103944532573223114013671875">
        <ele>156.1999969482421875</ele>
        <time>2022-01-07T13:37:42.000Z</time>
      </trkpt>
      <trkpt lat="41.53386401943862438201904296875" lon="2.1039584465324878692626953125">
        <ele>156.1999969482421875</ele>
        <time>2022-01-07T13:37:43.000Z</time>
      </trkpt>
      <trkpt lat="41.533915735781192779541015625" lon="2.10397177375853061676025390625">
        <ele>156.399993896484375</ele>
        <time>2022-01-07T13:37:44.000Z</time>
      </trkpt>
      <trkpt lat="41.5339635126292705535888671875" lon="2.10398635827004909515380859375">
        <ele>156.399993896484375</ele>
        <time>2022-01-07T13:37:45.000Z</time>
      </trkpt>
      <trkpt lat="41.5340117923915386199951171875" lon="2.1039970032870769500732421875">
        <ele>156.399993896484375</ele>
        <time>2022-01-07T13:37:46.000Z</time>
      </trkpt>
      <trkpt lat="41.53406065888702869415283203125" lon="2.10400781594216823577880859375">
        <ele>156.600006103515625</ele>
        <time>2022-01-07T13:37:47.000Z</time>
      </trkpt>
      <trkpt lat="41.5341110341250896453857421875" lon="2.1040157787501811981201171875">
        <ele>156.8000030517578125</ele>
        <time>2022-01-07T13:37:48.000Z</time>
      </trkpt>
      <trkpt lat="41.53416174463927745819091796875" lon="2.10402466356754302978515625">
        <ele>156.8000030517578125</ele>
        <time>2022-01-07T13:37:49.000Z</time>
      </trkpt>
      <trkpt lat="41.53421069495379924774169921875" lon="2.10403581149876117706298828125">
        <ele>157</ele>
        <time>2022-01-07T13:37:50.000Z</time>
      </trkpt>
      <trkpt lat="41.5342609025537967681884765625" lon="2.1040483005344867706298828125">
        <ele>157</ele>
        <time>2022-01-07T13:37:51.000Z</time>
      </trkpt>
      <trkpt lat="41.53430909849703311920166015625" lon="2.10406011901795864105224609375">
        <ele>157.1999969482421875</ele>
        <time>2022-01-07T13:37:52.000Z</time>
      </trkpt>
      <trkpt lat="41.5343485772609710693359375" lon="2.104068584740161895751953125">
        <ele>157.399993896484375</ele>
        <time>2022-01-07T13:37:53.000Z</time>
      </trkpt>
      <trkpt lat="41.534373722970485687255859375" lon="2.104079313576221466064453125">
        <ele>157.600006103515625</ele>
        <time>2022-01-07T13:37:54.000Z</time>
      </trkpt>
      <trkpt lat="41.5343936719000339508056640625" lon="2.10409079678356647491455078125">
        <ele>157.600006103515625</ele>
        <time>2022-01-07T13:37:55.000Z</time>
      </trkpt>
      <trkpt lat="41.53441554866731166839599609375" lon="2.10409716702997684478759765625">
        <ele>157.600006103515625</ele>
        <time>2022-01-07T13:37:56.000Z</time>
      </trkpt>
      <trkpt lat="41.53444455005228519439697265625" lon="2.1041029505431652069091796875">
        <ele>158</ele>
        <time>2022-01-07T13:37:57.000Z</time>
      </trkpt>
      <trkpt lat="41.53447623364627361297607421875" lon="2.10411250591278076171875">
        <ele>158</ele>
        <time>2022-01-07T13:37:58.000Z</time>
      </trkpt>
      <trkpt lat="41.53450607322156429290771484375" lon="2.10413572378456592559814453125">
        <ele>158.1999969482421875</ele>
        <time>2022-01-07T13:37:59.000Z</time>
      </trkpt>
      <trkpt lat="41.534538008272647857666015625" lon="2.1041656471788883209228515625">
        <ele>158.1999969482421875</ele>
        <time>2022-01-07T13:38:00.000Z</time>
      </trkpt>
      <trkpt lat="41.53457128442823886871337890625" lon="2.10419573821127414703369140625">
        <ele>158.1999969482421875</ele>
        <time>2022-01-07T13:38:01.000Z</time>
      </trkpt>
      <trkpt lat="41.5346109308302402496337890625" lon="2.104217447340488433837890625">
        <ele>158.399993896484375</ele>
        <time>2022-01-07T13:38:02.000Z</time>
      </trkpt>
      <trkpt lat="41.5346568636596202850341796875" lon="2.10424334742128849029541015625">
        <ele>158.600006103515625</ele>
        <time>2022-01-07T13:38:03.000Z</time>
      </trkpt>
      <trkpt lat="41.53470807708799839019775390625" lon="2.10426597855985164642333984375">
        <ele>158.600006103515625</ele>
        <time>2022-01-07T13:38:04.000Z</time>
      </trkpt>
      <trkpt lat="41.53476356528699398040771484375" lon="2.10428257472813129425048828125">
        <ele>158.600006103515625</ele>
        <time>2022-01-07T13:38:05.000Z</time>
      </trkpt>
      <trkpt lat="41.5348174609243869781494140625" lon="2.10429078899323940277099609375">
        <ele>158.600006103515625</ele>
        <time>2022-01-07T13:38:06.000Z</time>
      </trkpt>
      <trkpt lat="41.5348677523434162139892578125" lon="2.10429288446903228759765625">
        <ele>158.600006103515625</ele>
        <time>2022-01-07T13:38:07.000Z</time>
      </trkpt>
      <trkpt lat="41.5349210612475872039794921875" lon="2.10429514758288860321044921875">
        <ele>158.600006103515625</ele>
        <time>2022-01-07T13:38:08.000Z</time>
      </trkpt>
      <trkpt lat="41.5349716879427433013916015625" lon="2.104302607476711273193359375">
        <ele>158.8000030517578125</ele>
        <time>2022-01-07T13:38:09.000Z</time>
      </trkpt>
      <trkpt lat="41.53502516448497772216796875" lon="2.10431995801627635955810546875">
        <ele>158.8000030517578125</ele>
        <time>2022-01-07T13:38:10.000Z</time>
      </trkpt>
      <trkpt lat="41.535075791180133819580078125" lon="2.10433772765100002288818359375">
        <ele>158.8000030517578125</ele>
        <time>2022-01-07T13:38:11.000Z</time>
      </trkpt>
      <trkpt lat="41.53512683697044849395751953125" lon="2.10436136461794376373291015625">
        <ele>159</ele>
        <time>2022-01-07T13:38:12.000Z</time>
      </trkpt>
      <trkpt lat="41.53517226688563823699951171875" lon="2.1043889410793781280517578125">
        <ele>159</ele>
        <time>2022-01-07T13:38:13.000Z</time>
      </trkpt>
      <trkpt lat="41.5352120809257030487060546875" lon="2.1044244803488254547119140625">
        <ele>159</ele>
        <time>2022-01-07T13:38:14.000Z</time>
      </trkpt>
      <trkpt lat="41.53525021858513355255126953125" lon="2.104456834495067596435546875">
        <ele>159</ele>
        <time>2022-01-07T13:38:15.000Z</time>
      </trkpt>
      <trkpt lat="41.53528743423521518707275390625" lon="2.1044814772903919219970703125">
        <ele>159</ele>
        <time>2022-01-07T13:38:16.000Z</time>
      </trkpt>
      <trkpt lat="41.53532498516142368316650390625" lon="2.10450184531509876251220703125">
        <ele>159</ele>
        <time>2022-01-07T13:38:17.000Z</time>
      </trkpt>
      <trkpt lat="41.5353606082499027252197265625" lon="2.10452414117753505706787109375">
        <ele>159</ele>
        <time>2022-01-07T13:38:18.000Z</time>
      </trkpt>
      <trkpt lat="41.535396315157413482666015625" lon="2.1045431680977344512939453125">
        <ele>159.1999969482421875</ele>
        <time>2022-01-07T13:38:19.000Z</time>
      </trkpt>
      <trkpt lat="41.5354303456842899322509765625" lon="2.1045525558292865753173828125">
        <ele>159.1999969482421875</ele>
        <time>2022-01-07T13:38:20.000Z</time>
      </trkpt>
      <trkpt lat="41.53546446003019809722900390625" lon="2.10456018336117267608642578125">
        <ele>159.600006103515625</ele>
        <time>2022-01-07T13:38:21.000Z</time>
      </trkpt>
      <trkpt lat="41.53550201095640659332275390625" lon="2.1045726723968982696533203125">
        <ele>159.600006103515625</ele>
        <time>2022-01-07T13:38:22.000Z</time>
      </trkpt>
      <trkpt lat="41.53554308228194713592529296875" lon="2.1045924536883831024169921875">
        <ele>159.8000030517578125</ele>
        <time>2022-01-07T13:38:23.000Z</time>
      </trkpt>
      <trkpt lat="41.53558666817843914031982421875" lon="2.10461701266467571258544921875">
        <ele>160</ele>
        <time>2022-01-07T13:38:24.000Z</time>
      </trkpt>
      <trkpt lat="41.5356318466365337371826171875" lon="2.1046440862119197845458984375">
        <ele>160.1999969482421875</ele>
        <time>2022-01-07T13:38:25.000Z</time>
      </trkpt>
      <trkpt lat="41.535679958760738372802734375" lon="2.1046752668917179107666015625">
        <ele>160.1999969482421875</ele>
        <time>2022-01-07T13:38:26.000Z</time>
      </trkpt>
      <trkpt lat="41.53572865761816501617431640625" lon="2.1047041006386280059814453125">
        <ele>160.399993896484375</ele>
        <time>2022-01-07T13:38:27.000Z</time>
      </trkpt>
      <trkpt lat="41.5357780270278453826904296875" lon="2.104723714292049407958984375">
        <ele>160.399993896484375</ele>
        <time>2022-01-07T13:38:28.000Z</time>
      </trkpt>
      <trkpt lat="41.535829491913318634033203125" lon="2.1047468483448028564453125">
        <ele>160.399993896484375</ele>
        <time>2022-01-07T13:38:29.000Z</time>
      </trkpt>
      <trkpt lat="41.53587735258042812347412109375" lon="2.1047723293304443359375">
        <ele>160.600006103515625</ele>
        <time>2022-01-07T13:38:30.000Z</time>
      </trkpt>
      <trkpt lat="41.535927392542362213134765625" lon="2.10479621775448322296142578125">
        <ele>160.600006103515625</ele>
        <time>2022-01-07T13:38:31.000Z</time>
      </trkpt>
      <trkpt lat="41.53597307391464710235595703125" lon="2.10482086054980754852294921875">
        <ele>160.600006103515625</ele>
        <time>2022-01-07T13:38:32.000Z</time>
      </trkpt>
      <trkpt lat="41.536020934581756591796875" lon="2.10484801791608333587646484375">
        <ele>160.600006103515625</ele>
        <time>2022-01-07T13:38:33.000Z</time>
      </trkpt>
      <trkpt lat="41.53607164509594440460205078125" lon="2.10487701930105686187744140625">
        <ele>160.8000030517578125</ele>
        <time>2022-01-07T13:38:34.000Z</time>
      </trkpt>
      <trkpt lat="41.53612042777240276336669921875" lon="2.104908116161823272705078125">
        <ele>160.8000030517578125</ele>
        <time>2022-01-07T13:38:35.000Z</time>
      </trkpt>
      <trkpt lat="41.53617155738174915313720703125" lon="2.10493653081357479095458984375">
        <ele>160.8000030517578125</ele>
        <time>2022-01-07T13:38:36.000Z</time>
      </trkpt>
      <trkpt lat="41.53622142970561981201171875" lon="2.1049666218459606170654296875">
        <ele>160.8000030517578125</ele>
        <time>2022-01-07T13:38:37.000Z</time>
      </trkpt>
      <trkpt lat="41.53626895509660243988037109375" lon="2.10499922744929790496826171875">
        <ele>160.8000030517578125</ele>
        <time>2022-01-07T13:38:38.000Z</time>
      </trkpt>
      <trkpt lat="41.53631421737372875213623046875" lon="2.105030827224254608154296875">
        <ele>160.8000030517578125</ele>
        <time>2022-01-07T13:38:39.000Z</time>
      </trkpt>
      <trkpt lat="41.53636065311729907989501953125" lon="2.1050601638853549957275390625">
        <ele>160.8000030517578125</ele>
        <time>2022-01-07T13:38:40.000Z</time>
      </trkpt>
      <trkpt lat="41.536404155194759368896484375" lon="2.1050955355167388916015625">
        <ele>160.8000030517578125</ele>
        <time>2022-01-07T13:38:41.000Z</time>
      </trkpt>
      <trkpt lat="41.53644715435802936553955078125" lon="2.1051342599093914031982421875">
        <ele>160.8000030517578125</ele>
        <time>2022-01-07T13:38:42.000Z</time>
      </trkpt>
      <trkpt lat="41.536491326987743377685546875" lon="2.10517088882625102996826171875">
        <ele>160.8000030517578125</ele>
        <time>2022-01-07T13:38:43.000Z</time>
      </trkpt>
      <trkpt lat="41.53653499670326709747314453125" lon="2.10520475171506404876708984375">
        <ele>160.8000030517578125</ele>
        <time>2022-01-07T13:38:44.000Z</time>
      </trkpt>
      <trkpt lat="41.5365709550678730010986328125" lon="2.10523593239486217498779296875">
        <ele>160.8000030517578125</ele>
        <time>2022-01-07T13:38:45.000Z</time>
      </trkpt>
      <trkpt lat="41.53660087846219539642333984375" lon="2.1052609942853450775146484375">
        <ele>161</ele>
        <time>2022-01-07T13:38:46.000Z</time>
      </trkpt>
      <trkpt lat="41.5366363339126110076904296875" lon="2.1052827872335910797119140625">
        <ele>161</ele>
        <time>2022-01-07T13:38:47.000Z</time>
      </trkpt>
      <trkpt lat="41.5366775728762149810791015625" lon="2.105303741991519927978515625">
        <ele>161</ele>
        <time>2022-01-07T13:38:48.000Z</time>
      </trkpt>
      <trkpt lat="41.53672141022980213165283203125" lon="2.10532997734844684600830078125">
        <ele>161</ele>
        <time>2022-01-07T13:38:49.000Z</time>
      </trkpt>
      <trkpt lat="41.536763571202754974365234375" lon="2.10536233149468898773193359375">
        <ele>161</ele>
        <time>2022-01-07T13:38:50.000Z</time>
      </trkpt>
      <trkpt lat="41.53680615127086639404296875" lon="2.10540222935378551483154296875">
        <ele>161.1999969482421875</ele>
        <time>2022-01-07T13:38:51.000Z</time>
      </trkpt>
      <trkpt lat="41.53685099445283412933349609375" lon="2.105445228517055511474609375">
        <ele>161.399993896484375</ele>
        <time>2022-01-07T13:38:52.000Z</time>
      </trkpt>
      <trkpt lat="41.53689290396869182586669921875" lon="2.1054903231561183929443359375">
        <ele>161.399993896484375</ele>
        <time>2022-01-07T13:38:53.000Z</time>
      </trkpt>
      <trkpt lat="41.5369370765984058380126953125" lon="2.10553550161421298980712890625">
        <ele>161.399993896484375</ele>
        <time>2022-01-07T13:38:54.000Z</time>
      </trkpt>
      <trkpt lat="41.53698024339973926544189453125" lon="2.10557992570102214813232421875">
        <ele>161.600006103515625</ele>
        <time>2022-01-07T13:38:55.000Z</time>
      </trkpt>
      <trkpt lat="41.53701947070658206939697265625" lon="2.10562703199684619903564453125">
        <ele>161.600006103515625</ele>
        <time>2022-01-07T13:38:56.000Z</time>
      </trkpt>
      <trkpt lat="41.5370587818324565887451171875" lon="2.10566961206495761871337890625">
        <ele>161.600006103515625</ele>
        <time>2022-01-07T13:38:57.000Z</time>
      </trkpt>
      <trkpt lat="41.53709826059639453887939453125" lon="2.10570716299116611480712890625">
        <ele>161.600006103515625</ele>
        <time>2022-01-07T13:38:58.000Z</time>
      </trkpt>
      <trkpt lat="41.53713514097034931182861328125" lon="2.1057441271841526031494140625">
        <ele>161.600006103515625</ele>
        <time>2022-01-07T13:38:59.000Z</time>
      </trkpt>
      <trkpt lat="41.53716816566884517669677734375" lon="2.1057840250432491302490234375">
        <ele>161.600006103515625</ele>
        <time>2022-01-07T13:39:00.000Z</time>
      </trkpt>
      <trkpt lat="41.537202782928943634033203125" lon="2.10582685656845569610595703125">
        <ele>161.8000030517578125</ele>
        <time>2022-01-07T13:39:01.000Z</time>
      </trkpt>
      <trkpt lat="41.5372359752655029296875" lon="2.10587463341653347015380859375">
        <ele>161.8000030517578125</ele>
        <time>2022-01-07T13:39:02.000Z</time>
      </trkpt>
      <trkpt lat="41.53726958669722080230712890625" lon="2.1059191413223743438720703125">
        <ele>161.8000030517578125</ele>
        <time>2022-01-07T13:39:03.000Z</time>
      </trkpt>
      <trkpt lat="41.53729967772960662841796875" lon="2.1059610508382320404052734375">
        <ele>162</ele>
        <time>2022-01-07T13:39:04.000Z</time>
      </trkpt>
      <trkpt lat="41.53733043931424617767333984375" lon="2.10600874386727809906005859375">
        <ele>162</ele>
        <time>2022-01-07T13:39:05.000Z</time>
      </trkpt>
      <trkpt lat="41.5373548306524753570556640625" lon="2.10604696534574031829833984375">
        <ele>162.1999969482421875</ele>
        <time>2022-01-07T13:39:06.000Z</time>
      </trkpt>
      <trkpt lat="41.53739598579704761505126953125" lon="2.10609398782253265380859375">
        <ele>162.1999969482421875</ele>
        <time>2022-01-07T13:39:07.000Z</time>
      </trkpt>
      <trkpt lat="41.53743638657033443450927734375" lon="2.10609893314540386199951171875">
        <ele>162.1999969482421875</ele>
        <time>2022-01-07T13:39:08.000Z</time>
      </trkpt>
      <trkpt lat="41.53747628442943096160888671875" lon="2.10608887486159801483154296875">
        <ele>162.399993896484375</ele>
        <time>2022-01-07T13:39:09.000Z</time>
      </trkpt>
      <trkpt lat="41.5375217981636524200439453125" lon="2.10607630200684070587158203125">
        <ele>162.600006103515625</ele>
        <time>2022-01-07T13:39:10.000Z</time>
      </trkpt>
      <trkpt lat="41.5375741012394428253173828125" lon="2.106065489351749420166015625">
        <ele>162.8000030517578125</ele>
        <time>2022-01-07T13:39:11.000Z</time>
      </trkpt>
      <trkpt lat="41.53762422502040863037109375" lon="2.106062807142734527587890625">
        <ele>162.8000030517578125</ele>
        <time>2022-01-07T13:39:12.000Z</time>
      </trkpt>
      <trkpt lat="41.5376656316220760345458984375" lon="2.10606523789465427398681640625">
        <ele>162.8000030517578125</ele>
        <time>2022-01-07T13:39:13.000Z</time>
      </trkpt>
      <trkpt lat="41.53770226053893566131591796875" lon="2.10609273053705692291259765625">
        <ele>163</ele>
        <time>2022-01-07T13:39:14.000Z</time>
      </trkpt>
      <trkpt lat="41.53773679398000240325927734375" lon="2.1061397530138492584228515625">
        <ele>163</ele>
        <time>2022-01-07T13:39:15.000Z</time>
      </trkpt>
      <trkpt lat="41.53776931576430797576904296875" lon="2.106197588145732879638671875">
        <ele>163.1999969482421875</ele>
        <time>2022-01-07T13:39:16.000Z</time>
      </trkpt>
      <trkpt lat="41.5377997420728206634521484375" lon="2.10626070387661457061767578125">
        <ele>163.1999969482421875</ele>
        <time>2022-01-07T13:39:17.000Z</time>
      </trkpt>
      <trkpt lat="41.53782580979168415069580078125" lon="2.10632792674005031585693359375">
        <ele>163.1999969482421875</ele>
        <time>2022-01-07T13:39:18.000Z</time>
      </trkpt>
      <trkpt lat="41.5378560684621334075927734375" lon="2.10640780627727508544921875">
        <ele>163.1999969482421875</ele>
        <time>2022-01-07T13:39:19.000Z</time>
      </trkpt>
      <trkpt lat="41.5378741733729839324951171875" lon="2.10646136663854122161865234375">
        <ele>163.1999969482421875</ele>
        <time>2022-01-07T13:39:20.000Z</time>
      </trkpt>
      <trkpt lat="41.537893116474151611328125" lon="2.10653278045356273651123046875">
        <ele>163.1999969482421875</ele>
        <time>2022-01-07T13:39:21.000Z</time>
      </trkpt>
      <trkpt lat="41.53790853917598724365234375" lon="2.10660603828728199005126953125">
        <ele>163.1999969482421875</ele>
        <time>2022-01-07T13:39:22.000Z</time>
      </trkpt>
      <trkpt lat="41.53792320750653743743896484375" lon="2.1066765300929546356201171875">
        <ele>163.399993896484375</ele>
        <time>2022-01-07T13:39:23.000Z</time>
      </trkpt>
      <trkpt lat="41.5379355289041996002197265625" lon="2.1067462675273418426513671875">
        <ele>163.399993896484375</ele>
        <time>2022-01-07T13:39:24.000Z</time>
      </trkpt>
      <trkpt lat="41.53794785030186176300048828125" lon="2.10681390948593616485595703125">
        <ele>163.399993896484375</ele>
        <time>2022-01-07T13:39:25.000Z</time>
      </trkpt>
      <trkpt lat="41.53796327300369739532470703125" lon="2.106877863407135009765625">
        <ele>163.399993896484375</ele>
        <time>2022-01-07T13:39:26.000Z</time>
      </trkpt>
      <trkpt lat="41.5379817970097064971923828125" lon="2.106937207281589508056640625">
        <ele>163.399993896484375</ele>
        <time>2022-01-07T13:39:27.000Z</time>
      </trkpt>
      <trkpt lat="41.538000069558620452880859375" lon="2.10699579678475856781005859375">
        <ele>163.399993896484375</ele>
        <time>2022-01-07T13:39:28.000Z</time>
      </trkpt>
      <trkpt lat="41.53801624663174152374267578125" lon="2.10705824196338653564453125">
        <ele>163.399993896484375</ele>
        <time>2022-01-07T13:39:29.000Z</time>
      </trkpt>
      <trkpt lat="41.5380354411900043487548828125" lon="2.10711699910461902618408203125">
        <ele>163.399993896484375</ele>
        <time>2022-01-07T13:39:30.000Z</time>
      </trkpt>
      <trkpt lat="41.538057066500186920166015625" lon="2.10717399604618549346923828125">
        <ele>163.399993896484375</ele>
        <time>2022-01-07T13:39:31.000Z</time>
      </trkpt>
      <trkpt lat="41.538075841963291168212890625" lon="2.10723216645419597625732421875">
        <ele>163.399993896484375</ele>
        <time>2022-01-07T13:39:32.000Z</time>
      </trkpt>
      <trkpt lat="41.5380944497883319854736328125" lon="2.10729653947055339813232421875">
        <ele>163.600006103515625</ele>
        <time>2022-01-07T13:39:33.000Z</time>
      </trkpt>
      <trkpt lat="41.53811045922338962554931640625" lon="2.10736535489559173583984375">
        <ele>163.600006103515625</ele>
        <time>2022-01-07T13:39:34.000Z</time>
      </trkpt>
      <trkpt lat="41.53812311589717864990234375" lon="2.107435762882232666015625">
        <ele>163.600006103515625</ele>
        <time>2022-01-07T13:39:35.000Z</time>
      </trkpt>
      <trkpt lat="41.53813920915126800537109375" lon="2.10750105790793895721435546875">
        <ele>163.600006103515625</ele>
        <time>2022-01-07T13:39:36.000Z</time>
      </trkpt>
      <trkpt lat="41.53815220110118389129638671875" lon="2.1075697056949138641357421875">
        <ele>163.600006103515625</ele>
        <time>2022-01-07T13:39:37.000Z</time>
      </trkpt>
      <trkpt lat="41.53816108591854572296142578125" lon="2.10764472372829914093017578125">
        <ele>163.600006103515625</ele>
        <time>2022-01-07T13:39:38.000Z</time>
      </trkpt>
      <trkpt lat="41.538179107010364532470703125" lon="2.1077081747353076934814453125">
        <ele>163.600006103515625</ele>
        <time>2022-01-07T13:39:39.000Z</time>
      </trkpt>
      <trkpt lat="41.538207940757274627685546875" lon="2.10776290856301784515380859375">
        <ele>163.600006103515625</ele>
        <time>2022-01-07T13:39:40.000Z</time>
      </trkpt>
      <trkpt lat="41.5382282249629497528076171875" lon="2.10781596601009368896484375">
        <ele>163.399993896484375</ele>
        <time>2022-01-07T13:39:41.000Z</time>
      </trkpt>
      <trkpt lat="41.53824649751186370849609375" lon="2.1078555285930633544921875">
        <ele>163.399993896484375</ele>
        <time>2022-01-07T13:39:42.000Z</time>
      </trkpt>
      <trkpt lat="41.53826116584241390228271484375" lon="2.1078808419406414031982421875">
        <ele>163.399993896484375</ele>
        <time>2022-01-07T13:39:43.000Z</time>
      </trkpt>
      <trkpt lat="41.53827575035393238067626953125" lon="2.107897102832794189453125">
        <ele>163.399993896484375</ele>
        <time>2022-01-07T13:39:44.000Z</time>
      </trkpt>
      <trkpt lat="41.5382922627031803131103515625" lon="2.10790607146918773651123046875">
        <ele>163.399993896484375</ele>
        <time>2022-01-07T13:39:45.000Z</time>
      </trkpt>
      <trkpt lat="41.53829184360802173614501953125" lon="2.10792501457035541534423828125">
        <ele>163.399993896484375</ele>
        <time>2022-01-07T13:39:46.000Z</time>
      </trkpt>
      <trkpt lat="41.53828002512454986572265625" lon="2.10795301012694835662841796875">
        <ele>163.399993896484375</ele>
        <time>2022-01-07T13:39:47.000Z</time>
      </trkpt>
      <trkpt lat="41.538253538310527801513671875" lon="2.107981257140636444091796875">
        <ele>163.399993896484375</ele>
        <time>2022-01-07T13:39:48.000Z</time>
      </trkpt>
      <trkpt lat="41.5382245369255542755126953125" lon="2.1080032177269458770751953125">
        <ele>163.399993896484375</ele>
        <time>2022-01-07T13:39:49.000Z</time>
      </trkpt>
      <trkpt lat="41.538198888301849365234375" lon="2.10802660323679447174072265625">
        <ele>163.399993896484375</ele>
        <time>2022-01-07T13:39:50.000Z</time>
      </trkpt>
      <trkpt lat="41.5381762571632862091064453125" lon="2.10804806090891361236572265625">
        <ele>163.1999969482421875</ele>
        <time>2022-01-07T13:39:51.000Z</time>
      </trkpt>
      <trkpt lat="41.5381537936627864837646484375" lon="2.10806817747652530670166015625">
        <ele>163.1999969482421875</ele>
        <time>2022-01-07T13:39:52.000Z</time>
      </trkpt>
      <trkpt lat="41.538134180009365081787109375" lon="2.108085863292217254638671875">
        <ele>163.1999969482421875</ele>
        <time>2022-01-07T13:39:53.000Z</time>
      </trkpt>
      <trkpt lat="41.53812085278332233428955078125" lon="2.10810438729822635650634765625">
        <ele>163.1999969482421875</ele>
        <time>2022-01-07T13:39:54.000Z</time>
      </trkpt>
      <trkpt lat="41.53811196796596050262451171875" lon="2.1081242524087429046630859375">
        <ele>163.1999969482421875</ele>
        <time>2022-01-07T13:39:55.000Z</time>
      </trkpt>
      <trkpt lat="41.53810811229050159454345703125" lon="2.10813405923545360565185546875">
        <ele>163.399993896484375</ele>
        <time>2022-01-07T13:39:56.000Z</time>
      </trkpt>
      <trkpt lat="41.53810811229050159454345703125" lon="2.10813405923545360565185546875">
        <ele>163.399993896484375</ele>
        <time>2022-01-07T13:39:57.000Z</time>
      </trkpt>
      <trkpt lat="41.53810811229050159454345703125" lon="2.10813405923545360565185546875">
        <ele>163.399993896484375</ele>
        <time>2022-01-07T13:39:58.000Z</time>
      </trkpt>
      <trkpt lat="41.5381071902811527252197265625" lon="2.10816859267652034759521484375">
        <ele>163.8000030517578125</ele>
        <time>2022-01-07T13:40:58.000Z</time>
      </trkpt>
      <trkpt lat="41.538108028471469879150390625" lon="2.10821100510656833648681640625">
        <ele>163.8000030517578125</ele>
        <time>2022-01-07T13:40:59.000Z</time>
      </trkpt>
      <trkpt lat="41.53811909258365631103515625" lon="2.10826464928686618804931640625">
        <ele>163.8000030517578125</ele>
        <time>2022-01-07T13:41:00.000Z</time>
      </trkpt>
      <trkpt lat="41.5381387062370777130126953125" lon="2.1083167009055614471435546875">
        <ele>163.8000030517578125</ele>
        <time>2022-01-07T13:41:01.000Z</time>
      </trkpt>
      <trkpt lat="41.5381628461182117462158203125" lon="2.10836741141974925994873046875">
        <ele>163.600006103515625</ele>
        <time>2022-01-07T13:41:02.000Z</time>
      </trkpt>
      <trkpt lat="41.53818740509450435638427734375" lon="2.1084214746952056884765625">
        <ele>163.600006103515625</ele>
        <time>2022-01-07T13:41:03.000Z</time>
      </trkpt>
      <trkpt lat="41.538211293518543243408203125" lon="2.10848383605480194091796875">
        <ele>163.600006103515625</ele>
        <time>2022-01-07T13:41:04.000Z</time>
      </trkpt>
      <trkpt lat="41.53823149390518665313720703125" lon="2.10855667479336261749267578125">
        <ele>163.600006103515625</ele>
        <time>2022-01-07T13:41:05.000Z</time>
      </trkpt>
      <trkpt lat="41.53824959881603717803955078125" lon="2.10863362066447734832763671875">
        <ele>163.600006103515625</ele>
        <time>2022-01-07T13:41:06.000Z</time>
      </trkpt>
      <trkpt lat="41.538273654878139495849609375" lon="2.1087245643138885498046875">
        <ele>163.399993896484375</ele>
        <time>2022-01-07T13:41:07.000Z</time>
      </trkpt>
      <trkpt lat="41.53829067014157772064208984375" lon="2.1087880991399288177490234375">
        <ele>163.399993896484375</ele>
        <time>2022-01-07T13:41:08.000Z</time>
      </trkpt>
      <trkpt lat="41.538312546908855438232421875" lon="2.108865715563297271728515625">
        <ele>163.1999969482421875</ele>
        <time>2022-01-07T13:41:09.000Z</time>
      </trkpt>
      <trkpt lat="41.5383341722190380096435546875" lon="2.10893872193992137908935546875">
        <ele>163</ele>
        <time>2022-01-07T13:41:10.000Z</time>
      </trkpt>
      <trkpt lat="41.53835437260568141937255859375" lon="2.1090063638985157012939453125">
        <ele>163</ele>
        <time>2022-01-07T13:41:11.000Z</time>
      </trkpt>
      <trkpt lat="41.53837247751653194427490234375" lon="2.10907115601003170013427734375">
        <ele>163</ele>
        <time>2022-01-07T13:41:12.000Z</time>
      </trkpt>
      <trkpt lat="41.538386642932891845703125" lon="2.10913921706378459930419921875">
        <ele>163</ele>
        <time>2022-01-07T13:41:13.000Z</time>
      </trkpt>
      <trkpt lat="41.5383988805115222930908203125" lon="2.109207026660442352294921875">
        <ele>163</ele>
        <time>2022-01-07T13:41:14.000Z</time>
      </trkpt>
      <trkpt lat="41.53841740451753139495849609375" lon="2.109276093542575836181640625">
        <ele>163</ele>
        <time>2022-01-07T13:41:15.000Z</time>
      </trkpt>
      <trkpt lat="41.53843827545642852783203125" lon="2.10934708826243877410888671875">
        <ele>163</ele>
        <time>2022-01-07T13:41:16.000Z</time>
      </trkpt>
      <trkpt lat="41.53845378197729587554931640625" lon="2.1094194240868091583251953125">
        <ele>163</ele>
        <time>2022-01-07T13:41:17.000Z</time>
      </trkpt>
      <trkpt lat="41.53847054578363895416259765625" lon="2.1094938553869724273681640625">
        <ele>163</ele>
        <time>2022-01-07T13:41:18.000Z</time>
      </trkpt>
      <trkpt lat="41.5384940989315509796142578125" lon="2.10956820286810398101806640625">
        <ele>163.1999969482421875</ele>
        <time>2022-01-07T13:41:19.000Z</time>
      </trkpt>
      <trkpt lat="41.5385165624320507049560546875" lon="2.10964523255825042724609375">
        <ele>163.399993896484375</ele>
        <time>2022-01-07T13:41:20.000Z</time>
      </trkpt>
      <trkpt lat="41.53855000622570514678955078125" lon="2.1097191609442234039306640625">
        <ele>163.399993896484375</ele>
        <time>2022-01-07T13:41:21.000Z</time>
      </trkpt>
      <trkpt lat="41.53857515193521976470947265625" lon="2.10979216732084751129150390625">
        <ele>163.600006103515625</ele>
        <time>2022-01-07T13:41:22.000Z</time>
      </trkpt>
      <trkpt lat="41.53858336620032787322998046875" lon="2.10986995138227939605712890625">
        <ele>163.600006103515625</ele>
        <time>2022-01-07T13:41:23.000Z</time>
      </trkpt>
      <trkpt lat="41.5386017225682735443115234375" lon="2.1099441312253475189208984375">
        <ele>163.8000030517578125</ele>
        <time>2022-01-07T13:41:24.000Z</time>
      </trkpt>
      <trkpt lat="41.5386282093822956085205078125" lon="2.110013030469417572021484375">
        <ele>163.8000030517578125</ele>
        <time>2022-01-07T13:41:25.000Z</time>
      </trkpt>
      <trkpt lat="41.53866047970950603485107421875" lon="2.11008109152317047119140625">
        <ele>163.8000030517578125</ele>
        <time>2022-01-07T13:41:26.000Z</time>
      </trkpt>
      <trkpt lat="41.5386868827044963836669921875" lon="2.11015225388109683990478515625">
        <ele>163.8000030517578125</ele>
        <time>2022-01-07T13:41:27.000Z</time>
      </trkpt>
      <trkpt lat="41.53871119022369384765625" lon="2.11022266186773777008056640625">
        <ele>164</ele>
        <time>2022-01-07T13:41:28.000Z</time>
      </trkpt>
      <trkpt lat="41.538730971515178680419921875" lon="2.1102978475391864776611328125">
        <ele>164</ele>
        <time>2022-01-07T13:41:29.000Z</time>
      </trkpt>
      <trkpt lat="41.53875117190182209014892578125" lon="2.11037755943834781646728515625">
        <ele>164</ele>
        <time>2022-01-07T13:41:30.000Z</time>
      </trkpt>
      <trkpt lat="41.53876994736492633819580078125" lon="2.11045484058558940887451171875">
        <ele>164.1999969482421875</ele>
        <time>2022-01-07T13:41:31.000Z</time>
      </trkpt>
      <trkpt lat="41.53878754936158657073974609375" lon="2.110530696809291839599609375">
        <ele>164.399993896484375</ele>
        <time>2022-01-07T13:41:32.000Z</time>
      </trkpt>
      <trkpt lat="41.5388032235205173492431640625" lon="2.11060672067105770111083984375">
        <ele>164.600006103515625</ele>
        <time>2022-01-07T13:41:33.000Z</time>
      </trkpt>
      <trkpt lat="41.5388199873268604278564453125" lon="2.11068064905703067779541015625">
        <ele>164.600006103515625</ele>
        <time>2022-01-07T13:41:34.000Z</time>
      </trkpt>
      <trkpt lat="41.53884270228445529937744140625" lon="2.110750637948513031005859375">
        <ele>164.8000030517578125</ele>
        <time>2022-01-07T13:41:35.000Z</time>
      </trkpt>
      <trkpt lat="41.538866423070430755615234375" lon="2.11082180030643939971923828125">
        <ele>165.1999969482421875</ele>
        <time>2022-01-07T13:41:36.000Z</time>
      </trkpt>
      <trkpt lat="41.53888595290482044219970703125" lon="2.11089438758790493011474609375">
        <ele>165.399993896484375</ele>
        <time>2022-01-07T13:41:37.000Z</time>
      </trkpt>
      <trkpt lat="41.53890439309179782867431640625" lon="2.11096622049808502197265625">
        <ele>165.600006103515625</ele>
        <time>2022-01-07T13:41:38.000Z</time>
      </trkpt>
      <trkpt lat="41.53892769478261470794677734375" lon="2.11104132235050201416015625">
        <ele>165.8000030517578125</ele>
        <time>2022-01-07T13:41:39.000Z</time>
      </trkpt>
      <trkpt lat="41.538954935967922210693359375" lon="2.11113058961927890777587890625">
        <ele>166</ele>
        <time>2022-01-07T13:41:40.000Z</time>
      </trkpt>
      <trkpt lat="41.5389725379645824432373046875" lon="2.1111910231411457061767578125">
        <ele>166.1999969482421875</ele>
        <time>2022-01-07T13:41:41.000Z</time>
      </trkpt>
      <trkpt lat="41.53899726457893848419189453125" lon="2.1112646162509918212890625">
        <ele>166.1999969482421875</ele>
        <time>2022-01-07T13:41:42.000Z</time>
      </trkpt>
      <trkpt lat="41.53901620768010616302490234375" lon="2.11133611388504505157470703125">
        <ele>166.399993896484375</ele>
        <time>2022-01-07T13:41:43.000Z</time>
      </trkpt>
      <trkpt lat="41.53902567923069000244140625" lon="2.11141088046133518218994140625">
        <ele>166.600006103515625</ele>
        <time>2022-01-07T13:41:44.000Z</time>
      </trkpt>
      <trkpt lat="41.5390424430370330810546875" lon="2.11148564703762531280517578125">
        <ele>166.600006103515625</ele>
        <time>2022-01-07T13:41:45.000Z</time>
      </trkpt>
      <trkpt lat="41.53905074112117290496826171875" lon="2.111570052802562713623046875">
        <ele>166.8000030517578125</ele>
        <time>2022-01-07T13:41:46.000Z</time>
      </trkpt>
      <trkpt lat="41.5390690974891185760498046875" lon="2.111641466617584228515625">
        <ele>166.8000030517578125</ele>
        <time>2022-01-07T13:41:47.000Z</time>
      </trkpt>
      <trkpt lat="41.53908292762935161590576171875" lon="2.11171262897551059722900390625">
        <ele>167</ele>
        <time>2022-01-07T13:41:48.000Z</time>
      </trkpt>
      <trkpt lat="41.5390960872173309326171875" lon="2.1117807738482952117919921875">
        <ele>167</ele>
        <time>2022-01-07T13:41:49.000Z</time>
      </trkpt>
      <trkpt lat="41.53910941444337368011474609375" lon="2.11184732615947723388671875">
        <ele>167</ele>
        <time>2022-01-07T13:41:50.000Z</time>
      </trkpt>
      <trkpt lat="41.539121568202972412109375" lon="2.11190960370004177093505859375">
        <ele>167</ele>
        <time>2022-01-07T13:41:51.000Z</time>
      </trkpt>
      <trkpt lat="41.53913472779095172882080078125" lon="2.11196073330938816070556640625">
        <ele>167</ele>
        <time>2022-01-07T13:41:52.000Z</time>
      </trkpt>
      <trkpt lat="41.5391505695879459381103515625" lon="2.11200800724327564239501953125">
        <ele>167.1999969482421875</ele>
        <time>2022-01-07T13:41:53.000Z</time>
      </trkpt>
      <trkpt lat="41.5391643159091472625732421875" lon="2.112057544291019439697265625">
        <ele>167.399993896484375</ele>
        <time>2022-01-07T13:41:54.000Z</time>
      </trkpt>
      <trkpt lat="41.5391753800213336944580078125" lon="2.11210641078650951385498046875">
        <ele>167.399993896484375</ele>
        <time>2022-01-07T13:41:55.000Z</time>
      </trkpt>
      <trkpt lat="41.5391881205141544342041015625" lon="2.11215167306363582611083984375">
        <ele>167.399993896484375</ele>
        <time>2022-01-07T13:41:56.000Z</time>
      </trkpt>
      <trkpt lat="41.53920136392116546630859375" lon="2.1121945045888423919677734375">
        <ele>167.399993896484375</ele>
        <time>2022-01-07T13:41:57.000Z</time>
      </trkpt>
      <trkpt lat="41.53921318240463733673095703125" lon="2.11223850958049297332763671875">
        <ele>167.8000030517578125</ele>
        <time>2022-01-07T13:41:58.000Z</time>
      </trkpt>
      <trkpt lat="41.5392273478209972381591796875" lon="2.1122826822102069854736328125">
        <ele>168</ele>
        <time>2022-01-07T13:41:59.000Z</time>
      </trkpt>
      <trkpt lat="41.5392484702169895172119140625" lon="2.11231411434710025787353515625">
        <ele>168</ele>
        <time>2022-01-07T13:42:00.000Z</time>
      </trkpt>
      <trkpt lat="41.53926841914653778076171875" lon="2.11235032416880130767822265625">
        <ele>168.1999969482421875</ele>
        <time>2022-01-07T13:42:01.000Z</time>
      </trkpt>
      <trkpt lat="41.5392850153148174285888671875" lon="2.11239181458950042724609375">
        <ele>168.399993896484375</ele>
        <time>2022-01-07T13:42:02.000Z</time>
      </trkpt>
      <trkpt lat="41.53929700143635272979736328125" lon="2.112438417971134185791015625">
        <ele>168.600006103515625</ele>
        <time>2022-01-07T13:42:03.000Z</time>
      </trkpt>
      <trkpt lat="41.53930571861565113067626953125" lon="2.112471275031566619873046875">
        <ele>168.600006103515625</ele>
        <time>2022-01-07T13:42:04.000Z</time>
      </trkpt>
      <trkpt lat="41.53931393288075923919677734375" lon="2.11249616928398609161376953125">
        <ele>168.8000030517578125</ele>
        <time>2022-01-07T13:42:05.000Z</time>
      </trkpt>
      <trkpt lat="41.5393111668527126312255859375" lon="2.1125089935958385467529296875">
        <ele>169</ele>
        <time>2022-01-07T13:42:06.000Z</time>
      </trkpt>
      <trkpt lat="41.53929549269378185272216796875" lon="2.11251921951770782470703125">
        <ele>169</ele>
        <time>2022-01-07T13:42:07.000Z</time>
      </trkpt>
      <trkpt lat="41.5392726100981235504150390625" lon="2.11253841407597064971923828125">
        <ele>169.1999969482421875</ele>
        <time>2022-01-07T13:42:08.000Z</time>
      </trkpt>
      <trkpt lat="41.539258025586605072021484375" lon="2.11256355978548526763916015625">
        <ele>169.1999969482421875</ele>
        <time>2022-01-07T13:42:09.000Z</time>
      </trkpt>
      <trkpt lat="41.53926573693752288818359375" lon="2.1125975064933300018310546875">
        <ele>169.1999969482421875</ele>
        <time>2022-01-07T13:42:10.000Z</time>
      </trkpt>
      <trkpt lat="41.53928727842867374420166015625" lon="2.11263296194374561309814453125">
        <ele>169.1999969482421875</ele>
        <time>2022-01-07T13:42:11.000Z</time>
      </trkpt>
      <trkpt lat="41.53931544162333011627197265625" lon="2.1126722730696201324462890625">
        <ele>169.1999969482421875</ele>
        <time>2022-01-07T13:42:12.000Z</time>
      </trkpt>
      <trkpt lat="41.539351232349872589111328125" lon="2.11271678097546100616455078125">
        <ele>169.1999969482421875</ele>
        <time>2022-01-07T13:42:13.000Z</time>
      </trkpt>
      <trkpt lat="41.53938618488609790802001953125" lon="2.11277109570801258087158203125">
        <ele>169.1999969482421875</ele>
        <time>2022-01-07T13:42:14.000Z</time>
      </trkpt>
      <trkpt lat="41.5394067205488681793212890625" lon="2.11283546872437000274658203125">
        <ele>169.1999969482421875</ele>
        <time>2022-01-07T13:42:15.000Z</time>
      </trkpt>
      <trkpt lat="41.539427340030670166015625" lon="2.1129083074629306793212890625">
        <ele>169.1999969482421875</ele>
        <time>2022-01-07T13:42:16.000Z</time>
      </trkpt>
      <trkpt lat="41.53944787569344043731689453125" lon="2.11298299022018909454345703125">
        <ele>169.1999969482421875</ele>
        <time>2022-01-07T13:42:17.000Z</time>
      </trkpt>
      <trkpt lat="41.5394700877368450164794921875" lon="2.1130528114736080169677734375">
        <ele>169.1999969482421875</ele>
        <time>2022-01-07T13:42:18.000Z</time>
      </trkpt>
      <trkpt lat="41.5394878573715686798095703125" lon="2.1131222136318683624267578125">
        <ele>169.1999969482421875</ele>
        <time>2022-01-07T13:42:19.000Z</time>
      </trkpt>
      <trkpt lat="41.53950118459761142730712890625" lon="2.11319237016141414642333984375">
        <ele>169.1999969482421875</ele>
        <time>2022-01-07T13:42:20.000Z</time>
      </trkpt>
      <trkpt lat="41.53952029533684253692626953125" lon="2.1132603473961353302001953125">
        <ele>169.1999969482421875</ele>
        <time>2022-01-07T13:42:21.000Z</time>
      </trkpt>
      <trkpt lat="41.5395413339138031005859375" lon="2.1133263967931270599365234375">
        <ele>169</ele>
        <time>2022-01-07T13:42:22.000Z</time>
      </trkpt>
      <trkpt lat="41.53955985791981220245361328125" lon="2.11339806206524372100830078125">
        <ele>169</ele>
        <time>2022-01-07T13:42:23.000Z</time>
      </trkpt>
      <trkpt lat="41.53958282433450222015380859375" lon="2.11347064934670925140380859375">
        <ele>169</ele>
        <time>2022-01-07T13:42:24.000Z</time>
      </trkpt>
      <trkpt lat="41.539598666131496429443359375" lon="2.11354876868426799774169921875">
        <ele>169</ele>
        <time>2022-01-07T13:42:25.000Z</time>
      </trkpt>
      <trkpt lat="41.53961802832782268524169921875" lon="2.11362420581281185150146484375">
        <ele>168.8000030517578125</ele>
        <time>2022-01-07T13:42:26.000Z</time>
      </trkpt>
      <trkpt lat="41.539634875953197479248046875" lon="2.1137019060552120208740234375">
        <ele>168.8000030517578125</ele>
        <time>2022-01-07T13:42:27.000Z</time>
      </trkpt>
      <trkpt lat="41.53965733945369720458984375" lon="2.11377323605120182037353515625">
        <ele>168.8000030517578125</ele>
        <time>2022-01-07T13:42:28.000Z</time>
      </trkpt>
      <trkpt lat="41.53968106023967266082763671875" lon="2.113851606845855712890625">
        <ele>168.8000030517578125</ele>
        <time>2022-01-07T13:42:29.000Z</time>
      </trkpt>
      <trkpt lat="41.53970469720661640167236328125" lon="2.1139305643737316131591796875">
        <ele>168.8000030517578125</ele>
        <time>2022-01-07T13:42:30.000Z</time>
      </trkpt>
      <trkpt lat="41.53972866944968700408935546875" lon="2.114014215767383575439453125">
        <ele>168.8000030517578125</ele>
        <time>2022-01-07T13:42:31.000Z</time>
      </trkpt>
      <trkpt lat="41.53975255787372589111328125" lon="2.1140965260565280914306640625">
        <ele>168.600006103515625</ele>
        <time>2022-01-07T13:42:32.000Z</time>
      </trkpt>
      <trkpt lat="41.53977745212614536285400390625" lon="2.11417573504149913787841796875">
        <ele>168.600006103515625</ele>
        <time>2022-01-07T13:42:33.000Z</time>
      </trkpt>
      <trkpt lat="41.53980217874050140380859375" lon="2.11425536312162876129150390625">
        <ele>168.600006103515625</ele>
        <time>2022-01-07T13:42:34.000Z</time>
      </trkpt>
      <trkpt lat="41.53982774354517459869384765625" lon="2.1143372543156147003173828125">
        <ele>168.600006103515625</ele>
        <time>2022-01-07T13:42:35.000Z</time>
      </trkpt>
      <trkpt lat="41.5398536436259746551513671875" lon="2.11441763676702976226806640625">
        <ele>168.600006103515625</ele>
        <time>2022-01-07T13:42:36.000Z</time>
      </trkpt>
      <trkpt lat="41.53988054953515529632568359375" lon="2.11449801921844482421875">
        <ele>168.600006103515625</ele>
        <time>2022-01-07T13:42:37.000Z</time>
      </trkpt>
      <trkpt lat="41.53991323895752429962158203125" lon="2.1145771443843841552734375">
        <ele>168.600006103515625</ele>
        <time>2022-01-07T13:42:38.000Z</time>
      </trkpt>
      <trkpt lat="41.5399490296840667724609375" lon="2.11465769447386264801025390625">
        <ele>168.600006103515625</ele>
        <time>2022-01-07T13:42:39.000Z</time>
      </trkpt>
      <trkpt lat="41.5399837307631969451904296875" lon="2.114733718335628509521484375">
        <ele>168.399993896484375</ele>
        <time>2022-01-07T13:42:40.000Z</time>
      </trkpt>
      <trkpt lat="41.5400209464132785797119140625" lon="2.11480638943612575531005859375">
        <ele>168.399993896484375</ele>
        <time>2022-01-07T13:42:41.000Z</time>
      </trkpt>
      <trkpt lat="41.54005405493080615997314453125" lon="2.11487998254597187042236328125">
        <ele>168.399993896484375</ele>
        <time>2022-01-07T13:42:42.000Z</time>
      </trkpt>
      <trkpt lat="41.5400886721909046173095703125" lon="2.11495139636099338531494140625">
        <ele>168.1999969482421875</ele>
        <time>2022-01-07T13:42:43.000Z</time>
      </trkpt>
      <trkpt lat="41.54012412764132022857666015625" lon="2.11502574384212493896484375">
        <ele>168</ele>
        <time>2022-01-07T13:42:44.000Z</time>
      </trkpt>
      <trkpt lat="41.5401651151478290557861328125" lon="2.115097157657146453857421875">
        <ele>168</ele>
        <time>2022-01-07T13:42:45.000Z</time>
      </trkpt>
      <trkpt lat="41.5402083657681941986083984375" lon="2.1151657216250896453857421875">
        <ele>168</ele>
        <time>2022-01-07T13:42:46.000Z</time>
      </trkpt>
      <trkpt lat="41.54025278985500335693359375" lon="2.11523219011723995208740234375">
        <ele>167.8000030517578125</ele>
        <time>2022-01-07T13:42:47.000Z</time>
      </trkpt>
      <trkpt lat="41.54029570519924163818359375" lon="2.1152988262474536895751953125">
        <ele>167.8000030517578125</ele>
        <time>2022-01-07T13:42:48.000Z</time>
      </trkpt>
      <trkpt lat="41.540346331894397735595703125" lon="2.1153591759502887725830078125">
        <ele>167.600006103515625</ele>
        <time>2022-01-07T13:42:49.000Z</time>
      </trkpt>
      <trkpt lat="41.5403823740780353546142578125" lon="2.11542581208050251007080078125">
        <ele>167.399993896484375</ele>
        <time>2022-01-07T13:42:50.000Z</time>
      </trkpt>
      <trkpt lat="41.5404157340526580810546875" lon="2.115493118762969970703125">
        <ele>167</ele>
        <time>2022-01-07T13:42:51.000Z</time>
      </trkpt>
      <trkpt lat="41.5404631756246089935302734375" lon="2.115549109876155853271484375">
        <ele>166.8000030517578125</ele>
        <time>2022-01-07T13:42:52.000Z</time>
      </trkpt>
      <trkpt lat="41.540508270263671875" lon="2.11560719646513462066650390625">
        <ele>166.8000030517578125</ele>
        <time>2022-01-07T13:42:53.000Z</time>
      </trkpt>
      <trkpt lat="41.5405516885221004486083984375" lon="2.1156669594347476959228515625">
        <ele>166.399993896484375</ele>
        <time>2022-01-07T13:42:54.000Z</time>
      </trkpt>
      <trkpt lat="41.54059703461825847625732421875" lon="2.11572169326245784759521484375">
        <ele>166.1999969482421875</ele>
        <time>2022-01-07T13:42:55.000Z</time>
      </trkpt>
      <trkpt lat="41.5406425483524799346923828125" lon="2.11577651090919971466064453125">
        <ele>166</ele>
        <time>2022-01-07T13:42:56.000Z</time>
      </trkpt>
      <trkpt lat="41.5406884811818599700927734375" lon="2.1158309094607830047607421875">
        <ele>166</ele>
        <time>2022-01-07T13:42:57.000Z</time>
      </trkpt>
      <trkpt lat="41.540733240544795989990234375" lon="2.11589184589684009552001953125">
        <ele>165.8000030517578125</ele>
        <time>2022-01-07T13:42:58.000Z</time>
      </trkpt>
      <trkpt lat="41.54077976010739803314208984375" lon="2.11595403961837291717529296875">
        <ele>165.8000030517578125</ele>
        <time>2022-01-07T13:42:59.000Z</time>
      </trkpt>
      <trkpt lat="41.540825776755809783935546875" lon="2.11601682007312774658203125">
        <ele>165.8000030517578125</ele>
        <time>2022-01-07T13:43:00.000Z</time>
      </trkpt>
      <trkpt lat="41.54087506234645843505859375" lon="2.11607675068080425262451171875">
        <ele>165.8000030517578125</ele>
        <time>2022-01-07T13:43:01.000Z</time>
      </trkpt>
      <trkpt lat="41.54091521166265010833740234375" lon="2.11612637154757976531982421875">
        <ele>165.8000030517578125</ele>
        <time>2022-01-07T13:43:02.000Z</time>
      </trkpt>
      <trkpt lat="41.54097405262291431427001953125" lon="2.11619627662003040313720703125">
        <ele>165.8000030517578125</ele>
        <time>2022-01-07T13:43:03.000Z</time>
      </trkpt>
      <trkpt lat="41.5410227514803409576416015625" lon="2.1162526868283748626708984375">
        <ele>165.8000030517578125</ele>
        <time>2022-01-07T13:43:04.000Z</time>
      </trkpt>
      <trkpt lat="41.541070528328418731689453125" lon="2.11630649864673614501953125">
        <ele>165.8000030517578125</ele>
        <time>2022-01-07T13:43:05.000Z</time>
      </trkpt>
      <trkpt lat="41.54111822135746479034423828125" lon="2.11635704152286052703857421875">
        <ele>165.8000030517578125</ele>
        <time>2022-01-07T13:43:06.000Z</time>
      </trkpt>
      <trkpt lat="41.54116599820554256439208984375" lon="2.1164025552570819854736328125">
        <ele>165.8000030517578125</ele>
        <time>2022-01-07T13:43:07.000Z</time>
      </trkpt>
      <trkpt lat="41.5412138588726520538330078125" lon="2.116442285478115081787109375">
        <ele>165.8000030517578125</ele>
        <time>2022-01-07T13:43:08.000Z</time>
      </trkpt>
      <trkpt lat="41.541262976825237274169921875" lon="2.11647455580532550811767578125">
        <ele>166</ele>
        <time>2022-01-07T13:43:09.000Z</time>
      </trkpt>
      <trkpt lat="41.54130983166396617889404296875" lon="2.1165058203041553497314453125">
        <ele>166</ele>
        <time>2022-01-07T13:43:10.000Z</time>
      </trkpt>
      <trkpt lat="41.54135006479918956756591796875" lon="2.116539515554904937744140625">
        <ele>166</ele>
        <time>2022-01-07T13:43:11.000Z</time>
      </trkpt>
      <trkpt lat="41.54138644225895404815673828125" lon="2.11657547391951084136962890625">
        <ele>166.1999969482421875</ele>
        <time>2022-01-07T13:43:12.000Z</time>
      </trkpt>
      <trkpt lat="41.541416533291339874267578125" lon="2.1166174672544002532958984375">
        <ele>166.1999969482421875</ele>
        <time>2022-01-07T13:43:13.000Z</time>
      </trkpt>
      <trkpt lat="41.54144704341888427734375" lon="2.11665862239897251129150390625">
        <ele>166.1999969482421875</ele>
        <time>2022-01-07T13:43:14.000Z</time>
      </trkpt>
      <trkpt lat="41.54148383997380733489990234375" lon="2.116695083677768707275390625">
        <ele>166.1999969482421875</ele>
        <time>2022-01-07T13:43:15.000Z</time>
      </trkpt>
      <trkpt lat="41.541525162756443023681640625" lon="2.11672534234821796417236328125">
        <ele>166.399993896484375</ele>
        <time>2022-01-07T13:43:16.000Z</time>
      </trkpt>
      <trkpt lat="41.54156363569200038909912109375" lon="2.11675015278160572052001953125">
        <ele>166.399993896484375</ele>
        <time>2022-01-07T13:43:17.000Z</time>
      </trkpt>
      <trkpt lat="41.54159850440919399261474609375" lon="2.1167730353772640228271484375">
        <ele>166.600006103515625</ele>
        <time>2022-01-07T13:43:18.000Z</time>
      </trkpt>
      <trkpt lat="41.54162918217480182647705078125" lon="2.1167887933552265167236328125">
        <ele>166.8000030517578125</ele>
        <time>2022-01-07T13:43:19.000Z</time>
      </trkpt>
      <trkpt lat="41.5416513942182064056396484375" lon="2.1167894639074802398681640625">
        <ele>167</ele>
        <time>2022-01-07T13:43:20.000Z</time>
      </trkpt>
      <trkpt lat="41.54167142696678638458251953125" lon="2.11677228100597858428955078125">
        <ele>167.1999969482421875</ele>
        <time>2022-01-07T13:43:21.000Z</time>
      </trkpt>
      <trkpt lat="41.541681401431560516357421875" lon="2.1167794056236743927001953125">
        <ele>167.399993896484375</ele>
        <time>2022-01-07T13:43:22.000Z</time>
      </trkpt>
      <trkpt lat="41.54168819077312946319580078125" lon="2.1167886257171630859375">
        <ele>167.399993896484375</ele>
        <time>2022-01-07T13:43:23.000Z</time>
      </trkpt>
      <trkpt lat="41.54169221408665180206298828125" lon="2.1168052218854427337646484375">
        <ele>167.600006103515625</ele>
        <time>2022-01-07T13:43:24.000Z</time>
      </trkpt>
      <trkpt lat="41.54169942252337932586669921875" lon="2.11681536398828029632568359375">
        <ele>167.8000030517578125</ele>
        <time>2022-01-07T13:43:25.000Z</time>
      </trkpt>
      <trkpt lat="41.541714929044246673583984375" lon="2.11683757603168487548828125">
        <ele>168</ele>
        <time>2022-01-07T13:43:26.000Z</time>
      </trkpt>
      <trkpt lat="41.54172825627028942108154296875" lon="2.116858027875423431396484375">
        <ele>168.1999969482421875</ele>
        <time>2022-01-07T13:43:27.000Z</time>
      </trkpt>
      <trkpt lat="41.54175004921853542327880859375" lon="2.1168756298720836639404296875">
        <ele>168.600006103515625</ele>
        <time>2022-01-07T13:43:28.000Z</time>
      </trkpt>
      <trkpt lat="41.5417784638702869415283203125" lon="2.11688560433685779571533203125">
        <ele>168.600006103515625</ele>
        <time>2022-01-07T13:43:29.000Z</time>
      </trkpt>
      <trkpt lat="41.5418089739978313446044921875" lon="2.1168880350887775421142578125">
        <ele>168.8000030517578125</ele>
        <time>2022-01-07T13:43:30.000Z</time>
      </trkpt>
      <trkpt lat="41.54183973558247089385986328125" lon="2.1168917231261730194091796875">
        <ele>168.8000030517578125</ele>
        <time>2022-01-07T13:43:31.000Z</time>
      </trkpt>
      <trkpt lat="41.541873179376125335693359375" lon="2.11691401898860931396484375">
        <ele>168.8000030517578125</ele>
        <time>2022-01-07T13:43:32.000Z</time>
      </trkpt>
      <trkpt lat="41.54190964065492153167724609375" lon="2.11693639867007732391357421875">
        <ele>169</ele>
        <time>2022-01-07T13:43:33.000Z</time>
      </trkpt>
      <trkpt lat="41.54195238836109638214111328125" lon="2.1169534139335155487060546875">
        <ele>168.8000030517578125</ele>
        <time>2022-01-07T13:43:34.000Z</time>
      </trkpt>
      <trkpt lat="41.54199890792369842529296875" lon="2.11696975864470005035400390625">
        <ele>169.1999969482421875</ele>
        <time>2022-01-07T13:43:35.000Z</time>
      </trkpt>
      <trkpt lat="41.54204509221017360687255859375" lon="2.11698501370847225189208984375">
        <ele>169.1999969482421875</ele>
        <time>2022-01-07T13:43:36.000Z</time>
      </trkpt>
      <trkpt lat="41.54208733700215816497802734375" lon="2.1169996820390224456787109375">
        <ele>169.1999969482421875</ele>
        <time>2022-01-07T13:43:37.000Z</time>
      </trkpt>
      <trkpt lat="41.54212723486125469207763671875" lon="2.11701619438827037811279296875">
        <ele>169.1999969482421875</ele>
        <time>2022-01-07T13:43:38.000Z</time>
      </trkpt>
      <trkpt lat="41.54217065311968326568603515625" lon="2.1170348860323429107666015625">
        <ele>169</ele>
        <time>2022-01-07T13:43:39.000Z</time>
      </trkpt>
      <trkpt lat="41.54221558012068271636962890625" lon="2.117051146924495697021484375">
        <ele>169.1999969482421875</ele>
        <time>2022-01-07T13:43:40.000Z</time>
      </trkpt>
      <trkpt lat="41.54226486571133136749267578125" lon="2.1170501410961151123046875">
        <ele>169.1999969482421875</ele>
        <time>2022-01-07T13:43:41.000Z</time>
      </trkpt>
      <trkpt lat="41.54231934808194637298583984375" lon="2.11707226932048797607421875">
        <ele>169.399993896484375</ele>
        <time>2022-01-07T13:43:42.000Z</time>
      </trkpt>
      <trkpt lat="41.542375087738037109375" lon="2.1170878596603870391845703125">
        <ele>169.399993896484375</ele>
        <time>2022-01-07T13:43:43.000Z</time>
      </trkpt>
      <trkpt lat="41.54242378659546375274658203125" lon="2.117107473313808441162109375">
        <ele>169.1999969482421875</ele>
        <time>2022-01-07T13:43:44.000Z</time>
      </trkpt>
      <trkpt lat="41.54248648323118686676025390625" lon="2.11713261902332305908203125">
        <ele>169.399993896484375</ele>
        <time>2022-01-07T13:43:45.000Z</time>
      </trkpt>
      <trkpt lat="41.54254071414470672607421875" lon="2.1171495504677295684814453125">
        <ele>169.399993896484375</ele>
        <time>2022-01-07T13:43:46.000Z</time>
      </trkpt>
      <trkpt lat="41.5425962023437023162841796875" lon="2.11716346442699432373046875">
        <ele>169.600006103515625</ele>
        <time>2022-01-07T13:43:47.000Z</time>
      </trkpt>
      <trkpt lat="41.54264925979077816009521484375" lon="2.11717645637691020965576171875">
        <ele>169.600006103515625</ele>
        <time>2022-01-07T13:43:48.000Z</time>
      </trkpt>
      <trkpt lat="41.54269971884787082672119140625" lon="2.1171874366700649261474609375">
        <ele>169.600006103515625</ele>
        <time>2022-01-07T13:43:49.000Z</time>
      </trkpt>
      <trkpt lat="41.54275051318109035491943359375" lon="2.11719992570579051971435546875">
        <ele>169.600006103515625</ele>
        <time>2022-01-07T13:43:50.000Z</time>
      </trkpt>
      <trkpt lat="41.5428023971617221832275390625" lon="2.11720914579927921295166015625">
        <ele>169.8000030517578125</ele>
        <time>2022-01-07T13:43:51.000Z</time>
      </trkpt>
      <trkpt lat="41.5428510122001171112060546875" lon="2.1172212995588779449462890625">
        <ele>169.8000030517578125</ele>
        <time>2022-01-07T13:43:52.000Z</time>
      </trkpt>
      <trkpt lat="41.5429002977907657623291015625" lon="2.11722574196755886077880859375">
        <ele>170</ele>
        <time>2022-01-07T13:43:53.000Z</time>
      </trkpt>
      <trkpt lat="41.54294782318174839019775390625" lon="2.1172273345291614532470703125">
        <ele>170</ele>
        <time>2022-01-07T13:43:54.000Z</time>
      </trkpt>
      <trkpt lat="41.54300213791429996490478515625" lon="2.1172199584543704986572265625">
        <ele>170.1999969482421875</ele>
        <time>2022-01-07T13:43:55.000Z</time>
      </trkpt>
      <trkpt lat="41.54304924421012401580810546875" lon="2.11721484549343585968017578125">
        <ele>170.399993896484375</ele>
        <time>2022-01-07T13:43:56.000Z</time>
      </trkpt>
      <trkpt lat="41.54308746568858623504638671875" lon="2.11721400730311870574951171875">
        <ele>170.600006103515625</ele>
        <time>2022-01-07T13:43:57.000Z</time>
      </trkpt>
      <trkpt lat="41.54313440434634685516357421875" lon="2.1172145940363407135009765625">
        <ele>170.8000030517578125</ele>
        <time>2022-01-07T13:43:58.000Z</time>
      </trkpt>
      <trkpt lat="41.54317916370928287506103515625" lon="2.11722473613917827606201171875">
        <ele>171</ele>
        <time>2022-01-07T13:43:59.000Z</time>
      </trkpt>
      <trkpt lat="41.54324923641979694366455078125" lon="2.1172434277832508087158203125">
        <ele>171.1999969482421875</ele>
        <time>2022-01-07T13:44:00.000Z</time>
      </trkpt>
      <trkpt lat="41.5433049760758876800537109375" lon="2.11724954657256603240966796875">
        <ele>171.1999969482421875</ele>
        <time>2022-01-07T13:44:01.000Z</time>
      </trkpt>
      <trkpt lat="41.54335887171328067779541015625" lon="2.1172514744102954864501953125">
        <ele>171.399993896484375</ele>
        <time>2022-01-07T13:44:02.000Z</time>
      </trkpt>
      <trkpt lat="41.54341771267354488372802734375" lon="2.11724686436355113983154296875">
        <ele>171.399993896484375</ele>
        <time>2022-01-07T13:44:03.000Z</time>
      </trkpt>
      <trkpt lat="41.54348577372729778289794921875" lon="2.11723932065069675445556640625">
        <ele>171.600006103515625</ele>
        <time>2022-01-07T13:44:04.000Z</time>
      </trkpt>
      <trkpt lat="41.5435396693646907806396484375" lon="2.11723613552749156951904296875">
        <ele>171.600006103515625</ele>
        <time>2022-01-07T13:44:05.000Z</time>
      </trkpt>
      <trkpt lat="41.5435939840972423553466796875" lon="2.117236219346523284912109375">
        <ele>171.8000030517578125</ele>
        <time>2022-01-07T13:44:06.000Z</time>
      </trkpt>
      <trkpt lat="41.543650142848491668701171875" lon="2.11723462678492069244384765625">
        <ele>171.8000030517578125</ele>
        <time>2022-01-07T13:44:07.000Z</time>
      </trkpt>
      <trkpt lat="41.5437076427042484283447265625" lon="2.1172286756336688995361328125">
        <ele>171.8000030517578125</ele>
        <time>2022-01-07T13:44:08.000Z</time>
      </trkpt>
      <trkpt lat="41.5437609516084194183349609375" lon="2.1172243170440196990966796875">
        <ele>172</ele>
        <time>2022-01-07T13:44:09.000Z</time>
      </trkpt>
      <trkpt lat="41.543812416493892669677734375" lon="2.11722222156822681427001953125">
        <ele>172.1999969482421875</ele>
        <time>2022-01-07T13:44:10.000Z</time>
      </trkpt>
      <trkpt lat="41.54386446811258792877197265625" lon="2.11721551604568958282470703125">
        <ele>172.399993896484375</ele>
        <time>2022-01-07T13:44:11.000Z</time>
      </trkpt>
      <trkpt lat="41.5439151786267757415771484375" lon="2.117204032838344573974609375">
        <ele>172.399993896484375</ele>
        <time>2022-01-07T13:44:12.000Z</time>
      </trkpt>
      <trkpt lat="41.54396538622677326202392578125" lon="2.11719724349677562713623046875">
        <ele>172.600006103515625</ele>
        <time>2022-01-07T13:44:13.000Z</time>
      </trkpt>
      <trkpt lat="41.54400729574263095855712890625" lon="2.1171850897371768951416015625">
        <ele>172.600006103515625</ele>
        <time>2022-01-07T13:44:14.000Z</time>
      </trkpt>
      <trkpt lat="41.54404585249722003936767578125" lon="2.1171726845204830169677734375">
        <ele>172.8000030517578125</ele>
        <time>2022-01-07T13:44:15.000Z</time>
      </trkpt>
      <trkpt lat="41.54409295879304409027099609375" lon="2.1171549148857593536376953125">
        <ele>173</ele>
        <time>2022-01-07T13:44:16.000Z</time>
      </trkpt>
      <trkpt lat="41.54413771815598011016845703125" lon="2.1171371452510356903076171875">
        <ele>173</ele>
        <time>2022-01-07T13:44:17.000Z</time>
      </trkpt>
      <trkpt lat="41.54418113641440868377685546875" lon="2.11712096817791461944580078125">
        <ele>173.1999969482421875</ele>
        <time>2022-01-07T13:44:18.000Z</time>
      </trkpt>
      <trkpt lat="41.54423260129988193511962890625" lon="2.1171046234667301177978515625">
        <ele>173.399993896484375</ele>
        <time>2022-01-07T13:44:19.000Z</time>
      </trkpt>
      <trkpt lat="41.54428808949887752532958984375" lon="2.117087356746196746826171875">
        <ele>173.600006103515625</ele>
        <time>2022-01-07T13:44:20.000Z</time>
      </trkpt>
      <trkpt lat="41.5443406440317630767822265625" lon="2.117071263492107391357421875">
        <ele>173.8000030517578125</ele>
        <time>2022-01-07T13:44:21.000Z</time>
      </trkpt>
      <trkpt lat="41.54439085163176059722900390625" lon="2.117059864103794097900390625">
        <ele>174</ele>
        <time>2022-01-07T13:44:22.000Z</time>
      </trkpt>
      <trkpt lat="41.5444457530975341796875" lon="2.11705927737057209014892578125">
        <ele>174.1999969482421875</ele>
        <time>2022-01-07T13:44:23.000Z</time>
      </trkpt>
      <trkpt lat="41.54450275003910064697265625" lon="2.11707419715821743011474609375">
        <ele>174.399993896484375</ele>
        <time>2022-01-07T13:44:24.000Z</time>
      </trkpt>
      <trkpt lat="41.54455714859068393707275390625" lon="2.1170932240784168243408203125">
        <ele>174.399993896484375</ele>
        <time>2022-01-07T13:44:25.000Z</time>
      </trkpt>
      <trkpt lat="41.54460224322974681854248046875" lon="2.117118537425994873046875">
        <ele>174.600006103515625</ele>
        <time>2022-01-07T13:44:26.000Z</time>
      </trkpt>
      <trkpt lat="41.5446450747549533843994140625" lon="2.11714259348809719085693359375">
        <ele>174.600006103515625</ele>
        <time>2022-01-07T13:44:27.000Z</time>
      </trkpt>
      <trkpt lat="41.54468438588082790374755859375" lon="2.11715407669544219970703125">
        <ele>174.8000030517578125</ele>
        <time>2022-01-07T13:44:28.000Z</time>
      </trkpt>
      <trkpt lat="41.544714979827404022216796875" lon="2.11715566925704479217529296875">
        <ele>175</ele>
        <time>2022-01-07T13:44:29.000Z</time>
      </trkpt>
      <trkpt lat="41.54475848190486431121826171875" lon="2.1171505562961101531982421875">
        <ele>175</ele>
        <time>2022-01-07T13:44:30.000Z</time>
      </trkpt>
      <trkpt lat="41.5447962842881679534912109375" lon="2.1171418391168117523193359375">
        <ele>175.1999969482421875</ele>
        <time>2022-01-07T13:44:31.000Z</time>
      </trkpt>
      <trkpt lat="41.54482687823474407196044921875" lon="2.1171378158032894134521484375">
        <ele>175.399993896484375</ele>
        <time>2022-01-07T13:44:32.000Z</time>
      </trkpt>
      <trkpt lat="41.54485185630619525909423828125" lon="2.117143683135509490966796875">
        <ele>175.600006103515625</ele>
        <time>2022-01-07T13:44:33.000Z</time>
      </trkpt>
      <trkpt lat="41.54488622210919857025146484375" lon="2.117173187434673309326171875">
        <ele>175.8000030517578125</ele>
        <time>2022-01-07T13:44:34.000Z</time>
      </trkpt>
      <trkpt lat="41.5448985435068607330322265625" lon="2.117199003696441650390625">
        <ele>176</ele>
        <time>2022-01-07T13:44:35.000Z</time>
      </trkpt>
      <trkpt lat="41.54490214772522449493408203125" lon="2.1172394044697284698486328125">
        <ele>176.1999969482421875</ele>
        <time>2022-01-07T13:44:36.000Z</time>
      </trkpt>
      <trkpt lat="41.54489980079233646392822265625" lon="2.11724552325904369354248046875">
        <ele>176.399993896484375</ele>
        <time>2022-01-07T13:44:37.000Z</time>
      </trkpt>
      <trkpt lat="41.54489980079233646392822265625" lon="2.11724552325904369354248046875">
        <ele>176.600006103515625</ele>
        <time>2022-01-07T13:44:38.000Z</time>
      </trkpt>
    </trkseg>
  </trk>
</gpx>
